<?xml version="1.0"?>
<gpx
 version="1.1"
 creator="Satmap Active 20"
 xmlns:xsi="http://www.w3.org/2001/XMLSchema-instance"
 xmlns="http://www.topografix.com/GPX/1/1"
 xmlns:satmap="http://www.satmap.com/updates/xmlschemas/GpxExtensions/v2/GpxExtensions_v2.xsd"
 xsi:schemaLocation="http://www.topografix.com/GPX/1/1 http://www.topografix.com/GPX/1/1/gpx.xsd">
<metadata>
<time>2020-10-28T09:15:29Z</time>
<extensions>
<satmap:platform>43</satmap:platform>
<satmap:software version="3.12.831">SM15.exe</satmap:software>
<satmap:username>Jim Grant</satmap:username>
<satmap:network_ids>
<satmap:network_id type="wifi">00-23-A7-EC-D5-78</satmap:network_id>
<satmap:network_id type="bluetooth">80-BB-EB-D7-5B-7C</satmap:network_id>
</satmap:network_ids>
<satmap:snap_type>simple</satmap:snap_type>
</extensions>
</metadata>
<trk>
<name>2020-10-28_0915</name>
<desc>Track 1</desc>
<number>1</number>
<trkseg>
<trkpt lat="53.088863" lon="-1.652486"><ele>282</ele><time>2020-10-28T09:15:29Z</time><name>PT1</name></trkpt>
<trkpt lat="53.088865" lon="-1.652488"><ele>283</ele><time>2020-10-28T09:15:41Z</time><name>PT2</name></trkpt>
<trkpt lat="53.088867" lon="-1.652489"><ele>283</ele><time>2020-10-28T09:15:41Z</time><name>PT3</name></trkpt>
<trkpt lat="53.088869" lon="-1.652492"><ele>283</ele><time>2020-10-28T09:15:43Z</time><name>PT4</name></trkpt>
<trkpt lat="53.088870" lon="-1.652491"><ele>283</ele><time>2020-10-28T09:26:53Z</time><name>PT5</name></trkpt>
<trkpt lat="53.088870" lon="-1.652510"><ele>284</ele><time>2020-10-28T09:26:56Z</time><name>PT6</name></trkpt>
<trkpt lat="53.088869" lon="-1.652509"><ele>285</ele><time>2020-10-28T09:27:01Z</time><name>PT7</name></trkpt>
<trkpt lat="53.088864" lon="-1.652517"><ele>285</ele><time>2020-10-28T09:27:05Z</time><name>PT8</name></trkpt>
<trkpt lat="53.088856" lon="-1.652501"><ele>285</ele><time>2020-10-28T09:27:08Z</time><name>PT9</name></trkpt>
<trkpt lat="53.088856" lon="-1.652509"><ele>284</ele><time>2020-10-28T09:27:11Z</time><name>PT10</name></trkpt>
<trkpt lat="53.088856" lon="-1.652508"><ele>285</ele><time>2020-10-28T09:27:14Z</time><name>PT11</name></trkpt>
<trkpt lat="53.088859" lon="-1.652506"><ele>285</ele><time>2020-10-28T09:27:19Z</time><name>PT12</name></trkpt>
<trkpt lat="53.088866" lon="-1.652519"><ele>283</ele><time>2020-10-28T09:27:22Z</time><name>PT13</name></trkpt>
<trkpt lat="53.088860" lon="-1.652499"><ele>285</ele><time>2020-10-28T09:27:47Z</time><name>PT14</name></trkpt>
<trkpt lat="53.088858" lon="-1.652497"><ele>285</ele><time>2020-10-28T09:27:50Z</time><name>PT15</name></trkpt>
<trkpt lat="53.088868" lon="-1.652492"><ele>284</ele><time>2020-10-28T09:28:23Z</time><name>PT16</name></trkpt>
<trkpt lat="53.088873" lon="-1.652489"><ele>284</ele><time>2020-10-28T09:28:27Z</time><name>PT17</name></trkpt>
<trkpt lat="53.088858" lon="-1.652485"><ele>283</ele><time>2020-10-28T09:28:31Z</time><name>PT18</name></trkpt>
<trkpt lat="53.088853" lon="-1.652483"><ele>283</ele><time>2020-10-28T09:28:34Z</time><name>PT19</name></trkpt>
<trkpt lat="53.088849" lon="-1.652491"><ele>284</ele><time>2020-10-28T09:28:44Z</time><name>PT20</name></trkpt>
<trkpt lat="53.088847" lon="-1.652498"><ele>284</ele><time>2020-10-28T09:28:49Z</time><name>PT21</name></trkpt>
<trkpt lat="53.088845" lon="-1.652504"><ele>283</ele><time>2020-10-28T09:28:52Z</time><name>PT22</name></trkpt>
<trkpt lat="53.088836" lon="-1.652499"><ele>283</ele><time>2020-10-28T09:29:12Z</time><name>PT23</name></trkpt>
<trkpt lat="53.088837" lon="-1.652498"><ele>283</ele><time>2020-10-28T09:29:16Z</time><name>PT24</name></trkpt>
<trkpt lat="53.088844" lon="-1.652502"><ele>284</ele><time>2020-10-28T09:29:32Z</time><name>PT25</name></trkpt>
<trkpt lat="53.088845" lon="-1.652503"><ele>284</ele><time>2020-10-28T09:29:36Z</time><name>PT26</name></trkpt>
<trkpt lat="53.088843" lon="-1.652496"><ele>285</ele><time>2020-10-28T09:29:40Z</time><name>PT27</name></trkpt>
<trkpt lat="53.088843" lon="-1.652489"><ele>286</ele><time>2020-10-28T09:29:43Z</time><name>PT28</name></trkpt>
<trkpt lat="53.088835" lon="-1.652502"><ele>288</ele><time>2020-10-28T09:29:47Z</time><name>PT29</name></trkpt>
<trkpt lat="53.088835" lon="-1.652506"><ele>288</ele><time>2020-10-28T09:30:00Z</time><name>PT30</name></trkpt>
<trkpt lat="53.088827" lon="-1.652513"><ele>286</ele><time>2020-10-28T09:30:04Z</time><name>PT31</name></trkpt>
<trkpt lat="53.088827" lon="-1.652505"><ele>286</ele><time>2020-10-28T09:30:07Z</time><name>PT32</name></trkpt>
<trkpt lat="53.088830" lon="-1.652504"><ele>287</ele><time>2020-10-28T09:30:10Z</time><name>PT33</name></trkpt>
<trkpt lat="53.088839" lon="-1.652498"><ele>286</ele><time>2020-10-28T09:30:35Z</time><name>PT34</name></trkpt>
<trkpt lat="53.088844" lon="-1.652502"><ele>285</ele><time>2020-10-28T09:30:38Z</time><name>PT35</name></trkpt>
<trkpt lat="53.088839" lon="-1.652548"><ele>285</ele><time>2020-10-28T09:30:56Z</time><name>PT36</name></trkpt>
<trkpt lat="53.088824" lon="-1.652512"><ele>285</ele><time>2020-10-28T09:30:59Z</time><name>PT37</name></trkpt>
<trkpt lat="53.088825" lon="-1.652513"><ele>285</ele><time>2020-10-28T09:31:08Z</time><name>PT38</name></trkpt>
<trkpt lat="53.088822" lon="-1.652517"><ele>285</ele><time>2020-10-28T09:31:09Z</time><name>PT39</name></trkpt>
<trkpt lat="53.088830" lon="-1.652507"><ele>285</ele><time>2020-10-28T09:31:10Z</time><name>PT40</name></trkpt>
<trkpt lat="53.088838" lon="-1.652495"><ele>286</ele><time>2020-10-28T09:31:11Z</time><name>PT41</name></trkpt>
<trkpt lat="53.088836" lon="-1.652490"><ele>286</ele><time>2020-10-28T09:31:11Z</time><name>PT42</name></trkpt>
<trkpt lat="53.088838" lon="-1.652485"><ele>287</ele><time>2020-10-28T09:31:13Z</time><name>PT43</name></trkpt>
<trkpt lat="53.088837" lon="-1.652477"><ele>288</ele><time>2020-10-28T09:31:14Z</time><name>PT44</name></trkpt>
<trkpt lat="53.088834" lon="-1.652485"><ele>288</ele><time>2020-10-28T09:31:14Z</time><name>PT45</name></trkpt>
<trkpt lat="53.088835" lon="-1.652480"><ele>287</ele><time>2020-10-28T09:31:16Z</time><name>PT46</name></trkpt>
<trkpt lat="53.088837" lon="-1.652471"><ele>289</ele><time>2020-10-28T09:31:17Z</time><name>PT47</name></trkpt>
<trkpt lat="53.088842" lon="-1.652456"><ele>289</ele><time>2020-10-28T09:31:18Z</time><name>PT48</name></trkpt>
<trkpt lat="53.088843" lon="-1.652454"><ele>290</ele><time>2020-10-28T09:31:19Z</time><name>PT49</name></trkpt>
<trkpt lat="53.088842" lon="-1.652446"><ele>290</ele><time>2020-10-28T09:31:20Z</time><name>PT50</name></trkpt>
<trkpt lat="53.088840" lon="-1.652446"><ele>291</ele><time>2020-10-28T09:31:21Z</time><name>PT51</name></trkpt>
<trkpt lat="53.088839" lon="-1.652462"><ele>291</ele><time>2020-10-28T09:31:22Z</time><name>PT52</name></trkpt>
<trkpt lat="53.088837" lon="-1.652459"><ele>291</ele><time>2020-10-28T09:31:23Z</time><name>PT53</name></trkpt>
<trkpt lat="53.088844" lon="-1.652441"><ele>290</ele><time>2020-10-28T09:31:24Z</time><name>PT54</name></trkpt>
<trkpt lat="53.088844" lon="-1.652438"><ele>290</ele><time>2020-10-28T09:31:25Z</time><name>PT55</name></trkpt>
<trkpt lat="53.088846" lon="-1.652426"><ele>289</ele><time>2020-10-28T09:31:26Z</time><name>PT56</name></trkpt>
<trkpt lat="53.088849" lon="-1.652420"><ele>289</ele><time>2020-10-28T09:31:27Z</time><name>PT57</name></trkpt>
<trkpt lat="53.088852" lon="-1.652414"><ele>289</ele><time>2020-10-28T09:31:28Z</time><name>PT58</name></trkpt>
<trkpt lat="53.088851" lon="-1.652418"><ele>290</ele><time>2020-10-28T09:31:29Z</time><name>PT59</name></trkpt>
<trkpt lat="53.088851" lon="-1.652422"><ele>290</ele><time>2020-10-28T09:31:29Z</time><name>PT60</name></trkpt>
<trkpt lat="53.088850" lon="-1.652420"><ele>289</ele><time>2020-10-28T09:31:31Z</time><name>PT61</name></trkpt>
<trkpt lat="53.088845" lon="-1.652426"><ele>290</ele><time>2020-10-28T09:31:34Z</time><name>PT62</name></trkpt>
<trkpt lat="53.088845" lon="-1.652432"><ele>290</ele><time>2020-10-28T09:31:35Z</time><name>PT63</name></trkpt>
<trkpt lat="53.088843" lon="-1.652434"><ele>290</ele><time>2020-10-28T09:31:35Z</time><name>PT64</name></trkpt>
<trkpt lat="53.088843" lon="-1.652441"><ele>290</ele><time>2020-10-28T09:31:37Z</time><name>PT65</name></trkpt>
<trkpt lat="53.088836" lon="-1.652447"><ele>289</ele><time>2020-10-28T09:31:40Z</time><name>PT66</name></trkpt>
<trkpt lat="53.088831" lon="-1.652459"><ele>288</ele><time>2020-10-28T09:31:41Z</time><name>PT67</name></trkpt>
<trkpt lat="53.088830" lon="-1.652455"><ele>288</ele><time>2020-10-28T09:31:41Z</time><name>PT68</name></trkpt>
<trkpt lat="53.088831" lon="-1.652459"><ele>287</ele><time>2020-10-28T09:31:43Z</time><name>PT69</name></trkpt>
<trkpt lat="53.088833" lon="-1.652456"><ele>286</ele><time>2020-10-28T09:31:44Z</time><name>PT70</name></trkpt>
<trkpt lat="53.088830" lon="-1.652456"><ele>285</ele><time>2020-10-28T09:31:44Z</time><name>PT71</name></trkpt>
<trkpt lat="53.088831" lon="-1.652450"><ele>285</ele><time>2020-10-28T09:31:46Z</time><name>PT72</name></trkpt>
<trkpt lat="53.088830" lon="-1.652451"><ele>283</ele><time>2020-10-28T09:31:47Z</time><name>PT73</name></trkpt>
<trkpt lat="53.088830" lon="-1.652447"><ele>282</ele><time>2020-10-28T09:31:47Z</time><name>PT74</name></trkpt>
<trkpt lat="53.088830" lon="-1.652452"><ele>281</ele><time>2020-10-28T09:31:49Z</time><name>PT75</name></trkpt>
<trkpt lat="53.088831" lon="-1.652449"><ele>280</ele><time>2020-10-28T09:31:50Z</time><name>PT76</name></trkpt>
<trkpt lat="53.088826" lon="-1.652438"><ele>280</ele><time>2020-10-28T09:31:50Z</time><name>PT77</name></trkpt>
<trkpt lat="53.088826" lon="-1.652425"><ele>280</ele><time>2020-10-28T09:31:52Z</time><name>PT78</name></trkpt>
<trkpt lat="53.088828" lon="-1.652420"><ele>280</ele><time>2020-10-28T09:31:53Z</time><name>PT79</name></trkpt>
<trkpt lat="53.088833" lon="-1.652406"><ele>280</ele><time>2020-10-28T09:31:53Z</time><name>PT80</name></trkpt>
<trkpt lat="53.088833" lon="-1.652405"><ele>280</ele><time>2020-10-28T09:31:55Z</time><name>PT81</name></trkpt>
<trkpt lat="53.088836" lon="-1.652394"><ele>279</ele><time>2020-10-28T09:31:56Z</time><name>PT82</name></trkpt>
<trkpt lat="53.088844" lon="-1.652381"><ele>278</ele><time>2020-10-28T09:31:56Z</time><name>PT83</name></trkpt>
<trkpt lat="53.088849" lon="-1.652380"><ele>278</ele><time>2020-10-28T09:31:58Z</time><name>PT84</name></trkpt>
<trkpt lat="53.088853" lon="-1.652393"><ele>276</ele><time>2020-10-28T09:31:59Z</time><name>PT85</name></trkpt>
<trkpt lat="53.088853" lon="-1.652395"><ele>277</ele><time>2020-10-28T09:31:59Z</time><name>PT86</name></trkpt>
<trkpt lat="53.088860" lon="-1.652403"><ele>279</ele><time>2020-10-28T09:32:01Z</time><name>PT87</name></trkpt>
<trkpt lat="53.088860" lon="-1.652411"><ele>280</ele><time>2020-10-28T09:32:02Z</time><name>PT88</name></trkpt>
<trkpt lat="53.088858" lon="-1.652414"><ele>280</ele><time>2020-10-28T09:32:49Z</time><name>PT89</name></trkpt>
<trkpt lat="53.088858" lon="-1.652418"><ele>281</ele><time>2020-10-28T09:32:50Z</time><name>PT90</name></trkpt>
<trkpt lat="53.088860" lon="-1.652418"><ele>281</ele><time>2020-10-28T09:32:51Z</time><name>PT91</name></trkpt>
<trkpt lat="53.088864" lon="-1.652420"><ele>281</ele><time>2020-10-28T09:32:52Z</time><name>PT92</name></trkpt>
<trkpt lat="53.088864" lon="-1.652417"><ele>281</ele><time>2020-10-28T09:32:53Z</time><name>PT93</name></trkpt>
<trkpt lat="53.088864" lon="-1.652422"><ele>281</ele><time>2020-10-28T09:32:53Z</time><name>PT94</name></trkpt>
<trkpt lat="53.088865" lon="-1.652419"><ele>281</ele><time>2020-10-28T09:32:55Z</time><name>PT95</name></trkpt>
<trkpt lat="53.088863" lon="-1.652428"><ele>281</ele><time>2020-10-28T09:32:56Z</time><name>PT96</name></trkpt>
<trkpt lat="53.088856" lon="-1.652441"><ele>282</ele><time>2020-10-28T09:32:56Z</time><name>PT97</name></trkpt>
<trkpt lat="53.088852" lon="-1.652447"><ele>282</ele><time>2020-10-28T09:32:58Z</time><name>PT98</name></trkpt>
<trkpt lat="53.088850" lon="-1.652449"><ele>282</ele><time>2020-10-28T09:32:59Z</time><name>PT99</name></trkpt>
<trkpt lat="53.088845" lon="-1.652461"><ele>282</ele><time>2020-10-28T09:32:59Z</time><name>PT100</name></trkpt>
<trkpt lat="53.088842" lon="-1.652465"><ele>282</ele><time>2020-10-28T09:33:04Z</time><name>PT101</name></trkpt>
<trkpt lat="53.088839" lon="-1.652472"><ele>282</ele><time>2020-10-28T09:33:05Z</time><name>PT102</name></trkpt>
<trkpt lat="53.088836" lon="-1.652474"><ele>282</ele><time>2020-10-28T09:33:05Z</time><name>PT103</name></trkpt>
<trkpt lat="53.088833" lon="-1.652484"><ele>282</ele><time>2020-10-28T09:33:07Z</time><name>PT104</name></trkpt>
<trkpt lat="53.088832" lon="-1.652489"><ele>282</ele><time>2020-10-28T09:33:08Z</time><name>PT105</name></trkpt>
<trkpt lat="53.088832" lon="-1.652491"><ele>282</ele><time>2020-10-28T09:33:08Z</time><name>PT106</name></trkpt>
<trkpt lat="53.088830" lon="-1.652498"><ele>281</ele><time>2020-10-28T09:33:10Z</time><name>PT107</name></trkpt>
<trkpt lat="53.088827" lon="-1.652503"><ele>282</ele><time>2020-10-28T09:33:13Z</time><name>PT108</name></trkpt>
<trkpt lat="53.088824" lon="-1.652504"><ele>282</ele><time>2020-10-28T09:33:14Z</time><name>PT109</name></trkpt>
<trkpt lat="53.088819" lon="-1.652511"><ele>282</ele><time>2020-10-28T09:33:14Z</time><name>PT110</name></trkpt>
<trkpt lat="53.088817" lon="-1.652519"><ele>282</ele><time>2020-10-28T09:33:16Z</time><name>PT111</name></trkpt>
<trkpt lat="53.088816" lon="-1.652523"><ele>282</ele><time>2020-10-28T09:33:17Z</time><name>PT112</name></trkpt>
<trkpt lat="53.088816" lon="-1.652523"><ele>283</ele><time>2020-10-28T09:33:18Z</time><name>PT113</name></trkpt>
<trkpt lat="53.088818" lon="-1.652521"><ele>283</ele><time>2020-10-28T09:33:20Z</time><name>PT114</name></trkpt>
<trkpt lat="53.088817" lon="-1.652523"><ele>283</ele><time>2020-10-28T09:33:22Z</time><name>PT115</name></trkpt>
<trkpt lat="53.088814" lon="-1.652529"><ele>282</ele><time>2020-10-28T09:33:23Z</time><name>PT116</name></trkpt>
<trkpt lat="53.088818" lon="-1.652524"><ele>282</ele><time>2020-10-28T09:33:24Z</time><name>PT117</name></trkpt>
<trkpt lat="53.088817" lon="-1.652524"><ele>282</ele><time>2020-10-28T09:33:25Z</time><name>PT118</name></trkpt>
<trkpt lat="53.088812" lon="-1.652522"><ele>282</ele><time>2020-10-28T09:33:26Z</time><name>PT119</name></trkpt>
<trkpt lat="53.088810" lon="-1.652528"><ele>282</ele><time>2020-10-28T09:33:26Z</time><name>PT120</name></trkpt>
<trkpt lat="53.088816" lon="-1.652531"><ele>283</ele><time>2020-10-28T09:33:39Z</time><name>PT121</name></trkpt>
<trkpt lat="53.088819" lon="-1.652536"><ele>283</ele><time>2020-10-28T09:33:40Z</time><name>PT122</name></trkpt>
<trkpt lat="53.088826" lon="-1.652544"><ele>283</ele><time>2020-10-28T09:33:42Z</time><name>PT123</name></trkpt>
<trkpt lat="53.088831" lon="-1.652541"><ele>283</ele><time>2020-10-28T09:33:43Z</time><name>PT124</name></trkpt>
<trkpt lat="53.088830" lon="-1.652546"><ele>283</ele><time>2020-10-28T09:33:44Z</time><name>PT125</name></trkpt>
<trkpt lat="53.088832" lon="-1.652543"><ele>283</ele><time>2020-10-28T09:33:44Z</time><name>PT126</name></trkpt>
<trkpt lat="53.088837" lon="-1.652537"><ele>283</ele><time>2020-10-28T09:33:46Z</time><name>PT127</name></trkpt>
<trkpt lat="53.088834" lon="-1.652538"><ele>284</ele><time>2020-10-28T09:33:47Z</time><name>PT128</name></trkpt>
<trkpt lat="53.088838" lon="-1.652536"><ele>283</ele><time>2020-10-28T09:33:47Z</time><name>PT129</name></trkpt>
<trkpt lat="53.088839" lon="-1.652529"><ele>283</ele><time>2020-10-28T09:33:50Z</time><name>PT130</name></trkpt>
<trkpt lat="53.088836" lon="-1.652535"><ele>283</ele><time>2020-10-28T09:33:50Z</time><name>PT131</name></trkpt>
<trkpt lat="53.088835" lon="-1.652544"><ele>284</ele><time>2020-10-28T09:33:53Z</time><name>PT132</name></trkpt>
<trkpt lat="53.088836" lon="-1.652541"><ele>283</ele><time>2020-10-28T09:33:54Z</time><name>PT133</name></trkpt>
<trkpt lat="53.088842" lon="-1.652534"><ele>284</ele><time>2020-10-28T09:33:55Z</time><name>PT134</name></trkpt>
<trkpt lat="53.088834" lon="-1.652544"><ele>283</ele><time>2020-10-28T09:33:56Z</time><name>PT135</name></trkpt>
<trkpt lat="53.088831" lon="-1.652544"><ele>283</ele><time>2020-10-28T09:33:56Z</time><name>PT136</name></trkpt>
<trkpt lat="53.088828" lon="-1.652546"><ele>282</ele><time>2020-10-28T09:33:58Z</time><name>PT137</name></trkpt>
<trkpt lat="53.088826" lon="-1.652553"><ele>281</ele><time>2020-10-28T09:33:59Z</time><name>PT138</name></trkpt>
<trkpt lat="53.088830" lon="-1.652546"><ele>281</ele><time>2020-10-28T09:33:59Z</time><name>PT139</name></trkpt>
<trkpt lat="53.088833" lon="-1.652539"><ele>281</ele><time>2020-10-28T09:34:01Z</time><name>PT140</name></trkpt>
<trkpt lat="53.088827" lon="-1.652545"><ele>280</ele><time>2020-10-28T09:34:04Z</time><name>PT141</name></trkpt>
<trkpt lat="53.088822" lon="-1.652538"><ele>280</ele><time>2020-10-28T09:34:10Z</time><name>PT142</name></trkpt>
<trkpt lat="53.088815" lon="-1.652520"><ele>278</ele><time>2020-10-28T09:34:14Z</time><name>PT143</name></trkpt>
<trkpt lat="53.088810" lon="-1.652524"><ele>276</ele><time>2020-10-28T09:34:17Z</time><name>PT144</name></trkpt>
<trkpt lat="53.088812" lon="-1.652510"><ele>276</ele><time>2020-10-28T09:34:22Z</time><name>PT145</name></trkpt>
<trkpt lat="53.088818" lon="-1.652520"><ele>276</ele><time>2020-10-28T09:34:26Z</time><name>PT146</name></trkpt>
<trkpt lat="53.088830" lon="-1.652505"><ele>276</ele><time>2020-10-28T09:34:29Z</time><name>PT147</name></trkpt>
<trkpt lat="53.088835" lon="-1.652495"><ele>277</ele><time>2020-10-28T09:34:32Z</time><name>PT148</name></trkpt>
<trkpt lat="53.088845" lon="-1.652490"><ele>279</ele><time>2020-10-28T09:34:35Z</time><name>PT149</name></trkpt>
<trkpt lat="53.088852" lon="-1.652483"><ele>278</ele><time>2020-10-28T09:34:38Z</time><name>PT150</name></trkpt>
<trkpt lat="53.088849" lon="-1.652483"><ele>278</ele><time>2020-10-28T09:34:41Z</time><name>PT151</name></trkpt>
<trkpt lat="53.088851" lon="-1.652481"><ele>278</ele><time>2020-10-28T09:34:44Z</time><name>PT152</name></trkpt>
<trkpt lat="53.088844" lon="-1.652497"><ele>280</ele><time>2020-10-28T09:35:02Z</time><name>PT153</name></trkpt>
<trkpt lat="53.088834" lon="-1.652499"><ele>281</ele><time>2020-10-28T09:36:11Z</time><name>PT154</name></trkpt>
<trkpt lat="53.088822" lon="-1.652495"><ele>281</ele><time>2020-10-28T09:36:14Z</time><name>PT155</name></trkpt>
<trkpt lat="53.088821" lon="-1.652504"><ele>281</ele><time>2020-10-28T09:36:19Z</time><name>PT156</name></trkpt>
<trkpt lat="53.088834" lon="-1.652476"><ele>283</ele><time>2020-10-28T09:36:38Z</time><name>PT157</name></trkpt>
<trkpt lat="53.088839" lon="-1.652471"><ele>283</ele><time>2020-10-28T09:36:41Z</time><name>PT158</name></trkpt>
<trkpt lat="53.088841" lon="-1.652459"><ele>283</ele><time>2020-10-28T09:36:44Z</time><name>PT159</name></trkpt>
<trkpt lat="53.088840" lon="-1.652464"><ele>282</ele><time>2020-10-28T09:36:49Z</time><name>PT160</name></trkpt>
<trkpt lat="53.088841" lon="-1.652455"><ele>283</ele><time>2020-10-28T09:36:56Z</time><name>PT161</name></trkpt>
<trkpt lat="53.088837" lon="-1.652461"><ele>283</ele><time>2020-10-28T09:37:07Z</time><name>PT162</name></trkpt>
<trkpt lat="53.088843" lon="-1.652461"><ele>283</ele><time>2020-10-28T09:37:11Z</time><name>PT163</name></trkpt>
<trkpt lat="53.088862" lon="-1.652402"><ele>284</ele><time>2020-10-28T09:37:17Z</time><name>PT164</name></trkpt>
<trkpt lat="53.088884" lon="-1.652355"><ele>284</ele><time>2020-10-28T09:37:22Z</time><name>PT165</name></trkpt>
<trkpt lat="53.088895" lon="-1.652325"><ele>284</ele><time>2020-10-28T09:37:26Z</time><name>PT166</name></trkpt>
<trkpt lat="53.088885" lon="-1.652314"><ele>285</ele><time>2020-10-28T09:37:30Z</time><name>PT167</name></trkpt>
<trkpt lat="53.088884" lon="-1.652319"><ele>285</ele><time>2020-10-28T09:37:34Z</time><name>PT168</name></trkpt>
<trkpt lat="53.088901" lon="-1.652283"><ele>285</ele><time>2020-10-28T09:37:44Z</time><name>PT169</name></trkpt>
<trkpt lat="53.088901" lon="-1.652283"><ele>285</ele><time>2020-10-28T09:37:44Z</time><name>PT170</name></trkpt>
<trkpt lat="53.088901" lon="-1.652281"><ele>285</ele><time>2020-10-28T09:37:46Z</time><name>PT171</name></trkpt>
<trkpt lat="53.088902" lon="-1.652282"><ele>285</ele><time>2020-10-28T09:37:47Z</time><name>PT172</name></trkpt>
<trkpt lat="53.088901" lon="-1.652282"><ele>285</ele><time>2020-10-28T09:37:50Z</time><name>PT173</name></trkpt>
<trkpt lat="53.088903" lon="-1.652280"><ele>285</ele><time>2020-10-28T09:37:50Z</time><name>PT174</name></trkpt>
<trkpt lat="53.088907" lon="-1.652286"><ele>285</ele><time>2020-10-28T09:37:52Z</time><name>PT175</name></trkpt>
<trkpt lat="53.088909" lon="-1.652301"><ele>285</ele><time>2020-10-28T09:37:53Z</time><name>PT176</name></trkpt>
<trkpt lat="53.088909" lon="-1.652318"><ele>285</ele><time>2020-10-28T09:37:53Z</time><name>PT177</name></trkpt>
<trkpt lat="53.088914" lon="-1.652333"><ele>285</ele><time>2020-10-28T09:37:55Z</time><name>PT178</name></trkpt>
<trkpt lat="53.088918" lon="-1.652346"><ele>286</ele><time>2020-10-28T09:37:56Z</time><name>PT179</name></trkpt>
<trkpt lat="53.088922" lon="-1.652353"><ele>286</ele><time>2020-10-28T09:37:56Z</time><name>PT180</name></trkpt>
<trkpt lat="53.088924" lon="-1.652355"><ele>285</ele><time>2020-10-28T09:37:58Z</time><name>PT181</name></trkpt>
<trkpt lat="53.088925" lon="-1.652355"><ele>285</ele><time>2020-10-28T09:37:59Z</time><name>PT182</name></trkpt>
<trkpt lat="53.088925" lon="-1.652357"><ele>285</ele><time>2020-10-28T09:37:59Z</time><name>PT183</name></trkpt>
<trkpt lat="53.088926" lon="-1.652355"><ele>285</ele><time>2020-10-28T09:38:14Z</time><name>PT184</name></trkpt>
<trkpt lat="53.088924" lon="-1.652355"><ele>285</ele><time>2020-10-28T09:38:16Z</time><name>PT185</name></trkpt>
<trkpt lat="53.088926" lon="-1.652346"><ele>285</ele><time>2020-10-28T09:38:17Z</time><name>PT186</name></trkpt>
<trkpt lat="53.088924" lon="-1.652334"><ele>285</ele><time>2020-10-28T09:38:17Z</time><name>PT187</name></trkpt>
<trkpt lat="53.088920" lon="-1.652317"><ele>285</ele><time>2020-10-28T09:38:19Z</time><name>PT188</name></trkpt>
<trkpt lat="53.088920" lon="-1.652302"><ele>285</ele><time>2020-10-28T09:38:20Z</time><name>PT189</name></trkpt>
<trkpt lat="53.088919" lon="-1.652285"><ele>285</ele><time>2020-10-28T09:38:20Z</time><name>PT190</name></trkpt>
<trkpt lat="53.088921" lon="-1.652270"><ele>285</ele><time>2020-10-28T09:38:22Z</time><name>PT191</name></trkpt>
<trkpt lat="53.088924" lon="-1.652256"><ele>285</ele><time>2020-10-28T09:38:23Z</time><name>PT192</name></trkpt>
<trkpt lat="53.088923" lon="-1.652241"><ele>285</ele><time>2020-10-28T09:38:24Z</time><name>PT193</name></trkpt>
<trkpt lat="53.088921" lon="-1.652224"><ele>285</ele><time>2020-10-28T09:38:25Z</time><name>PT194</name></trkpt>
<trkpt lat="53.088922" lon="-1.652205"><ele>285</ele><time>2020-10-28T09:38:26Z</time><name>PT195</name></trkpt>
<trkpt lat="53.088926" lon="-1.652189"><ele>285</ele><time>2020-10-28T09:38:26Z</time><name>PT196</name></trkpt>
<trkpt lat="53.088930" lon="-1.652178"><ele>285</ele><time>2020-10-28T09:38:28Z</time><name>PT197</name></trkpt>
<trkpt lat="53.088931" lon="-1.652166"><ele>285</ele><time>2020-10-28T09:38:29Z</time><name>PT198</name></trkpt>
<trkpt lat="53.088933" lon="-1.652152"><ele>285</ele><time>2020-10-28T09:38:29Z</time><name>PT199</name></trkpt>
<trkpt lat="53.088936" lon="-1.652140"><ele>285</ele><time>2020-10-28T09:38:31Z</time><name>PT200</name></trkpt>
<trkpt lat="53.088942" lon="-1.652130"><ele>286</ele><time>2020-10-28T09:38:32Z</time><name>PT201</name></trkpt>
<trkpt lat="53.088945" lon="-1.652129"><ele>286</ele><time>2020-10-28T09:38:32Z</time><name>PT202</name></trkpt>
<trkpt lat="53.088948" lon="-1.652113"><ele>285</ele><time>2020-10-28T09:38:34Z</time><name>PT203</name></trkpt>
<trkpt lat="53.088955" lon="-1.652096"><ele>285</ele><time>2020-10-28T09:38:35Z</time><name>PT204</name></trkpt>
<trkpt lat="53.088962" lon="-1.652080"><ele>285</ele><time>2020-10-28T09:38:35Z</time><name>PT205</name></trkpt>
<trkpt lat="53.088966" lon="-1.652069"><ele>285</ele><time>2020-10-28T09:38:37Z</time><name>PT206</name></trkpt>
<trkpt lat="53.088970" lon="-1.652055"><ele>285</ele><time>2020-10-28T09:38:38Z</time><name>PT207</name></trkpt>
<trkpt lat="53.088973" lon="-1.652033"><ele>285</ele><time>2020-10-28T09:38:38Z</time><name>PT208</name></trkpt>
<trkpt lat="53.088977" lon="-1.652007"><ele>285</ele><time>2020-10-28T09:38:40Z</time><name>PT209</name></trkpt>
<trkpt lat="53.088980" lon="-1.651990"><ele>285</ele><time>2020-10-28T09:38:41Z</time><name>PT210</name></trkpt>
<trkpt lat="53.088984" lon="-1.651977"><ele>286</ele><time>2020-10-28T09:38:41Z</time><name>PT211</name></trkpt>
<trkpt lat="53.088985" lon="-1.651957"><ele>286</ele><time>2020-10-28T09:38:43Z</time><name>PT212</name></trkpt>
<trkpt lat="53.088988" lon="-1.651940"><ele>286</ele><time>2020-10-28T09:38:44Z</time><name>PT213</name></trkpt>
<trkpt lat="53.088993" lon="-1.651919"><ele>287</ele><time>2020-10-28T09:38:44Z</time><name>PT214</name></trkpt>
<trkpt lat="53.088994" lon="-1.651904"><ele>288</ele><time>2020-10-28T09:38:46Z</time><name>PT215</name></trkpt>
<trkpt lat="53.088995" lon="-1.651889"><ele>288</ele><time>2020-10-28T09:38:47Z</time><name>PT216</name></trkpt>
<trkpt lat="53.088997" lon="-1.651872"><ele>288</ele><time>2020-10-28T09:38:47Z</time><name>PT217</name></trkpt>
<trkpt lat="53.088998" lon="-1.651857"><ele>288</ele><time>2020-10-28T09:38:49Z</time><name>PT218</name></trkpt>
<trkpt lat="53.089003" lon="-1.651851"><ele>288</ele><time>2020-10-28T09:38:50Z</time><name>PT219</name></trkpt>
<trkpt lat="53.089007" lon="-1.651840"><ele>288</ele><time>2020-10-28T09:38:50Z</time><name>PT220</name></trkpt>
<trkpt lat="53.089013" lon="-1.651826"><ele>288</ele><time>2020-10-28T09:38:52Z</time><name>PT221</name></trkpt>
<trkpt lat="53.089016" lon="-1.651816"><ele>289</ele><time>2020-10-28T09:38:53Z</time><name>PT222</name></trkpt>
<trkpt lat="53.089020" lon="-1.651801"><ele>288</ele><time>2020-10-28T09:38:54Z</time><name>PT223</name></trkpt>
<trkpt lat="53.089024" lon="-1.651785"><ele>289</ele><time>2020-10-28T09:38:55Z</time><name>PT224</name></trkpt>
<trkpt lat="53.089029" lon="-1.651772"><ele>289</ele><time>2020-10-28T09:38:56Z</time><name>PT225</name></trkpt>
<trkpt lat="53.089032" lon="-1.651759"><ele>289</ele><time>2020-10-28T09:38:56Z</time><name>PT226</name></trkpt>
<trkpt lat="53.089035" lon="-1.651744"><ele>289</ele><time>2020-10-28T09:38:58Z</time><name>PT227</name></trkpt>
<trkpt lat="53.089037" lon="-1.651730"><ele>289</ele><time>2020-10-28T09:38:59Z</time><name>PT228</name></trkpt>
<trkpt lat="53.089037" lon="-1.651716"><ele>289</ele><time>2020-10-28T09:38:59Z</time><name>PT229</name></trkpt>
<trkpt lat="53.089037" lon="-1.651705"><ele>290</ele><time>2020-10-28T09:39:01Z</time><name>PT230</name></trkpt>
<trkpt lat="53.089037" lon="-1.651687"><ele>290</ele><time>2020-10-28T09:39:02Z</time><name>PT231</name></trkpt>
<trkpt lat="53.089039" lon="-1.651676"><ele>290</ele><time>2020-10-28T09:39:02Z</time><name>PT232</name></trkpt>
<trkpt lat="53.089040" lon="-1.651665"><ele>290</ele><time>2020-10-28T09:39:04Z</time><name>PT233</name></trkpt>
<trkpt lat="53.089039" lon="-1.651645"><ele>290</ele><time>2020-10-28T09:39:05Z</time><name>PT234</name></trkpt>
<trkpt lat="53.089039" lon="-1.651624"><ele>291</ele><time>2020-10-28T09:39:06Z</time><name>PT235</name></trkpt>
<trkpt lat="53.089040" lon="-1.651609"><ele>291</ele><time>2020-10-28T09:39:07Z</time><name>PT236</name></trkpt>
<trkpt lat="53.089038" lon="-1.651598"><ele>292</ele><time>2020-10-28T09:39:08Z</time><name>PT237</name></trkpt>
<trkpt lat="53.089036" lon="-1.651580"><ele>291</ele><time>2020-10-28T09:39:08Z</time><name>PT238</name></trkpt>
<trkpt lat="53.089040" lon="-1.651557"><ele>291</ele><time>2020-10-28T09:39:10Z</time><name>PT239</name></trkpt>
<trkpt lat="53.089043" lon="-1.651540"><ele>292</ele><time>2020-10-28T09:39:11Z</time><name>PT240</name></trkpt>
<trkpt lat="53.089042" lon="-1.651525"><ele>292</ele><time>2020-10-28T09:39:11Z</time><name>PT241</name></trkpt>
<trkpt lat="53.089040" lon="-1.651505"><ele>294</ele><time>2020-10-28T09:39:13Z</time><name>PT242</name></trkpt>
<trkpt lat="53.089040" lon="-1.651482"><ele>293</ele><time>2020-10-28T09:39:14Z</time><name>PT243</name></trkpt>
<trkpt lat="53.089041" lon="-1.651468"><ele>293</ele><time>2020-10-28T09:39:14Z</time><name>PT244</name></trkpt>
<trkpt lat="53.089038" lon="-1.651445"><ele>294</ele><time>2020-10-28T09:39:16Z</time><name>PT245</name></trkpt>
<trkpt lat="53.089033" lon="-1.651424"><ele>294</ele><time>2020-10-28T09:39:17Z</time><name>PT246</name></trkpt>
<trkpt lat="53.089033" lon="-1.651418"><ele>294</ele><time>2020-10-28T09:39:17Z</time><name>PT247</name></trkpt>
<trkpt lat="53.089028" lon="-1.651399"><ele>295</ele><time>2020-10-28T09:39:19Z</time><name>PT248</name></trkpt>
<trkpt lat="53.089025" lon="-1.651380"><ele>294</ele><time>2020-10-28T09:39:20Z</time><name>PT249</name></trkpt>
<trkpt lat="53.089028" lon="-1.651354"><ele>294</ele><time>2020-10-28T09:39:21Z</time><name>PT250</name></trkpt>
<trkpt lat="53.089027" lon="-1.651332"><ele>294</ele><time>2020-10-28T09:39:22Z</time><name>PT251</name></trkpt>
<trkpt lat="53.089024" lon="-1.651322"><ele>294</ele><time>2020-10-28T09:39:23Z</time><name>PT252</name></trkpt>
<trkpt lat="53.089016" lon="-1.651313"><ele>294</ele><time>2020-10-28T09:39:24Z</time><name>PT253</name></trkpt>
<trkpt lat="53.089017" lon="-1.651289"><ele>294</ele><time>2020-10-28T09:39:25Z</time><name>PT254</name></trkpt>
<trkpt lat="53.089017" lon="-1.651263"><ele>293</ele><time>2020-10-28T09:39:26Z</time><name>PT255</name></trkpt>
<trkpt lat="53.089018" lon="-1.651243"><ele>294</ele><time>2020-10-28T09:39:26Z</time><name>PT256</name></trkpt>
<trkpt lat="53.089015" lon="-1.651234"><ele>295</ele><time>2020-10-28T09:39:28Z</time><name>PT257</name></trkpt>
<trkpt lat="53.089011" lon="-1.651222"><ele>295</ele><time>2020-10-28T09:39:29Z</time><name>PT258</name></trkpt>
<trkpt lat="53.089004" lon="-1.651206"><ele>296</ele><time>2020-10-28T09:39:29Z</time><name>PT259</name></trkpt>
<trkpt lat="53.089002" lon="-1.651182"><ele>296</ele><time>2020-10-28T09:39:31Z</time><name>PT260</name></trkpt>
<trkpt lat="53.089004" lon="-1.651168"><ele>296</ele><time>2020-10-28T09:39:32Z</time><name>PT261</name></trkpt>
<trkpt lat="53.089004" lon="-1.651161"><ele>296</ele><time>2020-10-28T09:39:32Z</time><name>PT262</name></trkpt>
<trkpt lat="53.089006" lon="-1.651152"><ele>296</ele><time>2020-10-28T09:39:34Z</time><name>PT263</name></trkpt>
<trkpt lat="53.088999" lon="-1.651132"><ele>296</ele><time>2020-10-28T09:39:35Z</time><name>PT264</name></trkpt>
<trkpt lat="53.088991" lon="-1.651113"><ele>297</ele><time>2020-10-28T09:39:36Z</time><name>PT265</name></trkpt>
<trkpt lat="53.088991" lon="-1.651104"><ele>296</ele><time>2020-10-28T09:39:37Z</time><name>PT266</name></trkpt>
<trkpt lat="53.088989" lon="-1.651092"><ele>297</ele><time>2020-10-28T09:39:38Z</time><name>PT267</name></trkpt>
<trkpt lat="53.088986" lon="-1.651081"><ele>297</ele><time>2020-10-28T09:39:39Z</time><name>PT268</name></trkpt>
<trkpt lat="53.088980" lon="-1.651068"><ele>298</ele><time>2020-10-28T09:39:40Z</time><name>PT269</name></trkpt>
<trkpt lat="53.088974" lon="-1.651043"><ele>298</ele><time>2020-10-28T09:39:41Z</time><name>PT270</name></trkpt>
<trkpt lat="53.088968" lon="-1.651028"><ele>299</ele><time>2020-10-28T09:39:42Z</time><name>PT271</name></trkpt>
<trkpt lat="53.088967" lon="-1.651022"><ele>299</ele><time>2020-10-28T09:39:43Z</time><name>PT272</name></trkpt>
<trkpt lat="53.088963" lon="-1.651012"><ele>298</ele><time>2020-10-28T09:39:44Z</time><name>PT273</name></trkpt>
<trkpt lat="53.088958" lon="-1.650995"><ele>299</ele><time>2020-10-28T09:39:45Z</time><name>PT274</name></trkpt>
<trkpt lat="53.088941" lon="-1.650947"><ele>300</ele><time>2020-10-28T09:39:46Z</time><name>PT275</name></trkpt>
<trkpt lat="53.088937" lon="-1.650933"><ele>300</ele><time>2020-10-28T09:39:47Z</time><name>PT276</name></trkpt>
<trkpt lat="53.088936" lon="-1.650923"><ele>300</ele><time>2020-10-28T09:39:48Z</time><name>PT277</name></trkpt>
<trkpt lat="53.088930" lon="-1.650903"><ele>300</ele><time>2020-10-28T09:39:49Z</time><name>PT278</name></trkpt>
<trkpt lat="53.088922" lon="-1.650870"><ele>301</ele><time>2020-10-28T09:39:50Z</time><name>PT279</name></trkpt>
<trkpt lat="53.088920" lon="-1.650848"><ele>302</ele><time>2020-10-28T09:39:51Z</time><name>PT280</name></trkpt>
<trkpt lat="53.088922" lon="-1.650841"><ele>303</ele><time>2020-10-28T09:39:52Z</time><name>PT281</name></trkpt>
<trkpt lat="53.088919" lon="-1.650831"><ele>302</ele><time>2020-10-28T09:39:53Z</time><name>PT282</name></trkpt>
<trkpt lat="53.088911" lon="-1.650815"><ele>304</ele><time>2020-10-28T09:39:54Z</time><name>PT283</name></trkpt>
<trkpt lat="53.088903" lon="-1.650795"><ele>305</ele><time>2020-10-28T09:39:55Z</time><name>PT284</name></trkpt>
<trkpt lat="53.088904" lon="-1.650780"><ele>305</ele><time>2020-10-28T09:39:56Z</time><name>PT285</name></trkpt>
<trkpt lat="53.088901" lon="-1.650764"><ele>306</ele><time>2020-10-28T09:39:57Z</time><name>PT286</name></trkpt>
<trkpt lat="53.088896" lon="-1.650747"><ele>306</ele><time>2020-10-28T09:39:58Z</time><name>PT287</name></trkpt>
<trkpt lat="53.088879" lon="-1.650717"><ele>305</ele><time>2020-10-28T09:39:59Z</time><name>PT288</name></trkpt>
<trkpt lat="53.088876" lon="-1.650692"><ele>303</ele><time>2020-10-28T09:40:00Z</time><name>PT289</name></trkpt>
<trkpt lat="53.088868" lon="-1.650664"><ele>303</ele><time>2020-10-28T09:40:01Z</time><name>PT290</name></trkpt>
<trkpt lat="53.088861" lon="-1.650635"><ele>303</ele><time>2020-10-28T09:40:02Z</time><name>PT291</name></trkpt>
<trkpt lat="53.088855" lon="-1.650612"><ele>303</ele><time>2020-10-28T09:40:03Z</time><name>PT292</name></trkpt>
<trkpt lat="53.088854" lon="-1.650600"><ele>303</ele><time>2020-10-28T09:40:04Z</time><name>PT293</name></trkpt>
<trkpt lat="53.088855" lon="-1.650593"><ele>304</ele><time>2020-10-28T09:40:05Z</time><name>PT294</name></trkpt>
<trkpt lat="53.088855" lon="-1.650583"><ele>304</ele><time>2020-10-28T09:40:05Z</time><name>PT295</name></trkpt>
<trkpt lat="53.088850" lon="-1.650572"><ele>303</ele><time>2020-10-28T09:40:07Z</time><name>PT296</name></trkpt>
<trkpt lat="53.088839" lon="-1.650551"><ele>303</ele><time>2020-10-28T09:40:08Z</time><name>PT297</name></trkpt>
<trkpt lat="53.088833" lon="-1.650531"><ele>303</ele><time>2020-10-28T09:40:08Z</time><name>PT298</name></trkpt>
<trkpt lat="53.088827" lon="-1.650504"><ele>303</ele><time>2020-10-28T09:40:10Z</time><name>PT299</name></trkpt>
<trkpt lat="53.088823" lon="-1.650490"><ele>303</ele><time>2020-10-28T09:40:11Z</time><name>PT300</name></trkpt>
<trkpt lat="53.088821" lon="-1.650478"><ele>303</ele><time>2020-10-28T09:40:11Z</time><name>PT301</name></trkpt>
<trkpt lat="53.088816" lon="-1.650460"><ele>303</ele><time>2020-10-28T09:40:13Z</time><name>PT302</name></trkpt>
<trkpt lat="53.088805" lon="-1.650438"><ele>303</ele><time>2020-10-28T09:40:14Z</time><name>PT303</name></trkpt>
<trkpt lat="53.088797" lon="-1.650425"><ele>303</ele><time>2020-10-28T09:40:14Z</time><name>PT304</name></trkpt>
<trkpt lat="53.088794" lon="-1.650414"><ele>304</ele><time>2020-10-28T09:40:16Z</time><name>PT305</name></trkpt>
<trkpt lat="53.088788" lon="-1.650396"><ele>304</ele><time>2020-10-28T09:40:17Z</time><name>PT306</name></trkpt>
<trkpt lat="53.088788" lon="-1.650371"><ele>305</ele><time>2020-10-28T09:40:17Z</time><name>PT307</name></trkpt>
<trkpt lat="53.088785" lon="-1.650347"><ele>305</ele><time>2020-10-28T09:40:19Z</time><name>PT308</name></trkpt>
<trkpt lat="53.088781" lon="-1.650326"><ele>305</ele><time>2020-10-28T09:40:20Z</time><name>PT309</name></trkpt>
<trkpt lat="53.088777" lon="-1.650310"><ele>305</ele><time>2020-10-28T09:40:20Z</time><name>PT310</name></trkpt>
<trkpt lat="53.088773" lon="-1.650294"><ele>305</ele><time>2020-10-28T09:40:22Z</time><name>PT311</name></trkpt>
<trkpt lat="53.088773" lon="-1.650271"><ele>305</ele><time>2020-10-28T09:40:23Z</time><name>PT312</name></trkpt>
<trkpt lat="53.088772" lon="-1.650255"><ele>304</ele><time>2020-10-28T09:40:23Z</time><name>PT313</name></trkpt>
<trkpt lat="53.088768" lon="-1.650247"><ele>304</ele><time>2020-10-28T09:40:25Z</time><name>PT314</name></trkpt>
<trkpt lat="53.088770" lon="-1.650234"><ele>304</ele><time>2020-10-28T09:40:26Z</time><name>PT315</name></trkpt>
<trkpt lat="53.088767" lon="-1.650211"><ele>304</ele><time>2020-10-28T09:40:26Z</time><name>PT316</name></trkpt>
<trkpt lat="53.088759" lon="-1.650195"><ele>304</ele><time>2020-10-28T09:40:28Z</time><name>PT317</name></trkpt>
<trkpt lat="53.088758" lon="-1.650182"><ele>303</ele><time>2020-10-28T09:40:29Z</time><name>PT318</name></trkpt>
<trkpt lat="53.088756" lon="-1.650171"><ele>303</ele><time>2020-10-28T09:40:29Z</time><name>PT319</name></trkpt>
<trkpt lat="53.088755" lon="-1.650159"><ele>303</ele><time>2020-10-28T09:40:31Z</time><name>PT320</name></trkpt>
<trkpt lat="53.088754" lon="-1.650147"><ele>304</ele><time>2020-10-28T09:40:32Z</time><name>PT321</name></trkpt>
<trkpt lat="53.088750" lon="-1.650124"><ele>304</ele><time>2020-10-28T09:40:33Z</time><name>PT322</name></trkpt>
<trkpt lat="53.088745" lon="-1.650096"><ele>304</ele><time>2020-10-28T09:40:34Z</time><name>PT323</name></trkpt>
<trkpt lat="53.088738" lon="-1.650075"><ele>304</ele><time>2020-10-28T09:40:35Z</time><name>PT324</name></trkpt>
<trkpt lat="53.088733" lon="-1.650063"><ele>305</ele><time>2020-10-28T09:40:35Z</time><name>PT325</name></trkpt>
<trkpt lat="53.088729" lon="-1.650046"><ele>305</ele><time>2020-10-28T09:40:37Z</time><name>PT326</name></trkpt>
<trkpt lat="53.088725" lon="-1.650029"><ele>305</ele><time>2020-10-28T09:40:38Z</time><name>PT327</name></trkpt>
<trkpt lat="53.088719" lon="-1.650006"><ele>306</ele><time>2020-10-28T09:40:39Z</time><name>PT328</name></trkpt>
<trkpt lat="53.088712" lon="-1.649988"><ele>305</ele><time>2020-10-28T09:40:40Z</time><name>PT329</name></trkpt>
<trkpt lat="53.088706" lon="-1.649969"><ele>305</ele><time>2020-10-28T09:40:41Z</time><name>PT330</name></trkpt>
<trkpt lat="53.088702" lon="-1.649952"><ele>305</ele><time>2020-10-28T09:40:42Z</time><name>PT331</name></trkpt>
<trkpt lat="53.088699" lon="-1.649944"><ele>305</ele><time>2020-10-28T09:40:43Z</time><name>PT332</name></trkpt>
<trkpt lat="53.088692" lon="-1.649917"><ele>305</ele><time>2020-10-28T09:40:44Z</time><name>PT333</name></trkpt>
<trkpt lat="53.088689" lon="-1.649893"><ele>305</ele><time>2020-10-28T09:40:45Z</time><name>PT334</name></trkpt>
<trkpt lat="53.088675" lon="-1.649820"><ele>305</ele><time>2020-10-28T09:40:49Z</time><name>PT335</name></trkpt>
<trkpt lat="53.088672" lon="-1.649801"><ele>305</ele><time>2020-10-28T09:40:50Z</time><name>PT336</name></trkpt>
<trkpt lat="53.088672" lon="-1.649783"><ele>304</ele><time>2020-10-28T09:40:50Z</time><name>PT337</name></trkpt>
<trkpt lat="53.088670" lon="-1.649765"><ele>304</ele><time>2020-10-28T09:40:52Z</time><name>PT338</name></trkpt>
<trkpt lat="53.088666" lon="-1.649748"><ele>304</ele><time>2020-10-28T09:40:53Z</time><name>PT339</name></trkpt>
<trkpt lat="53.088662" lon="-1.649736"><ele>304</ele><time>2020-10-28T09:40:53Z</time><name>PT340</name></trkpt>
<trkpt lat="53.088658" lon="-1.649719"><ele>303</ele><time>2020-10-28T09:40:55Z</time><name>PT341</name></trkpt>
<trkpt lat="53.088654" lon="-1.649702"><ele>303</ele><time>2020-10-28T09:40:56Z</time><name>PT342</name></trkpt>
<trkpt lat="53.088653" lon="-1.649693"><ele>303</ele><time>2020-10-28T09:40:56Z</time><name>PT343</name></trkpt>
<trkpt lat="53.088648" lon="-1.649679"><ele>303</ele><time>2020-10-28T09:40:58Z</time><name>PT344</name></trkpt>
<trkpt lat="53.088645" lon="-1.649662"><ele>303</ele><time>2020-10-28T09:40:59Z</time><name>PT345</name></trkpt>
<trkpt lat="53.088641" lon="-1.649644"><ele>303</ele><time>2020-10-28T09:41:00Z</time><name>PT346</name></trkpt>
<trkpt lat="53.088637" lon="-1.649623"><ele>303</ele><time>2020-10-28T09:41:01Z</time><name>PT347</name></trkpt>
<trkpt lat="53.088634" lon="-1.649608"><ele>303</ele><time>2020-10-28T09:41:02Z</time><name>PT348</name></trkpt>
<trkpt lat="53.088631" lon="-1.649597"><ele>303</ele><time>2020-10-28T09:41:03Z</time><name>PT349</name></trkpt>
<trkpt lat="53.088625" lon="-1.649578"><ele>303</ele><time>2020-10-28T09:41:04Z</time><name>PT350</name></trkpt>
<trkpt lat="53.088620" lon="-1.649555"><ele>304</ele><time>2020-10-28T09:41:05Z</time><name>PT351</name></trkpt>
<trkpt lat="53.088616" lon="-1.649543"><ele>303</ele><time>2020-10-28T09:41:05Z</time><name>PT352</name></trkpt>
<trkpt lat="53.088613" lon="-1.649528"><ele>303</ele><time>2020-10-28T09:41:07Z</time><name>PT353</name></trkpt>
<trkpt lat="53.088610" lon="-1.649509"><ele>303</ele><time>2020-10-28T09:41:08Z</time><name>PT354</name></trkpt>
<trkpt lat="53.088606" lon="-1.649490"><ele>303</ele><time>2020-10-28T09:41:09Z</time><name>PT355</name></trkpt>
<trkpt lat="53.088600" lon="-1.649470"><ele>303</ele><time>2020-10-28T09:41:10Z</time><name>PT356</name></trkpt>
<trkpt lat="53.088597" lon="-1.649457"><ele>303</ele><time>2020-10-28T09:41:11Z</time><name>PT357</name></trkpt>
<trkpt lat="53.088595" lon="-1.649448"><ele>303</ele><time>2020-10-28T09:41:12Z</time><name>PT358</name></trkpt>
<trkpt lat="53.088588" lon="-1.649430"><ele>303</ele><time>2020-10-28T09:41:13Z</time><name>PT359</name></trkpt>
<trkpt lat="53.088580" lon="-1.649404"><ele>303</ele><time>2020-10-28T09:41:14Z</time><name>PT360</name></trkpt>
<trkpt lat="53.088575" lon="-1.649383"><ele>304</ele><time>2020-10-28T09:41:14Z</time><name>PT361</name></trkpt>
<trkpt lat="53.088570" lon="-1.649365"><ele>304</ele><time>2020-10-28T09:41:16Z</time><name>PT362</name></trkpt>
<trkpt lat="53.088569" lon="-1.649346"><ele>304</ele><time>2020-10-28T09:41:17Z</time><name>PT363</name></trkpt>
<trkpt lat="53.088565" lon="-1.649325"><ele>304</ele><time>2020-10-28T09:41:17Z</time><name>PT364</name></trkpt>
<trkpt lat="53.088564" lon="-1.649301"><ele>305</ele><time>2020-10-28T09:41:19Z</time><name>PT365</name></trkpt>
<trkpt lat="53.088565" lon="-1.649283"><ele>304</ele><time>2020-10-28T09:41:20Z</time><name>PT366</name></trkpt>
<trkpt lat="53.088566" lon="-1.649270"><ele>304</ele><time>2020-10-28T09:41:20Z</time><name>PT367</name></trkpt>
<trkpt lat="53.088564" lon="-1.649259"><ele>304</ele><time>2020-10-28T09:41:22Z</time><name>PT368</name></trkpt>
<trkpt lat="53.088559" lon="-1.649239"><ele>304</ele><time>2020-10-28T09:41:23Z</time><name>PT369</name></trkpt>
<trkpt lat="53.088557" lon="-1.649220"><ele>304</ele><time>2020-10-28T09:41:23Z</time><name>PT370</name></trkpt>
<trkpt lat="53.088554" lon="-1.649199"><ele>304</ele><time>2020-10-28T09:41:25Z</time><name>PT371</name></trkpt>
<trkpt lat="53.088555" lon="-1.649177"><ele>304</ele><time>2020-10-28T09:41:26Z</time><name>PT372</name></trkpt>
<trkpt lat="53.088553" lon="-1.649157"><ele>305</ele><time>2020-10-28T09:41:27Z</time><name>PT373</name></trkpt>
<trkpt lat="53.088552" lon="-1.649140"><ele>305</ele><time>2020-10-28T09:41:28Z</time><name>PT374</name></trkpt>
<trkpt lat="53.088551" lon="-1.649122"><ele>305</ele><time>2020-10-28T09:41:29Z</time><name>PT375</name></trkpt>
<trkpt lat="53.088549" lon="-1.649101"><ele>305</ele><time>2020-10-28T09:41:29Z</time><name>PT376</name></trkpt>
<trkpt lat="53.088544" lon="-1.649071"><ele>306</ele><time>2020-10-28T09:41:31Z</time><name>PT377</name></trkpt>
<trkpt lat="53.088543" lon="-1.649051"><ele>306</ele><time>2020-10-28T09:41:32Z</time><name>PT378</name></trkpt>
<trkpt lat="53.088541" lon="-1.649027"><ele>306</ele><time>2020-10-28T09:41:33Z</time><name>PT379</name></trkpt>
<trkpt lat="53.088540" lon="-1.649006"><ele>307</ele><time>2020-10-28T09:41:34Z</time><name>PT380</name></trkpt>
<trkpt lat="53.088539" lon="-1.648985"><ele>307</ele><time>2020-10-28T09:41:35Z</time><name>PT381</name></trkpt>
<trkpt lat="53.088540" lon="-1.648967"><ele>307</ele><time>2020-10-28T09:41:35Z</time><name>PT382</name></trkpt>
<trkpt lat="53.088540" lon="-1.648951"><ele>307</ele><time>2020-10-28T09:41:37Z</time><name>PT383</name></trkpt>
<trkpt lat="53.088537" lon="-1.648927"><ele>307</ele><time>2020-10-28T09:41:38Z</time><name>PT384</name></trkpt>
<trkpt lat="53.088538" lon="-1.648904"><ele>307</ele><time>2020-10-28T09:41:38Z</time><name>PT385</name></trkpt>
<trkpt lat="53.088539" lon="-1.648884"><ele>307</ele><time>2020-10-28T09:41:40Z</time><name>PT386</name></trkpt>
<trkpt lat="53.088539" lon="-1.648864"><ele>307</ele><time>2020-10-28T09:41:41Z</time><name>PT387</name></trkpt>
<trkpt lat="53.088539" lon="-1.648840"><ele>307</ele><time>2020-10-28T09:41:41Z</time><name>PT388</name></trkpt>
<trkpt lat="53.088537" lon="-1.648818"><ele>307</ele><time>2020-10-28T09:41:43Z</time><name>PT389</name></trkpt>
<trkpt lat="53.088538" lon="-1.648796"><ele>307</ele><time>2020-10-28T09:41:44Z</time><name>PT390</name></trkpt>
<trkpt lat="53.088539" lon="-1.648775"><ele>308</ele><time>2020-10-28T09:41:44Z</time><name>PT391</name></trkpt>
<trkpt lat="53.088540" lon="-1.648754"><ele>308</ele><time>2020-10-28T09:41:46Z</time><name>PT392</name></trkpt>
<trkpt lat="53.088541" lon="-1.648737"><ele>307</ele><time>2020-10-28T09:41:47Z</time><name>PT393</name></trkpt>
<trkpt lat="53.088541" lon="-1.648717"><ele>307</ele><time>2020-10-28T09:41:48Z</time><name>PT394</name></trkpt>
<trkpt lat="53.088541" lon="-1.648698"><ele>307</ele><time>2020-10-28T09:41:49Z</time><name>PT395</name></trkpt>
<trkpt lat="53.088541" lon="-1.648678"><ele>308</ele><time>2020-10-28T09:41:50Z</time><name>PT396</name></trkpt>
<trkpt lat="53.088542" lon="-1.648655"><ele>308</ele><time>2020-10-28T09:41:51Z</time><name>PT397</name></trkpt>
<trkpt lat="53.088542" lon="-1.648637"><ele>308</ele><time>2020-10-28T09:41:52Z</time><name>PT398</name></trkpt>
<trkpt lat="53.088544" lon="-1.648624"><ele>308</ele><time>2020-10-28T09:41:53Z</time><name>PT399</name></trkpt>
<trkpt lat="53.088543" lon="-1.648603"><ele>308</ele><time>2020-10-28T09:41:53Z</time><name>PT400</name></trkpt>
<trkpt lat="53.088545" lon="-1.648576"><ele>308</ele><time>2020-10-28T09:41:55Z</time><name>PT401</name></trkpt>
<trkpt lat="53.088544" lon="-1.648551"><ele>308</ele><time>2020-10-28T09:41:56Z</time><name>PT402</name></trkpt>
<trkpt lat="53.088542" lon="-1.648535"><ele>308</ele><time>2020-10-28T09:41:56Z</time><name>PT403</name></trkpt>
<trkpt lat="53.088544" lon="-1.648526"><ele>308</ele><time>2020-10-28T09:41:58Z</time><name>PT404</name></trkpt>
<trkpt lat="53.088543" lon="-1.648507"><ele>308</ele><time>2020-10-28T09:41:59Z</time><name>PT405</name></trkpt>
<trkpt lat="53.088539" lon="-1.648471"><ele>309</ele><time>2020-10-28T09:41:59Z</time><name>PT406</name></trkpt>
<trkpt lat="53.088538" lon="-1.648448"><ele>309</ele><time>2020-10-28T09:42:01Z</time><name>PT407</name></trkpt>
<trkpt lat="53.088538" lon="-1.648435"><ele>309</ele><time>2020-10-28T09:42:02Z</time><name>PT408</name></trkpt>
<trkpt lat="53.088539" lon="-1.648424"><ele>309</ele><time>2020-10-28T09:42:02Z</time><name>PT409</name></trkpt>
<trkpt lat="53.088533" lon="-1.648403"><ele>309</ele><time>2020-10-28T09:42:04Z</time><name>PT410</name></trkpt>
<trkpt lat="53.088530" lon="-1.648379"><ele>309</ele><time>2020-10-28T09:42:05Z</time><name>PT411</name></trkpt>
<trkpt lat="53.088531" lon="-1.648358"><ele>309</ele><time>2020-10-28T09:42:05Z</time><name>PT412</name></trkpt>
<trkpt lat="53.088529" lon="-1.648334"><ele>309</ele><time>2020-10-28T09:42:07Z</time><name>PT413</name></trkpt>
<trkpt lat="53.088531" lon="-1.648324"><ele>309</ele><time>2020-10-28T09:42:08Z</time><name>PT414</name></trkpt>
<trkpt lat="53.088529" lon="-1.648308"><ele>309</ele><time>2020-10-28T09:42:08Z</time><name>PT415</name></trkpt>
<trkpt lat="53.088523" lon="-1.648271"><ele>311</ele><time>2020-10-28T09:42:10Z</time><name>PT416</name></trkpt>
<trkpt lat="53.088524" lon="-1.648253"><ele>310</ele><time>2020-10-28T09:42:11Z</time><name>PT417</name></trkpt>
<trkpt lat="53.088522" lon="-1.648234"><ele>310</ele><time>2020-10-28T09:42:11Z</time><name>PT418</name></trkpt>
<trkpt lat="53.088522" lon="-1.648218"><ele>311</ele><time>2020-10-28T09:42:13Z</time><name>PT419</name></trkpt>
<trkpt lat="53.088519" lon="-1.648197"><ele>311</ele><time>2020-10-28T09:42:14Z</time><name>PT420</name></trkpt>
<trkpt lat="53.088518" lon="-1.648175"><ele>311</ele><time>2020-10-28T09:42:14Z</time><name>PT421</name></trkpt>
<trkpt lat="53.088517" lon="-1.648154"><ele>311</ele><time>2020-10-28T09:42:16Z</time><name>PT422</name></trkpt>
<trkpt lat="53.088517" lon="-1.648135"><ele>311</ele><time>2020-10-28T09:42:17Z</time><name>PT423</name></trkpt>
<trkpt lat="53.088521" lon="-1.648120"><ele>310</ele><time>2020-10-28T09:42:17Z</time><name>PT424</name></trkpt>
<trkpt lat="53.088522" lon="-1.648100"><ele>310</ele><time>2020-10-28T09:42:19Z</time><name>PT425</name></trkpt>
<trkpt lat="53.088520" lon="-1.648080"><ele>310</ele><time>2020-10-28T09:42:20Z</time><name>PT426</name></trkpt>
<trkpt lat="53.088524" lon="-1.648069"><ele>310</ele><time>2020-10-28T09:42:20Z</time><name>PT427</name></trkpt>
<trkpt lat="53.088523" lon="-1.648057"><ele>310</ele><time>2020-10-28T09:42:22Z</time><name>PT428</name></trkpt>
<trkpt lat="53.088515" lon="-1.648047"><ele>311</ele><time>2020-10-28T09:42:23Z</time><name>PT429</name></trkpt>
<trkpt lat="53.088511" lon="-1.648034"><ele>311</ele><time>2020-10-28T09:42:23Z</time><name>PT430</name></trkpt>
<trkpt lat="53.088506" lon="-1.648007"><ele>311</ele><time>2020-10-28T09:42:25Z</time><name>PT431</name></trkpt>
<trkpt lat="53.088505" lon="-1.647981"><ele>310</ele><time>2020-10-28T09:42:26Z</time><name>PT432</name></trkpt>
<trkpt lat="53.088502" lon="-1.647960"><ele>311</ele><time>2020-10-28T09:42:26Z</time><name>PT433</name></trkpt>
<trkpt lat="53.088500" lon="-1.647945"><ele>311</ele><time>2020-10-28T09:42:28Z</time><name>PT434</name></trkpt>
<trkpt lat="53.088499" lon="-1.647927"><ele>311</ele><time>2020-10-28T09:42:29Z</time><name>PT435</name></trkpt>
<trkpt lat="53.088498" lon="-1.647902"><ele>311</ele><time>2020-10-28T09:42:29Z</time><name>PT436</name></trkpt>
<trkpt lat="53.088496" lon="-1.647884"><ele>310</ele><time>2020-10-28T09:42:31Z</time><name>PT437</name></trkpt>
<trkpt lat="53.088496" lon="-1.647860"><ele>310</ele><time>2020-10-28T09:42:32Z</time><name>PT438</name></trkpt>
<trkpt lat="53.088495" lon="-1.647842"><ele>310</ele><time>2020-10-28T09:42:32Z</time><name>PT439</name></trkpt>
<trkpt lat="53.088494" lon="-1.647827"><ele>311</ele><time>2020-10-28T09:42:34Z</time><name>PT440</name></trkpt>
<trkpt lat="53.088493" lon="-1.647807"><ele>311</ele><time>2020-10-28T09:42:35Z</time><name>PT441</name></trkpt>
<trkpt lat="53.088491" lon="-1.647776"><ele>311</ele><time>2020-10-28T09:42:35Z</time><name>PT442</name></trkpt>
<trkpt lat="53.088488" lon="-1.647750"><ele>311</ele><time>2020-10-28T09:42:37Z</time><name>PT443</name></trkpt>
<trkpt lat="53.088485" lon="-1.647734"><ele>311</ele><time>2020-10-28T09:42:38Z</time><name>PT444</name></trkpt>
<trkpt lat="53.088486" lon="-1.647722"><ele>311</ele><time>2020-10-28T09:42:38Z</time><name>PT445</name></trkpt>
<trkpt lat="53.088484" lon="-1.647696"><ele>311</ele><time>2020-10-28T09:42:40Z</time><name>PT446</name></trkpt>
<trkpt lat="53.088481" lon="-1.647670"><ele>311</ele><time>2020-10-28T09:42:41Z</time><name>PT447</name></trkpt>
<trkpt lat="53.088478" lon="-1.647649"><ele>312</ele><time>2020-10-28T09:42:42Z</time><name>PT448</name></trkpt>
<trkpt lat="53.088479" lon="-1.647629"><ele>311</ele><time>2020-10-28T09:42:43Z</time><name>PT449</name></trkpt>
<trkpt lat="53.088481" lon="-1.647611"><ele>312</ele><time>2020-10-28T09:42:44Z</time><name>PT450</name></trkpt>
<trkpt lat="53.088482" lon="-1.647597"><ele>311</ele><time>2020-10-28T09:42:45Z</time><name>PT451</name></trkpt>
<trkpt lat="53.088481" lon="-1.647571"><ele>312</ele><time>2020-10-28T09:42:46Z</time><name>PT452</name></trkpt>
<trkpt lat="53.088476" lon="-1.647541"><ele>312</ele><time>2020-10-28T09:42:47Z</time><name>PT453</name></trkpt>
<trkpt lat="53.088476" lon="-1.647520"><ele>312</ele><time>2020-10-28T09:42:47Z</time><name>PT454</name></trkpt>
<trkpt lat="53.088475" lon="-1.647501"><ele>312</ele><time>2020-10-28T09:42:49Z</time><name>PT455</name></trkpt>
<trkpt lat="53.088474" lon="-1.647486"><ele>312</ele><time>2020-10-28T09:42:50Z</time><name>PT456</name></trkpt>
<trkpt lat="53.088472" lon="-1.647468"><ele>312</ele><time>2020-10-28T09:42:51Z</time><name>PT457</name></trkpt>
<trkpt lat="53.088466" lon="-1.647445"><ele>313</ele><time>2020-10-28T09:42:52Z</time><name>PT458</name></trkpt>
<trkpt lat="53.088465" lon="-1.647418"><ele>313</ele><time>2020-10-28T09:42:53Z</time><name>PT459</name></trkpt>
<trkpt lat="53.088465" lon="-1.647397"><ele>313</ele><time>2020-10-28T09:42:54Z</time><name>PT460</name></trkpt>
<trkpt lat="53.088465" lon="-1.647379"><ele>312</ele><time>2020-10-28T09:42:55Z</time><name>PT461</name></trkpt>
<trkpt lat="53.088466" lon="-1.647362"><ele>312</ele><time>2020-10-28T09:42:56Z</time><name>PT462</name></trkpt>
<trkpt lat="53.088469" lon="-1.647346"><ele>312</ele><time>2020-10-28T09:42:57Z</time><name>PT463</name></trkpt>
<trkpt lat="53.088468" lon="-1.647325"><ele>312</ele><time>2020-10-28T09:42:58Z</time><name>PT464</name></trkpt>
<trkpt lat="53.088465" lon="-1.647297"><ele>312</ele><time>2020-10-28T09:42:59Z</time><name>PT465</name></trkpt>
<trkpt lat="53.088466" lon="-1.647282"><ele>312</ele><time>2020-10-28T09:43:00Z</time><name>PT466</name></trkpt>
<trkpt lat="53.088467" lon="-1.647276"><ele>311</ele><time>2020-10-28T09:43:01Z</time><name>PT467</name></trkpt>
<trkpt lat="53.088466" lon="-1.647262"><ele>311</ele><time>2020-10-28T09:43:02Z</time><name>PT468</name></trkpt>
<trkpt lat="53.088468" lon="-1.647238"><ele>311</ele><time>2020-10-28T09:43:02Z</time><name>PT469</name></trkpt>
<trkpt lat="53.088467" lon="-1.647212"><ele>311</ele><time>2020-10-28T09:43:04Z</time><name>PT470</name></trkpt>
<trkpt lat="53.088468" lon="-1.647191"><ele>311</ele><time>2020-10-28T09:43:05Z</time><name>PT471</name></trkpt>
<trkpt lat="53.088470" lon="-1.647170"><ele>311</ele><time>2020-10-28T09:43:05Z</time><name>PT472</name></trkpt>
<trkpt lat="53.088469" lon="-1.647149"><ele>311</ele><time>2020-10-28T09:43:07Z</time><name>PT473</name></trkpt>
<trkpt lat="53.088466" lon="-1.647122"><ele>312</ele><time>2020-10-28T09:43:08Z</time><name>PT474</name></trkpt>
<trkpt lat="53.088464" lon="-1.647096"><ele>312</ele><time>2020-10-28T09:43:08Z</time><name>PT475</name></trkpt>
<trkpt lat="53.088465" lon="-1.647069"><ele>313</ele><time>2020-10-28T09:43:10Z</time><name>PT476</name></trkpt>
<trkpt lat="53.088466" lon="-1.647048"><ele>313</ele><time>2020-10-28T09:43:11Z</time><name>PT477</name></trkpt>
<trkpt lat="53.088468" lon="-1.647030"><ele>313</ele><time>2020-10-28T09:43:12Z</time><name>PT478</name></trkpt>
<trkpt lat="53.088471" lon="-1.647008"><ele>313</ele><time>2020-10-28T09:43:13Z</time><name>PT479</name></trkpt>
<trkpt lat="53.088471" lon="-1.646985"><ele>313</ele><time>2020-10-28T09:43:14Z</time><name>PT480</name></trkpt>
<trkpt lat="53.088472" lon="-1.646964"><ele>313</ele><time>2020-10-28T09:43:15Z</time><name>PT481</name></trkpt>
<trkpt lat="53.088474" lon="-1.646940"><ele>313</ele><time>2020-10-28T09:43:16Z</time><name>PT482</name></trkpt>
<trkpt lat="53.088478" lon="-1.646928"><ele>313</ele><time>2020-10-28T09:43:17Z</time><name>PT483</name></trkpt>
<trkpt lat="53.088482" lon="-1.646907"><ele>313</ele><time>2020-10-28T09:43:17Z</time><name>PT484</name></trkpt>
<trkpt lat="53.088485" lon="-1.646878"><ele>313</ele><time>2020-10-28T09:43:19Z</time><name>PT485</name></trkpt>
<trkpt lat="53.088487" lon="-1.646854"><ele>313</ele><time>2020-10-28T09:43:20Z</time><name>PT486</name></trkpt>
<trkpt lat="53.088490" lon="-1.646835"><ele>313</ele><time>2020-10-28T09:43:20Z</time><name>PT487</name></trkpt>
<trkpt lat="53.088495" lon="-1.646812"><ele>313</ele><time>2020-10-28T09:43:22Z</time><name>PT488</name></trkpt>
<trkpt lat="53.088497" lon="-1.646790"><ele>313</ele><time>2020-10-28T09:43:23Z</time><name>PT489</name></trkpt>
<trkpt lat="53.088500" lon="-1.646771"><ele>313</ele><time>2020-10-28T09:43:23Z</time><name>PT490</name></trkpt>
<trkpt lat="53.088503" lon="-1.646753"><ele>313</ele><time>2020-10-28T09:43:25Z</time><name>PT491</name></trkpt>
<trkpt lat="53.088506" lon="-1.646737"><ele>312</ele><time>2020-10-28T09:43:26Z</time><name>PT492</name></trkpt>
<trkpt lat="53.088511" lon="-1.646727"><ele>312</ele><time>2020-10-28T09:43:26Z</time><name>PT493</name></trkpt>
<trkpt lat="53.088512" lon="-1.646700"><ele>314</ele><time>2020-10-28T09:43:28Z</time><name>PT494</name></trkpt>
<trkpt lat="53.088516" lon="-1.646677"><ele>315</ele><time>2020-10-28T09:43:29Z</time><name>PT495</name></trkpt>
<trkpt lat="53.088519" lon="-1.646652"><ele>315</ele><time>2020-10-28T09:43:30Z</time><name>PT496</name></trkpt>
<trkpt lat="53.088520" lon="-1.646630"><ele>315</ele><time>2020-10-28T09:43:31Z</time><name>PT497</name></trkpt>
<trkpt lat="53.088522" lon="-1.646612"><ele>315</ele><time>2020-10-28T09:43:32Z</time><name>PT498</name></trkpt>
<trkpt lat="53.088525" lon="-1.646591"><ele>315</ele><time>2020-10-28T09:43:32Z</time><name>PT499</name></trkpt>
<trkpt lat="53.088530" lon="-1.646575"><ele>315</ele><time>2020-10-28T09:43:34Z</time><name>PT500</name></trkpt>
<trkpt lat="53.088536" lon="-1.646560"><ele>315</ele><time>2020-10-28T09:43:35Z</time><name>PT501</name></trkpt>
<trkpt lat="53.088543" lon="-1.646549"><ele>315</ele><time>2020-10-28T09:43:35Z</time><name>PT502</name></trkpt>
<trkpt lat="53.088548" lon="-1.646548"><ele>315</ele><time>2020-10-28T09:43:37Z</time><name>PT503</name></trkpt>
<trkpt lat="53.088556" lon="-1.646553"><ele>315</ele><time>2020-10-28T09:43:38Z</time><name>PT504</name></trkpt>
<trkpt lat="53.088562" lon="-1.646560"><ele>315</ele><time>2020-10-28T09:43:38Z</time><name>PT505</name></trkpt>
<trkpt lat="53.088565" lon="-1.646564"><ele>315</ele><time>2020-10-28T09:43:40Z</time><name>PT506</name></trkpt>
<trkpt lat="53.088565" lon="-1.646572"><ele>314</ele><time>2020-10-28T09:43:41Z</time><name>PT507</name></trkpt>
<trkpt lat="53.088563" lon="-1.646573"><ele>314</ele><time>2020-10-28T09:43:41Z</time><name>PT508</name></trkpt>
<trkpt lat="53.088566" lon="-1.646572"><ele>313</ele><time>2020-10-28T09:43:43Z</time><name>PT509</name></trkpt>
<trkpt lat="53.088569" lon="-1.646569"><ele>313</ele><time>2020-10-28T09:43:44Z</time><name>PT510</name></trkpt>
<trkpt lat="53.088579" lon="-1.646563"><ele>313</ele><time>2020-10-28T09:43:45Z</time><name>PT511</name></trkpt>
<trkpt lat="53.088585" lon="-1.646563"><ele>313</ele><time>2020-10-28T09:43:46Z</time><name>PT512</name></trkpt>
<trkpt lat="53.088595" lon="-1.646559"><ele>313</ele><time>2020-10-28T09:43:47Z</time><name>PT513</name></trkpt>
<trkpt lat="53.088603" lon="-1.646557"><ele>314</ele><time>2020-10-28T09:43:47Z</time><name>PT514</name></trkpt>
<trkpt lat="53.088605" lon="-1.646560"><ele>314</ele><time>2020-10-28T09:43:49Z</time><name>PT515</name></trkpt>
<trkpt lat="53.088601" lon="-1.646561"><ele>314</ele><time>2020-10-28T09:43:50Z</time><name>PT516</name></trkpt>
<trkpt lat="53.088603" lon="-1.646568"><ele>314</ele><time>2020-10-28T09:43:50Z</time><name>PT517</name></trkpt>
<trkpt lat="53.088620" lon="-1.646586"><ele>315</ele><time>2020-10-28T09:43:55Z</time><name>PT518</name></trkpt>
<trkpt lat="53.088624" lon="-1.646591"><ele>315</ele><time>2020-10-28T09:43:56Z</time><name>PT519</name></trkpt>
<trkpt lat="53.088630" lon="-1.646593"><ele>315</ele><time>2020-10-28T09:43:56Z</time><name>PT520</name></trkpt>
<trkpt lat="53.088636" lon="-1.646597"><ele>315</ele><time>2020-10-28T09:43:58Z</time><name>PT521</name></trkpt>
<trkpt lat="53.088641" lon="-1.646597"><ele>315</ele><time>2020-10-28T09:43:59Z</time><name>PT522</name></trkpt>
<trkpt lat="53.088648" lon="-1.646597"><ele>315</ele><time>2020-10-28T09:44:00Z</time><name>PT523</name></trkpt>
<trkpt lat="53.088654" lon="-1.646596"><ele>316</ele><time>2020-10-28T09:44:01Z</time><name>PT524</name></trkpt>
<trkpt lat="53.088663" lon="-1.646600"><ele>316</ele><time>2020-10-28T09:44:02Z</time><name>PT525</name></trkpt>
<trkpt lat="53.088671" lon="-1.646601"><ele>316</ele><time>2020-10-28T09:44:02Z</time><name>PT526</name></trkpt>
<trkpt lat="53.088681" lon="-1.646605"><ele>315</ele><time>2020-10-28T09:44:04Z</time><name>PT527</name></trkpt>
<trkpt lat="53.088687" lon="-1.646610"><ele>316</ele><time>2020-10-28T09:44:05Z</time><name>PT528</name></trkpt>
<trkpt lat="53.088689" lon="-1.646610"><ele>315</ele><time>2020-10-28T09:44:05Z</time><name>PT529</name></trkpt>
<trkpt lat="53.088697" lon="-1.646606"><ele>316</ele><time>2020-10-28T09:44:07Z</time><name>PT530</name></trkpt>
<trkpt lat="53.088706" lon="-1.646598"><ele>315</ele><time>2020-10-28T09:44:08Z</time><name>PT531</name></trkpt>
<trkpt lat="53.088713" lon="-1.646598"><ele>315</ele><time>2020-10-28T09:44:08Z</time><name>PT532</name></trkpt>
<trkpt lat="53.088722" lon="-1.646602"><ele>316</ele><time>2020-10-28T09:44:10Z</time><name>PT533</name></trkpt>
<trkpt lat="53.088732" lon="-1.646608"><ele>316</ele><time>2020-10-28T09:44:11Z</time><name>PT534</name></trkpt>
<trkpt lat="53.088736" lon="-1.646616"><ele>316</ele><time>2020-10-28T09:44:11Z</time><name>PT535</name></trkpt>
<trkpt lat="53.088748" lon="-1.646624"><ele>316</ele><time>2020-10-28T09:44:13Z</time><name>PT536</name></trkpt>
<trkpt lat="53.088760" lon="-1.646627"><ele>316</ele><time>2020-10-28T09:44:14Z</time><name>PT537</name></trkpt>
<trkpt lat="53.088762" lon="-1.646633"><ele>316</ele><time>2020-10-28T09:44:14Z</time><name>PT538</name></trkpt>
<trkpt lat="53.088771" lon="-1.646632"><ele>316</ele><time>2020-10-28T09:44:16Z</time><name>PT539</name></trkpt>
<trkpt lat="53.088784" lon="-1.646632"><ele>316</ele><time>2020-10-28T09:44:17Z</time><name>PT540</name></trkpt>
<trkpt lat="53.088790" lon="-1.646632"><ele>316</ele><time>2020-10-28T09:44:17Z</time><name>PT541</name></trkpt>
<trkpt lat="53.088797" lon="-1.646638"><ele>317</ele><time>2020-10-28T09:44:19Z</time><name>PT542</name></trkpt>
<trkpt lat="53.088809" lon="-1.646641"><ele>318</ele><time>2020-10-28T09:44:20Z</time><name>PT543</name></trkpt>
<trkpt lat="53.088819" lon="-1.646643"><ele>318</ele><time>2020-10-28T09:44:20Z</time><name>PT544</name></trkpt>
<trkpt lat="53.088822" lon="-1.646643"><ele>319</ele><time>2020-10-28T09:44:22Z</time><name>PT545</name></trkpt>
<trkpt lat="53.088828" lon="-1.646645"><ele>319</ele><time>2020-10-28T09:44:23Z</time><name>PT546</name></trkpt>
<trkpt lat="53.088836" lon="-1.646648"><ele>319</ele><time>2020-10-28T09:44:23Z</time><name>PT547</name></trkpt>
<trkpt lat="53.088842" lon="-1.646656"><ele>319</ele><time>2020-10-28T09:44:25Z</time><name>PT548</name></trkpt>
<trkpt lat="53.088850" lon="-1.646660"><ele>319</ele><time>2020-10-28T09:44:26Z</time><name>PT549</name></trkpt>
<trkpt lat="53.088862" lon="-1.646658"><ele>319</ele><time>2020-10-28T09:44:26Z</time><name>PT550</name></trkpt>
<trkpt lat="53.088869" lon="-1.646666"><ele>319</ele><time>2020-10-28T09:44:28Z</time><name>PT551</name></trkpt>
<trkpt lat="53.088875" lon="-1.646668"><ele>319</ele><time>2020-10-28T09:44:29Z</time><name>PT552</name></trkpt>
<trkpt lat="53.088876" lon="-1.646665"><ele>320</ele><time>2020-10-28T09:44:29Z</time><name>PT553</name></trkpt>
<trkpt lat="53.088881" lon="-1.646668"><ele>319</ele><time>2020-10-28T09:44:31Z</time><name>PT554</name></trkpt>
<trkpt lat="53.088886" lon="-1.646664"><ele>320</ele><time>2020-10-28T09:44:32Z</time><name>PT555</name></trkpt>
<trkpt lat="53.088893" lon="-1.646660"><ele>320</ele><time>2020-10-28T09:44:32Z</time><name>PT556</name></trkpt>
<trkpt lat="53.088899" lon="-1.646661"><ele>320</ele><time>2020-10-28T09:44:34Z</time><name>PT557</name></trkpt>
<trkpt lat="53.088904" lon="-1.646660"><ele>320</ele><time>2020-10-28T09:44:35Z</time><name>PT558</name></trkpt>
<trkpt lat="53.088912" lon="-1.646665"><ele>321</ele><time>2020-10-28T09:44:35Z</time><name>PT559</name></trkpt>
<trkpt lat="53.088921" lon="-1.646668"><ele>321</ele><time>2020-10-28T09:44:37Z</time><name>PT560</name></trkpt>
<trkpt lat="53.088931" lon="-1.646669"><ele>320</ele><time>2020-10-28T09:44:38Z</time><name>PT561</name></trkpt>
<trkpt lat="53.088943" lon="-1.646673"><ele>321</ele><time>2020-10-28T09:44:38Z</time><name>PT562</name></trkpt>
<trkpt lat="53.088952" lon="-1.646674"><ele>321</ele><time>2020-10-28T09:44:40Z</time><name>PT563</name></trkpt>
<trkpt lat="53.088960" lon="-1.646675"><ele>321</ele><time>2020-10-28T09:44:41Z</time><name>PT564</name></trkpt>
<trkpt lat="53.088967" lon="-1.646672"><ele>320</ele><time>2020-10-28T09:44:41Z</time><name>PT565</name></trkpt>
<trkpt lat="53.088976" lon="-1.646676"><ele>320</ele><time>2020-10-28T09:44:43Z</time><name>PT566</name></trkpt>
<trkpt lat="53.088984" lon="-1.646683"><ele>319</ele><time>2020-10-28T09:44:44Z</time><name>PT567</name></trkpt>
<trkpt lat="53.088991" lon="-1.646690"><ele>319</ele><time>2020-10-28T09:44:44Z</time><name>PT568</name></trkpt>
<trkpt lat="53.088998" lon="-1.646697"><ele>319</ele><time>2020-10-28T09:44:46Z</time><name>PT569</name></trkpt>
<trkpt lat="53.089002" lon="-1.646706"><ele>319</ele><time>2020-10-28T09:44:47Z</time><name>PT570</name></trkpt>
<trkpt lat="53.089007" lon="-1.646715"><ele>319</ele><time>2020-10-28T09:44:47Z</time><name>PT571</name></trkpt>
<trkpt lat="53.089013" lon="-1.646721"><ele>319</ele><time>2020-10-28T09:44:49Z</time><name>PT572</name></trkpt>
<trkpt lat="53.089020" lon="-1.646723"><ele>319</ele><time>2020-10-28T09:44:50Z</time><name>PT573</name></trkpt>
<trkpt lat="53.089027" lon="-1.646726"><ele>319</ele><time>2020-10-28T09:44:50Z</time><name>PT574</name></trkpt>
<trkpt lat="53.089035" lon="-1.646728"><ele>320</ele><time>2020-10-28T09:44:52Z</time><name>PT575</name></trkpt>
<trkpt lat="53.089039" lon="-1.646725"><ele>320</ele><time>2020-10-28T09:44:53Z</time><name>PT576</name></trkpt>
<trkpt lat="53.089046" lon="-1.646723"><ele>320</ele><time>2020-10-28T09:44:53Z</time><name>PT577</name></trkpt>
<trkpt lat="53.089055" lon="-1.646722"><ele>321</ele><time>2020-10-28T09:44:55Z</time><name>PT578</name></trkpt>
<trkpt lat="53.089062" lon="-1.646720"><ele>321</ele><time>2020-10-28T09:44:56Z</time><name>PT579</name></trkpt>
<trkpt lat="53.089072" lon="-1.646720"><ele>321</ele><time>2020-10-28T09:44:56Z</time><name>PT580</name></trkpt>
<trkpt lat="53.089082" lon="-1.646719"><ele>321</ele><time>2020-10-28T09:44:58Z</time><name>PT581</name></trkpt>
<trkpt lat="53.089092" lon="-1.646719"><ele>320</ele><time>2020-10-28T09:44:59Z</time><name>PT582</name></trkpt>
<trkpt lat="53.089102" lon="-1.646717"><ele>320</ele><time>2020-10-28T09:44:59Z</time><name>PT583</name></trkpt>
<trkpt lat="53.089110" lon="-1.646715"><ele>321</ele><time>2020-10-28T09:45:01Z</time><name>PT584</name></trkpt>
<trkpt lat="53.089118" lon="-1.646714"><ele>321</ele><time>2020-10-28T09:45:02Z</time><name>PT585</name></trkpt>
<trkpt lat="53.089128" lon="-1.646710"><ele>321</ele><time>2020-10-28T09:45:02Z</time><name>PT586</name></trkpt>
<trkpt lat="53.089137" lon="-1.646710"><ele>321</ele><time>2020-10-28T09:45:04Z</time><name>PT587</name></trkpt>
<trkpt lat="53.089146" lon="-1.646711"><ele>321</ele><time>2020-10-28T09:45:05Z</time><name>PT588</name></trkpt>
<trkpt lat="53.089157" lon="-1.646713"><ele>321</ele><time>2020-10-28T09:45:06Z</time><name>PT589</name></trkpt>
<trkpt lat="53.089167" lon="-1.646714"><ele>321</ele><time>2020-10-28T09:45:07Z</time><name>PT590</name></trkpt>
<trkpt lat="53.089178" lon="-1.646714"><ele>321</ele><time>2020-10-28T09:45:08Z</time><name>PT591</name></trkpt>
<trkpt lat="53.089189" lon="-1.646717"><ele>321</ele><time>2020-10-28T09:45:08Z</time><name>PT592</name></trkpt>
<trkpt lat="53.089200" lon="-1.646723"><ele>321</ele><time>2020-10-28T09:45:10Z</time><name>PT593</name></trkpt>
<trkpt lat="53.089210" lon="-1.646725"><ele>321</ele><time>2020-10-28T09:45:11Z</time><name>PT594</name></trkpt>
<trkpt lat="53.089219" lon="-1.646726"><ele>321</ele><time>2020-10-28T09:45:11Z</time><name>PT595</name></trkpt>
<trkpt lat="53.089229" lon="-1.646727"><ele>321</ele><time>2020-10-28T09:45:13Z</time><name>PT596</name></trkpt>
<trkpt lat="53.089239" lon="-1.646727"><ele>321</ele><time>2020-10-28T09:45:14Z</time><name>PT597</name></trkpt>
<trkpt lat="53.089250" lon="-1.646730"><ele>321</ele><time>2020-10-28T09:45:14Z</time><name>PT598</name></trkpt>
<trkpt lat="53.089258" lon="-1.646731"><ele>322</ele><time>2020-10-28T09:45:16Z</time><name>PT599</name></trkpt>
<trkpt lat="53.089267" lon="-1.646729"><ele>321</ele><time>2020-10-28T09:45:17Z</time><name>PT600</name></trkpt>
<trkpt lat="53.089277" lon="-1.646727"><ele>321</ele><time>2020-10-28T09:45:18Z</time><name>PT601</name></trkpt>
<trkpt lat="53.089289" lon="-1.646724"><ele>321</ele><time>2020-10-28T09:45:19Z</time><name>PT602</name></trkpt>
<trkpt lat="53.089301" lon="-1.646718"><ele>321</ele><time>2020-10-28T09:45:20Z</time><name>PT603</name></trkpt>
<trkpt lat="53.089314" lon="-1.646713"><ele>321</ele><time>2020-10-28T09:45:20Z</time><name>PT604</name></trkpt>
<trkpt lat="53.089327" lon="-1.646711"><ele>321</ele><time>2020-10-28T09:45:22Z</time><name>PT605</name></trkpt>
<trkpt lat="53.089338" lon="-1.646710"><ele>321</ele><time>2020-10-28T09:45:23Z</time><name>PT606</name></trkpt>
<trkpt lat="53.089346" lon="-1.646710"><ele>321</ele><time>2020-10-28T09:45:23Z</time><name>PT607</name></trkpt>
<trkpt lat="53.089355" lon="-1.646715"><ele>321</ele><time>2020-10-28T09:45:25Z</time><name>PT608</name></trkpt>
<trkpt lat="53.089368" lon="-1.646712"><ele>321</ele><time>2020-10-28T09:45:26Z</time><name>PT609</name></trkpt>
<trkpt lat="53.089377" lon="-1.646706"><ele>321</ele><time>2020-10-28T09:45:26Z</time><name>PT610</name></trkpt>
<trkpt lat="53.089389" lon="-1.646698"><ele>321</ele><time>2020-10-28T09:45:28Z</time><name>PT611</name></trkpt>
<trkpt lat="53.089400" lon="-1.646691"><ele>321</ele><time>2020-10-28T09:45:29Z</time><name>PT612</name></trkpt>
<trkpt lat="53.089412" lon="-1.646684"><ele>321</ele><time>2020-10-28T09:45:29Z</time><name>PT613</name></trkpt>
<trkpt lat="53.089424" lon="-1.646678"><ele>320</ele><time>2020-10-28T09:45:31Z</time><name>PT614</name></trkpt>
<trkpt lat="53.089435" lon="-1.646673"><ele>320</ele><time>2020-10-28T09:45:32Z</time><name>PT615</name></trkpt>
<trkpt lat="53.089445" lon="-1.646667"><ele>320</ele><time>2020-10-28T09:45:32Z</time><name>PT616</name></trkpt>
<trkpt lat="53.089453" lon="-1.646659"><ele>320</ele><time>2020-10-28T09:45:34Z</time><name>PT617</name></trkpt>
<trkpt lat="53.089461" lon="-1.646655"><ele>320</ele><time>2020-10-28T09:45:35Z</time><name>PT618</name></trkpt>
<trkpt lat="53.089472" lon="-1.646651"><ele>320</ele><time>2020-10-28T09:45:35Z</time><name>PT619</name></trkpt>
<trkpt lat="53.089484" lon="-1.646647"><ele>320</ele><time>2020-10-28T09:45:37Z</time><name>PT620</name></trkpt>
<trkpt lat="53.089497" lon="-1.646644"><ele>320</ele><time>2020-10-28T09:45:38Z</time><name>PT621</name></trkpt>
<trkpt lat="53.089510" lon="-1.646641"><ele>320</ele><time>2020-10-28T09:45:38Z</time><name>PT622</name></trkpt>
<trkpt lat="53.089523" lon="-1.646641"><ele>320</ele><time>2020-10-28T09:45:40Z</time><name>PT623</name></trkpt>
<trkpt lat="53.089533" lon="-1.646639"><ele>320</ele><time>2020-10-28T09:45:41Z</time><name>PT624</name></trkpt>
<trkpt lat="53.089543" lon="-1.646635"><ele>320</ele><time>2020-10-28T09:45:41Z</time><name>PT625</name></trkpt>
<trkpt lat="53.089556" lon="-1.646630"><ele>320</ele><time>2020-10-28T09:45:43Z</time><name>PT626</name></trkpt>
<trkpt lat="53.089569" lon="-1.646625"><ele>320</ele><time>2020-10-28T09:45:44Z</time><name>PT627</name></trkpt>
<trkpt lat="53.089582" lon="-1.646620"><ele>320</ele><time>2020-10-28T09:45:44Z</time><name>PT628</name></trkpt>
<trkpt lat="53.089592" lon="-1.646616"><ele>320</ele><time>2020-10-28T09:45:46Z</time><name>PT629</name></trkpt>
<trkpt lat="53.089602" lon="-1.646612"><ele>320</ele><time>2020-10-28T09:45:47Z</time><name>PT630</name></trkpt>
<trkpt lat="53.089613" lon="-1.646607"><ele>320</ele><time>2020-10-28T09:45:47Z</time><name>PT631</name></trkpt>
<trkpt lat="53.089624" lon="-1.646601"><ele>320</ele><time>2020-10-28T09:45:49Z</time><name>PT632</name></trkpt>
<trkpt lat="53.089633" lon="-1.646596"><ele>320</ele><time>2020-10-28T09:45:50Z</time><name>PT633</name></trkpt>
<trkpt lat="53.089644" lon="-1.646594"><ele>320</ele><time>2020-10-28T09:45:50Z</time><name>PT634</name></trkpt>
<trkpt lat="53.089655" lon="-1.646593"><ele>320</ele><time>2020-10-28T09:45:52Z</time><name>PT635</name></trkpt>
<trkpt lat="53.089667" lon="-1.646591"><ele>320</ele><time>2020-10-28T09:45:53Z</time><name>PT636</name></trkpt>
<trkpt lat="53.089680" lon="-1.646590"><ele>320</ele><time>2020-10-28T09:45:53Z</time><name>PT637</name></trkpt>
<trkpt lat="53.089694" lon="-1.646586"><ele>320</ele><time>2020-10-28T09:45:55Z</time><name>PT638</name></trkpt>
<trkpt lat="53.089707" lon="-1.646584"><ele>320</ele><time>2020-10-28T09:45:56Z</time><name>PT639</name></trkpt>
<trkpt lat="53.089720" lon="-1.646585"><ele>320</ele><time>2020-10-28T09:45:56Z</time><name>PT640</name></trkpt>
<trkpt lat="53.089730" lon="-1.646586"><ele>320</ele><time>2020-10-28T09:45:58Z</time><name>PT641</name></trkpt>
<trkpt lat="53.089741" lon="-1.646588"><ele>320</ele><time>2020-10-28T09:45:59Z</time><name>PT642</name></trkpt>
<trkpt lat="53.089751" lon="-1.646590"><ele>320</ele><time>2020-10-28T09:46:00Z</time><name>PT643</name></trkpt>
<trkpt lat="53.089762" lon="-1.646589"><ele>320</ele><time>2020-10-28T09:46:01Z</time><name>PT644</name></trkpt>
<trkpt lat="53.089772" lon="-1.646583"><ele>320</ele><time>2020-10-28T09:46:02Z</time><name>PT645</name></trkpt>
<trkpt lat="53.089783" lon="-1.646578"><ele>321</ele><time>2020-10-28T09:46:02Z</time><name>PT646</name></trkpt>
<trkpt lat="53.089794" lon="-1.646574"><ele>321</ele><time>2020-10-28T09:46:04Z</time><name>PT647</name></trkpt>
<trkpt lat="53.089805" lon="-1.646570"><ele>321</ele><time>2020-10-28T09:46:05Z</time><name>PT648</name></trkpt>
<trkpt lat="53.089816" lon="-1.646565"><ele>321</ele><time>2020-10-28T09:46:05Z</time><name>PT649</name></trkpt>
<trkpt lat="53.089828" lon="-1.646561"><ele>321</ele><time>2020-10-28T09:46:07Z</time><name>PT650</name></trkpt>
<trkpt lat="53.089841" lon="-1.646553"><ele>321</ele><time>2020-10-28T09:46:08Z</time><name>PT651</name></trkpt>
<trkpt lat="53.089852" lon="-1.646547"><ele>321</ele><time>2020-10-28T09:46:08Z</time><name>PT652</name></trkpt>
<trkpt lat="53.089863" lon="-1.646541"><ele>321</ele><time>2020-10-28T09:46:10Z</time><name>PT653</name></trkpt>
<trkpt lat="53.089874" lon="-1.646534"><ele>321</ele><time>2020-10-28T09:46:11Z</time><name>PT654</name></trkpt>
<trkpt lat="53.089886" lon="-1.646526"><ele>321</ele><time>2020-10-28T09:46:11Z</time><name>PT655</name></trkpt>
<trkpt lat="53.089895" lon="-1.646517"><ele>322</ele><time>2020-10-28T09:46:13Z</time><name>PT656</name></trkpt>
<trkpt lat="53.089907" lon="-1.646510"><ele>322</ele><time>2020-10-28T09:46:14Z</time><name>PT657</name></trkpt>
<trkpt lat="53.089916" lon="-1.646509"><ele>322</ele><time>2020-10-28T09:46:14Z</time><name>PT658</name></trkpt>
<trkpt lat="53.089924" lon="-1.646509"><ele>323</ele><time>2020-10-28T09:46:16Z</time><name>PT659</name></trkpt>
<trkpt lat="53.089934" lon="-1.646512"><ele>323</ele><time>2020-10-28T09:46:17Z</time><name>PT660</name></trkpt>
<trkpt lat="53.089941" lon="-1.646518"><ele>322</ele><time>2020-10-28T09:46:17Z</time><name>PT661</name></trkpt>
<trkpt lat="53.089949" lon="-1.646523"><ele>322</ele><time>2020-10-28T09:46:19Z</time><name>PT662</name></trkpt>
<trkpt lat="53.089959" lon="-1.646520"><ele>322</ele><time>2020-10-28T09:46:20Z</time><name>PT663</name></trkpt>
<trkpt lat="53.089969" lon="-1.646512"><ele>322</ele><time>2020-10-28T09:46:20Z</time><name>PT664</name></trkpt>
<trkpt lat="53.089979" lon="-1.646506"><ele>322</ele><time>2020-10-28T09:46:22Z</time><name>PT665</name></trkpt>
<trkpt lat="53.089989" lon="-1.646502"><ele>323</ele><time>2020-10-28T09:46:23Z</time><name>PT666</name></trkpt>
<trkpt lat="53.090000" lon="-1.646499"><ele>323</ele><time>2020-10-28T09:46:23Z</time><name>PT667</name></trkpt>
<trkpt lat="53.090012" lon="-1.646495"><ele>323</ele><time>2020-10-28T09:46:25Z</time><name>PT668</name></trkpt>
<trkpt lat="53.090022" lon="-1.646495"><ele>322</ele><time>2020-10-28T09:46:26Z</time><name>PT669</name></trkpt>
<trkpt lat="53.090035" lon="-1.646490"><ele>322</ele><time>2020-10-28T09:46:26Z</time><name>PT670</name></trkpt>
<trkpt lat="53.090045" lon="-1.646483"><ele>322</ele><time>2020-10-28T09:46:28Z</time><name>PT671</name></trkpt>
<trkpt lat="53.090052" lon="-1.646484"><ele>322</ele><time>2020-10-28T09:46:29Z</time><name>PT672</name></trkpt>
<trkpt lat="53.090063" lon="-1.646483"><ele>322</ele><time>2020-10-28T09:46:29Z</time><name>PT673</name></trkpt>
<trkpt lat="53.090078" lon="-1.646474"><ele>322</ele><time>2020-10-28T09:46:31Z</time><name>PT674</name></trkpt>
<trkpt lat="53.090089" lon="-1.646467"><ele>322</ele><time>2020-10-28T09:46:32Z</time><name>PT675</name></trkpt>
<trkpt lat="53.090098" lon="-1.646465"><ele>323</ele><time>2020-10-28T09:46:32Z</time><name>PT676</name></trkpt>
<trkpt lat="53.090106" lon="-1.646466"><ele>323</ele><time>2020-10-28T09:46:34Z</time><name>PT677</name></trkpt>
<trkpt lat="53.090117" lon="-1.646456"><ele>323</ele><time>2020-10-28T09:46:35Z</time><name>PT678</name></trkpt>
<trkpt lat="53.090125" lon="-1.646451"><ele>322</ele><time>2020-10-28T09:46:35Z</time><name>PT679</name></trkpt>
<trkpt lat="53.090127" lon="-1.646437"><ele>324</ele><time>2020-10-28T09:46:37Z</time><name>PT680</name></trkpt>
<trkpt lat="53.090128" lon="-1.646422"><ele>324</ele><time>2020-10-28T09:46:38Z</time><name>PT681</name></trkpt>
<trkpt lat="53.090128" lon="-1.646407"><ele>324</ele><time>2020-10-28T09:46:38Z</time><name>PT682</name></trkpt>
<trkpt lat="53.090128" lon="-1.646389"><ele>325</ele><time>2020-10-28T09:46:40Z</time><name>PT683</name></trkpt>
<trkpt lat="53.090127" lon="-1.646370"><ele>325</ele><time>2020-10-28T09:46:41Z</time><name>PT684</name></trkpt>
<trkpt lat="53.090127" lon="-1.646354"><ele>325</ele><time>2020-10-28T09:46:41Z</time><name>PT685</name></trkpt>
<trkpt lat="53.090126" lon="-1.646337"><ele>325</ele><time>2020-10-28T09:46:43Z</time><name>PT686</name></trkpt>
<trkpt lat="53.090124" lon="-1.646321"><ele>325</ele><time>2020-10-28T09:46:44Z</time><name>PT687</name></trkpt>
<trkpt lat="53.090122" lon="-1.646302"><ele>325</ele><time>2020-10-28T09:46:44Z</time><name>PT688</name></trkpt>
<trkpt lat="53.090121" lon="-1.646282"><ele>325</ele><time>2020-10-28T09:46:46Z</time><name>PT689</name></trkpt>
<trkpt lat="53.090120" lon="-1.646262"><ele>325</ele><time>2020-10-28T09:46:47Z</time><name>PT690</name></trkpt>
<trkpt lat="53.090122" lon="-1.646245"><ele>325</ele><time>2020-10-28T09:46:47Z</time><name>PT691</name></trkpt>
<trkpt lat="53.090122" lon="-1.646227"><ele>325</ele><time>2020-10-28T09:46:49Z</time><name>PT692</name></trkpt>
<trkpt lat="53.090121" lon="-1.646208"><ele>325</ele><time>2020-10-28T09:46:50Z</time><name>PT693</name></trkpt>
<trkpt lat="53.090121" lon="-1.646187"><ele>325</ele><time>2020-10-28T09:46:50Z</time><name>PT694</name></trkpt>
<trkpt lat="53.090119" lon="-1.646168"><ele>324</ele><time>2020-10-28T09:46:52Z</time><name>PT695</name></trkpt>
<trkpt lat="53.090118" lon="-1.646152"><ele>324</ele><time>2020-10-28T09:46:53Z</time><name>PT696</name></trkpt>
<trkpt lat="53.090113" lon="-1.646137"><ele>324</ele><time>2020-10-28T09:46:53Z</time><name>PT697</name></trkpt>
<trkpt lat="53.090110" lon="-1.646120"><ele>324</ele><time>2020-10-28T09:46:55Z</time><name>PT698</name></trkpt>
<trkpt lat="53.090109" lon="-1.646106"><ele>324</ele><time>2020-10-28T09:46:56Z</time><name>PT699</name></trkpt>
<trkpt lat="53.090107" lon="-1.646091"><ele>324</ele><time>2020-10-28T09:46:56Z</time><name>PT700</name></trkpt>
<trkpt lat="53.090104" lon="-1.646020"><ele>323</ele><time>2020-10-28T09:47:01Z</time><name>PT701</name></trkpt>
<trkpt lat="53.090096" lon="-1.645958"><ele>323</ele><time>2020-10-28T09:47:04Z</time><name>PT702</name></trkpt>
<trkpt lat="53.090091" lon="-1.645899"><ele>324</ele><time>2020-10-28T09:47:07Z</time><name>PT703</name></trkpt>
<trkpt lat="53.090083" lon="-1.645830"><ele>324</ele><time>2020-10-28T09:47:11Z</time><name>PT704</name></trkpt>
<trkpt lat="53.090079" lon="-1.645814"><ele>324</ele><time>2020-10-28T09:47:11Z</time><name>PT705</name></trkpt>
<trkpt lat="53.090077" lon="-1.645796"><ele>324</ele><time>2020-10-28T09:47:13Z</time><name>PT706</name></trkpt>
<trkpt lat="53.090074" lon="-1.645778"><ele>324</ele><time>2020-10-28T09:47:14Z</time><name>PT707</name></trkpt>
<trkpt lat="53.090076" lon="-1.645764"><ele>323</ele><time>2020-10-28T09:47:14Z</time><name>PT708</name></trkpt>
<trkpt lat="53.090073" lon="-1.645749"><ele>324</ele><time>2020-10-28T09:47:16Z</time><name>PT709</name></trkpt>
<trkpt lat="53.090071" lon="-1.645736"><ele>324</ele><time>2020-10-28T09:47:17Z</time><name>PT710</name></trkpt>
<trkpt lat="53.090067" lon="-1.645719"><ele>324</ele><time>2020-10-28T09:47:17Z</time><name>PT711</name></trkpt>
<trkpt lat="53.090059" lon="-1.645701"><ele>323</ele><time>2020-10-28T09:47:19Z</time><name>PT712</name></trkpt>
<trkpt lat="53.090056" lon="-1.645682"><ele>323</ele><time>2020-10-28T09:47:20Z</time><name>PT713</name></trkpt>
<trkpt lat="53.090054" lon="-1.645663"><ele>322</ele><time>2020-10-28T09:47:20Z</time><name>PT714</name></trkpt>
<trkpt lat="53.090055" lon="-1.645651"><ele>323</ele><time>2020-10-28T09:47:22Z</time><name>PT715</name></trkpt>
<trkpt lat="53.090052" lon="-1.645643"><ele>323</ele><time>2020-10-28T09:47:23Z</time><name>PT716</name></trkpt>
<trkpt lat="53.090045" lon="-1.645627"><ele>322</ele><time>2020-10-28T09:47:23Z</time><name>PT717</name></trkpt>
<trkpt lat="53.090040" lon="-1.645615"><ele>323</ele><time>2020-10-28T09:47:25Z</time><name>PT718</name></trkpt>
<trkpt lat="53.090041" lon="-1.645600"><ele>323</ele><time>2020-10-28T09:47:26Z</time><name>PT719</name></trkpt>
<trkpt lat="53.090038" lon="-1.645582"><ele>323</ele><time>2020-10-28T09:47:26Z</time><name>PT720</name></trkpt>
<trkpt lat="53.090038" lon="-1.645566"><ele>322</ele><time>2020-10-28T09:47:28Z</time><name>PT721</name></trkpt>
<trkpt lat="53.090036" lon="-1.645551"><ele>322</ele><time>2020-10-28T09:47:29Z</time><name>PT722</name></trkpt>
<trkpt lat="53.090033" lon="-1.645536"><ele>322</ele><time>2020-10-28T09:47:29Z</time><name>PT723</name></trkpt>
<trkpt lat="53.090032" lon="-1.645514"><ele>322</ele><time>2020-10-28T09:47:31Z</time><name>PT724</name></trkpt>
<trkpt lat="53.090033" lon="-1.645486"><ele>322</ele><time>2020-10-28T09:47:32Z</time><name>PT725</name></trkpt>
<trkpt lat="53.090035" lon="-1.645460"><ele>322</ele><time>2020-10-28T09:47:32Z</time><name>PT726</name></trkpt>
<trkpt lat="53.090035" lon="-1.645434"><ele>322</ele><time>2020-10-28T09:47:34Z</time><name>PT727</name></trkpt>
<trkpt lat="53.090035" lon="-1.645420"><ele>322</ele><time>2020-10-28T09:47:35Z</time><name>PT728</name></trkpt>
<trkpt lat="53.090035" lon="-1.645404"><ele>322</ele><time>2020-10-28T09:47:35Z</time><name>PT729</name></trkpt>
<trkpt lat="53.090036" lon="-1.645385"><ele>321</ele><time>2020-10-28T09:47:37Z</time><name>PT730</name></trkpt>
<trkpt lat="53.090036" lon="-1.645355"><ele>322</ele><time>2020-10-28T09:47:38Z</time><name>PT731</name></trkpt>
<trkpt lat="53.090035" lon="-1.645335"><ele>322</ele><time>2020-10-28T09:47:38Z</time><name>PT732</name></trkpt>
<trkpt lat="53.090035" lon="-1.645318"><ele>322</ele><time>2020-10-28T09:47:40Z</time><name>PT733</name></trkpt>
<trkpt lat="53.090037" lon="-1.645302"><ele>322</ele><time>2020-10-28T09:47:41Z</time><name>PT734</name></trkpt>
<trkpt lat="53.090036" lon="-1.645283"><ele>322</ele><time>2020-10-28T09:47:41Z</time><name>PT735</name></trkpt>
<trkpt lat="53.090037" lon="-1.645266"><ele>321</ele><time>2020-10-28T09:47:43Z</time><name>PT736</name></trkpt>
<trkpt lat="53.090037" lon="-1.645254"><ele>321</ele><time>2020-10-28T09:47:44Z</time><name>PT737</name></trkpt>
<trkpt lat="53.090038" lon="-1.645240"><ele>321</ele><time>2020-10-28T09:47:44Z</time><name>PT738</name></trkpt>
<trkpt lat="53.090041" lon="-1.645228"><ele>321</ele><time>2020-10-28T09:47:46Z</time><name>PT739</name></trkpt>
<trkpt lat="53.090046" lon="-1.645210"><ele>321</ele><time>2020-10-28T09:47:47Z</time><name>PT740</name></trkpt>
<trkpt lat="53.090050" lon="-1.645197"><ele>321</ele><time>2020-10-28T09:47:48Z</time><name>PT741</name></trkpt>
<trkpt lat="53.090056" lon="-1.645187"><ele>321</ele><time>2020-10-28T09:47:49Z</time><name>PT742</name></trkpt>
<trkpt lat="53.090063" lon="-1.645179"><ele>321</ele><time>2020-10-28T09:47:50Z</time><name>PT743</name></trkpt>
<trkpt lat="53.090069" lon="-1.645169"><ele>320</ele><time>2020-10-28T09:47:50Z</time><name>PT744</name></trkpt>
<trkpt lat="53.090073" lon="-1.645163"><ele>320</ele><time>2020-10-28T09:47:52Z</time><name>PT745</name></trkpt>
<trkpt lat="53.090076" lon="-1.645155"><ele>320</ele><time>2020-10-28T09:47:53Z</time><name>PT746</name></trkpt>
<trkpt lat="53.090079" lon="-1.645143"><ele>320</ele><time>2020-10-28T09:47:53Z</time><name>PT747</name></trkpt>
<trkpt lat="53.090082" lon="-1.645136"><ele>320</ele><time>2020-10-28T09:47:55Z</time><name>PT748</name></trkpt>
<trkpt lat="53.090086" lon="-1.645128"><ele>320</ele><time>2020-10-28T09:47:56Z</time><name>PT749</name></trkpt>
<trkpt lat="53.090090" lon="-1.645118"><ele>320</ele><time>2020-10-28T09:47:56Z</time><name>PT750</name></trkpt>
<trkpt lat="53.090094" lon="-1.645108"><ele>320</ele><time>2020-10-28T09:47:58Z</time><name>PT751</name></trkpt>
<trkpt lat="53.090100" lon="-1.645105"><ele>320</ele><time>2020-10-28T09:47:59Z</time><name>PT752</name></trkpt>
<trkpt lat="53.090104" lon="-1.645102"><ele>320</ele><time>2020-10-28T09:47:59Z</time><name>PT753</name></trkpt>
<trkpt lat="53.090111" lon="-1.645094"><ele>320</ele><time>2020-10-28T09:48:01Z</time><name>PT754</name></trkpt>
<trkpt lat="53.090118" lon="-1.645086"><ele>320</ele><time>2020-10-28T09:48:02Z</time><name>PT755</name></trkpt>
<trkpt lat="53.090124" lon="-1.645080"><ele>320</ele><time>2020-10-28T09:48:03Z</time><name>PT756</name></trkpt>
<trkpt lat="53.090132" lon="-1.645055"><ele>320</ele><time>2020-10-28T09:48:04Z</time><name>PT757</name></trkpt>
<trkpt lat="53.090139" lon="-1.645049"><ele>320</ele><time>2020-10-28T09:48:05Z</time><name>PT758</name></trkpt>
<trkpt lat="53.090147" lon="-1.645042"><ele>320</ele><time>2020-10-28T09:48:05Z</time><name>PT759</name></trkpt>
<trkpt lat="53.090153" lon="-1.645034"><ele>320</ele><time>2020-10-28T09:48:07Z</time><name>PT760</name></trkpt>
<trkpt lat="53.090160" lon="-1.645026"><ele>320</ele><time>2020-10-28T09:48:08Z</time><name>PT761</name></trkpt>
<trkpt lat="53.090168" lon="-1.645019"><ele>320</ele><time>2020-10-28T09:48:08Z</time><name>PT762</name></trkpt>
<trkpt lat="53.090173" lon="-1.645014"><ele>320</ele><time>2020-10-28T09:48:10Z</time><name>PT763</name></trkpt>
<trkpt lat="53.090180" lon="-1.645005"><ele>321</ele><time>2020-10-28T09:48:11Z</time><name>PT764</name></trkpt>
<trkpt lat="53.090188" lon="-1.644997"><ele>321</ele><time>2020-10-28T09:48:11Z</time><name>PT765</name></trkpt>
<trkpt lat="53.090195" lon="-1.644991"><ele>321</ele><time>2020-10-28T09:48:13Z</time><name>PT766</name></trkpt>
<trkpt lat="53.090202" lon="-1.644981"><ele>321</ele><time>2020-10-28T09:48:14Z</time><name>PT767</name></trkpt>
<trkpt lat="53.090210" lon="-1.644973"><ele>321</ele><time>2020-10-28T09:48:14Z</time><name>PT768</name></trkpt>
<trkpt lat="53.090216" lon="-1.644966"><ele>321</ele><time>2020-10-28T09:48:16Z</time><name>PT769</name></trkpt>
<trkpt lat="53.090222" lon="-1.644965"><ele>322</ele><time>2020-10-28T09:48:17Z</time><name>PT770</name></trkpt>
<trkpt lat="53.090230" lon="-1.644956"><ele>322</ele><time>2020-10-28T09:48:18Z</time><name>PT771</name></trkpt>
<trkpt lat="53.090239" lon="-1.644949"><ele>322</ele><time>2020-10-28T09:48:19Z</time><name>PT772</name></trkpt>
<trkpt lat="53.090247" lon="-1.644945"><ele>322</ele><time>2020-10-28T09:48:20Z</time><name>PT773</name></trkpt>
<trkpt lat="53.090255" lon="-1.644938"><ele>322</ele><time>2020-10-28T09:48:21Z</time><name>PT774</name></trkpt>
<trkpt lat="53.090264" lon="-1.644932"><ele>322</ele><time>2020-10-28T09:48:22Z</time><name>PT775</name></trkpt>
<trkpt lat="53.090274" lon="-1.644923"><ele>323</ele><time>2020-10-28T09:48:23Z</time><name>PT776</name></trkpt>
<trkpt lat="53.090281" lon="-1.644915"><ele>323</ele><time>2020-10-28T09:48:23Z</time><name>PT777</name></trkpt>
<trkpt lat="53.090290" lon="-1.644904"><ele>323</ele><time>2020-10-28T09:48:25Z</time><name>PT778</name></trkpt>
<trkpt lat="53.090298" lon="-1.644896"><ele>323</ele><time>2020-10-28T09:48:26Z</time><name>PT779</name></trkpt>
<trkpt lat="53.090307" lon="-1.644887"><ele>323</ele><time>2020-10-28T09:48:26Z</time><name>PT780</name></trkpt>
<trkpt lat="53.090315" lon="-1.644880"><ele>323</ele><time>2020-10-28T09:48:28Z</time><name>PT781</name></trkpt>
<trkpt lat="53.090326" lon="-1.644871"><ele>324</ele><time>2020-10-28T09:48:29Z</time><name>PT782</name></trkpt>
<trkpt lat="53.090336" lon="-1.644864"><ele>324</ele><time>2020-10-28T09:48:29Z</time><name>PT783</name></trkpt>
<trkpt lat="53.090346" lon="-1.644858"><ele>324</ele><time>2020-10-28T09:48:31Z</time><name>PT784</name></trkpt>
<trkpt lat="53.090356" lon="-1.644853"><ele>325</ele><time>2020-10-28T09:48:32Z</time><name>PT785</name></trkpt>
<trkpt lat="53.090365" lon="-1.644847"><ele>325</ele><time>2020-10-28T09:48:33Z</time><name>PT786</name></trkpt>
<trkpt lat="53.090374" lon="-1.644838"><ele>325</ele><time>2020-10-28T09:48:34Z</time><name>PT787</name></trkpt>
<trkpt lat="53.090383" lon="-1.644828"><ele>325</ele><time>2020-10-28T09:48:35Z</time><name>PT788</name></trkpt>
<trkpt lat="53.090393" lon="-1.644816"><ele>325</ele><time>2020-10-28T09:48:36Z</time><name>PT789</name></trkpt>
<trkpt lat="53.090398" lon="-1.644807"><ele>325</ele><time>2020-10-28T09:48:37Z</time><name>PT790</name></trkpt>
<trkpt lat="53.090406" lon="-1.644797"><ele>325</ele><time>2020-10-28T09:48:38Z</time><name>PT791</name></trkpt>
<trkpt lat="53.090415" lon="-1.644788"><ele>325</ele><time>2020-10-28T09:48:38Z</time><name>PT792</name></trkpt>
<trkpt lat="53.090427" lon="-1.644787"><ele>326</ele><time>2020-10-28T09:48:40Z</time><name>PT793</name></trkpt>
<trkpt lat="53.090437" lon="-1.644777"><ele>327</ele><time>2020-10-28T09:48:41Z</time><name>PT794</name></trkpt>
<trkpt lat="53.090443" lon="-1.644754"><ele>327</ele><time>2020-10-28T09:48:41Z</time><name>PT795</name></trkpt>
<trkpt lat="53.090451" lon="-1.644739"><ele>328</ele><time>2020-10-28T09:48:43Z</time><name>PT796</name></trkpt>
<trkpt lat="53.090460" lon="-1.644730"><ele>328</ele><time>2020-10-28T09:48:44Z</time><name>PT797</name></trkpt>
<trkpt lat="53.090468" lon="-1.644727"><ele>328</ele><time>2020-10-28T09:48:44Z</time><name>PT798</name></trkpt>
<trkpt lat="53.090476" lon="-1.644718"><ele>329</ele><time>2020-10-28T09:48:46Z</time><name>PT799</name></trkpt>
<trkpt lat="53.090484" lon="-1.644709"><ele>329</ele><time>2020-10-28T09:48:47Z</time><name>PT800</name></trkpt>
<trkpt lat="53.090492" lon="-1.644702"><ele>329</ele><time>2020-10-28T09:48:47Z</time><name>PT801</name></trkpt>
<trkpt lat="53.090500" lon="-1.644696"><ele>329</ele><time>2020-10-28T09:48:49Z</time><name>PT802</name></trkpt>
<trkpt lat="53.090511" lon="-1.644692"><ele>329</ele><time>2020-10-28T09:48:50Z</time><name>PT803</name></trkpt>
<trkpt lat="53.090522" lon="-1.644686"><ele>329</ele><time>2020-10-28T09:48:50Z</time><name>PT804</name></trkpt>
<trkpt lat="53.090532" lon="-1.644680"><ele>329</ele><time>2020-10-28T09:48:52Z</time><name>PT805</name></trkpt>
<trkpt lat="53.090541" lon="-1.644675"><ele>330</ele><time>2020-10-28T09:48:53Z</time><name>PT806</name></trkpt>
<trkpt lat="53.090553" lon="-1.644669"><ele>329</ele><time>2020-10-28T09:48:53Z</time><name>PT807</name></trkpt>
<trkpt lat="53.090562" lon="-1.644666"><ele>330</ele><time>2020-10-28T09:48:55Z</time><name>PT808</name></trkpt>
<trkpt lat="53.090573" lon="-1.644666"><ele>330</ele><time>2020-10-28T09:48:56Z</time><name>PT809</name></trkpt>
<trkpt lat="53.090582" lon="-1.644662"><ele>330</ele><time>2020-10-28T09:48:56Z</time><name>PT810</name></trkpt>
<trkpt lat="53.090592" lon="-1.644656"><ele>330</ele><time>2020-10-28T09:48:58Z</time><name>PT811</name></trkpt>
<trkpt lat="53.090602" lon="-1.644651"><ele>330</ele><time>2020-10-28T09:48:59Z</time><name>PT812</name></trkpt>
<trkpt lat="53.090612" lon="-1.644646"><ele>330</ele><time>2020-10-28T09:48:59Z</time><name>PT813</name></trkpt>
<trkpt lat="53.090621" lon="-1.644636"><ele>330</ele><time>2020-10-28T09:49:01Z</time><name>PT814</name></trkpt>
<trkpt lat="53.090631" lon="-1.644625"><ele>330</ele><time>2020-10-28T09:49:02Z</time><name>PT815</name></trkpt>
<trkpt lat="53.090640" lon="-1.644616"><ele>330</ele><time>2020-10-28T09:49:02Z</time><name>PT816</name></trkpt>
<trkpt lat="53.090650" lon="-1.644608"><ele>330</ele><time>2020-10-28T09:49:04Z</time><name>PT817</name></trkpt>
<trkpt lat="53.090662" lon="-1.644609"><ele>330</ele><time>2020-10-28T09:49:05Z</time><name>PT818</name></trkpt>
<trkpt lat="53.090674" lon="-1.644604"><ele>330</ele><time>2020-10-28T09:49:06Z</time><name>PT819</name></trkpt>
<trkpt lat="53.090684" lon="-1.644595"><ele>330</ele><time>2020-10-28T09:49:07Z</time><name>PT820</name></trkpt>
<trkpt lat="53.090696" lon="-1.644601"><ele>330</ele><time>2020-10-28T09:49:08Z</time><name>PT821</name></trkpt>
<trkpt lat="53.090707" lon="-1.644600"><ele>330</ele><time>2020-10-28T09:49:09Z</time><name>PT822</name></trkpt>
<trkpt lat="53.090718" lon="-1.644591"><ele>330</ele><time>2020-10-28T09:49:10Z</time><name>PT823</name></trkpt>
<trkpt lat="53.090729" lon="-1.644579"><ele>330</ele><time>2020-10-28T09:49:11Z</time><name>PT824</name></trkpt>
<trkpt lat="53.090740" lon="-1.644570"><ele>330</ele><time>2020-10-28T09:49:11Z</time><name>PT825</name></trkpt>
<trkpt lat="53.090752" lon="-1.644561"><ele>330</ele><time>2020-10-28T09:49:13Z</time><name>PT826</name></trkpt>
<trkpt lat="53.090762" lon="-1.644554"><ele>331</ele><time>2020-10-28T09:49:14Z</time><name>PT827</name></trkpt>
<trkpt lat="53.090772" lon="-1.644545"><ele>331</ele><time>2020-10-28T09:49:15Z</time><name>PT828</name></trkpt>
<trkpt lat="53.090782" lon="-1.644538"><ele>331</ele><time>2020-10-28T09:49:16Z</time><name>PT829</name></trkpt>
<trkpt lat="53.090792" lon="-1.644533"><ele>331</ele><time>2020-10-28T09:49:17Z</time><name>PT830</name></trkpt>
<trkpt lat="53.090803" lon="-1.644529"><ele>331</ele><time>2020-10-28T09:49:17Z</time><name>PT831</name></trkpt>
<trkpt lat="53.090815" lon="-1.644523"><ele>331</ele><time>2020-10-28T09:49:19Z</time><name>PT832</name></trkpt>
<trkpt lat="53.090826" lon="-1.644515"><ele>332</ele><time>2020-10-28T09:49:20Z</time><name>PT833</name></trkpt>
<trkpt lat="53.090837" lon="-1.644508"><ele>332</ele><time>2020-10-28T09:49:20Z</time><name>PT834</name></trkpt>
<trkpt lat="53.090849" lon="-1.644502"><ele>332</ele><time>2020-10-28T09:49:22Z</time><name>PT835</name></trkpt>
<trkpt lat="53.090862" lon="-1.644498"><ele>332</ele><time>2020-10-28T09:49:23Z</time><name>PT836</name></trkpt>
<trkpt lat="53.090872" lon="-1.644495"><ele>332</ele><time>2020-10-28T09:49:23Z</time><name>PT837</name></trkpt>
<trkpt lat="53.090882" lon="-1.644493"><ele>332</ele><time>2020-10-28T09:49:25Z</time><name>PT838</name></trkpt>
<trkpt lat="53.090894" lon="-1.644488"><ele>332</ele><time>2020-10-28T09:49:26Z</time><name>PT839</name></trkpt>
<trkpt lat="53.090905" lon="-1.644488"><ele>332</ele><time>2020-10-28T09:49:26Z</time><name>PT840</name></trkpt>
<trkpt lat="53.090918" lon="-1.644497"><ele>332</ele><time>2020-10-28T09:49:28Z</time><name>PT841</name></trkpt>
<trkpt lat="53.090931" lon="-1.644498"><ele>332</ele><time>2020-10-28T09:49:29Z</time><name>PT842</name></trkpt>
<trkpt lat="53.090942" lon="-1.644497"><ele>332</ele><time>2020-10-28T09:49:29Z</time><name>PT843</name></trkpt>
<trkpt lat="53.090954" lon="-1.644497"><ele>332</ele><time>2020-10-28T09:49:31Z</time><name>PT844</name></trkpt>
<trkpt lat="53.090964" lon="-1.644506"><ele>332</ele><time>2020-10-28T09:49:32Z</time><name>PT845</name></trkpt>
<trkpt lat="53.090976" lon="-1.644499"><ele>332</ele><time>2020-10-28T09:49:32Z</time><name>PT846</name></trkpt>
<trkpt lat="53.090988" lon="-1.644496"><ele>332</ele><time>2020-10-28T09:49:34Z</time><name>PT847</name></trkpt>
<trkpt lat="53.091001" lon="-1.644497"><ele>332</ele><time>2020-10-28T09:49:35Z</time><name>PT848</name></trkpt>
<trkpt lat="53.091011" lon="-1.644501"><ele>332</ele><time>2020-10-28T09:49:35Z</time><name>PT849</name></trkpt>
<trkpt lat="53.091022" lon="-1.644500"><ele>332</ele><time>2020-10-28T09:49:37Z</time><name>PT850</name></trkpt>
<trkpt lat="53.091034" lon="-1.644496"><ele>332</ele><time>2020-10-28T09:49:38Z</time><name>PT851</name></trkpt>
<trkpt lat="53.091047" lon="-1.644494"><ele>332</ele><time>2020-10-28T09:49:38Z</time><name>PT852</name></trkpt>
<trkpt lat="53.091058" lon="-1.644495"><ele>332</ele><time>2020-10-28T09:49:40Z</time><name>PT853</name></trkpt>
<trkpt lat="53.091071" lon="-1.644492"><ele>331</ele><time>2020-10-28T09:49:41Z</time><name>PT854</name></trkpt>
<trkpt lat="53.091082" lon="-1.644494"><ele>331</ele><time>2020-10-28T09:49:41Z</time><name>PT855</name></trkpt>
<trkpt lat="53.091093" lon="-1.644483"><ele>331</ele><time>2020-10-28T09:49:43Z</time><name>PT856</name></trkpt>
<trkpt lat="53.091100" lon="-1.644477"><ele>331</ele><time>2020-10-28T09:49:44Z</time><name>PT857</name></trkpt>
<trkpt lat="53.091110" lon="-1.644470"><ele>331</ele><time>2020-10-28T09:49:44Z</time><name>PT858</name></trkpt>
<trkpt lat="53.091124" lon="-1.644466"><ele>331</ele><time>2020-10-28T09:49:46Z</time><name>PT859</name></trkpt>
<trkpt lat="53.091135" lon="-1.644460"><ele>331</ele><time>2020-10-28T09:49:47Z</time><name>PT860</name></trkpt>
<trkpt lat="53.091145" lon="-1.644453"><ele>331</ele><time>2020-10-28T09:49:47Z</time><name>PT861</name></trkpt>
<trkpt lat="53.091156" lon="-1.644445"><ele>331</ele><time>2020-10-28T09:49:49Z</time><name>PT862</name></trkpt>
<trkpt lat="53.091168" lon="-1.644438"><ele>330</ele><time>2020-10-28T09:49:50Z</time><name>PT863</name></trkpt>
<trkpt lat="53.091180" lon="-1.644435"><ele>330</ele><time>2020-10-28T09:49:50Z</time><name>PT864</name></trkpt>
<trkpt lat="53.091191" lon="-1.644431"><ele>330</ele><time>2020-10-28T09:49:52Z</time><name>PT865</name></trkpt>
<trkpt lat="53.091203" lon="-1.644428"><ele>330</ele><time>2020-10-28T09:49:53Z</time><name>PT866</name></trkpt>
<trkpt lat="53.091215" lon="-1.644426"><ele>330</ele><time>2020-10-28T09:49:53Z</time><name>PT867</name></trkpt>
<trkpt lat="53.091227" lon="-1.644426"><ele>330</ele><time>2020-10-28T09:49:55Z</time><name>PT868</name></trkpt>
<trkpt lat="53.091239" lon="-1.644426"><ele>330</ele><time>2020-10-28T09:49:56Z</time><name>PT869</name></trkpt>
<trkpt lat="53.091251" lon="-1.644426"><ele>330</ele><time>2020-10-28T09:49:56Z</time><name>PT870</name></trkpt>
<trkpt lat="53.091264" lon="-1.644427"><ele>330</ele><time>2020-10-28T09:49:58Z</time><name>PT871</name></trkpt>
<trkpt lat="53.091276" lon="-1.644427"><ele>330</ele><time>2020-10-28T09:49:59Z</time><name>PT872</name></trkpt>
<trkpt lat="53.091287" lon="-1.644425"><ele>330</ele><time>2020-10-28T09:49:59Z</time><name>PT873</name></trkpt>
<trkpt lat="53.091298" lon="-1.644425"><ele>329</ele><time>2020-10-28T09:50:01Z</time><name>PT874</name></trkpt>
<trkpt lat="53.091310" lon="-1.644425"><ele>329</ele><time>2020-10-28T09:50:02Z</time><name>PT875</name></trkpt>
<trkpt lat="53.091322" lon="-1.644425"><ele>329</ele><time>2020-10-28T09:50:02Z</time><name>PT876</name></trkpt>
<trkpt lat="53.091333" lon="-1.644423"><ele>329</ele><time>2020-10-28T09:50:04Z</time><name>PT877</name></trkpt>
<trkpt lat="53.091342" lon="-1.644422"><ele>329</ele><time>2020-10-28T09:50:05Z</time><name>PT878</name></trkpt>
<trkpt lat="53.091353" lon="-1.644418"><ele>329</ele><time>2020-10-28T09:50:05Z</time><name>PT879</name></trkpt>
<trkpt lat="53.091367" lon="-1.644423"><ele>329</ele><time>2020-10-28T09:50:07Z</time><name>PT880</name></trkpt>
<trkpt lat="53.091380" lon="-1.644422"><ele>328</ele><time>2020-10-28T09:50:08Z</time><name>PT881</name></trkpt>
<trkpt lat="53.091391" lon="-1.644418"><ele>328</ele><time>2020-10-28T09:50:08Z</time><name>PT882</name></trkpt>
<trkpt lat="53.091402" lon="-1.644411"><ele>328</ele><time>2020-10-28T09:50:10Z</time><name>PT883</name></trkpt>
<trkpt lat="53.091413" lon="-1.644402"><ele>328</ele><time>2020-10-28T09:50:11Z</time><name>PT884</name></trkpt>
<trkpt lat="53.091424" lon="-1.644395"><ele>328</ele><time>2020-10-28T09:50:11Z</time><name>PT885</name></trkpt>
<trkpt lat="53.091465" lon="-1.644386"><ele>328</ele><time>2020-10-28T09:50:16Z</time><name>PT886</name></trkpt>
<trkpt lat="53.091485" lon="-1.644376"><ele>328</ele><time>2020-10-28T09:50:17Z</time><name>PT887</name></trkpt>
<trkpt lat="53.091495" lon="-1.644369"><ele>328</ele><time>2020-10-28T09:50:19Z</time><name>PT888</name></trkpt>
<trkpt lat="53.091503" lon="-1.644365"><ele>328</ele><time>2020-10-28T09:50:20Z</time><name>PT889</name></trkpt>
<trkpt lat="53.091511" lon="-1.644360"><ele>328</ele><time>2020-10-28T09:50:20Z</time><name>PT890</name></trkpt>
<trkpt lat="53.091515" lon="-1.644357"><ele>329</ele><time>2020-10-28T09:50:22Z</time><name>PT891</name></trkpt>
<trkpt lat="53.091520" lon="-1.644357"><ele>329</ele><time>2020-10-28T09:50:23Z</time><name>PT892</name></trkpt>
<trkpt lat="53.091523" lon="-1.644346"><ele>329</ele><time>2020-10-28T09:50:23Z</time><name>PT893</name></trkpt>
<trkpt lat="53.091522" lon="-1.644334"><ele>329</ele><time>2020-10-28T09:50:25Z</time><name>PT894</name></trkpt>
<trkpt lat="53.091519" lon="-1.644321"><ele>329</ele><time>2020-10-28T09:50:26Z</time><name>PT895</name></trkpt>
<trkpt lat="53.091515" lon="-1.644308"><ele>329</ele><time>2020-10-28T09:50:26Z</time><name>PT896</name></trkpt>
<trkpt lat="53.091513" lon="-1.644293"><ele>329</ele><time>2020-10-28T09:50:28Z</time><name>PT897</name></trkpt>
<trkpt lat="53.091512" lon="-1.644284"><ele>329</ele><time>2020-10-28T09:50:29Z</time><name>PT898</name></trkpt>
<trkpt lat="53.091506" lon="-1.644273"><ele>329</ele><time>2020-10-28T09:50:30Z</time><name>PT899</name></trkpt>
<trkpt lat="53.091503" lon="-1.644258"><ele>329</ele><time>2020-10-28T09:50:31Z</time><name>PT900</name></trkpt>
<trkpt lat="53.091499" lon="-1.644242"><ele>329</ele><time>2020-10-28T09:50:32Z</time><name>PT901</name></trkpt>
<trkpt lat="53.091496" lon="-1.644228"><ele>328</ele><time>2020-10-28T09:50:32Z</time><name>PT902</name></trkpt>
<trkpt lat="53.091491" lon="-1.644209"><ele>328</ele><time>2020-10-28T09:50:34Z</time><name>PT903</name></trkpt>
<trkpt lat="53.091488" lon="-1.644189"><ele>328</ele><time>2020-10-28T09:50:35Z</time><name>PT904</name></trkpt>
<trkpt lat="53.091482" lon="-1.644169"><ele>329</ele><time>2020-10-28T09:50:35Z</time><name>PT905</name></trkpt>
<trkpt lat="53.091476" lon="-1.644151"><ele>328</ele><time>2020-10-28T09:50:37Z</time><name>PT906</name></trkpt>
<trkpt lat="53.091467" lon="-1.644137"><ele>328</ele><time>2020-10-28T09:50:38Z</time><name>PT907</name></trkpt>
<trkpt lat="53.091461" lon="-1.644119"><ele>328</ele><time>2020-10-28T09:50:39Z</time><name>PT908</name></trkpt>
<trkpt lat="53.091456" lon="-1.644099"><ele>328</ele><time>2020-10-28T09:50:40Z</time><name>PT909</name></trkpt>
<trkpt lat="53.091454" lon="-1.644082"><ele>327</ele><time>2020-10-28T09:50:41Z</time><name>PT910</name></trkpt>
<trkpt lat="53.091449" lon="-1.644060"><ele>327</ele><time>2020-10-28T09:50:42Z</time><name>PT911</name></trkpt>
<trkpt lat="53.091445" lon="-1.644038"><ele>327</ele><time>2020-10-28T09:50:43Z</time><name>PT912</name></trkpt>
<trkpt lat="53.091441" lon="-1.644019"><ele>327</ele><time>2020-10-28T09:50:44Z</time><name>PT913</name></trkpt>
<trkpt lat="53.091438" lon="-1.644000"><ele>328</ele><time>2020-10-28T09:50:45Z</time><name>PT914</name></trkpt>
<trkpt lat="53.091432" lon="-1.643981"><ele>328</ele><time>2020-10-28T09:50:46Z</time><name>PT915</name></trkpt>
<trkpt lat="53.091425" lon="-1.643962"><ele>328</ele><time>2020-10-28T09:50:47Z</time><name>PT916</name></trkpt>
<trkpt lat="53.091420" lon="-1.643944"><ele>328</ele><time>2020-10-28T09:50:47Z</time><name>PT917</name></trkpt>
<trkpt lat="53.091418" lon="-1.643927"><ele>327</ele><time>2020-10-28T09:50:49Z</time><name>PT918</name></trkpt>
<trkpt lat="53.091414" lon="-1.643911"><ele>328</ele><time>2020-10-28T09:50:50Z</time><name>PT919</name></trkpt>
<trkpt lat="53.091410" lon="-1.643895"><ele>327</ele><time>2020-10-28T09:50:50Z</time><name>PT920</name></trkpt>
<trkpt lat="53.091405" lon="-1.643875"><ele>327</ele><time>2020-10-28T09:50:52Z</time><name>PT921</name></trkpt>
<trkpt lat="53.091400" lon="-1.643858"><ele>328</ele><time>2020-10-28T09:50:53Z</time><name>PT922</name></trkpt>
<trkpt lat="53.091394" lon="-1.643838"><ele>327</ele><time>2020-10-28T09:50:53Z</time><name>PT923</name></trkpt>
<trkpt lat="53.091389" lon="-1.643818"><ele>327</ele><time>2020-10-28T09:50:55Z</time><name>PT924</name></trkpt>
<trkpt lat="53.091386" lon="-1.643802"><ele>327</ele><time>2020-10-28T09:50:56Z</time><name>PT925</name></trkpt>
<trkpt lat="53.091381" lon="-1.643785"><ele>327</ele><time>2020-10-28T09:50:56Z</time><name>PT926</name></trkpt>
<trkpt lat="53.091379" lon="-1.643765"><ele>327</ele><time>2020-10-28T09:50:58Z</time><name>PT927</name></trkpt>
<trkpt lat="53.091374" lon="-1.643747"><ele>327</ele><time>2020-10-28T09:50:59Z</time><name>PT928</name></trkpt>
<trkpt lat="53.091370" lon="-1.643726"><ele>328</ele><time>2020-10-28T09:50:59Z</time><name>PT929</name></trkpt>
<trkpt lat="53.091366" lon="-1.643704"><ele>328</ele><time>2020-10-28T09:51:01Z</time><name>PT930</name></trkpt>
<trkpt lat="53.091362" lon="-1.643686"><ele>328</ele><time>2020-10-28T09:51:02Z</time><name>PT931</name></trkpt>
<trkpt lat="53.091357" lon="-1.643670"><ele>328</ele><time>2020-10-28T09:51:02Z</time><name>PT932</name></trkpt>
<trkpt lat="53.091353" lon="-1.643652"><ele>328</ele><time>2020-10-28T09:51:04Z</time><name>PT933</name></trkpt>
<trkpt lat="53.091348" lon="-1.643634"><ele>328</ele><time>2020-10-28T09:51:05Z</time><name>PT934</name></trkpt>
<trkpt lat="53.091344" lon="-1.643615"><ele>328</ele><time>2020-10-28T09:51:05Z</time><name>PT935</name></trkpt>
<trkpt lat="53.091342" lon="-1.643599"><ele>327</ele><time>2020-10-28T09:51:07Z</time><name>PT936</name></trkpt>
<trkpt lat="53.091340" lon="-1.643582"><ele>327</ele><time>2020-10-28T09:51:08Z</time><name>PT937</name></trkpt>
<trkpt lat="53.091336" lon="-1.643563"><ele>327</ele><time>2020-10-28T09:51:08Z</time><name>PT938</name></trkpt>
<trkpt lat="53.091331" lon="-1.643546"><ele>327</ele><time>2020-10-28T09:51:10Z</time><name>PT939</name></trkpt>
<trkpt lat="53.091326" lon="-1.643530"><ele>327</ele><time>2020-10-28T09:51:11Z</time><name>PT940</name></trkpt>
<trkpt lat="53.091321" lon="-1.643509"><ele>327</ele><time>2020-10-28T09:51:11Z</time><name>PT941</name></trkpt>
<trkpt lat="53.091317" lon="-1.643487"><ele>327</ele><time>2020-10-28T09:51:13Z</time><name>PT942</name></trkpt>
<trkpt lat="53.091313" lon="-1.643471"><ele>327</ele><time>2020-10-28T09:51:14Z</time><name>PT943</name></trkpt>
<trkpt lat="53.091310" lon="-1.643450"><ele>327</ele><time>2020-10-28T09:51:14Z</time><name>PT944</name></trkpt>
<trkpt lat="53.091306" lon="-1.643430"><ele>327</ele><time>2020-10-28T09:51:16Z</time><name>PT945</name></trkpt>
<trkpt lat="53.091301" lon="-1.643410"><ele>327</ele><time>2020-10-28T09:51:17Z</time><name>PT946</name></trkpt>
<trkpt lat="53.091297" lon="-1.643389"><ele>327</ele><time>2020-10-28T09:51:17Z</time><name>PT947</name></trkpt>
<trkpt lat="53.091295" lon="-1.643370"><ele>327</ele><time>2020-10-28T09:51:19Z</time><name>PT948</name></trkpt>
<trkpt lat="53.091292" lon="-1.643348"><ele>326</ele><time>2020-10-28T09:51:20Z</time><name>PT949</name></trkpt>
<trkpt lat="53.091287" lon="-1.643328"><ele>327</ele><time>2020-10-28T09:51:20Z</time><name>PT950</name></trkpt>
<trkpt lat="53.091283" lon="-1.643307"><ele>327</ele><time>2020-10-28T09:51:22Z</time><name>PT951</name></trkpt>
<trkpt lat="53.091278" lon="-1.643288"><ele>327</ele><time>2020-10-28T09:51:23Z</time><name>PT952</name></trkpt>
<trkpt lat="53.091273" lon="-1.643268"><ele>327</ele><time>2020-10-28T09:51:23Z</time><name>PT953</name></trkpt>
<trkpt lat="53.091267" lon="-1.643246"><ele>327</ele><time>2020-10-28T09:51:25Z</time><name>PT954</name></trkpt>
<trkpt lat="53.091262" lon="-1.643225"><ele>327</ele><time>2020-10-28T09:51:26Z</time><name>PT955</name></trkpt>
<trkpt lat="53.091259" lon="-1.643205"><ele>327</ele><time>2020-10-28T09:51:26Z</time><name>PT956</name></trkpt>
<trkpt lat="53.091256" lon="-1.643185"><ele>327</ele><time>2020-10-28T09:51:28Z</time><name>PT957</name></trkpt>
<trkpt lat="53.091251" lon="-1.643166"><ele>327</ele><time>2020-10-28T09:51:29Z</time><name>PT958</name></trkpt>
<trkpt lat="53.091247" lon="-1.643147"><ele>327</ele><time>2020-10-28T09:51:29Z</time><name>PT959</name></trkpt>
<trkpt lat="53.091242" lon="-1.643129"><ele>327</ele><time>2020-10-28T09:51:31Z</time><name>PT960</name></trkpt>
<trkpt lat="53.091238" lon="-1.643109"><ele>326</ele><time>2020-10-28T09:51:32Z</time><name>PT961</name></trkpt>
<trkpt lat="53.091233" lon="-1.643090"><ele>326</ele><time>2020-10-28T09:51:32Z</time><name>PT962</name></trkpt>
<trkpt lat="53.091230" lon="-1.643072"><ele>326</ele><time>2020-10-28T09:51:34Z</time><name>PT963</name></trkpt>
<trkpt lat="53.091226" lon="-1.643052"><ele>326</ele><time>2020-10-28T09:51:35Z</time><name>PT964</name></trkpt>
<trkpt lat="53.091221" lon="-1.643035"><ele>326</ele><time>2020-10-28T09:51:35Z</time><name>PT965</name></trkpt>
<trkpt lat="53.091218" lon="-1.643019"><ele>326</ele><time>2020-10-28T09:51:37Z</time><name>PT966</name></trkpt>
<trkpt lat="53.091217" lon="-1.643005"><ele>326</ele><time>2020-10-28T09:51:38Z</time><name>PT967</name></trkpt>
<trkpt lat="53.091215" lon="-1.642984"><ele>326</ele><time>2020-10-28T09:51:38Z</time><name>PT968</name></trkpt>
<trkpt lat="53.091211" lon="-1.642963"><ele>326</ele><time>2020-10-28T09:51:40Z</time><name>PT969</name></trkpt>
<trkpt lat="53.091209" lon="-1.642939"><ele>326</ele><time>2020-10-28T09:51:41Z</time><name>PT970</name></trkpt>
<trkpt lat="53.091202" lon="-1.642919"><ele>326</ele><time>2020-10-28T09:51:41Z</time><name>PT971</name></trkpt>
<trkpt lat="53.091195" lon="-1.642899"><ele>326</ele><time>2020-10-28T09:51:43Z</time><name>PT972</name></trkpt>
<trkpt lat="53.091194" lon="-1.642880"><ele>326</ele><time>2020-10-28T09:51:44Z</time><name>PT973</name></trkpt>
<trkpt lat="53.091189" lon="-1.642858"><ele>326</ele><time>2020-10-28T09:51:44Z</time><name>PT974</name></trkpt>
<trkpt lat="53.091186" lon="-1.642837"><ele>326</ele><time>2020-10-28T09:51:46Z</time><name>PT975</name></trkpt>
<trkpt lat="53.091183" lon="-1.642818"><ele>325</ele><time>2020-10-28T09:51:47Z</time><name>PT976</name></trkpt>
<trkpt lat="53.091181" lon="-1.642799"><ele>325</ele><time>2020-10-28T09:51:47Z</time><name>PT977</name></trkpt>
<trkpt lat="53.091177" lon="-1.642779"><ele>325</ele><time>2020-10-28T09:51:49Z</time><name>PT978</name></trkpt>
<trkpt lat="53.091170" lon="-1.642760"><ele>325</ele><time>2020-10-28T09:51:50Z</time><name>PT979</name></trkpt>
<trkpt lat="53.091167" lon="-1.642745"><ele>325</ele><time>2020-10-28T09:51:51Z</time><name>PT980</name></trkpt>
<trkpt lat="53.091164" lon="-1.642723"><ele>325</ele><time>2020-10-28T09:51:52Z</time><name>PT981</name></trkpt>
<trkpt lat="53.091158" lon="-1.642706"><ele>325</ele><time>2020-10-28T09:51:53Z</time><name>PT982</name></trkpt>
<trkpt lat="53.091156" lon="-1.642688"><ele>326</ele><time>2020-10-28T09:51:54Z</time><name>PT983</name></trkpt>
<trkpt lat="53.091152" lon="-1.642668"><ele>325</ele><time>2020-10-28T09:51:55Z</time><name>PT984</name></trkpt>
<trkpt lat="53.091146" lon="-1.642645"><ele>325</ele><time>2020-10-28T09:51:56Z</time><name>PT985</name></trkpt>
<trkpt lat="53.091138" lon="-1.642627"><ele>325</ele><time>2020-10-28T09:51:57Z</time><name>PT986</name></trkpt>
<trkpt lat="53.091134" lon="-1.642605"><ele>325</ele><time>2020-10-28T09:51:58Z</time><name>PT987</name></trkpt>
<trkpt lat="53.091129" lon="-1.642582"><ele>325</ele><time>2020-10-28T09:51:59Z</time><name>PT988</name></trkpt>
<trkpt lat="53.091125" lon="-1.642560"><ele>325</ele><time>2020-10-28T09:52:00Z</time><name>PT989</name></trkpt>
<trkpt lat="53.091125" lon="-1.642542"><ele>326</ele><time>2020-10-28T09:52:01Z</time><name>PT990</name></trkpt>
<trkpt lat="53.091123" lon="-1.642525"><ele>326</ele><time>2020-10-28T09:52:02Z</time><name>PT991</name></trkpt>
<trkpt lat="53.091120" lon="-1.642508"><ele>326</ele><time>2020-10-28T09:52:03Z</time><name>PT992</name></trkpt>
<trkpt lat="53.091114" lon="-1.642485"><ele>326</ele><time>2020-10-28T09:52:04Z</time><name>PT993</name></trkpt>
<trkpt lat="53.091107" lon="-1.642454"><ele>325</ele><time>2020-10-28T09:52:05Z</time><name>PT994</name></trkpt>
<trkpt lat="53.091106" lon="-1.642425"><ele>326</ele><time>2020-10-28T09:52:06Z</time><name>PT995</name></trkpt>
<trkpt lat="53.091103" lon="-1.642403"><ele>325</ele><time>2020-10-28T09:52:07Z</time><name>PT996</name></trkpt>
<trkpt lat="53.091098" lon="-1.642387"><ele>325</ele><time>2020-10-28T09:52:08Z</time><name>PT997</name></trkpt>
<trkpt lat="53.091094" lon="-1.642368"><ele>326</ele><time>2020-10-28T09:52:08Z</time><name>PT998</name></trkpt>
<trkpt lat="53.091086" lon="-1.642354"><ele>325</ele><time>2020-10-28T09:52:10Z</time><name>PT999</name></trkpt>
<trkpt lat="53.091082" lon="-1.642336"><ele>325</ele><time>2020-10-28T09:52:11Z</time><name>PT1000</name></trkpt>
<trkpt lat="53.091077" lon="-1.642317"><ele>325</ele><time>2020-10-28T09:52:11Z</time><name>PT1001</name></trkpt>
<trkpt lat="53.091073" lon="-1.642296"><ele>325</ele><time>2020-10-28T09:52:13Z</time><name>PT1002</name></trkpt>
<trkpt lat="53.091070" lon="-1.642274"><ele>325</ele><time>2020-10-28T09:52:14Z</time><name>PT1003</name></trkpt>
<trkpt lat="53.091066" lon="-1.642255"><ele>324</ele><time>2020-10-28T09:52:14Z</time><name>PT1004</name></trkpt>
<trkpt lat="53.091064" lon="-1.642238"><ele>324</ele><time>2020-10-28T09:52:16Z</time><name>PT1005</name></trkpt>
<trkpt lat="53.091060" lon="-1.642218"><ele>324</ele><time>2020-10-28T09:52:17Z</time><name>PT1006</name></trkpt>
<trkpt lat="53.091058" lon="-1.642199"><ele>324</ele><time>2020-10-28T09:52:17Z</time><name>PT1007</name></trkpt>
<trkpt lat="53.091052" lon="-1.642180"><ele>324</ele><time>2020-10-28T09:52:19Z</time><name>PT1008</name></trkpt>
<trkpt lat="53.091046" lon="-1.642159"><ele>324</ele><time>2020-10-28T09:52:20Z</time><name>PT1009</name></trkpt>
<trkpt lat="53.091043" lon="-1.642138"><ele>324</ele><time>2020-10-28T09:52:20Z</time><name>PT1010</name></trkpt>
<trkpt lat="53.091040" lon="-1.642120"><ele>324</ele><time>2020-10-28T09:52:22Z</time><name>PT1011</name></trkpt>
<trkpt lat="53.091035" lon="-1.642101"><ele>324</ele><time>2020-10-28T09:52:23Z</time><name>PT1012</name></trkpt>
<trkpt lat="53.091032" lon="-1.642084"><ele>324</ele><time>2020-10-28T09:52:23Z</time><name>PT1013</name></trkpt>
<trkpt lat="53.091030" lon="-1.642066"><ele>324</ele><time>2020-10-28T09:52:25Z</time><name>PT1014</name></trkpt>
<trkpt lat="53.091027" lon="-1.642044"><ele>324</ele><time>2020-10-28T09:52:26Z</time><name>PT1015</name></trkpt>
<trkpt lat="53.091026" lon="-1.642024"><ele>323</ele><time>2020-10-28T09:52:26Z</time><name>PT1016</name></trkpt>
<trkpt lat="53.091026" lon="-1.642005"><ele>323</ele><time>2020-10-28T09:52:28Z</time><name>PT1017</name></trkpt>
<trkpt lat="53.091024" lon="-1.641983"><ele>323</ele><time>2020-10-28T09:52:29Z</time><name>PT1018</name></trkpt>
<trkpt lat="53.091021" lon="-1.641962"><ele>323</ele><time>2020-10-28T09:52:29Z</time><name>PT1019</name></trkpt>
<trkpt lat="53.091018" lon="-1.641943"><ele>323</ele><time>2020-10-28T09:52:31Z</time><name>PT1020</name></trkpt>
<trkpt lat="53.091016" lon="-1.641923"><ele>323</ele><time>2020-10-28T09:52:32Z</time><name>PT1021</name></trkpt>
<trkpt lat="53.091013" lon="-1.641903"><ele>323</ele><time>2020-10-28T09:52:32Z</time><name>PT1022</name></trkpt>
<trkpt lat="53.091010" lon="-1.641881"><ele>323</ele><time>2020-10-28T09:52:34Z</time><name>PT1023</name></trkpt>
<trkpt lat="53.091008" lon="-1.641866"><ele>322</ele><time>2020-10-28T09:52:35Z</time><name>PT1024</name></trkpt>
<trkpt lat="53.091010" lon="-1.641856"><ele>322</ele><time>2020-10-28T09:52:35Z</time><name>PT1025</name></trkpt>
<trkpt lat="53.091008" lon="-1.641838"><ele>322</ele><time>2020-10-28T09:52:37Z</time><name>PT1026</name></trkpt>
<trkpt lat="53.091003" lon="-1.641814"><ele>322</ele><time>2020-10-28T09:52:38Z</time><name>PT1027</name></trkpt>
<trkpt lat="53.091000" lon="-1.641793"><ele>322</ele><time>2020-10-28T09:52:38Z</time><name>PT1028</name></trkpt>
<trkpt lat="53.090996" lon="-1.641774"><ele>322</ele><time>2020-10-28T09:52:40Z</time><name>PT1029</name></trkpt>
<trkpt lat="53.090995" lon="-1.641752"><ele>322</ele><time>2020-10-28T09:52:41Z</time><name>PT1030</name></trkpt>
<trkpt lat="53.090993" lon="-1.641731"><ele>321</ele><time>2020-10-28T09:52:42Z</time><name>PT1031</name></trkpt>
<trkpt lat="53.090990" lon="-1.641708"><ele>321</ele><time>2020-10-28T09:52:43Z</time><name>PT1032</name></trkpt>
<trkpt lat="53.090987" lon="-1.641690"><ele>321</ele><time>2020-10-28T09:52:44Z</time><name>PT1033</name></trkpt>
<trkpt lat="53.090986" lon="-1.641666"><ele>321</ele><time>2020-10-28T09:52:44Z</time><name>PT1034</name></trkpt>
<trkpt lat="53.090983" lon="-1.641643"><ele>321</ele><time>2020-10-28T09:52:46Z</time><name>PT1035</name></trkpt>
<trkpt lat="53.090980" lon="-1.641619"><ele>322</ele><time>2020-10-28T09:52:47Z</time><name>PT1036</name></trkpt>
<trkpt lat="53.090976" lon="-1.641597"><ele>322</ele><time>2020-10-28T09:52:47Z</time><name>PT1037</name></trkpt>
<trkpt lat="53.090975" lon="-1.641577"><ele>322</ele><time>2020-10-28T09:52:49Z</time><name>PT1038</name></trkpt>
<trkpt lat="53.090977" lon="-1.641562"><ele>322</ele><time>2020-10-28T09:52:50Z</time><name>PT1039</name></trkpt>
<trkpt lat="53.090976" lon="-1.641541"><ele>322</ele><time>2020-10-28T09:52:50Z</time><name>PT1040</name></trkpt>
<trkpt lat="53.090975" lon="-1.641521"><ele>322</ele><time>2020-10-28T09:52:52Z</time><name>PT1041</name></trkpt>
<trkpt lat="53.090973" lon="-1.641504"><ele>322</ele><time>2020-10-28T09:52:53Z</time><name>PT1042</name></trkpt>
<trkpt lat="53.090971" lon="-1.641486"><ele>322</ele><time>2020-10-28T09:52:53Z</time><name>PT1043</name></trkpt>
<trkpt lat="53.090971" lon="-1.641470"><ele>322</ele><time>2020-10-28T09:52:55Z</time><name>PT1044</name></trkpt>
<trkpt lat="53.090971" lon="-1.641455"><ele>321</ele><time>2020-10-28T09:52:56Z</time><name>PT1045</name></trkpt>
<trkpt lat="53.090971" lon="-1.641438"><ele>321</ele><time>2020-10-28T09:52:56Z</time><name>PT1046</name></trkpt>
<trkpt lat="53.090970" lon="-1.641420"><ele>321</ele><time>2020-10-28T09:52:58Z</time><name>PT1047</name></trkpt>
<trkpt lat="53.090970" lon="-1.641405"><ele>321</ele><time>2020-10-28T09:52:59Z</time><name>PT1048</name></trkpt>
<trkpt lat="53.090967" lon="-1.641382"><ele>321</ele><time>2020-10-28T09:53:00Z</time><name>PT1049</name></trkpt>
<trkpt lat="53.090963" lon="-1.641359"><ele>321</ele><time>2020-10-28T09:53:01Z</time><name>PT1050</name></trkpt>
<trkpt lat="53.090962" lon="-1.641341"><ele>321</ele><time>2020-10-28T09:53:02Z</time><name>PT1051</name></trkpt>
<trkpt lat="53.090958" lon="-1.641323"><ele>321</ele><time>2020-10-28T09:53:03Z</time><name>PT1052</name></trkpt>
<trkpt lat="53.090955" lon="-1.641306"><ele>321</ele><time>2020-10-28T09:53:04Z</time><name>PT1053</name></trkpt>
<trkpt lat="53.090953" lon="-1.641285"><ele>320</ele><time>2020-10-28T09:53:05Z</time><name>PT1054</name></trkpt>
<trkpt lat="53.090951" lon="-1.641264"><ele>320</ele><time>2020-10-28T09:53:06Z</time><name>PT1055</name></trkpt>
<trkpt lat="53.090948" lon="-1.641242"><ele>320</ele><time>2020-10-28T09:53:07Z</time><name>PT1056</name></trkpt>
<trkpt lat="53.090947" lon="-1.641220"><ele>320</ele><time>2020-10-28T09:53:08Z</time><name>PT1057</name></trkpt>
<trkpt lat="53.090944" lon="-1.641203"><ele>320</ele><time>2020-10-28T09:53:08Z</time><name>PT1058</name></trkpt>
<trkpt lat="53.090942" lon="-1.641183"><ele>320</ele><time>2020-10-28T09:53:10Z</time><name>PT1059</name></trkpt>
<trkpt lat="53.090942" lon="-1.641165"><ele>320</ele><time>2020-10-28T09:53:11Z</time><name>PT1060</name></trkpt>
<trkpt lat="53.090940" lon="-1.641144"><ele>320</ele><time>2020-10-28T09:53:11Z</time><name>PT1061</name></trkpt>
<trkpt lat="53.090937" lon="-1.641124"><ele>320</ele><time>2020-10-28T09:53:13Z</time><name>PT1062</name></trkpt>
<trkpt lat="53.090934" lon="-1.641105"><ele>320</ele><time>2020-10-28T09:53:14Z</time><name>PT1063</name></trkpt>
<trkpt lat="53.090931" lon="-1.641087"><ele>320</ele><time>2020-10-28T09:53:14Z</time><name>PT1064</name></trkpt>
<trkpt lat="53.090927" lon="-1.641070"><ele>320</ele><time>2020-10-28T09:53:16Z</time><name>PT1065</name></trkpt>
<trkpt lat="53.090925" lon="-1.641050"><ele>320</ele><time>2020-10-28T09:53:17Z</time><name>PT1066</name></trkpt>
<trkpt lat="53.090915" lon="-1.640964"><ele>319</ele><time>2020-10-28T09:53:20Z</time><name>PT1067</name></trkpt>
<trkpt lat="53.090906" lon="-1.640884"><ele>319</ele><time>2020-10-28T09:53:25Z</time><name>PT1068</name></trkpt>
<trkpt lat="53.090897" lon="-1.640830"><ele>320</ele><time>2020-10-28T09:53:28Z</time><name>PT1069</name></trkpt>
<trkpt lat="53.090881" lon="-1.640752"><ele>320</ele><time>2020-10-28T09:53:32Z</time><name>PT1070</name></trkpt>
<trkpt lat="53.090871" lon="-1.640668"><ele>320</ele><time>2020-10-28T09:53:35Z</time><name>PT1071</name></trkpt>
<trkpt lat="53.090860" lon="-1.640605"><ele>319</ele><time>2020-10-28T09:53:38Z</time><name>PT1072</name></trkpt>
<trkpt lat="53.090851" lon="-1.640514"><ele>319</ele><time>2020-10-28T09:53:43Z</time><name>PT1073</name></trkpt>
<trkpt lat="53.090843" lon="-1.640450"><ele>319</ele><time>2020-10-28T09:53:46Z</time><name>PT1074</name></trkpt>
<trkpt lat="53.090830" lon="-1.640393"><ele>319</ele><time>2020-10-28T09:53:49Z</time><name>PT1075</name></trkpt>
<trkpt lat="53.090814" lon="-1.640310"><ele>319</ele><time>2020-10-28T09:53:53Z</time><name>PT1076</name></trkpt>
<trkpt lat="53.090800" lon="-1.640230"><ele>319</ele><time>2020-10-28T09:53:56Z</time><name>PT1077</name></trkpt>
<trkpt lat="53.090788" lon="-1.640173"><ele>320</ele><time>2020-10-28T09:53:59Z</time><name>PT1078</name></trkpt>
<trkpt lat="53.090787" lon="-1.640093"><ele>320</ele><time>2020-10-28T09:54:04Z</time><name>PT1079</name></trkpt>
<trkpt lat="53.090787" lon="-1.640035"><ele>320</ele><time>2020-10-28T09:54:07Z</time><name>PT1080</name></trkpt>
<trkpt lat="53.090779" lon="-1.639950"><ele>320</ele><time>2020-10-28T09:54:11Z</time><name>PT1081</name></trkpt>
<trkpt lat="53.090758" lon="-1.639870"><ele>320</ele><time>2020-10-28T09:54:14Z</time><name>PT1082</name></trkpt>
<trkpt lat="53.090748" lon="-1.639817"><ele>321</ele><time>2020-10-28T09:54:18Z</time><name>PT1083</name></trkpt>
<trkpt lat="53.090731" lon="-1.639740"><ele>321</ele><time>2020-10-28T09:54:22Z</time><name>PT1084</name></trkpt>
<trkpt lat="53.090719" lon="-1.639682"><ele>321</ele><time>2020-10-28T09:54:25Z</time><name>PT1085</name></trkpt>
<trkpt lat="53.090727" lon="-1.639620"><ele>322</ele><time>2020-10-28T09:54:29Z</time><name>PT1086</name></trkpt>
<trkpt lat="53.090747" lon="-1.639588"><ele>321</ele><time>2020-10-28T09:54:32Z</time><name>PT1087</name></trkpt>
<trkpt lat="53.090775" lon="-1.639555"><ele>320</ele><time>2020-10-28T09:54:35Z</time><name>PT1088</name></trkpt>
<trkpt lat="53.090805" lon="-1.639550"><ele>318</ele><time>2020-10-28T09:54:38Z</time><name>PT1089</name></trkpt>
<trkpt lat="53.090834" lon="-1.639553"><ele>317</ele><time>2020-10-28T09:54:41Z</time><name>PT1090</name></trkpt>
<trkpt lat="53.090844" lon="-1.639550"><ele>318</ele><time>2020-10-28T09:54:44Z</time><name>PT1091</name></trkpt>
<trkpt lat="53.090850" lon="-1.639544"><ele>319</ele><time>2020-10-28T09:54:49Z</time><name>PT1092</name></trkpt>
<trkpt lat="53.090852" lon="-1.639541"><ele>319</ele><time>2020-10-28T09:54:52Z</time><name>PT1093</name></trkpt>
<trkpt lat="53.090857" lon="-1.639537"><ele>319</ele><time>2020-10-28T09:55:03Z</time><name>PT1094</name></trkpt>
<trkpt lat="53.090897" lon="-1.639530"><ele>316</ele><time>2020-10-28T09:55:06Z</time><name>PT1095</name></trkpt>
<trkpt lat="53.090935" lon="-1.639497"><ele>315</ele><time>2020-10-28T09:55:10Z</time><name>PT1096</name></trkpt>
<trkpt lat="53.090969" lon="-1.639494"><ele>314</ele><time>2020-10-28T09:55:14Z</time><name>PT1097</name></trkpt>
<trkpt lat="53.090995" lon="-1.639478"><ele>313</ele><time>2020-10-28T09:55:17Z</time><name>PT1098</name></trkpt>
<trkpt lat="53.091021" lon="-1.639457"><ele>311</ele><time>2020-10-28T09:55:20Z</time><name>PT1099</name></trkpt>
<trkpt lat="53.091063" lon="-1.639450"><ele>311</ele><time>2020-10-28T09:55:23Z</time><name>PT1100</name></trkpt>
<trkpt lat="53.091110" lon="-1.639461"><ele>310</ele><time>2020-10-28T09:55:26Z</time><name>PT1101</name></trkpt>
<trkpt lat="53.091146" lon="-1.639463"><ele>309</ele><time>2020-10-28T09:55:29Z</time><name>PT1102</name></trkpt>
<trkpt lat="53.091195" lon="-1.639457"><ele>309</ele><time>2020-10-28T09:55:34Z</time><name>PT1103</name></trkpt>
<trkpt lat="53.091246" lon="-1.639461"><ele>309</ele><time>2020-10-28T09:55:38Z</time><name>PT1104</name></trkpt>
<trkpt lat="53.091289" lon="-1.639460"><ele>309</ele><time>2020-10-28T09:55:41Z</time><name>PT1105</name></trkpt>
<trkpt lat="53.091332" lon="-1.639467"><ele>310</ele><time>2020-10-28T09:55:44Z</time><name>PT1106</name></trkpt>
<trkpt lat="53.091364" lon="-1.639479"><ele>309</ele><time>2020-10-28T09:55:47Z</time><name>PT1107</name></trkpt>
<trkpt lat="53.091402" lon="-1.639487"><ele>309</ele><time>2020-10-28T09:55:50Z</time><name>PT1108</name></trkpt>
<trkpt lat="53.091446" lon="-1.639497"><ele>308</ele><time>2020-10-28T09:55:53Z</time><name>PT1109</name></trkpt>
<trkpt lat="53.091492" lon="-1.639499"><ele>309</ele><time>2020-10-28T09:55:58Z</time><name>PT1110</name></trkpt>
<trkpt lat="53.091537" lon="-1.639504"><ele>309</ele><time>2020-10-28T09:56:02Z</time><name>PT1111</name></trkpt>
<trkpt lat="53.091564" lon="-1.639503"><ele>308</ele><time>2020-10-28T09:56:05Z</time><name>PT1112</name></trkpt>
<trkpt lat="53.091586" lon="-1.639494"><ele>306</ele><time>2020-10-28T09:56:08Z</time><name>PT1113</name></trkpt>
<trkpt lat="53.091641" lon="-1.639473"><ele>308</ele><time>2020-10-28T09:56:11Z</time><name>PT1114</name></trkpt>
<trkpt lat="53.091697" lon="-1.639451"><ele>309</ele><time>2020-10-28T09:56:16Z</time><name>PT1115</name></trkpt>
<trkpt lat="53.091734" lon="-1.639437"><ele>311</ele><time>2020-10-28T09:56:19Z</time><name>PT1116</name></trkpt>
<trkpt lat="53.091769" lon="-1.639417"><ele>312</ele><time>2020-10-28T09:56:22Z</time><name>PT1117</name></trkpt>
<trkpt lat="53.091807" lon="-1.639394"><ele>314</ele><time>2020-10-28T09:56:25Z</time><name>PT1118</name></trkpt>
<trkpt lat="53.091840" lon="-1.639359"><ele>314</ele><time>2020-10-28T09:56:29Z</time><name>PT1119</name></trkpt>
<trkpt lat="53.091869" lon="-1.639336"><ele>315</ele><time>2020-10-28T09:56:32Z</time><name>PT1120</name></trkpt>
<trkpt lat="53.091893" lon="-1.639319"><ele>313</ele><time>2020-10-28T09:56:35Z</time><name>PT1121</name></trkpt>
<trkpt lat="53.091925" lon="-1.639300"><ele>313</ele><time>2020-10-28T09:56:38Z</time><name>PT1122</name></trkpt>
<trkpt lat="53.091967" lon="-1.639276"><ele>313</ele><time>2020-10-28T09:56:41Z</time><name>PT1123</name></trkpt>
<trkpt lat="53.092002" lon="-1.639273"><ele>313</ele><time>2020-10-28T09:56:44Z</time><name>PT1124</name></trkpt>
<trkpt lat="53.092033" lon="-1.639270"><ele>313</ele><time>2020-10-28T09:56:47Z</time><name>PT1125</name></trkpt>
<trkpt lat="53.092071" lon="-1.639286"><ele>313</ele><time>2020-10-28T09:56:52Z</time><name>PT1126</name></trkpt>
<trkpt lat="53.092101" lon="-1.639311"><ele>314</ele><time>2020-10-28T09:56:55Z</time><name>PT1127</name></trkpt>
<trkpt lat="53.092126" lon="-1.639335"><ele>315</ele><time>2020-10-28T09:56:58Z</time><name>PT1128</name></trkpt>
<trkpt lat="53.092157" lon="-1.639344"><ele>315</ele><time>2020-10-28T09:57:01Z</time><name>PT1129</name></trkpt>
<trkpt lat="53.092188" lon="-1.639369"><ele>317</ele><time>2020-10-28T09:57:05Z</time><name>PT1130</name></trkpt>
<trkpt lat="53.092212" lon="-1.639380"><ele>318</ele><time>2020-10-28T09:57:08Z</time><name>PT1131</name></trkpt>
<trkpt lat="53.092239" lon="-1.639390"><ele>323</ele><time>2020-10-28T09:57:11Z</time><name>PT1132</name></trkpt>
<trkpt lat="53.092244" lon="-1.639397"><ele>323</ele><time>2020-10-28T09:57:15Z</time><name>PT1133</name></trkpt>
<trkpt lat="53.092263" lon="-1.639419"><ele>322</ele><time>2020-10-28T09:57:18Z</time><name>PT1134</name></trkpt>
<trkpt lat="53.092295" lon="-1.639427"><ele>321</ele><time>2020-10-28T09:57:22Z</time><name>PT1135</name></trkpt>
<trkpt lat="53.092333" lon="-1.639394"><ele>321</ele><time>2020-10-28T09:57:26Z</time><name>PT1136</name></trkpt>
<trkpt lat="53.092361" lon="-1.639372"><ele>322</ele><time>2020-10-28T09:57:29Z</time><name>PT1137</name></trkpt>
<trkpt lat="53.092393" lon="-1.639353"><ele>324</ele><time>2020-10-28T09:57:32Z</time><name>PT1138</name></trkpt>
<trkpt lat="53.092423" lon="-1.639332"><ele>324</ele><time>2020-10-28T09:57:37Z</time><name>PT1139</name></trkpt>
<trkpt lat="53.092455" lon="-1.639314"><ele>325</ele><time>2020-10-28T09:57:41Z</time><name>PT1140</name></trkpt>
<trkpt lat="53.092472" lon="-1.639301"><ele>324</ele><time>2020-10-28T09:57:44Z</time><name>PT1141</name></trkpt>
<trkpt lat="53.092494" lon="-1.639297"><ele>325</ele><time>2020-10-28T09:57:47Z</time><name>PT1142</name></trkpt>
<trkpt lat="53.092521" lon="-1.639300"><ele>327</ele><time>2020-10-28T09:57:52Z</time><name>PT1143</name></trkpt>
<trkpt lat="53.092542" lon="-1.639283"><ele>329</ele><time>2020-10-28T09:57:55Z</time><name>PT1144</name></trkpt>
<trkpt lat="53.092567" lon="-1.639269"><ele>328</ele><time>2020-10-28T09:57:59Z</time><name>PT1145</name></trkpt>
<trkpt lat="53.092581" lon="-1.639273"><ele>328</ele><time>2020-10-28T09:58:02Z</time><name>PT1146</name></trkpt>
<trkpt lat="53.092609" lon="-1.639272"><ele>327</ele><time>2020-10-28T09:58:05Z</time><name>PT1147</name></trkpt>
<trkpt lat="53.092625" lon="-1.639265"><ele>326</ele><time>2020-10-28T09:58:10Z</time><name>PT1148</name></trkpt>
<trkpt lat="53.092662" lon="-1.639268"><ele>328</ele><time>2020-10-28T09:58:14Z</time><name>PT1149</name></trkpt>
<trkpt lat="53.092691" lon="-1.639268"><ele>330</ele><time>2020-10-28T09:58:17Z</time><name>PT1150</name></trkpt>
<trkpt lat="53.092717" lon="-1.639253"><ele>332</ele><time>2020-10-28T09:58:20Z</time><name>PT1151</name></trkpt>
<trkpt lat="53.092754" lon="-1.639244"><ele>334</ele><time>2020-10-28T09:58:24Z</time><name>PT1152</name></trkpt>
<trkpt lat="53.092770" lon="-1.639244"><ele>333</ele><time>2020-10-28T09:58:27Z</time><name>PT1153</name></trkpt>
<trkpt lat="53.092790" lon="-1.639237"><ele>334</ele><time>2020-10-28T09:58:30Z</time><name>PT1154</name></trkpt>
<trkpt lat="53.092810" lon="-1.639231"><ele>335</ele><time>2020-10-28T09:58:33Z</time><name>PT1155</name></trkpt>
<trkpt lat="53.092827" lon="-1.639219"><ele>336</ele><time>2020-10-28T09:58:36Z</time><name>PT1156</name></trkpt>
<trkpt lat="53.092833" lon="-1.639217"><ele>336</ele><time>2020-10-28T09:58:40Z</time><name>PT1157</name></trkpt>
<trkpt lat="53.092843" lon="-1.639217"><ele>337</ele><time>2020-10-28T09:58:43Z</time><name>PT1158</name></trkpt>
<trkpt lat="53.092857" lon="-1.639237"><ele>336</ele><time>2020-10-28T09:58:46Z</time><name>PT1159</name></trkpt>
<trkpt lat="53.092895" lon="-1.639222"><ele>336</ele><time>2020-10-28T09:58:51Z</time><name>PT1160</name></trkpt>
<trkpt lat="53.092921" lon="-1.639228"><ele>336</ele><time>2020-10-28T09:58:54Z</time><name>PT1161</name></trkpt>
<trkpt lat="53.092943" lon="-1.639232"><ele>337</ele><time>2020-10-28T09:58:57Z</time><name>PT1162</name></trkpt>
<trkpt lat="53.092964" lon="-1.639234"><ele>336</ele><time>2020-10-28T09:59:00Z</time><name>PT1163</name></trkpt>
<trkpt lat="53.092994" lon="-1.639224"><ele>338</ele><time>2020-10-28T09:59:04Z</time><name>PT1164</name></trkpt>
<trkpt lat="53.092994" lon="-1.639216"><ele>340</ele><time>2020-10-28T09:59:07Z</time><name>PT1165</name></trkpt>
<trkpt lat="53.092999" lon="-1.639206"><ele>340</ele><time>2020-10-28T09:59:10Z</time><name>PT1166</name></trkpt>
<trkpt lat="53.093029" lon="-1.639192"><ele>341</ele><time>2020-10-28T09:59:13Z</time><name>PT1167</name></trkpt>
<trkpt lat="53.093041" lon="-1.639172"><ele>343</ele><time>2020-10-28T09:59:18Z</time><name>PT1168</name></trkpt>
<trkpt lat="53.093031" lon="-1.639149"><ele>344</ele><time>2020-10-28T09:59:21Z</time><name>PT1169</name></trkpt>
<trkpt lat="53.093041" lon="-1.639108"><ele>342</ele><time>2020-10-28T09:59:25Z</time><name>PT1170</name></trkpt>
<trkpt lat="53.093040" lon="-1.639064"><ele>343</ele><time>2020-10-28T09:59:28Z</time><name>PT1171</name></trkpt>
<trkpt lat="53.093037" lon="-1.639044"><ele>344</ele><time>2020-10-28T09:59:31Z</time><name>PT1172</name></trkpt>
<trkpt lat="53.093048" lon="-1.639032"><ele>346</ele><time>2020-10-28T09:59:36Z</time><name>PT1173</name></trkpt>
<trkpt lat="53.093070" lon="-1.639005"><ele>347</ele><time>2020-10-28T09:59:40Z</time><name>PT1174</name></trkpt>
<trkpt lat="53.093090" lon="-1.638983"><ele>348</ele><time>2020-10-28T09:59:43Z</time><name>PT1175</name></trkpt>
<trkpt lat="53.093104" lon="-1.638965"><ele>349</ele><time>2020-10-28T09:59:46Z</time><name>PT1176</name></trkpt>
<trkpt lat="53.093111" lon="-1.638913"><ele>350</ele><time>2020-10-28T09:59:51Z</time><name>PT1177</name></trkpt>
<trkpt lat="53.093102" lon="-1.638875"><ele>351</ele><time>2020-10-28T09:59:55Z</time><name>PT1178</name></trkpt>
<trkpt lat="53.093087" lon="-1.638840"><ele>351</ele><time>2020-10-28T09:59:58Z</time><name>PT1179</name></trkpt>
<trkpt lat="53.093069" lon="-1.638779"><ele>350</ele><time>2020-10-28T10:00:01Z</time><name>PT1180</name></trkpt>
<trkpt lat="53.093049" lon="-1.638725"><ele>350</ele><time>2020-10-28T10:00:06Z</time><name>PT1181</name></trkpt>
<trkpt lat="53.093023" lon="-1.638671"><ele>349</ele><time>2020-10-28T10:00:10Z</time><name>PT1182</name></trkpt>
<trkpt lat="53.092995" lon="-1.638636"><ele>349</ele><time>2020-10-28T10:00:13Z</time><name>PT1183</name></trkpt>
<trkpt lat="53.092972" lon="-1.638580"><ele>350</ele><time>2020-10-28T10:00:16Z</time><name>PT1184</name></trkpt>
<trkpt lat="53.092940" lon="-1.638529"><ele>350</ele><time>2020-10-28T10:00:21Z</time><name>PT1185</name></trkpt>
<trkpt lat="53.092929" lon="-1.638491"><ele>350</ele><time>2020-10-28T10:00:24Z</time><name>PT1186</name></trkpt>
<trkpt lat="53.092927" lon="-1.638438"><ele>351</ele><time>2020-10-28T10:00:28Z</time><name>PT1187</name></trkpt>
<trkpt lat="53.092927" lon="-1.638379"><ele>350</ele><time>2020-10-28T10:00:31Z</time><name>PT1188</name></trkpt>
<trkpt lat="53.092917" lon="-1.638340"><ele>351</ele><time>2020-10-28T10:00:34Z</time><name>PT1189</name></trkpt>
<trkpt lat="53.092908" lon="-1.638309"><ele>352</ele><time>2020-10-28T10:00:39Z</time><name>PT1190</name></trkpt>
<trkpt lat="53.092910" lon="-1.638304"><ele>352</ele><time>2020-10-28T10:00:42Z</time><name>PT1191</name></trkpt>
<trkpt lat="53.092906" lon="-1.638294"><ele>352</ele><time>2020-10-28T10:00:52Z</time><name>PT1192</name></trkpt>
<trkpt lat="53.092899" lon="-1.638262"><ele>353</ele><time>2020-10-28T10:00:57Z</time><name>PT1193</name></trkpt>
<trkpt lat="53.092911" lon="-1.638254"><ele>352</ele><time>2020-10-28T10:01:01Z</time><name>PT1194</name></trkpt>
<trkpt lat="53.092918" lon="-1.638239"><ele>352</ele><time>2020-10-28T10:01:04Z</time><name>PT1195</name></trkpt>
<trkpt lat="53.092919" lon="-1.638239"><ele>352</ele><time>2020-10-28T10:01:07Z</time><name>PT1196</name></trkpt>
<trkpt lat="53.092917" lon="-1.638267"><ele>351</ele><time>2020-10-28T10:01:19Z</time><name>PT1197</name></trkpt>
<trkpt lat="53.092940" lon="-1.638314"><ele>348</ele><time>2020-10-28T10:01:22Z</time><name>PT1198</name></trkpt>
<trkpt lat="53.092965" lon="-1.638360"><ele>349</ele><time>2020-10-28T10:01:27Z</time><name>PT1199</name></trkpt>
<trkpt lat="53.092961" lon="-1.638373"><ele>350</ele><time>2020-10-28T10:01:30Z</time><name>PT1200</name></trkpt>
<trkpt lat="53.092956" lon="-1.638386"><ele>351</ele><time>2020-10-28T10:01:34Z</time><name>PT1201</name></trkpt>
<trkpt lat="53.092951" lon="-1.638390"><ele>351</ele><time>2020-10-28T10:01:55Z</time><name>PT1202</name></trkpt>
<trkpt lat="53.092948" lon="-1.638396"><ele>351</ele><time>2020-10-28T10:01:58Z</time><name>PT1203</name></trkpt>
<trkpt lat="53.092954" lon="-1.638392"><ele>352</ele><time>2020-10-28T10:02:01Z</time><name>PT1204</name></trkpt>
<trkpt lat="53.092955" lon="-1.638447"><ele>352</ele><time>2020-10-28T10:02:15Z</time><name>PT1205</name></trkpt>
<trkpt lat="53.092964" lon="-1.638483"><ele>351</ele><time>2020-10-28T10:02:18Z</time><name>PT1206</name></trkpt>
<trkpt lat="53.092971" lon="-1.638529"><ele>350</ele><time>2020-10-28T10:02:22Z</time><name>PT1207</name></trkpt>
<trkpt lat="53.092982" lon="-1.638569"><ele>349</ele><time>2020-10-28T10:02:25Z</time><name>PT1208</name></trkpt>
<trkpt lat="53.093001" lon="-1.638606"><ele>348</ele><time>2020-10-28T10:02:28Z</time><name>PT1209</name></trkpt>
<trkpt lat="53.093022" lon="-1.638659"><ele>349</ele><time>2020-10-28T10:02:31Z</time><name>PT1210</name></trkpt>
<trkpt lat="53.093039" lon="-1.638700"><ele>349</ele><time>2020-10-28T10:02:34Z</time><name>PT1211</name></trkpt>
<trkpt lat="53.093058" lon="-1.638727"><ele>348</ele><time>2020-10-28T10:02:37Z</time><name>PT1212</name></trkpt>
<trkpt lat="53.093081" lon="-1.638766"><ele>349</ele><time>2020-10-28T10:02:40Z</time><name>PT1213</name></trkpt>
<trkpt lat="53.093103" lon="-1.638809"><ele>350</ele><time>2020-10-28T10:02:43Z</time><name>PT1214</name></trkpt>
<trkpt lat="53.093131" lon="-1.638854"><ele>350</ele><time>2020-10-28T10:02:48Z</time><name>PT1215</name></trkpt>
<trkpt lat="53.093152" lon="-1.638881"><ele>349</ele><time>2020-10-28T10:02:51Z</time><name>PT1216</name></trkpt>
<trkpt lat="53.093180" lon="-1.638920"><ele>348</ele><time>2020-10-28T10:02:55Z</time><name>PT1217</name></trkpt>
<trkpt lat="53.093198" lon="-1.638938"><ele>348</ele><time>2020-10-28T10:02:58Z</time><name>PT1218</name></trkpt>
<trkpt lat="53.093228" lon="-1.638963"><ele>347</ele><time>2020-10-28T10:03:01Z</time><name>PT1219</name></trkpt>
<trkpt lat="53.093253" lon="-1.638998"><ele>347</ele><time>2020-10-28T10:03:04Z</time><name>PT1220</name></trkpt>
<trkpt lat="53.093273" lon="-1.639022"><ele>345</ele><time>2020-10-28T10:03:07Z</time><name>PT1221</name></trkpt>
<trkpt lat="53.093299" lon="-1.639072"><ele>345</ele><time>2020-10-28T10:03:12Z</time><name>PT1222</name></trkpt>
<trkpt lat="53.093333" lon="-1.639100"><ele>346</ele><time>2020-10-28T10:03:16Z</time><name>PT1223</name></trkpt>
<trkpt lat="53.093358" lon="-1.639127"><ele>346</ele><time>2020-10-28T10:03:19Z</time><name>PT1224</name></trkpt>
<trkpt lat="53.093373" lon="-1.639167"><ele>346</ele><time>2020-10-28T10:03:22Z</time><name>PT1225</name></trkpt>
<trkpt lat="53.093391" lon="-1.639237"><ele>346</ele><time>2020-10-28T10:03:25Z</time><name>PT1226</name></trkpt>
<trkpt lat="53.093414" lon="-1.639313"><ele>346</ele><time>2020-10-28T10:03:30Z</time><name>PT1227</name></trkpt>
<trkpt lat="53.093436" lon="-1.639377"><ele>346</ele><time>2020-10-28T10:03:34Z</time><name>PT1228</name></trkpt>
<trkpt lat="53.093478" lon="-1.639424"><ele>346</ele><time>2020-10-28T10:03:37Z</time><name>PT1229</name></trkpt>
<trkpt lat="53.093506" lon="-1.639488"><ele>347</ele><time>2020-10-28T10:03:42Z</time><name>PT1230</name></trkpt>
<trkpt lat="53.093531" lon="-1.639540"><ele>346</ele><time>2020-10-28T10:03:46Z</time><name>PT1231</name></trkpt>
<trkpt lat="53.093556" lon="-1.639592"><ele>344</ele><time>2020-10-28T10:03:49Z</time><name>PT1232</name></trkpt>
<trkpt lat="53.093581" lon="-1.639630"><ele>344</ele><time>2020-10-28T10:03:52Z</time><name>PT1233</name></trkpt>
<trkpt lat="53.093605" lon="-1.639654"><ele>343</ele><time>2020-10-28T10:03:56Z</time><name>PT1234</name></trkpt>
<trkpt lat="53.093638" lon="-1.639667"><ele>342</ele><time>2020-10-28T10:04:00Z</time><name>PT1235</name></trkpt>
<trkpt lat="53.093656" lon="-1.639660"><ele>340</ele><time>2020-10-28T10:04:03Z</time><name>PT1236</name></trkpt>
<trkpt lat="53.093677" lon="-1.639627"><ele>337</ele><time>2020-10-28T10:04:07Z</time><name>PT1237</name></trkpt>
<trkpt lat="53.093693" lon="-1.639462"><ele>333</ele><time>2020-10-28T10:04:10Z</time><name>PT1238</name></trkpt>
<trkpt lat="53.093703" lon="-1.639351"><ele>329</ele><time>2020-10-28T10:04:15Z</time><name>PT1239</name></trkpt>
<trkpt lat="53.093629" lon="-1.639239"><ele>326</ele><time>2020-10-28T10:04:19Z</time><name>PT1240</name></trkpt>
<trkpt lat="53.093619" lon="-1.639108"><ele>328</ele><time>2020-10-28T10:04:22Z</time><name>PT1241</name></trkpt>
<trkpt lat="53.093646" lon="-1.638998"><ele>330</ele><time>2020-10-28T10:04:25Z</time><name>PT1242</name></trkpt>
<trkpt lat="53.093670" lon="-1.638933"><ele>338</ele><time>2020-10-28T10:04:30Z</time><name>PT1243</name></trkpt>
<trkpt lat="53.093646" lon="-1.638760"><ele>341</ele><time>2020-10-28T10:04:34Z</time><name>PT1244</name></trkpt>
<trkpt lat="53.093650" lon="-1.638668"><ele>341</ele><time>2020-10-28T10:04:37Z</time><name>PT1245</name></trkpt>
<trkpt lat="53.093652" lon="-1.638845"><ele>339</ele><time>2020-10-28T10:04:40Z</time><name>PT1246</name></trkpt>
<trkpt lat="53.093779" lon="-1.639308"><ele>340</ele><time>2020-10-28T10:04:43Z</time><name>PT1247</name></trkpt>
<trkpt lat="53.093711" lon="-1.639480"><ele>341</ele><time>2020-10-28T10:04:48Z</time><name>PT1248</name></trkpt>
<trkpt lat="53.093692" lon="-1.639562"><ele>343</ele><time>2020-10-28T10:04:52Z</time><name>PT1249</name></trkpt>
<trkpt lat="53.093689" lon="-1.639578"><ele>344</ele><time>2020-10-28T10:04:55Z</time><name>PT1250</name></trkpt>
<trkpt lat="53.093681" lon="-1.639645"><ele>343</ele><time>2020-10-28T10:05:03Z</time><name>PT1251</name></trkpt>
<trkpt lat="53.093695" lon="-1.639650"><ele>343</ele><time>2020-10-28T10:05:07Z</time><name>PT1252</name></trkpt>
<trkpt lat="53.093686" lon="-1.639653"><ele>343</ele><time>2020-10-28T10:05:13Z</time><name>PT1253</name></trkpt>
<trkpt lat="53.093684" lon="-1.639659"><ele>344</ele><time>2020-10-28T10:05:18Z</time><name>PT1254</name></trkpt>
<trkpt lat="53.093668" lon="-1.639687"><ele>345</ele><time>2020-10-28T10:05:37Z</time><name>PT1255</name></trkpt>
<trkpt lat="53.093638" lon="-1.639701"><ele>345</ele><time>2020-10-28T10:05:42Z</time><name>PT1256</name></trkpt>
<trkpt lat="53.093627" lon="-1.639706"><ele>345</ele><time>2020-10-28T10:05:46Z</time><name>PT1257</name></trkpt>
<trkpt lat="53.093626" lon="-1.639700"><ele>345</ele><time>2020-10-28T10:06:18Z</time><name>PT1258</name></trkpt>
<trkpt lat="53.093589" lon="-1.639633"><ele>345</ele><time>2020-10-28T10:06:22Z</time><name>PT1259</name></trkpt>
<trkpt lat="53.093568" lon="-1.639570"><ele>345</ele><time>2020-10-28T10:06:25Z</time><name>PT1260</name></trkpt>
<trkpt lat="53.093546" lon="-1.639519"><ele>345</ele><time>2020-10-28T10:06:30Z</time><name>PT1261</name></trkpt>
<trkpt lat="53.093552" lon="-1.639468"><ele>347</ele><time>2020-10-28T10:06:34Z</time><name>PT1262</name></trkpt>
<trkpt lat="53.093559" lon="-1.639450"><ele>347</ele><time>2020-10-28T10:06:37Z</time><name>PT1263</name></trkpt>
<trkpt lat="53.093556" lon="-1.639448"><ele>347</ele><time>2020-10-28T10:06:40Z</time><name>PT1264</name></trkpt>
<trkpt lat="53.093557" lon="-1.639442"><ele>348</ele><time>2020-10-28T10:06:43Z</time><name>PT1265</name></trkpt>
<trkpt lat="53.093561" lon="-1.639426"><ele>348</ele><time>2020-10-28T10:06:51Z</time><name>PT1266</name></trkpt>
<trkpt lat="53.093586" lon="-1.639402"><ele>349</ele><time>2020-10-28T10:06:54Z</time><name>PT1267</name></trkpt>
<trkpt lat="53.093590" lon="-1.639430"><ele>350</ele><time>2020-10-28T10:06:58Z</time><name>PT1268</name></trkpt>
<trkpt lat="53.093612" lon="-1.639448"><ele>351</ele><time>2020-10-28T10:07:01Z</time><name>PT1269</name></trkpt>
<trkpt lat="53.093627" lon="-1.639433"><ele>352</ele><time>2020-10-28T10:07:04Z</time><name>PT1270</name></trkpt>
<trkpt lat="53.093652" lon="-1.639397"><ele>356</ele><time>2020-10-28T10:07:07Z</time><name>PT1271</name></trkpt>
<trkpt lat="53.093672" lon="-1.639367"><ele>358</ele><time>2020-10-28T10:07:10Z</time><name>PT1272</name></trkpt>
<trkpt lat="53.093698" lon="-1.639351"><ele>359</ele><time>2020-10-28T10:07:15Z</time><name>PT1273</name></trkpt>
<trkpt lat="53.093725" lon="-1.639328"><ele>359</ele><time>2020-10-28T10:07:18Z</time><name>PT1274</name></trkpt>
<trkpt lat="53.093757" lon="-1.639306"><ele>359</ele><time>2020-10-28T10:07:21Z</time><name>PT1275</name></trkpt>
<trkpt lat="53.093772" lon="-1.639235"><ele>359</ele><time>2020-10-28T10:07:25Z</time><name>PT1276</name></trkpt>
<trkpt lat="53.093771" lon="-1.639186"><ele>359</ele><time>2020-10-28T10:07:28Z</time><name>PT1277</name></trkpt>
<trkpt lat="53.093783" lon="-1.639124"><ele>361</ele><time>2020-10-28T10:07:31Z</time><name>PT1278</name></trkpt>
<trkpt lat="53.093796" lon="-1.639059"><ele>361</ele><time>2020-10-28T10:07:36Z</time><name>PT1279</name></trkpt>
<trkpt lat="53.093801" lon="-1.638982"><ele>362</ele><time>2020-10-28T10:07:40Z</time><name>PT1280</name></trkpt>
<trkpt lat="53.093810" lon="-1.638927"><ele>362</ele><time>2020-10-28T10:07:43Z</time><name>PT1281</name></trkpt>
<trkpt lat="53.093820" lon="-1.638886"><ele>363</ele><time>2020-10-28T10:07:46Z</time><name>PT1282</name></trkpt>
<trkpt lat="53.093824" lon="-1.638823"><ele>364</ele><time>2020-10-28T10:07:51Z</time><name>PT1283</name></trkpt>
<trkpt lat="53.093815" lon="-1.638776"><ele>366</ele><time>2020-10-28T10:07:54Z</time><name>PT1284</name></trkpt>
<trkpt lat="53.093803" lon="-1.638719"><ele>366</ele><time>2020-10-28T10:07:58Z</time><name>PT1285</name></trkpt>
<trkpt lat="53.093805" lon="-1.638665"><ele>367</ele><time>2020-10-28T10:08:01Z</time><name>PT1286</name></trkpt>
<trkpt lat="53.093806" lon="-1.638603"><ele>368</ele><time>2020-10-28T10:08:06Z</time><name>PT1287</name></trkpt>
<trkpt lat="53.093818" lon="-1.638554"><ele>368</ele><time>2020-10-28T10:08:09Z</time><name>PT1288</name></trkpt>
<trkpt lat="53.093827" lon="-1.638508"><ele>368</ele><time>2020-10-28T10:08:12Z</time><name>PT1289</name></trkpt>
<trkpt lat="53.093839" lon="-1.638461"><ele>369</ele><time>2020-10-28T10:08:16Z</time><name>PT1290</name></trkpt>
<trkpt lat="53.093849" lon="-1.638423"><ele>371</ele><time>2020-10-28T10:08:19Z</time><name>PT1291</name></trkpt>
<trkpt lat="53.093862" lon="-1.638404"><ele>371</ele><time>2020-10-28T10:08:22Z</time><name>PT1292</name></trkpt>
<trkpt lat="53.093875" lon="-1.638380"><ele>372</ele><time>2020-10-28T10:08:25Z</time><name>PT1293</name></trkpt>
<trkpt lat="53.093893" lon="-1.638351"><ele>372</ele><time>2020-10-28T10:08:28Z</time><name>PT1294</name></trkpt>
<trkpt lat="53.093909" lon="-1.638347"><ele>372</ele><time>2020-10-28T10:08:31Z</time><name>PT1295</name></trkpt>
<trkpt lat="53.093938" lon="-1.638359"><ele>372</ele><time>2020-10-28T10:08:34Z</time><name>PT1296</name></trkpt>
<trkpt lat="53.093975" lon="-1.638366"><ele>372</ele><time>2020-10-28T10:08:37Z</time><name>PT1297</name></trkpt>
<trkpt lat="53.094017" lon="-1.638392"><ele>372</ele><time>2020-10-28T10:08:42Z</time><name>PT1298</name></trkpt>
<trkpt lat="53.094050" lon="-1.638418"><ele>372</ele><time>2020-10-28T10:08:46Z</time><name>PT1299</name></trkpt>
<trkpt lat="53.094071" lon="-1.638441"><ele>375</ele><time>2020-10-28T10:08:49Z</time><name>PT1300</name></trkpt>
<trkpt lat="53.094112" lon="-1.638469"><ele>376</ele><time>2020-10-28T10:08:52Z</time><name>PT1301</name></trkpt>
<trkpt lat="53.094151" lon="-1.638500"><ele>377</ele><time>2020-10-28T10:08:57Z</time><name>PT1302</name></trkpt>
<trkpt lat="53.094172" lon="-1.638527"><ele>379</ele><time>2020-10-28T10:09:00Z</time><name>PT1303</name></trkpt>
<trkpt lat="53.094197" lon="-1.638553"><ele>380</ele><time>2020-10-28T10:09:03Z</time><name>PT1304</name></trkpt>
<trkpt lat="53.094224" lon="-1.638607"><ele>380</ele><time>2020-10-28T10:09:07Z</time><name>PT1305</name></trkpt>
<trkpt lat="53.094251" lon="-1.638644"><ele>380</ele><time>2020-10-28T10:09:10Z</time><name>PT1306</name></trkpt>
<trkpt lat="53.094283" lon="-1.638677"><ele>381</ele><time>2020-10-28T10:09:13Z</time><name>PT1307</name></trkpt>
<trkpt lat="53.094307" lon="-1.638736"><ele>381</ele><time>2020-10-28T10:09:16Z</time><name>PT1308</name></trkpt>
<trkpt lat="53.094334" lon="-1.638787"><ele>381</ele><time>2020-10-28T10:09:21Z</time><name>PT1309</name></trkpt>
<trkpt lat="53.094352" lon="-1.638829"><ele>383</ele><time>2020-10-28T10:09:24Z</time><name>PT1310</name></trkpt>
<trkpt lat="53.094372" lon="-1.638856"><ele>383</ele><time>2020-10-28T10:09:27Z</time><name>PT1311</name></trkpt>
<trkpt lat="53.094406" lon="-1.638897"><ele>382</ele><time>2020-10-28T10:09:31Z</time><name>PT1312</name></trkpt>
<trkpt lat="53.094446" lon="-1.638942"><ele>382</ele><time>2020-10-28T10:09:34Z</time><name>PT1313</name></trkpt>
<trkpt lat="53.094467" lon="-1.638965"><ele>381</ele><time>2020-10-28T10:09:39Z</time><name>PT1314</name></trkpt>
<trkpt lat="53.094496" lon="-1.638995"><ele>382</ele><time>2020-10-28T10:09:43Z</time><name>PT1315</name></trkpt>
<trkpt lat="53.094524" lon="-1.639013"><ele>381</ele><time>2020-10-28T10:09:46Z</time><name>PT1316</name></trkpt>
<trkpt lat="53.094537" lon="-1.639021"><ele>381</ele><time>2020-10-28T10:09:50Z</time><name>PT1317</name></trkpt>
<trkpt lat="53.094538" lon="-1.639021"><ele>380</ele><time>2020-10-28T10:09:53Z</time><name>PT1318</name></trkpt>
<trkpt lat="53.094537" lon="-1.639021"><ele>380</ele><time>2020-10-28T10:09:59Z</time><name>PT1319</name></trkpt>
<trkpt lat="53.094537" lon="-1.639023"><ele>381</ele><time>2020-10-28T10:10:03Z</time><name>PT1320</name></trkpt>
<trkpt lat="53.094546" lon="-1.639018"><ele>380</ele><time>2020-10-28T10:10:28Z</time><name>PT1321</name></trkpt>
<trkpt lat="53.094572" lon="-1.639026"><ele>379</ele><time>2020-10-28T10:10:31Z</time><name>PT1322</name></trkpt>
<trkpt lat="53.094628" lon="-1.639047"><ele>378</ele><time>2020-10-28T10:10:34Z</time><name>PT1323</name></trkpt>
<trkpt lat="53.094667" lon="-1.639064"><ele>378</ele><time>2020-10-28T10:10:37Z</time><name>PT1324</name></trkpt>
<trkpt lat="53.094697" lon="-1.639080"><ele>379</ele><time>2020-10-28T10:10:42Z</time><name>PT1325</name></trkpt>
<trkpt lat="53.094724" lon="-1.639092"><ele>379</ele><time>2020-10-28T10:10:46Z</time><name>PT1326</name></trkpt>
<trkpt lat="53.094728" lon="-1.639096"><ele>379</ele><time>2020-10-28T10:10:49Z</time><name>PT1327</name></trkpt>
<trkpt lat="53.094728" lon="-1.639101"><ele>380</ele><time>2020-10-28T10:10:52Z</time><name>PT1328</name></trkpt>
<trkpt lat="53.094729" lon="-1.639104"><ele>380</ele><time>2020-10-28T10:10:57Z</time><name>PT1329</name></trkpt>
<trkpt lat="53.094725" lon="-1.639106"><ele>380</ele><time>2020-10-28T10:11:15Z</time><name>PT1330</name></trkpt>
<trkpt lat="53.094712" lon="-1.639124"><ele>380</ele><time>2020-10-28T10:11:18Z</time><name>PT1331</name></trkpt>
<trkpt lat="53.094697" lon="-1.639164"><ele>380</ele><time>2020-10-28T10:11:22Z</time><name>PT1332</name></trkpt>
<trkpt lat="53.094684" lon="-1.639168"><ele>379</ele><time>2020-10-28T10:11:25Z</time><name>PT1333</name></trkpt>
<trkpt lat="53.094664" lon="-1.639180"><ele>378</ele><time>2020-10-28T10:11:30Z</time><name>PT1334</name></trkpt>
<trkpt lat="53.094642" lon="-1.639215"><ele>378</ele><time>2020-10-28T10:11:33Z</time><name>PT1335</name></trkpt>
<trkpt lat="53.094602" lon="-1.639240"><ele>377</ele><time>2020-10-28T10:11:37Z</time><name>PT1336</name></trkpt>
<trkpt lat="53.094579" lon="-1.639260"><ele>378</ele><time>2020-10-28T10:11:40Z</time><name>PT1337</name></trkpt>
<trkpt lat="53.094553" lon="-1.639270"><ele>379</ele><time>2020-10-28T10:11:45Z</time><name>PT1338</name></trkpt>
<trkpt lat="53.094567" lon="-1.639300"><ele>378</ele><time>2020-10-28T10:11:49Z</time><name>PT1339</name></trkpt>
<trkpt lat="53.094577" lon="-1.639340"><ele>376</ele><time>2020-10-28T10:11:52Z</time><name>PT1340</name></trkpt>
<trkpt lat="53.094577" lon="-1.639355"><ele>375</ele><time>2020-10-28T10:11:55Z</time><name>PT1341</name></trkpt>
<trkpt lat="53.094573" lon="-1.639363"><ele>375</ele><time>2020-10-28T10:12:00Z</time><name>PT1342</name></trkpt>
<trkpt lat="53.094593" lon="-1.639371"><ele>373</ele><time>2020-10-28T10:12:07Z</time><name>PT1343</name></trkpt>
<trkpt lat="53.094589" lon="-1.639427"><ele>373</ele><time>2020-10-28T10:12:12Z</time><name>PT1344</name></trkpt>
<trkpt lat="53.094578" lon="-1.639448"><ele>371</ele><time>2020-10-28T10:12:16Z</time><name>PT1345</name></trkpt>
<trkpt lat="53.094568" lon="-1.639480"><ele>371</ele><time>2020-10-28T10:12:19Z</time><name>PT1346</name></trkpt>
<trkpt lat="53.094557" lon="-1.639513"><ele>371</ele><time>2020-10-28T10:12:24Z</time><name>PT1347</name></trkpt>
<trkpt lat="53.094555" lon="-1.639543"><ele>370</ele><time>2020-10-28T10:12:27Z</time><name>PT1348</name></trkpt>
<trkpt lat="53.094566" lon="-1.639589"><ele>369</ele><time>2020-10-28T10:12:31Z</time><name>PT1349</name></trkpt>
<trkpt lat="53.094556" lon="-1.639623"><ele>368</ele><time>2020-10-28T10:12:34Z</time><name>PT1350</name></trkpt>
<trkpt lat="53.094545" lon="-1.639656"><ele>367</ele><time>2020-10-28T10:12:37Z</time><name>PT1351</name></trkpt>
<trkpt lat="53.094536" lon="-1.639679"><ele>366</ele><time>2020-10-28T10:12:40Z</time><name>PT1352</name></trkpt>
<trkpt lat="53.094531" lon="-1.639693"><ele>365</ele><time>2020-10-28T10:12:45Z</time><name>PT1353</name></trkpt>
<trkpt lat="53.094509" lon="-1.639721"><ele>365</ele><time>2020-10-28T10:12:52Z</time><name>PT1354</name></trkpt>
<trkpt lat="53.094493" lon="-1.639761"><ele>365</ele><time>2020-10-28T10:12:55Z</time><name>PT1355</name></trkpt>
<trkpt lat="53.094480" lon="-1.639795"><ele>364</ele><time>2020-10-28T10:12:58Z</time><name>PT1356</name></trkpt>
<trkpt lat="53.094459" lon="-1.639829"><ele>365</ele><time>2020-10-28T10:13:01Z</time><name>PT1357</name></trkpt>
<trkpt lat="53.094429" lon="-1.639879"><ele>365</ele><time>2020-10-28T10:13:06Z</time><name>PT1358</name></trkpt>
<trkpt lat="53.094412" lon="-1.639920"><ele>364</ele><time>2020-10-28T10:13:10Z</time><name>PT1359</name></trkpt>
<trkpt lat="53.094375" lon="-1.639931"><ele>363</ele><time>2020-10-28T10:13:13Z</time><name>PT1360</name></trkpt>
<trkpt lat="53.094356" lon="-1.639948"><ele>364</ele><time>2020-10-28T10:13:16Z</time><name>PT1361</name></trkpt>
<trkpt lat="53.094341" lon="-1.639984"><ele>362</ele><time>2020-10-28T10:13:19Z</time><name>PT1362</name></trkpt>
<trkpt lat="53.094334" lon="-1.639989"><ele>362</ele><time>2020-10-28T10:13:22Z</time><name>PT1363</name></trkpt>
<trkpt lat="53.094331" lon="-1.639992"><ele>361</ele><time>2020-10-28T10:13:25Z</time><name>PT1364</name></trkpt>
<trkpt lat="53.094287" lon="-1.639986"><ele>362</ele><time>2020-10-28T10:13:30Z</time><name>PT1365</name></trkpt>
<trkpt lat="53.094239" lon="-1.639981"><ele>359</ele><time>2020-10-28T10:13:34Z</time><name>PT1366</name></trkpt>
<trkpt lat="53.094213" lon="-1.639980"><ele>358</ele><time>2020-10-28T10:13:37Z</time><name>PT1367</name></trkpt>
<trkpt lat="53.094173" lon="-1.640001"><ele>357</ele><time>2020-10-28T10:13:40Z</time><name>PT1368</name></trkpt>
<trkpt lat="53.094164" lon="-1.640010"><ele>357</ele><time>2020-10-28T10:13:44Z</time><name>PT1369</name></trkpt>
<trkpt lat="53.094141" lon="-1.640043"><ele>356</ele><time>2020-10-28T10:13:48Z</time><name>PT1370</name></trkpt>
<trkpt lat="53.094133" lon="-1.640094"><ele>356</ele><time>2020-10-28T10:13:51Z</time><name>PT1371</name></trkpt>
<trkpt lat="53.094121" lon="-1.640164"><ele>355</ele><time>2020-10-28T10:13:55Z</time><name>PT1372</name></trkpt>
<trkpt lat="53.094106" lon="-1.640173"><ele>354</ele><time>2020-10-28T10:13:58Z</time><name>PT1373</name></trkpt>
<trkpt lat="53.094085" lon="-1.640181"><ele>353</ele><time>2020-10-28T10:14:01Z</time><name>PT1374</name></trkpt>
<trkpt lat="53.094053" lon="-1.640179"><ele>352</ele><time>2020-10-28T10:14:04Z</time><name>PT1375</name></trkpt>
<trkpt lat="53.094039" lon="-1.640186"><ele>352</ele><time>2020-10-28T10:14:07Z</time><name>PT1376</name></trkpt>
<trkpt lat="53.094025" lon="-1.640199"><ele>352</ele><time>2020-10-28T10:14:10Z</time><name>PT1377</name></trkpt>
<trkpt lat="53.094011" lon="-1.640213"><ele>350</ele><time>2020-10-28T10:14:13Z</time><name>PT1378</name></trkpt>
<trkpt lat="53.093992" lon="-1.640224"><ele>351</ele><time>2020-10-28T10:14:18Z</time><name>PT1379</name></trkpt>
<trkpt lat="53.093972" lon="-1.640248"><ele>351</ele><time>2020-10-28T10:14:21Z</time><name>PT1380</name></trkpt>
<trkpt lat="53.093966" lon="-1.640284"><ele>349</ele><time>2020-10-28T10:14:25Z</time><name>PT1381</name></trkpt>
<trkpt lat="53.093943" lon="-1.640340"><ele>349</ele><time>2020-10-28T10:14:28Z</time><name>PT1382</name></trkpt>
<trkpt lat="53.093925" lon="-1.640371"><ele>348</ele><time>2020-10-28T10:14:33Z</time><name>PT1383</name></trkpt>
<trkpt lat="53.093903" lon="-1.640394"><ele>348</ele><time>2020-10-28T10:14:36Z</time><name>PT1384</name></trkpt>
<trkpt lat="53.093885" lon="-1.640408"><ele>349</ele><time>2020-10-28T10:14:40Z</time><name>PT1385</name></trkpt>
<trkpt lat="53.093872" lon="-1.640418"><ele>349</ele><time>2020-10-28T10:14:43Z</time><name>PT1386</name></trkpt>
<trkpt lat="53.093842" lon="-1.640453"><ele>348</ele><time>2020-10-28T10:14:47Z</time><name>PT1387</name></trkpt>
<trkpt lat="53.093821" lon="-1.640484"><ele>349</ele><time>2020-10-28T10:14:51Z</time><name>PT1388</name></trkpt>
<trkpt lat="53.093798" lon="-1.640493"><ele>348</ele><time>2020-10-28T10:14:54Z</time><name>PT1389</name></trkpt>
<trkpt lat="53.093766" lon="-1.640513"><ele>348</ele><time>2020-10-28T10:14:58Z</time><name>PT1390</name></trkpt>
<trkpt lat="53.093730" lon="-1.640543"><ele>346</ele><time>2020-10-28T10:15:01Z</time><name>PT1391</name></trkpt>
<trkpt lat="53.093697" lon="-1.640582"><ele>344</ele><time>2020-10-28T10:15:06Z</time><name>PT1392</name></trkpt>
<trkpt lat="53.093668" lon="-1.640613"><ele>344</ele><time>2020-10-28T10:15:09Z</time><name>PT1393</name></trkpt>
<trkpt lat="53.093640" lon="-1.640648"><ele>343</ele><time>2020-10-28T10:15:12Z</time><name>PT1394</name></trkpt>
<trkpt lat="53.093616" lon="-1.640670"><ele>343</ele><time>2020-10-28T10:15:15Z</time><name>PT1395</name></trkpt>
<trkpt lat="53.093595" lon="-1.640699"><ele>343</ele><time>2020-10-28T10:15:18Z</time><name>PT1396</name></trkpt>
<trkpt lat="53.093567" lon="-1.640721"><ele>343</ele><time>2020-10-28T10:15:21Z</time><name>PT1397</name></trkpt>
<trkpt lat="53.093531" lon="-1.640754"><ele>343</ele><time>2020-10-28T10:15:25Z</time><name>PT1398</name></trkpt>
<trkpt lat="53.093495" lon="-1.640794"><ele>342</ele><time>2020-10-28T10:15:28Z</time><name>PT1399</name></trkpt>
<trkpt lat="53.093459" lon="-1.640844"><ele>341</ele><time>2020-10-28T10:15:33Z</time><name>PT1400</name></trkpt>
<trkpt lat="53.093433" lon="-1.640873"><ele>341</ele><time>2020-10-28T10:15:36Z</time><name>PT1401</name></trkpt>
<trkpt lat="53.093423" lon="-1.640885"><ele>339</ele><time>2020-10-28T10:15:40Z</time><name>PT1402</name></trkpt>
<trkpt lat="53.093402" lon="-1.640903"><ele>339</ele><time>2020-10-28T10:15:46Z</time><name>PT1403</name></trkpt>
<trkpt lat="53.093377" lon="-1.640937"><ele>339</ele><time>2020-10-28T10:15:49Z</time><name>PT1404</name></trkpt>
<trkpt lat="53.093343" lon="-1.640969"><ele>339</ele><time>2020-10-28T10:15:52Z</time><name>PT1405</name></trkpt>
<trkpt lat="53.093299" lon="-1.641007"><ele>338</ele><time>2020-10-28T10:15:57Z</time><name>PT1406</name></trkpt>
<trkpt lat="53.093265" lon="-1.641049"><ele>338</ele><time>2020-10-28T10:16:01Z</time><name>PT1407</name></trkpt>
<trkpt lat="53.093227" lon="-1.641088"><ele>338</ele><time>2020-10-28T10:16:04Z</time><name>PT1408</name></trkpt>
<trkpt lat="53.093203" lon="-1.641109"><ele>337</ele><time>2020-10-28T10:16:07Z</time><name>PT1409</name></trkpt>
<trkpt lat="53.093182" lon="-1.641136"><ele>338</ele><time>2020-10-28T10:16:10Z</time><name>PT1410</name></trkpt>
<trkpt lat="53.093148" lon="-1.641178"><ele>337</ele><time>2020-10-28T10:16:15Z</time><name>PT1411</name></trkpt>
<trkpt lat="53.093104" lon="-1.641213"><ele>336</ele><time>2020-10-28T10:16:19Z</time><name>PT1412</name></trkpt>
<trkpt lat="53.093066" lon="-1.641231"><ele>334</ele><time>2020-10-28T10:16:22Z</time><name>PT1413</name></trkpt>
<trkpt lat="53.093038" lon="-1.641238"><ele>331</ele><time>2020-10-28T10:16:25Z</time><name>PT1414</name></trkpt>
<trkpt lat="53.092999" lon="-1.641239"><ele>329</ele><time>2020-10-28T10:16:30Z</time><name>PT1415</name></trkpt>
<trkpt lat="53.092965" lon="-1.641223"><ele>327</ele><time>2020-10-28T10:16:33Z</time><name>PT1416</name></trkpt>
<trkpt lat="53.092929" lon="-1.641197"><ele>325</ele><time>2020-10-28T10:16:37Z</time><name>PT1417</name></trkpt>
<trkpt lat="53.092906" lon="-1.641177"><ele>324</ele><time>2020-10-28T10:16:40Z</time><name>PT1418</name></trkpt>
<trkpt lat="53.092887" lon="-1.641161"><ele>324</ele><time>2020-10-28T10:16:43Z</time><name>PT1419</name></trkpt>
<trkpt lat="53.092866" lon="-1.641156"><ele>328</ele><time>2020-10-28T10:16:46Z</time><name>PT1420</name></trkpt>
<trkpt lat="53.092856" lon="-1.641160"><ele>329</ele><time>2020-10-28T10:16:49Z</time><name>PT1421</name></trkpt>
<trkpt lat="53.092843" lon="-1.641145"><ele>328</ele><time>2020-10-28T10:16:54Z</time><name>PT1422</name></trkpt>
<trkpt lat="53.092830" lon="-1.641148"><ele>328</ele><time>2020-10-28T10:16:58Z</time><name>PT1423</name></trkpt>
<trkpt lat="53.092802" lon="-1.641151"><ele>328</ele><time>2020-10-28T10:17:01Z</time><name>PT1424</name></trkpt>
<trkpt lat="53.092801" lon="-1.641186"><ele>328</ele><time>2020-10-28T10:17:04Z</time><name>PT1425</name></trkpt>
<trkpt lat="53.092806" lon="-1.641208"><ele>329</ele><time>2020-10-28T10:17:07Z</time><name>PT1426</name></trkpt>
<trkpt lat="53.092816" lon="-1.641227"><ele>329</ele><time>2020-10-28T10:17:10Z</time><name>PT1427</name></trkpt>
<trkpt lat="53.092819" lon="-1.641222"><ele>328</ele><time>2020-10-28T10:17:16Z</time><name>PT1428</name></trkpt>
<trkpt lat="53.092818" lon="-1.641226"><ele>328</ele><time>2020-10-28T10:17:16Z</time><name>PT1429</name></trkpt>
<trkpt lat="53.092818" lon="-1.641232"><ele>328</ele><time>2020-10-28T10:17:18Z</time><name>PT1430</name></trkpt>
<trkpt lat="53.092824" lon="-1.641239"><ele>328</ele><time>2020-10-28T10:17:19Z</time><name>PT1431</name></trkpt>
<trkpt lat="53.092828" lon="-1.641247"><ele>328</ele><time>2020-10-28T10:17:19Z</time><name>PT1432</name></trkpt>
<trkpt lat="53.092832" lon="-1.641257"><ele>328</ele><time>2020-10-28T10:17:21Z</time><name>PT1433</name></trkpt>
<trkpt lat="53.092836" lon="-1.641264"><ele>328</ele><time>2020-10-28T10:17:22Z</time><name>PT1434</name></trkpt>
<trkpt lat="53.092836" lon="-1.641276"><ele>328</ele><time>2020-10-28T10:17:22Z</time><name>PT1435</name></trkpt>
<trkpt lat="53.092838" lon="-1.641284"><ele>328</ele><time>2020-10-28T10:17:24Z</time><name>PT1436</name></trkpt>
<trkpt lat="53.092847" lon="-1.641297"><ele>329</ele><time>2020-10-28T10:17:25Z</time><name>PT1437</name></trkpt>
<trkpt lat="53.092851" lon="-1.641312"><ele>329</ele><time>2020-10-28T10:17:25Z</time><name>PT1438</name></trkpt>
<trkpt lat="53.092853" lon="-1.641325"><ele>329</ele><time>2020-10-28T10:17:27Z</time><name>PT1439</name></trkpt>
<trkpt lat="53.092854" lon="-1.641336"><ele>329</ele><time>2020-10-28T10:17:28Z</time><name>PT1440</name></trkpt>
<trkpt lat="53.092855" lon="-1.641347"><ele>328</ele><time>2020-10-28T10:17:28Z</time><name>PT1441</name></trkpt>
<trkpt lat="53.092862" lon="-1.641359"><ele>329</ele><time>2020-10-28T10:17:30Z</time><name>PT1442</name></trkpt>
<trkpt lat="53.092868" lon="-1.641373"><ele>329</ele><time>2020-10-28T10:17:31Z</time><name>PT1443</name></trkpt>
<trkpt lat="53.092873" lon="-1.641383"><ele>329</ele><time>2020-10-28T10:17:31Z</time><name>PT1444</name></trkpt>
<trkpt lat="53.092877" lon="-1.641396"><ele>329</ele><time>2020-10-28T10:17:33Z</time><name>PT1445</name></trkpt>
<trkpt lat="53.092880" lon="-1.641409"><ele>329</ele><time>2020-10-28T10:17:34Z</time><name>PT1446</name></trkpt>
<trkpt lat="53.092881" lon="-1.641419"><ele>329</ele><time>2020-10-28T10:17:34Z</time><name>PT1447</name></trkpt>
<trkpt lat="53.092883" lon="-1.641433"><ele>328</ele><time>2020-10-28T10:17:36Z</time><name>PT1448</name></trkpt>
<trkpt lat="53.092887" lon="-1.641443"><ele>328</ele><time>2020-10-28T10:17:37Z</time><name>PT1449</name></trkpt>
<trkpt lat="53.092892" lon="-1.641457"><ele>328</ele><time>2020-10-28T10:17:37Z</time><name>PT1450</name></trkpt>
<trkpt lat="53.092900" lon="-1.641463"><ele>328</ele><time>2020-10-28T10:17:39Z</time><name>PT1451</name></trkpt>
<trkpt lat="53.092903" lon="-1.641473"><ele>328</ele><time>2020-10-28T10:17:40Z</time><name>PT1452</name></trkpt>
<trkpt lat="53.092907" lon="-1.641485"><ele>328</ele><time>2020-10-28T10:17:40Z</time><name>PT1453</name></trkpt>
<trkpt lat="53.092911" lon="-1.641494"><ele>327</ele><time>2020-10-28T10:17:42Z</time><name>PT1454</name></trkpt>
<trkpt lat="53.092914" lon="-1.641508"><ele>327</ele><time>2020-10-28T10:17:43Z</time><name>PT1455</name></trkpt>
<trkpt lat="53.092921" lon="-1.641522"><ele>327</ele><time>2020-10-28T10:17:43Z</time><name>PT1456</name></trkpt>
<trkpt lat="53.092928" lon="-1.641536"><ele>327</ele><time>2020-10-28T10:17:45Z</time><name>PT1457</name></trkpt>
<trkpt lat="53.092933" lon="-1.641550"><ele>327</ele><time>2020-10-28T10:17:46Z</time><name>PT1458</name></trkpt>
<trkpt lat="53.092937" lon="-1.641564"><ele>326</ele><time>2020-10-28T10:17:46Z</time><name>PT1459</name></trkpt>
<trkpt lat="53.092934" lon="-1.641575"><ele>324</ele><time>2020-10-28T10:17:48Z</time><name>PT1460</name></trkpt>
<trkpt lat="53.092941" lon="-1.641590"><ele>324</ele><time>2020-10-28T10:17:49Z</time><name>PT1461</name></trkpt>
<trkpt lat="53.092953" lon="-1.641608"><ele>326</ele><time>2020-10-28T10:17:49Z</time><name>PT1462</name></trkpt>
<trkpt lat="53.092960" lon="-1.641618"><ele>327</ele><time>2020-10-28T10:17:51Z</time><name>PT1463</name></trkpt>
<trkpt lat="53.092971" lon="-1.641632"><ele>328</ele><time>2020-10-28T10:17:52Z</time><name>PT1464</name></trkpt>
<trkpt lat="53.092980" lon="-1.641642"><ele>328</ele><time>2020-10-28T10:17:53Z</time><name>PT1465</name></trkpt>
<trkpt lat="53.092986" lon="-1.641653"><ele>328</ele><time>2020-10-28T10:17:54Z</time><name>PT1466</name></trkpt>
<trkpt lat="53.092991" lon="-1.641661"><ele>327</ele><time>2020-10-28T10:17:55Z</time><name>PT1467</name></trkpt>
<trkpt lat="53.092999" lon="-1.641673"><ele>327</ele><time>2020-10-28T10:17:55Z</time><name>PT1468</name></trkpt>
<trkpt lat="53.093008" lon="-1.641687"><ele>328</ele><time>2020-10-28T10:17:57Z</time><name>PT1469</name></trkpt>
<trkpt lat="53.093011" lon="-1.641697"><ele>327</ele><time>2020-10-28T10:17:58Z</time><name>PT1470</name></trkpt>
<trkpt lat="53.093019" lon="-1.641703"><ele>327</ele><time>2020-10-28T10:17:59Z</time><name>PT1471</name></trkpt>
<trkpt lat="53.093022" lon="-1.641712"><ele>326</ele><time>2020-10-28T10:18:00Z</time><name>PT1472</name></trkpt>
<trkpt lat="53.093023" lon="-1.641727"><ele>325</ele><time>2020-10-28T10:18:01Z</time><name>PT1473</name></trkpt>
<trkpt lat="53.093027" lon="-1.641737"><ele>324</ele><time>2020-10-28T10:18:01Z</time><name>PT1474</name></trkpt>
<trkpt lat="53.093037" lon="-1.641744"><ele>325</ele><time>2020-10-28T10:18:03Z</time><name>PT1475</name></trkpt>
<trkpt lat="53.093044" lon="-1.641754"><ele>324</ele><time>2020-10-28T10:18:04Z</time><name>PT1476</name></trkpt>
<trkpt lat="53.093051" lon="-1.641769"><ele>324</ele><time>2020-10-28T10:18:05Z</time><name>PT1477</name></trkpt>
<trkpt lat="53.093057" lon="-1.641779"><ele>324</ele><time>2020-10-28T10:18:06Z</time><name>PT1478</name></trkpt>
<trkpt lat="53.093065" lon="-1.641786"><ele>324</ele><time>2020-10-28T10:18:07Z</time><name>PT1479</name></trkpt>
<trkpt lat="53.093075" lon="-1.641797"><ele>324</ele><time>2020-10-28T10:18:07Z</time><name>PT1480</name></trkpt>
<trkpt lat="53.093085" lon="-1.641806"><ele>324</ele><time>2020-10-28T10:18:09Z</time><name>PT1481</name></trkpt>
<trkpt lat="53.093095" lon="-1.641820"><ele>324</ele><time>2020-10-28T10:18:10Z</time><name>PT1482</name></trkpt>
<trkpt lat="53.093107" lon="-1.641833"><ele>325</ele><time>2020-10-28T10:18:10Z</time><name>PT1483</name></trkpt>
<trkpt lat="53.093114" lon="-1.641846"><ele>325</ele><time>2020-10-28T10:18:12Z</time><name>PT1484</name></trkpt>
<trkpt lat="53.093119" lon="-1.641857"><ele>324</ele><time>2020-10-28T10:18:13Z</time><name>PT1485</name></trkpt>
<trkpt lat="53.093126" lon="-1.641868"><ele>324</ele><time>2020-10-28T10:18:13Z</time><name>PT1486</name></trkpt>
<trkpt lat="53.093137" lon="-1.641880"><ele>324</ele><time>2020-10-28T10:18:15Z</time><name>PT1487</name></trkpt>
<trkpt lat="53.093149" lon="-1.641893"><ele>324</ele><time>2020-10-28T10:18:16Z</time><name>PT1488</name></trkpt>
<trkpt lat="53.093157" lon="-1.641905"><ele>324</ele><time>2020-10-28T10:18:16Z</time><name>PT1489</name></trkpt>
<trkpt lat="53.093170" lon="-1.641920"><ele>325</ele><time>2020-10-28T10:18:18Z</time><name>PT1490</name></trkpt>
<trkpt lat="53.093177" lon="-1.641931"><ele>325</ele><time>2020-10-28T10:18:19Z</time><name>PT1491</name></trkpt>
<trkpt lat="53.093188" lon="-1.641942"><ele>325</ele><time>2020-10-28T10:18:19Z</time><name>PT1492</name></trkpt>
<trkpt lat="53.093195" lon="-1.641952"><ele>324</ele><time>2020-10-28T10:18:21Z</time><name>PT1493</name></trkpt>
<trkpt lat="53.093204" lon="-1.641967"><ele>324</ele><time>2020-10-28T10:18:22Z</time><name>PT1494</name></trkpt>
<trkpt lat="53.093213" lon="-1.641979"><ele>324</ele><time>2020-10-28T10:18:22Z</time><name>PT1495</name></trkpt>
<trkpt lat="53.093226" lon="-1.641986"><ele>324</ele><time>2020-10-28T10:18:24Z</time><name>PT1496</name></trkpt>
<trkpt lat="53.093237" lon="-1.641991"><ele>324</ele><time>2020-10-28T10:18:25Z</time><name>PT1497</name></trkpt>
<trkpt lat="53.093244" lon="-1.642000"><ele>324</ele><time>2020-10-28T10:18:25Z</time><name>PT1498</name></trkpt>
<trkpt lat="53.093254" lon="-1.642008"><ele>324</ele><time>2020-10-28T10:18:27Z</time><name>PT1499</name></trkpt>
<trkpt lat="53.093261" lon="-1.642021"><ele>324</ele><time>2020-10-28T10:18:28Z</time><name>PT1500</name></trkpt>
<trkpt lat="53.093271" lon="-1.642033"><ele>324</ele><time>2020-10-28T10:18:28Z</time><name>PT1501</name></trkpt>
<trkpt lat="53.093280" lon="-1.642044"><ele>324</ele><time>2020-10-28T10:18:30Z</time><name>PT1502</name></trkpt>
<trkpt lat="53.093290" lon="-1.642055"><ele>324</ele><time>2020-10-28T10:18:31Z</time><name>PT1503</name></trkpt>
<trkpt lat="53.093301" lon="-1.642064"><ele>324</ele><time>2020-10-28T10:18:31Z</time><name>PT1504</name></trkpt>
<trkpt lat="53.093311" lon="-1.642074"><ele>324</ele><time>2020-10-28T10:18:33Z</time><name>PT1505</name></trkpt>
<trkpt lat="53.093322" lon="-1.642083"><ele>324</ele><time>2020-10-28T10:18:34Z</time><name>PT1506</name></trkpt>
<trkpt lat="53.093332" lon="-1.642092"><ele>324</ele><time>2020-10-28T10:18:34Z</time><name>PT1507</name></trkpt>
<trkpt lat="53.093343" lon="-1.642103"><ele>325</ele><time>2020-10-28T10:18:36Z</time><name>PT1508</name></trkpt>
<trkpt lat="53.093350" lon="-1.642117"><ele>325</ele><time>2020-10-28T10:18:37Z</time><name>PT1509</name></trkpt>
<trkpt lat="53.093354" lon="-1.642131"><ele>325</ele><time>2020-10-28T10:18:37Z</time><name>PT1510</name></trkpt>
<trkpt lat="53.093360" lon="-1.642137"><ele>325</ele><time>2020-10-28T10:18:39Z</time><name>PT1511</name></trkpt>
<trkpt lat="53.093366" lon="-1.642140"><ele>326</ele><time>2020-10-28T10:18:40Z</time><name>PT1512</name></trkpt>
<trkpt lat="53.093369" lon="-1.642145"><ele>326</ele><time>2020-10-28T10:18:40Z</time><name>PT1513</name></trkpt>
<trkpt lat="53.093367" lon="-1.642153"><ele>327</ele><time>2020-10-28T10:18:42Z</time><name>PT1514</name></trkpt>
<trkpt lat="53.093362" lon="-1.642162"><ele>326</ele><time>2020-10-28T10:18:43Z</time><name>PT1515</name></trkpt>
<trkpt lat="53.093360" lon="-1.642167"><ele>326</ele><time>2020-10-28T10:18:43Z</time><name>PT1516</name></trkpt>
<trkpt lat="53.093362" lon="-1.642172"><ele>326</ele><time>2020-10-28T10:18:45Z</time><name>PT1517</name></trkpt>
<trkpt lat="53.093361" lon="-1.642178"><ele>326</ele><time>2020-10-28T10:18:46Z</time><name>PT1518</name></trkpt>
<trkpt lat="53.093360" lon="-1.642183"><ele>325</ele><time>2020-10-28T10:18:46Z</time><name>PT1519</name></trkpt>
<trkpt lat="53.093360" lon="-1.642187"><ele>325</ele><time>2020-10-28T10:18:48Z</time><name>PT1520</name></trkpt>
<trkpt lat="53.093365" lon="-1.642196"><ele>325</ele><time>2020-10-28T10:18:49Z</time><name>PT1521</name></trkpt>
<trkpt lat="53.093372" lon="-1.642209"><ele>325</ele><time>2020-10-28T10:18:49Z</time><name>PT1522</name></trkpt>
<trkpt lat="53.093382" lon="-1.642220"><ele>325</ele><time>2020-10-28T10:18:51Z</time><name>PT1523</name></trkpt>
<trkpt lat="53.093391" lon="-1.642232"><ele>324</ele><time>2020-10-28T10:18:52Z</time><name>PT1524</name></trkpt>
<trkpt lat="53.093400" lon="-1.642240"><ele>324</ele><time>2020-10-28T10:18:52Z</time><name>PT1525</name></trkpt>
<trkpt lat="53.093407" lon="-1.642251"><ele>324</ele><time>2020-10-28T10:18:54Z</time><name>PT1526</name></trkpt>
<trkpt lat="53.093416" lon="-1.642262"><ele>324</ele><time>2020-10-28T10:18:55Z</time><name>PT1527</name></trkpt>
<trkpt lat="53.093427" lon="-1.642269"><ele>325</ele><time>2020-10-28T10:18:55Z</time><name>PT1528</name></trkpt>
<trkpt lat="53.093438" lon="-1.642276"><ele>325</ele><time>2020-10-28T10:18:57Z</time><name>PT1529</name></trkpt>
<trkpt lat="53.093447" lon="-1.642285"><ele>325</ele><time>2020-10-28T10:18:58Z</time><name>PT1530</name></trkpt>
<trkpt lat="53.093457" lon="-1.642293"><ele>325</ele><time>2020-10-28T10:18:58Z</time><name>PT1531</name></trkpt>
<trkpt lat="53.093466" lon="-1.642302"><ele>325</ele><time>2020-10-28T10:19:00Z</time><name>PT1532</name></trkpt>
<trkpt lat="53.093476" lon="-1.642315"><ele>325</ele><time>2020-10-28T10:19:01Z</time><name>PT1533</name></trkpt>
<trkpt lat="53.093488" lon="-1.642324"><ele>325</ele><time>2020-10-28T10:19:01Z</time><name>PT1534</name></trkpt>
<trkpt lat="53.093495" lon="-1.642332"><ele>325</ele><time>2020-10-28T10:19:03Z</time><name>PT1535</name></trkpt>
<trkpt lat="53.093508" lon="-1.642340"><ele>325</ele><time>2020-10-28T10:19:04Z</time><name>PT1536</name></trkpt>
<trkpt lat="53.093519" lon="-1.642352"><ele>326</ele><time>2020-10-28T10:19:04Z</time><name>PT1537</name></trkpt>
<trkpt lat="53.093528" lon="-1.642365"><ele>326</ele><time>2020-10-28T10:19:06Z</time><name>PT1538</name></trkpt>
<trkpt lat="53.093539" lon="-1.642376"><ele>326</ele><time>2020-10-28T10:19:07Z</time><name>PT1539</name></trkpt>
<trkpt lat="53.093551" lon="-1.642387"><ele>326</ele><time>2020-10-28T10:19:07Z</time><name>PT1540</name></trkpt>
<trkpt lat="53.093562" lon="-1.642401"><ele>327</ele><time>2020-10-28T10:19:09Z</time><name>PT1541</name></trkpt>
<trkpt lat="53.093574" lon="-1.642411"><ele>327</ele><time>2020-10-28T10:19:10Z</time><name>PT1542</name></trkpt>
<trkpt lat="53.093584" lon="-1.642423"><ele>327</ele><time>2020-10-28T10:19:10Z</time><name>PT1543</name></trkpt>
<trkpt lat="53.093596" lon="-1.642435"><ele>327</ele><time>2020-10-28T10:19:12Z</time><name>PT1544</name></trkpt>
<trkpt lat="53.093607" lon="-1.642445"><ele>327</ele><time>2020-10-28T10:19:13Z</time><name>PT1545</name></trkpt>
<trkpt lat="53.093617" lon="-1.642455"><ele>327</ele><time>2020-10-28T10:19:14Z</time><name>PT1546</name></trkpt>
<trkpt lat="53.093628" lon="-1.642465"><ele>328</ele><time>2020-10-28T10:19:15Z</time><name>PT1547</name></trkpt>
<trkpt lat="53.093638" lon="-1.642477"><ele>327</ele><time>2020-10-28T10:19:16Z</time><name>PT1548</name></trkpt>
<trkpt lat="53.093649" lon="-1.642489"><ele>327</ele><time>2020-10-28T10:19:17Z</time><name>PT1549</name></trkpt>
<trkpt lat="53.093660" lon="-1.642505"><ele>327</ele><time>2020-10-28T10:19:18Z</time><name>PT1550</name></trkpt>
<trkpt lat="53.093670" lon="-1.642518"><ele>327</ele><time>2020-10-28T10:19:19Z</time><name>PT1551</name></trkpt>
<trkpt lat="53.093677" lon="-1.642529"><ele>327</ele><time>2020-10-28T10:19:19Z</time><name>PT1552</name></trkpt>
<trkpt lat="53.093692" lon="-1.642538"><ele>328</ele><time>2020-10-28T10:19:21Z</time><name>PT1553</name></trkpt>
<trkpt lat="53.093704" lon="-1.642551"><ele>328</ele><time>2020-10-28T10:19:22Z</time><name>PT1554</name></trkpt>
<trkpt lat="53.093715" lon="-1.642558"><ele>328</ele><time>2020-10-28T10:19:23Z</time><name>PT1555</name></trkpt>
<trkpt lat="53.093723" lon="-1.642564"><ele>328</ele><time>2020-10-28T10:19:24Z</time><name>PT1556</name></trkpt>
<trkpt lat="53.093731" lon="-1.642566"><ele>328</ele><time>2020-10-28T10:19:25Z</time><name>PT1557</name></trkpt>
<trkpt lat="53.093738" lon="-1.642574"><ele>328</ele><time>2020-10-28T10:19:26Z</time><name>PT1558</name></trkpt>
<trkpt lat="53.093747" lon="-1.642585"><ele>328</ele><time>2020-10-28T10:19:27Z</time><name>PT1559</name></trkpt>
<trkpt lat="53.093756" lon="-1.642597"><ele>327</ele><time>2020-10-28T10:19:28Z</time><name>PT1560</name></trkpt>
<trkpt lat="53.093766" lon="-1.642608"><ele>327</ele><time>2020-10-28T10:19:29Z</time><name>PT1561</name></trkpt>
<trkpt lat="53.093779" lon="-1.642617"><ele>327</ele><time>2020-10-28T10:19:30Z</time><name>PT1562</name></trkpt>
<trkpt lat="53.093790" lon="-1.642627"><ele>328</ele><time>2020-10-28T10:19:31Z</time><name>PT1563</name></trkpt>
<trkpt lat="53.093800" lon="-1.642635"><ele>328</ele><time>2020-10-28T10:19:31Z</time><name>PT1564</name></trkpt>
<trkpt lat="53.093814" lon="-1.642641"><ele>328</ele><time>2020-10-28T10:19:33Z</time><name>PT1565</name></trkpt>
<trkpt lat="53.093825" lon="-1.642653"><ele>328</ele><time>2020-10-28T10:19:34Z</time><name>PT1566</name></trkpt>
<trkpt lat="53.093835" lon="-1.642664"><ele>329</ele><time>2020-10-28T10:19:34Z</time><name>PT1567</name></trkpt>
<trkpt lat="53.093845" lon="-1.642677"><ele>329</ele><time>2020-10-28T10:19:36Z</time><name>PT1568</name></trkpt>
<trkpt lat="53.093855" lon="-1.642686"><ele>328</ele><time>2020-10-28T10:19:37Z</time><name>PT1569</name></trkpt>
<trkpt lat="53.093868" lon="-1.642703"><ele>329</ele><time>2020-10-28T10:19:37Z</time><name>PT1570</name></trkpt>
<trkpt lat="53.093879" lon="-1.642715"><ele>328</ele><time>2020-10-28T10:19:39Z</time><name>PT1571</name></trkpt>
<trkpt lat="53.093889" lon="-1.642725"><ele>328</ele><time>2020-10-28T10:19:40Z</time><name>PT1572</name></trkpt>
<trkpt lat="53.093901" lon="-1.642737"><ele>328</ele><time>2020-10-28T10:19:40Z</time><name>PT1573</name></trkpt>
<trkpt lat="53.093914" lon="-1.642748"><ele>328</ele><time>2020-10-28T10:19:42Z</time><name>PT1574</name></trkpt>
<trkpt lat="53.093924" lon="-1.642764"><ele>328</ele><time>2020-10-28T10:19:43Z</time><name>PT1575</name></trkpt>
<trkpt lat="53.093934" lon="-1.642775"><ele>328</ele><time>2020-10-28T10:19:43Z</time><name>PT1576</name></trkpt>
<trkpt lat="53.093944" lon="-1.642786"><ele>328</ele><time>2020-10-28T10:19:45Z</time><name>PT1577</name></trkpt>
<trkpt lat="53.093955" lon="-1.642797"><ele>328</ele><time>2020-10-28T10:19:46Z</time><name>PT1578</name></trkpt>
<trkpt lat="53.093963" lon="-1.642813"><ele>328</ele><time>2020-10-28T10:19:46Z</time><name>PT1579</name></trkpt>
<trkpt lat="53.093974" lon="-1.642825"><ele>328</ele><time>2020-10-28T10:19:48Z</time><name>PT1580</name></trkpt>
<trkpt lat="53.093985" lon="-1.642833"><ele>328</ele><time>2020-10-28T10:19:49Z</time><name>PT1581</name></trkpt>
<trkpt lat="53.093995" lon="-1.642840"><ele>327</ele><time>2020-10-28T10:19:49Z</time><name>PT1582</name></trkpt>
<trkpt lat="53.094007" lon="-1.642850"><ele>328</ele><time>2020-10-28T10:19:51Z</time><name>PT1583</name></trkpt>
<trkpt lat="53.094019" lon="-1.642863"><ele>327</ele><time>2020-10-28T10:19:52Z</time><name>PT1584</name></trkpt>
<trkpt lat="53.094028" lon="-1.642880"><ele>327</ele><time>2020-10-28T10:19:52Z</time><name>PT1585</name></trkpt>
<trkpt lat="53.094048" lon="-1.642896"><ele>329</ele><time>2020-10-28T10:19:54Z</time><name>PT1586</name></trkpt>
<trkpt lat="53.094057" lon="-1.642909"><ele>328</ele><time>2020-10-28T10:19:55Z</time><name>PT1587</name></trkpt>
<trkpt lat="53.094067" lon="-1.642923"><ele>328</ele><time>2020-10-28T10:19:55Z</time><name>PT1588</name></trkpt>
<trkpt lat="53.094077" lon="-1.642937"><ele>328</ele><time>2020-10-28T10:19:57Z</time><name>PT1589</name></trkpt>
<trkpt lat="53.094085" lon="-1.642948"><ele>327</ele><time>2020-10-28T10:19:58Z</time><name>PT1590</name></trkpt>
<trkpt lat="53.094096" lon="-1.642961"><ele>327</ele><time>2020-10-28T10:19:58Z</time><name>PT1591</name></trkpt>
<trkpt lat="53.094109" lon="-1.642981"><ele>328</ele><time>2020-10-28T10:20:00Z</time><name>PT1592</name></trkpt>
<trkpt lat="53.094121" lon="-1.642996"><ele>328</ele><time>2020-10-28T10:20:01Z</time><name>PT1593</name></trkpt>
<trkpt lat="53.094131" lon="-1.643009"><ele>327</ele><time>2020-10-28T10:20:01Z</time><name>PT1594</name></trkpt>
<trkpt lat="53.094142" lon="-1.643019"><ele>328</ele><time>2020-10-28T10:20:03Z</time><name>PT1595</name></trkpt>
<trkpt lat="53.094152" lon="-1.643031"><ele>327</ele><time>2020-10-28T10:20:04Z</time><name>PT1596</name></trkpt>
<trkpt lat="53.094163" lon="-1.643043"><ele>327</ele><time>2020-10-28T10:20:04Z</time><name>PT1597</name></trkpt>
<trkpt lat="53.094173" lon="-1.643057"><ele>327</ele><time>2020-10-28T10:20:06Z</time><name>PT1598</name></trkpt>
<trkpt lat="53.094186" lon="-1.643075"><ele>328</ele><time>2020-10-28T10:20:07Z</time><name>PT1599</name></trkpt>
<trkpt lat="53.094195" lon="-1.643086"><ele>328</ele><time>2020-10-28T10:20:07Z</time><name>PT1600</name></trkpt>
<trkpt lat="53.094204" lon="-1.643097"><ele>328</ele><time>2020-10-28T10:20:09Z</time><name>PT1601</name></trkpt>
<trkpt lat="53.094216" lon="-1.643108"><ele>328</ele><time>2020-10-28T10:20:10Z</time><name>PT1602</name></trkpt>
<trkpt lat="53.094228" lon="-1.643119"><ele>328</ele><time>2020-10-28T10:20:11Z</time><name>PT1603</name></trkpt>
<trkpt lat="53.094273" lon="-1.643177"><ele>328</ele><time>2020-10-28T10:20:15Z</time><name>PT1604</name></trkpt>
<trkpt lat="53.094303" lon="-1.643211"><ele>328</ele><time>2020-10-28T10:20:18Z</time><name>PT1605</name></trkpt>
<trkpt lat="53.094334" lon="-1.643241"><ele>328</ele><time>2020-10-28T10:20:21Z</time><name>PT1606</name></trkpt>
<trkpt lat="53.094369" lon="-1.643268"><ele>329</ele><time>2020-10-28T10:20:24Z</time><name>PT1607</name></trkpt>
<trkpt lat="53.094409" lon="-1.643316"><ele>328</ele><time>2020-10-28T10:20:28Z</time><name>PT1608</name></trkpt>
<trkpt lat="53.094452" lon="-1.643362"><ele>329</ele><time>2020-10-28T10:20:31Z</time><name>PT1609</name></trkpt>
<trkpt lat="53.094484" lon="-1.643395"><ele>329</ele><time>2020-10-28T10:20:34Z</time><name>PT1610</name></trkpt>
<trkpt lat="53.094522" lon="-1.643429"><ele>330</ele><time>2020-10-28T10:20:37Z</time><name>PT1611</name></trkpt>
<trkpt lat="53.094562" lon="-1.643474"><ele>330</ele><time>2020-10-28T10:20:42Z</time><name>PT1612</name></trkpt>
<trkpt lat="53.094588" lon="-1.643507"><ele>330</ele><time>2020-10-28T10:20:45Z</time><name>PT1613</name></trkpt>
<trkpt lat="53.094631" lon="-1.643554"><ele>330</ele><time>2020-10-28T10:20:49Z</time><name>PT1614</name></trkpt>
<trkpt lat="53.094660" lon="-1.643592"><ele>330</ele><time>2020-10-28T10:20:52Z</time><name>PT1615</name></trkpt>
<trkpt lat="53.094702" lon="-1.643641"><ele>330</ele><time>2020-10-28T10:20:55Z</time><name>PT1616</name></trkpt>
<trkpt lat="53.094732" lon="-1.643681"><ele>330</ele><time>2020-10-28T10:20:58Z</time><name>PT1617</name></trkpt>
<trkpt lat="53.094767" lon="-1.643703"><ele>331</ele><time>2020-10-28T10:21:01Z</time><name>PT1618</name></trkpt>
<trkpt lat="53.094806" lon="-1.643746"><ele>330</ele><time>2020-10-28T10:21:06Z</time><name>PT1619</name></trkpt>
<trkpt lat="53.094845" lon="-1.643787"><ele>330</ele><time>2020-10-28T10:21:10Z</time><name>PT1620</name></trkpt>
<trkpt lat="53.094875" lon="-1.643823"><ele>329</ele><time>2020-10-28T10:21:13Z</time><name>PT1621</name></trkpt>
<trkpt lat="53.094908" lon="-1.643856"><ele>330</ele><time>2020-10-28T10:21:16Z</time><name>PT1622</name></trkpt>
<trkpt lat="53.094955" lon="-1.643903"><ele>330</ele><time>2020-10-28T10:21:19Z</time><name>PT1623</name></trkpt>
<trkpt lat="53.094999" lon="-1.643956"><ele>330</ele><time>2020-10-28T10:21:24Z</time><name>PT1624</name></trkpt>
<trkpt lat="53.095036" lon="-1.644002"><ele>329</ele><time>2020-10-28T10:21:28Z</time><name>PT1625</name></trkpt>
<trkpt lat="53.095082" lon="-1.644048"><ele>329</ele><time>2020-10-28T10:21:31Z</time><name>PT1626</name></trkpt>
<trkpt lat="53.095113" lon="-1.644081"><ele>330</ele><time>2020-10-28T10:21:34Z</time><name>PT1627</name></trkpt>
<trkpt lat="53.095151" lon="-1.644119"><ele>329</ele><time>2020-10-28T10:21:39Z</time><name>PT1628</name></trkpt>
<trkpt lat="53.095187" lon="-1.644165"><ele>330</ele><time>2020-10-28T10:21:43Z</time><name>PT1629</name></trkpt>
<trkpt lat="53.095215" lon="-1.644217"><ele>329</ele><time>2020-10-28T10:21:46Z</time><name>PT1630</name></trkpt>
<trkpt lat="53.095235" lon="-1.644263"><ele>326</ele><time>2020-10-28T10:21:51Z</time><name>PT1631</name></trkpt>
<trkpt lat="53.095257" lon="-1.644310"><ele>324</ele><time>2020-10-28T10:21:55Z</time><name>PT1632</name></trkpt>
<trkpt lat="53.095273" lon="-1.644350"><ele>322</ele><time>2020-10-28T10:21:58Z</time><name>PT1633</name></trkpt>
<trkpt lat="53.095360" lon="-1.644392"><ele>326</ele><time>2020-10-28T10:22:01Z</time><name>PT1634</name></trkpt>
<trkpt lat="53.095410" lon="-1.644434"><ele>326</ele><time>2020-10-28T10:22:06Z</time><name>PT1635</name></trkpt>
<trkpt lat="53.095444" lon="-1.644465"><ele>327</ele><time>2020-10-28T10:22:09Z</time><name>PT1636</name></trkpt>
<trkpt lat="53.095476" lon="-1.644495"><ele>327</ele><time>2020-10-28T10:22:12Z</time><name>PT1637</name></trkpt>
<trkpt lat="53.095506" lon="-1.644523"><ele>327</ele><time>2020-10-28T10:22:15Z</time><name>PT1638</name></trkpt>
<trkpt lat="53.095547" lon="-1.644570"><ele>327</ele><time>2020-10-28T10:22:19Z</time><name>PT1639</name></trkpt>
<trkpt lat="53.095575" lon="-1.644606"><ele>327</ele><time>2020-10-28T10:22:22Z</time><name>PT1640</name></trkpt>
<trkpt lat="53.095621" lon="-1.644657"><ele>327</ele><time>2020-10-28T10:22:25Z</time><name>PT1641</name></trkpt>
<trkpt lat="53.095653" lon="-1.644691"><ele>327</ele><time>2020-10-28T10:22:29Z</time><name>PT1642</name></trkpt>
<trkpt lat="53.095693" lon="-1.644735"><ele>327</ele><time>2020-10-28T10:22:33Z</time><name>PT1643</name></trkpt>
<trkpt lat="53.095721" lon="-1.644769"><ele>327</ele><time>2020-10-28T10:22:36Z</time><name>PT1644</name></trkpt>
<trkpt lat="53.095760" lon="-1.644815"><ele>326</ele><time>2020-10-28T10:22:40Z</time><name>PT1645</name></trkpt>
<trkpt lat="53.095808" lon="-1.644866"><ele>326</ele><time>2020-10-28T10:22:44Z</time><name>PT1646</name></trkpt>
<trkpt lat="53.095852" lon="-1.644913"><ele>326</ele><time>2020-10-28T10:22:48Z</time><name>PT1647</name></trkpt>
<trkpt lat="53.095880" lon="-1.644947"><ele>326</ele><time>2020-10-28T10:22:51Z</time><name>PT1648</name></trkpt>
<trkpt lat="53.095918" lon="-1.644994"><ele>325</ele><time>2020-10-28T10:22:55Z</time><name>PT1649</name></trkpt>
<trkpt lat="53.095946" lon="-1.645024"><ele>325</ele><time>2020-10-28T10:22:58Z</time><name>PT1650</name></trkpt>
<trkpt lat="53.095973" lon="-1.645052"><ele>324</ele><time>2020-10-28T10:23:01Z</time><name>PT1651</name></trkpt>
<trkpt lat="53.096005" lon="-1.645082"><ele>324</ele><time>2020-10-28T10:23:04Z</time><name>PT1652</name></trkpt>
<trkpt lat="53.096040" lon="-1.645111"><ele>325</ele><time>2020-10-28T10:23:07Z</time><name>PT1653</name></trkpt>
<trkpt lat="53.096088" lon="-1.645156"><ele>326</ele><time>2020-10-28T10:23:10Z</time><name>PT1654</name></trkpt>
<trkpt lat="53.096125" lon="-1.645186"><ele>327</ele><time>2020-10-28T10:23:13Z</time><name>PT1655</name></trkpt>
<trkpt lat="53.096159" lon="-1.645216"><ele>328</ele><time>2020-10-28T10:23:16Z</time><name>PT1656</name></trkpt>
<trkpt lat="53.096211" lon="-1.645258"><ele>329</ele><time>2020-10-28T10:23:21Z</time><name>PT1657</name></trkpt>
<trkpt lat="53.096242" lon="-1.645291"><ele>329</ele><time>2020-10-28T10:23:24Z</time><name>PT1658</name></trkpt>
<trkpt lat="53.096269" lon="-1.645326"><ele>329</ele><time>2020-10-28T10:23:27Z</time><name>PT1659</name></trkpt>
<trkpt lat="53.096302" lon="-1.645362"><ele>327</ele><time>2020-10-28T10:23:31Z</time><name>PT1660</name></trkpt>
<trkpt lat="53.096341" lon="-1.645403"><ele>326</ele><time>2020-10-28T10:23:34Z</time><name>PT1661</name></trkpt>
<trkpt lat="53.096385" lon="-1.645445"><ele>327</ele><time>2020-10-28T10:23:39Z</time><name>PT1662</name></trkpt>
<trkpt lat="53.096431" lon="-1.645490"><ele>327</ele><time>2020-10-28T10:23:43Z</time><name>PT1663</name></trkpt>
<trkpt lat="53.096470" lon="-1.645534"><ele>327</ele><time>2020-10-28T10:23:46Z</time><name>PT1664</name></trkpt>
<trkpt lat="53.096497" lon="-1.645573"><ele>326</ele><time>2020-10-28T10:23:50Z</time><name>PT1665</name></trkpt>
<trkpt lat="53.096537" lon="-1.645620"><ele>327</ele><time>2020-10-28T10:23:54Z</time><name>PT1666</name></trkpt>
<trkpt lat="53.096567" lon="-1.645678"><ele>325</ele><time>2020-10-28T10:23:58Z</time><name>PT1667</name></trkpt>
<trkpt lat="53.096603" lon="-1.645714"><ele>325</ele><time>2020-10-28T10:24:01Z</time><name>PT1668</name></trkpt>
<trkpt lat="53.096633" lon="-1.645753"><ele>325</ele><time>2020-10-28T10:24:04Z</time><name>PT1669</name></trkpt>
<trkpt lat="53.096684" lon="-1.645797"><ele>326</ele><time>2020-10-28T10:24:07Z</time><name>PT1670</name></trkpt>
<trkpt lat="53.096715" lon="-1.645835"><ele>326</ele><time>2020-10-28T10:24:10Z</time><name>PT1671</name></trkpt>
<trkpt lat="53.096764" lon="-1.645881"><ele>328</ele><time>2020-10-28T10:24:15Z</time><name>PT1672</name></trkpt>
<trkpt lat="53.096794" lon="-1.645922"><ele>328</ele><time>2020-10-28T10:24:18Z</time><name>PT1673</name></trkpt>
<trkpt lat="53.096827" lon="-1.645952"><ele>328</ele><time>2020-10-28T10:24:21Z</time><name>PT1674</name></trkpt>
<trkpt lat="53.096872" lon="-1.646003"><ele>328</ele><time>2020-10-28T10:24:25Z</time><name>PT1675</name></trkpt>
<trkpt lat="53.096911" lon="-1.646058"><ele>328</ele><time>2020-10-28T10:24:28Z</time><name>PT1676</name></trkpt>
<trkpt lat="53.096940" lon="-1.646098"><ele>328</ele><time>2020-10-28T10:24:31Z</time><name>PT1677</name></trkpt>
<trkpt lat="53.096987" lon="-1.646153"><ele>330</ele><time>2020-10-28T10:24:36Z</time><name>PT1678</name></trkpt>
<trkpt lat="53.097006" lon="-1.646214"><ele>327</ele><time>2020-10-28T10:24:40Z</time><name>PT1679</name></trkpt>
<trkpt lat="53.097042" lon="-1.646281"><ele>327</ele><time>2020-10-28T10:24:43Z</time><name>PT1680</name></trkpt>
<trkpt lat="53.097083" lon="-1.646346"><ele>328</ele><time>2020-10-28T10:24:48Z</time><name>PT1681</name></trkpt>
<trkpt lat="53.097113" lon="-1.646410"><ele>329</ele><time>2020-10-28T10:24:52Z</time><name>PT1682</name></trkpt>
<trkpt lat="53.097146" lon="-1.646472"><ele>330</ele><time>2020-10-28T10:24:55Z</time><name>PT1683</name></trkpt>
<trkpt lat="53.097158" lon="-1.646511"><ele>329</ele><time>2020-10-28T10:24:58Z</time><name>PT1684</name></trkpt>
<trkpt lat="53.097180" lon="-1.646562"><ele>330</ele><time>2020-10-28T10:25:02Z</time><name>PT1685</name></trkpt>
<trkpt lat="53.097193" lon="-1.646621"><ele>330</ele><time>2020-10-28T10:25:05Z</time><name>PT1686</name></trkpt>
<trkpt lat="53.097216" lon="-1.646692"><ele>328</ele><time>2020-10-28T10:25:09Z</time><name>PT1687</name></trkpt>
<trkpt lat="53.097228" lon="-1.646741"><ele>329</ele><time>2020-10-28T10:25:12Z</time><name>PT1688</name></trkpt>
<trkpt lat="53.097244" lon="-1.646823"><ele>329</ele><time>2020-10-28T10:25:16Z</time><name>PT1689</name></trkpt>
<trkpt lat="53.097265" lon="-1.646868"><ele>330</ele><time>2020-10-28T10:25:19Z</time><name>PT1690</name></trkpt>
<trkpt lat="53.097286" lon="-1.646950"><ele>330</ele><time>2020-10-28T10:25:22Z</time><name>PT1691</name></trkpt>
<trkpt lat="53.097304" lon="-1.647023"><ele>330</ele><time>2020-10-28T10:25:27Z</time><name>PT1692</name></trkpt>
<trkpt lat="53.097316" lon="-1.647082"><ele>330</ele><time>2020-10-28T10:25:30Z</time><name>PT1693</name></trkpt>
<trkpt lat="53.097326" lon="-1.647148"><ele>329</ele><time>2020-10-28T10:25:33Z</time><name>PT1694</name></trkpt>
<trkpt lat="53.097339" lon="-1.647228"><ele>328</ele><time>2020-10-28T10:25:37Z</time><name>PT1695</name></trkpt>
<trkpt lat="53.097350" lon="-1.647307"><ele>328</ele><time>2020-10-28T10:25:40Z</time><name>PT1696</name></trkpt>
<trkpt lat="53.097363" lon="-1.647372"><ele>329</ele><time>2020-10-28T10:25:43Z</time><name>PT1697</name></trkpt>
<trkpt lat="53.097379" lon="-1.647433"><ele>329</ele><time>2020-10-28T10:25:46Z</time><name>PT1698</name></trkpt>
<trkpt lat="53.097390" lon="-1.647486"><ele>329</ele><time>2020-10-28T10:25:49Z</time><name>PT1699</name></trkpt>
<trkpt lat="53.097412" lon="-1.647556"><ele>330</ele><time>2020-10-28T10:25:54Z</time><name>PT1700</name></trkpt>
<trkpt lat="53.097431" lon="-1.647654"><ele>329</ele><time>2020-10-28T10:25:58Z</time><name>PT1701</name></trkpt>
<trkpt lat="53.097436" lon="-1.647724"><ele>327</ele><time>2020-10-28T10:26:00Z</time><name>PT1702</name></trkpt>
<trkpt lat="53.097442" lon="-1.647749"><ele>326</ele><time>2020-10-28T10:26:01Z</time><name>PT1703</name></trkpt>
<trkpt lat="53.097444" lon="-1.647775"><ele>327</ele><time>2020-10-28T10:26:02Z</time><name>PT1704</name></trkpt>
<trkpt lat="53.097450" lon="-1.647794"><ele>328</ele><time>2020-10-28T10:26:03Z</time><name>PT1705</name></trkpt>
<trkpt lat="53.097457" lon="-1.647819"><ele>328</ele><time>2020-10-28T10:26:04Z</time><name>PT1706</name></trkpt>
<trkpt lat="53.097460" lon="-1.647840"><ele>328</ele><time>2020-10-28T10:26:04Z</time><name>PT1707</name></trkpt>
<trkpt lat="53.097466" lon="-1.647861"><ele>329</ele><time>2020-10-28T10:26:06Z</time><name>PT1708</name></trkpt>
<trkpt lat="53.097470" lon="-1.647883"><ele>329</ele><time>2020-10-28T10:26:07Z</time><name>PT1709</name></trkpt>
<trkpt lat="53.097472" lon="-1.647905"><ele>329</ele><time>2020-10-28T10:26:07Z</time><name>PT1710</name></trkpt>
<trkpt lat="53.097474" lon="-1.647929"><ele>328</ele><time>2020-10-28T10:26:09Z</time><name>PT1711</name></trkpt>
<trkpt lat="53.097478" lon="-1.647949"><ele>328</ele><time>2020-10-28T10:26:10Z</time><name>PT1712</name></trkpt>
<trkpt lat="53.097483" lon="-1.647972"><ele>328</ele><time>2020-10-28T10:26:10Z</time><name>PT1713</name></trkpt>
<trkpt lat="53.097488" lon="-1.647987"><ele>329</ele><time>2020-10-28T10:26:12Z</time><name>PT1714</name></trkpt>
<trkpt lat="53.097489" lon="-1.648007"><ele>329</ele><time>2020-10-28T10:26:13Z</time><name>PT1715</name></trkpt>
<trkpt lat="53.097489" lon="-1.648015"><ele>329</ele><time>2020-10-28T10:26:13Z</time><name>PT1716</name></trkpt>
<trkpt lat="53.097492" lon="-1.648028"><ele>329</ele><time>2020-10-28T10:26:15Z</time><name>PT1717</name></trkpt>
<trkpt lat="53.097498" lon="-1.648040"><ele>328</ele><time>2020-10-28T10:26:16Z</time><name>PT1718</name></trkpt>
<trkpt lat="53.097507" lon="-1.648050"><ele>328</ele><time>2020-10-28T10:26:16Z</time><name>PT1719</name></trkpt>
<trkpt lat="53.097512" lon="-1.648061"><ele>328</ele><time>2020-10-28T10:26:18Z</time><name>PT1720</name></trkpt>
<trkpt lat="53.097515" lon="-1.648081"><ele>328</ele><time>2020-10-28T10:26:19Z</time><name>PT1721</name></trkpt>
<trkpt lat="53.097520" lon="-1.648092"><ele>327</ele><time>2020-10-28T10:26:19Z</time><name>PT1722</name></trkpt>
<trkpt lat="53.097524" lon="-1.648104"><ele>326</ele><time>2020-10-28T10:26:21Z</time><name>PT1723</name></trkpt>
<trkpt lat="53.097527" lon="-1.648119"><ele>325</ele><time>2020-10-28T10:26:22Z</time><name>PT1724</name></trkpt>
<trkpt lat="53.097527" lon="-1.648130"><ele>325</ele><time>2020-10-28T10:26:23Z</time><name>PT1725</name></trkpt>
<trkpt lat="53.097530" lon="-1.648144"><ele>325</ele><time>2020-10-28T10:26:24Z</time><name>PT1726</name></trkpt>
<trkpt lat="53.097531" lon="-1.648162"><ele>325</ele><time>2020-10-28T10:26:25Z</time><name>PT1727</name></trkpt>
<trkpt lat="53.097533" lon="-1.648176"><ele>324</ele><time>2020-10-28T10:26:26Z</time><name>PT1728</name></trkpt>
<trkpt lat="53.097537" lon="-1.648187"><ele>323</ele><time>2020-10-28T10:26:27Z</time><name>PT1729</name></trkpt>
<trkpt lat="53.097540" lon="-1.648195"><ele>322</ele><time>2020-10-28T10:26:28Z</time><name>PT1730</name></trkpt>
<trkpt lat="53.097542" lon="-1.648209"><ele>321</ele><time>2020-10-28T10:26:28Z</time><name>PT1731</name></trkpt>
<trkpt lat="53.097546" lon="-1.648219"><ele>320</ele><time>2020-10-28T10:26:30Z</time><name>PT1732</name></trkpt>
<trkpt lat="53.097549" lon="-1.648234"><ele>319</ele><time>2020-10-28T10:26:31Z</time><name>PT1733</name></trkpt>
<trkpt lat="53.097553" lon="-1.648253"><ele>319</ele><time>2020-10-28T10:26:32Z</time><name>PT1734</name></trkpt>
<trkpt lat="53.097552" lon="-1.648269"><ele>318</ele><time>2020-10-28T10:26:33Z</time><name>PT1735</name></trkpt>
<trkpt lat="53.097554" lon="-1.648281"><ele>317</ele><time>2020-10-28T10:26:34Z</time><name>PT1736</name></trkpt>
<trkpt lat="53.097558" lon="-1.648294"><ele>316</ele><time>2020-10-28T10:26:35Z</time><name>PT1737</name></trkpt>
<trkpt lat="53.097563" lon="-1.648304"><ele>317</ele><time>2020-10-28T10:26:36Z</time><name>PT1738</name></trkpt>
<trkpt lat="53.097563" lon="-1.648316"><ele>316</ele><time>2020-10-28T10:26:37Z</time><name>PT1739</name></trkpt>
<trkpt lat="53.097565" lon="-1.648333"><ele>315</ele><time>2020-10-28T10:26:38Z</time><name>PT1740</name></trkpt>
<trkpt lat="53.097567" lon="-1.648345"><ele>315</ele><time>2020-10-28T10:26:39Z</time><name>PT1741</name></trkpt>
<trkpt lat="53.097570" lon="-1.648355"><ele>315</ele><time>2020-10-28T10:26:40Z</time><name>PT1742</name></trkpt>
<trkpt lat="53.097571" lon="-1.648373"><ele>315</ele><time>2020-10-28T10:26:41Z</time><name>PT1743</name></trkpt>
<trkpt lat="53.097572" lon="-1.648387"><ele>314</ele><time>2020-10-28T10:26:42Z</time><name>PT1744</name></trkpt>
<trkpt lat="53.097578" lon="-1.648406"><ele>315</ele><time>2020-10-28T10:26:43Z</time><name>PT1745</name></trkpt>
<trkpt lat="53.097578" lon="-1.648420"><ele>314</ele><time>2020-10-28T10:26:44Z</time><name>PT1746</name></trkpt>
<trkpt lat="53.097582" lon="-1.648430"><ele>313</ele><time>2020-10-28T10:26:45Z</time><name>PT1747</name></trkpt>
<trkpt lat="53.097588" lon="-1.648442"><ele>314</ele><time>2020-10-28T10:26:46Z</time><name>PT1748</name></trkpt>
<trkpt lat="53.097588" lon="-1.648453"><ele>313</ele><time>2020-10-28T10:26:47Z</time><name>PT1749</name></trkpt>
<trkpt lat="53.097591" lon="-1.648477"><ele>314</ele><time>2020-10-28T10:26:48Z</time><name>PT1750</name></trkpt>
<trkpt lat="53.097595" lon="-1.648503"><ele>316</ele><time>2020-10-28T10:26:49Z</time><name>PT1751</name></trkpt>
<trkpt lat="53.097600" lon="-1.648512"><ele>316</ele><time>2020-10-28T10:26:50Z</time><name>PT1752</name></trkpt>
<trkpt lat="53.097604" lon="-1.648525"><ele>317</ele><time>2020-10-28T10:26:51Z</time><name>PT1753</name></trkpt>
<trkpt lat="53.097612" lon="-1.648544"><ele>317</ele><time>2020-10-28T10:26:52Z</time><name>PT1754</name></trkpt>
<trkpt lat="53.097618" lon="-1.648561"><ele>317</ele><time>2020-10-28T10:26:52Z</time><name>PT1755</name></trkpt>
<trkpt lat="53.097619" lon="-1.648580"><ele>316</ele><time>2020-10-28T10:26:54Z</time><name>PT1756</name></trkpt>
<trkpt lat="53.097618" lon="-1.648602"><ele>315</ele><time>2020-10-28T10:26:55Z</time><name>PT1757</name></trkpt>
<trkpt lat="53.097619" lon="-1.648611"><ele>314</ele><time>2020-10-28T10:26:55Z</time><name>PT1758</name></trkpt>
<trkpt lat="53.097618" lon="-1.648631"><ele>313</ele><time>2020-10-28T10:26:57Z</time><name>PT1759</name></trkpt>
<trkpt lat="53.097623" lon="-1.648651"><ele>313</ele><time>2020-10-28T10:26:58Z</time><name>PT1760</name></trkpt>
<trkpt lat="53.097631" lon="-1.648674"><ele>312</ele><time>2020-10-28T10:26:58Z</time><name>PT1761</name></trkpt>
<trkpt lat="53.097643" lon="-1.648703"><ele>312</ele><time>2020-10-28T10:27:00Z</time><name>PT1762</name></trkpt>
<trkpt lat="53.097644" lon="-1.648724"><ele>312</ele><time>2020-10-28T10:27:01Z</time><name>PT1763</name></trkpt>
<trkpt lat="53.097643" lon="-1.648742"><ele>311</ele><time>2020-10-28T10:27:01Z</time><name>PT1764</name></trkpt>
<trkpt lat="53.097644" lon="-1.648759"><ele>310</ele><time>2020-10-28T10:27:03Z</time><name>PT1765</name></trkpt>
<trkpt lat="53.097636" lon="-1.648759"><ele>311</ele><time>2020-10-28T10:27:04Z</time><name>PT1766</name></trkpt>
<trkpt lat="53.097637" lon="-1.648764"><ele>310</ele><time>2020-10-28T10:27:04Z</time><name>PT1767</name></trkpt>
<trkpt lat="53.097637" lon="-1.648782"><ele>310</ele><time>2020-10-28T10:27:06Z</time><name>PT1768</name></trkpt>
<trkpt lat="53.097633" lon="-1.648805"><ele>310</ele><time>2020-10-28T10:27:07Z</time><name>PT1769</name></trkpt>
<trkpt lat="53.097636" lon="-1.648834"><ele>310</ele><time>2020-10-28T10:27:07Z</time><name>PT1770</name></trkpt>
<trkpt lat="53.097638" lon="-1.648861"><ele>310</ele><time>2020-10-28T10:27:09Z</time><name>PT1771</name></trkpt>
<trkpt lat="53.097640" lon="-1.648883"><ele>309</ele><time>2020-10-28T10:27:10Z</time><name>PT1772</name></trkpt>
<trkpt lat="53.097644" lon="-1.648905"><ele>309</ele><time>2020-10-28T10:27:10Z</time><name>PT1773</name></trkpt>
<trkpt lat="53.097644" lon="-1.648931"><ele>309</ele><time>2020-10-28T10:27:12Z</time><name>PT1774</name></trkpt>
<trkpt lat="53.097647" lon="-1.648955"><ele>309</ele><time>2020-10-28T10:27:13Z</time><name>PT1775</name></trkpt>
<trkpt lat="53.097665" lon="-1.648996"><ele>309</ele><time>2020-10-28T10:27:13Z</time><name>PT1776</name></trkpt>
<trkpt lat="53.097667" lon="-1.649014"><ele>308</ele><time>2020-10-28T10:27:15Z</time><name>PT1777</name></trkpt>
<trkpt lat="53.097667" lon="-1.649038"><ele>307</ele><time>2020-10-28T10:27:16Z</time><name>PT1778</name></trkpt>
<trkpt lat="53.097667" lon="-1.649058"><ele>306</ele><time>2020-10-28T10:27:16Z</time><name>PT1779</name></trkpt>
<trkpt lat="53.097674" lon="-1.649084"><ele>308</ele><time>2020-10-28T10:27:18Z</time><name>PT1780</name></trkpt>
<trkpt lat="53.097673" lon="-1.649115"><ele>306</ele><time>2020-10-28T10:27:19Z</time><name>PT1781</name></trkpt>
<trkpt lat="53.097676" lon="-1.649135"><ele>306</ele><time>2020-10-28T10:27:19Z</time><name>PT1782</name></trkpt>
<trkpt lat="53.097684" lon="-1.649159"><ele>306</ele><time>2020-10-28T10:27:21Z</time><name>PT1783</name></trkpt>
<trkpt lat="53.097691" lon="-1.649176"><ele>307</ele><time>2020-10-28T10:27:22Z</time><name>PT1784</name></trkpt>
<trkpt lat="53.097694" lon="-1.649198"><ele>306</ele><time>2020-10-28T10:27:22Z</time><name>PT1785</name></trkpt>
<trkpt lat="53.097700" lon="-1.649221"><ele>306</ele><time>2020-10-28T10:27:24Z</time><name>PT1786</name></trkpt>
<trkpt lat="53.097705" lon="-1.649248"><ele>307</ele><time>2020-10-28T10:27:25Z</time><name>PT1787</name></trkpt>
<trkpt lat="53.097706" lon="-1.649260"><ele>307</ele><time>2020-10-28T10:27:25Z</time><name>PT1788</name></trkpt>
<trkpt lat="53.097712" lon="-1.649263"><ele>307</ele><time>2020-10-28T10:27:27Z</time><name>PT1789</name></trkpt>
<trkpt lat="53.097716" lon="-1.649272"><ele>308</ele><time>2020-10-28T10:27:28Z</time><name>PT1790</name></trkpt>
<trkpt lat="53.097718" lon="-1.649297"><ele>308</ele><time>2020-10-28T10:27:28Z</time><name>PT1791</name></trkpt>
<trkpt lat="53.097719" lon="-1.649314"><ele>308</ele><time>2020-10-28T10:27:30Z</time><name>PT1792</name></trkpt>
<trkpt lat="53.097724" lon="-1.649333"><ele>307</ele><time>2020-10-28T10:27:31Z</time><name>PT1793</name></trkpt>
<trkpt lat="53.097732" lon="-1.649353"><ele>308</ele><time>2020-10-28T10:27:31Z</time><name>PT1794</name></trkpt>
<trkpt lat="53.097736" lon="-1.649363"><ele>308</ele><time>2020-10-28T10:27:33Z</time><name>PT1795</name></trkpt>
<trkpt lat="53.097739" lon="-1.649379"><ele>309</ele><time>2020-10-28T10:27:34Z</time><name>PT1796</name></trkpt>
<trkpt lat="53.097738" lon="-1.649398"><ele>309</ele><time>2020-10-28T10:27:34Z</time><name>PT1797</name></trkpt>
<trkpt lat="53.097738" lon="-1.649418"><ele>309</ele><time>2020-10-28T10:27:36Z</time><name>PT1798</name></trkpt>
<trkpt lat="53.097744" lon="-1.649434"><ele>309</ele><time>2020-10-28T10:27:37Z</time><name>PT1799</name></trkpt>
<trkpt lat="53.097747" lon="-1.649446"><ele>309</ele><time>2020-10-28T10:27:37Z</time><name>PT1800</name></trkpt>
<trkpt lat="53.097749" lon="-1.649465"><ele>308</ele><time>2020-10-28T10:27:39Z</time><name>PT1801</name></trkpt>
<trkpt lat="53.097752" lon="-1.649484"><ele>308</ele><time>2020-10-28T10:27:40Z</time><name>PT1802</name></trkpt>
<trkpt lat="53.097752" lon="-1.649511"><ele>308</ele><time>2020-10-28T10:27:40Z</time><name>PT1803</name></trkpt>
<trkpt lat="53.097760" lon="-1.649530"><ele>309</ele><time>2020-10-28T10:27:42Z</time><name>PT1804</name></trkpt>
<trkpt lat="53.097764" lon="-1.649553"><ele>310</ele><time>2020-10-28T10:27:43Z</time><name>PT1805</name></trkpt>
<trkpt lat="53.097767" lon="-1.649567"><ele>311</ele><time>2020-10-28T10:27:43Z</time><name>PT1806</name></trkpt>
<trkpt lat="53.097773" lon="-1.649582"><ele>311</ele><time>2020-10-28T10:27:45Z</time><name>PT1807</name></trkpt>
<trkpt lat="53.097774" lon="-1.649602"><ele>312</ele><time>2020-10-28T10:27:46Z</time><name>PT1808</name></trkpt>
<trkpt lat="53.097782" lon="-1.649624"><ele>312</ele><time>2020-10-28T10:27:46Z</time><name>PT1809</name></trkpt>
<trkpt lat="53.097784" lon="-1.649648"><ele>313</ele><time>2020-10-28T10:27:48Z</time><name>PT1810</name></trkpt>
<trkpt lat="53.097791" lon="-1.649667"><ele>314</ele><time>2020-10-28T10:27:49Z</time><name>PT1811</name></trkpt>
<trkpt lat="53.097801" lon="-1.649680"><ele>315</ele><time>2020-10-28T10:27:49Z</time><name>PT1812</name></trkpt>
<trkpt lat="53.097807" lon="-1.649697"><ele>316</ele><time>2020-10-28T10:27:51Z</time><name>PT1813</name></trkpt>
<trkpt lat="53.097811" lon="-1.649714"><ele>317</ele><time>2020-10-28T10:27:52Z</time><name>PT1814</name></trkpt>
<trkpt lat="53.097811" lon="-1.649731"><ele>317</ele><time>2020-10-28T10:27:52Z</time><name>PT1815</name></trkpt>
<trkpt lat="53.097817" lon="-1.649749"><ele>319</ele><time>2020-10-28T10:27:54Z</time><name>PT1816</name></trkpt>
<trkpt lat="53.097825" lon="-1.649768"><ele>319</ele><time>2020-10-28T10:27:55Z</time><name>PT1817</name></trkpt>
<trkpt lat="53.097836" lon="-1.649781"><ele>319</ele><time>2020-10-28T10:27:55Z</time><name>PT1818</name></trkpt>
<trkpt lat="53.097829" lon="-1.649787"><ele>319</ele><time>2020-10-28T10:27:57Z</time><name>PT1819</name></trkpt>
<trkpt lat="53.097834" lon="-1.649797"><ele>319</ele><time>2020-10-28T10:27:58Z</time><name>PT1820</name></trkpt>
<trkpt lat="53.097835" lon="-1.649816"><ele>318</ele><time>2020-10-28T10:27:58Z</time><name>PT1821</name></trkpt>
<trkpt lat="53.097839" lon="-1.649833"><ele>317</ele><time>2020-10-28T10:28:00Z</time><name>PT1822</name></trkpt>
<trkpt lat="53.097843" lon="-1.649855"><ele>317</ele><time>2020-10-28T10:28:01Z</time><name>PT1823</name></trkpt>
<trkpt lat="53.097847" lon="-1.649873"><ele>317</ele><time>2020-10-28T10:28:01Z</time><name>PT1824</name></trkpt>
<trkpt lat="53.097843" lon="-1.649898"><ele>316</ele><time>2020-10-28T10:28:03Z</time><name>PT1825</name></trkpt>
<trkpt lat="53.097840" lon="-1.649917"><ele>314</ele><time>2020-10-28T10:28:04Z</time><name>PT1826</name></trkpt>
<trkpt lat="53.097842" lon="-1.649934"><ele>314</ele><time>2020-10-28T10:28:04Z</time><name>PT1827</name></trkpt>
<trkpt lat="53.097844" lon="-1.649961"><ele>313</ele><time>2020-10-28T10:28:06Z</time><name>PT1828</name></trkpt>
<trkpt lat="53.097848" lon="-1.649982"><ele>313</ele><time>2020-10-28T10:28:07Z</time><name>PT1829</name></trkpt>
<trkpt lat="53.097850" lon="-1.650000"><ele>312</ele><time>2020-10-28T10:28:07Z</time><name>PT1830</name></trkpt>
<trkpt lat="53.097853" lon="-1.650021"><ele>312</ele><time>2020-10-28T10:28:09Z</time><name>PT1831</name></trkpt>
<trkpt lat="53.097865" lon="-1.650038"><ele>313</ele><time>2020-10-28T10:28:10Z</time><name>PT1832</name></trkpt>
<trkpt lat="53.097873" lon="-1.650059"><ele>314</ele><time>2020-10-28T10:28:10Z</time><name>PT1833</name></trkpt>
<trkpt lat="53.097878" lon="-1.650086"><ele>314</ele><time>2020-10-28T10:28:12Z</time><name>PT1834</name></trkpt>
<trkpt lat="53.097880" lon="-1.650116"><ele>314</ele><time>2020-10-28T10:28:13Z</time><name>PT1835</name></trkpt>
<trkpt lat="53.097881" lon="-1.650136"><ele>314</ele><time>2020-10-28T10:28:14Z</time><name>PT1836</name></trkpt>
<trkpt lat="53.097883" lon="-1.650169"><ele>315</ele><time>2020-10-28T10:28:15Z</time><name>PT1837</name></trkpt>
<trkpt lat="53.097889" lon="-1.650189"><ele>315</ele><time>2020-10-28T10:28:16Z</time><name>PT1838</name></trkpt>
<trkpt lat="53.097897" lon="-1.650211"><ele>315</ele><time>2020-10-28T10:28:16Z</time><name>PT1839</name></trkpt>
<trkpt lat="53.097898" lon="-1.650240"><ele>315</ele><time>2020-10-28T10:28:18Z</time><name>PT1840</name></trkpt>
<trkpt lat="53.097901" lon="-1.650267"><ele>315</ele><time>2020-10-28T10:28:19Z</time><name>PT1841</name></trkpt>
<trkpt lat="53.097905" lon="-1.650293"><ele>315</ele><time>2020-10-28T10:28:19Z</time><name>PT1842</name></trkpt>
<trkpt lat="53.097908" lon="-1.650310"><ele>315</ele><time>2020-10-28T10:28:21Z</time><name>PT1843</name></trkpt>
<trkpt lat="53.097913" lon="-1.650340"><ele>317</ele><time>2020-10-28T10:28:22Z</time><name>PT1844</name></trkpt>
<trkpt lat="53.097913" lon="-1.650359"><ele>315</ele><time>2020-10-28T10:28:22Z</time><name>PT1845</name></trkpt>
<trkpt lat="53.097920" lon="-1.650376"><ele>315</ele><time>2020-10-28T10:28:24Z</time><name>PT1846</name></trkpt>
<trkpt lat="53.097928" lon="-1.650394"><ele>315</ele><time>2020-10-28T10:28:25Z</time><name>PT1847</name></trkpt>
<trkpt lat="53.097932" lon="-1.650419"><ele>315</ele><time>2020-10-28T10:28:25Z</time><name>PT1848</name></trkpt>
<trkpt lat="53.097944" lon="-1.650446"><ele>315</ele><time>2020-10-28T10:28:27Z</time><name>PT1849</name></trkpt>
<trkpt lat="53.097950" lon="-1.650472"><ele>316</ele><time>2020-10-28T10:28:28Z</time><name>PT1850</name></trkpt>
<trkpt lat="53.097959" lon="-1.650496"><ele>317</ele><time>2020-10-28T10:28:28Z</time><name>PT1851</name></trkpt>
<trkpt lat="53.097966" lon="-1.650520"><ele>318</ele><time>2020-10-28T10:28:30Z</time><name>PT1852</name></trkpt>
<trkpt lat="53.097964" lon="-1.650550"><ele>319</ele><time>2020-10-28T10:28:31Z</time><name>PT1853</name></trkpt>
<trkpt lat="53.097969" lon="-1.650568"><ele>318</ele><time>2020-10-28T10:28:31Z</time><name>PT1854</name></trkpt>
<trkpt lat="53.097973" lon="-1.650587"><ele>318</ele><time>2020-10-28T10:28:33Z</time><name>PT1855</name></trkpt>
<trkpt lat="53.097979" lon="-1.650606"><ele>317</ele><time>2020-10-28T10:28:34Z</time><name>PT1856</name></trkpt>
<trkpt lat="53.097982" lon="-1.650623"><ele>317</ele><time>2020-10-28T10:28:34Z</time><name>PT1857</name></trkpt>
<trkpt lat="53.097983" lon="-1.650639"><ele>316</ele><time>2020-10-28T10:28:36Z</time><name>PT1858</name></trkpt>
<trkpt lat="53.097986" lon="-1.650661"><ele>316</ele><time>2020-10-28T10:28:37Z</time><name>PT1859</name></trkpt>
<trkpt lat="53.097989" lon="-1.650684"><ele>315</ele><time>2020-10-28T10:28:37Z</time><name>PT1860</name></trkpt>
<trkpt lat="53.097985" lon="-1.650695"><ele>316</ele><time>2020-10-28T10:28:39Z</time><name>PT1861</name></trkpt>
<trkpt lat="53.097986" lon="-1.650709"><ele>315</ele><time>2020-10-28T10:28:40Z</time><name>PT1862</name></trkpt>
<trkpt lat="53.097987" lon="-1.650726"><ele>315</ele><time>2020-10-28T10:28:41Z</time><name>PT1863</name></trkpt>
<trkpt lat="53.097984" lon="-1.650750"><ele>314</ele><time>2020-10-28T10:28:42Z</time><name>PT1864</name></trkpt>
<trkpt lat="53.097983" lon="-1.650782"><ele>315</ele><time>2020-10-28T10:28:43Z</time><name>PT1865</name></trkpt>
<trkpt lat="53.097985" lon="-1.650807"><ele>315</ele><time>2020-10-28T10:28:43Z</time><name>PT1866</name></trkpt>
<trkpt lat="53.097985" lon="-1.650823"><ele>314</ele><time>2020-10-28T10:28:45Z</time><name>PT1867</name></trkpt>
<trkpt lat="53.097984" lon="-1.650843"><ele>314</ele><time>2020-10-28T10:28:46Z</time><name>PT1868</name></trkpt>
<trkpt lat="53.097987" lon="-1.650860"><ele>313</ele><time>2020-10-28T10:28:46Z</time><name>PT1869</name></trkpt>
<trkpt lat="53.097988" lon="-1.650887"><ele>313</ele><time>2020-10-28T10:28:48Z</time><name>PT1870</name></trkpt>
<trkpt lat="53.097985" lon="-1.650915"><ele>312</ele><time>2020-10-28T10:28:49Z</time><name>PT1871</name></trkpt>
<trkpt lat="53.097988" lon="-1.650943"><ele>312</ele><time>2020-10-28T10:28:49Z</time><name>PT1872</name></trkpt>
<trkpt lat="53.097990" lon="-1.650965"><ele>311</ele><time>2020-10-28T10:28:51Z</time><name>PT1873</name></trkpt>
<trkpt lat="53.097988" lon="-1.650997"><ele>313</ele><time>2020-10-28T10:28:52Z</time><name>PT1874</name></trkpt>
<trkpt lat="53.097991" lon="-1.651020"><ele>314</ele><time>2020-10-28T10:28:52Z</time><name>PT1875</name></trkpt>
<trkpt lat="53.097990" lon="-1.651041"><ele>314</ele><time>2020-10-28T10:28:54Z</time><name>PT1876</name></trkpt>
<trkpt lat="53.097989" lon="-1.651065"><ele>315</ele><time>2020-10-28T10:28:55Z</time><name>PT1877</name></trkpt>
<trkpt lat="53.097988" lon="-1.651093"><ele>315</ele><time>2020-10-28T10:28:56Z</time><name>PT1878</name></trkpt>
<trkpt lat="53.097986" lon="-1.651113"><ele>315</ele><time>2020-10-28T10:28:57Z</time><name>PT1879</name></trkpt>
<trkpt lat="53.097986" lon="-1.651139"><ele>315</ele><time>2020-10-28T10:28:58Z</time><name>PT1880</name></trkpt>
<trkpt lat="53.097989" lon="-1.651168"><ele>316</ele><time>2020-10-28T10:28:58Z</time><name>PT1881</name></trkpt>
<trkpt lat="53.097989" lon="-1.651196"><ele>314</ele><time>2020-10-28T10:29:00Z</time><name>PT1882</name></trkpt>
<trkpt lat="53.097990" lon="-1.651244"><ele>316</ele><time>2020-10-28T10:29:01Z</time><name>PT1883</name></trkpt>
<trkpt lat="53.097981" lon="-1.651347"><ele>320</ele><time>2020-10-28T10:29:04Z</time><name>PT1884</name></trkpt>
<trkpt lat="53.097977" lon="-1.651437"><ele>322</ele><time>2020-10-28T10:29:07Z</time><name>PT1885</name></trkpt>
<trkpt lat="53.097970" lon="-1.651504"><ele>323</ele><time>2020-10-28T10:29:10Z</time><name>PT1886</name></trkpt>
<trkpt lat="53.097965" lon="-1.651556"><ele>324</ele><time>2020-10-28T10:29:13Z</time><name>PT1887</name></trkpt>
<trkpt lat="53.097959" lon="-1.651610"><ele>326</ele><time>2020-10-28T10:29:16Z</time><name>PT1888</name></trkpt>
<trkpt lat="53.097947" lon="-1.651678"><ele>328</ele><time>2020-10-28T10:29:21Z</time><name>PT1889</name></trkpt>
<trkpt lat="53.097940" lon="-1.651724"><ele>328</ele><time>2020-10-28T10:29:24Z</time><name>PT1890</name></trkpt>
<trkpt lat="53.097928" lon="-1.651775"><ele>328</ele><time>2020-10-28T10:29:28Z</time><name>PT1891</name></trkpt>
<trkpt lat="53.097923" lon="-1.651807"><ele>328</ele><time>2020-10-28T10:29:31Z</time><name>PT1892</name></trkpt>
<trkpt lat="53.097916" lon="-1.651881"><ele>328</ele><time>2020-10-28T10:29:34Z</time><name>PT1893</name></trkpt>
<trkpt lat="53.097899" lon="-1.651976"><ele>327</ele><time>2020-10-28T10:29:39Z</time><name>PT1894</name></trkpt>
<trkpt lat="53.097889" lon="-1.652039"><ele>326</ele><time>2020-10-28T10:29:42Z</time><name>PT1895</name></trkpt>
<trkpt lat="53.097876" lon="-1.652129"><ele>326</ele><time>2020-10-28T10:29:46Z</time><name>PT1896</name></trkpt>
<trkpt lat="53.097856" lon="-1.652255"><ele>326</ele><time>2020-10-28T10:29:49Z</time><name>PT1897</name></trkpt>
<trkpt lat="53.097846" lon="-1.652326"><ele>327</ele><time>2020-10-28T10:29:52Z</time><name>PT1898</name></trkpt>
<trkpt lat="53.097837" lon="-1.652422"><ele>328</ele><time>2020-10-28T10:29:57Z</time><name>PT1899</name></trkpt>
<trkpt lat="53.097831" lon="-1.652494"><ele>330</ele><time>2020-10-28T10:30:00Z</time><name>PT1900</name></trkpt>
<trkpt lat="53.097819" lon="-1.652580"><ele>330</ele><time>2020-10-28T10:30:04Z</time><name>PT1901</name></trkpt>
<trkpt lat="53.097805" lon="-1.652670"><ele>330</ele><time>2020-10-28T10:30:07Z</time><name>PT1902</name></trkpt>
<trkpt lat="53.097794" lon="-1.652749"><ele>332</ele><time>2020-10-28T10:30:12Z</time><name>PT1903</name></trkpt>
<trkpt lat="53.097781" lon="-1.652840"><ele>332</ele><time>2020-10-28T10:30:16Z</time><name>PT1904</name></trkpt>
<trkpt lat="53.097770" lon="-1.652891"><ele>333</ele><time>2020-10-28T10:30:19Z</time><name>PT1905</name></trkpt>
<trkpt lat="53.097759" lon="-1.652977"><ele>334</ele><time>2020-10-28T10:30:22Z</time><name>PT1906</name></trkpt>
<trkpt lat="53.097744" lon="-1.653066"><ele>334</ele><time>2020-10-28T10:30:27Z</time><name>PT1907</name></trkpt>
<trkpt lat="53.097730" lon="-1.653150"><ele>334</ele><time>2020-10-28T10:30:31Z</time><name>PT1908</name></trkpt>
<trkpt lat="53.097717" lon="-1.653232"><ele>333</ele><time>2020-10-28T10:30:34Z</time><name>PT1909</name></trkpt>
<trkpt lat="53.097708" lon="-1.653292"><ele>334</ele><time>2020-10-28T10:30:37Z</time><name>PT1910</name></trkpt>
<trkpt lat="53.097697" lon="-1.653354"><ele>334</ele><time>2020-10-28T10:30:40Z</time><name>PT1911</name></trkpt>
<trkpt lat="53.097689" lon="-1.653407"><ele>335</ele><time>2020-10-28T10:30:43Z</time><name>PT1912</name></trkpt>
<trkpt lat="53.097679" lon="-1.653487"><ele>334</ele><time>2020-10-28T10:30:48Z</time><name>PT1913</name></trkpt>
<trkpt lat="53.097665" lon="-1.653562"><ele>334</ele><time>2020-10-28T10:30:52Z</time><name>PT1914</name></trkpt>
<trkpt lat="53.097656" lon="-1.653632"><ele>334</ele><time>2020-10-28T10:30:55Z</time><name>PT1915</name></trkpt>
<trkpt lat="53.097643" lon="-1.653710"><ele>334</ele><time>2020-10-28T10:31:00Z</time><name>PT1916</name></trkpt>
<trkpt lat="53.097628" lon="-1.653784"><ele>334</ele><time>2020-10-28T10:31:04Z</time><name>PT1917</name></trkpt>
<trkpt lat="53.097615" lon="-1.653856"><ele>335</ele><time>2020-10-28T10:31:07Z</time><name>PT1918</name></trkpt>
<trkpt lat="53.097609" lon="-1.653910"><ele>335</ele><time>2020-10-28T10:31:10Z</time><name>PT1919</name></trkpt>
<trkpt lat="53.097594" lon="-1.653989"><ele>335</ele><time>2020-10-28T10:31:15Z</time><name>PT1920</name></trkpt>
<trkpt lat="53.097579" lon="-1.654065"><ele>335</ele><time>2020-10-28T10:31:19Z</time><name>PT1921</name></trkpt>
<trkpt lat="53.097568" lon="-1.654123"><ele>335</ele><time>2020-10-28T10:31:22Z</time><name>PT1922</name></trkpt>
<trkpt lat="53.097556" lon="-1.654203"><ele>335</ele><time>2020-10-28T10:31:25Z</time><name>PT1923</name></trkpt>
<trkpt lat="53.097546" lon="-1.654267"><ele>335</ele><time>2020-10-28T10:31:28Z</time><name>PT1924</name></trkpt>
<trkpt lat="53.097536" lon="-1.654328"><ele>335</ele><time>2020-10-28T10:31:31Z</time><name>PT1925</name></trkpt>
<trkpt lat="53.097524" lon="-1.654412"><ele>336</ele><time>2020-10-28T10:31:36Z</time><name>PT1926</name></trkpt>
<trkpt lat="53.097513" lon="-1.654470"><ele>336</ele><time>2020-10-28T10:31:39Z</time><name>PT1927</name></trkpt>
<trkpt lat="53.097504" lon="-1.654529"><ele>336</ele><time>2020-10-28T10:31:42Z</time><name>PT1928</name></trkpt>
<trkpt lat="53.097488" lon="-1.654612"><ele>336</ele><time>2020-10-28T10:31:46Z</time><name>PT1929</name></trkpt>
<trkpt lat="53.097476" lon="-1.654667"><ele>335</ele><time>2020-10-28T10:31:49Z</time><name>PT1930</name></trkpt>
<trkpt lat="53.097467" lon="-1.654724"><ele>335</ele><time>2020-10-28T10:31:52Z</time><name>PT1931</name></trkpt>
<trkpt lat="53.097457" lon="-1.654794"><ele>335</ele><time>2020-10-28T10:31:55Z</time><name>PT1932</name></trkpt>
<trkpt lat="53.097441" lon="-1.654872"><ele>334</ele><time>2020-10-28T10:31:58Z</time><name>PT1933</name></trkpt>
<trkpt lat="53.097432" lon="-1.654934"><ele>334</ele><time>2020-10-28T10:32:01Z</time><name>PT1934</name></trkpt>
<trkpt lat="53.097414" lon="-1.655012"><ele>334</ele><time>2020-10-28T10:32:06Z</time><name>PT1935</name></trkpt>
<trkpt lat="53.097404" lon="-1.655074"><ele>334</ele><time>2020-10-28T10:32:09Z</time><name>PT1936</name></trkpt>
<trkpt lat="53.097393" lon="-1.655148"><ele>334</ele><time>2020-10-28T10:32:13Z</time><name>PT1937</name></trkpt>
<trkpt lat="53.097387" lon="-1.655201"><ele>335</ele><time>2020-10-28T10:32:16Z</time><name>PT1938</name></trkpt>
<trkpt lat="53.097375" lon="-1.655279"><ele>336</ele><time>2020-10-28T10:32:19Z</time><name>PT1939</name></trkpt>
<trkpt lat="53.097364" lon="-1.655347"><ele>336</ele><time>2020-10-28T10:32:24Z</time><name>PT1940</name></trkpt>
<trkpt lat="53.097354" lon="-1.655399"><ele>337</ele><time>2020-10-28T10:32:27Z</time><name>PT1941</name></trkpt>
<trkpt lat="53.097340" lon="-1.655474"><ele>337</ele><time>2020-10-28T10:32:31Z</time><name>PT1942</name></trkpt>
<trkpt lat="53.097327" lon="-1.655531"><ele>337</ele><time>2020-10-28T10:32:34Z</time><name>PT1943</name></trkpt>
<trkpt lat="53.097309" lon="-1.655623"><ele>329</ele><time>2020-10-28T10:32:37Z</time><name>PT1944</name></trkpt>
<trkpt lat="53.097297" lon="-1.655692"><ele>327</ele><time>2020-10-28T10:32:42Z</time><name>PT1945</name></trkpt>
<trkpt lat="53.097287" lon="-1.655740"><ele>327</ele><time>2020-10-28T10:32:45Z</time><name>PT1946</name></trkpt>
<trkpt lat="53.097267" lon="-1.655818"><ele>326</ele><time>2020-10-28T10:32:49Z</time><name>PT1947</name></trkpt>
<trkpt lat="53.097256" lon="-1.655858"><ele>326</ele><time>2020-10-28T10:32:52Z</time><name>PT1948</name></trkpt>
<trkpt lat="53.097235" lon="-1.655924"><ele>323</ele><time>2020-10-28T10:32:55Z</time><name>PT1949</name></trkpt>
<trkpt lat="53.097225" lon="-1.655953"><ele>323</ele><time>2020-10-28T10:32:58Z</time><name>PT1950</name></trkpt>
<trkpt lat="53.097202" lon="-1.656003"><ele>322</ele><time>2020-10-28T10:33:03Z</time><name>PT1951</name></trkpt>
<trkpt lat="53.097186" lon="-1.656062"><ele>321</ele><time>2020-10-28T10:33:07Z</time><name>PT1952</name></trkpt>
<trkpt lat="53.097170" lon="-1.656103"><ele>321</ele><time>2020-10-28T10:33:10Z</time><name>PT1953</name></trkpt>
<trkpt lat="53.097156" lon="-1.656173"><ele>321</ele><time>2020-10-28T10:33:13Z</time><name>PT1954</name></trkpt>
<trkpt lat="53.097131" lon="-1.656242"><ele>321</ele><time>2020-10-28T10:33:16Z</time><name>PT1955</name></trkpt>
<trkpt lat="53.097110" lon="-1.656292"><ele>321</ele><time>2020-10-28T10:33:19Z</time><name>PT1956</name></trkpt>
<trkpt lat="53.097094" lon="-1.656340"><ele>321</ele><time>2020-10-28T10:33:22Z</time><name>PT1957</name></trkpt>
<trkpt lat="53.097067" lon="-1.656412"><ele>323</ele><time>2020-10-28T10:33:27Z</time><name>PT1958</name></trkpt>
<trkpt lat="53.097040" lon="-1.656491"><ele>324</ele><time>2020-10-28T10:33:31Z</time><name>PT1959</name></trkpt>
<trkpt lat="53.097017" lon="-1.656540"><ele>325</ele><time>2020-10-28T10:33:34Z</time><name>PT1960</name></trkpt>
<trkpt lat="53.096994" lon="-1.656607"><ele>328</ele><time>2020-10-28T10:33:37Z</time><name>PT1961</name></trkpt>
<trkpt lat="53.096961" lon="-1.656697"><ele>328</ele><time>2020-10-28T10:33:41Z</time><name>PT1962</name></trkpt>
<trkpt lat="53.096938" lon="-1.656756"><ele>329</ele><time>2020-10-28T10:33:44Z</time><name>PT1963</name></trkpt>
<trkpt lat="53.096905" lon="-1.656839"><ele>330</ele><time>2020-10-28T10:33:48Z</time><name>PT1964</name></trkpt>
<trkpt lat="53.096872" lon="-1.656920"><ele>330</ele><time>2020-10-28T10:33:52Z</time><name>PT1965</name></trkpt>
<trkpt lat="53.096851" lon="-1.656966"><ele>332</ele><time>2020-10-28T10:33:55Z</time><name>PT1966</name></trkpt>
<trkpt lat="53.096829" lon="-1.657017"><ele>332</ele><time>2020-10-28T10:33:58Z</time><name>PT1967</name></trkpt>
<trkpt lat="53.096806" lon="-1.657075"><ele>332</ele><time>2020-10-28T10:34:01Z</time><name>PT1968</name></trkpt>
<trkpt lat="53.096776" lon="-1.657145"><ele>333</ele><time>2020-10-28T10:34:04Z</time><name>PT1969</name></trkpt>
<trkpt lat="53.096754" lon="-1.657189"><ele>333</ele><time>2020-10-28T10:34:07Z</time><name>PT1970</name></trkpt>
<trkpt lat="53.096726" lon="-1.657260"><ele>333</ele><time>2020-10-28T10:34:12Z</time><name>PT1971</name></trkpt>
<trkpt lat="53.096698" lon="-1.657326"><ele>333</ele><time>2020-10-28T10:34:16Z</time><name>PT1972</name></trkpt>
<trkpt lat="53.096663" lon="-1.657388"><ele>332</ele><time>2020-10-28T10:34:19Z</time><name>PT1973</name></trkpt>
<trkpt lat="53.096632" lon="-1.657469"><ele>331</ele><time>2020-10-28T10:34:24Z</time><name>PT1974</name></trkpt>
<trkpt lat="53.096605" lon="-1.657540"><ele>332</ele><time>2020-10-28T10:34:28Z</time><name>PT1975</name></trkpt>
<trkpt lat="53.096594" lon="-1.657597"><ele>332</ele><time>2020-10-28T10:34:31Z</time><name>PT1976</name></trkpt>
<trkpt lat="53.096570" lon="-1.657663"><ele>331</ele><time>2020-10-28T10:34:34Z</time><name>PT1977</name></trkpt>
<trkpt lat="53.096540" lon="-1.657745"><ele>329</ele><time>2020-10-28T10:34:37Z</time><name>PT1978</name></trkpt>
<trkpt lat="53.096532" lon="-1.657773"><ele>328</ele><time>2020-10-28T10:34:37Z</time><name>PT1979</name></trkpt>
<trkpt lat="53.096525" lon="-1.657797"><ele>328</ele><time>2020-10-28T10:34:39Z</time><name>PT1980</name></trkpt>
<trkpt lat="53.096517" lon="-1.657818"><ele>329</ele><time>2020-10-28T10:34:40Z</time><name>PT1981</name></trkpt>
<trkpt lat="53.096513" lon="-1.657835"><ele>329</ele><time>2020-10-28T10:34:40Z</time><name>PT1982</name></trkpt>
<trkpt lat="53.096508" lon="-1.657851"><ele>329</ele><time>2020-10-28T10:34:42Z</time><name>PT1983</name></trkpt>
<trkpt lat="53.096505" lon="-1.657862"><ele>329</ele><time>2020-10-28T10:34:43Z</time><name>PT1984</name></trkpt>
<trkpt lat="53.096503" lon="-1.657866"><ele>329</ele><time>2020-10-28T10:34:43Z</time><name>PT1985</name></trkpt>
<trkpt lat="53.096498" lon="-1.657874"><ele>329</ele><time>2020-10-28T10:34:45Z</time><name>PT1986</name></trkpt>
<trkpt lat="53.096493" lon="-1.657886"><ele>329</ele><time>2020-10-28T10:34:46Z</time><name>PT1987</name></trkpt>
<trkpt lat="53.096487" lon="-1.657905"><ele>329</ele><time>2020-10-28T10:34:46Z</time><name>PT1988</name></trkpt>
<trkpt lat="53.096479" lon="-1.657921"><ele>329</ele><time>2020-10-28T10:34:48Z</time><name>PT1989</name></trkpt>
<trkpt lat="53.096466" lon="-1.657936"><ele>329</ele><time>2020-10-28T10:34:49Z</time><name>PT1990</name></trkpt>
<trkpt lat="53.096457" lon="-1.657953"><ele>329</ele><time>2020-10-28T10:34:49Z</time><name>PT1991</name></trkpt>
<trkpt lat="53.096449" lon="-1.657972"><ele>328</ele><time>2020-10-28T10:34:51Z</time><name>PT1992</name></trkpt>
<trkpt lat="53.096440" lon="-1.657988"><ele>328</ele><time>2020-10-28T10:34:52Z</time><name>PT1993</name></trkpt>
<trkpt lat="53.096435" lon="-1.658003"><ele>328</ele><time>2020-10-28T10:34:53Z</time><name>PT1994</name></trkpt>
<trkpt lat="53.096432" lon="-1.658017"><ele>328</ele><time>2020-10-28T10:34:54Z</time><name>PT1995</name></trkpt>
<trkpt lat="53.096427" lon="-1.658029"><ele>327</ele><time>2020-10-28T10:34:55Z</time><name>PT1996</name></trkpt>
<trkpt lat="53.096423" lon="-1.658042"><ele>327</ele><time>2020-10-28T10:34:55Z</time><name>PT1997</name></trkpt>
<trkpt lat="53.096421" lon="-1.658055"><ele>326</ele><time>2020-10-28T10:34:57Z</time><name>PT1998</name></trkpt>
<trkpt lat="53.096416" lon="-1.658069"><ele>326</ele><time>2020-10-28T10:34:58Z</time><name>PT1999</name></trkpt>
<trkpt lat="53.096412" lon="-1.658085"><ele>326</ele><time>2020-10-28T10:34:58Z</time><name>PT2000</name></trkpt>
<trkpt lat="53.096407" lon="-1.658098"><ele>326</ele><time>2020-10-28T10:35:00Z</time><name>PT2001</name></trkpt>
<trkpt lat="53.096403" lon="-1.658110"><ele>326</ele><time>2020-10-28T10:35:01Z</time><name>PT2002</name></trkpt>
<trkpt lat="53.096400" lon="-1.658124"><ele>326</ele><time>2020-10-28T10:35:01Z</time><name>PT2003</name></trkpt>
<trkpt lat="53.096398" lon="-1.658144"><ele>325</ele><time>2020-10-28T10:35:03Z</time><name>PT2004</name></trkpt>
<trkpt lat="53.096390" lon="-1.658165"><ele>326</ele><time>2020-10-28T10:35:04Z</time><name>PT2005</name></trkpt>
<trkpt lat="53.096380" lon="-1.658179"><ele>326</ele><time>2020-10-28T10:35:04Z</time><name>PT2006</name></trkpt>
<trkpt lat="53.096373" lon="-1.658194"><ele>326</ele><time>2020-10-28T10:35:06Z</time><name>PT2007</name></trkpt>
<trkpt lat="53.096368" lon="-1.658212"><ele>326</ele><time>2020-10-28T10:35:07Z</time><name>PT2008</name></trkpt>
<trkpt lat="53.096362" lon="-1.658230"><ele>325</ele><time>2020-10-28T10:35:07Z</time><name>PT2009</name></trkpt>
<trkpt lat="53.096357" lon="-1.658246"><ele>325</ele><time>2020-10-28T10:35:09Z</time><name>PT2010</name></trkpt>
<trkpt lat="53.096349" lon="-1.658267"><ele>325</ele><time>2020-10-28T10:35:10Z</time><name>PT2011</name></trkpt>
<trkpt lat="53.096343" lon="-1.658288"><ele>325</ele><time>2020-10-28T10:35:10Z</time><name>PT2012</name></trkpt>
<trkpt lat="53.096337" lon="-1.658306"><ele>325</ele><time>2020-10-28T10:35:12Z</time><name>PT2013</name></trkpt>
<trkpt lat="53.096332" lon="-1.658323"><ele>325</ele><time>2020-10-28T10:35:13Z</time><name>PT2014</name></trkpt>
<trkpt lat="53.096326" lon="-1.658339"><ele>327</ele><time>2020-10-28T10:35:13Z</time><name>PT2015</name></trkpt>
<trkpt lat="53.096324" lon="-1.658354"><ele>328</ele><time>2020-10-28T10:35:15Z</time><name>PT2016</name></trkpt>
<trkpt lat="53.096319" lon="-1.658371"><ele>328</ele><time>2020-10-28T10:35:16Z</time><name>PT2017</name></trkpt>
<trkpt lat="53.096316" lon="-1.658389"><ele>327</ele><time>2020-10-28T10:35:16Z</time><name>PT2018</name></trkpt>
<trkpt lat="53.096312" lon="-1.658400"><ele>328</ele><time>2020-10-28T10:35:18Z</time><name>PT2019</name></trkpt>
<trkpt lat="53.096308" lon="-1.658414"><ele>327</ele><time>2020-10-28T10:35:19Z</time><name>PT2020</name></trkpt>
<trkpt lat="53.096307" lon="-1.658431"><ele>328</ele><time>2020-10-28T10:35:19Z</time><name>PT2021</name></trkpt>
<trkpt lat="53.096304" lon="-1.658443"><ele>329</ele><time>2020-10-28T10:35:21Z</time><name>PT2022</name></trkpt>
<trkpt lat="53.096298" lon="-1.658458"><ele>329</ele><time>2020-10-28T10:35:22Z</time><name>PT2023</name></trkpt>
<trkpt lat="53.096296" lon="-1.658473"><ele>328</ele><time>2020-10-28T10:35:22Z</time><name>PT2024</name></trkpt>
<trkpt lat="53.096294" lon="-1.658488"><ele>329</ele><time>2020-10-28T10:35:24Z</time><name>PT2025</name></trkpt>
<trkpt lat="53.096291" lon="-1.658502"><ele>330</ele><time>2020-10-28T10:35:25Z</time><name>PT2026</name></trkpt>
<trkpt lat="53.096287" lon="-1.658513"><ele>330</ele><time>2020-10-28T10:35:25Z</time><name>PT2027</name></trkpt>
<trkpt lat="53.096283" lon="-1.658524"><ele>329</ele><time>2020-10-28T10:35:27Z</time><name>PT2028</name></trkpt>
<trkpt lat="53.096276" lon="-1.658541"><ele>329</ele><time>2020-10-28T10:35:28Z</time><name>PT2029</name></trkpt>
<trkpt lat="53.096271" lon="-1.658555"><ele>330</ele><time>2020-10-28T10:35:28Z</time><name>PT2030</name></trkpt>
<trkpt lat="53.096268" lon="-1.658570"><ele>329</ele><time>2020-10-28T10:35:30Z</time><name>PT2031</name></trkpt>
<trkpt lat="53.096265" lon="-1.658591"><ele>329</ele><time>2020-10-28T10:35:31Z</time><name>PT2032</name></trkpt>
<trkpt lat="53.096259" lon="-1.658603"><ele>329</ele><time>2020-10-28T10:35:31Z</time><name>PT2033</name></trkpt>
<trkpt lat="53.096252" lon="-1.658621"><ele>329</ele><time>2020-10-28T10:35:33Z</time><name>PT2034</name></trkpt>
<trkpt lat="53.096247" lon="-1.658641"><ele>329</ele><time>2020-10-28T10:35:34Z</time><name>PT2035</name></trkpt>
<trkpt lat="53.096236" lon="-1.658655"><ele>328</ele><time>2020-10-28T10:35:34Z</time><name>PT2036</name></trkpt>
<trkpt lat="53.096226" lon="-1.658668"><ele>328</ele><time>2020-10-28T10:35:36Z</time><name>PT2037</name></trkpt>
<trkpt lat="53.096218" lon="-1.658684"><ele>328</ele><time>2020-10-28T10:35:37Z</time><name>PT2038</name></trkpt>
<trkpt lat="53.096212" lon="-1.658698"><ele>328</ele><time>2020-10-28T10:35:37Z</time><name>PT2039</name></trkpt>
<trkpt lat="53.096205" lon="-1.658711"><ele>327</ele><time>2020-10-28T10:35:39Z</time><name>PT2040</name></trkpt>
<trkpt lat="53.096199" lon="-1.658720"><ele>327</ele><time>2020-10-28T10:35:40Z</time><name>PT2041</name></trkpt>
<trkpt lat="53.096195" lon="-1.658733"><ele>327</ele><time>2020-10-28T10:35:40Z</time><name>PT2042</name></trkpt>
<trkpt lat="53.096189" lon="-1.658744"><ele>326</ele><time>2020-10-28T10:35:42Z</time><name>PT2043</name></trkpt>
<trkpt lat="53.096181" lon="-1.658763"><ele>325</ele><time>2020-10-28T10:35:43Z</time><name>PT2044</name></trkpt>
<trkpt lat="53.096171" lon="-1.658786"><ele>324</ele><time>2020-10-28T10:35:44Z</time><name>PT2045</name></trkpt>
<trkpt lat="53.096167" lon="-1.658807"><ele>323</ele><time>2020-10-28T10:35:45Z</time><name>PT2046</name></trkpt>
<trkpt lat="53.096162" lon="-1.658827"><ele>323</ele><time>2020-10-28T10:35:46Z</time><name>PT2047</name></trkpt>
<trkpt lat="53.096159" lon="-1.658846"><ele>323</ele><time>2020-10-28T10:35:46Z</time><name>PT2048</name></trkpt>
<trkpt lat="53.096156" lon="-1.658859"><ele>323</ele><time>2020-10-28T10:35:48Z</time><name>PT2049</name></trkpt>
<trkpt lat="53.096149" lon="-1.658875"><ele>322</ele><time>2020-10-28T10:35:49Z</time><name>PT2050</name></trkpt>
<trkpt lat="53.096140" lon="-1.658893"><ele>321</ele><time>2020-10-28T10:35:49Z</time><name>PT2051</name></trkpt>
<trkpt lat="53.096136" lon="-1.658912"><ele>321</ele><time>2020-10-28T10:35:51Z</time><name>PT2052</name></trkpt>
<trkpt lat="53.096132" lon="-1.658931"><ele>320</ele><time>2020-10-28T10:35:52Z</time><name>PT2053</name></trkpt>
<trkpt lat="53.096128" lon="-1.658957"><ele>320</ele><time>2020-10-28T10:35:53Z</time><name>PT2054</name></trkpt>
<trkpt lat="53.096125" lon="-1.658971"><ele>320</ele><time>2020-10-28T10:35:54Z</time><name>PT2055</name></trkpt>
<trkpt lat="53.096123" lon="-1.658989"><ele>321</ele><time>2020-10-28T10:35:55Z</time><name>PT2056</name></trkpt>
<trkpt lat="53.096118" lon="-1.659010"><ele>321</ele><time>2020-10-28T10:35:55Z</time><name>PT2057</name></trkpt>
<trkpt lat="53.096111" lon="-1.659036"><ele>321</ele><time>2020-10-28T10:35:57Z</time><name>PT2058</name></trkpt>
<trkpt lat="53.096107" lon="-1.659055"><ele>321</ele><time>2020-10-28T10:35:58Z</time><name>PT2059</name></trkpt>
<trkpt lat="53.096105" lon="-1.659070"><ele>321</ele><time>2020-10-28T10:35:58Z</time><name>PT2060</name></trkpt>
<trkpt lat="53.096106" lon="-1.659079"><ele>323</ele><time>2020-10-28T10:36:00Z</time><name>PT2061</name></trkpt>
<trkpt lat="53.096107" lon="-1.659098"><ele>323</ele><time>2020-10-28T10:36:01Z</time><name>PT2062</name></trkpt>
<trkpt lat="53.096103" lon="-1.659117"><ele>323</ele><time>2020-10-28T10:36:01Z</time><name>PT2063</name></trkpt>
<trkpt lat="53.096096" lon="-1.659133"><ele>323</ele><time>2020-10-28T10:36:03Z</time><name>PT2064</name></trkpt>
<trkpt lat="53.096089" lon="-1.659154"><ele>323</ele><time>2020-10-28T10:36:04Z</time><name>PT2065</name></trkpt>
<trkpt lat="53.096082" lon="-1.659170"><ele>324</ele><time>2020-10-28T10:36:05Z</time><name>PT2066</name></trkpt>
<trkpt lat="53.096071" lon="-1.659194"><ele>323</ele><time>2020-10-28T10:36:06Z</time><name>PT2067</name></trkpt>
<trkpt lat="53.096067" lon="-1.659224"><ele>323</ele><time>2020-10-28T10:36:07Z</time><name>PT2068</name></trkpt>
<trkpt lat="53.096062" lon="-1.659248"><ele>323</ele><time>2020-10-28T10:36:07Z</time><name>PT2069</name></trkpt>
<trkpt lat="53.096055" lon="-1.659271"><ele>323</ele><time>2020-10-28T10:36:09Z</time><name>PT2070</name></trkpt>
<trkpt lat="53.096050" lon="-1.659297"><ele>324</ele><time>2020-10-28T10:36:10Z</time><name>PT2071</name></trkpt>
<trkpt lat="53.096047" lon="-1.659317"><ele>324</ele><time>2020-10-28T10:36:10Z</time><name>PT2072</name></trkpt>
<trkpt lat="53.096042" lon="-1.659329"><ele>325</ele><time>2020-10-28T10:36:12Z</time><name>PT2073</name></trkpt>
<trkpt lat="53.096037" lon="-1.659345"><ele>324</ele><time>2020-10-28T10:36:13Z</time><name>PT2074</name></trkpt>
<trkpt lat="53.096036" lon="-1.659366"><ele>325</ele><time>2020-10-28T10:36:13Z</time><name>PT2075</name></trkpt>
<trkpt lat="53.096034" lon="-1.659382"><ele>325</ele><time>2020-10-28T10:36:15Z</time><name>PT2076</name></trkpt>
<trkpt lat="53.096030" lon="-1.659399"><ele>326</ele><time>2020-10-28T10:36:16Z</time><name>PT2077</name></trkpt>
<trkpt lat="53.096024" lon="-1.659412"><ele>326</ele><time>2020-10-28T10:36:16Z</time><name>PT2078</name></trkpt>
<trkpt lat="53.096018" lon="-1.659423"><ele>327</ele><time>2020-10-28T10:36:18Z</time><name>PT2079</name></trkpt>
<trkpt lat="53.096009" lon="-1.659438"><ele>327</ele><time>2020-10-28T10:36:19Z</time><name>PT2080</name></trkpt>
<trkpt lat="53.096002" lon="-1.659454"><ele>326</ele><time>2020-10-28T10:36:19Z</time><name>PT2081</name></trkpt>
<trkpt lat="53.095997" lon="-1.659471"><ele>326</ele><time>2020-10-28T10:36:21Z</time><name>PT2082</name></trkpt>
<trkpt lat="53.095997" lon="-1.659489"><ele>326</ele><time>2020-10-28T10:36:22Z</time><name>PT2083</name></trkpt>
<trkpt lat="53.095992" lon="-1.659505"><ele>326</ele><time>2020-10-28T10:36:22Z</time><name>PT2084</name></trkpt>
<trkpt lat="53.095984" lon="-1.659520"><ele>326</ele><time>2020-10-28T10:36:24Z</time><name>PT2085</name></trkpt>
<trkpt lat="53.095977" lon="-1.659533"><ele>326</ele><time>2020-10-28T10:36:25Z</time><name>PT2086</name></trkpt>
<trkpt lat="53.095974" lon="-1.659552"><ele>325</ele><time>2020-10-28T10:36:25Z</time><name>PT2087</name></trkpt>
<trkpt lat="53.095967" lon="-1.659571"><ele>324</ele><time>2020-10-28T10:36:27Z</time><name>PT2088</name></trkpt>
<trkpt lat="53.095964" lon="-1.659592"><ele>324</ele><time>2020-10-28T10:36:28Z</time><name>PT2089</name></trkpt>
<trkpt lat="53.095959" lon="-1.659618"><ele>323</ele><time>2020-10-28T10:36:28Z</time><name>PT2090</name></trkpt>
<trkpt lat="53.095955" lon="-1.659636"><ele>324</ele><time>2020-10-28T10:36:30Z</time><name>PT2091</name></trkpt>
<trkpt lat="53.095949" lon="-1.659650"><ele>323</ele><time>2020-10-28T10:36:31Z</time><name>PT2092</name></trkpt>
<trkpt lat="53.095945" lon="-1.659674"><ele>323</ele><time>2020-10-28T10:36:31Z</time><name>PT2093</name></trkpt>
<trkpt lat="53.095935" lon="-1.659681"><ele>321</ele><time>2020-10-28T10:36:33Z</time><name>PT2094</name></trkpt>
<trkpt lat="53.095928" lon="-1.659701"><ele>322</ele><time>2020-10-28T10:36:34Z</time><name>PT2095</name></trkpt>
<trkpt lat="53.095921" lon="-1.659716"><ele>322</ele><time>2020-10-28T10:36:34Z</time><name>PT2096</name></trkpt>
<trkpt lat="53.095918" lon="-1.659733"><ele>322</ele><time>2020-10-28T10:36:36Z</time><name>PT2097</name></trkpt>
<trkpt lat="53.095912" lon="-1.659755"><ele>321</ele><time>2020-10-28T10:36:37Z</time><name>PT2098</name></trkpt>
<trkpt lat="53.095907" lon="-1.659781"><ele>322</ele><time>2020-10-28T10:36:37Z</time><name>PT2099</name></trkpt>
<trkpt lat="53.095902" lon="-1.659802"><ele>322</ele><time>2020-10-28T10:36:39Z</time><name>PT2100</name></trkpt>
<trkpt lat="53.095899" lon="-1.659827"><ele>322</ele><time>2020-10-28T10:36:40Z</time><name>PT2101</name></trkpt>
<trkpt lat="53.095894" lon="-1.659849"><ele>321</ele><time>2020-10-28T10:36:40Z</time><name>PT2102</name></trkpt>
<trkpt lat="53.095887" lon="-1.659869"><ele>322</ele><time>2020-10-28T10:36:42Z</time><name>PT2103</name></trkpt>
<trkpt lat="53.095883" lon="-1.659893"><ele>321</ele><time>2020-10-28T10:36:43Z</time><name>PT2104</name></trkpt>
<trkpt lat="53.095878" lon="-1.659915"><ele>321</ele><time>2020-10-28T10:36:43Z</time><name>PT2105</name></trkpt>
<trkpt lat="53.095872" lon="-1.659936"><ele>321</ele><time>2020-10-28T10:36:45Z</time><name>PT2106</name></trkpt>
<trkpt lat="53.095866" lon="-1.659959"><ele>321</ele><time>2020-10-28T10:36:46Z</time><name>PT2107</name></trkpt>
<trkpt lat="53.095862" lon="-1.659986"><ele>322</ele><time>2020-10-28T10:36:46Z</time><name>PT2108</name></trkpt>
<trkpt lat="53.095859" lon="-1.660006"><ele>322</ele><time>2020-10-28T10:36:48Z</time><name>PT2109</name></trkpt>
<trkpt lat="53.095855" lon="-1.660027"><ele>322</ele><time>2020-10-28T10:36:49Z</time><name>PT2110</name></trkpt>
<trkpt lat="53.095851" lon="-1.660050"><ele>323</ele><time>2020-10-28T10:36:49Z</time><name>PT2111</name></trkpt>
<trkpt lat="53.095844" lon="-1.660068"><ele>322</ele><time>2020-10-28T10:36:51Z</time><name>PT2112</name></trkpt>
<trkpt lat="53.095838" lon="-1.660093"><ele>322</ele><time>2020-10-28T10:36:52Z</time><name>PT2113</name></trkpt>
<trkpt lat="53.095834" lon="-1.660112"><ele>323</ele><time>2020-10-28T10:36:52Z</time><name>PT2114</name></trkpt>
<trkpt lat="53.095830" lon="-1.660129"><ele>323</ele><time>2020-10-28T10:36:54Z</time><name>PT2115</name></trkpt>
<trkpt lat="53.095826" lon="-1.660150"><ele>323</ele><time>2020-10-28T10:36:55Z</time><name>PT2116</name></trkpt>
<trkpt lat="53.095820" lon="-1.660167"><ele>323</ele><time>2020-10-28T10:36:55Z</time><name>PT2117</name></trkpt>
<trkpt lat="53.095815" lon="-1.660186"><ele>323</ele><time>2020-10-28T10:36:57Z</time><name>PT2118</name></trkpt>
<trkpt lat="53.095809" lon="-1.660213"><ele>323</ele><time>2020-10-28T10:36:58Z</time><name>PT2119</name></trkpt>
<trkpt lat="53.095807" lon="-1.660236"><ele>323</ele><time>2020-10-28T10:36:58Z</time><name>PT2120</name></trkpt>
<trkpt lat="53.095802" lon="-1.660257"><ele>323</ele><time>2020-10-28T10:37:00Z</time><name>PT2121</name></trkpt>
<trkpt lat="53.095795" lon="-1.660282"><ele>323</ele><time>2020-10-28T10:37:01Z</time><name>PT2122</name></trkpt>
<trkpt lat="53.095787" lon="-1.660300"><ele>323</ele><time>2020-10-28T10:37:01Z</time><name>PT2123</name></trkpt>
<trkpt lat="53.095780" lon="-1.660320"><ele>324</ele><time>2020-10-28T10:37:03Z</time><name>PT2124</name></trkpt>
<trkpt lat="53.095777" lon="-1.660340"><ele>325</ele><time>2020-10-28T10:37:04Z</time><name>PT2125</name></trkpt>
<trkpt lat="53.095774" lon="-1.660359"><ele>325</ele><time>2020-10-28T10:37:04Z</time><name>PT2126</name></trkpt>
<trkpt lat="53.095770" lon="-1.660374"><ele>325</ele><time>2020-10-28T10:37:06Z</time><name>PT2127</name></trkpt>
<trkpt lat="53.095767" lon="-1.660396"><ele>325</ele><time>2020-10-28T10:37:07Z</time><name>PT2128</name></trkpt>
<trkpt lat="53.095764" lon="-1.660420"><ele>325</ele><time>2020-10-28T10:37:08Z</time><name>PT2129</name></trkpt>
<trkpt lat="53.095760" lon="-1.660440"><ele>325</ele><time>2020-10-28T10:37:09Z</time><name>PT2130</name></trkpt>
<trkpt lat="53.095755" lon="-1.660456"><ele>325</ele><time>2020-10-28T10:37:10Z</time><name>PT2131</name></trkpt>
<trkpt lat="53.095754" lon="-1.660475"><ele>325</ele><time>2020-10-28T10:37:11Z</time><name>PT2132</name></trkpt>
<trkpt lat="53.095752" lon="-1.660492"><ele>325</ele><time>2020-10-28T10:37:12Z</time><name>PT2133</name></trkpt>
<trkpt lat="53.095750" lon="-1.660507"><ele>325</ele><time>2020-10-28T10:37:13Z</time><name>PT2134</name></trkpt>
<trkpt lat="53.095747" lon="-1.660522"><ele>325</ele><time>2020-10-28T10:37:13Z</time><name>PT2135</name></trkpt>
<trkpt lat="53.095743" lon="-1.660531"><ele>325</ele><time>2020-10-28T10:37:15Z</time><name>PT2136</name></trkpt>
<trkpt lat="53.095742" lon="-1.660548"><ele>325</ele><time>2020-10-28T10:37:16Z</time><name>PT2137</name></trkpt>
<trkpt lat="53.095738" lon="-1.660567"><ele>325</ele><time>2020-10-28T10:37:17Z</time><name>PT2138</name></trkpt>
<trkpt lat="53.095734" lon="-1.660586"><ele>325</ele><time>2020-10-28T10:37:18Z</time><name>PT2139</name></trkpt>
<trkpt lat="53.095732" lon="-1.660609"><ele>325</ele><time>2020-10-28T10:37:19Z</time><name>PT2140</name></trkpt>
<trkpt lat="53.095730" lon="-1.660633"><ele>325</ele><time>2020-10-28T10:37:19Z</time><name>PT2141</name></trkpt>
<trkpt lat="53.095725" lon="-1.660658"><ele>325</ele><time>2020-10-28T10:37:21Z</time><name>PT2142</name></trkpt>
<trkpt lat="53.095724" lon="-1.660683"><ele>325</ele><time>2020-10-28T10:37:22Z</time><name>PT2143</name></trkpt>
<trkpt lat="53.095723" lon="-1.660704"><ele>325</ele><time>2020-10-28T10:37:23Z</time><name>PT2144</name></trkpt>
<trkpt lat="53.095721" lon="-1.660727"><ele>325</ele><time>2020-10-28T10:37:24Z</time><name>PT2145</name></trkpt>
<trkpt lat="53.095718" lon="-1.660750"><ele>325</ele><time>2020-10-28T10:37:25Z</time><name>PT2146</name></trkpt>
<trkpt lat="53.095712" lon="-1.660771"><ele>326</ele><time>2020-10-28T10:37:26Z</time><name>PT2147</name></trkpt>
<trkpt lat="53.095711" lon="-1.660792"><ele>326</ele><time>2020-10-28T10:37:27Z</time><name>PT2148</name></trkpt>
<trkpt lat="53.095708" lon="-1.660816"><ele>326</ele><time>2020-10-28T10:37:28Z</time><name>PT2149</name></trkpt>
<trkpt lat="53.095708" lon="-1.660836"><ele>327</ele><time>2020-10-28T10:37:28Z</time><name>PT2150</name></trkpt>
<trkpt lat="53.095706" lon="-1.660859"><ele>327</ele><time>2020-10-28T10:37:30Z</time><name>PT2151</name></trkpt>
<trkpt lat="53.095704" lon="-1.660885"><ele>327</ele><time>2020-10-28T10:37:31Z</time><name>PT2152</name></trkpt>
<trkpt lat="53.095703" lon="-1.660908"><ele>326</ele><time>2020-10-28T10:37:31Z</time><name>PT2153</name></trkpt>
<trkpt lat="53.095699" lon="-1.660935"><ele>325</ele><time>2020-10-28T10:37:33Z</time><name>PT2154</name></trkpt>
<trkpt lat="53.095699" lon="-1.660962"><ele>326</ele><time>2020-10-28T10:37:34Z</time><name>PT2155</name></trkpt>
<trkpt lat="53.095701" lon="-1.660982"><ele>327</ele><time>2020-10-28T10:37:34Z</time><name>PT2156</name></trkpt>
<trkpt lat="53.095701" lon="-1.661001"><ele>327</ele><time>2020-10-28T10:37:36Z</time><name>PT2157</name></trkpt>
<trkpt lat="53.095702" lon="-1.661022"><ele>327</ele><time>2020-10-28T10:37:37Z</time><name>PT2158</name></trkpt>
<trkpt lat="53.095702" lon="-1.661045"><ele>327</ele><time>2020-10-28T10:37:37Z</time><name>PT2159</name></trkpt>
<trkpt lat="53.095706" lon="-1.661129"><ele>328</ele><time>2020-10-28T10:37:42Z</time><name>PT2160</name></trkpt>
<trkpt lat="53.095712" lon="-1.661219"><ele>328</ele><time>2020-10-28T10:37:46Z</time><name>PT2161</name></trkpt>
<trkpt lat="53.095721" lon="-1.661279"><ele>328</ele><time>2020-10-28T10:37:49Z</time><name>PT2162</name></trkpt>
<trkpt lat="53.095728" lon="-1.661354"><ele>328</ele><time>2020-10-28T10:37:52Z</time><name>PT2163</name></trkpt>
<trkpt lat="53.095736" lon="-1.661415"><ele>329</ele><time>2020-10-28T10:37:55Z</time><name>PT2164</name></trkpt>
<trkpt lat="53.095754" lon="-1.661465"><ele>329</ele><time>2020-10-28T10:37:58Z</time><name>PT2165</name></trkpt>
<trkpt lat="53.095771" lon="-1.661523"><ele>329</ele><time>2020-10-28T10:38:01Z</time><name>PT2166</name></trkpt>
<trkpt lat="53.095799" lon="-1.661581"><ele>329</ele><time>2020-10-28T10:38:06Z</time><name>PT2167</name></trkpt>
<trkpt lat="53.095816" lon="-1.661622"><ele>330</ele><time>2020-10-28T10:38:09Z</time><name>PT2168</name></trkpt>
<trkpt lat="53.095840" lon="-1.661671"><ele>330</ele><time>2020-10-28T10:38:12Z</time><name>PT2169</name></trkpt>
<trkpt lat="53.095875" lon="-1.661732"><ele>331</ele><time>2020-10-28T10:38:16Z</time><name>PT2170</name></trkpt>
<trkpt lat="53.095913" lon="-1.661791"><ele>331</ele><time>2020-10-28T10:38:19Z</time><name>PT2171</name></trkpt>
<trkpt lat="53.095940" lon="-1.661832"><ele>331</ele><time>2020-10-28T10:38:22Z</time><name>PT2172</name></trkpt>
<trkpt lat="53.095979" lon="-1.661882"><ele>331</ele><time>2020-10-28T10:38:27Z</time><name>PT2173</name></trkpt>
<trkpt lat="53.096007" lon="-1.661938"><ele>331</ele><time>2020-10-28T10:38:30Z</time><name>PT2174</name></trkpt>
<trkpt lat="53.096040" lon="-1.661977"><ele>331</ele><time>2020-10-28T10:38:33Z</time><name>PT2175</name></trkpt>
<trkpt lat="53.096080" lon="-1.662028"><ele>331</ele><time>2020-10-28T10:38:37Z</time><name>PT2176</name></trkpt>
<trkpt lat="53.096112" lon="-1.662061"><ele>331</ele><time>2020-10-28T10:38:40Z</time><name>PT2177</name></trkpt>
<trkpt lat="53.096141" lon="-1.662093"><ele>330</ele><time>2020-10-28T10:38:43Z</time><name>PT2178</name></trkpt>
<trkpt lat="53.096172" lon="-1.662126"><ele>330</ele><time>2020-10-28T10:38:46Z</time><name>PT2179</name></trkpt>
<trkpt lat="53.096204" lon="-1.662155"><ele>330</ele><time>2020-10-28T10:38:49Z</time><name>PT2180</name></trkpt>
<trkpt lat="53.096235" lon="-1.662190"><ele>330</ele><time>2020-10-28T10:38:52Z</time><name>PT2181</name></trkpt>
<trkpt lat="53.096277" lon="-1.662223"><ele>330</ele><time>2020-10-28T10:38:55Z</time><name>PT2182</name></trkpt>
<trkpt lat="53.096308" lon="-1.662253"><ele>330</ele><time>2020-10-28T10:38:58Z</time><name>PT2183</name></trkpt>
<trkpt lat="53.096344" lon="-1.662302"><ele>329</ele><time>2020-10-28T10:39:03Z</time><name>PT2184</name></trkpt>
<trkpt lat="53.096387" lon="-1.662338"><ele>330</ele><time>2020-10-28T10:39:07Z</time><name>PT2185</name></trkpt>
<trkpt lat="53.096418" lon="-1.662365"><ele>330</ele><time>2020-10-28T10:39:10Z</time><name>PT2186</name></trkpt>
<trkpt lat="53.096459" lon="-1.662404"><ele>330</ele><time>2020-10-28T10:39:13Z</time><name>PT2187</name></trkpt>
<trkpt lat="53.096505" lon="-1.662437"><ele>330</ele><time>2020-10-28T10:39:18Z</time><name>PT2188</name></trkpt>
<trkpt lat="53.096538" lon="-1.662464"><ele>330</ele><time>2020-10-28T10:39:21Z</time><name>PT2189</name></trkpt>
<trkpt lat="53.096573" lon="-1.662491"><ele>330</ele><time>2020-10-28T10:39:24Z</time><name>PT2190</name></trkpt>
<trkpt lat="53.096618" lon="-1.662531"><ele>330</ele><time>2020-10-28T10:39:28Z</time><name>PT2191</name></trkpt>
<trkpt lat="53.096664" lon="-1.662563"><ele>330</ele><time>2020-10-28T10:39:31Z</time><name>PT2192</name></trkpt>
<trkpt lat="53.096708" lon="-1.662596"><ele>329</ele><time>2020-10-28T10:39:36Z</time><name>PT2193</name></trkpt>
<trkpt lat="53.096741" lon="-1.662617"><ele>329</ele><time>2020-10-28T10:39:39Z</time><name>PT2194</name></trkpt>
<trkpt lat="53.096773" lon="-1.662642"><ele>329</ele><time>2020-10-28T10:39:42Z</time><name>PT2195</name></trkpt>
<trkpt lat="53.096814" lon="-1.662674"><ele>328</ele><time>2020-10-28T10:39:46Z</time><name>PT2196</name></trkpt>
<trkpt lat="53.096845" lon="-1.662699"><ele>328</ele><time>2020-10-28T10:39:49Z</time><name>PT2197</name></trkpt>
<trkpt lat="53.096874" lon="-1.662718"><ele>327</ele><time>2020-10-28T10:39:52Z</time><name>PT2198</name></trkpt>
<trkpt lat="53.096908" lon="-1.662737"><ele>327</ele><time>2020-10-28T10:39:55Z</time><name>PT2199</name></trkpt>
<trkpt lat="53.096952" lon="-1.662775"><ele>327</ele><time>2020-10-28T10:39:58Z</time><name>PT2200</name></trkpt>
<trkpt lat="53.096988" lon="-1.662804"><ele>327</ele><time>2020-10-28T10:40:01Z</time><name>PT2201</name></trkpt>
<trkpt lat="53.097030" lon="-1.662853"><ele>328</ele><time>2020-10-28T10:40:06Z</time><name>PT2202</name></trkpt>
<trkpt lat="53.097076" lon="-1.662907"><ele>329</ele><time>2020-10-28T10:40:10Z</time><name>PT2203</name></trkpt>
<trkpt lat="53.097098" lon="-1.662944"><ele>328</ele><time>2020-10-28T10:40:13Z</time><name>PT2204</name></trkpt>
<trkpt lat="53.097130" lon="-1.662973"><ele>327</ele><time>2020-10-28T10:40:16Z</time><name>PT2205</name></trkpt>
<trkpt lat="53.097160" lon="-1.663006"><ele>327</ele><time>2020-10-28T10:40:19Z</time><name>PT2206</name></trkpt>
<trkpt lat="53.097203" lon="-1.663046"><ele>327</ele><time>2020-10-28T10:40:22Z</time><name>PT2207</name></trkpt>
<trkpt lat="53.097232" lon="-1.663076"><ele>326</ele><time>2020-10-28T10:40:25Z</time><name>PT2208</name></trkpt>
<trkpt lat="53.097271" lon="-1.663107"><ele>325</ele><time>2020-10-28T10:40:30Z</time><name>PT2209</name></trkpt>
<trkpt lat="53.097308" lon="-1.663159"><ele>325</ele><time>2020-10-28T10:40:34Z</time><name>PT2210</name></trkpt>
<trkpt lat="53.097351" lon="-1.663215"><ele>325</ele><time>2020-10-28T10:40:37Z</time><name>PT2211</name></trkpt>
<trkpt lat="53.097379" lon="-1.663262"><ele>325</ele><time>2020-10-28T10:40:40Z</time><name>PT2212</name></trkpt>
<trkpt lat="53.097415" lon="-1.663321"><ele>325</ele><time>2020-10-28T10:40:45Z</time><name>PT2213</name></trkpt>
<trkpt lat="53.097444" lon="-1.663383"><ele>326</ele><time>2020-10-28T10:40:48Z</time><name>PT2214</name></trkpt>
<trkpt lat="53.097467" lon="-1.663430"><ele>327</ele><time>2020-10-28T10:40:51Z</time><name>PT2215</name></trkpt>
<trkpt lat="53.097491" lon="-1.663486"><ele>328</ele><time>2020-10-28T10:40:54Z</time><name>PT2216</name></trkpt>
<trkpt lat="53.097520" lon="-1.663558"><ele>330</ele><time>2020-10-28T10:40:57Z</time><name>PT2217</name></trkpt>
<trkpt lat="53.097556" lon="-1.663624"><ele>330</ele><time>2020-10-28T10:41:01Z</time><name>PT2218</name></trkpt>
<trkpt lat="53.097563" lon="-1.663638"><ele>330</ele><time>2020-10-28T10:41:01Z</time><name>PT2219</name></trkpt>
<trkpt lat="53.097571" lon="-1.663657"><ele>330</ele><time>2020-10-28T10:41:03Z</time><name>PT2220</name></trkpt>
<trkpt lat="53.097579" lon="-1.663675"><ele>330</ele><time>2020-10-28T10:41:04Z</time><name>PT2221</name></trkpt>
<trkpt lat="53.097586" lon="-1.663692"><ele>330</ele><time>2020-10-28T10:41:04Z</time><name>PT2222</name></trkpt>
<trkpt lat="53.097593" lon="-1.663706"><ele>331</ele><time>2020-10-28T10:41:06Z</time><name>PT2223</name></trkpt>
<trkpt lat="53.097600" lon="-1.663722"><ele>330</ele><time>2020-10-28T10:41:07Z</time><name>PT2224</name></trkpt>
<trkpt lat="53.097608" lon="-1.663738"><ele>330</ele><time>2020-10-28T10:41:07Z</time><name>PT2225</name></trkpt>
<trkpt lat="53.097616" lon="-1.663755"><ele>331</ele><time>2020-10-28T10:41:09Z</time><name>PT2226</name></trkpt>
<trkpt lat="53.097624" lon="-1.663773"><ele>331</ele><time>2020-10-28T10:41:10Z</time><name>PT2227</name></trkpt>
<trkpt lat="53.097632" lon="-1.663789"><ele>331</ele><time>2020-10-28T10:41:10Z</time><name>PT2228</name></trkpt>
<trkpt lat="53.097639" lon="-1.663807"><ele>331</ele><time>2020-10-28T10:41:12Z</time><name>PT2229</name></trkpt>
<trkpt lat="53.097645" lon="-1.663822"><ele>331</ele><time>2020-10-28T10:41:13Z</time><name>PT2230</name></trkpt>
<trkpt lat="53.097655" lon="-1.663837"><ele>331</ele><time>2020-10-28T10:41:13Z</time><name>PT2231</name></trkpt>
<trkpt lat="53.097663" lon="-1.663853"><ele>331</ele><time>2020-10-28T10:41:15Z</time><name>PT2232</name></trkpt>
<trkpt lat="53.097668" lon="-1.663870"><ele>331</ele><time>2020-10-28T10:41:16Z</time><name>PT2233</name></trkpt>
<trkpt lat="53.097673" lon="-1.663887"><ele>331</ele><time>2020-10-28T10:41:16Z</time><name>PT2234</name></trkpt>
<trkpt lat="53.097679" lon="-1.663905"><ele>331</ele><time>2020-10-28T10:41:18Z</time><name>PT2235</name></trkpt>
<trkpt lat="53.097682" lon="-1.663914"><ele>331</ele><time>2020-10-28T10:41:19Z</time><name>PT2236</name></trkpt>
<trkpt lat="53.097683" lon="-1.663919"><ele>331</ele><time>2020-10-28T10:41:19Z</time><name>PT2237</name></trkpt>
<trkpt lat="53.097685" lon="-1.663925"><ele>330</ele><time>2020-10-28T10:41:21Z</time><name>PT2238</name></trkpt>
<trkpt lat="53.097689" lon="-1.663932"><ele>330</ele><time>2020-10-28T10:41:22Z</time><name>PT2239</name></trkpt>
<trkpt lat="53.097695" lon="-1.663943"><ele>330</ele><time>2020-10-28T10:41:23Z</time><name>PT2240</name></trkpt>
<trkpt lat="53.097702" lon="-1.663958"><ele>330</ele><time>2020-10-28T10:41:24Z</time><name>PT2241</name></trkpt>
<trkpt lat="53.097709" lon="-1.663970"><ele>330</ele><time>2020-10-28T10:41:25Z</time><name>PT2242</name></trkpt>
<trkpt lat="53.097717" lon="-1.663986"><ele>331</ele><time>2020-10-28T10:41:25Z</time><name>PT2243</name></trkpt>
<trkpt lat="53.097720" lon="-1.664000"><ele>330</ele><time>2020-10-28T10:41:27Z</time><name>PT2244</name></trkpt>
<trkpt lat="53.097720" lon="-1.664014"><ele>330</ele><time>2020-10-28T10:41:28Z</time><name>PT2245</name></trkpt>
<trkpt lat="53.097724" lon="-1.664021"><ele>330</ele><time>2020-10-28T10:41:28Z</time><name>PT2246</name></trkpt>
<trkpt lat="53.097730" lon="-1.664025"><ele>330</ele><time>2020-10-28T10:41:30Z</time><name>PT2247</name></trkpt>
<trkpt lat="53.097737" lon="-1.664036"><ele>330</ele><time>2020-10-28T10:41:31Z</time><name>PT2248</name></trkpt>
<trkpt lat="53.097744" lon="-1.664045"><ele>330</ele><time>2020-10-28T10:41:31Z</time><name>PT2249</name></trkpt>
<trkpt lat="53.097750" lon="-1.664058"><ele>329</ele><time>2020-10-28T10:41:33Z</time><name>PT2250</name></trkpt>
<trkpt lat="53.097759" lon="-1.664076"><ele>330</ele><time>2020-10-28T10:41:34Z</time><name>PT2251</name></trkpt>
<trkpt lat="53.097767" lon="-1.664099"><ele>330</ele><time>2020-10-28T10:41:34Z</time><name>PT2252</name></trkpt>
<trkpt lat="53.097770" lon="-1.664114"><ele>329</ele><time>2020-10-28T10:41:36Z</time><name>PT2253</name></trkpt>
<trkpt lat="53.097779" lon="-1.664131"><ele>329</ele><time>2020-10-28T10:41:37Z</time><name>PT2254</name></trkpt>
<trkpt lat="53.097786" lon="-1.664153"><ele>329</ele><time>2020-10-28T10:41:37Z</time><name>PT2255</name></trkpt>
<trkpt lat="53.097793" lon="-1.664171"><ele>329</ele><time>2020-10-28T10:41:39Z</time><name>PT2256</name></trkpt>
<trkpt lat="53.097801" lon="-1.664181"><ele>329</ele><time>2020-10-28T10:41:40Z</time><name>PT2257</name></trkpt>
<trkpt lat="53.097808" lon="-1.664196"><ele>330</ele><time>2020-10-28T10:41:40Z</time><name>PT2258</name></trkpt>
<trkpt lat="53.097818" lon="-1.664202"><ele>329</ele><time>2020-10-28T10:41:42Z</time><name>PT2259</name></trkpt>
<trkpt lat="53.097827" lon="-1.664212"><ele>329</ele><time>2020-10-28T10:41:43Z</time><name>PT2260</name></trkpt>
<trkpt lat="53.097836" lon="-1.664227"><ele>330</ele><time>2020-10-28T10:41:43Z</time><name>PT2261</name></trkpt>
<trkpt lat="53.097844" lon="-1.664239"><ele>330</ele><time>2020-10-28T10:41:45Z</time><name>PT2262</name></trkpt>
<trkpt lat="53.097851" lon="-1.664262"><ele>330</ele><time>2020-10-28T10:41:46Z</time><name>PT2263</name></trkpt>
<trkpt lat="53.097859" lon="-1.664277"><ele>330</ele><time>2020-10-28T10:41:46Z</time><name>PT2264</name></trkpt>
<trkpt lat="53.097868" lon="-1.664285"><ele>330</ele><time>2020-10-28T10:41:48Z</time><name>PT2265</name></trkpt>
<trkpt lat="53.097874" lon="-1.664301"><ele>330</ele><time>2020-10-28T10:41:49Z</time><name>PT2266</name></trkpt>
<trkpt lat="53.097880" lon="-1.664315"><ele>330</ele><time>2020-10-28T10:41:49Z</time><name>PT2267</name></trkpt>
<trkpt lat="53.097881" lon="-1.664315"><ele>330</ele><time>2020-10-28T10:41:51Z</time><name>PT2268</name></trkpt>
<trkpt lat="53.097875" lon="-1.664328"><ele>330</ele><time>2020-10-28T10:41:52Z</time><name>PT2269</name></trkpt>
<trkpt lat="53.097866" lon="-1.664326"><ele>329</ele><time>2020-10-28T10:41:53Z</time><name>PT2270</name></trkpt>
<trkpt lat="53.097856" lon="-1.664323"><ele>329</ele><time>2020-10-28T10:41:54Z</time><name>PT2271</name></trkpt>
<trkpt lat="53.097853" lon="-1.664326"><ele>329</ele><time>2020-10-28T10:41:55Z</time><name>PT2272</name></trkpt>
<trkpt lat="53.097852" lon="-1.664325"><ele>329</ele><time>2020-10-28T10:41:55Z</time><name>PT2273</name></trkpt>
<trkpt lat="53.097853" lon="-1.664325"><ele>330</ele><time>2020-10-28T10:41:57Z</time><name>PT2274</name></trkpt>
<trkpt lat="53.097853" lon="-1.664325"><ele>329</ele><time>2020-10-28T10:41:58Z</time><name>PT2275</name></trkpt>
<trkpt lat="53.097855" lon="-1.664325"><ele>330</ele><time>2020-10-28T10:41:58Z</time><name>PT2276</name></trkpt>
<trkpt lat="53.097855" lon="-1.664324"><ele>330</ele><time>2020-10-28T10:42:19Z</time><name>PT2277</name></trkpt>
<trkpt lat="53.097851" lon="-1.664326"><ele>330</ele><time>2020-10-28T10:42:19Z</time><name>PT2278</name></trkpt>
<trkpt lat="53.097840" lon="-1.664334"><ele>331</ele><time>2020-10-28T10:42:21Z</time><name>PT2279</name></trkpt>
<trkpt lat="53.097842" lon="-1.664326"><ele>331</ele><time>2020-10-28T10:42:22Z</time><name>PT2280</name></trkpt>
<trkpt lat="53.097840" lon="-1.664325"><ele>332</ele><time>2020-10-28T10:42:23Z</time><name>PT2281</name></trkpt>
<trkpt lat="53.097841" lon="-1.664324"><ele>331</ele><time>2020-10-28T10:42:24Z</time><name>PT2282</name></trkpt>
<trkpt lat="53.097842" lon="-1.664324"><ele>331</ele><time>2020-10-28T10:42:31Z</time><name>PT2283</name></trkpt>
<trkpt lat="53.097842" lon="-1.664323"><ele>331</ele><time>2020-10-28T10:42:31Z</time><name>PT2284</name></trkpt>
<trkpt lat="53.097842" lon="-1.664324"><ele>331</ele><time>2020-10-28T10:42:33Z</time><name>PT2285</name></trkpt>
<trkpt lat="53.097842" lon="-1.664324"><ele>331</ele><time>2020-10-28T10:42:34Z</time><name>PT2286</name></trkpt>
<trkpt lat="53.097841" lon="-1.664321"><ele>331</ele><time>2020-10-28T10:42:34Z</time><name>PT2287</name></trkpt>
<trkpt lat="53.097842" lon="-1.664320"><ele>331</ele><time>2020-10-28T10:42:41Z</time><name>PT2288</name></trkpt>
<trkpt lat="53.097845" lon="-1.664326"><ele>331</ele><time>2020-10-28T10:42:42Z</time><name>PT2289</name></trkpt>
<trkpt lat="53.097852" lon="-1.664336"><ele>331</ele><time>2020-10-28T10:42:43Z</time><name>PT2290</name></trkpt>
<trkpt lat="53.097859" lon="-1.664344"><ele>331</ele><time>2020-10-28T10:42:43Z</time><name>PT2291</name></trkpt>
<trkpt lat="53.097867" lon="-1.664355"><ele>331</ele><time>2020-10-28T10:42:45Z</time><name>PT2292</name></trkpt>
<trkpt lat="53.097875" lon="-1.664367"><ele>331</ele><time>2020-10-28T10:42:46Z</time><name>PT2293</name></trkpt>
<trkpt lat="53.097881" lon="-1.664379"><ele>331</ele><time>2020-10-28T10:42:46Z</time><name>PT2294</name></trkpt>
<trkpt lat="53.097889" lon="-1.664385"><ele>331</ele><time>2020-10-28T10:42:48Z</time><name>PT2295</name></trkpt>
<trkpt lat="53.097896" lon="-1.664394"><ele>331</ele><time>2020-10-28T10:42:49Z</time><name>PT2296</name></trkpt>
<trkpt lat="53.097905" lon="-1.664402"><ele>331</ele><time>2020-10-28T10:42:50Z</time><name>PT2297</name></trkpt>
<trkpt lat="53.097913" lon="-1.664419"><ele>331</ele><time>2020-10-28T10:42:51Z</time><name>PT2298</name></trkpt>
<trkpt lat="53.097919" lon="-1.664434"><ele>331</ele><time>2020-10-28T10:42:52Z</time><name>PT2299</name></trkpt>
<trkpt lat="53.097926" lon="-1.664443"><ele>331</ele><time>2020-10-28T10:42:53Z</time><name>PT2300</name></trkpt>
<trkpt lat="53.097934" lon="-1.664453"><ele>331</ele><time>2020-10-28T10:42:54Z</time><name>PT2301</name></trkpt>
<trkpt lat="53.097941" lon="-1.664453"><ele>331</ele><time>2020-10-28T10:42:55Z</time><name>PT2302</name></trkpt>
<trkpt lat="53.097946" lon="-1.664464"><ele>331</ele><time>2020-10-28T10:42:56Z</time><name>PT2303</name></trkpt>
<trkpt lat="53.097950" lon="-1.664472"><ele>331</ele><time>2020-10-28T10:42:57Z</time><name>PT2304</name></trkpt>
<trkpt lat="53.097957" lon="-1.664483"><ele>331</ele><time>2020-10-28T10:42:58Z</time><name>PT2305</name></trkpt>
<trkpt lat="53.097964" lon="-1.664498"><ele>331</ele><time>2020-10-28T10:42:59Z</time><name>PT2306</name></trkpt>
<trkpt lat="53.097971" lon="-1.664513"><ele>331</ele><time>2020-10-28T10:43:00Z</time><name>PT2307</name></trkpt>
<trkpt lat="53.097980" lon="-1.664526"><ele>332</ele><time>2020-10-28T10:43:01Z</time><name>PT2308</name></trkpt>
<trkpt lat="53.097988" lon="-1.664540"><ele>331</ele><time>2020-10-28T10:43:02Z</time><name>PT2309</name></trkpt>
<trkpt lat="53.097998" lon="-1.664554"><ele>331</ele><time>2020-10-28T10:43:03Z</time><name>PT2310</name></trkpt>
<trkpt lat="53.098002" lon="-1.664573"><ele>331</ele><time>2020-10-28T10:43:04Z</time><name>PT2311</name></trkpt>
<trkpt lat="53.098009" lon="-1.664588"><ele>331</ele><time>2020-10-28T10:43:05Z</time><name>PT2312</name></trkpt>
<trkpt lat="53.098018" lon="-1.664604"><ele>331</ele><time>2020-10-28T10:43:06Z</time><name>PT2313</name></trkpt>
<trkpt lat="53.098026" lon="-1.664618"><ele>331</ele><time>2020-10-28T10:43:07Z</time><name>PT2314</name></trkpt>
<trkpt lat="53.098032" lon="-1.664635"><ele>332</ele><time>2020-10-28T10:43:07Z</time><name>PT2315</name></trkpt>
<trkpt lat="53.098037" lon="-1.664651"><ele>331</ele><time>2020-10-28T10:43:09Z</time><name>PT2316</name></trkpt>
<trkpt lat="53.098047" lon="-1.664670"><ele>332</ele><time>2020-10-28T10:43:10Z</time><name>PT2317</name></trkpt>
<trkpt lat="53.098057" lon="-1.664679"><ele>331</ele><time>2020-10-28T10:43:10Z</time><name>PT2318</name></trkpt>
<trkpt lat="53.098061" lon="-1.664694"><ele>331</ele><time>2020-10-28T10:43:12Z</time><name>PT2319</name></trkpt>
<trkpt lat="53.098068" lon="-1.664707"><ele>332</ele><time>2020-10-28T10:43:13Z</time><name>PT2320</name></trkpt>
<trkpt lat="53.098077" lon="-1.664720"><ele>332</ele><time>2020-10-28T10:43:13Z</time><name>PT2321</name></trkpt>
<trkpt lat="53.098083" lon="-1.664737"><ele>332</ele><time>2020-10-28T10:43:15Z</time><name>PT2322</name></trkpt>
<trkpt lat="53.098090" lon="-1.664748"><ele>332</ele><time>2020-10-28T10:43:16Z</time><name>PT2323</name></trkpt>
<trkpt lat="53.098098" lon="-1.664767"><ele>332</ele><time>2020-10-28T10:43:16Z</time><name>PT2324</name></trkpt>
<trkpt lat="53.098105" lon="-1.664782"><ele>332</ele><time>2020-10-28T10:43:18Z</time><name>PT2325</name></trkpt>
<trkpt lat="53.098112" lon="-1.664803"><ele>332</ele><time>2020-10-28T10:43:19Z</time><name>PT2326</name></trkpt>
<trkpt lat="53.098119" lon="-1.664819"><ele>332</ele><time>2020-10-28T10:43:19Z</time><name>PT2327</name></trkpt>
<trkpt lat="53.098127" lon="-1.664833"><ele>332</ele><time>2020-10-28T10:43:21Z</time><name>PT2328</name></trkpt>
<trkpt lat="53.098134" lon="-1.664851"><ele>332</ele><time>2020-10-28T10:43:22Z</time><name>PT2329</name></trkpt>
<trkpt lat="53.098141" lon="-1.664865"><ele>331</ele><time>2020-10-28T10:43:22Z</time><name>PT2330</name></trkpt>
<trkpt lat="53.098147" lon="-1.664885"><ele>331</ele><time>2020-10-28T10:43:24Z</time><name>PT2331</name></trkpt>
<trkpt lat="53.098153" lon="-1.664899"><ele>331</ele><time>2020-10-28T10:43:25Z</time><name>PT2332</name></trkpt>
<trkpt lat="53.098162" lon="-1.664915"><ele>331</ele><time>2020-10-28T10:43:25Z</time><name>PT2333</name></trkpt>
<trkpt lat="53.098169" lon="-1.664927"><ele>331</ele><time>2020-10-28T10:43:27Z</time><name>PT2334</name></trkpt>
<trkpt lat="53.098177" lon="-1.664938"><ele>331</ele><time>2020-10-28T10:43:28Z</time><name>PT2335</name></trkpt>
<trkpt lat="53.098185" lon="-1.664944"><ele>331</ele><time>2020-10-28T10:43:28Z</time><name>PT2336</name></trkpt>
<trkpt lat="53.098193" lon="-1.664960"><ele>331</ele><time>2020-10-28T10:43:30Z</time><name>PT2337</name></trkpt>
<trkpt lat="53.098199" lon="-1.664975"><ele>331</ele><time>2020-10-28T10:43:31Z</time><name>PT2338</name></trkpt>
<trkpt lat="53.098204" lon="-1.664985"><ele>330</ele><time>2020-10-28T10:43:31Z</time><name>PT2339</name></trkpt>
<trkpt lat="53.098211" lon="-1.664997"><ele>330</ele><time>2020-10-28T10:43:33Z</time><name>PT2340</name></trkpt>
<trkpt lat="53.098219" lon="-1.665011"><ele>330</ele><time>2020-10-28T10:43:34Z</time><name>PT2341</name></trkpt>
<trkpt lat="53.098226" lon="-1.665028"><ele>330</ele><time>2020-10-28T10:43:34Z</time><name>PT2342</name></trkpt>
<trkpt lat="53.098232" lon="-1.665040"><ele>330</ele><time>2020-10-28T10:43:36Z</time><name>PT2343</name></trkpt>
<trkpt lat="53.098240" lon="-1.665045"><ele>330</ele><time>2020-10-28T10:43:37Z</time><name>PT2344</name></trkpt>
<trkpt lat="53.098248" lon="-1.665054"><ele>330</ele><time>2020-10-28T10:43:37Z</time><name>PT2345</name></trkpt>
<trkpt lat="53.098256" lon="-1.665069"><ele>330</ele><time>2020-10-28T10:43:39Z</time><name>PT2346</name></trkpt>
<trkpt lat="53.098264" lon="-1.665092"><ele>330</ele><time>2020-10-28T10:43:40Z</time><name>PT2347</name></trkpt>
<trkpt lat="53.098272" lon="-1.665111"><ele>330</ele><time>2020-10-28T10:43:40Z</time><name>PT2348</name></trkpt>
<trkpt lat="53.098280" lon="-1.665126"><ele>330</ele><time>2020-10-28T10:43:42Z</time><name>PT2349</name></trkpt>
<trkpt lat="53.098288" lon="-1.665141"><ele>330</ele><time>2020-10-28T10:43:43Z</time><name>PT2350</name></trkpt>
<trkpt lat="53.098294" lon="-1.665153"><ele>329</ele><time>2020-10-28T10:43:43Z</time><name>PT2351</name></trkpt>
<trkpt lat="53.098301" lon="-1.665170"><ele>329</ele><time>2020-10-28T10:43:45Z</time><name>PT2352</name></trkpt>
<trkpt lat="53.098311" lon="-1.665187"><ele>329</ele><time>2020-10-28T10:43:46Z</time><name>PT2353</name></trkpt>
<trkpt lat="53.098320" lon="-1.665202"><ele>329</ele><time>2020-10-28T10:43:46Z</time><name>PT2354</name></trkpt>
<trkpt lat="53.098326" lon="-1.665223"><ele>329</ele><time>2020-10-28T10:43:48Z</time><name>PT2355</name></trkpt>
<trkpt lat="53.098332" lon="-1.665240"><ele>329</ele><time>2020-10-28T10:43:49Z</time><name>PT2356</name></trkpt>
<trkpt lat="53.098340" lon="-1.665256"><ele>329</ele><time>2020-10-28T10:43:49Z</time><name>PT2357</name></trkpt>
<trkpt lat="53.098348" lon="-1.665267"><ele>329</ele><time>2020-10-28T10:43:51Z</time><name>PT2358</name></trkpt>
<trkpt lat="53.098356" lon="-1.665284"><ele>329</ele><time>2020-10-28T10:43:52Z</time><name>PT2359</name></trkpt>
<trkpt lat="53.098362" lon="-1.665301"><ele>329</ele><time>2020-10-28T10:43:52Z</time><name>PT2360</name></trkpt>
<trkpt lat="53.098371" lon="-1.665323"><ele>329</ele><time>2020-10-28T10:43:54Z</time><name>PT2361</name></trkpt>
<trkpt lat="53.098379" lon="-1.665339"><ele>329</ele><time>2020-10-28T10:43:55Z</time><name>PT2362</name></trkpt>
<trkpt lat="53.098388" lon="-1.665358"><ele>329</ele><time>2020-10-28T10:43:55Z</time><name>PT2363</name></trkpt>
<trkpt lat="53.098399" lon="-1.665377"><ele>329</ele><time>2020-10-28T10:43:57Z</time><name>PT2364</name></trkpt>
<trkpt lat="53.098407" lon="-1.665389"><ele>329</ele><time>2020-10-28T10:43:58Z</time><name>PT2365</name></trkpt>
<trkpt lat="53.098415" lon="-1.665406"><ele>329</ele><time>2020-10-28T10:43:58Z</time><name>PT2366</name></trkpt>
<trkpt lat="53.098424" lon="-1.665424"><ele>329</ele><time>2020-10-28T10:44:00Z</time><name>PT2367</name></trkpt>
<trkpt lat="53.098431" lon="-1.665434"><ele>329</ele><time>2020-10-28T10:44:01Z</time><name>PT2368</name></trkpt>
<trkpt lat="53.098438" lon="-1.665450"><ele>329</ele><time>2020-10-28T10:44:01Z</time><name>PT2369</name></trkpt>
<trkpt lat="53.098461" lon="-1.665476"><ele>329</ele><time>2020-10-28T10:44:04Z</time><name>PT2370</name></trkpt>
<trkpt lat="53.098493" lon="-1.665554"><ele>329</ele><time>2020-10-28T10:44:09Z</time><name>PT2371</name></trkpt>
<trkpt lat="53.098525" lon="-1.665611"><ele>329</ele><time>2020-10-28T10:44:13Z</time><name>PT2372</name></trkpt>
<trkpt lat="53.098546" lon="-1.665652"><ele>330</ele><time>2020-10-28T10:44:16Z</time><name>PT2373</name></trkpt>
<trkpt lat="53.098564" lon="-1.665698"><ele>330</ele><time>2020-10-28T10:44:19Z</time><name>PT2374</name></trkpt>
<trkpt lat="53.098589" lon="-1.665756"><ele>330</ele><time>2020-10-28T10:44:22Z</time><name>PT2375</name></trkpt>
<trkpt lat="53.098609" lon="-1.665792"><ele>329</ele><time>2020-10-28T10:44:25Z</time><name>PT2376</name></trkpt>
<trkpt lat="53.098631" lon="-1.665836"><ele>329</ele><time>2020-10-28T10:44:28Z</time><name>PT2377</name></trkpt>
<trkpt lat="53.098668" lon="-1.665899"><ele>328</ele><time>2020-10-28T10:44:33Z</time><name>PT2378</name></trkpt>
<trkpt lat="53.098692" lon="-1.665951"><ele>328</ele><time>2020-10-28T10:44:36Z</time><name>PT2379</name></trkpt>
<trkpt lat="53.098726" lon="-1.666007"><ele>328</ele><time>2020-10-28T10:44:40Z</time><name>PT2380</name></trkpt>
<trkpt lat="53.098752" lon="-1.666062"><ele>328</ele><time>2020-10-28T10:44:43Z</time><name>PT2381</name></trkpt>
<trkpt lat="53.098783" lon="-1.666117"><ele>329</ele><time>2020-10-28T10:44:46Z</time><name>PT2382</name></trkpt>
<trkpt lat="53.098805" lon="-1.666150"><ele>328</ele><time>2020-10-28T10:44:49Z</time><name>PT2383</name></trkpt>
<trkpt lat="53.098832" lon="-1.666201"><ele>329</ele><time>2020-10-28T10:44:54Z</time><name>PT2384</name></trkpt>
<trkpt lat="53.098862" lon="-1.666258"><ele>329</ele><time>2020-10-28T10:44:58Z</time><name>PT2385</name></trkpt>
<trkpt lat="53.098887" lon="-1.666297"><ele>329</ele><time>2020-10-28T10:45:01Z</time><name>PT2386</name></trkpt>
<trkpt lat="53.098908" lon="-1.666342"><ele>329</ele><time>2020-10-28T10:45:04Z</time><name>PT2387</name></trkpt>
<trkpt lat="53.098937" lon="-1.666400"><ele>329</ele><time>2020-10-28T10:45:07Z</time><name>PT2388</name></trkpt>
<trkpt lat="53.098959" lon="-1.666448"><ele>329</ele><time>2020-10-28T10:45:10Z</time><name>PT2389</name></trkpt>
<trkpt lat="53.098992" lon="-1.666524"><ele>329</ele><time>2020-10-28T10:45:15Z</time><name>PT2390</name></trkpt>
<trkpt lat="53.099027" lon="-1.666593"><ele>329</ele><time>2020-10-28T10:45:19Z</time><name>PT2391</name></trkpt>
<trkpt lat="53.099048" lon="-1.666638"><ele>329</ele><time>2020-10-28T10:45:22Z</time><name>PT2392</name></trkpt>
<trkpt lat="53.099081" lon="-1.666708"><ele>329</ele><time>2020-10-28T10:45:25Z</time><name>PT2393</name></trkpt>
<trkpt lat="53.099111" lon="-1.666761"><ele>328</ele><time>2020-10-28T10:45:30Z</time><name>PT2394</name></trkpt>
<trkpt lat="53.099131" lon="-1.666804"><ele>328</ele><time>2020-10-28T10:45:33Z</time><name>PT2395</name></trkpt>
<trkpt lat="53.099162" lon="-1.666860"><ele>329</ele><time>2020-10-28T10:45:37Z</time><name>PT2396</name></trkpt>
<trkpt lat="53.099183" lon="-1.666924"><ele>330</ele><time>2020-10-28T10:45:40Z</time><name>PT2397</name></trkpt>
<trkpt lat="53.099210" lon="-1.666958"><ele>329</ele><time>2020-10-28T10:45:43Z</time><name>PT2398</name></trkpt>
<trkpt lat="53.099233" lon="-1.667000"><ele>328</ele><time>2020-10-28T10:45:46Z</time><name>PT2399</name></trkpt>
<trkpt lat="53.099262" lon="-1.667038"><ele>327</ele><time>2020-10-28T10:45:50Z</time><name>PT2400</name></trkpt>
<trkpt lat="53.099287" lon="-1.667125"><ele>327</ele><time>2020-10-28T10:45:54Z</time><name>PT2401</name></trkpt>
<trkpt lat="53.099308" lon="-1.667178"><ele>328</ele><time>2020-10-28T10:45:57Z</time><name>PT2402</name></trkpt>
<trkpt lat="53.099337" lon="-1.667211"><ele>327</ele><time>2020-10-28T10:46:01Z</time><name>PT2403</name></trkpt>
<trkpt lat="53.099354" lon="-1.667253"><ele>326</ele><time>2020-10-28T10:46:04Z</time><name>PT2404</name></trkpt>
<trkpt lat="53.099381" lon="-1.667312"><ele>326</ele><time>2020-10-28T10:46:07Z</time><name>PT2405</name></trkpt>
<trkpt lat="53.099403" lon="-1.667353"><ele>325</ele><time>2020-10-28T10:46:10Z</time><name>PT2406</name></trkpt>
<trkpt lat="53.099427" lon="-1.667422"><ele>325</ele><time>2020-10-28T10:46:15Z</time><name>PT2407</name></trkpt>
<trkpt lat="53.099445" lon="-1.667484"><ele>326</ele><time>2020-10-28T10:46:18Z</time><name>PT2408</name></trkpt>
<trkpt lat="53.099466" lon="-1.667529"><ele>327</ele><time>2020-10-28T10:46:21Z</time><name>PT2409</name></trkpt>
<trkpt lat="53.099487" lon="-1.667587"><ele>327</ele><time>2020-10-28T10:46:24Z</time><name>PT2410</name></trkpt>
<trkpt lat="53.099514" lon="-1.667653"><ele>328</ele><time>2020-10-28T10:46:28Z</time><name>PT2411</name></trkpt>
<trkpt lat="53.099532" lon="-1.667696"><ele>329</ele><time>2020-10-28T10:46:31Z</time><name>PT2412</name></trkpt>
<trkpt lat="53.099564" lon="-1.667760"><ele>329</ele><time>2020-10-28T10:46:34Z</time><name>PT2413</name></trkpt>
<trkpt lat="53.099587" lon="-1.667799"><ele>329</ele><time>2020-10-28T10:46:37Z</time><name>PT2414</name></trkpt>
<trkpt lat="53.099619" lon="-1.667877"><ele>328</ele><time>2020-10-28T10:46:42Z</time><name>PT2415</name></trkpt>
<trkpt lat="53.099655" lon="-1.667948"><ele>328</ele><time>2020-10-28T10:46:46Z</time><name>PT2416</name></trkpt>
<trkpt lat="53.099681" lon="-1.668024"><ele>330</ele><time>2020-10-28T10:46:49Z</time><name>PT2417</name></trkpt>
<trkpt lat="53.099722" lon="-1.668130"><ele>331</ele><time>2020-10-28T10:46:53Z</time><name>PT2418</name></trkpt>
<trkpt lat="53.099748" lon="-1.668243"><ele>332</ele><time>2020-10-28T10:46:57Z</time><name>PT2419</name></trkpt>
<trkpt lat="53.099755" lon="-1.668264"><ele>332</ele><time>2020-10-28T10:46:58Z</time><name>PT2420</name></trkpt>
<trkpt lat="53.099761" lon="-1.668281"><ele>332</ele><time>2020-10-28T10:46:58Z</time><name>PT2421</name></trkpt>
<trkpt lat="53.099770" lon="-1.668294"><ele>331</ele><time>2020-10-28T10:47:00Z</time><name>PT2422</name></trkpt>
<trkpt lat="53.099779" lon="-1.668306"><ele>331</ele><time>2020-10-28T10:47:01Z</time><name>PT2423</name></trkpt>
<trkpt lat="53.099788" lon="-1.668320"><ele>332</ele><time>2020-10-28T10:47:01Z</time><name>PT2424</name></trkpt>
<trkpt lat="53.099798" lon="-1.668333"><ele>331</ele><time>2020-10-28T10:47:03Z</time><name>PT2425</name></trkpt>
<trkpt lat="53.099806" lon="-1.668348"><ele>331</ele><time>2020-10-28T10:47:04Z</time><name>PT2426</name></trkpt>
<trkpt lat="53.099817" lon="-1.668358"><ele>331</ele><time>2020-10-28T10:47:04Z</time><name>PT2427</name></trkpt>
<trkpt lat="53.099827" lon="-1.668373"><ele>331</ele><time>2020-10-28T10:47:06Z</time><name>PT2428</name></trkpt>
<trkpt lat="53.099833" lon="-1.668388"><ele>331</ele><time>2020-10-28T10:47:07Z</time><name>PT2429</name></trkpt>
<trkpt lat="53.099837" lon="-1.668399"><ele>331</ele><time>2020-10-28T10:47:07Z</time><name>PT2430</name></trkpt>
<trkpt lat="53.099841" lon="-1.668412"><ele>331</ele><time>2020-10-28T10:47:09Z</time><name>PT2431</name></trkpt>
<trkpt lat="53.099848" lon="-1.668423"><ele>331</ele><time>2020-10-28T10:47:10Z</time><name>PT2432</name></trkpt>
<trkpt lat="53.099854" lon="-1.668435"><ele>331</ele><time>2020-10-28T10:47:10Z</time><name>PT2433</name></trkpt>
<trkpt lat="53.099860" lon="-1.668451"><ele>331</ele><time>2020-10-28T10:47:12Z</time><name>PT2434</name></trkpt>
<trkpt lat="53.099866" lon="-1.668453"><ele>331</ele><time>2020-10-28T10:47:13Z</time><name>PT2435</name></trkpt>
<trkpt lat="53.099873" lon="-1.668462"><ele>331</ele><time>2020-10-28T10:47:13Z</time><name>PT2436</name></trkpt>
<trkpt lat="53.099878" lon="-1.668468"><ele>331</ele><time>2020-10-28T10:47:15Z</time><name>PT2437</name></trkpt>
<trkpt lat="53.099886" lon="-1.668480"><ele>331</ele><time>2020-10-28T10:47:16Z</time><name>PT2438</name></trkpt>
<trkpt lat="53.099892" lon="-1.668489"><ele>331</ele><time>2020-10-28T10:47:16Z</time><name>PT2439</name></trkpt>
<trkpt lat="53.099894" lon="-1.668502"><ele>331</ele><time>2020-10-28T10:47:18Z</time><name>PT2440</name></trkpt>
<trkpt lat="53.099896" lon="-1.668511"><ele>331</ele><time>2020-10-28T10:47:19Z</time><name>PT2441</name></trkpt>
<trkpt lat="53.099905" lon="-1.668520"><ele>331</ele><time>2020-10-28T10:47:19Z</time><name>PT2442</name></trkpt>
<trkpt lat="53.099916" lon="-1.668530"><ele>331</ele><time>2020-10-28T10:47:21Z</time><name>PT2443</name></trkpt>
<trkpt lat="53.099924" lon="-1.668542"><ele>331</ele><time>2020-10-28T10:47:22Z</time><name>PT2444</name></trkpt>
<trkpt lat="53.099931" lon="-1.668557"><ele>330</ele><time>2020-10-28T10:47:23Z</time><name>PT2445</name></trkpt>
<trkpt lat="53.099937" lon="-1.668568"><ele>330</ele><time>2020-10-28T10:47:24Z</time><name>PT2446</name></trkpt>
<trkpt lat="53.099946" lon="-1.668579"><ele>330</ele><time>2020-10-28T10:47:25Z</time><name>PT2447</name></trkpt>
<trkpt lat="53.099955" lon="-1.668589"><ele>330</ele><time>2020-10-28T10:47:26Z</time><name>PT2448</name></trkpt>
<trkpt lat="53.099961" lon="-1.668606"><ele>329</ele><time>2020-10-28T10:47:27Z</time><name>PT2449</name></trkpt>
<trkpt lat="53.099969" lon="-1.668623"><ele>329</ele><time>2020-10-28T10:47:28Z</time><name>PT2450</name></trkpt>
<trkpt lat="53.099976" lon="-1.668636"><ele>329</ele><time>2020-10-28T10:47:29Z</time><name>PT2451</name></trkpt>
<trkpt lat="53.099983" lon="-1.668649"><ele>329</ele><time>2020-10-28T10:47:30Z</time><name>PT2452</name></trkpt>
<trkpt lat="53.099990" lon="-1.668656"><ele>328</ele><time>2020-10-28T10:47:31Z</time><name>PT2453</name></trkpt>
<trkpt lat="53.099998" lon="-1.668668"><ele>328</ele><time>2020-10-28T10:47:31Z</time><name>PT2454</name></trkpt>
<trkpt lat="53.100003" lon="-1.668682"><ele>328</ele><time>2020-10-28T10:47:33Z</time><name>PT2455</name></trkpt>
<trkpt lat="53.100015" lon="-1.668695"><ele>327</ele><time>2020-10-28T10:47:34Z</time><name>PT2456</name></trkpt>
<trkpt lat="53.100025" lon="-1.668710"><ele>328</ele><time>2020-10-28T10:47:34Z</time><name>PT2457</name></trkpt>
<trkpt lat="53.100035" lon="-1.668728"><ele>328</ele><time>2020-10-28T10:47:36Z</time><name>PT2458</name></trkpt>
<trkpt lat="53.100044" lon="-1.668743"><ele>328</ele><time>2020-10-28T10:47:37Z</time><name>PT2459</name></trkpt>
<trkpt lat="53.100052" lon="-1.668758"><ele>328</ele><time>2020-10-28T10:47:37Z</time><name>PT2460</name></trkpt>
<trkpt lat="53.100058" lon="-1.668767"><ele>328</ele><time>2020-10-28T10:47:39Z</time><name>PT2461</name></trkpt>
<trkpt lat="53.100067" lon="-1.668789"><ele>328</ele><time>2020-10-28T10:47:40Z</time><name>PT2462</name></trkpt>
<trkpt lat="53.100072" lon="-1.668805"><ele>328</ele><time>2020-10-28T10:47:40Z</time><name>PT2463</name></trkpt>
<trkpt lat="53.100079" lon="-1.668822"><ele>327</ele><time>2020-10-28T10:47:42Z</time><name>PT2464</name></trkpt>
<trkpt lat="53.100088" lon="-1.668839"><ele>328</ele><time>2020-10-28T10:47:43Z</time><name>PT2465</name></trkpt>
<trkpt lat="53.100096" lon="-1.668852"><ele>328</ele><time>2020-10-28T10:47:43Z</time><name>PT2466</name></trkpt>
<trkpt lat="53.100103" lon="-1.668875"><ele>328</ele><time>2020-10-28T10:47:45Z</time><name>PT2467</name></trkpt>
<trkpt lat="53.100107" lon="-1.668892"><ele>328</ele><time>2020-10-28T10:47:46Z</time><name>PT2468</name></trkpt>
<trkpt lat="53.100109" lon="-1.668917"><ele>328</ele><time>2020-10-28T10:47:46Z</time><name>PT2469</name></trkpt>
<trkpt lat="53.100115" lon="-1.668937"><ele>328</ele><time>2020-10-28T10:47:48Z</time><name>PT2470</name></trkpt>
<trkpt lat="53.100122" lon="-1.668952"><ele>328</ele><time>2020-10-28T10:47:49Z</time><name>PT2471</name></trkpt>
<trkpt lat="53.100127" lon="-1.668966"><ele>328</ele><time>2020-10-28T10:47:49Z</time><name>PT2472</name></trkpt>
<trkpt lat="53.100135" lon="-1.668983"><ele>329</ele><time>2020-10-28T10:47:51Z</time><name>PT2473</name></trkpt>
<trkpt lat="53.100143" lon="-1.668999"><ele>329</ele><time>2020-10-28T10:47:52Z</time><name>PT2474</name></trkpt>
<trkpt lat="53.100149" lon="-1.669018"><ele>328</ele><time>2020-10-28T10:47:52Z</time><name>PT2475</name></trkpt>
<trkpt lat="53.100154" lon="-1.669033"><ele>328</ele><time>2020-10-28T10:47:54Z</time><name>PT2476</name></trkpt>
<trkpt lat="53.100158" lon="-1.669046"><ele>328</ele><time>2020-10-28T10:47:55Z</time><name>PT2477</name></trkpt>
<trkpt lat="53.100166" lon="-1.669059"><ele>328</ele><time>2020-10-28T10:47:55Z</time><name>PT2478</name></trkpt>
<trkpt lat="53.100173" lon="-1.669075"><ele>328</ele><time>2020-10-28T10:47:57Z</time><name>PT2479</name></trkpt>
<trkpt lat="53.100182" lon="-1.669090"><ele>328</ele><time>2020-10-28T10:47:58Z</time><name>PT2480</name></trkpt>
<trkpt lat="53.100193" lon="-1.669095"><ele>329</ele><time>2020-10-28T10:47:58Z</time><name>PT2481</name></trkpt>
<trkpt lat="53.100201" lon="-1.669100"><ele>329</ele><time>2020-10-28T10:48:00Z</time><name>PT2482</name></trkpt>
<trkpt lat="53.100209" lon="-1.669114"><ele>329</ele><time>2020-10-28T10:48:01Z</time><name>PT2483</name></trkpt>
<trkpt lat="53.100217" lon="-1.669134"><ele>329</ele><time>2020-10-28T10:48:01Z</time><name>PT2484</name></trkpt>
<trkpt lat="53.100225" lon="-1.669151"><ele>329</ele><time>2020-10-28T10:48:03Z</time><name>PT2485</name></trkpt>
<trkpt lat="53.100232" lon="-1.669167"><ele>329</ele><time>2020-10-28T10:48:04Z</time><name>PT2486</name></trkpt>
<trkpt lat="53.100238" lon="-1.669186"><ele>329</ele><time>2020-10-28T10:48:04Z</time><name>PT2487</name></trkpt>
<trkpt lat="53.100249" lon="-1.669205"><ele>329</ele><time>2020-10-28T10:48:06Z</time><name>PT2488</name></trkpt>
<trkpt lat="53.100257" lon="-1.669226"><ele>329</ele><time>2020-10-28T10:48:07Z</time><name>PT2489</name></trkpt>
<trkpt lat="53.100268" lon="-1.669245"><ele>329</ele><time>2020-10-28T10:48:07Z</time><name>PT2490</name></trkpt>
<trkpt lat="53.100278" lon="-1.669263"><ele>329</ele><time>2020-10-28T10:48:09Z</time><name>PT2491</name></trkpt>
<trkpt lat="53.100285" lon="-1.669272"><ele>327</ele><time>2020-10-28T10:48:10Z</time><name>PT2492</name></trkpt>
<trkpt lat="53.100293" lon="-1.669290"><ele>327</ele><time>2020-10-28T10:48:10Z</time><name>PT2493</name></trkpt>
<trkpt lat="53.100301" lon="-1.669313"><ele>327</ele><time>2020-10-28T10:48:12Z</time><name>PT2494</name></trkpt>
<trkpt lat="53.100308" lon="-1.669329"><ele>327</ele><time>2020-10-28T10:48:13Z</time><name>PT2495</name></trkpt>
<trkpt lat="53.100313" lon="-1.669346"><ele>326</ele><time>2020-10-28T10:48:13Z</time><name>PT2496</name></trkpt>
<trkpt lat="53.100319" lon="-1.669362"><ele>327</ele><time>2020-10-28T10:48:15Z</time><name>PT2497</name></trkpt>
<trkpt lat="53.100324" lon="-1.669380"><ele>328</ele><time>2020-10-28T10:48:16Z</time><name>PT2498</name></trkpt>
<trkpt lat="53.100331" lon="-1.669393"><ele>328</ele><time>2020-10-28T10:48:16Z</time><name>PT2499</name></trkpt>
<trkpt lat="53.100339" lon="-1.669410"><ele>328</ele><time>2020-10-28T10:48:18Z</time><name>PT2500</name></trkpt>
<trkpt lat="53.100349" lon="-1.669423"><ele>328</ele><time>2020-10-28T10:48:19Z</time><name>PT2501</name></trkpt>
<trkpt lat="53.100356" lon="-1.669438"><ele>327</ele><time>2020-10-28T10:48:19Z</time><name>PT2502</name></trkpt>
<trkpt lat="53.100365" lon="-1.669458"><ele>328</ele><time>2020-10-28T10:48:21Z</time><name>PT2503</name></trkpt>
<trkpt lat="53.100378" lon="-1.669494"><ele>330</ele><time>2020-10-28T10:48:22Z</time><name>PT2504</name></trkpt>
<trkpt lat="53.100386" lon="-1.669511"><ele>330</ele><time>2020-10-28T10:48:22Z</time><name>PT2505</name></trkpt>
<trkpt lat="53.100394" lon="-1.669527"><ele>329</ele><time>2020-10-28T10:48:24Z</time><name>PT2506</name></trkpt>
<trkpt lat="53.100403" lon="-1.669543"><ele>329</ele><time>2020-10-28T10:48:25Z</time><name>PT2507</name></trkpt>
<trkpt lat="53.100411" lon="-1.669553"><ele>329</ele><time>2020-10-28T10:48:25Z</time><name>PT2508</name></trkpt>
<trkpt lat="53.100418" lon="-1.669569"><ele>328</ele><time>2020-10-28T10:48:27Z</time><name>PT2509</name></trkpt>
<trkpt lat="53.100424" lon="-1.669591"><ele>330</ele><time>2020-10-28T10:48:28Z</time><name>PT2510</name></trkpt>
<trkpt lat="53.100433" lon="-1.669610"><ele>331</ele><time>2020-10-28T10:48:28Z</time><name>PT2511</name></trkpt>
<trkpt lat="53.100440" lon="-1.669631"><ele>330</ele><time>2020-10-28T10:48:30Z</time><name>PT2512</name></trkpt>
<trkpt lat="53.100449" lon="-1.669653"><ele>330</ele><time>2020-10-28T10:48:31Z</time><name>PT2513</name></trkpt>
<trkpt lat="53.100457" lon="-1.669671"><ele>330</ele><time>2020-10-28T10:48:31Z</time><name>PT2514</name></trkpt>
<trkpt lat="53.100464" lon="-1.669683"><ele>329</ele><time>2020-10-28T10:48:33Z</time><name>PT2515</name></trkpt>
<trkpt lat="53.100475" lon="-1.669704"><ele>329</ele><time>2020-10-28T10:48:34Z</time><name>PT2516</name></trkpt>
<trkpt lat="53.100479" lon="-1.669724"><ele>329</ele><time>2020-10-28T10:48:34Z</time><name>PT2517</name></trkpt>
<trkpt lat="53.100484" lon="-1.669747"><ele>329</ele><time>2020-10-28T10:48:36Z</time><name>PT2518</name></trkpt>
<trkpt lat="53.100490" lon="-1.669764"><ele>329</ele><time>2020-10-28T10:48:37Z</time><name>PT2519</name></trkpt>
<trkpt lat="53.100497" lon="-1.669777"><ele>329</ele><time>2020-10-28T10:48:37Z</time><name>PT2520</name></trkpt>
<trkpt lat="53.100506" lon="-1.669787"><ele>329</ele><time>2020-10-28T10:48:39Z</time><name>PT2521</name></trkpt>
<trkpt lat="53.100516" lon="-1.669804"><ele>329</ele><time>2020-10-28T10:48:40Z</time><name>PT2522</name></trkpt>
<trkpt lat="53.100526" lon="-1.669820"><ele>329</ele><time>2020-10-28T10:48:40Z</time><name>PT2523</name></trkpt>
<trkpt lat="53.100531" lon="-1.669837"><ele>329</ele><time>2020-10-28T10:48:42Z</time><name>PT2524</name></trkpt>
<trkpt lat="53.100539" lon="-1.669859"><ele>329</ele><time>2020-10-28T10:48:43Z</time><name>PT2525</name></trkpt>
<trkpt lat="53.100546" lon="-1.669873"><ele>329</ele><time>2020-10-28T10:48:43Z</time><name>PT2526</name></trkpt>
<trkpt lat="53.100554" lon="-1.669891"><ele>328</ele><time>2020-10-28T10:48:45Z</time><name>PT2527</name></trkpt>
<trkpt lat="53.100563" lon="-1.669905"><ele>328</ele><time>2020-10-28T10:48:46Z</time><name>PT2528</name></trkpt>
<trkpt lat="53.100571" lon="-1.669926"><ele>329</ele><time>2020-10-28T10:48:46Z</time><name>PT2529</name></trkpt>
<trkpt lat="53.100577" lon="-1.669944"><ele>328</ele><time>2020-10-28T10:48:48Z</time><name>PT2530</name></trkpt>
<trkpt lat="53.100586" lon="-1.669958"><ele>328</ele><time>2020-10-28T10:48:49Z</time><name>PT2531</name></trkpt>
<trkpt lat="53.100597" lon="-1.669976"><ele>328</ele><time>2020-10-28T10:48:49Z</time><name>PT2532</name></trkpt>
<trkpt lat="53.100602" lon="-1.669995"><ele>328</ele><time>2020-10-28T10:48:51Z</time><name>PT2533</name></trkpt>
<trkpt lat="53.100610" lon="-1.670003"><ele>328</ele><time>2020-10-28T10:48:52Z</time><name>PT2534</name></trkpt>
<trkpt lat="53.100617" lon="-1.670019"><ele>328</ele><time>2020-10-28T10:48:52Z</time><name>PT2535</name></trkpt>
<trkpt lat="53.100626" lon="-1.670037"><ele>328</ele><time>2020-10-28T10:48:54Z</time><name>PT2536</name></trkpt>
<trkpt lat="53.100635" lon="-1.670055"><ele>328</ele><time>2020-10-28T10:48:55Z</time><name>PT2537</name></trkpt>
<trkpt lat="53.100643" lon="-1.670075"><ele>328</ele><time>2020-10-28T10:48:55Z</time><name>PT2538</name></trkpt>
<trkpt lat="53.100653" lon="-1.670091"><ele>327</ele><time>2020-10-28T10:48:57Z</time><name>PT2539</name></trkpt>
<trkpt lat="53.100665" lon="-1.670106"><ele>327</ele><time>2020-10-28T10:48:58Z</time><name>PT2540</name></trkpt>
<trkpt lat="53.100674" lon="-1.670124"><ele>326</ele><time>2020-10-28T10:48:58Z</time><name>PT2541</name></trkpt>
<trkpt lat="53.100683" lon="-1.670141"><ele>326</ele><time>2020-10-28T10:49:00Z</time><name>PT2542</name></trkpt>
<trkpt lat="53.100691" lon="-1.670160"><ele>326</ele><time>2020-10-28T10:49:01Z</time><name>PT2543</name></trkpt>
<trkpt lat="53.100696" lon="-1.670180"><ele>326</ele><time>2020-10-28T10:49:02Z</time><name>PT2544</name></trkpt>
<trkpt lat="53.100701" lon="-1.670198"><ele>326</ele><time>2020-10-28T10:49:03Z</time><name>PT2545</name></trkpt>
<trkpt lat="53.100706" lon="-1.670215"><ele>325</ele><time>2020-10-28T10:49:04Z</time><name>PT2546</name></trkpt>
<trkpt lat="53.100713" lon="-1.670236"><ele>326</ele><time>2020-10-28T10:49:04Z</time><name>PT2547</name></trkpt>
<trkpt lat="53.100722" lon="-1.670250"><ele>325</ele><time>2020-10-28T10:49:06Z</time><name>PT2548</name></trkpt>
<trkpt lat="53.100729" lon="-1.670265"><ele>325</ele><time>2020-10-28T10:49:07Z</time><name>PT2549</name></trkpt>
<trkpt lat="53.100735" lon="-1.670285"><ele>326</ele><time>2020-10-28T10:49:07Z</time><name>PT2550</name></trkpt>
<trkpt lat="53.100741" lon="-1.670304"><ele>326</ele><time>2020-10-28T10:49:09Z</time><name>PT2551</name></trkpt>
<trkpt lat="53.100749" lon="-1.670314"><ele>326</ele><time>2020-10-28T10:49:10Z</time><name>PT2552</name></trkpt>
<trkpt lat="53.100751" lon="-1.670328"><ele>326</ele><time>2020-10-28T10:49:11Z</time><name>PT2553</name></trkpt>
<trkpt lat="53.100757" lon="-1.670341"><ele>326</ele><time>2020-10-28T10:49:12Z</time><name>PT2554</name></trkpt>
<trkpt lat="53.100766" lon="-1.670356"><ele>326</ele><time>2020-10-28T10:49:13Z</time><name>PT2555</name></trkpt>
<trkpt lat="53.100772" lon="-1.670373"><ele>326</ele><time>2020-10-28T10:49:14Z</time><name>PT2556</name></trkpt>
<trkpt lat="53.100777" lon="-1.670392"><ele>326</ele><time>2020-10-28T10:49:15Z</time><name>PT2557</name></trkpt>
<trkpt lat="53.100787" lon="-1.670407"><ele>326</ele><time>2020-10-28T10:49:16Z</time><name>PT2558</name></trkpt>
<trkpt lat="53.100796" lon="-1.670425"><ele>327</ele><time>2020-10-28T10:49:16Z</time><name>PT2559</name></trkpt>
<trkpt lat="53.100805" lon="-1.670440"><ele>327</ele><time>2020-10-28T10:49:18Z</time><name>PT2560</name></trkpt>
<trkpt lat="53.100815" lon="-1.670459"><ele>326</ele><time>2020-10-28T10:49:19Z</time><name>PT2561</name></trkpt>
<trkpt lat="53.100823" lon="-1.670483"><ele>327</ele><time>2020-10-28T10:49:19Z</time><name>PT2562</name></trkpt>
<trkpt lat="53.100830" lon="-1.670505"><ele>327</ele><time>2020-10-28T10:49:21Z</time><name>PT2563</name></trkpt>
<trkpt lat="53.100840" lon="-1.670525"><ele>327</ele><time>2020-10-28T10:49:22Z</time><name>PT2564</name></trkpt>
<trkpt lat="53.100847" lon="-1.670542"><ele>327</ele><time>2020-10-28T10:49:22Z</time><name>PT2565</name></trkpt>
<trkpt lat="53.100855" lon="-1.670560"><ele>327</ele><time>2020-10-28T10:49:24Z</time><name>PT2566</name></trkpt>
<trkpt lat="53.100866" lon="-1.670580"><ele>327</ele><time>2020-10-28T10:49:25Z</time><name>PT2567</name></trkpt>
<trkpt lat="53.100874" lon="-1.670599"><ele>327</ele><time>2020-10-28T10:49:25Z</time><name>PT2568</name></trkpt>
<trkpt lat="53.100881" lon="-1.670621"><ele>328</ele><time>2020-10-28T10:49:27Z</time><name>PT2569</name></trkpt>
<trkpt lat="53.100892" lon="-1.670647"><ele>328</ele><time>2020-10-28T10:49:28Z</time><name>PT2570</name></trkpt>
<trkpt lat="53.100902" lon="-1.670663"><ele>328</ele><time>2020-10-28T10:49:28Z</time><name>PT2571</name></trkpt>
<trkpt lat="53.100909" lon="-1.670678"><ele>328</ele><time>2020-10-28T10:49:30Z</time><name>PT2572</name></trkpt>
<trkpt lat="53.100917" lon="-1.670697"><ele>328</ele><time>2020-10-28T10:49:31Z</time><name>PT2573</name></trkpt>
<trkpt lat="53.100927" lon="-1.670715"><ele>328</ele><time>2020-10-28T10:49:31Z</time><name>PT2574</name></trkpt>
<trkpt lat="53.100934" lon="-1.670731"><ele>328</ele><time>2020-10-28T10:49:33Z</time><name>PT2575</name></trkpt>
<trkpt lat="53.100942" lon="-1.670752"><ele>328</ele><time>2020-10-28T10:49:34Z</time><name>PT2576</name></trkpt>
<trkpt lat="53.100952" lon="-1.670776"><ele>328</ele><time>2020-10-28T10:49:34Z</time><name>PT2577</name></trkpt>
<trkpt lat="53.100960" lon="-1.670790"><ele>328</ele><time>2020-10-28T10:49:36Z</time><name>PT2578</name></trkpt>
<trkpt lat="53.100968" lon="-1.670801"><ele>328</ele><time>2020-10-28T10:49:37Z</time><name>PT2579</name></trkpt>
<trkpt lat="53.100978" lon="-1.670822"><ele>329</ele><time>2020-10-28T10:49:37Z</time><name>PT2580</name></trkpt>
<trkpt lat="53.100985" lon="-1.670845"><ele>329</ele><time>2020-10-28T10:49:39Z</time><name>PT2581</name></trkpt>
<trkpt lat="53.100990" lon="-1.670870"><ele>329</ele><time>2020-10-28T10:49:40Z</time><name>PT2582</name></trkpt>
<trkpt lat="53.100994" lon="-1.670891"><ele>329</ele><time>2020-10-28T10:49:40Z</time><name>PT2583</name></trkpt>
<trkpt lat="53.101002" lon="-1.670910"><ele>329</ele><time>2020-10-28T10:49:42Z</time><name>PT2584</name></trkpt>
<trkpt lat="53.101011" lon="-1.670928"><ele>329</ele><time>2020-10-28T10:49:43Z</time><name>PT2585</name></trkpt>
<trkpt lat="53.101021" lon="-1.670944"><ele>329</ele><time>2020-10-28T10:49:43Z</time><name>PT2586</name></trkpt>
<trkpt lat="53.101030" lon="-1.670962"><ele>329</ele><time>2020-10-28T10:49:45Z</time><name>PT2587</name></trkpt>
<trkpt lat="53.101039" lon="-1.670977"><ele>329</ele><time>2020-10-28T10:49:46Z</time><name>PT2588</name></trkpt>
<trkpt lat="53.101048" lon="-1.670995"><ele>329</ele><time>2020-10-28T10:49:46Z</time><name>PT2589</name></trkpt>
<trkpt lat="53.101056" lon="-1.671007"><ele>329</ele><time>2020-10-28T10:49:48Z</time><name>PT2590</name></trkpt>
<trkpt lat="53.101063" lon="-1.671022"><ele>329</ele><time>2020-10-28T10:49:49Z</time><name>PT2591</name></trkpt>
<trkpt lat="53.101071" lon="-1.671035"><ele>329</ele><time>2020-10-28T10:49:49Z</time><name>PT2592</name></trkpt>
<trkpt lat="53.101081" lon="-1.671052"><ele>329</ele><time>2020-10-28T10:49:51Z</time><name>PT2593</name></trkpt>
<trkpt lat="53.101090" lon="-1.671065"><ele>328</ele><time>2020-10-28T10:49:52Z</time><name>PT2594</name></trkpt>
<trkpt lat="53.101101" lon="-1.671089"><ele>329</ele><time>2020-10-28T10:49:52Z</time><name>PT2595</name></trkpt>
<trkpt lat="53.101107" lon="-1.671102"><ele>329</ele><time>2020-10-28T10:49:54Z</time><name>PT2596</name></trkpt>
<trkpt lat="53.101113" lon="-1.671116"><ele>329</ele><time>2020-10-28T10:49:55Z</time><name>PT2597</name></trkpt>
<trkpt lat="53.101121" lon="-1.671133"><ele>329</ele><time>2020-10-28T10:49:55Z</time><name>PT2598</name></trkpt>
<trkpt lat="53.101127" lon="-1.671149"><ele>329</ele><time>2020-10-28T10:49:57Z</time><name>PT2599</name></trkpt>
<trkpt lat="53.101154" lon="-1.671196"><ele>330</ele><time>2020-10-28T10:50:00Z</time><name>PT2600</name></trkpt>
<trkpt lat="53.101177" lon="-1.671254"><ele>330</ele><time>2020-10-28T10:50:03Z</time><name>PT2601</name></trkpt>
<trkpt lat="53.101211" lon="-1.671322"><ele>331</ele><time>2020-10-28T10:50:07Z</time><name>PT2602</name></trkpt>
<trkpt lat="53.101234" lon="-1.671365"><ele>331</ele><time>2020-10-28T10:50:10Z</time><name>PT2603</name></trkpt>
<trkpt lat="53.101261" lon="-1.671412"><ele>331</ele><time>2020-10-28T10:50:13Z</time><name>PT2604</name></trkpt>
<trkpt lat="53.101285" lon="-1.671465"><ele>330</ele><time>2020-10-28T10:50:16Z</time><name>PT2605</name></trkpt>
<trkpt lat="53.101316" lon="-1.671533"><ele>330</ele><time>2020-10-28T10:50:21Z</time><name>PT2606</name></trkpt>
<trkpt lat="53.101337" lon="-1.671577"><ele>331</ele><time>2020-10-28T10:50:24Z</time><name>PT2607</name></trkpt>
<trkpt lat="53.101364" lon="-1.671642"><ele>331</ele><time>2020-10-28T10:50:28Z</time><name>PT2608</name></trkpt>
<trkpt lat="53.101395" lon="-1.671707"><ele>330</ele><time>2020-10-28T10:50:31Z</time><name>PT2609</name></trkpt>
<trkpt lat="53.101427" lon="-1.671774"><ele>329</ele><time>2020-10-28T10:50:36Z</time><name>PT2610</name></trkpt>
<trkpt lat="53.101459" lon="-1.671832"><ele>329</ele><time>2020-10-28T10:50:40Z</time><name>PT2611</name></trkpt>
<trkpt lat="53.101482" lon="-1.671872"><ele>330</ele><time>2020-10-28T10:50:43Z</time><name>PT2612</name></trkpt>
<trkpt lat="53.101514" lon="-1.671932"><ele>330</ele><time>2020-10-28T10:50:46Z</time><name>PT2613</name></trkpt>
<trkpt lat="53.101541" lon="-1.671970"><ele>330</ele><time>2020-10-28T10:50:49Z</time><name>PT2614</name></trkpt>
<trkpt lat="53.101568" lon="-1.672000"><ele>328</ele><time>2020-10-28T10:50:54Z</time><name>PT2615</name></trkpt>
<trkpt lat="53.101584" lon="-1.672053"><ele>326</ele><time>2020-10-28T10:50:57Z</time><name>PT2616</name></trkpt>
<trkpt lat="53.101602" lon="-1.672106"><ele>326</ele><time>2020-10-28T10:51:00Z</time><name>PT2617</name></trkpt>
<trkpt lat="53.101631" lon="-1.672187"><ele>327</ele><time>2020-10-28T10:51:04Z</time><name>PT2618</name></trkpt>
<trkpt lat="53.101658" lon="-1.672231"><ele>328</ele><time>2020-10-28T10:51:07Z</time><name>PT2619</name></trkpt>
<trkpt lat="53.101690" lon="-1.672280"><ele>328</ele><time>2020-10-28T10:51:10Z</time><name>PT2620</name></trkpt>
<trkpt lat="53.101721" lon="-1.672335"><ele>328</ele><time>2020-10-28T10:51:15Z</time><name>PT2621</name></trkpt>
<trkpt lat="53.101749" lon="-1.672401"><ele>327</ele><time>2020-10-28T10:51:19Z</time><name>PT2622</name></trkpt>
<trkpt lat="53.101767" lon="-1.672442"><ele>326</ele><time>2020-10-28T10:51:22Z</time><name>PT2623</name></trkpt>
<trkpt lat="53.101796" lon="-1.672496"><ele>325</ele><time>2020-10-28T10:51:25Z</time><name>PT2624</name></trkpt>
<trkpt lat="53.101815" lon="-1.672537"><ele>324</ele><time>2020-10-28T10:51:28Z</time><name>PT2625</name></trkpt>
<trkpt lat="53.101829" lon="-1.672591"><ele>322</ele><time>2020-10-28T10:51:31Z</time><name>PT2626</name></trkpt>
<trkpt lat="53.101861" lon="-1.672646"><ele>323</ele><time>2020-10-28T10:51:36Z</time><name>PT2627</name></trkpt>
<trkpt lat="53.101897" lon="-1.672696"><ele>327</ele><time>2020-10-28T10:51:39Z</time><name>PT2628</name></trkpt>
<trkpt lat="53.101935" lon="-1.672759"><ele>328</ele><time>2020-10-28T10:51:43Z</time><name>PT2629</name></trkpt>
<trkpt lat="53.101965" lon="-1.672817"><ele>327</ele><time>2020-10-28T10:51:46Z</time><name>PT2630</name></trkpt>
<trkpt lat="53.101999" lon="-1.672863"><ele>327</ele><time>2020-10-28T10:51:51Z</time><name>PT2631</name></trkpt>
<trkpt lat="53.102015" lon="-1.672889"><ele>325</ele><time>2020-10-28T10:51:54Z</time><name>PT2632</name></trkpt>
<trkpt lat="53.102038" lon="-1.672952"><ele>325</ele><time>2020-10-28T10:51:58Z</time><name>PT2633</name></trkpt>
<trkpt lat="53.102057" lon="-1.673004"><ele>325</ele><time>2020-10-28T10:52:01Z</time><name>PT2634</name></trkpt>
<trkpt lat="53.102079" lon="-1.673039"><ele>324</ele><time>2020-10-28T10:52:04Z</time><name>PT2635</name></trkpt>
<trkpt lat="53.102106" lon="-1.673114"><ele>323</ele><time>2020-10-28T10:52:07Z</time><name>PT2636</name></trkpt>
<trkpt lat="53.102146" lon="-1.673244"><ele>327</ele><time>2020-10-28T10:52:10Z</time><name>PT2637</name></trkpt>
<trkpt lat="53.102197" lon="-1.673316"><ele>331</ele><time>2020-10-28T10:52:13Z</time><name>PT2638</name></trkpt>
<trkpt lat="53.102209" lon="-1.673344"><ele>332</ele><time>2020-10-28T10:52:13Z</time><name>PT2639</name></trkpt>
<trkpt lat="53.102217" lon="-1.673391"><ele>332</ele><time>2020-10-28T10:52:15Z</time><name>PT2640</name></trkpt>
<trkpt lat="53.102225" lon="-1.673416"><ele>332</ele><time>2020-10-28T10:52:16Z</time><name>PT2641</name></trkpt>
<trkpt lat="53.102235" lon="-1.673433"><ele>333</ele><time>2020-10-28T10:52:16Z</time><name>PT2642</name></trkpt>
<trkpt lat="53.102242" lon="-1.673454"><ele>333</ele><time>2020-10-28T10:52:18Z</time><name>PT2643</name></trkpt>
<trkpt lat="53.102250" lon="-1.673473"><ele>333</ele><time>2020-10-28T10:52:19Z</time><name>PT2644</name></trkpt>
<trkpt lat="53.102259" lon="-1.673490"><ele>333</ele><time>2020-10-28T10:52:19Z</time><name>PT2645</name></trkpt>
<trkpt lat="53.102266" lon="-1.673514"><ele>333</ele><time>2020-10-28T10:52:21Z</time><name>PT2646</name></trkpt>
<trkpt lat="53.102272" lon="-1.673528"><ele>333</ele><time>2020-10-28T10:52:22Z</time><name>PT2647</name></trkpt>
<trkpt lat="53.102279" lon="-1.673548"><ele>332</ele><time>2020-10-28T10:52:22Z</time><name>PT2648</name></trkpt>
<trkpt lat="53.102287" lon="-1.673565"><ele>332</ele><time>2020-10-28T10:52:24Z</time><name>PT2649</name></trkpt>
<trkpt lat="53.102295" lon="-1.673578"><ele>332</ele><time>2020-10-28T10:52:25Z</time><name>PT2650</name></trkpt>
<trkpt lat="53.102303" lon="-1.673594"><ele>332</ele><time>2020-10-28T10:52:25Z</time><name>PT2651</name></trkpt>
<trkpt lat="53.102307" lon="-1.673617"><ele>332</ele><time>2020-10-28T10:52:27Z</time><name>PT2652</name></trkpt>
<trkpt lat="53.102309" lon="-1.673642"><ele>332</ele><time>2020-10-28T10:52:28Z</time><name>PT2653</name></trkpt>
<trkpt lat="53.102313" lon="-1.673657"><ele>332</ele><time>2020-10-28T10:52:28Z</time><name>PT2654</name></trkpt>
<trkpt lat="53.102320" lon="-1.673668"><ele>331</ele><time>2020-10-28T10:52:30Z</time><name>PT2655</name></trkpt>
<trkpt lat="53.102326" lon="-1.673673"><ele>331</ele><time>2020-10-28T10:52:31Z</time><name>PT2656</name></trkpt>
<trkpt lat="53.102332" lon="-1.673674"><ele>330</ele><time>2020-10-28T10:52:31Z</time><name>PT2657</name></trkpt>
<trkpt lat="53.102337" lon="-1.673679"><ele>329</ele><time>2020-10-28T10:52:33Z</time><name>PT2658</name></trkpt>
<trkpt lat="53.102344" lon="-1.673683"><ele>329</ele><time>2020-10-28T10:52:34Z</time><name>PT2659</name></trkpt>
<trkpt lat="53.102351" lon="-1.673695"><ele>329</ele><time>2020-10-28T10:52:34Z</time><name>PT2660</name></trkpt>
<trkpt lat="53.102359" lon="-1.673706"><ele>329</ele><time>2020-10-28T10:52:36Z</time><name>PT2661</name></trkpt>
<trkpt lat="53.102367" lon="-1.673719"><ele>329</ele><time>2020-10-28T10:52:37Z</time><name>PT2662</name></trkpt>
<trkpt lat="53.102371" lon="-1.673738"><ele>329</ele><time>2020-10-28T10:52:38Z</time><name>PT2663</name></trkpt>
<trkpt lat="53.102378" lon="-1.673751"><ele>329</ele><time>2020-10-28T10:52:39Z</time><name>PT2664</name></trkpt>
<trkpt lat="53.102386" lon="-1.673761"><ele>329</ele><time>2020-10-28T10:52:40Z</time><name>PT2665</name></trkpt>
<trkpt lat="53.102396" lon="-1.673776"><ele>329</ele><time>2020-10-28T10:52:40Z</time><name>PT2666</name></trkpt>
<trkpt lat="53.102404" lon="-1.673790"><ele>329</ele><time>2020-10-28T10:52:42Z</time><name>PT2667</name></trkpt>
<trkpt lat="53.102411" lon="-1.673810"><ele>329</ele><time>2020-10-28T10:52:43Z</time><name>PT2668</name></trkpt>
<trkpt lat="53.102417" lon="-1.673821"><ele>329</ele><time>2020-10-28T10:52:44Z</time><name>PT2669</name></trkpt>
<trkpt lat="53.102423" lon="-1.673830"><ele>328</ele><time>2020-10-28T10:52:45Z</time><name>PT2670</name></trkpt>
<trkpt lat="53.102431" lon="-1.673840"><ele>328</ele><time>2020-10-28T10:52:46Z</time><name>PT2671</name></trkpt>
<trkpt lat="53.102440" lon="-1.673850"><ele>328</ele><time>2020-10-28T10:52:47Z</time><name>PT2672</name></trkpt>
<trkpt lat="53.102445" lon="-1.673863"><ele>328</ele><time>2020-10-28T10:52:48Z</time><name>PT2673</name></trkpt>
<trkpt lat="53.102454" lon="-1.673883"><ele>327</ele><time>2020-10-28T10:52:49Z</time><name>PT2674</name></trkpt>
<trkpt lat="53.102465" lon="-1.673899"><ele>327</ele><time>2020-10-28T10:52:49Z</time><name>PT2675</name></trkpt>
<trkpt lat="53.102476" lon="-1.673920"><ele>328</ele><time>2020-10-28T10:52:51Z</time><name>PT2676</name></trkpt>
<trkpt lat="53.102484" lon="-1.673931"><ele>327</ele><time>2020-10-28T10:52:52Z</time><name>PT2677</name></trkpt>
<trkpt lat="53.102495" lon="-1.673958"><ele>329</ele><time>2020-10-28T10:52:52Z</time><name>PT2678</name></trkpt>
<trkpt lat="53.102506" lon="-1.673983"><ele>329</ele><time>2020-10-28T10:52:54Z</time><name>PT2679</name></trkpt>
<trkpt lat="53.102512" lon="-1.674002"><ele>329</ele><time>2020-10-28T10:52:55Z</time><name>PT2680</name></trkpt>
<trkpt lat="53.102520" lon="-1.674016"><ele>329</ele><time>2020-10-28T10:52:55Z</time><name>PT2681</name></trkpt>
<trkpt lat="53.102527" lon="-1.674029"><ele>329</ele><time>2020-10-28T10:52:57Z</time><name>PT2682</name></trkpt>
<trkpt lat="53.102531" lon="-1.674046"><ele>329</ele><time>2020-10-28T10:52:58Z</time><name>PT2683</name></trkpt>
<trkpt lat="53.102538" lon="-1.674068"><ele>329</ele><time>2020-10-28T10:52:58Z</time><name>PT2684</name></trkpt>
<trkpt lat="53.102544" lon="-1.674091"><ele>329</ele><time>2020-10-28T10:53:00Z</time><name>PT2685</name></trkpt>
<trkpt lat="53.102550" lon="-1.674105"><ele>329</ele><time>2020-10-28T10:53:01Z</time><name>PT2686</name></trkpt>
<trkpt lat="53.102558" lon="-1.674121"><ele>329</ele><time>2020-10-28T10:53:01Z</time><name>PT2687</name></trkpt>
<trkpt lat="53.102566" lon="-1.674135"><ele>329</ele><time>2020-10-28T10:53:03Z</time><name>PT2688</name></trkpt>
<trkpt lat="53.102572" lon="-1.674150"><ele>329</ele><time>2020-10-28T10:53:04Z</time><name>PT2689</name></trkpt>
<trkpt lat="53.102577" lon="-1.674170"><ele>329</ele><time>2020-10-28T10:53:05Z</time><name>PT2690</name></trkpt>
<trkpt lat="53.102583" lon="-1.674191"><ele>329</ele><time>2020-10-28T10:53:06Z</time><name>PT2691</name></trkpt>
<trkpt lat="53.102588" lon="-1.674208"><ele>328</ele><time>2020-10-28T10:53:07Z</time><name>PT2692</name></trkpt>
<trkpt lat="53.102594" lon="-1.674227"><ele>328</ele><time>2020-10-28T10:53:08Z</time><name>PT2693</name></trkpt>
<trkpt lat="53.102600" lon="-1.674239"><ele>328</ele><time>2020-10-28T10:53:09Z</time><name>PT2694</name></trkpt>
<trkpt lat="53.102608" lon="-1.674262"><ele>328</ele><time>2020-10-28T10:53:10Z</time><name>PT2695</name></trkpt>
<trkpt lat="53.102616" lon="-1.674292"><ele>329</ele><time>2020-10-28T10:53:10Z</time><name>PT2696</name></trkpt>
<trkpt lat="53.102626" lon="-1.674314"><ele>329</ele><time>2020-10-28T10:53:12Z</time><name>PT2697</name></trkpt>
<trkpt lat="53.102632" lon="-1.674330"><ele>329</ele><time>2020-10-28T10:53:13Z</time><name>PT2698</name></trkpt>
<trkpt lat="53.102638" lon="-1.674348"><ele>329</ele><time>2020-10-28T10:53:13Z</time><name>PT2699</name></trkpt>
<trkpt lat="53.102644" lon="-1.674364"><ele>329</ele><time>2020-10-28T10:53:15Z</time><name>PT2700</name></trkpt>
<trkpt lat="53.102648" lon="-1.674381"><ele>330</ele><time>2020-10-28T10:53:16Z</time><name>PT2701</name></trkpt>
<trkpt lat="53.102651" lon="-1.674404"><ele>329</ele><time>2020-10-28T10:53:17Z</time><name>PT2702</name></trkpt>
<trkpt lat="53.102656" lon="-1.674424"><ele>329</ele><time>2020-10-28T10:53:18Z</time><name>PT2703</name></trkpt>
<trkpt lat="53.102661" lon="-1.674436"><ele>328</ele><time>2020-10-28T10:53:19Z</time><name>PT2704</name></trkpt>
<trkpt lat="53.102666" lon="-1.674448"><ele>328</ele><time>2020-10-28T10:53:19Z</time><name>PT2705</name></trkpt>
<trkpt lat="53.102671" lon="-1.674459"><ele>327</ele><time>2020-10-28T10:53:21Z</time><name>PT2706</name></trkpt>
<trkpt lat="53.102676" lon="-1.674479"><ele>327</ele><time>2020-10-28T10:53:22Z</time><name>PT2707</name></trkpt>
<trkpt lat="53.102679" lon="-1.674500"><ele>327</ele><time>2020-10-28T10:53:23Z</time><name>PT2708</name></trkpt>
<trkpt lat="53.102682" lon="-1.674512"><ele>326</ele><time>2020-10-28T10:53:24Z</time><name>PT2709</name></trkpt>
<trkpt lat="53.102687" lon="-1.674527"><ele>326</ele><time>2020-10-28T10:53:25Z</time><name>PT2710</name></trkpt>
<trkpt lat="53.102694" lon="-1.674538"><ele>325</ele><time>2020-10-28T10:53:26Z</time><name>PT2711</name></trkpt>
<trkpt lat="53.102701" lon="-1.674562"><ele>326</ele><time>2020-10-28T10:53:27Z</time><name>PT2712</name></trkpt>
<trkpt lat="53.102706" lon="-1.674584"><ele>325</ele><time>2020-10-28T10:53:28Z</time><name>PT2713</name></trkpt>
<trkpt lat="53.102709" lon="-1.674599"><ele>325</ele><time>2020-10-28T10:53:28Z</time><name>PT2714</name></trkpt>
<trkpt lat="53.102711" lon="-1.674620"><ele>325</ele><time>2020-10-28T10:53:30Z</time><name>PT2715</name></trkpt>
<trkpt lat="53.102713" lon="-1.674646"><ele>326</ele><time>2020-10-28T10:53:31Z</time><name>PT2716</name></trkpt>
<trkpt lat="53.102717" lon="-1.674663"><ele>326</ele><time>2020-10-28T10:53:31Z</time><name>PT2717</name></trkpt>
<trkpt lat="53.102718" lon="-1.674687"><ele>326</ele><time>2020-10-28T10:53:33Z</time><name>PT2718</name></trkpt>
<trkpt lat="53.102720" lon="-1.674710"><ele>326</ele><time>2020-10-28T10:53:34Z</time><name>PT2719</name></trkpt>
<trkpt lat="53.102721" lon="-1.674737"><ele>327</ele><time>2020-10-28T10:53:34Z</time><name>PT2720</name></trkpt>
<trkpt lat="53.102723" lon="-1.674764"><ele>327</ele><time>2020-10-28T10:53:36Z</time><name>PT2721</name></trkpt>
<trkpt lat="53.102724" lon="-1.674785"><ele>327</ele><time>2020-10-28T10:53:37Z</time><name>PT2722</name></trkpt>
<trkpt lat="53.102724" lon="-1.674804"><ele>327</ele><time>2020-10-28T10:53:37Z</time><name>PT2723</name></trkpt>
<trkpt lat="53.102724" lon="-1.674831"><ele>327</ele><time>2020-10-28T10:53:39Z</time><name>PT2724</name></trkpt>
<trkpt lat="53.102723" lon="-1.674859"><ele>327</ele><time>2020-10-28T10:53:40Z</time><name>PT2725</name></trkpt>
<trkpt lat="53.102722" lon="-1.674888"><ele>327</ele><time>2020-10-28T10:53:40Z</time><name>PT2726</name></trkpt>
<trkpt lat="53.102723" lon="-1.674912"><ele>328</ele><time>2020-10-28T10:53:42Z</time><name>PT2727</name></trkpt>
<trkpt lat="53.102724" lon="-1.674929"><ele>328</ele><time>2020-10-28T10:53:43Z</time><name>PT2728</name></trkpt>
<trkpt lat="53.102724" lon="-1.674951"><ele>328</ele><time>2020-10-28T10:53:44Z</time><name>PT2729</name></trkpt>
<trkpt lat="53.102723" lon="-1.674974"><ele>328</ele><time>2020-10-28T10:53:45Z</time><name>PT2730</name></trkpt>
<trkpt lat="53.102723" lon="-1.674993"><ele>328</ele><time>2020-10-28T10:53:46Z</time><name>PT2731</name></trkpt>
<trkpt lat="53.102724" lon="-1.675015"><ele>328</ele><time>2020-10-28T10:53:47Z</time><name>PT2732</name></trkpt>
<trkpt lat="53.102722" lon="-1.675039"><ele>328</ele><time>2020-10-28T10:53:48Z</time><name>PT2733</name></trkpt>
<trkpt lat="53.102721" lon="-1.675055"><ele>326</ele><time>2020-10-28T10:53:49Z</time><name>PT2734</name></trkpt>
<trkpt lat="53.102719" lon="-1.675080"><ele>326</ele><time>2020-10-28T10:53:50Z</time><name>PT2735</name></trkpt>
<trkpt lat="53.102719" lon="-1.675102"><ele>326</ele><time>2020-10-28T10:53:51Z</time><name>PT2736</name></trkpt>
<trkpt lat="53.102720" lon="-1.675122"><ele>326</ele><time>2020-10-28T10:53:52Z</time><name>PT2737</name></trkpt>
<trkpt lat="53.102721" lon="-1.675142"><ele>326</ele><time>2020-10-28T10:53:52Z</time><name>PT2738</name></trkpt>
<trkpt lat="53.102724" lon="-1.675166"><ele>326</ele><time>2020-10-28T10:53:54Z</time><name>PT2739</name></trkpt>
<trkpt lat="53.102723" lon="-1.675185"><ele>326</ele><time>2020-10-28T10:53:55Z</time><name>PT2740</name></trkpt>
<trkpt lat="53.102720" lon="-1.675207"><ele>326</ele><time>2020-10-28T10:53:55Z</time><name>PT2741</name></trkpt>
<trkpt lat="53.102720" lon="-1.675224"><ele>326</ele><time>2020-10-28T10:53:57Z</time><name>PT2742</name></trkpt>
<trkpt lat="53.102722" lon="-1.675243"><ele>326</ele><time>2020-10-28T10:53:58Z</time><name>PT2743</name></trkpt>
<trkpt lat="53.102722" lon="-1.675268"><ele>326</ele><time>2020-10-28T10:53:58Z</time><name>PT2744</name></trkpt>
<trkpt lat="53.102722" lon="-1.675289"><ele>326</ele><time>2020-10-28T10:54:00Z</time><name>PT2745</name></trkpt>
<trkpt lat="53.102721" lon="-1.675316"><ele>327</ele><time>2020-10-28T10:54:01Z</time><name>PT2746</name></trkpt>
<trkpt lat="53.102721" lon="-1.675337"><ele>327</ele><time>2020-10-28T10:54:01Z</time><name>PT2747</name></trkpt>
<trkpt lat="53.102721" lon="-1.675361"><ele>327</ele><time>2020-10-28T10:54:03Z</time><name>PT2748</name></trkpt>
<trkpt lat="53.102721" lon="-1.675383"><ele>327</ele><time>2020-10-28T10:54:04Z</time><name>PT2749</name></trkpt>
<trkpt lat="53.102720" lon="-1.675403"><ele>327</ele><time>2020-10-28T10:54:04Z</time><name>PT2750</name></trkpt>
<trkpt lat="53.102717" lon="-1.675427"><ele>327</ele><time>2020-10-28T10:54:06Z</time><name>PT2751</name></trkpt>
<trkpt lat="53.102716" lon="-1.675445"><ele>327</ele><time>2020-10-28T10:54:07Z</time><name>PT2752</name></trkpt>
<trkpt lat="53.102716" lon="-1.675467"><ele>327</ele><time>2020-10-28T10:54:07Z</time><name>PT2753</name></trkpt>
<trkpt lat="53.102714" lon="-1.675488"><ele>327</ele><time>2020-10-28T10:54:09Z</time><name>PT2754</name></trkpt>
<trkpt lat="53.102710" lon="-1.675510"><ele>327</ele><time>2020-10-28T10:54:10Z</time><name>PT2755</name></trkpt>
<trkpt lat="53.102709" lon="-1.675534"><ele>327</ele><time>2020-10-28T10:54:10Z</time><name>PT2756</name></trkpt>
<trkpt lat="53.102710" lon="-1.675557"><ele>327</ele><time>2020-10-28T10:54:12Z</time><name>PT2757</name></trkpt>
<trkpt lat="53.102711" lon="-1.675578"><ele>327</ele><time>2020-10-28T10:54:13Z</time><name>PT2758</name></trkpt>
<trkpt lat="53.102711" lon="-1.675601"><ele>327</ele><time>2020-10-28T10:54:13Z</time><name>PT2759</name></trkpt>
<trkpt lat="53.102711" lon="-1.675621"><ele>327</ele><time>2020-10-28T10:54:15Z</time><name>PT2760</name></trkpt>
<trkpt lat="53.102709" lon="-1.675642"><ele>327</ele><time>2020-10-28T10:54:16Z</time><name>PT2761</name></trkpt>
<trkpt lat="53.102710" lon="-1.675661"><ele>327</ele><time>2020-10-28T10:54:16Z</time><name>PT2762</name></trkpt>
<trkpt lat="53.102708" lon="-1.675682"><ele>327</ele><time>2020-10-28T10:54:18Z</time><name>PT2763</name></trkpt>
<trkpt lat="53.102707" lon="-1.675701"><ele>328</ele><time>2020-10-28T10:54:19Z</time><name>PT2764</name></trkpt>
<trkpt lat="53.102704" lon="-1.675728"><ele>329</ele><time>2020-10-28T10:54:19Z</time><name>PT2765</name></trkpt>
<trkpt lat="53.102704" lon="-1.675753"><ele>329</ele><time>2020-10-28T10:54:21Z</time><name>PT2766</name></trkpt>
<trkpt lat="53.102705" lon="-1.675774"><ele>329</ele><time>2020-10-28T10:54:22Z</time><name>PT2767</name></trkpt>
<trkpt lat="53.102706" lon="-1.675792"><ele>329</ele><time>2020-10-28T10:54:22Z</time><name>PT2768</name></trkpt>
<trkpt lat="53.102705" lon="-1.675811"><ele>329</ele><time>2020-10-28T10:54:24Z</time><name>PT2769</name></trkpt>
<trkpt lat="53.102705" lon="-1.675829"><ele>329</ele><time>2020-10-28T10:54:25Z</time><name>PT2770</name></trkpt>
<trkpt lat="53.102703" lon="-1.675847"><ele>329</ele><time>2020-10-28T10:54:25Z</time><name>PT2771</name></trkpt>
<trkpt lat="53.102703" lon="-1.675865"><ele>328</ele><time>2020-10-28T10:54:27Z</time><name>PT2772</name></trkpt>
<trkpt lat="53.102703" lon="-1.675882"><ele>328</ele><time>2020-10-28T10:54:28Z</time><name>PT2773</name></trkpt>
<trkpt lat="53.102699" lon="-1.675902"><ele>327</ele><time>2020-10-28T10:54:28Z</time><name>PT2774</name></trkpt>
<trkpt lat="53.102697" lon="-1.675926"><ele>327</ele><time>2020-10-28T10:54:30Z</time><name>PT2775</name></trkpt>
<trkpt lat="53.102697" lon="-1.675941"><ele>327</ele><time>2020-10-28T10:54:31Z</time><name>PT2776</name></trkpt>
<trkpt lat="53.102697" lon="-1.675961"><ele>327</ele><time>2020-10-28T10:54:31Z</time><name>PT2777</name></trkpt>
<trkpt lat="53.102696" lon="-1.675984"><ele>327</ele><time>2020-10-28T10:54:33Z</time><name>PT2778</name></trkpt>
<trkpt lat="53.102696" lon="-1.676006"><ele>327</ele><time>2020-10-28T10:54:34Z</time><name>PT2779</name></trkpt>
<trkpt lat="53.102696" lon="-1.676028"><ele>327</ele><time>2020-10-28T10:54:34Z</time><name>PT2780</name></trkpt>
<trkpt lat="53.102695" lon="-1.676051"><ele>327</ele><time>2020-10-28T10:54:36Z</time><name>PT2781</name></trkpt>
<trkpt lat="53.102695" lon="-1.676074"><ele>327</ele><time>2020-10-28T10:54:37Z</time><name>PT2782</name></trkpt>
<trkpt lat="53.102692" lon="-1.676096"><ele>327</ele><time>2020-10-28T10:54:37Z</time><name>PT2783</name></trkpt>
<trkpt lat="53.102689" lon="-1.676105"><ele>325</ele><time>2020-10-28T10:54:39Z</time><name>PT2784</name></trkpt>
<trkpt lat="53.102685" lon="-1.676124"><ele>324</ele><time>2020-10-28T10:54:40Z</time><name>PT2785</name></trkpt>
<trkpt lat="53.102683" lon="-1.676153"><ele>325</ele><time>2020-10-28T10:54:40Z</time><name>PT2786</name></trkpt>
<trkpt lat="53.102682" lon="-1.676175"><ele>325</ele><time>2020-10-28T10:54:42Z</time><name>PT2787</name></trkpt>
<trkpt lat="53.102682" lon="-1.676198"><ele>325</ele><time>2020-10-28T10:54:43Z</time><name>PT2788</name></trkpt>
<trkpt lat="53.102679" lon="-1.676219"><ele>325</ele><time>2020-10-28T10:54:43Z</time><name>PT2789</name></trkpt>
<trkpt lat="53.102679" lon="-1.676238"><ele>325</ele><time>2020-10-28T10:54:45Z</time><name>PT2790</name></trkpt>
<trkpt lat="53.102677" lon="-1.676260"><ele>325</ele><time>2020-10-28T10:54:46Z</time><name>PT2791</name></trkpt>
<trkpt lat="53.102678" lon="-1.676284"><ele>325</ele><time>2020-10-28T10:54:46Z</time><name>PT2792</name></trkpt>
<trkpt lat="53.102679" lon="-1.676310"><ele>326</ele><time>2020-10-28T10:54:48Z</time><name>PT2793</name></trkpt>
<trkpt lat="53.102679" lon="-1.676332"><ele>326</ele><time>2020-10-28T10:54:49Z</time><name>PT2794</name></trkpt>
<trkpt lat="53.102677" lon="-1.676357"><ele>326</ele><time>2020-10-28T10:54:49Z</time><name>PT2795</name></trkpt>
<trkpt lat="53.102673" lon="-1.676379"><ele>326</ele><time>2020-10-28T10:54:51Z</time><name>PT2796</name></trkpt>
<trkpt lat="53.102672" lon="-1.676402"><ele>326</ele><time>2020-10-28T10:54:52Z</time><name>PT2797</name></trkpt>
<trkpt lat="53.102673" lon="-1.676423"><ele>326</ele><time>2020-10-28T10:54:52Z</time><name>PT2798</name></trkpt>
<trkpt lat="53.102676" lon="-1.676443"><ele>326</ele><time>2020-10-28T10:54:54Z</time><name>PT2799</name></trkpt>
<trkpt lat="53.102676" lon="-1.676464"><ele>326</ele><time>2020-10-28T10:54:55Z</time><name>PT2800</name></trkpt>
<trkpt lat="53.102675" lon="-1.676480"><ele>326</ele><time>2020-10-28T10:54:56Z</time><name>PT2801</name></trkpt>
<trkpt lat="53.102674" lon="-1.676502"><ele>326</ele><time>2020-10-28T10:54:57Z</time><name>PT2802</name></trkpt>
<trkpt lat="53.102676" lon="-1.676525"><ele>326</ele><time>2020-10-28T10:54:58Z</time><name>PT2803</name></trkpt>
<trkpt lat="53.102673" lon="-1.676550"><ele>326</ele><time>2020-10-28T10:54:59Z</time><name>PT2804</name></trkpt>
<trkpt lat="53.102673" lon="-1.676571"><ele>326</ele><time>2020-10-28T10:55:00Z</time><name>PT2805</name></trkpt>
<trkpt lat="53.102674" lon="-1.676593"><ele>326</ele><time>2020-10-28T10:55:01Z</time><name>PT2806</name></trkpt>
<trkpt lat="53.102671" lon="-1.676618"><ele>326</ele><time>2020-10-28T10:55:01Z</time><name>PT2807</name></trkpt>
<trkpt lat="53.102670" lon="-1.676641"><ele>327</ele><time>2020-10-28T10:55:03Z</time><name>PT2808</name></trkpt>
<trkpt lat="53.102670" lon="-1.676664"><ele>327</ele><time>2020-10-28T10:55:04Z</time><name>PT2809</name></trkpt>
<trkpt lat="53.102670" lon="-1.676684"><ele>327</ele><time>2020-10-28T10:55:05Z</time><name>PT2810</name></trkpt>
<trkpt lat="53.102670" lon="-1.676705"><ele>327</ele><time>2020-10-28T10:55:06Z</time><name>PT2811</name></trkpt>
<trkpt lat="53.102670" lon="-1.676722"><ele>327</ele><time>2020-10-28T10:55:07Z</time><name>PT2812</name></trkpt>
<trkpt lat="53.102670" lon="-1.676739"><ele>326</ele><time>2020-10-28T10:55:08Z</time><name>PT2813</name></trkpt>
<trkpt lat="53.102669" lon="-1.676760"><ele>326</ele><time>2020-10-28T10:55:09Z</time><name>PT2814</name></trkpt>
<trkpt lat="53.102669" lon="-1.676779"><ele>326</ele><time>2020-10-28T10:55:10Z</time><name>PT2815</name></trkpt>
<trkpt lat="53.102671" lon="-1.676800"><ele>326</ele><time>2020-10-28T10:55:11Z</time><name>PT2816</name></trkpt>
<trkpt lat="53.102671" lon="-1.676821"><ele>326</ele><time>2020-10-28T10:55:12Z</time><name>PT2817</name></trkpt>
<trkpt lat="53.102671" lon="-1.676841"><ele>325</ele><time>2020-10-28T10:55:13Z</time><name>PT2818</name></trkpt>
<trkpt lat="53.102671" lon="-1.676865"><ele>327</ele><time>2020-10-28T10:55:13Z</time><name>PT2819</name></trkpt>
<trkpt lat="53.102671" lon="-1.676891"><ele>327</ele><time>2020-10-28T10:55:15Z</time><name>PT2820</name></trkpt>
<trkpt lat="53.102673" lon="-1.676910"><ele>327</ele><time>2020-10-28T10:55:16Z</time><name>PT2821</name></trkpt>
<trkpt lat="53.102664" lon="-1.676974"><ele>327</ele><time>2020-10-28T10:55:19Z</time><name>PT2822</name></trkpt>
<trkpt lat="53.102659" lon="-1.677040"><ele>325</ele><time>2020-10-28T10:55:22Z</time><name>PT2823</name></trkpt>
<trkpt lat="53.102657" lon="-1.677085"><ele>325</ele><time>2020-10-28T10:55:25Z</time><name>PT2824</name></trkpt>
<trkpt lat="53.102651" lon="-1.677134"><ele>325</ele><time>2020-10-28T10:55:28Z</time><name>PT2825</name></trkpt>
<trkpt lat="53.102650" lon="-1.677216"><ele>327</ele><time>2020-10-28T10:55:33Z</time><name>PT2826</name></trkpt>
<trkpt lat="53.102651" lon="-1.677302"><ele>327</ele><time>2020-10-28T10:55:37Z</time><name>PT2827</name></trkpt>
<trkpt lat="53.102649" lon="-1.677366"><ele>326</ele><time>2020-10-28T10:55:40Z</time><name>PT2828</name></trkpt>
<trkpt lat="53.102653" lon="-1.677446"><ele>327</ele><time>2020-10-28T10:55:43Z</time><name>PT2829</name></trkpt>
<trkpt lat="53.102648" lon="-1.677518"><ele>327</ele><time>2020-10-28T10:55:48Z</time><name>PT2830</name></trkpt>
<trkpt lat="53.102643" lon="-1.677582"><ele>326</ele><time>2020-10-28T10:55:51Z</time><name>PT2831</name></trkpt>
<trkpt lat="53.102642" lon="-1.677661"><ele>326</ele><time>2020-10-28T10:55:55Z</time><name>PT2832</name></trkpt>
<trkpt lat="53.102635" lon="-1.677725"><ele>325</ele><time>2020-10-28T10:55:58Z</time><name>PT2833</name></trkpt>
<trkpt lat="53.102640" lon="-1.677783"><ele>324</ele><time>2020-10-28T10:56:01Z</time><name>PT2834</name></trkpt>
<trkpt lat="53.102642" lon="-1.677862"><ele>323</ele><time>2020-10-28T10:56:06Z</time><name>PT2835</name></trkpt>
<trkpt lat="53.102638" lon="-1.677959"><ele>323</ele><time>2020-10-28T10:56:10Z</time><name>PT2836</name></trkpt>
<trkpt lat="53.102632" lon="-1.678039"><ele>324</ele><time>2020-10-28T10:56:13Z</time><name>PT2837</name></trkpt>
<trkpt lat="53.102634" lon="-1.678111"><ele>325</ele><time>2020-10-28T10:56:16Z</time><name>PT2838</name></trkpt>
<trkpt lat="53.102630" lon="-1.678213"><ele>326</ele><time>2020-10-28T10:56:19Z</time><name>PT2839</name></trkpt>
<trkpt lat="53.102629" lon="-1.678278"><ele>326</ele><time>2020-10-28T10:56:22Z</time><name>PT2840</name></trkpt>
<trkpt lat="53.102631" lon="-1.678370"><ele>325</ele><time>2020-10-28T10:56:27Z</time><name>PT2841</name></trkpt>
<trkpt lat="53.102627" lon="-1.678465"><ele>326</ele><time>2020-10-28T10:56:31Z</time><name>PT2842</name></trkpt>
<trkpt lat="53.102623" lon="-1.678542"><ele>327</ele><time>2020-10-28T10:56:34Z</time><name>PT2843</name></trkpt>
<trkpt lat="53.102616" lon="-1.678615"><ele>326</ele><time>2020-10-28T10:56:37Z</time><name>PT2844</name></trkpt>
<trkpt lat="53.102614" lon="-1.678693"><ele>326</ele><time>2020-10-28T10:56:42Z</time><name>PT2845</name></trkpt>
<trkpt lat="53.102606" lon="-1.678778"><ele>328</ele><time>2020-10-28T10:56:46Z</time><name>PT2846</name></trkpt>
<trkpt lat="53.102606" lon="-1.678841"><ele>327</ele><time>2020-10-28T10:56:49Z</time><name>PT2847</name></trkpt>
<trkpt lat="53.102605" lon="-1.678898"><ele>329</ele><time>2020-10-28T10:56:52Z</time><name>PT2848</name></trkpt>
<trkpt lat="53.102601" lon="-1.678965"><ele>330</ele><time>2020-10-28T10:56:55Z</time><name>PT2849</name></trkpt>
<trkpt lat="53.102598" lon="-1.679034"><ele>329</ele><time>2020-10-28T10:56:58Z</time><name>PT2850</name></trkpt>
<trkpt lat="53.102583" lon="-1.679099"><ele>330</ele><time>2020-10-28T10:57:03Z</time><name>PT2851</name></trkpt>
<trkpt lat="53.102578" lon="-1.679150"><ele>330</ele><time>2020-10-28T10:57:06Z</time><name>PT2852</name></trkpt>
<trkpt lat="53.102568" lon="-1.679220"><ele>330</ele><time>2020-10-28T10:57:10Z</time><name>PT2853</name></trkpt>
<trkpt lat="53.102560" lon="-1.679268"><ele>328</ele><time>2020-10-28T10:57:13Z</time><name>PT2854</name></trkpt>
<trkpt lat="53.102559" lon="-1.679340"><ele>327</ele><time>2020-10-28T10:57:16Z</time><name>PT2855</name></trkpt>
<trkpt lat="53.102566" lon="-1.679410"><ele>325</ele><time>2020-10-28T10:57:21Z</time><name>PT2856</name></trkpt>
<trkpt lat="53.102573" lon="-1.679477"><ele>326</ele><time>2020-10-28T10:57:24Z</time><name>PT2857</name></trkpt>
<trkpt lat="53.102572" lon="-1.679536"><ele>325</ele><time>2020-10-28T10:57:27Z</time><name>PT2858</name></trkpt>
<trkpt lat="53.102569" lon="-1.679602"><ele>324</ele><time>2020-10-28T10:57:30Z</time><name>PT2859</name></trkpt>
<trkpt lat="53.102572" lon="-1.679703"><ele>323</ele><time>2020-10-28T10:57:34Z</time><name>PT2860</name></trkpt>
<trkpt lat="53.102581" lon="-1.679767"><ele>323</ele><time>2020-10-28T10:57:37Z</time><name>PT2861</name></trkpt>
<trkpt lat="53.102577" lon="-1.679828"><ele>323</ele><time>2020-10-28T10:57:40Z</time><name>PT2862</name></trkpt>
<trkpt lat="53.102571" lon="-1.679855"><ele>325</ele><time>2020-10-28T10:57:43Z</time><name>PT2863</name></trkpt>
<trkpt lat="53.102563" lon="-1.679914"><ele>327</ele><time>2020-10-28T10:57:48Z</time><name>PT2864</name></trkpt>
<trkpt lat="53.102562" lon="-1.679985"><ele>327</ele><time>2020-10-28T10:57:52Z</time><name>PT2865</name></trkpt>
<trkpt lat="53.102569" lon="-1.680029"><ele>328</ele><time>2020-10-28T10:57:55Z</time><name>PT2866</name></trkpt>
<trkpt lat="53.102563" lon="-1.680064"><ele>326</ele><time>2020-10-28T10:57:58Z</time><name>PT2867</name></trkpt>
<trkpt lat="53.102567" lon="-1.680132"><ele>325</ele><time>2020-10-28T10:58:01Z</time><name>PT2868</name></trkpt>
<trkpt lat="53.102554" lon="-1.680234"><ele>325</ele><time>2020-10-28T10:58:06Z</time><name>PT2869</name></trkpt>
<trkpt lat="53.102548" lon="-1.680310"><ele>326</ele><time>2020-10-28T10:58:10Z</time><name>PT2870</name></trkpt>
<trkpt lat="53.102562" lon="-1.680379"><ele>323</ele><time>2020-10-28T10:58:13Z</time><name>PT2871</name></trkpt>
<trkpt lat="53.102560" lon="-1.680443"><ele>323</ele><time>2020-10-28T10:58:16Z</time><name>PT2872</name></trkpt>
<trkpt lat="53.102554" lon="-1.680508"><ele>323</ele><time>2020-10-28T10:58:19Z</time><name>PT2873</name></trkpt>
<trkpt lat="53.102558" lon="-1.680599"><ele>323</ele><time>2020-10-28T10:58:24Z</time><name>PT2874</name></trkpt>
<trkpt lat="53.102550" lon="-1.680675"><ele>324</ele><time>2020-10-28T10:58:27Z</time><name>PT2875</name></trkpt>
<trkpt lat="53.102549" lon="-1.680768"><ele>324</ele><time>2020-10-28T10:58:31Z</time><name>PT2876</name></trkpt>
<trkpt lat="53.102550" lon="-1.680842"><ele>325</ele><time>2020-10-28T10:58:34Z</time><name>PT2877</name></trkpt>
<trkpt lat="53.102548" lon="-1.680923"><ele>325</ele><time>2020-10-28T10:58:37Z</time><name>PT2878</name></trkpt>
<trkpt lat="53.102546" lon="-1.681006"><ele>325</ele><time>2020-10-28T10:58:42Z</time><name>PT2879</name></trkpt>
<trkpt lat="53.102548" lon="-1.681084"><ele>325</ele><time>2020-10-28T10:58:46Z</time><name>PT2880</name></trkpt>
<trkpt lat="53.102548" lon="-1.681144"><ele>325</ele><time>2020-10-28T10:58:49Z</time><name>PT2881</name></trkpt>
<trkpt lat="53.102543" lon="-1.681216"><ele>324</ele><time>2020-10-28T10:58:52Z</time><name>PT2882</name></trkpt>
<trkpt lat="53.102541" lon="-1.681273"><ele>323</ele><time>2020-10-28T10:58:55Z</time><name>PT2883</name></trkpt>
<trkpt lat="53.102545" lon="-1.681373"><ele>323</ele><time>2020-10-28T10:59:00Z</time><name>PT2884</name></trkpt>
<trkpt lat="53.102546" lon="-1.681456"><ele>322</ele><time>2020-10-28T10:59:04Z</time><name>PT2885</name></trkpt>
<trkpt lat="53.102537" lon="-1.681534"><ele>323</ele><time>2020-10-28T10:59:07Z</time><name>PT2886</name></trkpt>
<trkpt lat="53.102528" lon="-1.681611"><ele>324</ele><time>2020-10-28T10:59:12Z</time><name>PT2887</name></trkpt>
<trkpt lat="53.102520" lon="-1.681689"><ele>323</ele><time>2020-10-28T10:59:16Z</time><name>PT2888</name></trkpt>
<trkpt lat="53.102512" lon="-1.681745"><ele>324</ele><time>2020-10-28T10:59:19Z</time><name>PT2889</name></trkpt>
<trkpt lat="53.102509" lon="-1.681813"><ele>323</ele><time>2020-10-28T10:59:22Z</time><name>PT2890</name></trkpt>
<trkpt lat="53.102512" lon="-1.681879"><ele>325</ele><time>2020-10-28T10:59:25Z</time><name>PT2891</name></trkpt>
<trkpt lat="53.102508" lon="-1.681942"><ele>324</ele><time>2020-10-28T10:59:30Z</time><name>PT2892</name></trkpt>
<trkpt lat="53.102505" lon="-1.681993"><ele>326</ele><time>2020-10-28T10:59:33Z</time><name>PT2893</name></trkpt>
<trkpt lat="53.102504" lon="-1.682076"><ele>327</ele><time>2020-10-28T10:59:37Z</time><name>PT2894</name></trkpt>
<trkpt lat="53.102500" lon="-1.682135"><ele>326</ele><time>2020-10-28T10:59:40Z</time><name>PT2895</name></trkpt>
<trkpt lat="53.102496" lon="-1.682212"><ele>327</ele><time>2020-10-28T10:59:43Z</time><name>PT2896</name></trkpt>
<trkpt lat="53.102494" lon="-1.682302"><ele>327</ele><time>2020-10-28T10:59:46Z</time><name>PT2897</name></trkpt>
<trkpt lat="53.102498" lon="-1.682390"><ele>327</ele><time>2020-10-28T10:59:51Z</time><name>PT2898</name></trkpt>
<trkpt lat="53.102498" lon="-1.682478"><ele>326</ele><time>2020-10-28T10:59:55Z</time><name>PT2899</name></trkpt>
<trkpt lat="53.102495" lon="-1.682549"><ele>327</ele><time>2020-10-28T10:59:58Z</time><name>PT2900</name></trkpt>
<trkpt lat="53.102481" lon="-1.682622"><ele>327</ele><time>2020-10-28T11:00:01Z</time><name>PT2901</name></trkpt>
<trkpt lat="53.102476" lon="-1.682713"><ele>327</ele><time>2020-10-28T11:00:06Z</time><name>PT2902</name></trkpt>
<trkpt lat="53.102480" lon="-1.682800"><ele>328</ele><time>2020-10-28T11:00:10Z</time><name>PT2903</name></trkpt>
<trkpt lat="53.102477" lon="-1.682885"><ele>328</ele><time>2020-10-28T11:00:13Z</time><name>PT2904</name></trkpt>
<trkpt lat="53.102478" lon="-1.682979"><ele>330</ele><time>2020-10-28T11:00:18Z</time><name>PT2905</name></trkpt>
<trkpt lat="53.102475" lon="-1.683064"><ele>331</ele><time>2020-10-28T11:00:22Z</time><name>PT2906</name></trkpt>
<trkpt lat="53.102472" lon="-1.683142"><ele>330</ele><time>2020-10-28T11:00:25Z</time><name>PT2907</name></trkpt>
<trkpt lat="53.102469" lon="-1.683224"><ele>330</ele><time>2020-10-28T11:00:30Z</time><name>PT2908</name></trkpt>
<trkpt lat="53.102467" lon="-1.683287"><ele>330</ele><time>2020-10-28T11:00:33Z</time><name>PT2909</name></trkpt>
<trkpt lat="53.102463" lon="-1.683365"><ele>330</ele><time>2020-10-28T11:00:37Z</time><name>PT2910</name></trkpt>
<trkpt lat="53.102460" lon="-1.683451"><ele>330</ele><time>2020-10-28T11:00:40Z</time><name>PT2911</name></trkpt>
<trkpt lat="53.102453" lon="-1.683515"><ele>330</ele><time>2020-10-28T11:00:43Z</time><name>PT2912</name></trkpt>
<trkpt lat="53.102451" lon="-1.683581"><ele>330</ele><time>2020-10-28T11:00:46Z</time><name>PT2913</name></trkpt>
<trkpt lat="53.102454" lon="-1.683674"><ele>330</ele><time>2020-10-28T11:00:51Z</time><name>PT2914</name></trkpt>
<trkpt lat="53.102460" lon="-1.683734"><ele>331</ele><time>2020-10-28T11:00:54Z</time><name>PT2915</name></trkpt>
<trkpt lat="53.102459" lon="-1.683803"><ele>331</ele><time>2020-10-28T11:00:57Z</time><name>PT2916</name></trkpt>
<trkpt lat="53.102461" lon="-1.683829"><ele>331</ele><time>2020-10-28T11:00:58Z</time><name>PT2917</name></trkpt>
<trkpt lat="53.102459" lon="-1.683849"><ele>331</ele><time>2020-10-28T11:00:58Z</time><name>PT2918</name></trkpt>
<trkpt lat="53.102457" lon="-1.683870"><ele>331</ele><time>2020-10-28T11:01:00Z</time><name>PT2919</name></trkpt>
<trkpt lat="53.102455" lon="-1.683895"><ele>331</ele><time>2020-10-28T11:01:01Z</time><name>PT2920</name></trkpt>
<trkpt lat="53.102454" lon="-1.683915"><ele>331</ele><time>2020-10-28T11:01:01Z</time><name>PT2921</name></trkpt>
<trkpt lat="53.102454" lon="-1.683937"><ele>331</ele><time>2020-10-28T11:01:03Z</time><name>PT2922</name></trkpt>
<trkpt lat="53.102453" lon="-1.683960"><ele>331</ele><time>2020-10-28T11:01:04Z</time><name>PT2923</name></trkpt>
<trkpt lat="53.102453" lon="-1.683979"><ele>331</ele><time>2020-10-28T11:01:04Z</time><name>PT2924</name></trkpt>
<trkpt lat="53.102455" lon="-1.684002"><ele>331</ele><time>2020-10-28T11:01:06Z</time><name>PT2925</name></trkpt>
<trkpt lat="53.102455" lon="-1.684023"><ele>331</ele><time>2020-10-28T11:01:07Z</time><name>PT2926</name></trkpt>
<trkpt lat="53.102455" lon="-1.684042"><ele>331</ele><time>2020-10-28T11:01:07Z</time><name>PT2927</name></trkpt>
<trkpt lat="53.102455" lon="-1.684063"><ele>331</ele><time>2020-10-28T11:01:09Z</time><name>PT2928</name></trkpt>
<trkpt lat="53.102456" lon="-1.684082"><ele>331</ele><time>2020-10-28T11:01:10Z</time><name>PT2929</name></trkpt>
<trkpt lat="53.102455" lon="-1.684102"><ele>331</ele><time>2020-10-28T11:01:10Z</time><name>PT2930</name></trkpt>
<trkpt lat="53.102454" lon="-1.684123"><ele>331</ele><time>2020-10-28T11:01:12Z</time><name>PT2931</name></trkpt>
<trkpt lat="53.102454" lon="-1.684142"><ele>332</ele><time>2020-10-28T11:01:13Z</time><name>PT2932</name></trkpt>
<trkpt lat="53.102453" lon="-1.684162"><ele>332</ele><time>2020-10-28T11:01:13Z</time><name>PT2933</name></trkpt>
<trkpt lat="53.102452" lon="-1.684182"><ele>332</ele><time>2020-10-28T11:01:15Z</time><name>PT2934</name></trkpt>
<trkpt lat="53.102450" lon="-1.684203"><ele>332</ele><time>2020-10-28T11:01:16Z</time><name>PT2935</name></trkpt>
<trkpt lat="53.102449" lon="-1.684221"><ele>332</ele><time>2020-10-28T11:01:16Z</time><name>PT2936</name></trkpt>
<trkpt lat="53.102449" lon="-1.684238"><ele>332</ele><time>2020-10-28T11:01:18Z</time><name>PT2937</name></trkpt>
<trkpt lat="53.102450" lon="-1.684258"><ele>332</ele><time>2020-10-28T11:01:19Z</time><name>PT2938</name></trkpt>
<trkpt lat="53.102449" lon="-1.684280"><ele>332</ele><time>2020-10-28T11:01:19Z</time><name>PT2939</name></trkpt>
<trkpt lat="53.102446" lon="-1.684301"><ele>332</ele><time>2020-10-28T11:01:21Z</time><name>PT2940</name></trkpt>
<trkpt lat="53.102443" lon="-1.684320"><ele>332</ele><time>2020-10-28T11:01:22Z</time><name>PT2941</name></trkpt>
<trkpt lat="53.102442" lon="-1.684342"><ele>332</ele><time>2020-10-28T11:01:22Z</time><name>PT2942</name></trkpt>
<trkpt lat="53.102441" lon="-1.684361"><ele>333</ele><time>2020-10-28T11:01:24Z</time><name>PT2943</name></trkpt>
<trkpt lat="53.102441" lon="-1.684380"><ele>333</ele><time>2020-10-28T11:01:25Z</time><name>PT2944</name></trkpt>
<trkpt lat="53.102442" lon="-1.684397"><ele>332</ele><time>2020-10-28T11:01:25Z</time><name>PT2945</name></trkpt>
<trkpt lat="53.102443" lon="-1.684417"><ele>332</ele><time>2020-10-28T11:01:27Z</time><name>PT2946</name></trkpt>
<trkpt lat="53.102445" lon="-1.684436"><ele>332</ele><time>2020-10-28T11:01:28Z</time><name>PT2947</name></trkpt>
<trkpt lat="53.102444" lon="-1.684455"><ele>332</ele><time>2020-10-28T11:01:28Z</time><name>PT2948</name></trkpt>
<trkpt lat="53.102446" lon="-1.684479"><ele>332</ele><time>2020-10-28T11:01:30Z</time><name>PT2949</name></trkpt>
<trkpt lat="53.102447" lon="-1.684501"><ele>332</ele><time>2020-10-28T11:01:31Z</time><name>PT2950</name></trkpt>
<trkpt lat="53.102443" lon="-1.684523"><ele>332</ele><time>2020-10-28T11:01:31Z</time><name>PT2951</name></trkpt>
<trkpt lat="53.102446" lon="-1.684543"><ele>332</ele><time>2020-10-28T11:01:33Z</time><name>PT2952</name></trkpt>
<trkpt lat="53.102448" lon="-1.684563"><ele>332</ele><time>2020-10-28T11:01:34Z</time><name>PT2953</name></trkpt>
<trkpt lat="53.102449" lon="-1.684585"><ele>332</ele><time>2020-10-28T11:01:34Z</time><name>PT2954</name></trkpt>
<trkpt lat="53.102450" lon="-1.684608"><ele>332</ele><time>2020-10-28T11:01:36Z</time><name>PT2955</name></trkpt>
<trkpt lat="53.102448" lon="-1.684630"><ele>332</ele><time>2020-10-28T11:01:37Z</time><name>PT2956</name></trkpt>
<trkpt lat="53.102445" lon="-1.684650"><ele>333</ele><time>2020-10-28T11:01:37Z</time><name>PT2957</name></trkpt>
<trkpt lat="53.102444" lon="-1.684668"><ele>333</ele><time>2020-10-28T11:01:39Z</time><name>PT2958</name></trkpt>
<trkpt lat="53.102442" lon="-1.684689"><ele>333</ele><time>2020-10-28T11:01:40Z</time><name>PT2959</name></trkpt>
<trkpt lat="53.102440" lon="-1.684709"><ele>333</ele><time>2020-10-28T11:01:40Z</time><name>PT2960</name></trkpt>
<trkpt lat="53.102438" lon="-1.684728"><ele>333</ele><time>2020-10-28T11:01:42Z</time><name>PT2961</name></trkpt>
<trkpt lat="53.102437" lon="-1.684749"><ele>333</ele><time>2020-10-28T11:01:43Z</time><name>PT2962</name></trkpt>
<trkpt lat="53.102437" lon="-1.684771"><ele>333</ele><time>2020-10-28T11:01:43Z</time><name>PT2963</name></trkpt>
<trkpt lat="53.102435" lon="-1.684792"><ele>333</ele><time>2020-10-28T11:01:45Z</time><name>PT2964</name></trkpt>
<trkpt lat="53.102434" lon="-1.684815"><ele>333</ele><time>2020-10-28T11:01:46Z</time><name>PT2965</name></trkpt>
<trkpt lat="53.102433" lon="-1.684835"><ele>333</ele><time>2020-10-28T11:01:46Z</time><name>PT2966</name></trkpt>
<trkpt lat="53.102433" lon="-1.684857"><ele>333</ele><time>2020-10-28T11:01:48Z</time><name>PT2967</name></trkpt>
<trkpt lat="53.102432" lon="-1.684878"><ele>333</ele><time>2020-10-28T11:01:49Z</time><name>PT2968</name></trkpt>
<trkpt lat="53.102431" lon="-1.684898"><ele>333</ele><time>2020-10-28T11:01:49Z</time><name>PT2969</name></trkpt>
<trkpt lat="53.102430" lon="-1.684919"><ele>333</ele><time>2020-10-28T11:01:51Z</time><name>PT2970</name></trkpt>
<trkpt lat="53.102429" lon="-1.684938"><ele>333</ele><time>2020-10-28T11:01:52Z</time><name>PT2971</name></trkpt>
<trkpt lat="53.102428" lon="-1.684959"><ele>333</ele><time>2020-10-28T11:01:52Z</time><name>PT2972</name></trkpt>
<trkpt lat="53.102427" lon="-1.684979"><ele>334</ele><time>2020-10-28T11:01:54Z</time><name>PT2973</name></trkpt>
<trkpt lat="53.102426" lon="-1.685000"><ele>334</ele><time>2020-10-28T11:01:55Z</time><name>PT2974</name></trkpt>
<trkpt lat="53.102424" lon="-1.685021"><ele>334</ele><time>2020-10-28T11:01:55Z</time><name>PT2975</name></trkpt>
<trkpt lat="53.102423" lon="-1.685040"><ele>334</ele><time>2020-10-28T11:01:57Z</time><name>PT2976</name></trkpt>
<trkpt lat="53.102423" lon="-1.685061"><ele>334</ele><time>2020-10-28T11:01:58Z</time><name>PT2977</name></trkpt>
<trkpt lat="53.102423" lon="-1.685081"><ele>334</ele><time>2020-10-28T11:01:58Z</time><name>PT2978</name></trkpt>
<trkpt lat="53.102422" lon="-1.685102"><ele>334</ele><time>2020-10-28T11:02:00Z</time><name>PT2979</name></trkpt>
<trkpt lat="53.102421" lon="-1.685121"><ele>334</ele><time>2020-10-28T11:02:01Z</time><name>PT2980</name></trkpt>
<trkpt lat="53.102421" lon="-1.685141"><ele>334</ele><time>2020-10-28T11:02:01Z</time><name>PT2981</name></trkpt>
<trkpt lat="53.102419" lon="-1.685163"><ele>334</ele><time>2020-10-28T11:02:03Z</time><name>PT2982</name></trkpt>
<trkpt lat="53.102419" lon="-1.685184"><ele>334</ele><time>2020-10-28T11:02:04Z</time><name>PT2983</name></trkpt>
<trkpt lat="53.102418" lon="-1.685205"><ele>334</ele><time>2020-10-28T11:02:05Z</time><name>PT2984</name></trkpt>
<trkpt lat="53.102418" lon="-1.685225"><ele>334</ele><time>2020-10-28T11:02:06Z</time><name>PT2985</name></trkpt>
<trkpt lat="53.102416" lon="-1.685244"><ele>334</ele><time>2020-10-28T11:02:07Z</time><name>PT2986</name></trkpt>
<trkpt lat="53.102415" lon="-1.685264"><ele>334</ele><time>2020-10-28T11:02:08Z</time><name>PT2987</name></trkpt>
<trkpt lat="53.102413" lon="-1.685286"><ele>334</ele><time>2020-10-28T11:02:09Z</time><name>PT2988</name></trkpt>
<trkpt lat="53.102412" lon="-1.685308"><ele>334</ele><time>2020-10-28T11:02:10Z</time><name>PT2989</name></trkpt>
<trkpt lat="53.102412" lon="-1.685326"><ele>334</ele><time>2020-10-28T11:02:10Z</time><name>PT2990</name></trkpt>
<trkpt lat="53.102411" lon="-1.685342"><ele>334</ele><time>2020-10-28T11:02:12Z</time><name>PT2991</name></trkpt>
<trkpt lat="53.102410" lon="-1.685361"><ele>333</ele><time>2020-10-28T11:02:13Z</time><name>PT2992</name></trkpt>
<trkpt lat="53.102410" lon="-1.685380"><ele>333</ele><time>2020-10-28T11:02:13Z</time><name>PT2993</name></trkpt>
<trkpt lat="53.102410" lon="-1.685399"><ele>333</ele><time>2020-10-28T11:02:15Z</time><name>PT2994</name></trkpt>
<trkpt lat="53.102409" lon="-1.685419"><ele>333</ele><time>2020-10-28T11:02:16Z</time><name>PT2995</name></trkpt>
<trkpt lat="53.102409" lon="-1.685439"><ele>333</ele><time>2020-10-28T11:02:16Z</time><name>PT2996</name></trkpt>
<trkpt lat="53.102409" lon="-1.685457"><ele>333</ele><time>2020-10-28T11:02:18Z</time><name>PT2997</name></trkpt>
<trkpt lat="53.102409" lon="-1.685476"><ele>333</ele><time>2020-10-28T11:02:19Z</time><name>PT2998</name></trkpt>
<trkpt lat="53.102407" lon="-1.685494"><ele>333</ele><time>2020-10-28T11:02:19Z</time><name>PT2999</name></trkpt>
<trkpt lat="53.102407" lon="-1.685512"><ele>333</ele><time>2020-10-28T11:02:21Z</time><name>PT3000</name></trkpt>
<trkpt lat="53.102407" lon="-1.685529"><ele>333</ele><time>2020-10-28T11:02:22Z</time><name>PT3001</name></trkpt>
<trkpt lat="53.102407" lon="-1.685547"><ele>333</ele><time>2020-10-28T11:02:22Z</time><name>PT3002</name></trkpt>
<trkpt lat="53.102405" lon="-1.685567"><ele>333</ele><time>2020-10-28T11:02:24Z</time><name>PT3003</name></trkpt>
<trkpt lat="53.102403" lon="-1.685584"><ele>333</ele><time>2020-10-28T11:02:25Z</time><name>PT3004</name></trkpt>
<trkpt lat="53.102402" lon="-1.685602"><ele>333</ele><time>2020-10-28T11:02:25Z</time><name>PT3005</name></trkpt>
<trkpt lat="53.102404" lon="-1.685620"><ele>333</ele><time>2020-10-28T11:02:27Z</time><name>PT3006</name></trkpt>
<trkpt lat="53.102402" lon="-1.685642"><ele>333</ele><time>2020-10-28T11:02:28Z</time><name>PT3007</name></trkpt>
<trkpt lat="53.102398" lon="-1.685661"><ele>332</ele><time>2020-10-28T11:02:28Z</time><name>PT3008</name></trkpt>
<trkpt lat="53.102394" lon="-1.685679"><ele>333</ele><time>2020-10-28T11:02:30Z</time><name>PT3009</name></trkpt>
<trkpt lat="53.102395" lon="-1.685698"><ele>333</ele><time>2020-10-28T11:02:31Z</time><name>PT3010</name></trkpt>
<trkpt lat="53.102397" lon="-1.685717"><ele>332</ele><time>2020-10-28T11:02:31Z</time><name>PT3011</name></trkpt>
<trkpt lat="53.102397" lon="-1.685738"><ele>333</ele><time>2020-10-28T11:02:33Z</time><name>PT3012</name></trkpt>
<trkpt lat="53.102400" lon="-1.685759"><ele>332</ele><time>2020-10-28T11:02:34Z</time><name>PT3013</name></trkpt>
<trkpt lat="53.102400" lon="-1.685777"><ele>332</ele><time>2020-10-28T11:02:34Z</time><name>PT3014</name></trkpt>
<trkpt lat="53.102399" lon="-1.685798"><ele>332</ele><time>2020-10-28T11:02:36Z</time><name>PT3015</name></trkpt>
<trkpt lat="53.102400" lon="-1.685817"><ele>332</ele><time>2020-10-28T11:02:37Z</time><name>PT3016</name></trkpt>
<trkpt lat="53.102400" lon="-1.685835"><ele>332</ele><time>2020-10-28T11:02:37Z</time><name>PT3017</name></trkpt>
<trkpt lat="53.102399" lon="-1.685852"><ele>332</ele><time>2020-10-28T11:02:39Z</time><name>PT3018</name></trkpt>
<trkpt lat="53.102399" lon="-1.685870"><ele>332</ele><time>2020-10-28T11:02:40Z</time><name>PT3019</name></trkpt>
<trkpt lat="53.102400" lon="-1.685889"><ele>332</ele><time>2020-10-28T11:02:40Z</time><name>PT3020</name></trkpt>
<trkpt lat="53.102401" lon="-1.685909"><ele>332</ele><time>2020-10-28T11:02:42Z</time><name>PT3021</name></trkpt>
<trkpt lat="53.102400" lon="-1.685928"><ele>332</ele><time>2020-10-28T11:02:43Z</time><name>PT3022</name></trkpt>
<trkpt lat="53.102401" lon="-1.685946"><ele>332</ele><time>2020-10-28T11:02:43Z</time><name>PT3023</name></trkpt>
<trkpt lat="53.102401" lon="-1.685968"><ele>332</ele><time>2020-10-28T11:02:45Z</time><name>PT3024</name></trkpt>
<trkpt lat="53.102402" lon="-1.685988"><ele>332</ele><time>2020-10-28T11:02:46Z</time><name>PT3025</name></trkpt>
<trkpt lat="53.102404" lon="-1.686010"><ele>332</ele><time>2020-10-28T11:02:46Z</time><name>PT3026</name></trkpt>
<trkpt lat="53.102405" lon="-1.686028"><ele>332</ele><time>2020-10-28T11:02:48Z</time><name>PT3027</name></trkpt>
<trkpt lat="53.102407" lon="-1.686048"><ele>332</ele><time>2020-10-28T11:02:49Z</time><name>PT3028</name></trkpt>
<trkpt lat="53.102409" lon="-1.686069"><ele>332</ele><time>2020-10-28T11:02:49Z</time><name>PT3029</name></trkpt>
<trkpt lat="53.102410" lon="-1.686090"><ele>332</ele><time>2020-10-28T11:02:51Z</time><name>PT3030</name></trkpt>
<trkpt lat="53.102412" lon="-1.686110"><ele>332</ele><time>2020-10-28T11:02:52Z</time><name>PT3031</name></trkpt>
<trkpt lat="53.102414" lon="-1.686128"><ele>332</ele><time>2020-10-28T11:02:52Z</time><name>PT3032</name></trkpt>
<trkpt lat="53.102416" lon="-1.686148"><ele>332</ele><time>2020-10-28T11:02:54Z</time><name>PT3033</name></trkpt>
<trkpt lat="53.102419" lon="-1.686167"><ele>332</ele><time>2020-10-28T11:02:55Z</time><name>PT3034</name></trkpt>
<trkpt lat="53.102422" lon="-1.686186"><ele>332</ele><time>2020-10-28T11:02:56Z</time><name>PT3035</name></trkpt>
<trkpt lat="53.102424" lon="-1.686206"><ele>332</ele><time>2020-10-28T11:02:57Z</time><name>PT3036</name></trkpt>
<trkpt lat="53.102426" lon="-1.686223"><ele>332</ele><time>2020-10-28T11:02:58Z</time><name>PT3037</name></trkpt>
<trkpt lat="53.102430" lon="-1.686240"><ele>332</ele><time>2020-10-28T11:02:58Z</time><name>PT3038</name></trkpt>
<trkpt lat="53.102434" lon="-1.686257"><ele>333</ele><time>2020-10-28T11:03:00Z</time><name>PT3039</name></trkpt>
<trkpt lat="53.102438" lon="-1.686276"><ele>333</ele><time>2020-10-28T11:03:01Z</time><name>PT3040</name></trkpt>
<trkpt lat="53.102441" lon="-1.686294"><ele>333</ele><time>2020-10-28T11:03:01Z</time><name>PT3041</name></trkpt>
<trkpt lat="53.102442" lon="-1.686314"><ele>333</ele><time>2020-10-28T11:03:03Z</time><name>PT3042</name></trkpt>
<trkpt lat="53.102444" lon="-1.686334"><ele>333</ele><time>2020-10-28T11:03:04Z</time><name>PT3043</name></trkpt>
<trkpt lat="53.102449" lon="-1.686355"><ele>333</ele><time>2020-10-28T11:03:04Z</time><name>PT3044</name></trkpt>
<trkpt lat="53.102455" lon="-1.686374"><ele>333</ele><time>2020-10-28T11:03:06Z</time><name>PT3045</name></trkpt>
<trkpt lat="53.102458" lon="-1.686391"><ele>332</ele><time>2020-10-28T11:03:07Z</time><name>PT3046</name></trkpt>
<trkpt lat="53.102462" lon="-1.686407"><ele>332</ele><time>2020-10-28T11:03:07Z</time><name>PT3047</name></trkpt>
<trkpt lat="53.102465" lon="-1.686427"><ele>332</ele><time>2020-10-28T11:03:09Z</time><name>PT3048</name></trkpt>
<trkpt lat="53.102469" lon="-1.686448"><ele>333</ele><time>2020-10-28T11:03:10Z</time><name>PT3049</name></trkpt>
<trkpt lat="53.102475" lon="-1.686468"><ele>333</ele><time>2020-10-28T11:03:10Z</time><name>PT3050</name></trkpt>
<trkpt lat="53.102478" lon="-1.686483"><ele>333</ele><time>2020-10-28T11:03:12Z</time><name>PT3051</name></trkpt>
<trkpt lat="53.102481" lon="-1.686499"><ele>333</ele><time>2020-10-28T11:03:13Z</time><name>PT3052</name></trkpt>
<trkpt lat="53.102480" lon="-1.686518"><ele>333</ele><time>2020-10-28T11:03:13Z</time><name>PT3053</name></trkpt>
<trkpt lat="53.102486" lon="-1.686536"><ele>333</ele><time>2020-10-28T11:03:15Z</time><name>PT3054</name></trkpt>
<trkpt lat="53.102492" lon="-1.686553"><ele>333</ele><time>2020-10-28T11:03:16Z</time><name>PT3055</name></trkpt>
<trkpt lat="53.102495" lon="-1.686571"><ele>333</ele><time>2020-10-28T11:03:16Z</time><name>PT3056</name></trkpt>
<trkpt lat="53.102500" lon="-1.686589"><ele>333</ele><time>2020-10-28T11:03:18Z</time><name>PT3057</name></trkpt>
<trkpt lat="53.102506" lon="-1.686605"><ele>333</ele><time>2020-10-28T11:03:19Z</time><name>PT3058</name></trkpt>
<trkpt lat="53.102511" lon="-1.686625"><ele>332</ele><time>2020-10-28T11:03:19Z</time><name>PT3059</name></trkpt>
<trkpt lat="53.102517" lon="-1.686642"><ele>332</ele><time>2020-10-28T11:03:21Z</time><name>PT3060</name></trkpt>
<trkpt lat="53.102527" lon="-1.686656"><ele>332</ele><time>2020-10-28T11:03:22Z</time><name>PT3061</name></trkpt>
<trkpt lat="53.102534" lon="-1.686672"><ele>332</ele><time>2020-10-28T11:03:22Z</time><name>PT3062</name></trkpt>
<trkpt lat="53.102541" lon="-1.686691"><ele>332</ele><time>2020-10-28T11:03:24Z</time><name>PT3063</name></trkpt>
<trkpt lat="53.102546" lon="-1.686711"><ele>332</ele><time>2020-10-28T11:03:25Z</time><name>PT3064</name></trkpt>
<trkpt lat="53.102550" lon="-1.686730"><ele>332</ele><time>2020-10-28T11:03:25Z</time><name>PT3065</name></trkpt>
<trkpt lat="53.102556" lon="-1.686748"><ele>332</ele><time>2020-10-28T11:03:27Z</time><name>PT3066</name></trkpt>
<trkpt lat="53.102561" lon="-1.686767"><ele>332</ele><time>2020-10-28T11:03:28Z</time><name>PT3067</name></trkpt>
<trkpt lat="53.102566" lon="-1.686786"><ele>332</ele><time>2020-10-28T11:03:28Z</time><name>PT3068</name></trkpt>
<trkpt lat="53.102572" lon="-1.686804"><ele>332</ele><time>2020-10-28T11:03:30Z</time><name>PT3069</name></trkpt>
<trkpt lat="53.102577" lon="-1.686822"><ele>332</ele><time>2020-10-28T11:03:31Z</time><name>PT3070</name></trkpt>
<trkpt lat="53.102581" lon="-1.686842"><ele>332</ele><time>2020-10-28T11:03:31Z</time><name>PT3071</name></trkpt>
<trkpt lat="53.102587" lon="-1.686859"><ele>332</ele><time>2020-10-28T11:03:33Z</time><name>PT3072</name></trkpt>
<trkpt lat="53.102591" lon="-1.686878"><ele>332</ele><time>2020-10-28T11:03:34Z</time><name>PT3073</name></trkpt>
<trkpt lat="53.102598" lon="-1.686900"><ele>332</ele><time>2020-10-28T11:03:34Z</time><name>PT3074</name></trkpt>
<trkpt lat="53.102605" lon="-1.686919"><ele>332</ele><time>2020-10-28T11:03:36Z</time><name>PT3075</name></trkpt>
<trkpt lat="53.102610" lon="-1.686937"><ele>332</ele><time>2020-10-28T11:03:37Z</time><name>PT3076</name></trkpt>
<trkpt lat="53.102616" lon="-1.686955"><ele>332</ele><time>2020-10-28T11:03:37Z</time><name>PT3077</name></trkpt>
<trkpt lat="53.102622" lon="-1.686974"><ele>332</ele><time>2020-10-28T11:03:39Z</time><name>PT3078</name></trkpt>
<trkpt lat="53.102629" lon="-1.686992"><ele>332</ele><time>2020-10-28T11:03:40Z</time><name>PT3079</name></trkpt>
<trkpt lat="53.102635" lon="-1.687009"><ele>332</ele><time>2020-10-28T11:03:40Z</time><name>PT3080</name></trkpt>
<trkpt lat="53.102639" lon="-1.687027"><ele>332</ele><time>2020-10-28T11:03:42Z</time><name>PT3081</name></trkpt>
<trkpt lat="53.102645" lon="-1.687046"><ele>332</ele><time>2020-10-28T11:03:43Z</time><name>PT3082</name></trkpt>
<trkpt lat="53.102652" lon="-1.687063"><ele>332</ele><time>2020-10-28T11:03:43Z</time><name>PT3083</name></trkpt>
<trkpt lat="53.102658" lon="-1.687081"><ele>332</ele><time>2020-10-28T11:03:45Z</time><name>PT3084</name></trkpt>
<trkpt lat="53.102665" lon="-1.687099"><ele>332</ele><time>2020-10-28T11:03:46Z</time><name>PT3085</name></trkpt>
<trkpt lat="53.102671" lon="-1.687119"><ele>332</ele><time>2020-10-28T11:03:46Z</time><name>PT3086</name></trkpt>
<trkpt lat="53.102677" lon="-1.687137"><ele>332</ele><time>2020-10-28T11:03:48Z</time><name>PT3087</name></trkpt>
<trkpt lat="53.102683" lon="-1.687154"><ele>332</ele><time>2020-10-28T11:03:49Z</time><name>PT3088</name></trkpt>
<trkpt lat="53.102688" lon="-1.687176"><ele>332</ele><time>2020-10-28T11:03:49Z</time><name>PT3089</name></trkpt>
<trkpt lat="53.102694" lon="-1.687194"><ele>332</ele><time>2020-10-28T11:03:51Z</time><name>PT3090</name></trkpt>
<trkpt lat="53.102699" lon="-1.687211"><ele>332</ele><time>2020-10-28T11:03:52Z</time><name>PT3091</name></trkpt>
<trkpt lat="53.102706" lon="-1.687230"><ele>332</ele><time>2020-10-28T11:03:52Z</time><name>PT3092</name></trkpt>
<trkpt lat="53.102712" lon="-1.687249"><ele>332</ele><time>2020-10-28T11:03:54Z</time><name>PT3093</name></trkpt>
<trkpt lat="53.102717" lon="-1.687268"><ele>332</ele><time>2020-10-28T11:03:55Z</time><name>PT3094</name></trkpt>
<trkpt lat="53.102723" lon="-1.687285"><ele>332</ele><time>2020-10-28T11:03:55Z</time><name>PT3095</name></trkpt>
<trkpt lat="53.102729" lon="-1.687303"><ele>332</ele><time>2020-10-28T11:03:57Z</time><name>PT3096</name></trkpt>
<trkpt lat="53.102734" lon="-1.687322"><ele>332</ele><time>2020-10-28T11:03:58Z</time><name>PT3097</name></trkpt>
<trkpt lat="53.102740" lon="-1.687338"><ele>332</ele><time>2020-10-28T11:03:58Z</time><name>PT3098</name></trkpt>
<trkpt lat="53.102760" lon="-1.687390"><ele>332</ele><time>2020-10-28T11:04:01Z</time><name>PT3099</name></trkpt>
<trkpt lat="53.102779" lon="-1.687443"><ele>332</ele><time>2020-10-28T11:04:04Z</time><name>PT3100</name></trkpt>
<trkpt lat="53.102786" lon="-1.687457"><ele>332</ele><time>2020-10-28T11:04:06Z</time><name>PT3101</name></trkpt>
<trkpt lat="53.102792" lon="-1.687474"><ele>332</ele><time>2020-10-28T11:04:07Z</time><name>PT3102</name></trkpt>
<trkpt lat="53.102798" lon="-1.687489"><ele>332</ele><time>2020-10-28T11:04:07Z</time><name>PT3103</name></trkpt>
<trkpt lat="53.102803" lon="-1.687506"><ele>332</ele><time>2020-10-28T11:04:09Z</time><name>PT3104</name></trkpt>
<trkpt lat="53.102810" lon="-1.687523"><ele>332</ele><time>2020-10-28T11:04:10Z</time><name>PT3105</name></trkpt>
<trkpt lat="53.102817" lon="-1.687539"><ele>332</ele><time>2020-10-28T11:04:10Z</time><name>PT3106</name></trkpt>
<trkpt lat="53.102823" lon="-1.687557"><ele>332</ele><time>2020-10-28T11:04:12Z</time><name>PT3107</name></trkpt>
<trkpt lat="53.102828" lon="-1.687574"><ele>332</ele><time>2020-10-28T11:04:13Z</time><name>PT3108</name></trkpt>
<trkpt lat="53.102833" lon="-1.687589"><ele>332</ele><time>2020-10-28T11:04:13Z</time><name>PT3109</name></trkpt>
<trkpt lat="53.102839" lon="-1.687607"><ele>332</ele><time>2020-10-28T11:04:15Z</time><name>PT3110</name></trkpt>
<trkpt lat="53.102845" lon="-1.687623"><ele>332</ele><time>2020-10-28T11:04:16Z</time><name>PT3111</name></trkpt>
<trkpt lat="53.102854" lon="-1.687639"><ele>332</ele><time>2020-10-28T11:04:17Z</time><name>PT3112</name></trkpt>
<trkpt lat="53.102856" lon="-1.687655"><ele>332</ele><time>2020-10-28T11:04:18Z</time><name>PT3113</name></trkpt>
<trkpt lat="53.102857" lon="-1.687675"><ele>332</ele><time>2020-10-28T11:04:19Z</time><name>PT3114</name></trkpt>
<trkpt lat="53.102860" lon="-1.687692"><ele>333</ele><time>2020-10-28T11:04:19Z</time><name>PT3115</name></trkpt>
<trkpt lat="53.102863" lon="-1.687712"><ele>333</ele><time>2020-10-28T11:04:21Z</time><name>PT3116</name></trkpt>
<trkpt lat="53.102866" lon="-1.687731"><ele>333</ele><time>2020-10-28T11:04:22Z</time><name>PT3117</name></trkpt>
<trkpt lat="53.102873" lon="-1.687748"><ele>333</ele><time>2020-10-28T11:04:22Z</time><name>PT3118</name></trkpt>
<trkpt lat="53.102880" lon="-1.687764"><ele>333</ele><time>2020-10-28T11:04:24Z</time><name>PT3119</name></trkpt>
<trkpt lat="53.102887" lon="-1.687781"><ele>334</ele><time>2020-10-28T11:04:25Z</time><name>PT3120</name></trkpt>
<trkpt lat="53.102893" lon="-1.687797"><ele>334</ele><time>2020-10-28T11:04:25Z</time><name>PT3121</name></trkpt>
<trkpt lat="53.102899" lon="-1.687807"><ele>333</ele><time>2020-10-28T11:04:27Z</time><name>PT3122</name></trkpt>
<trkpt lat="53.102906" lon="-1.687820"><ele>333</ele><time>2020-10-28T11:04:28Z</time><name>PT3123</name></trkpt>
<trkpt lat="53.102913" lon="-1.687837"><ele>333</ele><time>2020-10-28T11:04:28Z</time><name>PT3124</name></trkpt>
<trkpt lat="53.102922" lon="-1.687857"><ele>333</ele><time>2020-10-28T11:04:30Z</time><name>PT3125</name></trkpt>
<trkpt lat="53.102928" lon="-1.687877"><ele>333</ele><time>2020-10-28T11:04:31Z</time><name>PT3126</name></trkpt>
<trkpt lat="53.102934" lon="-1.687898"><ele>333</ele><time>2020-10-28T11:04:32Z</time><name>PT3127</name></trkpt>
<trkpt lat="53.102940" lon="-1.687918"><ele>333</ele><time>2020-10-28T11:04:33Z</time><name>PT3128</name></trkpt>
<trkpt lat="53.102947" lon="-1.687925"><ele>332</ele><time>2020-10-28T11:04:34Z</time><name>PT3129</name></trkpt>
<trkpt lat="53.102955" lon="-1.687937"><ele>332</ele><time>2020-10-28T11:04:35Z</time><name>PT3130</name></trkpt>
<trkpt lat="53.102962" lon="-1.687952"><ele>331</ele><time>2020-10-28T11:04:36Z</time><name>PT3131</name></trkpt>
<trkpt lat="53.102970" lon="-1.687970"><ele>331</ele><time>2020-10-28T11:04:37Z</time><name>PT3132</name></trkpt>
<trkpt lat="53.102975" lon="-1.687986"><ele>331</ele><time>2020-10-28T11:04:37Z</time><name>PT3133</name></trkpt>
<trkpt lat="53.102980" lon="-1.688002"><ele>331</ele><time>2020-10-28T11:04:39Z</time><name>PT3134</name></trkpt>
<trkpt lat="53.102985" lon="-1.688019"><ele>331</ele><time>2020-10-28T11:04:40Z</time><name>PT3135</name></trkpt>
<trkpt lat="53.102992" lon="-1.688037"><ele>331</ele><time>2020-10-28T11:04:40Z</time><name>PT3136</name></trkpt>
<trkpt lat="53.102997" lon="-1.688053"><ele>330</ele><time>2020-10-28T11:04:42Z</time><name>PT3137</name></trkpt>
<trkpt lat="53.103003" lon="-1.688073"><ele>330</ele><time>2020-10-28T11:04:43Z</time><name>PT3138</name></trkpt>
<trkpt lat="53.103011" lon="-1.688084"><ele>330</ele><time>2020-10-28T11:04:43Z</time><name>PT3139</name></trkpt>
<trkpt lat="53.103017" lon="-1.688102"><ele>330</ele><time>2020-10-28T11:04:45Z</time><name>PT3140</name></trkpt>
<trkpt lat="53.103022" lon="-1.688122"><ele>331</ele><time>2020-10-28T11:04:46Z</time><name>PT3141</name></trkpt>
<trkpt lat="53.103029" lon="-1.688141"><ele>331</ele><time>2020-10-28T11:04:46Z</time><name>PT3142</name></trkpt>
<trkpt lat="53.103037" lon="-1.688155"><ele>332</ele><time>2020-10-28T11:04:48Z</time><name>PT3143</name></trkpt>
<trkpt lat="53.103045" lon="-1.688168"><ele>332</ele><time>2020-10-28T11:04:49Z</time><name>PT3144</name></trkpt>
<trkpt lat="53.103051" lon="-1.688188"><ele>332</ele><time>2020-10-28T11:04:49Z</time><name>PT3145</name></trkpt>
<trkpt lat="53.103059" lon="-1.688211"><ele>332</ele><time>2020-10-28T11:04:51Z</time><name>PT3146</name></trkpt>
<trkpt lat="53.103066" lon="-1.688232"><ele>332</ele><time>2020-10-28T11:04:52Z</time><name>PT3147</name></trkpt>
<trkpt lat="53.103073" lon="-1.688248"><ele>332</ele><time>2020-10-28T11:04:52Z</time><name>PT3148</name></trkpt>
<trkpt lat="53.103081" lon="-1.688264"><ele>332</ele><time>2020-10-28T11:04:54Z</time><name>PT3149</name></trkpt>
<trkpt lat="53.103085" lon="-1.688278"><ele>332</ele><time>2020-10-28T11:04:55Z</time><name>PT3150</name></trkpt>
<trkpt lat="53.103092" lon="-1.688299"><ele>331</ele><time>2020-10-28T11:04:55Z</time><name>PT3151</name></trkpt>
<trkpt lat="53.103098" lon="-1.688314"><ele>331</ele><time>2020-10-28T11:04:57Z</time><name>PT3152</name></trkpt>
<trkpt lat="53.103105" lon="-1.688328"><ele>331</ele><time>2020-10-28T11:04:58Z</time><name>PT3153</name></trkpt>
<trkpt lat="53.103112" lon="-1.688344"><ele>331</ele><time>2020-10-28T11:04:58Z</time><name>PT3154</name></trkpt>
<trkpt lat="53.103115" lon="-1.688358"><ele>331</ele><time>2020-10-28T11:05:00Z</time><name>PT3155</name></trkpt>
<trkpt lat="53.103121" lon="-1.688375"><ele>331</ele><time>2020-10-28T11:05:01Z</time><name>PT3156</name></trkpt>
<trkpt lat="53.103129" lon="-1.688396"><ele>331</ele><time>2020-10-28T11:05:01Z</time><name>PT3157</name></trkpt>
<trkpt lat="53.103137" lon="-1.688415"><ele>331</ele><time>2020-10-28T11:05:03Z</time><name>PT3158</name></trkpt>
<trkpt lat="53.103144" lon="-1.688428"><ele>331</ele><time>2020-10-28T11:05:04Z</time><name>PT3159</name></trkpt>
<trkpt lat="53.103150" lon="-1.688446"><ele>331</ele><time>2020-10-28T11:05:04Z</time><name>PT3160</name></trkpt>
<trkpt lat="53.103157" lon="-1.688463"><ele>330</ele><time>2020-10-28T11:05:06Z</time><name>PT3161</name></trkpt>
<trkpt lat="53.103161" lon="-1.688483"><ele>330</ele><time>2020-10-28T11:05:07Z</time><name>PT3162</name></trkpt>
<trkpt lat="53.103167" lon="-1.688502"><ele>330</ele><time>2020-10-28T11:05:07Z</time><name>PT3163</name></trkpt>
<trkpt lat="53.103174" lon="-1.688522"><ele>330</ele><time>2020-10-28T11:05:09Z</time><name>PT3164</name></trkpt>
<trkpt lat="53.103180" lon="-1.688542"><ele>331</ele><time>2020-10-28T11:05:10Z</time><name>PT3165</name></trkpt>
<trkpt lat="53.103187" lon="-1.688563"><ele>331</ele><time>2020-10-28T11:05:10Z</time><name>PT3166</name></trkpt>
<trkpt lat="53.103192" lon="-1.688583"><ele>331</ele><time>2020-10-28T11:05:12Z</time><name>PT3167</name></trkpt>
<trkpt lat="53.103200" lon="-1.688603"><ele>332</ele><time>2020-10-28T11:05:13Z</time><name>PT3168</name></trkpt>
<trkpt lat="53.103208" lon="-1.688618"><ele>332</ele><time>2020-10-28T11:05:13Z</time><name>PT3169</name></trkpt>
<trkpt lat="53.103213" lon="-1.688639"><ele>332</ele><time>2020-10-28T11:05:15Z</time><name>PT3170</name></trkpt>
<trkpt lat="53.103221" lon="-1.688656"><ele>331</ele><time>2020-10-28T11:05:16Z</time><name>PT3171</name></trkpt>
<trkpt lat="53.103229" lon="-1.688670"><ele>331</ele><time>2020-10-28T11:05:16Z</time><name>PT3172</name></trkpt>
<trkpt lat="53.103239" lon="-1.688680"><ele>331</ele><time>2020-10-28T11:05:18Z</time><name>PT3173</name></trkpt>
<trkpt lat="53.103249" lon="-1.688688"><ele>331</ele><time>2020-10-28T11:05:19Z</time><name>PT3174</name></trkpt>
<trkpt lat="53.103256" lon="-1.688703"><ele>331</ele><time>2020-10-28T11:05:19Z</time><name>PT3175</name></trkpt>
<trkpt lat="53.103258" lon="-1.688716"><ele>331</ele><time>2020-10-28T11:05:21Z</time><name>PT3176</name></trkpt>
<trkpt lat="53.103266" lon="-1.688731"><ele>331</ele><time>2020-10-28T11:05:22Z</time><name>PT3177</name></trkpt>
<trkpt lat="53.103272" lon="-1.688745"><ele>331</ele><time>2020-10-28T11:05:22Z</time><name>PT3178</name></trkpt>
<trkpt lat="53.103277" lon="-1.688758"><ele>330</ele><time>2020-10-28T11:05:24Z</time><name>PT3179</name></trkpt>
<trkpt lat="53.103286" lon="-1.688781"><ele>331</ele><time>2020-10-28T11:05:25Z</time><name>PT3180</name></trkpt>
<trkpt lat="53.103292" lon="-1.688797"><ele>331</ele><time>2020-10-28T11:05:25Z</time><name>PT3181</name></trkpt>
<trkpt lat="53.103297" lon="-1.688813"><ele>330</ele><time>2020-10-28T11:05:27Z</time><name>PT3182</name></trkpt>
<trkpt lat="53.103303" lon="-1.688829"><ele>330</ele><time>2020-10-28T11:05:28Z</time><name>PT3183</name></trkpt>
<trkpt lat="53.103310" lon="-1.688853"><ele>330</ele><time>2020-10-28T11:05:28Z</time><name>PT3184</name></trkpt>
<trkpt lat="53.103317" lon="-1.688875"><ele>331</ele><time>2020-10-28T11:05:30Z</time><name>PT3185</name></trkpt>
<trkpt lat="53.103323" lon="-1.688891"><ele>331</ele><time>2020-10-28T11:05:31Z</time><name>PT3186</name></trkpt>
<trkpt lat="53.103328" lon="-1.688910"><ele>331</ele><time>2020-10-28T11:05:31Z</time><name>PT3187</name></trkpt>
<trkpt lat="53.103333" lon="-1.688926"><ele>330</ele><time>2020-10-28T11:05:33Z</time><name>PT3188</name></trkpt>
<trkpt lat="53.103338" lon="-1.688943"><ele>330</ele><time>2020-10-28T11:05:34Z</time><name>PT3189</name></trkpt>
<trkpt lat="53.103346" lon="-1.688960"><ele>332</ele><time>2020-10-28T11:05:34Z</time><name>PT3190</name></trkpt>
<trkpt lat="53.103351" lon="-1.688977"><ele>332</ele><time>2020-10-28T11:05:36Z</time><name>PT3191</name></trkpt>
<trkpt lat="53.103353" lon="-1.688995"><ele>334</ele><time>2020-10-28T11:05:37Z</time><name>PT3192</name></trkpt>
<trkpt lat="53.103355" lon="-1.689015"><ele>334</ele><time>2020-10-28T11:05:37Z</time><name>PT3193</name></trkpt>
<trkpt lat="53.103361" lon="-1.689032"><ele>335</ele><time>2020-10-28T11:05:39Z</time><name>PT3194</name></trkpt>
<trkpt lat="53.103369" lon="-1.689049"><ele>335</ele><time>2020-10-28T11:05:40Z</time><name>PT3195</name></trkpt>
<trkpt lat="53.103375" lon="-1.689069"><ele>335</ele><time>2020-10-28T11:05:40Z</time><name>PT3196</name></trkpt>
<trkpt lat="53.103388" lon="-1.689086"><ele>335</ele><time>2020-10-28T11:05:42Z</time><name>PT3197</name></trkpt>
<trkpt lat="53.103393" lon="-1.689105"><ele>335</ele><time>2020-10-28T11:05:43Z</time><name>PT3198</name></trkpt>
<trkpt lat="53.103400" lon="-1.689122"><ele>335</ele><time>2020-10-28T11:05:43Z</time><name>PT3199</name></trkpt>
<trkpt lat="53.103407" lon="-1.689141"><ele>335</ele><time>2020-10-28T11:05:45Z</time><name>PT3200</name></trkpt>
<trkpt lat="53.103414" lon="-1.689160"><ele>335</ele><time>2020-10-28T11:05:46Z</time><name>PT3201</name></trkpt>
<trkpt lat="53.103415" lon="-1.689182"><ele>334</ele><time>2020-10-28T11:05:46Z</time><name>PT3202</name></trkpt>
<trkpt lat="53.103415" lon="-1.689201"><ele>333</ele><time>2020-10-28T11:05:48Z</time><name>PT3203</name></trkpt>
<trkpt lat="53.103426" lon="-1.689215"><ele>333</ele><time>2020-10-28T11:05:49Z</time><name>PT3204</name></trkpt>
<trkpt lat="53.103434" lon="-1.689229"><ele>333</ele><time>2020-10-28T11:05:50Z</time><name>PT3205</name></trkpt>
<trkpt lat="53.103440" lon="-1.689243"><ele>333</ele><time>2020-10-28T11:05:51Z</time><name>PT3206</name></trkpt>
<trkpt lat="53.103446" lon="-1.689261"><ele>333</ele><time>2020-10-28T11:05:52Z</time><name>PT3207</name></trkpt>
<trkpt lat="53.103453" lon="-1.689276"><ele>333</ele><time>2020-10-28T11:05:52Z</time><name>PT3208</name></trkpt>
<trkpt lat="53.103460" lon="-1.689291"><ele>333</ele><time>2020-10-28T11:05:54Z</time><name>PT3209</name></trkpt>
<trkpt lat="53.103464" lon="-1.689307"><ele>332</ele><time>2020-10-28T11:05:55Z</time><name>PT3210</name></trkpt>
<trkpt lat="53.103471" lon="-1.689324"><ele>332</ele><time>2020-10-28T11:05:55Z</time><name>PT3211</name></trkpt>
<trkpt lat="53.103478" lon="-1.689338"><ele>332</ele><time>2020-10-28T11:05:57Z</time><name>PT3212</name></trkpt>
<trkpt lat="53.103488" lon="-1.689359"><ele>333</ele><time>2020-10-28T11:05:58Z</time><name>PT3213</name></trkpt>
<trkpt lat="53.103495" lon="-1.689375"><ele>333</ele><time>2020-10-28T11:05:59Z</time><name>PT3214</name></trkpt>
<trkpt lat="53.103501" lon="-1.689389"><ele>333</ele><time>2020-10-28T11:06:00Z</time><name>PT3215</name></trkpt>
<trkpt lat="53.103508" lon="-1.689394"><ele>332</ele><time>2020-10-28T11:06:01Z</time><name>PT3216</name></trkpt>
<trkpt lat="53.103518" lon="-1.689406"><ele>332</ele><time>2020-10-28T11:06:01Z</time><name>PT3217</name></trkpt>
<trkpt lat="53.103525" lon="-1.689422"><ele>332</ele><time>2020-10-28T11:06:03Z</time><name>PT3218</name></trkpt>
<trkpt lat="53.103531" lon="-1.689441"><ele>332</ele><time>2020-10-28T11:06:04Z</time><name>PT3219</name></trkpt>
<trkpt lat="53.103534" lon="-1.689465"><ele>332</ele><time>2020-10-28T11:06:05Z</time><name>PT3220</name></trkpt>
<trkpt lat="53.103540" lon="-1.689480"><ele>332</ele><time>2020-10-28T11:06:06Z</time><name>PT3221</name></trkpt>
<trkpt lat="53.103548" lon="-1.689500"><ele>332</ele><time>2020-10-28T11:06:07Z</time><name>PT3222</name></trkpt>
<trkpt lat="53.103556" lon="-1.689518"><ele>333</ele><time>2020-10-28T11:06:08Z</time><name>PT3223</name></trkpt>
<trkpt lat="53.103561" lon="-1.689537"><ele>332</ele><time>2020-10-28T11:06:09Z</time><name>PT3224</name></trkpt>
<trkpt lat="53.103567" lon="-1.689551"><ele>332</ele><time>2020-10-28T11:06:10Z</time><name>PT3225</name></trkpt>
<trkpt lat="53.103570" lon="-1.689564"><ele>333</ele><time>2020-10-28T11:06:10Z</time><name>PT3226</name></trkpt>
<trkpt lat="53.103575" lon="-1.689575"><ele>332</ele><time>2020-10-28T11:06:12Z</time><name>PT3227</name></trkpt>
<trkpt lat="53.103580" lon="-1.689589"><ele>332</ele><time>2020-10-28T11:06:13Z</time><name>PT3228</name></trkpt>
<trkpt lat="53.103586" lon="-1.689604"><ele>332</ele><time>2020-10-28T11:06:13Z</time><name>PT3229</name></trkpt>
<trkpt lat="53.103591" lon="-1.689619"><ele>331</ele><time>2020-10-28T11:06:15Z</time><name>PT3230</name></trkpt>
<trkpt lat="53.103597" lon="-1.689630"><ele>331</ele><time>2020-10-28T11:06:16Z</time><name>PT3231</name></trkpt>
<trkpt lat="53.103605" lon="-1.689641"><ele>330</ele><time>2020-10-28T11:06:16Z</time><name>PT3232</name></trkpt>
<trkpt lat="53.103613" lon="-1.689654"><ele>331</ele><time>2020-10-28T11:06:18Z</time><name>PT3233</name></trkpt>
<trkpt lat="53.103621" lon="-1.689669"><ele>332</ele><time>2020-10-28T11:06:19Z</time><name>PT3234</name></trkpt>
<trkpt lat="53.103629" lon="-1.689682"><ele>332</ele><time>2020-10-28T11:06:19Z</time><name>PT3235</name></trkpt>
<trkpt lat="53.103636" lon="-1.689693"><ele>331</ele><time>2020-10-28T11:06:21Z</time><name>PT3236</name></trkpt>
<trkpt lat="53.103640" lon="-1.689706"><ele>330</ele><time>2020-10-28T11:06:22Z</time><name>PT3237</name></trkpt>
<trkpt lat="53.103643" lon="-1.689725"><ele>330</ele><time>2020-10-28T11:06:22Z</time><name>PT3238</name></trkpt>
<trkpt lat="53.103648" lon="-1.689744"><ele>330</ele><time>2020-10-28T11:06:24Z</time><name>PT3239</name></trkpt>
<trkpt lat="53.103652" lon="-1.689754"><ele>330</ele><time>2020-10-28T11:06:25Z</time><name>PT3240</name></trkpt>
<trkpt lat="53.103658" lon="-1.689774"><ele>331</ele><time>2020-10-28T11:06:25Z</time><name>PT3241</name></trkpt>
<trkpt lat="53.103664" lon="-1.689789"><ele>331</ele><time>2020-10-28T11:06:27Z</time><name>PT3242</name></trkpt>
<trkpt lat="53.103670" lon="-1.689807"><ele>331</ele><time>2020-10-28T11:06:28Z</time><name>PT3243</name></trkpt>
<trkpt lat="53.103676" lon="-1.689828"><ele>331</ele><time>2020-10-28T11:06:28Z</time><name>PT3244</name></trkpt>
<trkpt lat="53.103682" lon="-1.689845"><ele>331</ele><time>2020-10-28T11:06:30Z</time><name>PT3245</name></trkpt>
<trkpt lat="53.103685" lon="-1.689863"><ele>330</ele><time>2020-10-28T11:06:31Z</time><name>PT3246</name></trkpt>
<trkpt lat="53.103690" lon="-1.689877"><ele>329</ele><time>2020-10-28T11:06:31Z</time><name>PT3247</name></trkpt>
<trkpt lat="53.103697" lon="-1.689893"><ele>330</ele><time>2020-10-28T11:06:33Z</time><name>PT3248</name></trkpt>
<trkpt lat="53.103703" lon="-1.689912"><ele>329</ele><time>2020-10-28T11:06:34Z</time><name>PT3249</name></trkpt>
<trkpt lat="53.103709" lon="-1.689929"><ele>329</ele><time>2020-10-28T11:06:34Z</time><name>PT3250</name></trkpt>
<trkpt lat="53.103715" lon="-1.689949"><ele>329</ele><time>2020-10-28T11:06:36Z</time><name>PT3251</name></trkpt>
<trkpt lat="53.103720" lon="-1.689963"><ele>328</ele><time>2020-10-28T11:06:37Z</time><name>PT3252</name></trkpt>
<trkpt lat="53.103726" lon="-1.689981"><ele>327</ele><time>2020-10-28T11:06:37Z</time><name>PT3253</name></trkpt>
<trkpt lat="53.103731" lon="-1.689998"><ele>327</ele><time>2020-10-28T11:06:39Z</time><name>PT3254</name></trkpt>
<trkpt lat="53.103737" lon="-1.690012"><ele>326</ele><time>2020-10-28T11:06:40Z</time><name>PT3255</name></trkpt>
<trkpt lat="53.103740" lon="-1.690020"><ele>324</ele><time>2020-10-28T11:06:41Z</time><name>PT3256</name></trkpt>
<trkpt lat="53.103747" lon="-1.690034"><ele>324</ele><time>2020-10-28T11:06:42Z</time><name>PT3257</name></trkpt>
<trkpt lat="53.103756" lon="-1.690049"><ele>324</ele><time>2020-10-28T11:06:43Z</time><name>PT3258</name></trkpt>
<trkpt lat="53.103765" lon="-1.690065"><ele>325</ele><time>2020-10-28T11:06:43Z</time><name>PT3259</name></trkpt>
<trkpt lat="53.103770" lon="-1.690083"><ele>324</ele><time>2020-10-28T11:06:45Z</time><name>PT3260</name></trkpt>
<trkpt lat="53.103777" lon="-1.690102"><ele>324</ele><time>2020-10-28T11:06:46Z</time><name>PT3261</name></trkpt>
<trkpt lat="53.103786" lon="-1.690120"><ele>324</ele><time>2020-10-28T11:06:46Z</time><name>PT3262</name></trkpt>
<trkpt lat="53.103794" lon="-1.690139"><ele>324</ele><time>2020-10-28T11:06:48Z</time><name>PT3263</name></trkpt>
<trkpt lat="53.103800" lon="-1.690158"><ele>324</ele><time>2020-10-28T11:06:49Z</time><name>PT3264</name></trkpt>
<trkpt lat="53.103807" lon="-1.690169"><ele>324</ele><time>2020-10-28T11:06:50Z</time><name>PT3265</name></trkpt>
<trkpt lat="53.103815" lon="-1.690187"><ele>324</ele><time>2020-10-28T11:06:51Z</time><name>PT3266</name></trkpt>
<trkpt lat="53.103822" lon="-1.690206"><ele>323</ele><time>2020-10-28T11:06:52Z</time><name>PT3267</name></trkpt>
<trkpt lat="53.103829" lon="-1.690220"><ele>323</ele><time>2020-10-28T11:06:53Z</time><name>PT3268</name></trkpt>
<trkpt lat="53.103833" lon="-1.690238"><ele>323</ele><time>2020-10-28T11:06:54Z</time><name>PT3269</name></trkpt>
<trkpt lat="53.103838" lon="-1.690256"><ele>323</ele><time>2020-10-28T11:06:55Z</time><name>PT3270</name></trkpt>
<trkpt lat="53.103846" lon="-1.690274"><ele>323</ele><time>2020-10-28T11:06:56Z</time><name>PT3271</name></trkpt>
<trkpt lat="53.103853" lon="-1.690295"><ele>323</ele><time>2020-10-28T11:06:57Z</time><name>PT3272</name></trkpt>
<trkpt lat="53.103860" lon="-1.690314"><ele>324</ele><time>2020-10-28T11:06:58Z</time><name>PT3273</name></trkpt>
<trkpt lat="53.103865" lon="-1.690332"><ele>323</ele><time>2020-10-28T11:06:58Z</time><name>PT3274</name></trkpt>
<trkpt lat="53.103872" lon="-1.690353"><ele>324</ele><time>2020-10-28T11:07:00Z</time><name>PT3275</name></trkpt>
<trkpt lat="53.103879" lon="-1.690372"><ele>324</ele><time>2020-10-28T11:07:01Z</time><name>PT3276</name></trkpt>
<trkpt lat="53.103887" lon="-1.690390"><ele>324</ele><time>2020-10-28T11:07:01Z</time><name>PT3277</name></trkpt>
<trkpt lat="53.103896" lon="-1.690410"><ele>324</ele><time>2020-10-28T11:07:03Z</time><name>PT3278</name></trkpt>
<trkpt lat="53.103903" lon="-1.690425"><ele>324</ele><time>2020-10-28T11:07:04Z</time><name>PT3279</name></trkpt>
<trkpt lat="53.103911" lon="-1.690442"><ele>324</ele><time>2020-10-28T11:07:04Z</time><name>PT3280</name></trkpt>
<trkpt lat="53.103921" lon="-1.690460"><ele>325</ele><time>2020-10-28T11:07:06Z</time><name>PT3281</name></trkpt>
<trkpt lat="53.103927" lon="-1.690476"><ele>325</ele><time>2020-10-28T11:07:07Z</time><name>PT3282</name></trkpt>
<trkpt lat="53.103936" lon="-1.690494"><ele>326</ele><time>2020-10-28T11:07:07Z</time><name>PT3283</name></trkpt>
<trkpt lat="53.103984" lon="-1.690595"><ele>328</ele><time>2020-10-28T11:07:12Z</time><name>PT3284</name></trkpt>
<trkpt lat="53.103994" lon="-1.690626"><ele>329</ele><time>2020-10-28T11:07:13Z</time><name>PT3285</name></trkpt>
<trkpt lat="53.104000" lon="-1.690657"><ele>330</ele><time>2020-10-28T11:07:13Z</time><name>PT3286</name></trkpt>
<trkpt lat="53.104008" lon="-1.690680"><ele>330</ele><time>2020-10-28T11:07:15Z</time><name>PT3287</name></trkpt>
<trkpt lat="53.104018" lon="-1.690695"><ele>331</ele><time>2020-10-28T11:07:16Z</time><name>PT3288</name></trkpt>
<trkpt lat="53.104027" lon="-1.690711"><ele>330</ele><time>2020-10-28T11:07:16Z</time><name>PT3289</name></trkpt>
<trkpt lat="53.104034" lon="-1.690728"><ele>331</ele><time>2020-10-28T11:07:18Z</time><name>PT3290</name></trkpt>
<trkpt lat="53.104041" lon="-1.690747"><ele>331</ele><time>2020-10-28T11:07:19Z</time><name>PT3291</name></trkpt>
<trkpt lat="53.104049" lon="-1.690761"><ele>331</ele><time>2020-10-28T11:07:19Z</time><name>PT3292</name></trkpt>
<trkpt lat="53.104058" lon="-1.690776"><ele>331</ele><time>2020-10-28T11:07:21Z</time><name>PT3293</name></trkpt>
<trkpt lat="53.104067" lon="-1.690793"><ele>331</ele><time>2020-10-28T11:07:22Z</time><name>PT3294</name></trkpt>
<trkpt lat="53.104076" lon="-1.690810"><ele>331</ele><time>2020-10-28T11:07:22Z</time><name>PT3295</name></trkpt>
<trkpt lat="53.104084" lon="-1.690827"><ele>331</ele><time>2020-10-28T11:07:24Z</time><name>PT3296</name></trkpt>
<trkpt lat="53.104091" lon="-1.690844"><ele>331</ele><time>2020-10-28T11:07:25Z</time><name>PT3297</name></trkpt>
<trkpt lat="53.104100" lon="-1.690860"><ele>331</ele><time>2020-10-28T11:07:25Z</time><name>PT3298</name></trkpt>
<trkpt lat="53.104109" lon="-1.690874"><ele>331</ele><time>2020-10-28T11:07:27Z</time><name>PT3299</name></trkpt>
<trkpt lat="53.104118" lon="-1.690889"><ele>331</ele><time>2020-10-28T11:07:28Z</time><name>PT3300</name></trkpt>
<trkpt lat="53.104126" lon="-1.690901"><ele>331</ele><time>2020-10-28T11:07:28Z</time><name>PT3301</name></trkpt>
<trkpt lat="53.104134" lon="-1.690915"><ele>331</ele><time>2020-10-28T11:07:30Z</time><name>PT3302</name></trkpt>
<trkpt lat="53.104143" lon="-1.690929"><ele>331</ele><time>2020-10-28T11:07:31Z</time><name>PT3303</name></trkpt>
<trkpt lat="53.104152" lon="-1.690942"><ele>331</ele><time>2020-10-28T11:07:31Z</time><name>PT3304</name></trkpt>
<trkpt lat="53.104163" lon="-1.690954"><ele>332</ele><time>2020-10-28T11:07:33Z</time><name>PT3305</name></trkpt>
<trkpt lat="53.104173" lon="-1.690969"><ele>332</ele><time>2020-10-28T11:07:34Z</time><name>PT3306</name></trkpt>
<trkpt lat="53.104183" lon="-1.690981"><ele>332</ele><time>2020-10-28T11:07:34Z</time><name>PT3307</name></trkpt>
<trkpt lat="53.104193" lon="-1.690993"><ele>332</ele><time>2020-10-28T11:07:36Z</time><name>PT3308</name></trkpt>
<trkpt lat="53.104203" lon="-1.691005"><ele>332</ele><time>2020-10-28T11:07:37Z</time><name>PT3309</name></trkpt>
<trkpt lat="53.104214" lon="-1.691016"><ele>332</ele><time>2020-10-28T11:07:37Z</time><name>PT3310</name></trkpt>
<trkpt lat="53.104224" lon="-1.691027"><ele>332</ele><time>2020-10-28T11:07:39Z</time><name>PT3311</name></trkpt>
<trkpt lat="53.104234" lon="-1.691035"><ele>332</ele><time>2020-10-28T11:07:40Z</time><name>PT3312</name></trkpt>
<trkpt lat="53.104242" lon="-1.691046"><ele>332</ele><time>2020-10-28T11:07:40Z</time><name>PT3313</name></trkpt>
<trkpt lat="53.104251" lon="-1.691060"><ele>332</ele><time>2020-10-28T11:07:42Z</time><name>PT3314</name></trkpt>
<trkpt lat="53.104261" lon="-1.691075"><ele>332</ele><time>2020-10-28T11:07:43Z</time><name>PT3315</name></trkpt>
<trkpt lat="53.104271" lon="-1.691089"><ele>332</ele><time>2020-10-28T11:07:43Z</time><name>PT3316</name></trkpt>
<trkpt lat="53.104282" lon="-1.691101"><ele>332</ele><time>2020-10-28T11:07:45Z</time><name>PT3317</name></trkpt>
<trkpt lat="53.104294" lon="-1.691108"><ele>333</ele><time>2020-10-28T11:07:46Z</time><name>PT3318</name></trkpt>
<trkpt lat="53.104302" lon="-1.691114"><ele>332</ele><time>2020-10-28T11:07:46Z</time><name>PT3319</name></trkpt>
<trkpt lat="53.104311" lon="-1.691122"><ele>332</ele><time>2020-10-28T11:07:48Z</time><name>PT3320</name></trkpt>
<trkpt lat="53.104320" lon="-1.691130"><ele>332</ele><time>2020-10-28T11:07:49Z</time><name>PT3321</name></trkpt>
<trkpt lat="53.104328" lon="-1.691136"><ele>331</ele><time>2020-10-28T11:07:49Z</time><name>PT3322</name></trkpt>
<trkpt lat="53.104341" lon="-1.691145"><ele>332</ele><time>2020-10-28T11:07:51Z</time><name>PT3323</name></trkpt>
<trkpt lat="53.104353" lon="-1.691156"><ele>332</ele><time>2020-10-28T11:07:52Z</time><name>PT3324</name></trkpt>
<trkpt lat="53.104360" lon="-1.691165"><ele>332</ele><time>2020-10-28T11:07:52Z</time><name>PT3325</name></trkpt>
<trkpt lat="53.104367" lon="-1.691175"><ele>332</ele><time>2020-10-28T11:07:54Z</time><name>PT3326</name></trkpt>
<trkpt lat="53.104376" lon="-1.691184"><ele>332</ele><time>2020-10-28T11:07:55Z</time><name>PT3327</name></trkpt>
<trkpt lat="53.104385" lon="-1.691189"><ele>332</ele><time>2020-10-28T11:07:55Z</time><name>PT3328</name></trkpt>
<trkpt lat="53.104395" lon="-1.691193"><ele>332</ele><time>2020-10-28T11:07:57Z</time><name>PT3329</name></trkpt>
<trkpt lat="53.104404" lon="-1.691199"><ele>331</ele><time>2020-10-28T11:07:58Z</time><name>PT3330</name></trkpt>
<trkpt lat="53.104414" lon="-1.691206"><ele>332</ele><time>2020-10-28T11:07:58Z</time><name>PT3331</name></trkpt>
<trkpt lat="53.104424" lon="-1.691215"><ele>331</ele><time>2020-10-28T11:08:00Z</time><name>PT3332</name></trkpt>
<trkpt lat="53.104432" lon="-1.691220"><ele>331</ele><time>2020-10-28T11:08:01Z</time><name>PT3333</name></trkpt>
<trkpt lat="53.104441" lon="-1.691228"><ele>331</ele><time>2020-10-28T11:08:01Z</time><name>PT3334</name></trkpt>
<trkpt lat="53.104450" lon="-1.691235"><ele>331</ele><time>2020-10-28T11:08:03Z</time><name>PT3335</name></trkpt>
<trkpt lat="53.104462" lon="-1.691245"><ele>331</ele><time>2020-10-28T11:08:04Z</time><name>PT3336</name></trkpt>
<trkpt lat="53.104472" lon="-1.691257"><ele>331</ele><time>2020-10-28T11:08:04Z</time><name>PT3337</name></trkpt>
<trkpt lat="53.104480" lon="-1.691262"><ele>331</ele><time>2020-10-28T11:08:06Z</time><name>PT3338</name></trkpt>
<trkpt lat="53.104489" lon="-1.691264"><ele>331</ele><time>2020-10-28T11:08:07Z</time><name>PT3339</name></trkpt>
<trkpt lat="53.104500" lon="-1.691266"><ele>331</ele><time>2020-10-28T11:08:07Z</time><name>PT3340</name></trkpt>
<trkpt lat="53.104510" lon="-1.691276"><ele>330</ele><time>2020-10-28T11:08:09Z</time><name>PT3341</name></trkpt>
<trkpt lat="53.104522" lon="-1.691283"><ele>330</ele><time>2020-10-28T11:08:10Z</time><name>PT3342</name></trkpt>
<trkpt lat="53.104534" lon="-1.691288"><ele>330</ele><time>2020-10-28T11:08:10Z</time><name>PT3343</name></trkpt>
<trkpt lat="53.104546" lon="-1.691295"><ele>330</ele><time>2020-10-28T11:08:12Z</time><name>PT3344</name></trkpt>
<trkpt lat="53.104556" lon="-1.691304"><ele>331</ele><time>2020-10-28T11:08:13Z</time><name>PT3345</name></trkpt>
<trkpt lat="53.104567" lon="-1.691313"><ele>331</ele><time>2020-10-28T11:08:13Z</time><name>PT3346</name></trkpt>
<trkpt lat="53.104578" lon="-1.691320"><ele>331</ele><time>2020-10-28T11:08:15Z</time><name>PT3347</name></trkpt>
<trkpt lat="53.104589" lon="-1.691321"><ele>331</ele><time>2020-10-28T11:08:16Z</time><name>PT3348</name></trkpt>
<trkpt lat="53.104599" lon="-1.691322"><ele>331</ele><time>2020-10-28T11:08:16Z</time><name>PT3349</name></trkpt>
<trkpt lat="53.104612" lon="-1.691328"><ele>331</ele><time>2020-10-28T11:08:18Z</time><name>PT3350</name></trkpt>
<trkpt lat="53.104624" lon="-1.691336"><ele>332</ele><time>2020-10-28T11:08:19Z</time><name>PT3351</name></trkpt>
<trkpt lat="53.104634" lon="-1.691339"><ele>331</ele><time>2020-10-28T11:08:19Z</time><name>PT3352</name></trkpt>
<trkpt lat="53.104646" lon="-1.691342"><ele>332</ele><time>2020-10-28T11:08:21Z</time><name>PT3353</name></trkpt>
<trkpt lat="53.104656" lon="-1.691346"><ele>331</ele><time>2020-10-28T11:08:22Z</time><name>PT3354</name></trkpt>
<trkpt lat="53.104663" lon="-1.691356"><ele>331</ele><time>2020-10-28T11:08:22Z</time><name>PT3355</name></trkpt>
<trkpt lat="53.104672" lon="-1.691359"><ele>331</ele><time>2020-10-28T11:08:24Z</time><name>PT3356</name></trkpt>
<trkpt lat="53.104681" lon="-1.691363"><ele>331</ele><time>2020-10-28T11:08:25Z</time><name>PT3357</name></trkpt>
<trkpt lat="53.104690" lon="-1.691362"><ele>330</ele><time>2020-10-28T11:08:25Z</time><name>PT3358</name></trkpt>
<trkpt lat="53.104699" lon="-1.691366"><ele>330</ele><time>2020-10-28T11:08:27Z</time><name>PT3359</name></trkpt>
<trkpt lat="53.104710" lon="-1.691371"><ele>330</ele><time>2020-10-28T11:08:28Z</time><name>PT3360</name></trkpt>
<trkpt lat="53.104722" lon="-1.691378"><ele>330</ele><time>2020-10-28T11:08:28Z</time><name>PT3361</name></trkpt>
<trkpt lat="53.104732" lon="-1.691382"><ele>330</ele><time>2020-10-28T11:08:30Z</time><name>PT3362</name></trkpt>
<trkpt lat="53.104743" lon="-1.691387"><ele>330</ele><time>2020-10-28T11:08:31Z</time><name>PT3363</name></trkpt>
<trkpt lat="53.104753" lon="-1.691391"><ele>330</ele><time>2020-10-28T11:08:31Z</time><name>PT3364</name></trkpt>
<trkpt lat="53.104763" lon="-1.691394"><ele>330</ele><time>2020-10-28T11:08:33Z</time><name>PT3365</name></trkpt>
<trkpt lat="53.104772" lon="-1.691398"><ele>330</ele><time>2020-10-28T11:08:34Z</time><name>PT3366</name></trkpt>
<trkpt lat="53.104784" lon="-1.691402"><ele>330</ele><time>2020-10-28T11:08:34Z</time><name>PT3367</name></trkpt>
<trkpt lat="53.104799" lon="-1.691410"><ele>331</ele><time>2020-10-28T11:08:36Z</time><name>PT3368</name></trkpt>
<trkpt lat="53.104811" lon="-1.691415"><ele>331</ele><time>2020-10-28T11:08:37Z</time><name>PT3369</name></trkpt>
<trkpt lat="53.104821" lon="-1.691422"><ele>331</ele><time>2020-10-28T11:08:37Z</time><name>PT3370</name></trkpt>
<trkpt lat="53.104835" lon="-1.691433"><ele>331</ele><time>2020-10-28T11:08:39Z</time><name>PT3371</name></trkpt>
<trkpt lat="53.104845" lon="-1.691439"><ele>331</ele><time>2020-10-28T11:08:40Z</time><name>PT3372</name></trkpt>
<trkpt lat="53.104856" lon="-1.691445"><ele>331</ele><time>2020-10-28T11:08:40Z</time><name>PT3373</name></trkpt>
<trkpt lat="53.104870" lon="-1.691462"><ele>331</ele><time>2020-10-28T11:08:42Z</time><name>PT3374</name></trkpt>
<trkpt lat="53.104881" lon="-1.691473"><ele>330</ele><time>2020-10-28T11:08:43Z</time><name>PT3375</name></trkpt>
<trkpt lat="53.104891" lon="-1.691485"><ele>331</ele><time>2020-10-28T11:08:43Z</time><name>PT3376</name></trkpt>
<trkpt lat="53.104900" lon="-1.691492"><ele>330</ele><time>2020-10-28T11:08:45Z</time><name>PT3377</name></trkpt>
<trkpt lat="53.104908" lon="-1.691501"><ele>329</ele><time>2020-10-28T11:08:46Z</time><name>PT3378</name></trkpt>
<trkpt lat="53.104919" lon="-1.691505"><ele>330</ele><time>2020-10-28T11:08:46Z</time><name>PT3379</name></trkpt>
<trkpt lat="53.104928" lon="-1.691512"><ele>329</ele><time>2020-10-28T11:08:48Z</time><name>PT3380</name></trkpt>
<trkpt lat="53.104939" lon="-1.691521"><ele>329</ele><time>2020-10-28T11:08:49Z</time><name>PT3381</name></trkpt>
<trkpt lat="53.104951" lon="-1.691530"><ele>329</ele><time>2020-10-28T11:08:49Z</time><name>PT3382</name></trkpt>
<trkpt lat="53.104963" lon="-1.691540"><ele>329</ele><time>2020-10-28T11:08:51Z</time><name>PT3383</name></trkpt>
<trkpt lat="53.104974" lon="-1.691546"><ele>329</ele><time>2020-10-28T11:08:52Z</time><name>PT3384</name></trkpt>
<trkpt lat="53.104988" lon="-1.691554"><ele>328</ele><time>2020-10-28T11:08:53Z</time><name>PT3385</name></trkpt>
<trkpt lat="53.104998" lon="-1.691564"><ele>327</ele><time>2020-10-28T11:08:54Z</time><name>PT3386</name></trkpt>
<trkpt lat="53.105010" lon="-1.691571"><ele>327</ele><time>2020-10-28T11:08:55Z</time><name>PT3387</name></trkpt>
<trkpt lat="53.105023" lon="-1.691575"><ele>327</ele><time>2020-10-28T11:08:55Z</time><name>PT3388</name></trkpt>
<trkpt lat="53.105036" lon="-1.691582"><ele>327</ele><time>2020-10-28T11:08:57Z</time><name>PT3389</name></trkpt>
<trkpt lat="53.105049" lon="-1.691590"><ele>326</ele><time>2020-10-28T11:08:58Z</time><name>PT3390</name></trkpt>
<trkpt lat="53.105063" lon="-1.691592"><ele>326</ele><time>2020-10-28T11:08:58Z</time><name>PT3391</name></trkpt>
<trkpt lat="53.105073" lon="-1.691594"><ele>326</ele><time>2020-10-28T11:09:00Z</time><name>PT3392</name></trkpt>
<trkpt lat="53.105085" lon="-1.691598"><ele>327</ele><time>2020-10-28T11:09:01Z</time><name>PT3393</name></trkpt>
<trkpt lat="53.105096" lon="-1.691603"><ele>326</ele><time>2020-10-28T11:09:01Z</time><name>PT3394</name></trkpt>
<trkpt lat="53.105108" lon="-1.691608"><ele>327</ele><time>2020-10-28T11:09:03Z</time><name>PT3395</name></trkpt>
<trkpt lat="53.105120" lon="-1.691613"><ele>327</ele><time>2020-10-28T11:09:04Z</time><name>PT3396</name></trkpt>
<trkpt lat="53.105129" lon="-1.691614"><ele>327</ele><time>2020-10-28T11:09:04Z</time><name>PT3397</name></trkpt>
<trkpt lat="53.105135" lon="-1.691617"><ele>327</ele><time>2020-10-28T11:09:06Z</time><name>PT3398</name></trkpt>
<trkpt lat="53.105140" lon="-1.691627"><ele>327</ele><time>2020-10-28T11:09:07Z</time><name>PT3399</name></trkpt>
<trkpt lat="53.105144" lon="-1.691639"><ele>326</ele><time>2020-10-28T11:09:08Z</time><name>PT3400</name></trkpt>
<trkpt lat="53.105149" lon="-1.691646"><ele>326</ele><time>2020-10-28T11:09:09Z</time><name>PT3401</name></trkpt>
<trkpt lat="53.105156" lon="-1.691660"><ele>326</ele><time>2020-10-28T11:09:10Z</time><name>PT3402</name></trkpt>
<trkpt lat="53.105166" lon="-1.691670"><ele>325</ele><time>2020-10-28T11:09:11Z</time><name>PT3403</name></trkpt>
<trkpt lat="53.105178" lon="-1.691679"><ele>325</ele><time>2020-10-28T11:09:12Z</time><name>PT3404</name></trkpt>
<trkpt lat="53.105189" lon="-1.691686"><ele>325</ele><time>2020-10-28T11:09:13Z</time><name>PT3405</name></trkpt>
<trkpt lat="53.105195" lon="-1.691693"><ele>324</ele><time>2020-10-28T11:09:13Z</time><name>PT3406</name></trkpt>
<trkpt lat="53.105204" lon="-1.691697"><ele>324</ele><time>2020-10-28T11:09:15Z</time><name>PT3407</name></trkpt>
<trkpt lat="53.105218" lon="-1.691703"><ele>324</ele><time>2020-10-28T11:09:16Z</time><name>PT3408</name></trkpt>
<trkpt lat="53.105233" lon="-1.691706"><ele>324</ele><time>2020-10-28T11:09:17Z</time><name>PT3409</name></trkpt>
<trkpt lat="53.105247" lon="-1.691714"><ele>324</ele><time>2020-10-28T11:09:18Z</time><name>PT3410</name></trkpt>
<trkpt lat="53.105263" lon="-1.691718"><ele>325</ele><time>2020-10-28T11:09:19Z</time><name>PT3411</name></trkpt>
<trkpt lat="53.105277" lon="-1.691721"><ele>326</ele><time>2020-10-28T11:09:20Z</time><name>PT3412</name></trkpt>
<trkpt lat="53.105285" lon="-1.691725"><ele>325</ele><time>2020-10-28T11:09:21Z</time><name>PT3413</name></trkpt>
<trkpt lat="53.105296" lon="-1.691731"><ele>324</ele><time>2020-10-28T11:09:22Z</time><name>PT3414</name></trkpt>
<trkpt lat="53.105307" lon="-1.691733"><ele>324</ele><time>2020-10-28T11:09:22Z</time><name>PT3415</name></trkpt>
<trkpt lat="53.105316" lon="-1.691738"><ele>324</ele><time>2020-10-28T11:09:24Z</time><name>PT3416</name></trkpt>
<trkpt lat="53.105325" lon="-1.691745"><ele>323</ele><time>2020-10-28T11:09:25Z</time><name>PT3417</name></trkpt>
<trkpt lat="53.105336" lon="-1.691752"><ele>323</ele><time>2020-10-28T11:09:25Z</time><name>PT3418</name></trkpt>
<trkpt lat="53.105345" lon="-1.691757"><ele>323</ele><time>2020-10-28T11:09:27Z</time><name>PT3419</name></trkpt>
<trkpt lat="53.105348" lon="-1.691763"><ele>322</ele><time>2020-10-28T11:09:28Z</time><name>PT3420</name></trkpt>
<trkpt lat="53.105358" lon="-1.691769"><ele>323</ele><time>2020-10-28T11:09:28Z</time><name>PT3421</name></trkpt>
<trkpt lat="53.105369" lon="-1.691781"><ele>323</ele><time>2020-10-28T11:09:30Z</time><name>PT3422</name></trkpt>
<trkpt lat="53.105378" lon="-1.691790"><ele>323</ele><time>2020-10-28T11:09:31Z</time><name>PT3423</name></trkpt>
<trkpt lat="53.105389" lon="-1.691797"><ele>323</ele><time>2020-10-28T11:09:31Z</time><name>PT3424</name></trkpt>
<trkpt lat="53.105399" lon="-1.691805"><ele>322</ele><time>2020-10-28T11:09:33Z</time><name>PT3425</name></trkpt>
<trkpt lat="53.105409" lon="-1.691813"><ele>322</ele><time>2020-10-28T11:09:34Z</time><name>PT3426</name></trkpt>
<trkpt lat="53.105419" lon="-1.691818"><ele>323</ele><time>2020-10-28T11:09:34Z</time><name>PT3427</name></trkpt>
<trkpt lat="53.105429" lon="-1.691827"><ele>323</ele><time>2020-10-28T11:09:36Z</time><name>PT3428</name></trkpt>
<trkpt lat="53.105440" lon="-1.691839"><ele>324</ele><time>2020-10-28T11:09:37Z</time><name>PT3429</name></trkpt>
<trkpt lat="53.105453" lon="-1.691846"><ele>325</ele><time>2020-10-28T11:09:37Z</time><name>PT3430</name></trkpt>
<trkpt lat="53.105461" lon="-1.691852"><ele>324</ele><time>2020-10-28T11:09:39Z</time><name>PT3431</name></trkpt>
<trkpt lat="53.105465" lon="-1.691858"><ele>324</ele><time>2020-10-28T11:09:40Z</time><name>PT3432</name></trkpt>
<trkpt lat="53.105473" lon="-1.691863"><ele>325</ele><time>2020-10-28T11:09:40Z</time><name>PT3433</name></trkpt>
<trkpt lat="53.105487" lon="-1.691868"><ele>325</ele><time>2020-10-28T11:09:42Z</time><name>PT3434</name></trkpt>
<trkpt lat="53.105511" lon="-1.691868"><ele>325</ele><time>2020-10-28T11:09:43Z</time><name>PT3435</name></trkpt>
<trkpt lat="53.105535" lon="-1.691874"><ele>324</ele><time>2020-10-28T11:09:43Z</time><name>PT3436</name></trkpt>
<trkpt lat="53.105561" lon="-1.691878"><ele>325</ele><time>2020-10-28T11:09:45Z</time><name>PT3437</name></trkpt>
<trkpt lat="53.105585" lon="-1.691883"><ele>326</ele><time>2020-10-28T11:09:46Z</time><name>PT3438</name></trkpt>
<trkpt lat="53.105600" lon="-1.691893"><ele>327</ele><time>2020-10-28T11:09:46Z</time><name>PT3439</name></trkpt>
<trkpt lat="53.105614" lon="-1.691897"><ele>327</ele><time>2020-10-28T11:09:48Z</time><name>PT3440</name></trkpt>
<trkpt lat="53.105632" lon="-1.691903"><ele>328</ele><time>2020-10-28T11:09:49Z</time><name>PT3441</name></trkpt>
<trkpt lat="53.105647" lon="-1.691906"><ele>328</ele><time>2020-10-28T11:09:49Z</time><name>PT3442</name></trkpt>
<trkpt lat="53.105664" lon="-1.691909"><ele>329</ele><time>2020-10-28T11:09:51Z</time><name>PT3443</name></trkpt>
<trkpt lat="53.105680" lon="-1.691914"><ele>329</ele><time>2020-10-28T11:09:52Z</time><name>PT3444</name></trkpt>
<trkpt lat="53.105691" lon="-1.691921"><ele>329</ele><time>2020-10-28T11:09:52Z</time><name>PT3445</name></trkpt>
<trkpt lat="53.105704" lon="-1.691925"><ele>330</ele><time>2020-10-28T11:09:54Z</time><name>PT3446</name></trkpt>
<trkpt lat="53.105717" lon="-1.691931"><ele>330</ele><time>2020-10-28T11:09:55Z</time><name>PT3447</name></trkpt>
<trkpt lat="53.105730" lon="-1.691937"><ele>330</ele><time>2020-10-28T11:09:55Z</time><name>PT3448</name></trkpt>
<trkpt lat="53.105743" lon="-1.691944"><ele>330</ele><time>2020-10-28T11:09:57Z</time><name>PT3449</name></trkpt>
<trkpt lat="53.105754" lon="-1.691951"><ele>330</ele><time>2020-10-28T11:09:58Z</time><name>PT3450</name></trkpt>
<trkpt lat="53.105766" lon="-1.691956"><ele>330</ele><time>2020-10-28T11:09:58Z</time><name>PT3451</name></trkpt>
<trkpt lat="53.105778" lon="-1.691961"><ele>330</ele><time>2020-10-28T11:10:00Z</time><name>PT3452</name></trkpt>
<trkpt lat="53.105790" lon="-1.691967"><ele>330</ele><time>2020-10-28T11:10:01Z</time><name>PT3453</name></trkpt>
<trkpt lat="53.105802" lon="-1.691974"><ele>330</ele><time>2020-10-28T11:10:01Z</time><name>PT3454</name></trkpt>
<trkpt lat="53.105814" lon="-1.691982"><ele>330</ele><time>2020-10-28T11:10:03Z</time><name>PT3455</name></trkpt>
<trkpt lat="53.105826" lon="-1.691989"><ele>330</ele><time>2020-10-28T11:10:04Z</time><name>PT3456</name></trkpt>
<trkpt lat="53.105837" lon="-1.691995"><ele>330</ele><time>2020-10-28T11:10:04Z</time><name>PT3457</name></trkpt>
<trkpt lat="53.105849" lon="-1.692001"><ele>330</ele><time>2020-10-28T11:10:06Z</time><name>PT3458</name></trkpt>
<trkpt lat="53.105860" lon="-1.692005"><ele>330</ele><time>2020-10-28T11:10:07Z</time><name>PT3459</name></trkpt>
<trkpt lat="53.105872" lon="-1.692011"><ele>330</ele><time>2020-10-28T11:10:07Z</time><name>PT3460</name></trkpt>
<trkpt lat="53.105885" lon="-1.692019"><ele>330</ele><time>2020-10-28T11:10:09Z</time><name>PT3461</name></trkpt>
<trkpt lat="53.105896" lon="-1.692029"><ele>330</ele><time>2020-10-28T11:10:10Z</time><name>PT3462</name></trkpt>
<trkpt lat="53.105911" lon="-1.692034"><ele>331</ele><time>2020-10-28T11:10:10Z</time><name>PT3463</name></trkpt>
<trkpt lat="53.105924" lon="-1.692037"><ele>331</ele><time>2020-10-28T11:10:12Z</time><name>PT3464</name></trkpt>
<trkpt lat="53.105975" lon="-1.692061"><ele>331</ele><time>2020-10-28T11:10:16Z</time><name>PT3465</name></trkpt>
<trkpt lat="53.106006" lon="-1.692077"><ele>331</ele><time>2020-10-28T11:10:19Z</time><name>PT3466</name></trkpt>
<trkpt lat="53.106039" lon="-1.692097"><ele>331</ele><time>2020-10-28T11:10:22Z</time><name>PT3467</name></trkpt>
<trkpt lat="53.106079" lon="-1.692120"><ele>331</ele><time>2020-10-28T11:10:26Z</time><name>PT3468</name></trkpt>
<trkpt lat="53.106116" lon="-1.692142"><ele>331</ele><time>2020-10-28T11:10:29Z</time><name>PT3469</name></trkpt>
<trkpt lat="53.106151" lon="-1.692171"><ele>330</ele><time>2020-10-28T11:10:32Z</time><name>PT3470</name></trkpt>
<trkpt lat="53.106191" lon="-1.692185"><ele>331</ele><time>2020-10-28T11:10:35Z</time><name>PT3471</name></trkpt>
<trkpt lat="53.106227" lon="-1.692203"><ele>331</ele><time>2020-10-28T11:10:38Z</time><name>PT3472</name></trkpt>
<trkpt lat="53.106275" lon="-1.692223"><ele>331</ele><time>2020-10-28T11:10:42Z</time><name>PT3473</name></trkpt>
<trkpt lat="53.106287" lon="-1.692230"><ele>331</ele><time>2020-10-28T11:10:43Z</time><name>PT3474</name></trkpt>
<trkpt lat="53.106298" lon="-1.692237"><ele>331</ele><time>2020-10-28T11:10:43Z</time><name>PT3475</name></trkpt>
<trkpt lat="53.106309" lon="-1.692244"><ele>331</ele><time>2020-10-28T11:10:45Z</time><name>PT3476</name></trkpt>
<trkpt lat="53.106320" lon="-1.692249"><ele>331</ele><time>2020-10-28T11:10:46Z</time><name>PT3477</name></trkpt>
<trkpt lat="53.106332" lon="-1.692254"><ele>331</ele><time>2020-10-28T11:10:46Z</time><name>PT3478</name></trkpt>
<trkpt lat="53.106343" lon="-1.692261"><ele>331</ele><time>2020-10-28T11:10:48Z</time><name>PT3479</name></trkpt>
<trkpt lat="53.106353" lon="-1.692266"><ele>331</ele><time>2020-10-28T11:10:49Z</time><name>PT3480</name></trkpt>
<trkpt lat="53.106364" lon="-1.692271"><ele>331</ele><time>2020-10-28T11:10:49Z</time><name>PT3481</name></trkpt>
<trkpt lat="53.106376" lon="-1.692277"><ele>331</ele><time>2020-10-28T11:10:51Z</time><name>PT3482</name></trkpt>
<trkpt lat="53.106388" lon="-1.692284"><ele>331</ele><time>2020-10-28T11:10:52Z</time><name>PT3483</name></trkpt>
<trkpt lat="53.106401" lon="-1.692292"><ele>331</ele><time>2020-10-28T11:10:52Z</time><name>PT3484</name></trkpt>
<trkpt lat="53.106412" lon="-1.692299"><ele>331</ele><time>2020-10-28T11:10:54Z</time><name>PT3485</name></trkpt>
<trkpt lat="53.106423" lon="-1.692307"><ele>331</ele><time>2020-10-28T11:10:55Z</time><name>PT3486</name></trkpt>
<trkpt lat="53.106434" lon="-1.692312"><ele>331</ele><time>2020-10-28T11:10:55Z</time><name>PT3487</name></trkpt>
<trkpt lat="53.106446" lon="-1.692320"><ele>331</ele><time>2020-10-28T11:10:57Z</time><name>PT3488</name></trkpt>
<trkpt lat="53.106459" lon="-1.692326"><ele>331</ele><time>2020-10-28T11:10:58Z</time><name>PT3489</name></trkpt>
<trkpt lat="53.106470" lon="-1.692334"><ele>331</ele><time>2020-10-28T11:10:58Z</time><name>PT3490</name></trkpt>
<trkpt lat="53.106481" lon="-1.692341"><ele>331</ele><time>2020-10-28T11:11:00Z</time><name>PT3491</name></trkpt>
<trkpt lat="53.106492" lon="-1.692347"><ele>331</ele><time>2020-10-28T11:11:01Z</time><name>PT3492</name></trkpt>
<trkpt lat="53.106504" lon="-1.692352"><ele>331</ele><time>2020-10-28T11:11:01Z</time><name>PT3493</name></trkpt>
<trkpt lat="53.106516" lon="-1.692357"><ele>331</ele><time>2020-10-28T11:11:03Z</time><name>PT3494</name></trkpt>
<trkpt lat="53.106528" lon="-1.692365"><ele>331</ele><time>2020-10-28T11:11:04Z</time><name>PT3495</name></trkpt>
<trkpt lat="53.106539" lon="-1.692373"><ele>331</ele><time>2020-10-28T11:11:04Z</time><name>PT3496</name></trkpt>
<trkpt lat="53.106549" lon="-1.692380"><ele>331</ele><time>2020-10-28T11:11:06Z</time><name>PT3497</name></trkpt>
<trkpt lat="53.106559" lon="-1.692388"><ele>331</ele><time>2020-10-28T11:11:07Z</time><name>PT3498</name></trkpt>
<trkpt lat="53.106568" lon="-1.692396"><ele>331</ele><time>2020-10-28T11:11:07Z</time><name>PT3499</name></trkpt>
<trkpt lat="53.106578" lon="-1.692407"><ele>331</ele><time>2020-10-28T11:11:09Z</time><name>PT3500</name></trkpt>
<trkpt lat="53.106589" lon="-1.692412"><ele>331</ele><time>2020-10-28T11:11:10Z</time><name>PT3501</name></trkpt>
<trkpt lat="53.106598" lon="-1.692416"><ele>331</ele><time>2020-10-28T11:11:10Z</time><name>PT3502</name></trkpt>
<trkpt lat="53.106609" lon="-1.692424"><ele>331</ele><time>2020-10-28T11:11:12Z</time><name>PT3503</name></trkpt>
<trkpt lat="53.106622" lon="-1.692430"><ele>331</ele><time>2020-10-28T11:11:13Z</time><name>PT3504</name></trkpt>
<trkpt lat="53.106634" lon="-1.692438"><ele>332</ele><time>2020-10-28T11:11:13Z</time><name>PT3505</name></trkpt>
<trkpt lat="53.106645" lon="-1.692445"><ele>332</ele><time>2020-10-28T11:11:15Z</time><name>PT3506</name></trkpt>
<trkpt lat="53.106657" lon="-1.692453"><ele>332</ele><time>2020-10-28T11:11:16Z</time><name>PT3507</name></trkpt>
<trkpt lat="53.106667" lon="-1.692460"><ele>332</ele><time>2020-10-28T11:11:16Z</time><name>PT3508</name></trkpt>
<trkpt lat="53.106679" lon="-1.692464"><ele>332</ele><time>2020-10-28T11:11:18Z</time><name>PT3509</name></trkpt>
<trkpt lat="53.106690" lon="-1.692469"><ele>332</ele><time>2020-10-28T11:11:19Z</time><name>PT3510</name></trkpt>
<trkpt lat="53.106701" lon="-1.692475"><ele>332</ele><time>2020-10-28T11:11:19Z</time><name>PT3511</name></trkpt>
<trkpt lat="53.106714" lon="-1.692481"><ele>332</ele><time>2020-10-28T11:11:21Z</time><name>PT3512</name></trkpt>
<trkpt lat="53.106725" lon="-1.692482"><ele>331</ele><time>2020-10-28T11:11:22Z</time><name>PT3513</name></trkpt>
<trkpt lat="53.106734" lon="-1.692485"><ele>331</ele><time>2020-10-28T11:11:22Z</time><name>PT3514</name></trkpt>
<trkpt lat="53.106746" lon="-1.692486"><ele>331</ele><time>2020-10-28T11:11:24Z</time><name>PT3515</name></trkpt>
<trkpt lat="53.106757" lon="-1.692496"><ele>332</ele><time>2020-10-28T11:11:25Z</time><name>PT3516</name></trkpt>
<trkpt lat="53.106767" lon="-1.692499"><ele>331</ele><time>2020-10-28T11:11:25Z</time><name>PT3517</name></trkpt>
<trkpt lat="53.106777" lon="-1.692505"><ele>331</ele><time>2020-10-28T11:11:27Z</time><name>PT3518</name></trkpt>
<trkpt lat="53.106785" lon="-1.692511"><ele>332</ele><time>2020-10-28T11:11:28Z</time><name>PT3519</name></trkpt>
<trkpt lat="53.106796" lon="-1.692515"><ele>332</ele><time>2020-10-28T11:11:28Z</time><name>PT3520</name></trkpt>
<trkpt lat="53.106805" lon="-1.692520"><ele>332</ele><time>2020-10-28T11:11:30Z</time><name>PT3521</name></trkpt>
<trkpt lat="53.106816" lon="-1.692527"><ele>332</ele><time>2020-10-28T11:11:31Z</time><name>PT3522</name></trkpt>
<trkpt lat="53.106828" lon="-1.692531"><ele>332</ele><time>2020-10-28T11:11:31Z</time><name>PT3523</name></trkpt>
<trkpt lat="53.106840" lon="-1.692535"><ele>332</ele><time>2020-10-28T11:11:33Z</time><name>PT3524</name></trkpt>
<trkpt lat="53.106853" lon="-1.692539"><ele>332</ele><time>2020-10-28T11:11:34Z</time><name>PT3525</name></trkpt>
<trkpt lat="53.106865" lon="-1.692542"><ele>331</ele><time>2020-10-28T11:11:34Z</time><name>PT3526</name></trkpt>
<trkpt lat="53.106876" lon="-1.692547"><ele>331</ele><time>2020-10-28T11:11:36Z</time><name>PT3527</name></trkpt>
<trkpt lat="53.106889" lon="-1.692557"><ele>331</ele><time>2020-10-28T11:11:37Z</time><name>PT3528</name></trkpt>
<trkpt lat="53.106900" lon="-1.692563"><ele>331</ele><time>2020-10-28T11:11:37Z</time><name>PT3529</name></trkpt>
<trkpt lat="53.106911" lon="-1.692568"><ele>331</ele><time>2020-10-28T11:11:39Z</time><name>PT3530</name></trkpt>
<trkpt lat="53.106923" lon="-1.692576"><ele>332</ele><time>2020-10-28T11:11:40Z</time><name>PT3531</name></trkpt>
<trkpt lat="53.106936" lon="-1.692582"><ele>332</ele><time>2020-10-28T11:11:40Z</time><name>PT3532</name></trkpt>
<trkpt lat="53.106947" lon="-1.692584"><ele>332</ele><time>2020-10-28T11:11:42Z</time><name>PT3533</name></trkpt>
<trkpt lat="53.106959" lon="-1.692593"><ele>332</ele><time>2020-10-28T11:11:43Z</time><name>PT3534</name></trkpt>
<trkpt lat="53.106972" lon="-1.692600"><ele>332</ele><time>2020-10-28T11:11:43Z</time><name>PT3535</name></trkpt>
<trkpt lat="53.106984" lon="-1.692598"><ele>332</ele><time>2020-10-28T11:11:45Z</time><name>PT3536</name></trkpt>
<trkpt lat="53.106995" lon="-1.692604"><ele>332</ele><time>2020-10-28T11:11:46Z</time><name>PT3537</name></trkpt>
<trkpt lat="53.107009" lon="-1.692609"><ele>332</ele><time>2020-10-28T11:11:46Z</time><name>PT3538</name></trkpt>
<trkpt lat="53.107021" lon="-1.692613"><ele>332</ele><time>2020-10-28T11:11:48Z</time><name>PT3539</name></trkpt>
<trkpt lat="53.107032" lon="-1.692620"><ele>332</ele><time>2020-10-28T11:11:49Z</time><name>PT3540</name></trkpt>
<trkpt lat="53.107044" lon="-1.692626"><ele>332</ele><time>2020-10-28T11:11:50Z</time><name>PT3541</name></trkpt>
<trkpt lat="53.107055" lon="-1.692632"><ele>332</ele><time>2020-10-28T11:11:51Z</time><name>PT3542</name></trkpt>
<trkpt lat="53.107067" lon="-1.692637"><ele>332</ele><time>2020-10-28T11:11:52Z</time><name>PT3543</name></trkpt>
<trkpt lat="53.107080" lon="-1.692641"><ele>332</ele><time>2020-10-28T11:11:53Z</time><name>PT3544</name></trkpt>
<trkpt lat="53.107092" lon="-1.692647"><ele>332</ele><time>2020-10-28T11:11:54Z</time><name>PT3545</name></trkpt>
<trkpt lat="53.107104" lon="-1.692651"><ele>332</ele><time>2020-10-28T11:11:55Z</time><name>PT3546</name></trkpt>
<trkpt lat="53.107117" lon="-1.692660"><ele>333</ele><time>2020-10-28T11:11:55Z</time><name>PT3547</name></trkpt>
<trkpt lat="53.107128" lon="-1.692666"><ele>333</ele><time>2020-10-28T11:11:57Z</time><name>PT3548</name></trkpt>
<trkpt lat="53.107139" lon="-1.692673"><ele>333</ele><time>2020-10-28T11:11:58Z</time><name>PT3549</name></trkpt>
<trkpt lat="53.107151" lon="-1.692675"><ele>333</ele><time>2020-10-28T11:11:58Z</time><name>PT3550</name></trkpt>
<trkpt lat="53.107164" lon="-1.692678"><ele>333</ele><time>2020-10-28T11:12:00Z</time><name>PT3551</name></trkpt>
<trkpt lat="53.107174" lon="-1.692685"><ele>333</ele><time>2020-10-28T11:12:01Z</time><name>PT3552</name></trkpt>
<trkpt lat="53.107185" lon="-1.692695"><ele>333</ele><time>2020-10-28T11:12:02Z</time><name>PT3553</name></trkpt>
<trkpt lat="53.107197" lon="-1.692701"><ele>333</ele><time>2020-10-28T11:12:03Z</time><name>PT3554</name></trkpt>
<trkpt lat="53.107207" lon="-1.692701"><ele>332</ele><time>2020-10-28T11:12:04Z</time><name>PT3555</name></trkpt>
<trkpt lat="53.107218" lon="-1.692704"><ele>332</ele><time>2020-10-28T11:12:05Z</time><name>PT3556</name></trkpt>
<trkpt lat="53.107230" lon="-1.692711"><ele>332</ele><time>2020-10-28T11:12:06Z</time><name>PT3557</name></trkpt>
<trkpt lat="53.107242" lon="-1.692720"><ele>332</ele><time>2020-10-28T11:12:07Z</time><name>PT3558</name></trkpt>
<trkpt lat="53.107252" lon="-1.692728"><ele>332</ele><time>2020-10-28T11:12:07Z</time><name>PT3559</name></trkpt>
<trkpt lat="53.107264" lon="-1.692735"><ele>332</ele><time>2020-10-28T11:12:09Z</time><name>PT3560</name></trkpt>
<trkpt lat="53.107277" lon="-1.692741"><ele>332</ele><time>2020-10-28T11:12:10Z</time><name>PT3561</name></trkpt>
<trkpt lat="53.107289" lon="-1.692748"><ele>332</ele><time>2020-10-28T11:12:10Z</time><name>PT3562</name></trkpt>
<trkpt lat="53.107302" lon="-1.692753"><ele>332</ele><time>2020-10-28T11:12:12Z</time><name>PT3563</name></trkpt>
<trkpt lat="53.107313" lon="-1.692764"><ele>332</ele><time>2020-10-28T11:12:13Z</time><name>PT3564</name></trkpt>
<trkpt lat="53.107325" lon="-1.692771"><ele>332</ele><time>2020-10-28T11:12:13Z</time><name>PT3565</name></trkpt>
<trkpt lat="53.107337" lon="-1.692777"><ele>332</ele><time>2020-10-28T11:12:15Z</time><name>PT3566</name></trkpt>
<trkpt lat="53.107349" lon="-1.692785"><ele>333</ele><time>2020-10-28T11:12:16Z</time><name>PT3567</name></trkpt>
<trkpt lat="53.107361" lon="-1.692793"><ele>333</ele><time>2020-10-28T11:12:16Z</time><name>PT3568</name></trkpt>
<trkpt lat="53.107373" lon="-1.692803"><ele>333</ele><time>2020-10-28T11:12:18Z</time><name>PT3569</name></trkpt>
<trkpt lat="53.107385" lon="-1.692810"><ele>333</ele><time>2020-10-28T11:12:19Z</time><name>PT3570</name></trkpt>
<trkpt lat="53.107395" lon="-1.692816"><ele>333</ele><time>2020-10-28T11:12:19Z</time><name>PT3571</name></trkpt>
<trkpt lat="53.107407" lon="-1.692820"><ele>333</ele><time>2020-10-28T11:12:21Z</time><name>PT3572</name></trkpt>
<trkpt lat="53.107418" lon="-1.692829"><ele>333</ele><time>2020-10-28T11:12:22Z</time><name>PT3573</name></trkpt>
<trkpt lat="53.107430" lon="-1.692835"><ele>333</ele><time>2020-10-28T11:12:22Z</time><name>PT3574</name></trkpt>
<trkpt lat="53.107443" lon="-1.692842"><ele>333</ele><time>2020-10-28T11:12:24Z</time><name>PT3575</name></trkpt>
<trkpt lat="53.107454" lon="-1.692846"><ele>332</ele><time>2020-10-28T11:12:25Z</time><name>PT3576</name></trkpt>
<trkpt lat="53.107464" lon="-1.692847"><ele>334</ele><time>2020-10-28T11:12:25Z</time><name>PT3577</name></trkpt>
<trkpt lat="53.107477" lon="-1.692856"><ele>334</ele><time>2020-10-28T11:12:27Z</time><name>PT3578</name></trkpt>
<trkpt lat="53.107487" lon="-1.692865"><ele>334</ele><time>2020-10-28T11:12:28Z</time><name>PT3579</name></trkpt>
<trkpt lat="53.107497" lon="-1.692873"><ele>334</ele><time>2020-10-28T11:12:28Z</time><name>PT3580</name></trkpt>
<trkpt lat="53.107508" lon="-1.692878"><ele>334</ele><time>2020-10-28T11:12:30Z</time><name>PT3581</name></trkpt>
<trkpt lat="53.107517" lon="-1.692885"><ele>334</ele><time>2020-10-28T11:12:31Z</time><name>PT3582</name></trkpt>
<trkpt lat="53.107531" lon="-1.692884"><ele>334</ele><time>2020-10-28T11:12:31Z</time><name>PT3583</name></trkpt>
<trkpt lat="53.107547" lon="-1.692886"><ele>334</ele><time>2020-10-28T11:12:33Z</time><name>PT3584</name></trkpt>
<trkpt lat="53.107558" lon="-1.692890"><ele>333</ele><time>2020-10-28T11:12:34Z</time><name>PT3585</name></trkpt>
<trkpt lat="53.107571" lon="-1.692894"><ele>332</ele><time>2020-10-28T11:12:34Z</time><name>PT3586</name></trkpt>
<trkpt lat="53.107583" lon="-1.692901"><ele>332</ele><time>2020-10-28T11:12:36Z</time><name>PT3587</name></trkpt>
<trkpt lat="53.107593" lon="-1.692898"><ele>330</ele><time>2020-10-28T11:12:37Z</time><name>PT3588</name></trkpt>
<trkpt lat="53.107605" lon="-1.692904"><ele>330</ele><time>2020-10-28T11:12:37Z</time><name>PT3589</name></trkpt>
<trkpt lat="53.107617" lon="-1.692908"><ele>330</ele><time>2020-10-28T11:12:39Z</time><name>PT3590</name></trkpt>
<trkpt lat="53.107628" lon="-1.692913"><ele>330</ele><time>2020-10-28T11:12:40Z</time><name>PT3591</name></trkpt>
<trkpt lat="53.107639" lon="-1.692917"><ele>330</ele><time>2020-10-28T11:12:40Z</time><name>PT3592</name></trkpt>
<trkpt lat="53.107651" lon="-1.692932"><ele>330</ele><time>2020-10-28T11:12:42Z</time><name>PT3593</name></trkpt>
<trkpt lat="53.107665" lon="-1.692942"><ele>331</ele><time>2020-10-28T11:12:43Z</time><name>PT3594</name></trkpt>
<trkpt lat="53.107678" lon="-1.692943"><ele>331</ele><time>2020-10-28T11:12:43Z</time><name>PT3595</name></trkpt>
<trkpt lat="53.107690" lon="-1.692956"><ele>331</ele><time>2020-10-28T11:12:45Z</time><name>PT3596</name></trkpt>
<trkpt lat="53.107701" lon="-1.692962"><ele>331</ele><time>2020-10-28T11:12:46Z</time><name>PT3597</name></trkpt>
<trkpt lat="53.107711" lon="-1.692975"><ele>331</ele><time>2020-10-28T11:12:46Z</time><name>PT3598</name></trkpt>
<trkpt lat="53.107721" lon="-1.692982"><ele>330</ele><time>2020-10-28T11:12:48Z</time><name>PT3599</name></trkpt>
<trkpt lat="53.107733" lon="-1.692992"><ele>330</ele><time>2020-10-28T11:12:49Z</time><name>PT3600</name></trkpt>
<trkpt lat="53.107745" lon="-1.692995"><ele>330</ele><time>2020-10-28T11:12:49Z</time><name>PT3601</name></trkpt>
<trkpt lat="53.107759" lon="-1.693002"><ele>330</ele><time>2020-10-28T11:12:51Z</time><name>PT3602</name></trkpt>
<trkpt lat="53.107772" lon="-1.693011"><ele>330</ele><time>2020-10-28T11:12:52Z</time><name>PT3603</name></trkpt>
<trkpt lat="53.107783" lon="-1.693017"><ele>329</ele><time>2020-10-28T11:12:52Z</time><name>PT3604</name></trkpt>
<trkpt lat="53.107796" lon="-1.693024"><ele>329</ele><time>2020-10-28T11:12:54Z</time><name>PT3605</name></trkpt>
<trkpt lat="53.107808" lon="-1.693028"><ele>329</ele><time>2020-10-28T11:12:55Z</time><name>PT3606</name></trkpt>
<trkpt lat="53.107820" lon="-1.693037"><ele>329</ele><time>2020-10-28T11:12:55Z</time><name>PT3607</name></trkpt>
<trkpt lat="53.107833" lon="-1.693039"><ele>328</ele><time>2020-10-28T11:12:57Z</time><name>PT3608</name></trkpt>
<trkpt lat="53.107844" lon="-1.693042"><ele>328</ele><time>2020-10-28T11:12:58Z</time><name>PT3609</name></trkpt>
<trkpt lat="53.107855" lon="-1.693050"><ele>328</ele><time>2020-10-28T11:12:58Z</time><name>PT3610</name></trkpt>
<trkpt lat="53.107865" lon="-1.693052"><ele>328</ele><time>2020-10-28T11:13:00Z</time><name>PT3611</name></trkpt>
<trkpt lat="53.107874" lon="-1.693057"><ele>328</ele><time>2020-10-28T11:13:01Z</time><name>PT3612</name></trkpt>
<trkpt lat="53.107885" lon="-1.693061"><ele>328</ele><time>2020-10-28T11:13:01Z</time><name>PT3613</name></trkpt>
<trkpt lat="53.107896" lon="-1.693064"><ele>328</ele><time>2020-10-28T11:13:03Z</time><name>PT3614</name></trkpt>
<trkpt lat="53.107904" lon="-1.693065"><ele>328</ele><time>2020-10-28T11:13:04Z</time><name>PT3615</name></trkpt>
<trkpt lat="53.107917" lon="-1.693073"><ele>329</ele><time>2020-10-28T11:13:04Z</time><name>PT3616</name></trkpt>
<trkpt lat="53.107928" lon="-1.693083"><ele>329</ele><time>2020-10-28T11:13:06Z</time><name>PT3617</name></trkpt>
<trkpt lat="53.107941" lon="-1.693095"><ele>329</ele><time>2020-10-28T11:13:07Z</time><name>PT3618</name></trkpt>
<trkpt lat="53.107953" lon="-1.693104"><ele>329</ele><time>2020-10-28T11:13:07Z</time><name>PT3619</name></trkpt>
<trkpt lat="53.107965" lon="-1.693110"><ele>330</ele><time>2020-10-28T11:13:09Z</time><name>PT3620</name></trkpt>
<trkpt lat="53.107979" lon="-1.693114"><ele>330</ele><time>2020-10-28T11:13:10Z</time><name>PT3621</name></trkpt>
<trkpt lat="53.107989" lon="-1.693121"><ele>330</ele><time>2020-10-28T11:13:10Z</time><name>PT3622</name></trkpt>
<trkpt lat="53.108003" lon="-1.693128"><ele>330</ele><time>2020-10-28T11:13:12Z</time><name>PT3623</name></trkpt>
<trkpt lat="53.108012" lon="-1.693133"><ele>330</ele><time>2020-10-28T11:13:13Z</time><name>PT3624</name></trkpt>
<trkpt lat="53.108021" lon="-1.693142"><ele>330</ele><time>2020-10-28T11:13:13Z</time><name>PT3625</name></trkpt>
<trkpt lat="53.108033" lon="-1.693148"><ele>330</ele><time>2020-10-28T11:13:15Z</time><name>PT3626</name></trkpt>
<trkpt lat="53.108044" lon="-1.693154"><ele>330</ele><time>2020-10-28T11:13:16Z</time><name>PT3627</name></trkpt>
<trkpt lat="53.108055" lon="-1.693161"><ele>330</ele><time>2020-10-28T11:13:16Z</time><name>PT3628</name></trkpt>
<trkpt lat="53.108067" lon="-1.693171"><ele>330</ele><time>2020-10-28T11:13:18Z</time><name>PT3629</name></trkpt>
<trkpt lat="53.108076" lon="-1.693180"><ele>330</ele><time>2020-10-28T11:13:19Z</time><name>PT3630</name></trkpt>
<trkpt lat="53.108085" lon="-1.693187"><ele>330</ele><time>2020-10-28T11:13:19Z</time><name>PT3631</name></trkpt>
<trkpt lat="53.108095" lon="-1.693191"><ele>330</ele><time>2020-10-28T11:13:21Z</time><name>PT3632</name></trkpt>
<trkpt lat="53.108106" lon="-1.693198"><ele>330</ele><time>2020-10-28T11:13:22Z</time><name>PT3633</name></trkpt>
<trkpt lat="53.108117" lon="-1.693204"><ele>330</ele><time>2020-10-28T11:13:22Z</time><name>PT3634</name></trkpt>
<trkpt lat="53.108131" lon="-1.693208"><ele>330</ele><time>2020-10-28T11:13:24Z</time><name>PT3635</name></trkpt>
<trkpt lat="53.108144" lon="-1.693212"><ele>330</ele><time>2020-10-28T11:13:25Z</time><name>PT3636</name></trkpt>
<trkpt lat="53.108155" lon="-1.693216"><ele>331</ele><time>2020-10-28T11:13:25Z</time><name>PT3637</name></trkpt>
<trkpt lat="53.108165" lon="-1.693217"><ele>330</ele><time>2020-10-28T11:13:27Z</time><name>PT3638</name></trkpt>
<trkpt lat="53.108176" lon="-1.693219"><ele>331</ele><time>2020-10-28T11:13:28Z</time><name>PT3639</name></trkpt>
<trkpt lat="53.108188" lon="-1.693226"><ele>331</ele><time>2020-10-28T11:13:28Z</time><name>PT3640</name></trkpt>
<trkpt lat="53.108199" lon="-1.693231"><ele>331</ele><time>2020-10-28T11:13:30Z</time><name>PT3641</name></trkpt>
<trkpt lat="53.108214" lon="-1.693236"><ele>330</ele><time>2020-10-28T11:13:31Z</time><name>PT3642</name></trkpt>
<trkpt lat="53.108225" lon="-1.693238"><ele>331</ele><time>2020-10-28T11:13:31Z</time><name>PT3643</name></trkpt>
<trkpt lat="53.108237" lon="-1.693243"><ele>331</ele><time>2020-10-28T11:13:33Z</time><name>PT3644</name></trkpt>
<trkpt lat="53.108250" lon="-1.693248"><ele>331</ele><time>2020-10-28T11:13:34Z</time><name>PT3645</name></trkpt>
<trkpt lat="53.108263" lon="-1.693256"><ele>331</ele><time>2020-10-28T11:13:34Z</time><name>PT3646</name></trkpt>
<trkpt lat="53.108275" lon="-1.693262"><ele>331</ele><time>2020-10-28T11:13:36Z</time><name>PT3647</name></trkpt>
<trkpt lat="53.108288" lon="-1.693267"><ele>331</ele><time>2020-10-28T11:13:37Z</time><name>PT3648</name></trkpt>
<trkpt lat="53.108300" lon="-1.693273"><ele>331</ele><time>2020-10-28T11:13:37Z</time><name>PT3649</name></trkpt>
<trkpt lat="53.108310" lon="-1.693279"><ele>331</ele><time>2020-10-28T11:13:39Z</time><name>PT3650</name></trkpt>
<trkpt lat="53.108322" lon="-1.693286"><ele>331</ele><time>2020-10-28T11:13:40Z</time><name>PT3651</name></trkpt>
<trkpt lat="53.108335" lon="-1.693293"><ele>331</ele><time>2020-10-28T11:13:40Z</time><name>PT3652</name></trkpt>
<trkpt lat="53.108347" lon="-1.693302"><ele>331</ele><time>2020-10-28T11:13:42Z</time><name>PT3653</name></trkpt>
<trkpt lat="53.108355" lon="-1.693304"><ele>331</ele><time>2020-10-28T11:13:43Z</time><name>PT3654</name></trkpt>
<trkpt lat="53.108396" lon="-1.693329"><ele>330</ele><time>2020-10-28T11:13:46Z</time><name>PT3655</name></trkpt>
<trkpt lat="53.108429" lon="-1.693342"><ele>330</ele><time>2020-10-28T11:13:49Z</time><name>PT3656</name></trkpt>
<trkpt lat="53.108477" lon="-1.693373"><ele>331</ele><time>2020-10-28T11:13:54Z</time><name>PT3657</name></trkpt>
<trkpt lat="53.108500" lon="-1.693392"><ele>331</ele><time>2020-10-28T11:13:57Z</time><name>PT3658</name></trkpt>
<trkpt lat="53.108527" lon="-1.693402"><ele>330</ele><time>2020-10-28T11:14:00Z</time><name>PT3659</name></trkpt>
<trkpt lat="53.108537" lon="-1.693399"><ele>331</ele><time>2020-10-28T11:14:03Z</time><name>PT3660</name></trkpt>
<trkpt lat="53.108554" lon="-1.693418"><ele>331</ele><time>2020-10-28T11:14:07Z</time><name>PT3661</name></trkpt>
<trkpt lat="53.108557" lon="-1.693428"><ele>332</ele><time>2020-10-28T11:14:10Z</time><name>PT3662</name></trkpt>
<trkpt lat="53.108583" lon="-1.693428"><ele>331</ele><time>2020-10-28T11:14:15Z</time><name>PT3663</name></trkpt>
<trkpt lat="53.108623" lon="-1.693442"><ele>331</ele><time>2020-10-28T11:14:19Z</time><name>PT3664</name></trkpt>
<trkpt lat="53.108637" lon="-1.693463"><ele>331</ele><time>2020-10-28T11:14:22Z</time><name>PT3665</name></trkpt>
<trkpt lat="53.108644" lon="-1.693467"><ele>331</ele><time>2020-10-28T11:14:22Z</time><name>PT3666</name></trkpt>
<trkpt lat="53.108653" lon="-1.693473"><ele>331</ele><time>2020-10-28T11:14:24Z</time><name>PT3667</name></trkpt>
<trkpt lat="53.108661" lon="-1.693480"><ele>332</ele><time>2020-10-28T11:14:25Z</time><name>PT3668</name></trkpt>
<trkpt lat="53.108663" lon="-1.693477"><ele>332</ele><time>2020-10-28T11:14:25Z</time><name>PT3669</name></trkpt>
<trkpt lat="53.108663" lon="-1.693474"><ele>332</ele><time>2020-10-28T11:14:27Z</time><name>PT3670</name></trkpt>
<trkpt lat="53.108665" lon="-1.693477"><ele>332</ele><time>2020-10-28T11:14:28Z</time><name>PT3671</name></trkpt>
<trkpt lat="53.108670" lon="-1.693480"><ele>331</ele><time>2020-10-28T11:14:28Z</time><name>PT3672</name></trkpt>
<trkpt lat="53.108680" lon="-1.693486"><ele>331</ele><time>2020-10-28T11:14:30Z</time><name>PT3673</name></trkpt>
<trkpt lat="53.108684" lon="-1.693493"><ele>331</ele><time>2020-10-28T11:14:31Z</time><name>PT3674</name></trkpt>
<trkpt lat="53.108682" lon="-1.693495"><ele>332</ele><time>2020-10-28T11:14:31Z</time><name>PT3675</name></trkpt>
<trkpt lat="53.108681" lon="-1.693495"><ele>331</ele><time>2020-10-28T11:14:33Z</time><name>PT3676</name></trkpt>
<trkpt lat="53.108681" lon="-1.693495"><ele>331</ele><time>2020-10-28T11:14:34Z</time><name>PT3677</name></trkpt>
<trkpt lat="53.108685" lon="-1.693493"><ele>331</ele><time>2020-10-28T11:14:34Z</time><name>PT3678</name></trkpt>
<trkpt lat="53.108692" lon="-1.693497"><ele>331</ele><time>2020-10-28T11:14:36Z</time><name>PT3679</name></trkpt>
<trkpt lat="53.108697" lon="-1.693499"><ele>331</ele><time>2020-10-28T11:14:37Z</time><name>PT3680</name></trkpt>
<trkpt lat="53.108699" lon="-1.693500"><ele>331</ele><time>2020-10-28T11:14:37Z</time><name>PT3681</name></trkpt>
<trkpt lat="53.108699" lon="-1.693500"><ele>331</ele><time>2020-10-28T11:14:39Z</time><name>PT3682</name></trkpt>
<trkpt lat="53.108692" lon="-1.693500"><ele>332</ele><time>2020-10-28T11:14:40Z</time><name>PT3683</name></trkpt>
<trkpt lat="53.108681" lon="-1.693495"><ele>332</ele><time>2020-10-28T11:14:40Z</time><name>PT3684</name></trkpt>
<trkpt lat="53.108670" lon="-1.693489"><ele>332</ele><time>2020-10-28T11:14:42Z</time><name>PT3685</name></trkpt>
<trkpt lat="53.108659" lon="-1.693484"><ele>332</ele><time>2020-10-28T11:14:43Z</time><name>PT3686</name></trkpt>
<trkpt lat="53.108651" lon="-1.693476"><ele>332</ele><time>2020-10-28T11:14:43Z</time><name>PT3687</name></trkpt>
<trkpt lat="53.108644" lon="-1.693468"><ele>332</ele><time>2020-10-28T11:14:45Z</time><name>PT3688</name></trkpt>
<trkpt lat="53.108633" lon="-1.693464"><ele>332</ele><time>2020-10-28T11:14:46Z</time><name>PT3689</name></trkpt>
<trkpt lat="53.108622" lon="-1.693459"><ele>332</ele><time>2020-10-28T11:14:46Z</time><name>PT3690</name></trkpt>
<trkpt lat="53.108614" lon="-1.693455"><ele>332</ele><time>2020-10-28T11:14:48Z</time><name>PT3691</name></trkpt>
<trkpt lat="53.108603" lon="-1.693448"><ele>331</ele><time>2020-10-28T11:14:49Z</time><name>PT3692</name></trkpt>
<trkpt lat="53.108591" lon="-1.693439"><ele>331</ele><time>2020-10-28T11:14:49Z</time><name>PT3693</name></trkpt>
<trkpt lat="53.108580" lon="-1.693435"><ele>331</ele><time>2020-10-28T11:14:51Z</time><name>PT3694</name></trkpt>
<trkpt lat="53.108562" lon="-1.693430"><ele>332</ele><time>2020-10-28T11:14:52Z</time><name>PT3695</name></trkpt>
<trkpt lat="53.108548" lon="-1.693423"><ele>332</ele><time>2020-10-28T11:14:52Z</time><name>PT3696</name></trkpt>
<trkpt lat="53.108535" lon="-1.693414"><ele>332</ele><time>2020-10-28T11:14:54Z</time><name>PT3697</name></trkpt>
<trkpt lat="53.108523" lon="-1.693407"><ele>332</ele><time>2020-10-28T11:14:55Z</time><name>PT3698</name></trkpt>
<trkpt lat="53.108511" lon="-1.693404"><ele>332</ele><time>2020-10-28T11:14:55Z</time><name>PT3699</name></trkpt>
<trkpt lat="53.108500" lon="-1.693400"><ele>332</ele><time>2020-10-28T11:14:57Z</time><name>PT3700</name></trkpt>
<trkpt lat="53.108489" lon="-1.693394"><ele>332</ele><time>2020-10-28T11:14:58Z</time><name>PT3701</name></trkpt>
<trkpt lat="53.108479" lon="-1.693393"><ele>332</ele><time>2020-10-28T11:14:58Z</time><name>PT3702</name></trkpt>
<trkpt lat="53.108468" lon="-1.693393"><ele>332</ele><time>2020-10-28T11:15:00Z</time><name>PT3703</name></trkpt>
<trkpt lat="53.108457" lon="-1.693389"><ele>332</ele><time>2020-10-28T11:15:01Z</time><name>PT3704</name></trkpt>
<trkpt lat="53.108445" lon="-1.693380"><ele>332</ele><time>2020-10-28T11:15:01Z</time><name>PT3705</name></trkpt>
<trkpt lat="53.108433" lon="-1.693375"><ele>332</ele><time>2020-10-28T11:15:03Z</time><name>PT3706</name></trkpt>
<trkpt lat="53.108420" lon="-1.693366"><ele>332</ele><time>2020-10-28T11:15:04Z</time><name>PT3707</name></trkpt>
<trkpt lat="53.108407" lon="-1.693359"><ele>332</ele><time>2020-10-28T11:15:04Z</time><name>PT3708</name></trkpt>
<trkpt lat="53.108395" lon="-1.693352"><ele>332</ele><time>2020-10-28T11:15:06Z</time><name>PT3709</name></trkpt>
<trkpt lat="53.108384" lon="-1.693346"><ele>332</ele><time>2020-10-28T11:15:07Z</time><name>PT3710</name></trkpt>
<trkpt lat="53.108371" lon="-1.693340"><ele>332</ele><time>2020-10-28T11:15:07Z</time><name>PT3711</name></trkpt>
<trkpt lat="53.108357" lon="-1.693331"><ele>332</ele><time>2020-10-28T11:15:09Z</time><name>PT3712</name></trkpt>
<trkpt lat="53.108343" lon="-1.693324"><ele>332</ele><time>2020-10-28T11:15:10Z</time><name>PT3713</name></trkpt>
<trkpt lat="53.108330" lon="-1.693323"><ele>332</ele><time>2020-10-28T11:15:10Z</time><name>PT3714</name></trkpt>
<trkpt lat="53.108319" lon="-1.693324"><ele>332</ele><time>2020-10-28T11:15:12Z</time><name>PT3715</name></trkpt>
<trkpt lat="53.108308" lon="-1.693324"><ele>332</ele><time>2020-10-28T11:15:13Z</time><name>PT3716</name></trkpt>
<trkpt lat="53.108298" lon="-1.693326"><ele>332</ele><time>2020-10-28T11:15:13Z</time><name>PT3717</name></trkpt>
<trkpt lat="53.108286" lon="-1.693329"><ele>332</ele><time>2020-10-28T11:15:15Z</time><name>PT3718</name></trkpt>
<trkpt lat="53.108280" lon="-1.693328"><ele>332</ele><time>2020-10-28T11:15:16Z</time><name>PT3719</name></trkpt>
<trkpt lat="53.108280" lon="-1.693325"><ele>332</ele><time>2020-10-28T11:15:16Z</time><name>PT3720</name></trkpt>
<trkpt lat="53.108282" lon="-1.693323"><ele>332</ele><time>2020-10-28T11:15:18Z</time><name>PT3721</name></trkpt>
<trkpt lat="53.108288" lon="-1.693322"><ele>331</ele><time>2020-10-28T11:15:19Z</time><name>PT3722</name></trkpt>
<trkpt lat="53.108295" lon="-1.693320"><ele>331</ele><time>2020-10-28T11:15:19Z</time><name>PT3723</name></trkpt>
<trkpt lat="53.108299" lon="-1.693318"><ele>332</ele><time>2020-10-28T11:15:21Z</time><name>PT3724</name></trkpt>
<trkpt lat="53.108299" lon="-1.693318"><ele>332</ele><time>2020-10-28T11:15:22Z</time><name>PT3725</name></trkpt>
<trkpt lat="53.108299" lon="-1.693319"><ele>332</ele><time>2020-10-28T11:15:24Z</time><name>PT3726</name></trkpt>
<trkpt lat="53.108296" lon="-1.693325"><ele>332</ele><time>2020-10-28T11:15:25Z</time><name>PT3727</name></trkpt>
<trkpt lat="53.108293" lon="-1.693326"><ele>332</ele><time>2020-10-28T11:15:27Z</time><name>PT3728</name></trkpt>
<trkpt lat="53.108293" lon="-1.693322"><ele>331</ele><time>2020-10-28T11:15:28Z</time><name>PT3729</name></trkpt>
<trkpt lat="53.108296" lon="-1.693323"><ele>331</ele><time>2020-10-28T11:15:28Z</time><name>PT3730</name></trkpt>
<trkpt lat="53.108301" lon="-1.693325"><ele>331</ele><time>2020-10-28T11:15:30Z</time><name>PT3731</name></trkpt>
<trkpt lat="53.108310" lon="-1.693328"><ele>331</ele><time>2020-10-28T11:15:31Z</time><name>PT3732</name></trkpt>
<trkpt lat="53.108320" lon="-1.693332"><ele>331</ele><time>2020-10-28T11:15:31Z</time><name>PT3733</name></trkpt>
<trkpt lat="53.108332" lon="-1.693337"><ele>331</ele><time>2020-10-28T11:15:33Z</time><name>PT3734</name></trkpt>
<trkpt lat="53.108342" lon="-1.693338"><ele>331</ele><time>2020-10-28T11:15:34Z</time><name>PT3735</name></trkpt>
<trkpt lat="53.108350" lon="-1.693343"><ele>332</ele><time>2020-10-28T11:15:34Z</time><name>PT3736</name></trkpt>
<trkpt lat="53.108357" lon="-1.693352"><ele>332</ele><time>2020-10-28T11:15:36Z</time><name>PT3737</name></trkpt>
<trkpt lat="53.108366" lon="-1.693363"><ele>331</ele><time>2020-10-28T11:15:37Z</time><name>PT3738</name></trkpt>
<trkpt lat="53.108375" lon="-1.693368"><ele>331</ele><time>2020-10-28T11:15:37Z</time><name>PT3739</name></trkpt>
<trkpt lat="53.108386" lon="-1.693376"><ele>330</ele><time>2020-10-28T11:15:39Z</time><name>PT3740</name></trkpt>
<trkpt lat="53.108393" lon="-1.693380"><ele>330</ele><time>2020-10-28T11:15:40Z</time><name>PT3741</name></trkpt>
<trkpt lat="53.108406" lon="-1.693382"><ele>330</ele><time>2020-10-28T11:15:40Z</time><name>PT3742</name></trkpt>
<trkpt lat="53.108418" lon="-1.693386"><ele>330</ele><time>2020-10-28T11:15:42Z</time><name>PT3743</name></trkpt>
<trkpt lat="53.108430" lon="-1.693390"><ele>330</ele><time>2020-10-28T11:15:43Z</time><name>PT3744</name></trkpt>
<trkpt lat="53.108441" lon="-1.693397"><ele>330</ele><time>2020-10-28T11:15:44Z</time><name>PT3745</name></trkpt>
<trkpt lat="53.108454" lon="-1.693398"><ele>330</ele><time>2020-10-28T11:15:45Z</time><name>PT3746</name></trkpt>
<trkpt lat="53.108465" lon="-1.693403"><ele>330</ele><time>2020-10-28T11:15:46Z</time><name>PT3747</name></trkpt>
<trkpt lat="53.108475" lon="-1.693412"><ele>330</ele><time>2020-10-28T11:15:46Z</time><name>PT3748</name></trkpt>
<trkpt lat="53.108485" lon="-1.693419"><ele>329</ele><time>2020-10-28T11:15:48Z</time><name>PT3749</name></trkpt>
<trkpt lat="53.108498" lon="-1.693428"><ele>329</ele><time>2020-10-28T11:15:49Z</time><name>PT3750</name></trkpt>
<trkpt lat="53.108511" lon="-1.693429"><ele>328</ele><time>2020-10-28T11:15:49Z</time><name>PT3751</name></trkpt>
<trkpt lat="53.108525" lon="-1.693434"><ele>329</ele><time>2020-10-28T11:15:51Z</time><name>PT3752</name></trkpt>
<trkpt lat="53.108537" lon="-1.693437"><ele>328</ele><time>2020-10-28T11:15:52Z</time><name>PT3753</name></trkpt>
<trkpt lat="53.108551" lon="-1.693445"><ele>328</ele><time>2020-10-28T11:15:52Z</time><name>PT3754</name></trkpt>
<trkpt lat="53.108566" lon="-1.693453"><ele>328</ele><time>2020-10-28T11:15:54Z</time><name>PT3755</name></trkpt>
<trkpt lat="53.108579" lon="-1.693456"><ele>328</ele><time>2020-10-28T11:15:55Z</time><name>PT3756</name></trkpt>
<trkpt lat="53.108593" lon="-1.693457"><ele>329</ele><time>2020-10-28T11:15:55Z</time><name>PT3757</name></trkpt>
<trkpt lat="53.108604" lon="-1.693461"><ele>329</ele><time>2020-10-28T11:15:57Z</time><name>PT3758</name></trkpt>
<trkpt lat="53.108615" lon="-1.693467"><ele>329</ele><time>2020-10-28T11:15:58Z</time><name>PT3759</name></trkpt>
<trkpt lat="53.108627" lon="-1.693474"><ele>329</ele><time>2020-10-28T11:15:58Z</time><name>PT3760</name></trkpt>
<trkpt lat="53.108639" lon="-1.693480"><ele>328</ele><time>2020-10-28T11:16:00Z</time><name>PT3761</name></trkpt>
<trkpt lat="53.108652" lon="-1.693486"><ele>328</ele><time>2020-10-28T11:16:01Z</time><name>PT3762</name></trkpt>
<trkpt lat="53.108662" lon="-1.693491"><ele>328</ele><time>2020-10-28T11:16:01Z</time><name>PT3763</name></trkpt>
<trkpt lat="53.108674" lon="-1.693498"><ele>327</ele><time>2020-10-28T11:16:03Z</time><name>PT3764</name></trkpt>
<trkpt lat="53.108687" lon="-1.693506"><ele>328</ele><time>2020-10-28T11:16:04Z</time><name>PT3765</name></trkpt>
<trkpt lat="53.108700" lon="-1.693516"><ele>328</ele><time>2020-10-28T11:16:04Z</time><name>PT3766</name></trkpt>
<trkpt lat="53.108713" lon="-1.693523"><ele>327</ele><time>2020-10-28T11:16:06Z</time><name>PT3767</name></trkpt>
<trkpt lat="53.108724" lon="-1.693527"><ele>328</ele><time>2020-10-28T11:16:07Z</time><name>PT3768</name></trkpt>
<trkpt lat="53.108735" lon="-1.693533"><ele>327</ele><time>2020-10-28T11:16:07Z</time><name>PT3769</name></trkpt>
<trkpt lat="53.108745" lon="-1.693535"><ele>328</ele><time>2020-10-28T11:16:09Z</time><name>PT3770</name></trkpt>
<trkpt lat="53.108756" lon="-1.693536"><ele>327</ele><time>2020-10-28T11:16:10Z</time><name>PT3771</name></trkpt>
<trkpt lat="53.108766" lon="-1.693536"><ele>328</ele><time>2020-10-28T11:16:10Z</time><name>PT3772</name></trkpt>
<trkpt lat="53.108774" lon="-1.693537"><ele>327</ele><time>2020-10-28T11:16:12Z</time><name>PT3773</name></trkpt>
<trkpt lat="53.108778" lon="-1.693534"><ele>327</ele><time>2020-10-28T11:16:13Z</time><name>PT3774</name></trkpt>
<trkpt lat="53.108783" lon="-1.693528"><ele>327</ele><time>2020-10-28T11:16:13Z</time><name>PT3775</name></trkpt>
<trkpt lat="53.108790" lon="-1.693524"><ele>327</ele><time>2020-10-28T11:16:15Z</time><name>PT3776</name></trkpt>
<trkpt lat="53.108792" lon="-1.693519"><ele>326</ele><time>2020-10-28T11:16:16Z</time><name>PT3777</name></trkpt>
<trkpt lat="53.108794" lon="-1.693511"><ele>327</ele><time>2020-10-28T11:16:16Z</time><name>PT3778</name></trkpt>
<trkpt lat="53.108795" lon="-1.693505"><ele>327</ele><time>2020-10-28T11:16:18Z</time><name>PT3779</name></trkpt>
<trkpt lat="53.108797" lon="-1.693504"><ele>327</ele><time>2020-10-28T11:16:19Z</time><name>PT3780</name></trkpt>
<trkpt lat="53.108797" lon="-1.693504"><ele>327</ele><time>2020-10-28T11:16:19Z</time><name>PT3781</name></trkpt>
<trkpt lat="53.108796" lon="-1.693504"><ele>326</ele><time>2020-10-28T11:16:21Z</time><name>PT3782</name></trkpt>
<trkpt lat="53.108798" lon="-1.693504"><ele>327</ele><time>2020-10-28T11:16:22Z</time><name>PT3783</name></trkpt>
<trkpt lat="53.108799" lon="-1.693504"><ele>327</ele><time>2020-10-28T11:16:23Z</time><name>PT3784</name></trkpt>
<trkpt lat="53.108800" lon="-1.693505"><ele>327</ele><time>2020-10-28T11:16:24Z</time><name>PT3785</name></trkpt>
<trkpt lat="53.108795" lon="-1.693487"><ele>327</ele><time>2020-10-28T11:17:01Z</time><name>PT3786</name></trkpt>
<trkpt lat="53.108798" lon="-1.693489"><ele>328</ele><time>2020-10-28T11:17:03Z</time><name>PT3787</name></trkpt>
<trkpt lat="53.108799" lon="-1.693480"><ele>327</ele><time>2020-10-28T11:17:04Z</time><name>PT3788</name></trkpt>
<trkpt lat="53.108802" lon="-1.693464"><ele>327</ele><time>2020-10-28T11:17:04Z</time><name>PT3789</name></trkpt>
<trkpt lat="53.108809" lon="-1.693456"><ele>327</ele><time>2020-10-28T11:17:06Z</time><name>PT3790</name></trkpt>
<trkpt lat="53.108817" lon="-1.693442"><ele>327</ele><time>2020-10-28T11:17:07Z</time><name>PT3791</name></trkpt>
<trkpt lat="53.108827" lon="-1.693426"><ele>328</ele><time>2020-10-28T11:17:07Z</time><name>PT3792</name></trkpt>
<trkpt lat="53.108835" lon="-1.693407"><ele>328</ele><time>2020-10-28T11:17:09Z</time><name>PT3793</name></trkpt>
<trkpt lat="53.108847" lon="-1.693384"><ele>327</ele><time>2020-10-28T11:17:10Z</time><name>PT3794</name></trkpt>
<trkpt lat="53.108860" lon="-1.693359"><ele>328</ele><time>2020-10-28T11:17:10Z</time><name>PT3795</name></trkpt>
<trkpt lat="53.108863" lon="-1.693346"><ele>330</ele><time>2020-10-28T11:17:12Z</time><name>PT3796</name></trkpt>
<trkpt lat="53.108868" lon="-1.693331"><ele>330</ele><time>2020-10-28T11:17:13Z</time><name>PT3797</name></trkpt>
<trkpt lat="53.108870" lon="-1.693313"><ele>330</ele><time>2020-10-28T11:17:13Z</time><name>PT3798</name></trkpt>
<trkpt lat="53.108876" lon="-1.693286"><ele>330</ele><time>2020-10-28T11:17:15Z</time><name>PT3799</name></trkpt>
<trkpt lat="53.108882" lon="-1.693267"><ele>330</ele><time>2020-10-28T11:17:16Z</time><name>PT3800</name></trkpt>
<trkpt lat="53.108890" lon="-1.693251"><ele>330</ele><time>2020-10-28T11:17:16Z</time><name>PT3801</name></trkpt>
<trkpt lat="53.108896" lon="-1.693236"><ele>330</ele><time>2020-10-28T11:17:18Z</time><name>PT3802</name></trkpt>
<trkpt lat="53.108902" lon="-1.693218"><ele>330</ele><time>2020-10-28T11:17:19Z</time><name>PT3803</name></trkpt>
<trkpt lat="53.108908" lon="-1.693203"><ele>330</ele><time>2020-10-28T11:17:19Z</time><name>PT3804</name></trkpt>
<trkpt lat="53.108913" lon="-1.693185"><ele>331</ele><time>2020-10-28T11:17:21Z</time><name>PT3805</name></trkpt>
<trkpt lat="53.108919" lon="-1.693170"><ele>331</ele><time>2020-10-28T11:17:22Z</time><name>PT3806</name></trkpt>
<trkpt lat="53.108925" lon="-1.693153"><ele>331</ele><time>2020-10-28T11:17:22Z</time><name>PT3807</name></trkpt>
<trkpt lat="53.108953" lon="-1.693087"><ele>331</ele><time>2020-10-28T11:17:27Z</time><name>PT3808</name></trkpt>
<trkpt lat="53.108977" lon="-1.693018"><ele>331</ele><time>2020-10-28T11:17:31Z</time><name>PT3809</name></trkpt>
<trkpt lat="53.108984" lon="-1.693002"><ele>331</ele><time>2020-10-28T11:17:31Z</time><name>PT3810</name></trkpt>
<trkpt lat="53.108991" lon="-1.692986"><ele>331</ele><time>2020-10-28T11:17:33Z</time><name>PT3811</name></trkpt>
<trkpt lat="53.108997" lon="-1.692968"><ele>331</ele><time>2020-10-28T11:17:34Z</time><name>PT3812</name></trkpt>
<trkpt lat="53.109004" lon="-1.692952"><ele>331</ele><time>2020-10-28T11:17:34Z</time><name>PT3813</name></trkpt>
<trkpt lat="53.109010" lon="-1.692933"><ele>331</ele><time>2020-10-28T11:17:36Z</time><name>PT3814</name></trkpt>
<trkpt lat="53.109016" lon="-1.692917"><ele>331</ele><time>2020-10-28T11:17:37Z</time><name>PT3815</name></trkpt>
<trkpt lat="53.109021" lon="-1.692900"><ele>332</ele><time>2020-10-28T11:17:37Z</time><name>PT3816</name></trkpt>
<trkpt lat="53.109028" lon="-1.692886"><ele>331</ele><time>2020-10-28T11:17:39Z</time><name>PT3817</name></trkpt>
<trkpt lat="53.109036" lon="-1.692871"><ele>331</ele><time>2020-10-28T11:17:40Z</time><name>PT3818</name></trkpt>
<trkpt lat="53.109043" lon="-1.692856"><ele>331</ele><time>2020-10-28T11:17:40Z</time><name>PT3819</name></trkpt>
<trkpt lat="53.109052" lon="-1.692841"><ele>332</ele><time>2020-10-28T11:17:42Z</time><name>PT3820</name></trkpt>
<trkpt lat="53.109060" lon="-1.692828"><ele>331</ele><time>2020-10-28T11:17:43Z</time><name>PT3821</name></trkpt>
<trkpt lat="53.109068" lon="-1.692812"><ele>332</ele><time>2020-10-28T11:17:43Z</time><name>PT3822</name></trkpt>
<trkpt lat="53.109075" lon="-1.692796"><ele>332</ele><time>2020-10-28T11:17:45Z</time><name>PT3823</name></trkpt>
<trkpt lat="53.109084" lon="-1.692781"><ele>332</ele><time>2020-10-28T11:17:46Z</time><name>PT3824</name></trkpt>
<trkpt lat="53.109093" lon="-1.692768"><ele>332</ele><time>2020-10-28T11:17:46Z</time><name>PT3825</name></trkpt>
<trkpt lat="53.109101" lon="-1.692753"><ele>332</ele><time>2020-10-28T11:17:48Z</time><name>PT3826</name></trkpt>
<trkpt lat="53.109108" lon="-1.692736"><ele>332</ele><time>2020-10-28T11:17:49Z</time><name>PT3827</name></trkpt>
<trkpt lat="53.109115" lon="-1.692719"><ele>332</ele><time>2020-10-28T11:17:49Z</time><name>PT3828</name></trkpt>
<trkpt lat="53.109124" lon="-1.692702"><ele>332</ele><time>2020-10-28T11:17:51Z</time><name>PT3829</name></trkpt>
<trkpt lat="53.109132" lon="-1.692688"><ele>332</ele><time>2020-10-28T11:17:52Z</time><name>PT3830</name></trkpt>
<trkpt lat="53.109139" lon="-1.692673"><ele>332</ele><time>2020-10-28T11:17:52Z</time><name>PT3831</name></trkpt>
<trkpt lat="53.109146" lon="-1.692656"><ele>332</ele><time>2020-10-28T11:17:54Z</time><name>PT3832</name></trkpt>
<trkpt lat="53.109154" lon="-1.692641"><ele>332</ele><time>2020-10-28T11:17:55Z</time><name>PT3833</name></trkpt>
<trkpt lat="53.109162" lon="-1.692626"><ele>332</ele><time>2020-10-28T11:17:55Z</time><name>PT3834</name></trkpt>
<trkpt lat="53.109169" lon="-1.692610"><ele>332</ele><time>2020-10-28T11:17:57Z</time><name>PT3835</name></trkpt>
<trkpt lat="53.109176" lon="-1.692593"><ele>332</ele><time>2020-10-28T11:17:58Z</time><name>PT3836</name></trkpt>
<trkpt lat="53.109185" lon="-1.692577"><ele>332</ele><time>2020-10-28T11:17:58Z</time><name>PT3837</name></trkpt>
<trkpt lat="53.109193" lon="-1.692564"><ele>332</ele><time>2020-10-28T11:18:00Z</time><name>PT3838</name></trkpt>
<trkpt lat="53.109200" lon="-1.692552"><ele>332</ele><time>2020-10-28T11:18:01Z</time><name>PT3839</name></trkpt>
<trkpt lat="53.109208" lon="-1.692539"><ele>332</ele><time>2020-10-28T11:18:01Z</time><name>PT3840</name></trkpt>
<trkpt lat="53.109215" lon="-1.692523"><ele>332</ele><time>2020-10-28T11:18:03Z</time><name>PT3841</name></trkpt>
<trkpt lat="53.109219" lon="-1.692506"><ele>331</ele><time>2020-10-28T11:18:04Z</time><name>PT3842</name></trkpt>
<trkpt lat="53.109226" lon="-1.692490"><ele>332</ele><time>2020-10-28T11:18:04Z</time><name>PT3843</name></trkpt>
<trkpt lat="53.109231" lon="-1.692472"><ele>331</ele><time>2020-10-28T11:18:06Z</time><name>PT3844</name></trkpt>
<trkpt lat="53.109236" lon="-1.692455"><ele>331</ele><time>2020-10-28T11:18:07Z</time><name>PT3845</name></trkpt>
<trkpt lat="53.109241" lon="-1.692440"><ele>331</ele><time>2020-10-28T11:18:07Z</time><name>PT3846</name></trkpt>
<trkpt lat="53.109243" lon="-1.692423"><ele>331</ele><time>2020-10-28T11:18:09Z</time><name>PT3847</name></trkpt>
<trkpt lat="53.109246" lon="-1.692411"><ele>331</ele><time>2020-10-28T11:18:10Z</time><name>PT3848</name></trkpt>
<trkpt lat="53.109252" lon="-1.692397"><ele>331</ele><time>2020-10-28T11:18:10Z</time><name>PT3849</name></trkpt>
<trkpt lat="53.109259" lon="-1.692383"><ele>331</ele><time>2020-10-28T11:18:12Z</time><name>PT3850</name></trkpt>
<trkpt lat="53.109265" lon="-1.692366"><ele>331</ele><time>2020-10-28T11:18:13Z</time><name>PT3851</name></trkpt>
<trkpt lat="53.109271" lon="-1.692345"><ele>331</ele><time>2020-10-28T11:18:13Z</time><name>PT3852</name></trkpt>
<trkpt lat="53.109277" lon="-1.692326"><ele>331</ele><time>2020-10-28T11:18:15Z</time><name>PT3853</name></trkpt>
<trkpt lat="53.109284" lon="-1.692308"><ele>331</ele><time>2020-10-28T11:18:16Z</time><name>PT3854</name></trkpt>
<trkpt lat="53.109291" lon="-1.692291"><ele>331</ele><time>2020-10-28T11:18:16Z</time><name>PT3855</name></trkpt>
<trkpt lat="53.109296" lon="-1.692273"><ele>331</ele><time>2020-10-28T11:18:18Z</time><name>PT3856</name></trkpt>
<trkpt lat="53.109303" lon="-1.692254"><ele>331</ele><time>2020-10-28T11:18:19Z</time><name>PT3857</name></trkpt>
<trkpt lat="53.109316" lon="-1.692228"><ele>331</ele><time>2020-10-28T11:18:19Z</time><name>PT3858</name></trkpt>
<trkpt lat="53.109324" lon="-1.692205"><ele>331</ele><time>2020-10-28T11:18:21Z</time><name>PT3859</name></trkpt>
<trkpt lat="53.109326" lon="-1.692191"><ele>330</ele><time>2020-10-28T11:18:22Z</time><name>PT3860</name></trkpt>
<trkpt lat="53.109331" lon="-1.692180"><ele>330</ele><time>2020-10-28T11:18:22Z</time><name>PT3861</name></trkpt>
<trkpt lat="53.109342" lon="-1.692156"><ele>331</ele><time>2020-10-28T11:18:24Z</time><name>PT3862</name></trkpt>
<trkpt lat="53.109352" lon="-1.692133"><ele>331</ele><time>2020-10-28T11:18:25Z</time><name>PT3863</name></trkpt>
<trkpt lat="53.109358" lon="-1.692118"><ele>331</ele><time>2020-10-28T11:18:26Z</time><name>PT3864</name></trkpt>
<trkpt lat="53.109366" lon="-1.692101"><ele>331</ele><time>2020-10-28T11:18:27Z</time><name>PT3865</name></trkpt>
<trkpt lat="53.109371" lon="-1.692083"><ele>332</ele><time>2020-10-28T11:18:28Z</time><name>PT3866</name></trkpt>
<trkpt lat="53.109376" lon="-1.692065"><ele>332</ele><time>2020-10-28T11:18:28Z</time><name>PT3867</name></trkpt>
<trkpt lat="53.109376" lon="-1.692047"><ele>331</ele><time>2020-10-28T11:18:30Z</time><name>PT3868</name></trkpt>
<trkpt lat="53.109379" lon="-1.692034"><ele>331</ele><time>2020-10-28T11:18:31Z</time><name>PT3869</name></trkpt>
<trkpt lat="53.109387" lon="-1.692019"><ele>331</ele><time>2020-10-28T11:18:31Z</time><name>PT3870</name></trkpt>
<trkpt lat="53.109399" lon="-1.691996"><ele>332</ele><time>2020-10-28T11:18:33Z</time><name>PT3871</name></trkpt>
<trkpt lat="53.109408" lon="-1.691976"><ele>332</ele><time>2020-10-28T11:18:34Z</time><name>PT3872</name></trkpt>
<trkpt lat="53.109413" lon="-1.691964"><ele>332</ele><time>2020-10-28T11:18:34Z</time><name>PT3873</name></trkpt>
<trkpt lat="53.109418" lon="-1.691950"><ele>332</ele><time>2020-10-28T11:18:36Z</time><name>PT3874</name></trkpt>
<trkpt lat="53.109428" lon="-1.691926"><ele>332</ele><time>2020-10-28T11:18:37Z</time><name>PT3875</name></trkpt>
<trkpt lat="53.109436" lon="-1.691904"><ele>332</ele><time>2020-10-28T11:18:37Z</time><name>PT3876</name></trkpt>
<trkpt lat="53.109440" lon="-1.691889"><ele>332</ele><time>2020-10-28T11:18:39Z</time><name>PT3877</name></trkpt>
<trkpt lat="53.109443" lon="-1.691879"><ele>332</ele><time>2020-10-28T11:18:40Z</time><name>PT3878</name></trkpt>
<trkpt lat="53.109450" lon="-1.691860"><ele>332</ele><time>2020-10-28T11:18:40Z</time><name>PT3879</name></trkpt>
<trkpt lat="53.109461" lon="-1.691833"><ele>333</ele><time>2020-10-28T11:18:42Z</time><name>PT3880</name></trkpt>
<trkpt lat="53.109469" lon="-1.691809"><ele>333</ele><time>2020-10-28T11:18:43Z</time><name>PT3881</name></trkpt>
<trkpt lat="53.109474" lon="-1.691791"><ele>333</ele><time>2020-10-28T11:18:43Z</time><name>PT3882</name></trkpt>
<trkpt lat="53.109478" lon="-1.691779"><ele>333</ele><time>2020-10-28T11:18:45Z</time><name>PT3883</name></trkpt>
<trkpt lat="53.109484" lon="-1.691757"><ele>333</ele><time>2020-10-28T11:18:46Z</time><name>PT3884</name></trkpt>
<trkpt lat="53.109490" lon="-1.691729"><ele>333</ele><time>2020-10-28T11:18:46Z</time><name>PT3885</name></trkpt>
<trkpt lat="53.109495" lon="-1.691707"><ele>332</ele><time>2020-10-28T11:18:48Z</time><name>PT3886</name></trkpt>
<trkpt lat="53.109502" lon="-1.691697"><ele>333</ele><time>2020-10-28T11:18:49Z</time><name>PT3887</name></trkpt>
<trkpt lat="53.109508" lon="-1.691681"><ele>332</ele><time>2020-10-28T11:18:49Z</time><name>PT3888</name></trkpt>
<trkpt lat="53.109518" lon="-1.691661"><ele>334</ele><time>2020-10-28T11:18:51Z</time><name>PT3889</name></trkpt>
<trkpt lat="53.109521" lon="-1.691639"><ele>334</ele><time>2020-10-28T11:18:52Z</time><name>PT3890</name></trkpt>
<trkpt lat="53.109523" lon="-1.691624"><ele>334</ele><time>2020-10-28T11:18:52Z</time><name>PT3891</name></trkpt>
<trkpt lat="53.109528" lon="-1.691614"><ele>334</ele><time>2020-10-28T11:18:54Z</time><name>PT3892</name></trkpt>
<trkpt lat="53.109533" lon="-1.691592"><ele>335</ele><time>2020-10-28T11:18:55Z</time><name>PT3893</name></trkpt>
<trkpt lat="53.109538" lon="-1.691565"><ele>335</ele><time>2020-10-28T11:18:55Z</time><name>PT3894</name></trkpt>
<trkpt lat="53.109538" lon="-1.691541"><ele>334</ele><time>2020-10-28T11:18:57Z</time><name>PT3895</name></trkpt>
<trkpt lat="53.109542" lon="-1.691529"><ele>334</ele><time>2020-10-28T11:18:58Z</time><name>PT3896</name></trkpt>
<trkpt lat="53.109547" lon="-1.691511"><ele>334</ele><time>2020-10-28T11:18:58Z</time><name>PT3897</name></trkpt>
<trkpt lat="53.109555" lon="-1.691485"><ele>334</ele><time>2020-10-28T11:19:00Z</time><name>PT3898</name></trkpt>
<trkpt lat="53.109561" lon="-1.691464"><ele>334</ele><time>2020-10-28T11:19:01Z</time><name>PT3899</name></trkpt>
<trkpt lat="53.109565" lon="-1.691451"><ele>334</ele><time>2020-10-28T11:19:01Z</time><name>PT3900</name></trkpt>
<trkpt lat="53.109567" lon="-1.691437"><ele>333</ele><time>2020-10-28T11:19:03Z</time><name>PT3901</name></trkpt>
<trkpt lat="53.109575" lon="-1.691415"><ele>334</ele><time>2020-10-28T11:19:04Z</time><name>PT3902</name></trkpt>
<trkpt lat="53.109584" lon="-1.691393"><ele>334</ele><time>2020-10-28T11:19:04Z</time><name>PT3903</name></trkpt>
<trkpt lat="53.109588" lon="-1.691377"><ele>333</ele><time>2020-10-28T11:19:06Z</time><name>PT3904</name></trkpt>
<trkpt lat="53.109592" lon="-1.691368"><ele>334</ele><time>2020-10-28T11:19:07Z</time><name>PT3905</name></trkpt>
<trkpt lat="53.109596" lon="-1.691348"><ele>334</ele><time>2020-10-28T11:19:07Z</time><name>PT3906</name></trkpt>
<trkpt lat="53.109601" lon="-1.691323"><ele>334</ele><time>2020-10-28T11:19:09Z</time><name>PT3907</name></trkpt>
<trkpt lat="53.109605" lon="-1.691304"><ele>334</ele><time>2020-10-28T11:19:10Z</time><name>PT3908</name></trkpt>
<trkpt lat="53.109606" lon="-1.691291"><ele>334</ele><time>2020-10-28T11:19:10Z</time><name>PT3909</name></trkpt>
<trkpt lat="53.109601" lon="-1.691270"><ele>335</ele><time>2020-10-28T11:19:12Z</time><name>PT3910</name></trkpt>
<trkpt lat="53.109595" lon="-1.691252"><ele>335</ele><time>2020-10-28T11:19:13Z</time><name>PT3911</name></trkpt>
<trkpt lat="53.109592" lon="-1.691234"><ele>335</ele><time>2020-10-28T11:19:13Z</time><name>PT3912</name></trkpt>
<trkpt lat="53.109592" lon="-1.691221"><ele>335</ele><time>2020-10-28T11:19:15Z</time><name>PT3913</name></trkpt>
<trkpt lat="53.109589" lon="-1.691203"><ele>335</ele><time>2020-10-28T11:19:16Z</time><name>PT3914</name></trkpt>
<trkpt lat="53.109586" lon="-1.691182"><ele>335</ele><time>2020-10-28T11:19:16Z</time><name>PT3915</name></trkpt>
<trkpt lat="53.109582" lon="-1.691159"><ele>335</ele><time>2020-10-28T11:19:18Z</time><name>PT3916</name></trkpt>
<trkpt lat="53.109578" lon="-1.691140"><ele>335</ele><time>2020-10-28T11:19:19Z</time><name>PT3917</name></trkpt>
<trkpt lat="53.109574" lon="-1.691122"><ele>335</ele><time>2020-10-28T11:19:19Z</time><name>PT3918</name></trkpt>
<trkpt lat="53.109573" lon="-1.691104"><ele>334</ele><time>2020-10-28T11:19:21Z</time><name>PT3919</name></trkpt>
<trkpt lat="53.109572" lon="-1.691089"><ele>334</ele><time>2020-10-28T11:19:22Z</time><name>PT3920</name></trkpt>
<trkpt lat="53.109568" lon="-1.691073"><ele>334</ele><time>2020-10-28T11:19:23Z</time><name>PT3921</name></trkpt>
<trkpt lat="53.109562" lon="-1.691057"><ele>334</ele><time>2020-10-28T11:19:24Z</time><name>PT3922</name></trkpt>
<trkpt lat="53.109558" lon="-1.691039"><ele>334</ele><time>2020-10-28T11:19:25Z</time><name>PT3923</name></trkpt>
<trkpt lat="53.109555" lon="-1.691026"><ele>334</ele><time>2020-10-28T11:19:26Z</time><name>PT3924</name></trkpt>
<trkpt lat="53.109555" lon="-1.691008"><ele>334</ele><time>2020-10-28T11:19:27Z</time><name>PT3925</name></trkpt>
<trkpt lat="53.109554" lon="-1.690990"><ele>333</ele><time>2020-10-28T11:19:28Z</time><name>PT3926</name></trkpt>
<trkpt lat="53.109550" lon="-1.690971"><ele>334</ele><time>2020-10-28T11:19:28Z</time><name>PT3927</name></trkpt>
<trkpt lat="53.109547" lon="-1.690954"><ele>333</ele><time>2020-10-28T11:19:30Z</time><name>PT3928</name></trkpt>
<trkpt lat="53.109543" lon="-1.690937"><ele>333</ele><time>2020-10-28T11:19:31Z</time><name>PT3929</name></trkpt>
<trkpt lat="53.109542" lon="-1.690920"><ele>333</ele><time>2020-10-28T11:19:31Z</time><name>PT3930</name></trkpt>
<trkpt lat="53.109536" lon="-1.690900"><ele>334</ele><time>2020-10-28T11:19:33Z</time><name>PT3931</name></trkpt>
<trkpt lat="53.109532" lon="-1.690882"><ele>334</ele><time>2020-10-28T11:19:34Z</time><name>PT3932</name></trkpt>
<trkpt lat="53.109528" lon="-1.690865"><ele>334</ele><time>2020-10-28T11:19:34Z</time><name>PT3933</name></trkpt>
<trkpt lat="53.109526" lon="-1.690845"><ele>334</ele><time>2020-10-28T11:19:36Z</time><name>PT3934</name></trkpt>
<trkpt lat="53.109523" lon="-1.690828"><ele>334</ele><time>2020-10-28T11:19:37Z</time><name>PT3935</name></trkpt>
<trkpt lat="53.109515" lon="-1.690813"><ele>334</ele><time>2020-10-28T11:19:38Z</time><name>PT3936</name></trkpt>
<trkpt lat="53.109512" lon="-1.690793"><ele>334</ele><time>2020-10-28T11:19:39Z</time><name>PT3937</name></trkpt>
<trkpt lat="53.109511" lon="-1.690775"><ele>334</ele><time>2020-10-28T11:19:40Z</time><name>PT3938</name></trkpt>
<trkpt lat="53.109508" lon="-1.690757"><ele>334</ele><time>2020-10-28T11:19:40Z</time><name>PT3939</name></trkpt>
<trkpt lat="53.109505" lon="-1.690736"><ele>334</ele><time>2020-10-28T11:19:42Z</time><name>PT3940</name></trkpt>
<trkpt lat="53.109499" lon="-1.690717"><ele>333</ele><time>2020-10-28T11:19:43Z</time><name>PT3941</name></trkpt>
<trkpt lat="53.109497" lon="-1.690701"><ele>334</ele><time>2020-10-28T11:19:43Z</time><name>PT3942</name></trkpt>
<trkpt lat="53.109495" lon="-1.690683"><ele>334</ele><time>2020-10-28T11:19:45Z</time><name>PT3943</name></trkpt>
<trkpt lat="53.109491" lon="-1.690666"><ele>333</ele><time>2020-10-28T11:19:46Z</time><name>PT3944</name></trkpt>
<trkpt lat="53.109489" lon="-1.690652"><ele>333</ele><time>2020-10-28T11:19:46Z</time><name>PT3945</name></trkpt>
<trkpt lat="53.109486" lon="-1.690637"><ele>333</ele><time>2020-10-28T11:19:48Z</time><name>PT3946</name></trkpt>
<trkpt lat="53.109484" lon="-1.690618"><ele>333</ele><time>2020-10-28T11:19:49Z</time><name>PT3947</name></trkpt>
<trkpt lat="53.109488" lon="-1.690604"><ele>335</ele><time>2020-10-28T11:19:49Z</time><name>PT3948</name></trkpt>
<trkpt lat="53.109485" lon="-1.690588"><ele>336</ele><time>2020-10-28T11:19:51Z</time><name>PT3949</name></trkpt>
<trkpt lat="53.109484" lon="-1.690580"><ele>337</ele><time>2020-10-28T11:19:52Z</time><name>PT3950</name></trkpt>
<trkpt lat="53.109486" lon="-1.690569"><ele>336</ele><time>2020-10-28T11:19:52Z</time><name>PT3951</name></trkpt>
<trkpt lat="53.109494" lon="-1.690564"><ele>336</ele><time>2020-10-28T11:19:54Z</time><name>PT3952</name></trkpt>
<trkpt lat="53.109502" lon="-1.690555"><ele>336</ele><time>2020-10-28T11:19:55Z</time><name>PT3953</name></trkpt>
<trkpt lat="53.109506" lon="-1.690557"><ele>336</ele><time>2020-10-28T11:19:55Z</time><name>PT3954</name></trkpt>
<trkpt lat="53.109509" lon="-1.690559"><ele>336</ele><time>2020-10-28T11:19:57Z</time><name>PT3955</name></trkpt>
<trkpt lat="53.109516" lon="-1.690553"><ele>335</ele><time>2020-10-28T11:19:58Z</time><name>PT3956</name></trkpt>
<trkpt lat="53.109522" lon="-1.690546"><ele>335</ele><time>2020-10-28T11:19:58Z</time><name>PT3957</name></trkpt>
<trkpt lat="53.109523" lon="-1.690535"><ele>335</ele><time>2020-10-28T11:20:00Z</time><name>PT3958</name></trkpt>
<trkpt lat="53.109525" lon="-1.690524"><ele>335</ele><time>2020-10-28T11:20:01Z</time><name>PT3959</name></trkpt>
<trkpt lat="53.109527" lon="-1.690519"><ele>334</ele><time>2020-10-28T11:20:01Z</time><name>PT3960</name></trkpt>
<trkpt lat="53.109529" lon="-1.690510"><ele>334</ele><time>2020-10-28T11:20:03Z</time><name>PT3961</name></trkpt>
<trkpt lat="53.109531" lon="-1.690501"><ele>334</ele><time>2020-10-28T11:20:04Z</time><name>PT3962</name></trkpt>
<trkpt lat="53.109536" lon="-1.690493"><ele>334</ele><time>2020-10-28T11:20:04Z</time><name>PT3963</name></trkpt>
<trkpt lat="53.109542" lon="-1.690494"><ele>334</ele><time>2020-10-28T11:20:06Z</time><name>PT3964</name></trkpt>
<trkpt lat="53.109545" lon="-1.690495"><ele>334</ele><time>2020-10-28T11:20:07Z</time><name>PT3965</name></trkpt>
<trkpt lat="53.109547" lon="-1.690496"><ele>334</ele><time>2020-10-28T11:20:07Z</time><name>PT3966</name></trkpt>
<trkpt lat="53.109551" lon="-1.690493"><ele>334</ele><time>2020-10-28T11:20:09Z</time><name>PT3967</name></trkpt>
<trkpt lat="53.109554" lon="-1.690491"><ele>334</ele><time>2020-10-28T11:20:10Z</time><name>PT3968</name></trkpt>
<trkpt lat="53.109555" lon="-1.690490"><ele>333</ele><time>2020-10-28T11:20:10Z</time><name>PT3969</name></trkpt>
<trkpt lat="53.109558" lon="-1.690490"><ele>334</ele><time>2020-10-28T11:20:12Z</time><name>PT3970</name></trkpt>
<trkpt lat="53.109562" lon="-1.690487"><ele>334</ele><time>2020-10-28T11:20:13Z</time><name>PT3971</name></trkpt>
<trkpt lat="53.109566" lon="-1.690480"><ele>334</ele><time>2020-10-28T11:20:13Z</time><name>PT3972</name></trkpt>
<trkpt lat="53.109568" lon="-1.690471"><ele>334</ele><time>2020-10-28T11:20:15Z</time><name>PT3973</name></trkpt>
<trkpt lat="53.109569" lon="-1.690465"><ele>335</ele><time>2020-10-28T11:20:16Z</time><name>PT3974</name></trkpt>
<trkpt lat="53.109570" lon="-1.690456"><ele>335</ele><time>2020-10-28T11:20:19Z</time><name>PT3975</name></trkpt>
<trkpt lat="53.109571" lon="-1.690451"><ele>334</ele><time>2020-10-28T11:20:21Z</time><name>PT3976</name></trkpt>
<trkpt lat="53.109572" lon="-1.690453"><ele>334</ele><time>2020-10-28T11:20:22Z</time><name>PT3977</name></trkpt>
<trkpt lat="53.109573" lon="-1.690445"><ele>334</ele><time>2020-10-28T11:20:23Z</time><name>PT3978</name></trkpt>
<trkpt lat="53.109573" lon="-1.690446"><ele>334</ele><time>2020-10-28T11:20:24Z</time><name>PT3979</name></trkpt>
<trkpt lat="53.109577" lon="-1.690442"><ele>334</ele><time>2020-10-28T11:20:25Z</time><name>PT3980</name></trkpt>
<trkpt lat="53.109578" lon="-1.690439"><ele>334</ele><time>2020-10-28T11:20:27Z</time><name>PT3981</name></trkpt>
<trkpt lat="53.109582" lon="-1.690443"><ele>334</ele><time>2020-10-28T11:20:28Z</time><name>PT3982</name></trkpt>
<trkpt lat="53.109587" lon="-1.690437"><ele>334</ele><time>2020-10-28T11:20:29Z</time><name>PT3983</name></trkpt>
<trkpt lat="53.109591" lon="-1.690426"><ele>335</ele><time>2020-10-28T11:20:30Z</time><name>PT3984</name></trkpt>
<trkpt lat="53.109598" lon="-1.690417"><ele>335</ele><time>2020-10-28T11:20:31Z</time><name>PT3985</name></trkpt>
<trkpt lat="53.109603" lon="-1.690403"><ele>335</ele><time>2020-10-28T11:20:32Z</time><name>PT3986</name></trkpt>
<trkpt lat="53.109630" lon="-1.690359"><ele>335</ele><time>2020-10-28T11:20:36Z</time><name>PT3987</name></trkpt>
<trkpt lat="53.109657" lon="-1.690303"><ele>335</ele><time>2020-10-28T11:20:40Z</time><name>PT3988</name></trkpt>
<trkpt lat="53.109686" lon="-1.690240"><ele>335</ele><time>2020-10-28T11:20:43Z</time><name>PT3989</name></trkpt>
<trkpt lat="53.109719" lon="-1.690187"><ele>336</ele><time>2020-10-28T11:20:48Z</time><name>PT3990</name></trkpt>
<trkpt lat="53.109744" lon="-1.690144"><ele>336</ele><time>2020-10-28T11:20:51Z</time><name>PT3991</name></trkpt>
<trkpt lat="53.109771" lon="-1.690085"><ele>336</ele><time>2020-10-28T11:20:55Z</time><name>PT3992</name></trkpt>
<trkpt lat="53.109793" lon="-1.690036"><ele>337</ele><time>2020-10-28T11:20:58Z</time><name>PT3993</name></trkpt>
<trkpt lat="53.109820" lon="-1.689980"><ele>338</ele><time>2020-10-28T11:21:01Z</time><name>PT3994</name></trkpt>
<trkpt lat="53.109850" lon="-1.689924"><ele>338</ele><time>2020-10-28T11:21:06Z</time><name>PT3995</name></trkpt>
<trkpt lat="53.109877" lon="-1.689876"><ele>339</ele><time>2020-10-28T11:21:09Z</time><name>PT3996</name></trkpt>
<trkpt lat="53.109894" lon="-1.689843"><ele>340</ele><time>2020-10-28T11:21:13Z</time><name>PT3997</name></trkpt>
<trkpt lat="53.109917" lon="-1.689797"><ele>341</ele><time>2020-10-28T11:21:16Z</time><name>PT3998</name></trkpt>
<trkpt lat="53.109944" lon="-1.689754"><ele>341</ele><time>2020-10-28T11:21:19Z</time><name>PT3999</name></trkpt>
<trkpt lat="53.109967" lon="-1.689712"><ele>340</ele><time>2020-10-28T11:21:22Z</time><name>PT4000</name></trkpt>
<trkpt lat="53.109993" lon="-1.689670"><ele>340</ele><time>2020-10-28T11:21:25Z</time><name>PT4001</name></trkpt>
<trkpt lat="53.110023" lon="-1.689609"><ele>340</ele><time>2020-10-28T11:21:30Z</time><name>PT4002</name></trkpt>
<trkpt lat="53.110056" lon="-1.689551"><ele>340</ele><time>2020-10-28T11:21:34Z</time><name>PT4003</name></trkpt>
<trkpt lat="53.110081" lon="-1.689506"><ele>340</ele><time>2020-10-28T11:21:37Z</time><name>PT4004</name></trkpt>
<trkpt lat="53.110113" lon="-1.689456"><ele>340</ele><time>2020-10-28T11:21:40Z</time><name>PT4005</name></trkpt>
<trkpt lat="53.110139" lon="-1.689414"><ele>339</ele><time>2020-10-28T11:21:44Z</time><name>PT4006</name></trkpt>
<trkpt lat="53.110169" lon="-1.689367"><ele>340</ele><time>2020-10-28T11:21:48Z</time><name>PT4007</name></trkpt>
<trkpt lat="53.110191" lon="-1.689342"><ele>340</ele><time>2020-10-28T11:21:51Z</time><name>PT4008</name></trkpt>
<trkpt lat="53.110206" lon="-1.689304"><ele>339</ele><time>2020-10-28T11:21:54Z</time><name>PT4009</name></trkpt>
<trkpt lat="53.110240" lon="-1.689256"><ele>341</ele><time>2020-10-28T11:21:58Z</time><name>PT4010</name></trkpt>
<trkpt lat="53.110271" lon="-1.689218"><ele>341</ele><time>2020-10-28T11:22:01Z</time><name>PT4011</name></trkpt>
<trkpt lat="53.110299" lon="-1.689178"><ele>342</ele><time>2020-10-28T11:22:04Z</time><name>PT4012</name></trkpt>
<trkpt lat="53.110327" lon="-1.689138"><ele>342</ele><time>2020-10-28T11:22:07Z</time><name>PT4013</name></trkpt>
<trkpt lat="53.110365" lon="-1.689086"><ele>343</ele><time>2020-10-28T11:22:10Z</time><name>PT4014</name></trkpt>
<trkpt lat="53.110393" lon="-1.689048"><ele>345</ele><time>2020-10-28T11:22:13Z</time><name>PT4015</name></trkpt>
<trkpt lat="53.110417" lon="-1.689012"><ele>345</ele><time>2020-10-28T11:22:16Z</time><name>PT4016</name></trkpt>
<trkpt lat="53.110452" lon="-1.688955"><ele>345</ele><time>2020-10-28T11:22:21Z</time><name>PT4017</name></trkpt>
<trkpt lat="53.110475" lon="-1.688912"><ele>346</ele><time>2020-10-28T11:22:24Z</time><name>PT4018</name></trkpt>
<trkpt lat="53.110504" lon="-1.688861"><ele>347</ele><time>2020-10-28T11:22:28Z</time><name>PT4019</name></trkpt>
<trkpt lat="53.110530" lon="-1.688822"><ele>347</ele><time>2020-10-28T11:22:31Z</time><name>PT4020</name></trkpt>
<trkpt lat="53.110558" lon="-1.688776"><ele>348</ele><time>2020-10-28T11:22:34Z</time><name>PT4021</name></trkpt>
<trkpt lat="53.110581" lon="-1.688744"><ele>347</ele><time>2020-10-28T11:22:37Z</time><name>PT4022</name></trkpt>
<trkpt lat="53.110617" lon="-1.688696"><ele>348</ele><time>2020-10-28T11:22:42Z</time><name>PT4023</name></trkpt>
<trkpt lat="53.110639" lon="-1.688658"><ele>348</ele><time>2020-10-28T11:22:45Z</time><name>PT4024</name></trkpt>
<trkpt lat="53.110674" lon="-1.688613"><ele>349</ele><time>2020-10-28T11:22:49Z</time><name>PT4025</name></trkpt>
<trkpt lat="53.110682" lon="-1.688578"><ele>349</ele><time>2020-10-28T11:22:52Z</time><name>PT4026</name></trkpt>
<trkpt lat="53.110702" lon="-1.688548"><ele>350</ele><time>2020-10-28T11:22:55Z</time><name>PT4027</name></trkpt>
<trkpt lat="53.110730" lon="-1.688533"><ele>350</ele><time>2020-10-28T11:22:58Z</time><name>PT4028</name></trkpt>
<trkpt lat="53.110773" lon="-1.688508"><ele>351</ele><time>2020-10-28T11:23:01Z</time><name>PT4029</name></trkpt>
<trkpt lat="53.110804" lon="-1.688497"><ele>353</ele><time>2020-10-28T11:23:04Z</time><name>PT4030</name></trkpt>
<trkpt lat="53.110833" lon="-1.688481"><ele>353</ele><time>2020-10-28T11:23:07Z</time><name>PT4031</name></trkpt>
<trkpt lat="53.110875" lon="-1.688463"><ele>353</ele><time>2020-10-28T11:23:12Z</time><name>PT4032</name></trkpt>
<trkpt lat="53.110914" lon="-1.688431"><ele>354</ele><time>2020-10-28T11:23:16Z</time><name>PT4033</name></trkpt>
<trkpt lat="53.110940" lon="-1.688414"><ele>353</ele><time>2020-10-28T11:23:19Z</time><name>PT4034</name></trkpt>
<trkpt lat="53.110968" lon="-1.688400"><ele>354</ele><time>2020-10-28T11:23:22Z</time><name>PT4035</name></trkpt>
<trkpt lat="53.111004" lon="-1.688391"><ele>355</ele><time>2020-10-28T11:23:25Z</time><name>PT4036</name></trkpt>
<trkpt lat="53.111030" lon="-1.688382"><ele>355</ele><time>2020-10-28T11:23:28Z</time><name>PT4037</name></trkpt>
<trkpt lat="53.111056" lon="-1.688368"><ele>355</ele><time>2020-10-28T11:23:31Z</time><name>PT4038</name></trkpt>
<trkpt lat="53.111084" lon="-1.688358"><ele>356</ele><time>2020-10-28T11:23:35Z</time><name>PT4039</name></trkpt>
<trkpt lat="53.111114" lon="-1.688351"><ele>358</ele><time>2020-10-28T11:23:38Z</time><name>PT4040</name></trkpt>
<trkpt lat="53.111151" lon="-1.688331"><ele>359</ele><time>2020-10-28T11:23:42Z</time><name>PT4041</name></trkpt>
<trkpt lat="53.111178" lon="-1.688326"><ele>360</ele><time>2020-10-28T11:23:45Z</time><name>PT4042</name></trkpt>
<trkpt lat="53.111215" lon="-1.688313"><ele>361</ele><time>2020-10-28T11:23:49Z</time><name>PT4043</name></trkpt>
<trkpt lat="53.111242" lon="-1.688300"><ele>362</ele><time>2020-10-28T11:23:52Z</time><name>PT4044</name></trkpt>
<trkpt lat="53.111280" lon="-1.688293"><ele>362</ele><time>2020-10-28T11:23:55Z</time><name>PT4045</name></trkpt>
<trkpt lat="53.111318" lon="-1.688276"><ele>364</ele><time>2020-10-28T11:24:00Z</time><name>PT4046</name></trkpt>
<trkpt lat="53.111356" lon="-1.688261"><ele>364</ele><time>2020-10-28T11:24:04Z</time><name>PT4047</name></trkpt>
<trkpt lat="53.111395" lon="-1.688244"><ele>365</ele><time>2020-10-28T11:24:07Z</time><name>PT4048</name></trkpt>
<trkpt lat="53.111424" lon="-1.688229"><ele>365</ele><time>2020-10-28T11:24:10Z</time><name>PT4049</name></trkpt>
<trkpt lat="53.111454" lon="-1.688212"><ele>366</ele><time>2020-10-28T11:24:13Z</time><name>PT4050</name></trkpt>
<trkpt lat="53.111485" lon="-1.688202"><ele>366</ele><time>2020-10-28T11:24:16Z</time><name>PT4051</name></trkpt>
<trkpt lat="53.111526" lon="-1.688185"><ele>366</ele><time>2020-10-28T11:24:21Z</time><name>PT4052</name></trkpt>
<trkpt lat="53.111563" lon="-1.688172"><ele>366</ele><time>2020-10-28T11:24:25Z</time><name>PT4053</name></trkpt>
<trkpt lat="53.111593" lon="-1.688161"><ele>367</ele><time>2020-10-28T11:24:28Z</time><name>PT4054</name></trkpt>
<trkpt lat="53.111633" lon="-1.688147"><ele>367</ele><time>2020-10-28T11:24:31Z</time><name>PT4055</name></trkpt>
<trkpt lat="53.111663" lon="-1.688130"><ele>367</ele><time>2020-10-28T11:24:34Z</time><name>PT4056</name></trkpt>
<trkpt lat="53.111707" lon="-1.688117"><ele>367</ele><time>2020-10-28T11:24:39Z</time><name>PT4057</name></trkpt>
<trkpt lat="53.111748" lon="-1.688102"><ele>368</ele><time>2020-10-28T11:24:43Z</time><name>PT4058</name></trkpt>
<trkpt lat="53.111776" lon="-1.688080"><ele>368</ele><time>2020-10-28T11:24:46Z</time><name>PT4059</name></trkpt>
<trkpt lat="53.111822" lon="-1.688065"><ele>366</ele><time>2020-10-28T11:24:49Z</time><name>PT4060</name></trkpt>
<trkpt lat="53.111858" lon="-1.688054"><ele>366</ele><time>2020-10-28T11:24:52Z</time><name>PT4061</name></trkpt>
<trkpt lat="53.111900" lon="-1.688033"><ele>367</ele><time>2020-10-28T11:24:57Z</time><name>PT4062</name></trkpt>
<trkpt lat="53.111937" lon="-1.688013"><ele>367</ele><time>2020-10-28T11:25:01Z</time><name>PT4063</name></trkpt>
<trkpt lat="53.111971" lon="-1.688002"><ele>367</ele><time>2020-10-28T11:25:04Z</time><name>PT4064</name></trkpt>
<trkpt lat="53.112006" lon="-1.687985"><ele>367</ele><time>2020-10-28T11:25:07Z</time><name>PT4065</name></trkpt>
<trkpt lat="53.112024" lon="-1.687995"><ele>367</ele><time>2020-10-28T11:25:12Z</time><name>PT4066</name></trkpt>
<trkpt lat="53.112025" lon="-1.688006"><ele>367</ele><time>2020-10-28T11:25:15Z</time><name>PT4067</name></trkpt>
<trkpt lat="53.112039" lon="-1.688022"><ele>367</ele><time>2020-10-28T11:25:19Z</time><name>PT4068</name></trkpt>
<trkpt lat="53.112071" lon="-1.688051"><ele>366</ele><time>2020-10-28T11:25:22Z</time><name>PT4069</name></trkpt>
<trkpt lat="53.112093" lon="-1.688079"><ele>366</ele><time>2020-10-28T11:25:25Z</time><name>PT4070</name></trkpt>
<trkpt lat="53.112114" lon="-1.688103"><ele>365</ele><time>2020-10-28T11:25:29Z</time><name>PT4071</name></trkpt>
<trkpt lat="53.112138" lon="-1.688125"><ele>365</ele><time>2020-10-28T11:25:32Z</time><name>PT4072</name></trkpt>
<trkpt lat="53.112158" lon="-1.688151"><ele>366</ele><time>2020-10-28T11:25:35Z</time><name>PT4073</name></trkpt>
<trkpt lat="53.112178" lon="-1.688211"><ele>368</ele><time>2020-10-28T11:25:39Z</time><name>PT4074</name></trkpt>
<trkpt lat="53.112192" lon="-1.688254"><ele>369</ele><time>2020-10-28T11:25:42Z</time><name>PT4075</name></trkpt>
<trkpt lat="53.112198" lon="-1.688298"><ele>369</ele><time>2020-10-28T11:25:45Z</time><name>PT4076</name></trkpt>
<trkpt lat="53.112200" lon="-1.688372"><ele>370</ele><time>2020-10-28T11:25:49Z</time><name>PT4077</name></trkpt>
<trkpt lat="53.112205" lon="-1.688432"><ele>371</ele><time>2020-10-28T11:25:52Z</time><name>PT4078</name></trkpt>
<trkpt lat="53.112216" lon="-1.688462"><ele>372</ele><time>2020-10-28T11:25:55Z</time><name>PT4079</name></trkpt>
<trkpt lat="53.112224" lon="-1.688492"><ele>374</ele><time>2020-10-28T11:25:58Z</time><name>PT4080</name></trkpt>
<trkpt lat="53.112236" lon="-1.688514"><ele>374</ele><time>2020-10-28T11:26:01Z</time><name>PT4081</name></trkpt>
<trkpt lat="53.112259" lon="-1.688534"><ele>375</ele><time>2020-10-28T11:26:04Z</time><name>PT4082</name></trkpt>
<trkpt lat="53.112270" lon="-1.688543"><ele>376</ele><time>2020-10-28T11:26:09Z</time><name>PT4083</name></trkpt>
<trkpt lat="53.112293" lon="-1.688560"><ele>376</ele><time>2020-10-28T11:26:12Z</time><name>PT4084</name></trkpt>
<trkpt lat="53.112317" lon="-1.688609"><ele>376</ele><time>2020-10-28T11:26:16Z</time><name>PT4085</name></trkpt>
<trkpt lat="53.112316" lon="-1.688656"><ele>375</ele><time>2020-10-28T11:26:19Z</time><name>PT4086</name></trkpt>
<trkpt lat="53.112314" lon="-1.688682"><ele>376</ele><time>2020-10-28T11:26:22Z</time><name>PT4087</name></trkpt>
<trkpt lat="53.112313" lon="-1.688693"><ele>376</ele><time>2020-10-28T11:26:25Z</time><name>PT4088</name></trkpt>
<trkpt lat="53.112320" lon="-1.688698"><ele>377</ele><time>2020-10-28T11:26:30Z</time><name>PT4089</name></trkpt>
<trkpt lat="53.112337" lon="-1.688723"><ele>376</ele><time>2020-10-28T11:26:33Z</time><name>PT4090</name></trkpt>
<trkpt lat="53.112344" lon="-1.688734"><ele>376</ele><time>2020-10-28T11:26:37Z</time><name>PT4091</name></trkpt>
<trkpt lat="53.112345" lon="-1.688734"><ele>375</ele><time>2020-10-28T11:26:40Z</time><name>PT4092</name></trkpt>
<trkpt lat="53.112334" lon="-1.688704"><ele>375</ele><time>2020-10-28T11:26:45Z</time><name>PT4093</name></trkpt>
<trkpt lat="53.112328" lon="-1.688684"><ele>374</ele><time>2020-10-28T11:26:49Z</time><name>PT4094</name></trkpt>
<trkpt lat="53.112326" lon="-1.688683"><ele>374</ele><time>2020-10-28T11:26:52Z</time><name>PT4095</name></trkpt>
<trkpt lat="53.112323" lon="-1.688687"><ele>374</ele><time>2020-10-28T11:26:58Z</time><name>PT4096</name></trkpt>
<trkpt lat="53.112349" lon="-1.688716"><ele>375</ele><time>2020-10-28T11:27:01Z</time><name>PT4097</name></trkpt>
<trkpt lat="53.112359" lon="-1.688723"><ele>374</ele><time>2020-10-28T11:27:06Z</time><name>PT4098</name></trkpt>
<trkpt lat="53.112369" lon="-1.688727"><ele>374</ele><time>2020-10-28T11:27:09Z</time><name>PT4099</name></trkpt>
<trkpt lat="53.112380" lon="-1.688720"><ele>374</ele><time>2020-10-28T11:27:13Z</time><name>PT4100</name></trkpt>
<trkpt lat="53.112392" lon="-1.688705"><ele>374</ele><time>2020-10-28T11:27:16Z</time><name>PT4101</name></trkpt>
<trkpt lat="53.112396" lon="-1.688660"><ele>375</ele><time>2020-10-28T11:27:19Z</time><name>PT4102</name></trkpt>
<trkpt lat="53.112399" lon="-1.688619"><ele>375</ele><time>2020-10-28T11:27:22Z</time><name>PT4103</name></trkpt>
<trkpt lat="53.112401" lon="-1.688598"><ele>375</ele><time>2020-10-28T11:27:27Z</time><name>PT4104</name></trkpt>
<trkpt lat="53.112408" lon="-1.688568"><ele>376</ele><time>2020-10-28T11:27:31Z</time><name>PT4105</name></trkpt>
<trkpt lat="53.112403" lon="-1.688536"><ele>376</ele><time>2020-10-28T11:27:34Z</time><name>PT4106</name></trkpt>
<trkpt lat="53.112390" lon="-1.688502"><ele>376</ele><time>2020-10-28T11:27:37Z</time><name>PT4107</name></trkpt>
<trkpt lat="53.112385" lon="-1.688505"><ele>376</ele><time>2020-10-28T11:27:40Z</time><name>PT4108</name></trkpt>
<trkpt lat="53.112385" lon="-1.688503"><ele>377</ele><time>2020-10-28T11:27:45Z</time><name>PT4109</name></trkpt>
<trkpt lat="53.112384" lon="-1.688529"><ele>376</ele><time>2020-10-28T11:28:28Z</time><name>PT4110</name></trkpt>
<trkpt lat="53.112388" lon="-1.688556"><ele>376</ele><time>2020-10-28T11:28:31Z</time><name>PT4111</name></trkpt>
<trkpt lat="53.112407" lon="-1.688595"><ele>375</ele><time>2020-10-28T11:28:36Z</time><name>PT4112</name></trkpt>
<trkpt lat="53.112405" lon="-1.688596"><ele>375</ele><time>2020-10-28T11:28:39Z</time><name>PT4113</name></trkpt>
<trkpt lat="53.112434" lon="-1.688634"><ele>375</ele><time>2020-10-28T11:28:42Z</time><name>PT4114</name></trkpt>
<trkpt lat="53.112465" lon="-1.688670"><ele>375</ele><time>2020-10-28T11:28:46Z</time><name>PT4115</name></trkpt>
<trkpt lat="53.112470" lon="-1.688681"><ele>375</ele><time>2020-10-28T11:28:46Z</time><name>PT4116</name></trkpt>
<trkpt lat="53.112475" lon="-1.688691"><ele>375</ele><time>2020-10-28T11:28:48Z</time><name>PT4117</name></trkpt>
<trkpt lat="53.112481" lon="-1.688704"><ele>375</ele><time>2020-10-28T11:28:49Z</time><name>PT4118</name></trkpt>
<trkpt lat="53.112487" lon="-1.688716"><ele>375</ele><time>2020-10-28T11:28:49Z</time><name>PT4119</name></trkpt>
<trkpt lat="53.112493" lon="-1.688727"><ele>374</ele><time>2020-10-28T11:28:51Z</time><name>PT4120</name></trkpt>
<trkpt lat="53.112500" lon="-1.688738"><ele>375</ele><time>2020-10-28T11:28:52Z</time><name>PT4121</name></trkpt>
<trkpt lat="53.112509" lon="-1.688749"><ele>374</ele><time>2020-10-28T11:28:52Z</time><name>PT4122</name></trkpt>
<trkpt lat="53.112517" lon="-1.688761"><ele>374</ele><time>2020-10-28T11:28:54Z</time><name>PT4123</name></trkpt>
<trkpt lat="53.112525" lon="-1.688771"><ele>374</ele><time>2020-10-28T11:28:55Z</time><name>PT4124</name></trkpt>
<trkpt lat="53.112535" lon="-1.688780"><ele>374</ele><time>2020-10-28T11:28:55Z</time><name>PT4125</name></trkpt>
<trkpt lat="53.112544" lon="-1.688788"><ele>374</ele><time>2020-10-28T11:28:57Z</time><name>PT4126</name></trkpt>
<trkpt lat="53.112552" lon="-1.688800"><ele>374</ele><time>2020-10-28T11:28:58Z</time><name>PT4127</name></trkpt>
<trkpt lat="53.112560" lon="-1.688807"><ele>374</ele><time>2020-10-28T11:28:58Z</time><name>PT4128</name></trkpt>
<trkpt lat="53.112567" lon="-1.688817"><ele>374</ele><time>2020-10-28T11:29:00Z</time><name>PT4129</name></trkpt>
<trkpt lat="53.112576" lon="-1.688828"><ele>374</ele><time>2020-10-28T11:29:01Z</time><name>PT4130</name></trkpt>
<trkpt lat="53.112584" lon="-1.688842"><ele>374</ele><time>2020-10-28T11:29:01Z</time><name>PT4131</name></trkpt>
<trkpt lat="53.112597" lon="-1.688852"><ele>374</ele><time>2020-10-28T11:29:03Z</time><name>PT4132</name></trkpt>
<trkpt lat="53.112607" lon="-1.688866"><ele>374</ele><time>2020-10-28T11:29:04Z</time><name>PT4133</name></trkpt>
<trkpt lat="53.112614" lon="-1.688880"><ele>374</ele><time>2020-10-28T11:29:04Z</time><name>PT4134</name></trkpt>
<trkpt lat="53.112622" lon="-1.688892"><ele>374</ele><time>2020-10-28T11:29:06Z</time><name>PT4135</name></trkpt>
<trkpt lat="53.112631" lon="-1.688903"><ele>374</ele><time>2020-10-28T11:29:07Z</time><name>PT4136</name></trkpt>
<trkpt lat="53.112640" lon="-1.688917"><ele>374</ele><time>2020-10-28T11:29:07Z</time><name>PT4137</name></trkpt>
<trkpt lat="53.112647" lon="-1.688931"><ele>374</ele><time>2020-10-28T11:29:09Z</time><name>PT4138</name></trkpt>
<trkpt lat="53.112653" lon="-1.688943"><ele>374</ele><time>2020-10-28T11:29:10Z</time><name>PT4139</name></trkpt>
<trkpt lat="53.112660" lon="-1.688952"><ele>374</ele><time>2020-10-28T11:29:10Z</time><name>PT4140</name></trkpt>
<trkpt lat="53.112668" lon="-1.688966"><ele>374</ele><time>2020-10-28T11:29:12Z</time><name>PT4141</name></trkpt>
<trkpt lat="53.112675" lon="-1.688979"><ele>374</ele><time>2020-10-28T11:29:13Z</time><name>PT4142</name></trkpt>
<trkpt lat="53.112681" lon="-1.688992"><ele>373</ele><time>2020-10-28T11:29:13Z</time><name>PT4143</name></trkpt>
<trkpt lat="53.112687" lon="-1.689006"><ele>374</ele><time>2020-10-28T11:29:15Z</time><name>PT4144</name></trkpt>
<trkpt lat="53.112691" lon="-1.689018"><ele>373</ele><time>2020-10-28T11:29:16Z</time><name>PT4145</name></trkpt>
<trkpt lat="53.112702" lon="-1.689018"><ele>373</ele><time>2020-10-28T11:29:16Z</time><name>PT4146</name></trkpt>
<trkpt lat="53.112710" lon="-1.689023"><ele>373</ele><time>2020-10-28T11:29:18Z</time><name>PT4147</name></trkpt>
<trkpt lat="53.112721" lon="-1.689027"><ele>373</ele><time>2020-10-28T11:29:19Z</time><name>PT4148</name></trkpt>
<trkpt lat="53.112730" lon="-1.689034"><ele>373</ele><time>2020-10-28T11:29:19Z</time><name>PT4149</name></trkpt>
<trkpt lat="53.112734" lon="-1.689040"><ele>373</ele><time>2020-10-28T11:29:21Z</time><name>PT4150</name></trkpt>
<trkpt lat="53.112737" lon="-1.689044"><ele>373</ele><time>2020-10-28T11:29:22Z</time><name>PT4151</name></trkpt>
<trkpt lat="53.112737" lon="-1.689049"><ele>373</ele><time>2020-10-28T11:29:22Z</time><name>PT4152</name></trkpt>
<trkpt lat="53.112737" lon="-1.689051"><ele>373</ele><time>2020-10-28T11:29:24Z</time><name>PT4153</name></trkpt>
<trkpt lat="53.112736" lon="-1.689052"><ele>373</ele><time>2020-10-28T11:29:25Z</time><name>PT4154</name></trkpt>
<trkpt lat="53.112739" lon="-1.689056"><ele>373</ele><time>2020-10-28T11:29:36Z</time><name>PT4155</name></trkpt>
<trkpt lat="53.112737" lon="-1.689057"><ele>373</ele><time>2020-10-28T11:29:37Z</time><name>PT4156</name></trkpt>
<trkpt lat="53.112735" lon="-1.689062"><ele>373</ele><time>2020-10-28T11:29:38Z</time><name>PT4157</name></trkpt>
<trkpt lat="53.112736" lon="-1.689063"><ele>373</ele><time>2020-10-28T11:29:39Z</time><name>PT4158</name></trkpt>
<trkpt lat="53.112734" lon="-1.689065"><ele>373</ele><time>2020-10-28T11:29:40Z</time><name>PT4159</name></trkpt>
<trkpt lat="53.112734" lon="-1.689064"><ele>373</ele><time>2020-10-28T11:29:40Z</time><name>PT4160</name></trkpt>
<trkpt lat="53.112734" lon="-1.689068"><ele>373</ele><time>2020-10-28T11:29:49Z</time><name>PT4161</name></trkpt>
<trkpt lat="53.112735" lon="-1.689072"><ele>373</ele><time>2020-10-28T11:29:50Z</time><name>PT4162</name></trkpt>
<trkpt lat="53.112738" lon="-1.689071"><ele>373</ele><time>2020-10-28T11:29:51Z</time><name>PT4163</name></trkpt>
<trkpt lat="53.112741" lon="-1.689073"><ele>373</ele><time>2020-10-28T11:29:52Z</time><name>PT4164</name></trkpt>
<trkpt lat="53.112741" lon="-1.689072"><ele>373</ele><time>2020-10-28T11:29:53Z</time><name>PT4165</name></trkpt>
<trkpt lat="53.112740" lon="-1.689068"><ele>373</ele><time>2020-10-28T11:29:54Z</time><name>PT4166</name></trkpt>
<trkpt lat="53.112741" lon="-1.689066"><ele>373</ele><time>2020-10-28T11:29:55Z</time><name>PT4167</name></trkpt>
<trkpt lat="53.112743" lon="-1.689068"><ele>373</ele><time>2020-10-28T11:29:55Z</time><name>PT4168</name></trkpt>
<trkpt lat="53.112743" lon="-1.689065"><ele>373</ele><time>2020-10-28T11:29:57Z</time><name>PT4169</name></trkpt>
<trkpt lat="53.112742" lon="-1.689069"><ele>373</ele><time>2020-10-28T11:29:58Z</time><name>PT4170</name></trkpt>
<trkpt lat="53.112736" lon="-1.689058"><ele>372</ele><time>2020-10-28T11:29:58Z</time><name>PT4171</name></trkpt>
<trkpt lat="53.112734" lon="-1.689062"><ele>372</ele><time>2020-10-28T11:30:00Z</time><name>PT4172</name></trkpt>
<trkpt lat="53.112733" lon="-1.689059"><ele>372</ele><time>2020-10-28T11:30:01Z</time><name>PT4173</name></trkpt>
<trkpt lat="53.112732" lon="-1.689056"><ele>372</ele><time>2020-10-28T11:30:01Z</time><name>PT4174</name></trkpt>
<trkpt lat="53.112743" lon="-1.689054"><ele>373</ele><time>2020-10-28T11:30:22Z</time><name>PT4175</name></trkpt>
<trkpt lat="53.112748" lon="-1.689060"><ele>373</ele><time>2020-10-28T11:30:24Z</time><name>PT4176</name></trkpt>
<trkpt lat="53.112744" lon="-1.689059"><ele>373</ele><time>2020-10-28T11:30:25Z</time><name>PT4177</name></trkpt>
<trkpt lat="53.112744" lon="-1.689061"><ele>373</ele><time>2020-10-28T11:30:25Z</time><name>PT4178</name></trkpt>
<trkpt lat="53.112742" lon="-1.689067"><ele>373</ele><time>2020-10-28T11:30:27Z</time><name>PT4179</name></trkpt>
<trkpt lat="53.112739" lon="-1.689077"><ele>373</ele><time>2020-10-28T11:30:28Z</time><name>PT4180</name></trkpt>
<trkpt lat="53.112735" lon="-1.689079"><ele>373</ele><time>2020-10-28T11:30:28Z</time><name>PT4181</name></trkpt>
<trkpt lat="53.112735" lon="-1.689075"><ele>373</ele><time>2020-10-28T11:30:30Z</time><name>PT4182</name></trkpt>
<trkpt lat="53.112737" lon="-1.689070"><ele>373</ele><time>2020-10-28T11:30:31Z</time><name>PT4183</name></trkpt>
<trkpt lat="53.112742" lon="-1.689060"><ele>373</ele><time>2020-10-28T11:30:31Z</time><name>PT4184</name></trkpt>
<trkpt lat="53.112740" lon="-1.689059"><ele>373</ele><time>2020-10-28T11:30:33Z</time><name>PT4185</name></trkpt>
<trkpt lat="53.112735" lon="-1.689058"><ele>373</ele><time>2020-10-28T11:30:34Z</time><name>PT4186</name></trkpt>
<trkpt lat="53.112731" lon="-1.689058"><ele>373</ele><time>2020-10-28T11:30:34Z</time><name>PT4187</name></trkpt>
<trkpt lat="53.112725" lon="-1.689059"><ele>373</ele><time>2020-10-28T11:30:36Z</time><name>PT4188</name></trkpt>
<trkpt lat="53.112733" lon="-1.689044"><ele>373</ele><time>2020-10-28T11:30:43Z</time><name>PT4189</name></trkpt>
<trkpt lat="53.112744" lon="-1.689030"><ele>373</ele><time>2020-10-28T11:30:45Z</time><name>PT4190</name></trkpt>
<trkpt lat="53.112752" lon="-1.689018"><ele>373</ele><time>2020-10-28T11:30:46Z</time><name>PT4191</name></trkpt>
<trkpt lat="53.112756" lon="-1.689012"><ele>373</ele><time>2020-10-28T11:30:46Z</time><name>PT4192</name></trkpt>
<trkpt lat="53.112757" lon="-1.689004"><ele>373</ele><time>2020-10-28T11:30:48Z</time><name>PT4193</name></trkpt>
<trkpt lat="53.112758" lon="-1.689000"><ele>373</ele><time>2020-10-28T11:30:49Z</time><name>PT4194</name></trkpt>
<trkpt lat="53.112763" lon="-1.688990"><ele>373</ele><time>2020-10-28T11:30:49Z</time><name>PT4195</name></trkpt>
<trkpt lat="53.112768" lon="-1.688984"><ele>372</ele><time>2020-10-28T11:30:51Z</time><name>PT4196</name></trkpt>
<trkpt lat="53.112767" lon="-1.688989"><ele>372</ele><time>2020-10-28T11:30:52Z</time><name>PT4197</name></trkpt>
<trkpt lat="53.112766" lon="-1.688993"><ele>372</ele><time>2020-10-28T11:30:52Z</time><name>PT4198</name></trkpt>
<trkpt lat="53.112767" lon="-1.688993"><ele>372</ele><time>2020-10-28T11:30:54Z</time><name>PT4199</name></trkpt>
<trkpt lat="53.112768" lon="-1.688999"><ele>373</ele><time>2020-10-28T11:30:57Z</time><name>PT4200</name></trkpt>
<trkpt lat="53.112767" lon="-1.688998"><ele>373</ele><time>2020-10-28T11:30:58Z</time><name>PT4201</name></trkpt>
<trkpt lat="53.112767" lon="-1.689004"><ele>373</ele><time>2020-10-28T11:30:58Z</time><name>PT4202</name></trkpt>
<trkpt lat="53.112768" lon="-1.689014"><ele>373</ele><time>2020-10-28T11:31:00Z</time><name>PT4203</name></trkpt>
<trkpt lat="53.112761" lon="-1.689028"><ele>372</ele><time>2020-10-28T11:32:07Z</time><name>PT4204</name></trkpt>
<trkpt lat="53.112756" lon="-1.689060"><ele>372</ele><time>2020-10-28T11:32:12Z</time><name>PT4205</name></trkpt>
<trkpt lat="53.112753" lon="-1.689075"><ele>372</ele><time>2020-10-28T11:32:15Z</time><name>PT4206</name></trkpt>
<trkpt lat="53.112753" lon="-1.689084"><ele>372</ele><time>2020-10-28T11:32:19Z</time><name>PT4207</name></trkpt>
<trkpt lat="53.112752" lon="-1.689125"><ele>372</ele><time>2020-10-28T11:32:22Z</time><name>PT4208</name></trkpt>
<trkpt lat="53.112757" lon="-1.689139"><ele>372</ele><time>2020-10-28T11:32:25Z</time><name>PT4209</name></trkpt>
<trkpt lat="53.112758" lon="-1.689144"><ele>373</ele><time>2020-10-28T11:32:28Z</time><name>PT4210</name></trkpt>
<trkpt lat="53.112756" lon="-1.689141"><ele>373</ele><time>2020-10-28T11:32:31Z</time><name>PT4211</name></trkpt>
<trkpt lat="53.112754" lon="-1.689134"><ele>373</ele><time>2020-10-28T11:32:34Z</time><name>PT4212</name></trkpt>
<trkpt lat="53.112753" lon="-1.689135"><ele>373</ele><time>2020-10-28T11:32:42Z</time><name>PT4213</name></trkpt>
<trkpt lat="53.112753" lon="-1.689136"><ele>373</ele><time>2020-10-28T11:32:45Z</time><name>PT4214</name></trkpt>
<trkpt lat="53.112759" lon="-1.689130"><ele>373</ele><time>2020-10-28T11:32:55Z</time><name>PT4215</name></trkpt>
<trkpt lat="53.112765" lon="-1.689128"><ele>373</ele><time>2020-10-28T11:33:06Z</time><name>PT4216</name></trkpt>
<trkpt lat="53.112773" lon="-1.689117"><ele>372</ele><time>2020-10-28T11:33:10Z</time><name>PT4217</name></trkpt>
<trkpt lat="53.112776" lon="-1.689106"><ele>372</ele><time>2020-10-28T11:33:19Z</time><name>PT4218</name></trkpt>
<trkpt lat="53.112774" lon="-1.689099"><ele>372</ele><time>2020-10-28T11:33:22Z</time><name>PT4219</name></trkpt>
<trkpt lat="53.112774" lon="-1.689099"><ele>372</ele><time>2020-10-28T11:33:25Z</time><name>PT4220</name></trkpt>
<trkpt lat="53.112774" lon="-1.689085"><ele>372</ele><time>2020-10-28T11:33:28Z</time><name>PT4221</name></trkpt>
<trkpt lat="53.112778" lon="-1.689096"><ele>373</ele><time>2020-10-28T11:33:31Z</time><name>PT4222</name></trkpt>
<trkpt lat="53.112780" lon="-1.689091"><ele>373</ele><time>2020-10-28T11:33:51Z</time><name>PT4223</name></trkpt>
<trkpt lat="53.112775" lon="-1.689089"><ele>373</ele><time>2020-10-28T11:34:21Z</time><name>PT4224</name></trkpt>
<trkpt lat="53.112774" lon="-1.689083"><ele>373</ele><time>2020-10-28T11:34:27Z</time><name>PT4225</name></trkpt>
<trkpt lat="53.112781" lon="-1.689063"><ele>374</ele><time>2020-10-28T11:34:30Z</time><name>PT4226</name></trkpt>
<trkpt lat="53.112790" lon="-1.689040"><ele>374</ele><time>2020-10-28T11:34:34Z</time><name>PT4227</name></trkpt>
<trkpt lat="53.112789" lon="-1.689046"><ele>374</ele><time>2020-10-28T11:34:45Z</time><name>PT4228</name></trkpt>
<trkpt lat="53.112781" lon="-1.689050"><ele>374</ele><time>2020-10-28T11:35:28Z</time><name>PT4229</name></trkpt>
<trkpt lat="53.112776" lon="-1.689050"><ele>374</ele><time>2020-10-28T11:35:33Z</time><name>PT4230</name></trkpt>
<trkpt lat="53.112775" lon="-1.689046"><ele>373</ele><time>2020-10-28T11:35:39Z</time><name>PT4231</name></trkpt>
<trkpt lat="53.112759" lon="-1.689069"><ele>373</ele><time>2020-10-28T11:35:43Z</time><name>PT4232</name></trkpt>
<trkpt lat="53.112753" lon="-1.689070"><ele>372</ele><time>2020-10-28T11:35:46Z</time><name>PT4233</name></trkpt>
<trkpt lat="53.112758" lon="-1.689071"><ele>372</ele><time>2020-10-28T11:36:07Z</time><name>PT4234</name></trkpt>
<trkpt lat="53.112757" lon="-1.689075"><ele>372</ele><time>2020-10-28T11:36:10Z</time><name>PT4235</name></trkpt>
<trkpt lat="53.112771" lon="-1.689088"><ele>373</ele><time>2020-10-28T11:36:40Z</time><name>PT4236</name></trkpt>
<trkpt lat="53.112767" lon="-1.689079"><ele>372</ele><time>2020-10-28T11:36:45Z</time><name>PT4237</name></trkpt>
<trkpt lat="53.112770" lon="-1.689076"><ele>372</ele><time>2020-10-28T11:36:49Z</time><name>PT4238</name></trkpt>
<trkpt lat="53.112767" lon="-1.689079"><ele>371</ele><time>2020-10-28T11:36:52Z</time><name>PT4239</name></trkpt>
<trkpt lat="53.112765" lon="-1.689080"><ele>372</ele><time>2020-10-28T11:36:55Z</time><name>PT4240</name></trkpt>
<trkpt lat="53.112760" lon="-1.689078"><ele>372</ele><time>2020-10-28T11:37:00Z</time><name>PT4241</name></trkpt>
<trkpt lat="53.112761" lon="-1.689081"><ele>372</ele><time>2020-10-28T11:37:03Z</time><name>PT4242</name></trkpt>
<trkpt lat="53.112764" lon="-1.689070"><ele>372</ele><time>2020-10-28T11:37:25Z</time><name>PT4243</name></trkpt>
<trkpt lat="53.112764" lon="-1.689070"><ele>372</ele><time>2020-10-28T11:37:28Z</time><name>PT4244</name></trkpt>
<trkpt lat="53.112766" lon="-1.689069"><ele>372</ele><time>2020-10-28T11:37:43Z</time><name>PT4245</name></trkpt>
<trkpt lat="53.112771" lon="-1.689061"><ele>373</ele><time>2020-10-28T11:37:55Z</time><name>PT4246</name></trkpt>
<trkpt lat="53.112772" lon="-1.689040"><ele>372</ele><time>2020-10-28T11:37:58Z</time><name>PT4247</name></trkpt>
<trkpt lat="53.112779" lon="-1.689019"><ele>372</ele><time>2020-10-28T11:38:01Z</time><name>PT4248</name></trkpt>
<trkpt lat="53.112777" lon="-1.689006"><ele>371</ele><time>2020-10-28T11:38:06Z</time><name>PT4249</name></trkpt>
<trkpt lat="53.112764" lon="-1.689017"><ele>370</ele><time>2020-10-28T11:38:10Z</time><name>PT4250</name></trkpt>
<trkpt lat="53.112769" lon="-1.689027"><ele>371</ele><time>2020-10-28T11:38:13Z</time><name>PT4251</name></trkpt>
<trkpt lat="53.112772" lon="-1.689019"><ele>368</ele><time>2020-10-28T11:38:18Z</time><name>PT4252</name></trkpt>
<trkpt lat="53.112764" lon="-1.689025"><ele>369</ele><time>2020-10-28T11:38:21Z</time><name>PT4253</name></trkpt>
<trkpt lat="53.112756" lon="-1.689036"><ele>369</ele><time>2020-10-28T11:38:25Z</time><name>PT4254</name></trkpt>
<trkpt lat="53.112754" lon="-1.689052"><ele>369</ele><time>2020-10-28T11:38:28Z</time><name>PT4255</name></trkpt>
<trkpt lat="53.112757" lon="-1.689046"><ele>369</ele><time>2020-10-28T11:38:31Z</time><name>PT4256</name></trkpt>
<trkpt lat="53.112767" lon="-1.689043"><ele>370</ele><time>2020-10-28T11:38:34Z</time><name>PT4257</name></trkpt>
<trkpt lat="53.112759" lon="-1.689062"><ele>369</ele><time>2020-10-28T11:38:37Z</time><name>PT4258</name></trkpt>
<trkpt lat="53.112746" lon="-1.689034"><ele>370</ele><time>2020-10-28T11:38:42Z</time><name>PT4259</name></trkpt>
<trkpt lat="53.112746" lon="-1.689022"><ele>370</ele><time>2020-10-28T11:38:46Z</time><name>PT4260</name></trkpt>
<trkpt lat="53.112747" lon="-1.689022"><ele>373</ele><time>2020-10-28T11:38:49Z</time><name>PT4261</name></trkpt>
<trkpt lat="53.112750" lon="-1.689040"><ele>371</ele><time>2020-10-28T11:38:52Z</time><name>PT4262</name></trkpt>
<trkpt lat="53.112751" lon="-1.689067"><ele>371</ele><time>2020-10-28T11:39:10Z</time><name>PT4263</name></trkpt>
<trkpt lat="53.112748" lon="-1.689084"><ele>372</ele><time>2020-10-28T11:39:13Z</time><name>PT4264</name></trkpt>
<trkpt lat="53.112742" lon="-1.689091"><ele>372</ele><time>2020-10-28T11:39:18Z</time><name>PT4265</name></trkpt>
<trkpt lat="53.112743" lon="-1.689093"><ele>372</ele><time>2020-10-28T11:39:25Z</time><name>PT4266</name></trkpt>
<trkpt lat="53.112737" lon="-1.689106"><ele>371</ele><time>2020-10-28T11:39:28Z</time><name>PT4267</name></trkpt>
<trkpt lat="53.112730" lon="-1.689118"><ele>371</ele><time>2020-10-28T11:39:31Z</time><name>PT4268</name></trkpt>
<trkpt lat="53.112729" lon="-1.689120"><ele>372</ele><time>2020-10-28T11:39:36Z</time><name>PT4269</name></trkpt>
<trkpt lat="53.112731" lon="-1.689123"><ele>372</ele><time>2020-10-28T11:40:09Z</time><name>PT4270</name></trkpt>
<trkpt lat="53.112731" lon="-1.689120"><ele>372</ele><time>2020-10-28T11:40:12Z</time><name>PT4271</name></trkpt>
<trkpt lat="53.112745" lon="-1.689103"><ele>373</ele><time>2020-10-28T11:40:16Z</time><name>PT4272</name></trkpt>
<trkpt lat="53.112755" lon="-1.689079"><ele>372</ele><time>2020-10-28T11:40:19Z</time><name>PT4273</name></trkpt>
<trkpt lat="53.112757" lon="-1.689075"><ele>372</ele><time>2020-10-28T11:40:22Z</time><name>PT4274</name></trkpt>
<trkpt lat="53.112750" lon="-1.689071"><ele>373</ele><time>2020-10-28T11:40:52Z</time><name>PT4275</name></trkpt>
<trkpt lat="53.112748" lon="-1.689072"><ele>373</ele><time>2020-10-28T11:40:55Z</time><name>PT4276</name></trkpt>
<trkpt lat="53.112746" lon="-1.689066"><ele>373</ele><time>2020-10-28T11:41:00Z</time><name>PT4277</name></trkpt>
<trkpt lat="53.112746" lon="-1.689068"><ele>373</ele><time>2020-10-28T11:41:04Z</time><name>PT4278</name></trkpt>
<trkpt lat="53.112739" lon="-1.689054"><ele>373</ele><time>2020-10-28T11:41:07Z</time><name>PT4279</name></trkpt>
<trkpt lat="53.112738" lon="-1.689054"><ele>373</ele><time>2020-10-28T11:41:12Z</time><name>PT4280</name></trkpt>
<trkpt lat="53.112732" lon="-1.689047"><ele>372</ele><time>2020-10-28T11:41:15Z</time><name>PT4281</name></trkpt>
<trkpt lat="53.112733" lon="-1.689045"><ele>372</ele><time>2020-10-28T11:41:18Z</time><name>PT4282</name></trkpt>
<trkpt lat="53.112732" lon="-1.689071"><ele>372</ele><time>2020-10-28T11:41:33Z</time><name>PT4283</name></trkpt>
<trkpt lat="53.112728" lon="-1.689066"><ele>372</ele><time>2020-10-28T11:41:37Z</time><name>PT4284</name></trkpt>
<trkpt lat="53.112737" lon="-1.689096"><ele>372</ele><time>2020-10-28T11:41:47Z</time><name>PT4285</name></trkpt>
<trkpt lat="53.112739" lon="-1.689104"><ele>372</ele><time>2020-10-28T11:41:50Z</time><name>PT4286</name></trkpt>
<trkpt lat="53.112749" lon="-1.689116"><ele>372</ele><time>2020-10-28T11:41:54Z</time><name>PT4287</name></trkpt>
<trkpt lat="53.112766" lon="-1.689143"><ele>369</ele><time>2020-10-28T11:41:57Z</time><name>PT4288</name></trkpt>
<trkpt lat="53.112793" lon="-1.689166"><ele>367</ele><time>2020-10-28T11:42:01Z</time><name>PT4289</name></trkpt>
<trkpt lat="53.112805" lon="-1.689180"><ele>366</ele><time>2020-10-28T11:42:04Z</time><name>PT4290</name></trkpt>
<trkpt lat="53.112835" lon="-1.689207"><ele>366</ele><time>2020-10-28T11:42:07Z</time><name>PT4291</name></trkpt>
<trkpt lat="53.112846" lon="-1.689217"><ele>366</ele><time>2020-10-28T11:42:10Z</time><name>PT4292</name></trkpt>
<trkpt lat="53.112860" lon="-1.689226"><ele>366</ele><time>2020-10-28T11:42:15Z</time><name>PT4293</name></trkpt>
<trkpt lat="53.112867" lon="-1.689239"><ele>367</ele><time>2020-10-28T11:42:19Z</time><name>PT4294</name></trkpt>
<trkpt lat="53.112878" lon="-1.689310"><ele>366</ele><time>2020-10-28T11:42:22Z</time><name>PT4295</name></trkpt>
<trkpt lat="53.112894" lon="-1.689347"><ele>365</ele><time>2020-10-28T11:42:25Z</time><name>PT4296</name></trkpt>
<trkpt lat="53.112896" lon="-1.689413"><ele>365</ele><time>2020-10-28T11:42:30Z</time><name>PT4297</name></trkpt>
<trkpt lat="53.112907" lon="-1.689469"><ele>365</ele><time>2020-10-28T11:42:33Z</time><name>PT4298</name></trkpt>
<trkpt lat="53.112921" lon="-1.689552"><ele>363</ele><time>2020-10-28T11:42:37Z</time><name>PT4299</name></trkpt>
<trkpt lat="53.112948" lon="-1.689646"><ele>363</ele><time>2020-10-28T11:42:40Z</time><name>PT4300</name></trkpt>
<trkpt lat="53.112948" lon="-1.689714"><ele>363</ele><time>2020-10-28T11:42:45Z</time><name>PT4301</name></trkpt>
<trkpt lat="53.112946" lon="-1.689723"><ele>363</ele><time>2020-10-28T11:42:48Z</time><name>PT4302</name></trkpt>
<trkpt lat="53.112944" lon="-1.689725"><ele>364</ele><time>2020-10-28T11:42:51Z</time><name>PT4303</name></trkpt>
<trkpt lat="53.112952" lon="-1.689758"><ele>365</ele><time>2020-10-28T11:42:58Z</time><name>PT4304</name></trkpt>
<trkpt lat="53.112971" lon="-1.689835"><ele>364</ele><time>2020-10-28T11:43:01Z</time><name>PT4305</name></trkpt>
<trkpt lat="53.112979" lon="-1.689892"><ele>364</ele><time>2020-10-28T11:43:04Z</time><name>PT4306</name></trkpt>
<trkpt lat="53.112985" lon="-1.689920"><ele>364</ele><time>2020-10-28T11:43:07Z</time><name>PT4307</name></trkpt>
<trkpt lat="53.112990" lon="-1.689984"><ele>364</ele><time>2020-10-28T11:43:10Z</time><name>PT4308</name></trkpt>
<trkpt lat="53.113006" lon="-1.690041"><ele>364</ele><time>2020-10-28T11:43:13Z</time><name>PT4309</name></trkpt>
<trkpt lat="53.113026" lon="-1.690120"><ele>364</ele><time>2020-10-28T11:43:18Z</time><name>PT4310</name></trkpt>
<trkpt lat="53.113040" lon="-1.690179"><ele>363</ele><time>2020-10-28T11:43:21Z</time><name>PT4311</name></trkpt>
<trkpt lat="53.113055" lon="-1.690256"><ele>363</ele><time>2020-10-28T11:43:25Z</time><name>PT4312</name></trkpt>
<trkpt lat="53.113061" lon="-1.690324"><ele>364</ele><time>2020-10-28T11:43:28Z</time><name>PT4313</name></trkpt>
<trkpt lat="53.113078" lon="-1.690379"><ele>364</ele><time>2020-10-28T11:43:31Z</time><name>PT4314</name></trkpt>
<trkpt lat="53.113104" lon="-1.690450"><ele>363</ele><time>2020-10-28T11:43:35Z</time><name>PT4315</name></trkpt>
<trkpt lat="53.113119" lon="-1.690538"><ele>362</ele><time>2020-10-28T11:43:39Z</time><name>PT4316</name></trkpt>
<trkpt lat="53.113135" lon="-1.690592"><ele>361</ele><time>2020-10-28T11:43:42Z</time><name>PT4317</name></trkpt>
<trkpt lat="53.113152" lon="-1.690648"><ele>360</ele><time>2020-10-28T11:43:45Z</time><name>PT4318</name></trkpt>
<trkpt lat="53.113171" lon="-1.690702"><ele>360</ele><time>2020-10-28T11:43:49Z</time><name>PT4319</name></trkpt>
<trkpt lat="53.113180" lon="-1.690718"><ele>360</ele><time>2020-10-28T11:43:52Z</time><name>PT4320</name></trkpt>
<trkpt lat="53.113173" lon="-1.690696"><ele>360</ele><time>2020-10-28T11:44:07Z</time><name>PT4321</name></trkpt>
<trkpt lat="53.113197" lon="-1.690725"><ele>360</ele><time>2020-10-28T11:44:10Z</time><name>PT4322</name></trkpt>
<trkpt lat="53.113219" lon="-1.690778"><ele>358</ele><time>2020-10-28T11:44:13Z</time><name>PT4323</name></trkpt>
<trkpt lat="53.113244" lon="-1.690797"><ele>357</ele><time>2020-10-28T11:44:16Z</time><name>PT4324</name></trkpt>
<trkpt lat="53.113246" lon="-1.690841"><ele>356</ele><time>2020-10-28T11:44:19Z</time><name>PT4325</name></trkpt>
<trkpt lat="53.113260" lon="-1.690911"><ele>356</ele><time>2020-10-28T11:44:24Z</time><name>PT4326</name></trkpt>
<trkpt lat="53.113275" lon="-1.690951"><ele>355</ele><time>2020-10-28T11:44:27Z</time><name>PT4327</name></trkpt>
<trkpt lat="53.113289" lon="-1.691019"><ele>355</ele><time>2020-10-28T11:44:31Z</time><name>PT4328</name></trkpt>
<trkpt lat="53.113304" lon="-1.691064"><ele>353</ele><time>2020-10-28T11:44:34Z</time><name>PT4329</name></trkpt>
<trkpt lat="53.113324" lon="-1.691131"><ele>352</ele><time>2020-10-28T11:44:37Z</time><name>PT4330</name></trkpt>
<trkpt lat="53.113339" lon="-1.691162"><ele>352</ele><time>2020-10-28T11:44:40Z</time><name>PT4331</name></trkpt>
<trkpt lat="53.113364" lon="-1.691220"><ele>350</ele><time>2020-10-28T11:44:45Z</time><name>PT4332</name></trkpt>
<trkpt lat="53.113393" lon="-1.691296"><ele>348</ele><time>2020-10-28T11:44:49Z</time><name>PT4333</name></trkpt>
<trkpt lat="53.113412" lon="-1.691366"><ele>348</ele><time>2020-10-28T11:44:52Z</time><name>PT4334</name></trkpt>
<trkpt lat="53.113428" lon="-1.691422"><ele>346</ele><time>2020-10-28T11:44:55Z</time><name>PT4335</name></trkpt>
<trkpt lat="53.113448" lon="-1.691470"><ele>346</ele><time>2020-10-28T11:44:58Z</time><name>PT4336</name></trkpt>
<trkpt lat="53.113472" lon="-1.691517"><ele>345</ele><time>2020-10-28T11:45:01Z</time><name>PT4337</name></trkpt>
<trkpt lat="53.113496" lon="-1.691565"><ele>346</ele><time>2020-10-28T11:45:06Z</time><name>PT4338</name></trkpt>
<trkpt lat="53.113524" lon="-1.691598"><ele>345</ele><time>2020-10-28T11:45:09Z</time><name>PT4339</name></trkpt>
<trkpt lat="53.113542" lon="-1.691647"><ele>345</ele><time>2020-10-28T11:45:12Z</time><name>PT4340</name></trkpt>
<trkpt lat="53.113565" lon="-1.691708"><ele>345</ele><time>2020-10-28T11:45:16Z</time><name>PT4341</name></trkpt>
<trkpt lat="53.113599" lon="-1.691764"><ele>345</ele><time>2020-10-28T11:45:19Z</time><name>PT4342</name></trkpt>
<trkpt lat="53.113620" lon="-1.691802"><ele>343</ele><time>2020-10-28T11:45:22Z</time><name>PT4343</name></trkpt>
<trkpt lat="53.113649" lon="-1.691867"><ele>343</ele><time>2020-10-28T11:45:27Z</time><name>PT4344</name></trkpt>
<trkpt lat="53.113676" lon="-1.691939"><ele>343</ele><time>2020-10-28T11:45:31Z</time><name>PT4345</name></trkpt>
<trkpt lat="53.113707" lon="-1.692012"><ele>342</ele><time>2020-10-28T11:45:34Z</time><name>PT4346</name></trkpt>
<trkpt lat="53.113744" lon="-1.692075"><ele>342</ele><time>2020-10-28T11:45:39Z</time><name>PT4347</name></trkpt>
<trkpt lat="53.113772" lon="-1.692117"><ele>341</ele><time>2020-10-28T11:45:42Z</time><name>PT4348</name></trkpt>
<trkpt lat="53.113804" lon="-1.692179"><ele>340</ele><time>2020-10-28T11:45:46Z</time><name>PT4349</name></trkpt>
<trkpt lat="53.113831" lon="-1.692207"><ele>340</ele><time>2020-10-28T11:45:49Z</time><name>PT4350</name></trkpt>
<trkpt lat="53.113847" lon="-1.692234"><ele>340</ele><time>2020-10-28T11:45:52Z</time><name>PT4351</name></trkpt>
<trkpt lat="53.113853" lon="-1.692262"><ele>340</ele><time>2020-10-28T11:45:55Z</time><name>PT4352</name></trkpt>
<trkpt lat="53.113857" lon="-1.692266"><ele>339</ele><time>2020-10-28T11:45:58Z</time><name>PT4353</name></trkpt>
<trkpt lat="53.113881" lon="-1.692267"><ele>338</ele><time>2020-10-28T11:46:01Z</time><name>PT4354</name></trkpt>
<trkpt lat="53.113900" lon="-1.692300"><ele>337</ele><time>2020-10-28T11:46:04Z</time><name>PT4355</name></trkpt>
<trkpt lat="53.113913" lon="-1.692326"><ele>337</ele><time>2020-10-28T11:46:09Z</time><name>PT4356</name></trkpt>
<trkpt lat="53.113913" lon="-1.692324"><ele>337</ele><time>2020-10-28T11:46:12Z</time><name>PT4357</name></trkpt>
<trkpt lat="53.113911" lon="-1.692330"><ele>337</ele><time>2020-10-28T11:46:15Z</time><name>PT4358</name></trkpt>
<trkpt lat="53.113921" lon="-1.692368"><ele>337</ele><time>2020-10-28T11:46:19Z</time><name>PT4359</name></trkpt>
<trkpt lat="53.113929" lon="-1.692390"><ele>337</ele><time>2020-10-28T11:46:22Z</time><name>PT4360</name></trkpt>
<trkpt lat="53.113963" lon="-1.692448"><ele>336</ele><time>2020-10-28T11:46:27Z</time><name>PT4361</name></trkpt>
<trkpt lat="53.114005" lon="-1.692497"><ele>337</ele><time>2020-10-28T11:46:31Z</time><name>PT4362</name></trkpt>
<trkpt lat="53.114034" lon="-1.692531"><ele>337</ele><time>2020-10-28T11:46:34Z</time><name>PT4363</name></trkpt>
<trkpt lat="53.114069" lon="-1.692586"><ele>337</ele><time>2020-10-28T11:46:37Z</time><name>PT4364</name></trkpt>
<trkpt lat="53.114097" lon="-1.692634"><ele>337</ele><time>2020-10-28T11:46:40Z</time><name>PT4365</name></trkpt>
<trkpt lat="53.114132" lon="-1.692698"><ele>337</ele><time>2020-10-28T11:46:45Z</time><name>PT4366</name></trkpt>
<trkpt lat="53.114170" lon="-1.692765"><ele>336</ele><time>2020-10-28T11:46:49Z</time><name>PT4367</name></trkpt>
<trkpt lat="53.114201" lon="-1.692807"><ele>335</ele><time>2020-10-28T11:46:52Z</time><name>PT4368</name></trkpt>
<trkpt lat="53.114232" lon="-1.692852"><ele>335</ele><time>2020-10-28T11:46:55Z</time><name>PT4369</name></trkpt>
<trkpt lat="53.114264" lon="-1.692889"><ele>335</ele><time>2020-10-28T11:46:58Z</time><name>PT4370</name></trkpt>
<trkpt lat="53.114295" lon="-1.692966"><ele>336</ele><time>2020-10-28T11:47:01Z</time><name>PT4371</name></trkpt>
<trkpt lat="53.114326" lon="-1.693017"><ele>337</ele><time>2020-10-28T11:47:04Z</time><name>PT4372</name></trkpt>
<trkpt lat="53.114351" lon="-1.693071"><ele>337</ele><time>2020-10-28T11:47:07Z</time><name>PT4373</name></trkpt>
<trkpt lat="53.114380" lon="-1.693133"><ele>337</ele><time>2020-10-28T11:47:12Z</time><name>PT4374</name></trkpt>
<trkpt lat="53.114406" lon="-1.693183"><ele>337</ele><time>2020-10-28T11:47:15Z</time><name>PT4375</name></trkpt>
<trkpt lat="53.114424" lon="-1.693239"><ele>336</ele><time>2020-10-28T11:47:18Z</time><name>PT4376</name></trkpt>
<trkpt lat="53.114451" lon="-1.693327"><ele>336</ele><time>2020-10-28T11:47:22Z</time><name>PT4377</name></trkpt>
<trkpt lat="53.114483" lon="-1.693393"><ele>336</ele><time>2020-10-28T11:47:25Z</time><name>PT4378</name></trkpt>
<trkpt lat="53.114510" lon="-1.693450"><ele>335</ele><time>2020-10-28T11:47:30Z</time><name>PT4379</name></trkpt>
<trkpt lat="53.114525" lon="-1.693491"><ele>334</ele><time>2020-10-28T11:47:34Z</time><name>PT4380</name></trkpt>
<trkpt lat="53.114545" lon="-1.693525"><ele>333</ele><time>2020-10-28T11:47:37Z</time><name>PT4381</name></trkpt>
<trkpt lat="53.114571" lon="-1.693571"><ele>332</ele><time>2020-10-28T11:47:40Z</time><name>PT4382</name></trkpt>
<trkpt lat="53.114596" lon="-1.693614"><ele>331</ele><time>2020-10-28T11:47:43Z</time><name>PT4383</name></trkpt>
<trkpt lat="53.114603" lon="-1.693666"><ele>331</ele><time>2020-10-28T11:47:46Z</time><name>PT4384</name></trkpt>
<trkpt lat="53.114620" lon="-1.693708"><ele>330</ele><time>2020-10-28T11:47:49Z</time><name>PT4385</name></trkpt>
<trkpt lat="53.114640" lon="-1.693752"><ele>329</ele><time>2020-10-28T11:47:54Z</time><name>PT4386</name></trkpt>
<trkpt lat="53.114668" lon="-1.693797"><ele>329</ele><time>2020-10-28T11:47:58Z</time><name>PT4387</name></trkpt>
<trkpt lat="53.114686" lon="-1.693847"><ele>329</ele><time>2020-10-28T11:48:01Z</time><name>PT4388</name></trkpt>
<trkpt lat="53.114705" lon="-1.693909"><ele>329</ele><time>2020-10-28T11:48:04Z</time><name>PT4389</name></trkpt>
<trkpt lat="53.114708" lon="-1.693913"><ele>330</ele><time>2020-10-28T11:48:07Z</time><name>PT4390</name></trkpt>
<trkpt lat="53.114721" lon="-1.693934"><ele>330</ele><time>2020-10-28T11:48:10Z</time><name>PT4391</name></trkpt>
<trkpt lat="53.114766" lon="-1.693967"><ele>329</ele><time>2020-10-28T11:48:15Z</time><name>PT4392</name></trkpt>
<trkpt lat="53.114795" lon="-1.694006"><ele>328</ele><time>2020-10-28T11:48:19Z</time><name>PT4393</name></trkpt>
<trkpt lat="53.114828" lon="-1.694046"><ele>328</ele><time>2020-10-28T11:48:22Z</time><name>PT4394</name></trkpt>
<trkpt lat="53.114857" lon="-1.694093"><ele>328</ele><time>2020-10-28T11:48:25Z</time><name>PT4395</name></trkpt>
<trkpt lat="53.114897" lon="-1.694145"><ele>327</ele><time>2020-10-28T11:48:30Z</time><name>PT4396</name></trkpt>
<trkpt lat="53.114924" lon="-1.694203"><ele>327</ele><time>2020-10-28T11:48:34Z</time><name>PT4397</name></trkpt>
<trkpt lat="53.114928" lon="-1.694282"><ele>327</ele><time>2020-10-28T11:48:37Z</time><name>PT4398</name></trkpt>
<trkpt lat="53.114911" lon="-1.694314"><ele>328</ele><time>2020-10-28T11:48:40Z</time><name>PT4399</name></trkpt>
<trkpt lat="53.114868" lon="-1.694311"><ele>329</ele><time>2020-10-28T11:48:45Z</time><name>PT4400</name></trkpt>
<trkpt lat="53.114822" lon="-1.694285"><ele>329</ele><time>2020-10-28T11:48:49Z</time><name>PT4401</name></trkpt>
<trkpt lat="53.114790" lon="-1.694263"><ele>329</ele><time>2020-10-28T11:48:52Z</time><name>PT4402</name></trkpt>
<trkpt lat="53.114750" lon="-1.694231"><ele>331</ele><time>2020-10-28T11:48:56Z</time><name>PT4403</name></trkpt>
<trkpt lat="53.114716" lon="-1.694207"><ele>331</ele><time>2020-10-28T11:48:59Z</time><name>PT4404</name></trkpt>
<trkpt lat="53.114675" lon="-1.694183"><ele>330</ele><time>2020-10-28T11:49:03Z</time><name>PT4405</name></trkpt>
<trkpt lat="53.114642" lon="-1.694163"><ele>331</ele><time>2020-10-28T11:49:06Z</time><name>PT4406</name></trkpt>
<trkpt lat="53.114593" lon="-1.694147"><ele>331</ele><time>2020-10-28T11:49:10Z</time><name>PT4407</name></trkpt>
<trkpt lat="53.114556" lon="-1.694144"><ele>330</ele><time>2020-10-28T11:49:13Z</time><name>PT4408</name></trkpt>
<trkpt lat="53.114506" lon="-1.694153"><ele>330</ele><time>2020-10-28T11:49:16Z</time><name>PT4409</name></trkpt>
<trkpt lat="53.114466" lon="-1.694156"><ele>330</ele><time>2020-10-28T11:49:19Z</time><name>PT4410</name></trkpt>
<trkpt lat="53.114416" lon="-1.694164"><ele>330</ele><time>2020-10-28T11:49:24Z</time><name>PT4411</name></trkpt>
<trkpt lat="53.114350" lon="-1.694188"><ele>332</ele><time>2020-10-28T11:49:28Z</time><name>PT4412</name></trkpt>
<trkpt lat="53.114334" lon="-1.694192"><ele>332</ele><time>2020-10-28T11:49:28Z</time><name>PT4413</name></trkpt>
<trkpt lat="53.114321" lon="-1.694198"><ele>332</ele><time>2020-10-28T11:49:30Z</time><name>PT4414</name></trkpt>
<trkpt lat="53.114310" lon="-1.694202"><ele>332</ele><time>2020-10-28T11:49:31Z</time><name>PT4415</name></trkpt>
<trkpt lat="53.114298" lon="-1.694204"><ele>331</ele><time>2020-10-28T11:49:31Z</time><name>PT4416</name></trkpt>
<trkpt lat="53.114286" lon="-1.694206"><ele>331</ele><time>2020-10-28T11:49:33Z</time><name>PT4417</name></trkpt>
<trkpt lat="53.114274" lon="-1.694210"><ele>331</ele><time>2020-10-28T11:49:34Z</time><name>PT4418</name></trkpt>
<trkpt lat="53.114263" lon="-1.694213"><ele>331</ele><time>2020-10-28T11:49:34Z</time><name>PT4419</name></trkpt>
<trkpt lat="53.114251" lon="-1.694217"><ele>331</ele><time>2020-10-28T11:49:36Z</time><name>PT4420</name></trkpt>
<trkpt lat="53.114239" lon="-1.694220"><ele>331</ele><time>2020-10-28T11:49:37Z</time><name>PT4421</name></trkpt>
<trkpt lat="53.114227" lon="-1.694221"><ele>331</ele><time>2020-10-28T11:49:37Z</time><name>PT4422</name></trkpt>
<trkpt lat="53.114215" lon="-1.694222"><ele>331</ele><time>2020-10-28T11:49:39Z</time><name>PT4423</name></trkpt>
<trkpt lat="53.114203" lon="-1.694229"><ele>331</ele><time>2020-10-28T11:49:40Z</time><name>PT4424</name></trkpt>
<trkpt lat="53.114191" lon="-1.694235"><ele>331</ele><time>2020-10-28T11:49:40Z</time><name>PT4425</name></trkpt>
<trkpt lat="53.114178" lon="-1.694239"><ele>331</ele><time>2020-10-28T11:49:42Z</time><name>PT4426</name></trkpt>
<trkpt lat="53.114166" lon="-1.694243"><ele>331</ele><time>2020-10-28T11:49:43Z</time><name>PT4427</name></trkpt>
<trkpt lat="53.114154" lon="-1.694246"><ele>331</ele><time>2020-10-28T11:49:43Z</time><name>PT4428</name></trkpt>
<trkpt lat="53.114141" lon="-1.694249"><ele>332</ele><time>2020-10-28T11:49:45Z</time><name>PT4429</name></trkpt>
<trkpt lat="53.114129" lon="-1.694251"><ele>331</ele><time>2020-10-28T11:49:46Z</time><name>PT4430</name></trkpt>
<trkpt lat="53.114116" lon="-1.694254"><ele>332</ele><time>2020-10-28T11:49:46Z</time><name>PT4431</name></trkpt>
<trkpt lat="53.114104" lon="-1.694258"><ele>332</ele><time>2020-10-28T11:49:48Z</time><name>PT4432</name></trkpt>
<trkpt lat="53.114092" lon="-1.694261"><ele>332</ele><time>2020-10-28T11:49:49Z</time><name>PT4433</name></trkpt>
<trkpt lat="53.114081" lon="-1.694262"><ele>332</ele><time>2020-10-28T11:49:49Z</time><name>PT4434</name></trkpt>
<trkpt lat="53.114070" lon="-1.694258"><ele>332</ele><time>2020-10-28T11:49:51Z</time><name>PT4435</name></trkpt>
<trkpt lat="53.114059" lon="-1.694256"><ele>332</ele><time>2020-10-28T11:49:52Z</time><name>PT4436</name></trkpt>
<trkpt lat="53.114048" lon="-1.694262"><ele>332</ele><time>2020-10-28T11:49:52Z</time><name>PT4437</name></trkpt>
<trkpt lat="53.114036" lon="-1.694267"><ele>332</ele><time>2020-10-28T11:49:54Z</time><name>PT4438</name></trkpt>
<trkpt lat="53.114025" lon="-1.694270"><ele>332</ele><time>2020-10-28T11:49:55Z</time><name>PT4439</name></trkpt>
<trkpt lat="53.114014" lon="-1.694275"><ele>332</ele><time>2020-10-28T11:49:55Z</time><name>PT4440</name></trkpt>
<trkpt lat="53.114002" lon="-1.694277"><ele>332</ele><time>2020-10-28T11:49:57Z</time><name>PT4441</name></trkpt>
<trkpt lat="53.113991" lon="-1.694278"><ele>332</ele><time>2020-10-28T11:49:58Z</time><name>PT4442</name></trkpt>
<trkpt lat="53.113979" lon="-1.694281"><ele>332</ele><time>2020-10-28T11:49:58Z</time><name>PT4443</name></trkpt>
<trkpt lat="53.113967" lon="-1.694284"><ele>331</ele><time>2020-10-28T11:50:00Z</time><name>PT4444</name></trkpt>
<trkpt lat="53.113956" lon="-1.694287"><ele>331</ele><time>2020-10-28T11:50:01Z</time><name>PT4445</name></trkpt>
<trkpt lat="53.113943" lon="-1.694290"><ele>331</ele><time>2020-10-28T11:50:01Z</time><name>PT4446</name></trkpt>
<trkpt lat="53.113930" lon="-1.694294"><ele>331</ele><time>2020-10-28T11:50:03Z</time><name>PT4447</name></trkpt>
<trkpt lat="53.113917" lon="-1.694297"><ele>331</ele><time>2020-10-28T11:50:04Z</time><name>PT4448</name></trkpt>
<trkpt lat="53.113904" lon="-1.694301"><ele>331</ele><time>2020-10-28T11:50:04Z</time><name>PT4449</name></trkpt>
<trkpt lat="53.113892" lon="-1.694303"><ele>331</ele><time>2020-10-28T11:50:06Z</time><name>PT4450</name></trkpt>
<trkpt lat="53.113880" lon="-1.694304"><ele>331</ele><time>2020-10-28T11:50:07Z</time><name>PT4451</name></trkpt>
<trkpt lat="53.113867" lon="-1.694303"><ele>331</ele><time>2020-10-28T11:50:07Z</time><name>PT4452</name></trkpt>
<trkpt lat="53.113852" lon="-1.694304"><ele>331</ele><time>2020-10-28T11:50:09Z</time><name>PT4453</name></trkpt>
<trkpt lat="53.113838" lon="-1.694307"><ele>331</ele><time>2020-10-28T11:50:10Z</time><name>PT4454</name></trkpt>
<trkpt lat="53.113825" lon="-1.694312"><ele>331</ele><time>2020-10-28T11:50:10Z</time><name>PT4455</name></trkpt>
<trkpt lat="53.113813" lon="-1.694316"><ele>331</ele><time>2020-10-28T11:50:12Z</time><name>PT4456</name></trkpt>
<trkpt lat="53.113800" lon="-1.694320"><ele>331</ele><time>2020-10-28T11:50:13Z</time><name>PT4457</name></trkpt>
<trkpt lat="53.113787" lon="-1.694325"><ele>331</ele><time>2020-10-28T11:50:13Z</time><name>PT4458</name></trkpt>
<trkpt lat="53.113775" lon="-1.694331"><ele>331</ele><time>2020-10-28T11:50:15Z</time><name>PT4459</name></trkpt>
<trkpt lat="53.113763" lon="-1.694334"><ele>331</ele><time>2020-10-28T11:50:16Z</time><name>PT4460</name></trkpt>
<trkpt lat="53.113750" lon="-1.694337"><ele>331</ele><time>2020-10-28T11:50:16Z</time><name>PT4461</name></trkpt>
<trkpt lat="53.113736" lon="-1.694340"><ele>331</ele><time>2020-10-28T11:50:18Z</time><name>PT4462</name></trkpt>
<trkpt lat="53.113724" lon="-1.694344"><ele>331</ele><time>2020-10-28T11:50:19Z</time><name>PT4463</name></trkpt>
<trkpt lat="53.113711" lon="-1.694349"><ele>331</ele><time>2020-10-28T11:50:19Z</time><name>PT4464</name></trkpt>
<trkpt lat="53.113698" lon="-1.694352"><ele>331</ele><time>2020-10-28T11:50:21Z</time><name>PT4465</name></trkpt>
<trkpt lat="53.113685" lon="-1.694357"><ele>331</ele><time>2020-10-28T11:50:22Z</time><name>PT4466</name></trkpt>
<trkpt lat="53.113672" lon="-1.694360"><ele>331</ele><time>2020-10-28T11:50:22Z</time><name>PT4467</name></trkpt>
<trkpt lat="53.113659" lon="-1.694364"><ele>331</ele><time>2020-10-28T11:50:24Z</time><name>PT4468</name></trkpt>
<trkpt lat="53.113648" lon="-1.694366"><ele>331</ele><time>2020-10-28T11:50:25Z</time><name>PT4469</name></trkpt>
<trkpt lat="53.113636" lon="-1.694367"><ele>331</ele><time>2020-10-28T11:50:25Z</time><name>PT4470</name></trkpt>
<trkpt lat="53.113623" lon="-1.694369"><ele>331</ele><time>2020-10-28T11:50:27Z</time><name>PT4471</name></trkpt>
<trkpt lat="53.113611" lon="-1.694376"><ele>331</ele><time>2020-10-28T11:50:28Z</time><name>PT4472</name></trkpt>
<trkpt lat="53.113599" lon="-1.694382"><ele>331</ele><time>2020-10-28T11:50:28Z</time><name>PT4473</name></trkpt>
<trkpt lat="53.113586" lon="-1.694385"><ele>331</ele><time>2020-10-28T11:50:30Z</time><name>PT4474</name></trkpt>
<trkpt lat="53.113574" lon="-1.694387"><ele>331</ele><time>2020-10-28T11:50:31Z</time><name>PT4475</name></trkpt>
<trkpt lat="53.113562" lon="-1.694390"><ele>331</ele><time>2020-10-28T11:50:31Z</time><name>PT4476</name></trkpt>
<trkpt lat="53.113550" lon="-1.694396"><ele>331</ele><time>2020-10-28T11:50:33Z</time><name>PT4477</name></trkpt>
<trkpt lat="53.113537" lon="-1.694400"><ele>331</ele><time>2020-10-28T11:50:34Z</time><name>PT4478</name></trkpt>
<trkpt lat="53.113525" lon="-1.694403"><ele>331</ele><time>2020-10-28T11:50:34Z</time><name>PT4479</name></trkpt>
<trkpt lat="53.113512" lon="-1.694404"><ele>331</ele><time>2020-10-28T11:50:36Z</time><name>PT4480</name></trkpt>
<trkpt lat="53.113499" lon="-1.694406"><ele>331</ele><time>2020-10-28T11:50:37Z</time><name>PT4481</name></trkpt>
<trkpt lat="53.113486" lon="-1.694408"><ele>331</ele><time>2020-10-28T11:50:37Z</time><name>PT4482</name></trkpt>
<trkpt lat="53.113474" lon="-1.694413"><ele>331</ele><time>2020-10-28T11:50:39Z</time><name>PT4483</name></trkpt>
<trkpt lat="53.113461" lon="-1.694418"><ele>331</ele><time>2020-10-28T11:50:40Z</time><name>PT4484</name></trkpt>
<trkpt lat="53.113448" lon="-1.694421"><ele>331</ele><time>2020-10-28T11:50:40Z</time><name>PT4485</name></trkpt>
<trkpt lat="53.113435" lon="-1.694423"><ele>331</ele><time>2020-10-28T11:50:42Z</time><name>PT4486</name></trkpt>
<trkpt lat="53.113422" lon="-1.694424"><ele>331</ele><time>2020-10-28T11:50:43Z</time><name>PT4487</name></trkpt>
<trkpt lat="53.113409" lon="-1.694427"><ele>331</ele><time>2020-10-28T11:50:43Z</time><name>PT4488</name></trkpt>
<trkpt lat="53.113398" lon="-1.694434"><ele>331</ele><time>2020-10-28T11:50:45Z</time><name>PT4489</name></trkpt>
<trkpt lat="53.113386" lon="-1.694439"><ele>331</ele><time>2020-10-28T11:50:46Z</time><name>PT4490</name></trkpt>
<trkpt lat="53.113373" lon="-1.694442"><ele>331</ele><time>2020-10-28T11:50:46Z</time><name>PT4491</name></trkpt>
<trkpt lat="53.113361" lon="-1.694444"><ele>331</ele><time>2020-10-28T11:50:48Z</time><name>PT4492</name></trkpt>
<trkpt lat="53.113348" lon="-1.694445"><ele>331</ele><time>2020-10-28T11:50:49Z</time><name>PT4493</name></trkpt>
<trkpt lat="53.113335" lon="-1.694449"><ele>331</ele><time>2020-10-28T11:50:49Z</time><name>PT4494</name></trkpt>
<trkpt lat="53.113325" lon="-1.694453"><ele>331</ele><time>2020-10-28T11:50:51Z</time><name>PT4495</name></trkpt>
<trkpt lat="53.113314" lon="-1.694455"><ele>331</ele><time>2020-10-28T11:50:52Z</time><name>PT4496</name></trkpt>
<trkpt lat="53.113301" lon="-1.694460"><ele>331</ele><time>2020-10-28T11:50:52Z</time><name>PT4497</name></trkpt>
<trkpt lat="53.113291" lon="-1.694464"><ele>331</ele><time>2020-10-28T11:50:54Z</time><name>PT4498</name></trkpt>
<trkpt lat="53.113276" lon="-1.694460"><ele>331</ele><time>2020-10-28T11:50:55Z</time><name>PT4499</name></trkpt>
<trkpt lat="53.113263" lon="-1.694462"><ele>331</ele><time>2020-10-28T11:50:55Z</time><name>PT4500</name></trkpt>
<trkpt lat="53.113252" lon="-1.694466"><ele>331</ele><time>2020-10-28T11:50:57Z</time><name>PT4501</name></trkpt>
<trkpt lat="53.113240" lon="-1.694467"><ele>331</ele><time>2020-10-28T11:50:58Z</time><name>PT4502</name></trkpt>
<trkpt lat="53.113228" lon="-1.694468"><ele>331</ele><time>2020-10-28T11:50:58Z</time><name>PT4503</name></trkpt>
<trkpt lat="53.113216" lon="-1.694472"><ele>331</ele><time>2020-10-28T11:51:00Z</time><name>PT4504</name></trkpt>
<trkpt lat="53.113205" lon="-1.694479"><ele>331</ele><time>2020-10-28T11:51:01Z</time><name>PT4505</name></trkpt>
<trkpt lat="53.113192" lon="-1.694486"><ele>331</ele><time>2020-10-28T11:51:01Z</time><name>PT4506</name></trkpt>
<trkpt lat="53.113179" lon="-1.694493"><ele>331</ele><time>2020-10-28T11:51:03Z</time><name>PT4507</name></trkpt>
<trkpt lat="53.113167" lon="-1.694495"><ele>331</ele><time>2020-10-28T11:51:04Z</time><name>PT4508</name></trkpt>
<trkpt lat="53.113154" lon="-1.694497"><ele>330</ele><time>2020-10-28T11:51:04Z</time><name>PT4509</name></trkpt>
<trkpt lat="53.113143" lon="-1.694504"><ele>330</ele><time>2020-10-28T11:51:06Z</time><name>PT4510</name></trkpt>
<trkpt lat="53.113132" lon="-1.694509"><ele>330</ele><time>2020-10-28T11:51:07Z</time><name>PT4511</name></trkpt>
<trkpt lat="53.113120" lon="-1.694513"><ele>330</ele><time>2020-10-28T11:51:07Z</time><name>PT4512</name></trkpt>
<trkpt lat="53.113110" lon="-1.694514"><ele>330</ele><time>2020-10-28T11:51:09Z</time><name>PT4513</name></trkpt>
<trkpt lat="53.113100" lon="-1.694520"><ele>329</ele><time>2020-10-28T11:51:10Z</time><name>PT4514</name></trkpt>
<trkpt lat="53.113087" lon="-1.694524"><ele>329</ele><time>2020-10-28T11:51:10Z</time><name>PT4515</name></trkpt>
<trkpt lat="53.113078" lon="-1.694532"><ele>329</ele><time>2020-10-28T11:51:12Z</time><name>PT4516</name></trkpt>
<trkpt lat="53.113066" lon="-1.694531"><ele>329</ele><time>2020-10-28T11:51:13Z</time><name>PT4517</name></trkpt>
<trkpt lat="53.113054" lon="-1.694534"><ele>329</ele><time>2020-10-28T11:51:13Z</time><name>PT4518</name></trkpt>
<trkpt lat="53.113044" lon="-1.694538"><ele>329</ele><time>2020-10-28T11:51:15Z</time><name>PT4519</name></trkpt>
<trkpt lat="53.113031" lon="-1.694541"><ele>329</ele><time>2020-10-28T11:51:16Z</time><name>PT4520</name></trkpt>
<trkpt lat="53.113017" lon="-1.694538"><ele>330</ele><time>2020-10-28T11:51:17Z</time><name>PT4521</name></trkpt>
<trkpt lat="53.113006" lon="-1.694539"><ele>330</ele><time>2020-10-28T11:51:18Z</time><name>PT4522</name></trkpt>
<trkpt lat="53.112994" lon="-1.694543"><ele>330</ele><time>2020-10-28T11:51:19Z</time><name>PT4523</name></trkpt>
<trkpt lat="53.112983" lon="-1.694549"><ele>330</ele><time>2020-10-28T11:51:20Z</time><name>PT4524</name></trkpt>
<trkpt lat="53.112971" lon="-1.694550"><ele>330</ele><time>2020-10-28T11:51:21Z</time><name>PT4525</name></trkpt>
<trkpt lat="53.112958" lon="-1.694552"><ele>330</ele><time>2020-10-28T11:51:22Z</time><name>PT4526</name></trkpt>
<trkpt lat="53.112947" lon="-1.694555"><ele>330</ele><time>2020-10-28T11:51:22Z</time><name>PT4527</name></trkpt>
<trkpt lat="53.112937" lon="-1.694557"><ele>330</ele><time>2020-10-28T11:51:24Z</time><name>PT4528</name></trkpt>
<trkpt lat="53.112922" lon="-1.694559"><ele>330</ele><time>2020-10-28T11:51:25Z</time><name>PT4529</name></trkpt>
<trkpt lat="53.112912" lon="-1.694566"><ele>329</ele><time>2020-10-28T11:51:26Z</time><name>PT4530</name></trkpt>
<trkpt lat="53.112901" lon="-1.694568"><ele>329</ele><time>2020-10-28T11:51:27Z</time><name>PT4531</name></trkpt>
<trkpt lat="53.112889" lon="-1.694569"><ele>329</ele><time>2020-10-28T11:51:28Z</time><name>PT4532</name></trkpt>
<trkpt lat="53.112879" lon="-1.694578"><ele>329</ele><time>2020-10-28T11:51:28Z</time><name>PT4533</name></trkpt>
<trkpt lat="53.112870" lon="-1.694591"><ele>328</ele><time>2020-10-28T11:51:30Z</time><name>PT4534</name></trkpt>
<trkpt lat="53.112855" lon="-1.694597"><ele>328</ele><time>2020-10-28T11:51:31Z</time><name>PT4535</name></trkpt>
<trkpt lat="53.112842" lon="-1.694599"><ele>329</ele><time>2020-10-28T11:51:31Z</time><name>PT4536</name></trkpt>
<trkpt lat="53.112831" lon="-1.694604"><ele>328</ele><time>2020-10-28T11:51:33Z</time><name>PT4537</name></trkpt>
<trkpt lat="53.112820" lon="-1.694611"><ele>329</ele><time>2020-10-28T11:51:34Z</time><name>PT4538</name></trkpt>
<trkpt lat="53.112813" lon="-1.694621"><ele>329</ele><time>2020-10-28T11:51:34Z</time><name>PT4539</name></trkpt>
<trkpt lat="53.112804" lon="-1.694626"><ele>329</ele><time>2020-10-28T11:51:36Z</time><name>PT4540</name></trkpt>
<trkpt lat="53.112793" lon="-1.694631"><ele>329</ele><time>2020-10-28T11:51:37Z</time><name>PT4541</name></trkpt>
<trkpt lat="53.112780" lon="-1.694636"><ele>329</ele><time>2020-10-28T11:51:37Z</time><name>PT4542</name></trkpt>
<trkpt lat="53.112766" lon="-1.694641"><ele>329</ele><time>2020-10-28T11:51:39Z</time><name>PT4543</name></trkpt>
<trkpt lat="53.112754" lon="-1.694646"><ele>329</ele><time>2020-10-28T11:51:40Z</time><name>PT4544</name></trkpt>
<trkpt lat="53.112743" lon="-1.694651"><ele>328</ele><time>2020-10-28T11:51:40Z</time><name>PT4545</name></trkpt>
<trkpt lat="53.112732" lon="-1.694657"><ele>328</ele><time>2020-10-28T11:51:42Z</time><name>PT4546</name></trkpt>
<trkpt lat="53.112721" lon="-1.694659"><ele>328</ele><time>2020-10-28T11:51:43Z</time><name>PT4547</name></trkpt>
<trkpt lat="53.112708" lon="-1.694667"><ele>328</ele><time>2020-10-28T11:51:43Z</time><name>PT4548</name></trkpt>
<trkpt lat="53.112695" lon="-1.694671"><ele>328</ele><time>2020-10-28T11:51:45Z</time><name>PT4549</name></trkpt>
<trkpt lat="53.112684" lon="-1.694672"><ele>328</ele><time>2020-10-28T11:51:46Z</time><name>PT4550</name></trkpt>
<trkpt lat="53.112669" lon="-1.694671"><ele>328</ele><time>2020-10-28T11:51:46Z</time><name>PT4551</name></trkpt>
<trkpt lat="53.112658" lon="-1.694677"><ele>328</ele><time>2020-10-28T11:51:48Z</time><name>PT4552</name></trkpt>
<trkpt lat="53.112650" lon="-1.694683"><ele>327</ele><time>2020-10-28T11:51:49Z</time><name>PT4553</name></trkpt>
<trkpt lat="53.112639" lon="-1.694686"><ele>327</ele><time>2020-10-28T11:51:49Z</time><name>PT4554</name></trkpt>
<trkpt lat="53.112630" lon="-1.694691"><ele>327</ele><time>2020-10-28T11:51:51Z</time><name>PT4555</name></trkpt>
<trkpt lat="53.112618" lon="-1.694693"><ele>327</ele><time>2020-10-28T11:51:52Z</time><name>PT4556</name></trkpt>
<trkpt lat="53.112607" lon="-1.694696"><ele>327</ele><time>2020-10-28T11:51:53Z</time><name>PT4557</name></trkpt>
<trkpt lat="53.112598" lon="-1.694699"><ele>327</ele><time>2020-10-28T11:51:54Z</time><name>PT4558</name></trkpt>
<trkpt lat="53.112586" lon="-1.694700"><ele>327</ele><time>2020-10-28T11:51:55Z</time><name>PT4559</name></trkpt>
<trkpt lat="53.112573" lon="-1.694699"><ele>327</ele><time>2020-10-28T11:51:55Z</time><name>PT4560</name></trkpt>
<trkpt lat="53.112562" lon="-1.694700"><ele>327</ele><time>2020-10-28T11:51:57Z</time><name>PT4561</name></trkpt>
<trkpt lat="53.112551" lon="-1.694706"><ele>326</ele><time>2020-10-28T11:51:58Z</time><name>PT4562</name></trkpt>
<trkpt lat="53.112538" lon="-1.694705"><ele>326</ele><time>2020-10-28T11:51:59Z</time><name>PT4563</name></trkpt>
<trkpt lat="53.112524" lon="-1.694705"><ele>326</ele><time>2020-10-28T11:52:00Z</time><name>PT4564</name></trkpt>
<trkpt lat="53.112510" lon="-1.694703"><ele>327</ele><time>2020-10-28T11:52:01Z</time><name>PT4565</name></trkpt>
<trkpt lat="53.112500" lon="-1.694706"><ele>326</ele><time>2020-10-28T11:52:01Z</time><name>PT4566</name></trkpt>
<trkpt lat="53.112486" lon="-1.694709"><ele>326</ele><time>2020-10-28T11:52:03Z</time><name>PT4567</name></trkpt>
<trkpt lat="53.112473" lon="-1.694712"><ele>326</ele><time>2020-10-28T11:52:04Z</time><name>PT4568</name></trkpt>
<trkpt lat="53.112459" lon="-1.694717"><ele>327</ele><time>2020-10-28T11:52:04Z</time><name>PT4569</name></trkpt>
<trkpt lat="53.112448" lon="-1.694720"><ele>326</ele><time>2020-10-28T11:52:06Z</time><name>PT4570</name></trkpt>
<trkpt lat="53.112438" lon="-1.694725"><ele>325</ele><time>2020-10-28T11:52:07Z</time><name>PT4571</name></trkpt>
<trkpt lat="53.112428" lon="-1.694731"><ele>325</ele><time>2020-10-28T11:52:07Z</time><name>PT4572</name></trkpt>
<trkpt lat="53.112416" lon="-1.694738"><ele>325</ele><time>2020-10-28T11:52:09Z</time><name>PT4573</name></trkpt>
<trkpt lat="53.112401" lon="-1.694746"><ele>326</ele><time>2020-10-28T11:52:10Z</time><name>PT4574</name></trkpt>
<trkpt lat="53.112387" lon="-1.694748"><ele>326</ele><time>2020-10-28T11:52:10Z</time><name>PT4575</name></trkpt>
<trkpt lat="53.112371" lon="-1.694745"><ele>326</ele><time>2020-10-28T11:52:12Z</time><name>PT4576</name></trkpt>
<trkpt lat="53.112360" lon="-1.694752"><ele>325</ele><time>2020-10-28T11:52:13Z</time><name>PT4577</name></trkpt>
<trkpt lat="53.112344" lon="-1.694753"><ele>326</ele><time>2020-10-28T11:52:13Z</time><name>PT4578</name></trkpt>
<trkpt lat="53.112331" lon="-1.694755"><ele>326</ele><time>2020-10-28T11:52:15Z</time><name>PT4579</name></trkpt>
<trkpt lat="53.112318" lon="-1.694755"><ele>326</ele><time>2020-10-28T11:52:16Z</time><name>PT4580</name></trkpt>
<trkpt lat="53.112304" lon="-1.694755"><ele>326</ele><time>2020-10-28T11:52:16Z</time><name>PT4581</name></trkpt>
<trkpt lat="53.112290" lon="-1.694757"><ele>326</ele><time>2020-10-28T11:52:18Z</time><name>PT4582</name></trkpt>
<trkpt lat="53.112276" lon="-1.694757"><ele>326</ele><time>2020-10-28T11:52:19Z</time><name>PT4583</name></trkpt>
<trkpt lat="53.112263" lon="-1.694755"><ele>327</ele><time>2020-10-28T11:52:19Z</time><name>PT4584</name></trkpt>
<trkpt lat="53.112249" lon="-1.694754"><ele>327</ele><time>2020-10-28T11:52:21Z</time><name>PT4585</name></trkpt>
<trkpt lat="53.112233" lon="-1.694755"><ele>328</ele><time>2020-10-28T11:52:22Z</time><name>PT4586</name></trkpt>
<trkpt lat="53.112220" lon="-1.694754"><ele>328</ele><time>2020-10-28T11:52:22Z</time><name>PT4587</name></trkpt>
<trkpt lat="53.112206" lon="-1.694749"><ele>329</ele><time>2020-10-28T11:52:24Z</time><name>PT4588</name></trkpt>
<trkpt lat="53.112193" lon="-1.694751"><ele>329</ele><time>2020-10-28T11:52:25Z</time><name>PT4589</name></trkpt>
<trkpt lat="53.112180" lon="-1.694751"><ele>329</ele><time>2020-10-28T11:52:25Z</time><name>PT4590</name></trkpt>
<trkpt lat="53.112168" lon="-1.694757"><ele>329</ele><time>2020-10-28T11:52:27Z</time><name>PT4591</name></trkpt>
<trkpt lat="53.112156" lon="-1.694765"><ele>329</ele><time>2020-10-28T11:52:28Z</time><name>PT4592</name></trkpt>
<trkpt lat="53.112118" lon="-1.694795"><ele>327</ele><time>2020-10-28T11:52:31Z</time><name>PT4593</name></trkpt>
<trkpt lat="53.112069" lon="-1.694819"><ele>328</ele><time>2020-10-28T11:52:36Z</time><name>PT4594</name></trkpt>
<trkpt lat="53.112042" lon="-1.694845"><ele>327</ele><time>2020-10-28T11:52:39Z</time><name>PT4595</name></trkpt>
<trkpt lat="53.112010" lon="-1.694855"><ele>326</ele><time>2020-10-28T11:52:42Z</time><name>PT4596</name></trkpt>
<trkpt lat="53.111970" lon="-1.694877"><ele>325</ele><time>2020-10-28T11:52:46Z</time><name>PT4597</name></trkpt>
<trkpt lat="53.111924" lon="-1.694893"><ele>324</ele><time>2020-10-28T11:52:49Z</time><name>PT4598</name></trkpt>
<trkpt lat="53.111887" lon="-1.694903"><ele>325</ele><time>2020-10-28T11:52:53Z</time><name>PT4599</name></trkpt>
<trkpt lat="53.111838" lon="-1.694918"><ele>324</ele><time>2020-10-28T11:52:57Z</time><name>PT4600</name></trkpt>
<trkpt lat="53.111798" lon="-1.694932"><ele>325</ele><time>2020-10-28T11:53:00Z</time><name>PT4601</name></trkpt>
<trkpt lat="53.111753" lon="-1.694931"><ele>326</ele><time>2020-10-28T11:53:03Z</time><name>PT4602</name></trkpt>
<trkpt lat="53.111708" lon="-1.694952"><ele>324</ele><time>2020-10-28T11:53:07Z</time><name>PT4603</name></trkpt>
<trkpt lat="53.111659" lon="-1.694958"><ele>324</ele><time>2020-10-28T11:53:10Z</time><name>PT4604</name></trkpt>
<trkpt lat="53.111617" lon="-1.694953"><ele>325</ele><time>2020-10-28T11:53:13Z</time><name>PT4605</name></trkpt>
<trkpt lat="53.111560" lon="-1.694951"><ele>326</ele><time>2020-10-28T11:53:18Z</time><name>PT4606</name></trkpt>
<trkpt lat="53.111507" lon="-1.694950"><ele>327</ele><time>2020-10-28T11:53:22Z</time><name>PT4607</name></trkpt>
<trkpt lat="53.111469" lon="-1.694939"><ele>326</ele><time>2020-10-28T11:53:25Z</time><name>PT4608</name></trkpt>
<trkpt lat="53.111394" lon="-1.694921"><ele>331</ele><time>2020-10-28T11:53:28Z</time><name>PT4609</name></trkpt>
<trkpt lat="53.111372" lon="-1.694918"><ele>332</ele><time>2020-10-28T11:53:33Z</time><name>PT4610</name></trkpt>
<trkpt lat="53.111372" lon="-1.694917"><ele>332</ele><time>2020-10-28T11:53:34Z</time><name>PT4611</name></trkpt>
<trkpt lat="53.111371" lon="-1.694920"><ele>331</ele><time>2020-10-28T11:53:37Z</time><name>PT4612</name></trkpt>
<trkpt lat="53.111372" lon="-1.694925"><ele>332</ele><time>2020-10-28T11:53:37Z</time><name>PT4613</name></trkpt>
<trkpt lat="53.111372" lon="-1.694924"><ele>332</ele><time>2020-10-28T11:53:39Z</time><name>PT4614</name></trkpt>
<trkpt lat="53.111369" lon="-1.694926"><ele>332</ele><time>2020-10-28T11:54:00Z</time><name>PT4615</name></trkpt>
<trkpt lat="53.111369" lon="-1.694924"><ele>332</ele><time>2020-10-28T11:54:01Z</time><name>PT4616</name></trkpt>
<trkpt lat="53.111371" lon="-1.694922"><ele>332</ele><time>2020-10-28T11:54:01Z</time><name>PT4617</name></trkpt>
<trkpt lat="53.111371" lon="-1.694923"><ele>332</ele><time>2020-10-28T11:54:03Z</time><name>PT4618</name></trkpt>
<trkpt lat="53.111374" lon="-1.694924"><ele>332</ele><time>2020-10-28T11:54:04Z</time><name>PT4619</name></trkpt>
<trkpt lat="53.111376" lon="-1.694926"><ele>331</ele><time>2020-10-28T11:54:04Z</time><name>PT4620</name></trkpt>
<trkpt lat="53.111377" lon="-1.694918"><ele>331</ele><time>2020-10-28T11:54:35Z</time><name>PT4621</name></trkpt>
<trkpt lat="53.111377" lon="-1.694916"><ele>331</ele><time>2020-10-28T11:54:36Z</time><name>PT4622</name></trkpt>
<trkpt lat="53.111376" lon="-1.694906"><ele>331</ele><time>2020-10-28T11:54:39Z</time><name>PT4623</name></trkpt>
<trkpt lat="53.111374" lon="-1.694905"><ele>331</ele><time>2020-10-28T11:54:40Z</time><name>PT4624</name></trkpt>
<trkpt lat="53.111368" lon="-1.694914"><ele>330</ele><time>2020-10-28T11:54:40Z</time><name>PT4625</name></trkpt>
<trkpt lat="53.111367" lon="-1.694913"><ele>330</ele><time>2020-10-28T11:54:42Z</time><name>PT4626</name></trkpt>
<trkpt lat="53.111368" lon="-1.694913"><ele>330</ele><time>2020-10-28T11:54:43Z</time><name>PT4627</name></trkpt>
<trkpt lat="53.111369" lon="-1.694912"><ele>330</ele><time>2020-10-28T11:54:43Z</time><name>PT4628</name></trkpt>
<trkpt lat="53.111369" lon="-1.694910"><ele>330</ele><time>2020-10-28T11:54:45Z</time><name>PT4629</name></trkpt>
<trkpt lat="53.111371" lon="-1.694907"><ele>330</ele><time>2020-10-28T11:54:46Z</time><name>PT4630</name></trkpt>
<trkpt lat="53.111374" lon="-1.694902"><ele>330</ele><time>2020-10-28T11:54:46Z</time><name>PT4631</name></trkpt>
<trkpt lat="53.111378" lon="-1.694907"><ele>329</ele><time>2020-10-28T11:54:48Z</time><name>PT4632</name></trkpt>
<trkpt lat="53.111378" lon="-1.694909"><ele>329</ele><time>2020-10-28T11:54:49Z</time><name>PT4633</name></trkpt>
<trkpt lat="53.111376" lon="-1.694910"><ele>329</ele><time>2020-10-28T11:54:49Z</time><name>PT4634</name></trkpt>
<trkpt lat="53.111378" lon="-1.694914"><ele>329</ele><time>2020-10-28T11:54:52Z</time><name>PT4635</name></trkpt>
<trkpt lat="53.111385" lon="-1.694924"><ele>329</ele><time>2020-10-28T11:54:54Z</time><name>PT4636</name></trkpt>
<trkpt lat="53.111393" lon="-1.694924"><ele>329</ele><time>2020-10-28T11:54:55Z</time><name>PT4637</name></trkpt>
<trkpt lat="53.111394" lon="-1.694924"><ele>328</ele><time>2020-10-28T11:54:55Z</time><name>PT4638</name></trkpt>
<trkpt lat="53.111392" lon="-1.694922"><ele>328</ele><time>2020-10-28T11:54:57Z</time><name>PT4639</name></trkpt>
<trkpt lat="53.111391" lon="-1.694925"><ele>329</ele><time>2020-10-28T11:54:58Z</time><name>PT4640</name></trkpt>
<trkpt lat="53.111395" lon="-1.694924"><ele>329</ele><time>2020-10-28T11:54:58Z</time><name>PT4641</name></trkpt>
<trkpt lat="53.111394" lon="-1.694927"><ele>329</ele><time>2020-10-28T11:55:00Z</time><name>PT4642</name></trkpt>
<trkpt lat="53.111393" lon="-1.694926"><ele>329</ele><time>2020-10-28T11:55:01Z</time><name>PT4643</name></trkpt>
<trkpt lat="53.111396" lon="-1.694928"><ele>329</ele><time>2020-10-28T11:55:01Z</time><name>PT4644</name></trkpt>
<trkpt lat="53.111399" lon="-1.694929"><ele>329</ele><time>2020-10-28T11:55:03Z</time><name>PT4645</name></trkpt>
<trkpt lat="53.111406" lon="-1.694934"><ele>329</ele><time>2020-10-28T11:55:04Z</time><name>PT4646</name></trkpt>
<trkpt lat="53.111415" lon="-1.694934"><ele>329</ele><time>2020-10-28T11:55:04Z</time><name>PT4647</name></trkpt>
<trkpt lat="53.111427" lon="-1.694930"><ele>329</ele><time>2020-10-28T11:55:06Z</time><name>PT4648</name></trkpt>
<trkpt lat="53.111438" lon="-1.694924"><ele>329</ele><time>2020-10-28T11:55:07Z</time><name>PT4649</name></trkpt>
<trkpt lat="53.111453" lon="-1.694931"><ele>329</ele><time>2020-10-28T11:55:08Z</time><name>PT4650</name></trkpt>
<trkpt lat="53.111464" lon="-1.694932"><ele>330</ele><time>2020-10-28T11:55:09Z</time><name>PT4651</name></trkpt>
<trkpt lat="53.111473" lon="-1.694930"><ele>330</ele><time>2020-10-28T11:55:10Z</time><name>PT4652</name></trkpt>
<trkpt lat="53.111484" lon="-1.694929"><ele>330</ele><time>2020-10-28T11:55:10Z</time><name>PT4653</name></trkpt>
<trkpt lat="53.111493" lon="-1.694928"><ele>330</ele><time>2020-10-28T11:55:12Z</time><name>PT4654</name></trkpt>
<trkpt lat="53.111503" lon="-1.694927"><ele>330</ele><time>2020-10-28T11:55:13Z</time><name>PT4655</name></trkpt>
<trkpt lat="53.111514" lon="-1.694924"><ele>330</ele><time>2020-10-28T11:55:13Z</time><name>PT4656</name></trkpt>
<trkpt lat="53.111524" lon="-1.694924"><ele>330</ele><time>2020-10-28T11:55:15Z</time><name>PT4657</name></trkpt>
<trkpt lat="53.111533" lon="-1.694924"><ele>330</ele><time>2020-10-28T11:55:16Z</time><name>PT4658</name></trkpt>
<trkpt lat="53.111544" lon="-1.694919"><ele>330</ele><time>2020-10-28T11:55:16Z</time><name>PT4659</name></trkpt>
<trkpt lat="53.111556" lon="-1.694914"><ele>330</ele><time>2020-10-28T11:55:18Z</time><name>PT4660</name></trkpt>
<trkpt lat="53.111565" lon="-1.694911"><ele>330</ele><time>2020-10-28T11:55:19Z</time><name>PT4661</name></trkpt>
<trkpt lat="53.111568" lon="-1.694911"><ele>330</ele><time>2020-10-28T11:55:20Z</time><name>PT4662</name></trkpt>
<trkpt lat="53.111570" lon="-1.694913"><ele>330</ele><time>2020-10-28T11:55:21Z</time><name>PT4663</name></trkpt>
<trkpt lat="53.111571" lon="-1.694913"><ele>331</ele><time>2020-10-28T11:55:22Z</time><name>PT4664</name></trkpt>
<trkpt lat="53.111573" lon="-1.694916"><ele>331</ele><time>2020-10-28T11:55:22Z</time><name>PT4665</name></trkpt>
<trkpt lat="53.111579" lon="-1.694919"><ele>330</ele><time>2020-10-28T11:55:24Z</time><name>PT4666</name></trkpt>
<trkpt lat="53.111586" lon="-1.694917"><ele>331</ele><time>2020-10-28T11:55:25Z</time><name>PT4667</name></trkpt>
<trkpt lat="53.111596" lon="-1.694910"><ele>330</ele><time>2020-10-28T11:55:26Z</time><name>PT4668</name></trkpt>
<trkpt lat="53.111608" lon="-1.694909"><ele>330</ele><time>2020-10-28T11:55:27Z</time><name>PT4669</name></trkpt>
<trkpt lat="53.111620" lon="-1.694911"><ele>331</ele><time>2020-10-28T11:55:28Z</time><name>PT4670</name></trkpt>
<trkpt lat="53.111630" lon="-1.694907"><ele>331</ele><time>2020-10-28T11:55:28Z</time><name>PT4671</name></trkpt>
<trkpt lat="53.111642" lon="-1.694901"><ele>331</ele><time>2020-10-28T11:55:30Z</time><name>PT4672</name></trkpt>
<trkpt lat="53.111657" lon="-1.694900"><ele>330</ele><time>2020-10-28T11:55:31Z</time><name>PT4673</name></trkpt>
<trkpt lat="53.111671" lon="-1.694896"><ele>330</ele><time>2020-10-28T11:55:31Z</time><name>PT4674</name></trkpt>
<trkpt lat="53.111684" lon="-1.694893"><ele>330</ele><time>2020-10-28T11:55:33Z</time><name>PT4675</name></trkpt>
<trkpt lat="53.111696" lon="-1.694896"><ele>330</ele><time>2020-10-28T11:55:34Z</time><name>PT4676</name></trkpt>
<trkpt lat="53.111712" lon="-1.694897"><ele>329</ele><time>2020-10-28T11:55:34Z</time><name>PT4677</name></trkpt>
<trkpt lat="53.111728" lon="-1.694895"><ele>329</ele><time>2020-10-28T11:55:36Z</time><name>PT4678</name></trkpt>
<trkpt lat="53.111743" lon="-1.694898"><ele>329</ele><time>2020-10-28T11:55:37Z</time><name>PT4679</name></trkpt>
<trkpt lat="53.111758" lon="-1.694890"><ele>330</ele><time>2020-10-28T11:55:37Z</time><name>PT4680</name></trkpt>
<trkpt lat="53.111766" lon="-1.694881"><ele>330</ele><time>2020-10-28T11:55:39Z</time><name>PT4681</name></trkpt>
<trkpt lat="53.111782" lon="-1.694880"><ele>331</ele><time>2020-10-28T11:55:40Z</time><name>PT4682</name></trkpt>
<trkpt lat="53.111793" lon="-1.694879"><ele>331</ele><time>2020-10-28T11:55:40Z</time><name>PT4683</name></trkpt>
<trkpt lat="53.111806" lon="-1.694878"><ele>331</ele><time>2020-10-28T11:55:42Z</time><name>PT4684</name></trkpt>
<trkpt lat="53.111817" lon="-1.694875"><ele>331</ele><time>2020-10-28T11:55:43Z</time><name>PT4685</name></trkpt>
<trkpt lat="53.111828" lon="-1.694871"><ele>331</ele><time>2020-10-28T11:55:43Z</time><name>PT4686</name></trkpt>
<trkpt lat="53.111841" lon="-1.694871"><ele>331</ele><time>2020-10-28T11:55:45Z</time><name>PT4687</name></trkpt>
<trkpt lat="53.111852" lon="-1.694871"><ele>331</ele><time>2020-10-28T11:55:46Z</time><name>PT4688</name></trkpt>
<trkpt lat="53.111861" lon="-1.694869"><ele>331</ele><time>2020-10-28T11:55:46Z</time><name>PT4689</name></trkpt>
<trkpt lat="53.111869" lon="-1.694863"><ele>330</ele><time>2020-10-28T11:55:48Z</time><name>PT4690</name></trkpt>
<trkpt lat="53.111875" lon="-1.694851"><ele>330</ele><time>2020-10-28T11:55:49Z</time><name>PT4691</name></trkpt>
<trkpt lat="53.111877" lon="-1.694842"><ele>330</ele><time>2020-10-28T11:55:49Z</time><name>PT4692</name></trkpt>
<trkpt lat="53.111877" lon="-1.694830"><ele>331</ele><time>2020-10-28T11:55:51Z</time><name>PT4693</name></trkpt>
<trkpt lat="53.111874" lon="-1.694824"><ele>331</ele><time>2020-10-28T11:55:52Z</time><name>PT4694</name></trkpt>
<trkpt lat="53.111871" lon="-1.694817"><ele>332</ele><time>2020-10-28T11:55:52Z</time><name>PT4695</name></trkpt>
<trkpt lat="53.111866" lon="-1.694811"><ele>332</ele><time>2020-10-28T11:55:54Z</time><name>PT4696</name></trkpt>
<trkpt lat="53.111860" lon="-1.694803"><ele>332</ele><time>2020-10-28T11:55:55Z</time><name>PT4697</name></trkpt>
<trkpt lat="53.111854" lon="-1.694798"><ele>332</ele><time>2020-10-28T11:55:55Z</time><name>PT4698</name></trkpt>
<trkpt lat="53.111850" lon="-1.694795"><ele>332</ele><time>2020-10-28T11:55:57Z</time><name>PT4699</name></trkpt>
<trkpt lat="53.111846" lon="-1.694792"><ele>332</ele><time>2020-10-28T11:55:58Z</time><name>PT4700</name></trkpt>
<trkpt lat="53.111839" lon="-1.694786"><ele>333</ele><time>2020-10-28T11:55:58Z</time><name>PT4701</name></trkpt>
<trkpt lat="53.111837" lon="-1.694789"><ele>333</ele><time>2020-10-28T11:56:00Z</time><name>PT4702</name></trkpt>
<trkpt lat="53.111836" lon="-1.694785"><ele>332</ele><time>2020-10-28T11:56:01Z</time><name>PT4703</name></trkpt>
<trkpt lat="53.111831" lon="-1.694774"><ele>332</ele><time>2020-10-28T11:56:01Z</time><name>PT4704</name></trkpt>
<trkpt lat="53.111822" lon="-1.694765"><ele>332</ele><time>2020-10-28T11:56:03Z</time><name>PT4705</name></trkpt>
<trkpt lat="53.111812" lon="-1.694758"><ele>332</ele><time>2020-10-28T11:56:04Z</time><name>PT4706</name></trkpt>
<trkpt lat="53.111801" lon="-1.694754"><ele>332</ele><time>2020-10-28T11:56:05Z</time><name>PT4707</name></trkpt>
<trkpt lat="53.111790" lon="-1.694750"><ele>332</ele><time>2020-10-28T11:56:06Z</time><name>PT4708</name></trkpt>
<trkpt lat="53.111782" lon="-1.694746"><ele>332</ele><time>2020-10-28T11:56:07Z</time><name>PT4709</name></trkpt>
<trkpt lat="53.111772" lon="-1.694741"><ele>332</ele><time>2020-10-28T11:56:08Z</time><name>PT4710</name></trkpt>
<trkpt lat="53.111762" lon="-1.694752"><ele>332</ele><time>2020-10-28T11:56:09Z</time><name>PT4711</name></trkpt>
<trkpt lat="53.111755" lon="-1.694760"><ele>332</ele><time>2020-10-28T11:56:10Z</time><name>PT4712</name></trkpt>
<trkpt lat="53.111744" lon="-1.694753"><ele>332</ele><time>2020-10-28T11:56:10Z</time><name>PT4713</name></trkpt>
<trkpt lat="53.111732" lon="-1.694745"><ele>332</ele><time>2020-10-28T11:56:12Z</time><name>PT4714</name></trkpt>
<trkpt lat="53.111722" lon="-1.694740"><ele>332</ele><time>2020-10-28T11:56:13Z</time><name>PT4715</name></trkpt>
<trkpt lat="53.111710" lon="-1.694735"><ele>333</ele><time>2020-10-28T11:56:13Z</time><name>PT4716</name></trkpt>
<trkpt lat="53.111700" lon="-1.694731"><ele>333</ele><time>2020-10-28T11:56:15Z</time><name>PT4717</name></trkpt>
<trkpt lat="53.111689" lon="-1.694725"><ele>333</ele><time>2020-10-28T11:56:16Z</time><name>PT4718</name></trkpt>
<trkpt lat="53.111679" lon="-1.694717"><ele>333</ele><time>2020-10-28T11:56:16Z</time><name>PT4719</name></trkpt>
<trkpt lat="53.111667" lon="-1.694711"><ele>333</ele><time>2020-10-28T11:56:18Z</time><name>PT4720</name></trkpt>
<trkpt lat="53.111655" lon="-1.694708"><ele>333</ele><time>2020-10-28T11:56:19Z</time><name>PT4721</name></trkpt>
<trkpt lat="53.111643" lon="-1.694704"><ele>333</ele><time>2020-10-28T11:56:19Z</time><name>PT4722</name></trkpt>
<trkpt lat="53.111632" lon="-1.694700"><ele>334</ele><time>2020-10-28T11:56:21Z</time><name>PT4723</name></trkpt>
<trkpt lat="53.111622" lon="-1.694697"><ele>334</ele><time>2020-10-28T11:56:22Z</time><name>PT4724</name></trkpt>
<trkpt lat="53.111616" lon="-1.694691"><ele>334</ele><time>2020-10-28T11:56:22Z</time><name>PT4725</name></trkpt>
<trkpt lat="53.111605" lon="-1.694686"><ele>334</ele><time>2020-10-28T11:56:24Z</time><name>PT4726</name></trkpt>
<trkpt lat="53.111594" lon="-1.694682"><ele>334</ele><time>2020-10-28T11:56:25Z</time><name>PT4727</name></trkpt>
<trkpt lat="53.111584" lon="-1.694674"><ele>334</ele><time>2020-10-28T11:56:26Z</time><name>PT4728</name></trkpt>
<trkpt lat="53.111574" lon="-1.694669"><ele>334</ele><time>2020-10-28T11:56:27Z</time><name>PT4729</name></trkpt>
<trkpt lat="53.111565" lon="-1.694665"><ele>334</ele><time>2020-10-28T11:56:28Z</time><name>PT4730</name></trkpt>
<trkpt lat="53.111556" lon="-1.694663"><ele>334</ele><time>2020-10-28T11:56:28Z</time><name>PT4731</name></trkpt>
<trkpt lat="53.111549" lon="-1.694660"><ele>335</ele><time>2020-10-28T11:56:30Z</time><name>PT4732</name></trkpt>
<trkpt lat="53.111539" lon="-1.694654"><ele>335</ele><time>2020-10-28T11:56:31Z</time><name>PT4733</name></trkpt>
<trkpt lat="53.111527" lon="-1.694651"><ele>335</ele><time>2020-10-28T11:56:32Z</time><name>PT4734</name></trkpt>
<trkpt lat="53.111514" lon="-1.694641"><ele>336</ele><time>2020-10-28T11:56:33Z</time><name>PT4735</name></trkpt>
<trkpt lat="53.111503" lon="-1.694636"><ele>336</ele><time>2020-10-28T11:56:34Z</time><name>PT4736</name></trkpt>
<trkpt lat="53.111489" lon="-1.694631"><ele>336</ele><time>2020-10-28T11:56:35Z</time><name>PT4737</name></trkpt>
<trkpt lat="53.111476" lon="-1.694623"><ele>336</ele><time>2020-10-28T11:56:36Z</time><name>PT4738</name></trkpt>
<trkpt lat="53.111466" lon="-1.694620"><ele>335</ele><time>2020-10-28T11:56:37Z</time><name>PT4739</name></trkpt>
<trkpt lat="53.111454" lon="-1.694611"><ele>335</ele><time>2020-10-28T11:56:38Z</time><name>PT4740</name></trkpt>
<trkpt lat="53.111443" lon="-1.694604"><ele>335</ele><time>2020-10-28T11:56:39Z</time><name>PT4741</name></trkpt>
<trkpt lat="53.111433" lon="-1.694598"><ele>335</ele><time>2020-10-28T11:56:40Z</time><name>PT4742</name></trkpt>
<trkpt lat="53.111419" lon="-1.694592"><ele>334</ele><time>2020-10-28T11:56:41Z</time><name>PT4743</name></trkpt>
<trkpt lat="53.111409" lon="-1.694585"><ele>335</ele><time>2020-10-28T11:56:42Z</time><name>PT4744</name></trkpt>
<trkpt lat="53.111402" lon="-1.694580"><ele>335</ele><time>2020-10-28T11:56:43Z</time><name>PT4745</name></trkpt>
<trkpt lat="53.111393" lon="-1.694570"><ele>335</ele><time>2020-10-28T11:56:43Z</time><name>PT4746</name></trkpt>
<trkpt lat="53.111386" lon="-1.694565"><ele>335</ele><time>2020-10-28T11:56:45Z</time><name>PT4747</name></trkpt>
<trkpt lat="53.111376" lon="-1.694552"><ele>335</ele><time>2020-10-28T11:56:46Z</time><name>PT4748</name></trkpt>
<trkpt lat="53.111371" lon="-1.694542"><ele>336</ele><time>2020-10-28T11:56:46Z</time><name>PT4749</name></trkpt>
<trkpt lat="53.111371" lon="-1.694532"><ele>336</ele><time>2020-10-28T11:56:48Z</time><name>PT4750</name></trkpt>
<trkpt lat="53.111364" lon="-1.694520"><ele>335</ele><time>2020-10-28T11:56:49Z</time><name>PT4751</name></trkpt>
<trkpt lat="53.111359" lon="-1.694513"><ele>335</ele><time>2020-10-28T11:56:49Z</time><name>PT4752</name></trkpt>
<trkpt lat="53.111352" lon="-1.694502"><ele>336</ele><time>2020-10-28T11:56:51Z</time><name>PT4753</name></trkpt>
<trkpt lat="53.111342" lon="-1.694488"><ele>335</ele><time>2020-10-28T11:56:52Z</time><name>PT4754</name></trkpt>
<trkpt lat="53.111332" lon="-1.694470"><ele>335</ele><time>2020-10-28T11:56:52Z</time><name>PT4755</name></trkpt>
<trkpt lat="53.111325" lon="-1.694457"><ele>335</ele><time>2020-10-28T11:56:54Z</time><name>PT4756</name></trkpt>
<trkpt lat="53.111319" lon="-1.694447"><ele>335</ele><time>2020-10-28T11:56:55Z</time><name>PT4757</name></trkpt>
<trkpt lat="53.111312" lon="-1.694438"><ele>334</ele><time>2020-10-28T11:56:55Z</time><name>PT4758</name></trkpt>
<trkpt lat="53.111304" lon="-1.694424"><ele>334</ele><time>2020-10-28T11:56:57Z</time><name>PT4759</name></trkpt>
<trkpt lat="53.111299" lon="-1.694416"><ele>335</ele><time>2020-10-28T11:56:58Z</time><name>PT4760</name></trkpt>
<trkpt lat="53.111264" lon="-1.694355"><ele>335</ele><time>2020-10-28T11:57:01Z</time><name>PT4761</name></trkpt>
<trkpt lat="53.111242" lon="-1.694313"><ele>336</ele><time>2020-10-28T11:57:04Z</time><name>PT4762</name></trkpt>
<trkpt lat="53.111220" lon="-1.694258"><ele>335</ele><time>2020-10-28T11:57:09Z</time><name>PT4763</name></trkpt>
<trkpt lat="53.111197" lon="-1.694188"><ele>336</ele><time>2020-10-28T11:57:13Z</time><name>PT4764</name></trkpt>
<trkpt lat="53.111171" lon="-1.694118"><ele>337</ele><time>2020-10-28T11:57:16Z</time><name>PT4765</name></trkpt>
<trkpt lat="53.111153" lon="-1.694071"><ele>337</ele><time>2020-10-28T11:57:19Z</time><name>PT4766</name></trkpt>
<trkpt lat="53.111134" lon="-1.694023"><ele>337</ele><time>2020-10-28T11:57:22Z</time><name>PT4767</name></trkpt>
<trkpt lat="53.111107" lon="-1.693963"><ele>338</ele><time>2020-10-28T11:57:27Z</time><name>PT4768</name></trkpt>
<trkpt lat="53.111083" lon="-1.693904"><ele>339</ele><time>2020-10-28T11:57:31Z</time><name>PT4769</name></trkpt>
<trkpt lat="53.111058" lon="-1.693838"><ele>338</ele><time>2020-10-28T11:57:34Z</time><name>PT4770</name></trkpt>
<trkpt lat="53.111034" lon="-1.693767"><ele>337</ele><time>2020-10-28T11:57:39Z</time><name>PT4771</name></trkpt>
<trkpt lat="53.111007" lon="-1.693691"><ele>337</ele><time>2020-10-28T11:57:43Z</time><name>PT4772</name></trkpt>
<trkpt lat="53.110979" lon="-1.693621"><ele>338</ele><time>2020-10-28T11:57:46Z</time><name>PT4773</name></trkpt>
<trkpt lat="53.110959" lon="-1.693555"><ele>338</ele><time>2020-10-28T11:57:51Z</time><name>PT4774</name></trkpt>
<trkpt lat="53.110933" lon="-1.693486"><ele>338</ele><time>2020-10-28T11:57:55Z</time><name>PT4775</name></trkpt>
<trkpt lat="53.110900" lon="-1.693438"><ele>338</ele><time>2020-10-28T11:57:58Z</time><name>PT4776</name></trkpt>
<trkpt lat="53.110874" lon="-1.693389"><ele>337</ele><time>2020-10-28T11:58:01Z</time><name>PT4777</name></trkpt>
<trkpt lat="53.110852" lon="-1.693330"><ele>336</ele><time>2020-10-28T11:58:04Z</time><name>PT4778</name></trkpt>
<trkpt lat="53.110831" lon="-1.693258"><ele>335</ele><time>2020-10-28T11:58:09Z</time><name>PT4779</name></trkpt>
<trkpt lat="53.110807" lon="-1.693215"><ele>335</ele><time>2020-10-28T11:58:12Z</time><name>PT4780</name></trkpt>
<trkpt lat="53.110789" lon="-1.693164"><ele>334</ele><time>2020-10-28T11:58:15Z</time><name>PT4781</name></trkpt>
<trkpt lat="53.110772" lon="-1.693117"><ele>334</ele><time>2020-10-28T11:58:18Z</time><name>PT4782</name></trkpt>
<trkpt lat="53.110746" lon="-1.693028"><ele>334</ele><time>2020-10-28T11:58:22Z</time><name>PT4783</name></trkpt>
<trkpt lat="53.110727" lon="-1.692947"><ele>336</ele><time>2020-10-28T11:58:24Z</time><name>PT4784</name></trkpt>
<trkpt lat="53.110721" lon="-1.692917"><ele>336</ele><time>2020-10-28T11:58:25Z</time><name>PT4785</name></trkpt>
<trkpt lat="53.110713" lon="-1.692894"><ele>337</ele><time>2020-10-28T11:58:26Z</time><name>PT4786</name></trkpt>
<trkpt lat="53.110704" lon="-1.692873"><ele>337</ele><time>2020-10-28T11:58:27Z</time><name>PT4787</name></trkpt>
<trkpt lat="53.110696" lon="-1.692851"><ele>338</ele><time>2020-10-28T11:58:28Z</time><name>PT4788</name></trkpt>
<trkpt lat="53.110687" lon="-1.692831"><ele>338</ele><time>2020-10-28T11:58:28Z</time><name>PT4789</name></trkpt>
<trkpt lat="53.110679" lon="-1.692815"><ele>338</ele><time>2020-10-28T11:58:30Z</time><name>PT4790</name></trkpt>
<trkpt lat="53.110672" lon="-1.692801"><ele>338</ele><time>2020-10-28T11:58:31Z</time><name>PT4791</name></trkpt>
<trkpt lat="53.110664" lon="-1.692789"><ele>338</ele><time>2020-10-28T11:58:32Z</time><name>PT4792</name></trkpt>
<trkpt lat="53.110656" lon="-1.692773"><ele>339</ele><time>2020-10-28T11:58:33Z</time><name>PT4793</name></trkpt>
<trkpt lat="53.110651" lon="-1.692759"><ele>339</ele><time>2020-10-28T11:58:34Z</time><name>PT4794</name></trkpt>
<trkpt lat="53.110642" lon="-1.692741"><ele>339</ele><time>2020-10-28T11:58:35Z</time><name>PT4795</name></trkpt>
<trkpt lat="53.110632" lon="-1.692726"><ele>339</ele><time>2020-10-28T11:58:36Z</time><name>PT4796</name></trkpt>
<trkpt lat="53.110626" lon="-1.692715"><ele>339</ele><time>2020-10-28T11:58:37Z</time><name>PT4797</name></trkpt>
<trkpt lat="53.110615" lon="-1.692703"><ele>340</ele><time>2020-10-28T11:58:38Z</time><name>PT4798</name></trkpt>
<trkpt lat="53.110607" lon="-1.692692"><ele>340</ele><time>2020-10-28T11:58:39Z</time><name>PT4799</name></trkpt>
<trkpt lat="53.110602" lon="-1.692683"><ele>339</ele><time>2020-10-28T11:58:40Z</time><name>PT4800</name></trkpt>
<trkpt lat="53.110595" lon="-1.692667"><ele>339</ele><time>2020-10-28T11:58:41Z</time><name>PT4801</name></trkpt>
<trkpt lat="53.110588" lon="-1.692654"><ele>339</ele><time>2020-10-28T11:58:42Z</time><name>PT4802</name></trkpt>
<trkpt lat="53.110579" lon="-1.692638"><ele>340</ele><time>2020-10-28T11:58:43Z</time><name>PT4803</name></trkpt>
<trkpt lat="53.110571" lon="-1.692623"><ele>340</ele><time>2020-10-28T11:58:43Z</time><name>PT4804</name></trkpt>
<trkpt lat="53.110562" lon="-1.692606"><ele>340</ele><time>2020-10-28T11:58:45Z</time><name>PT4805</name></trkpt>
<trkpt lat="53.110555" lon="-1.692587"><ele>341</ele><time>2020-10-28T11:58:46Z</time><name>PT4806</name></trkpt>
<trkpt lat="53.110549" lon="-1.692574"><ele>341</ele><time>2020-10-28T11:58:46Z</time><name>PT4807</name></trkpt>
<trkpt lat="53.110540" lon="-1.692560"><ele>341</ele><time>2020-10-28T11:58:48Z</time><name>PT4808</name></trkpt>
<trkpt lat="53.110527" lon="-1.692539"><ele>341</ele><time>2020-10-28T11:58:49Z</time><name>PT4809</name></trkpt>
<trkpt lat="53.110520" lon="-1.692524"><ele>341</ele><time>2020-10-28T11:58:49Z</time><name>PT4810</name></trkpt>
<trkpt lat="53.110513" lon="-1.692507"><ele>340</ele><time>2020-10-28T11:58:51Z</time><name>PT4811</name></trkpt>
<trkpt lat="53.110506" lon="-1.692492"><ele>340</ele><time>2020-10-28T11:58:52Z</time><name>PT4812</name></trkpt>
<trkpt lat="53.110498" lon="-1.692478"><ele>340</ele><time>2020-10-28T11:58:52Z</time><name>PT4813</name></trkpt>
<trkpt lat="53.110490" lon="-1.692461"><ele>340</ele><time>2020-10-28T11:58:54Z</time><name>PT4814</name></trkpt>
<trkpt lat="53.110480" lon="-1.692443"><ele>340</ele><time>2020-10-28T11:58:55Z</time><name>PT4815</name></trkpt>
<trkpt lat="53.110472" lon="-1.692428"><ele>340</ele><time>2020-10-28T11:58:55Z</time><name>PT4816</name></trkpt>
<trkpt lat="53.110463" lon="-1.692410"><ele>340</ele><time>2020-10-28T11:58:57Z</time><name>PT4817</name></trkpt>
<trkpt lat="53.110456" lon="-1.692392"><ele>340</ele><time>2020-10-28T11:58:58Z</time><name>PT4818</name></trkpt>
<trkpt lat="53.110447" lon="-1.692376"><ele>340</ele><time>2020-10-28T11:58:58Z</time><name>PT4819</name></trkpt>
<trkpt lat="53.110439" lon="-1.692363"><ele>340</ele><time>2020-10-28T11:59:00Z</time><name>PT4820</name></trkpt>
<trkpt lat="53.110431" lon="-1.692348"><ele>340</ele><time>2020-10-28T11:59:01Z</time><name>PT4821</name></trkpt>
<trkpt lat="53.110422" lon="-1.692330"><ele>341</ele><time>2020-10-28T11:59:01Z</time><name>PT4822</name></trkpt>
<trkpt lat="53.110416" lon="-1.692315"><ele>341</ele><time>2020-10-28T11:59:03Z</time><name>PT4823</name></trkpt>
<trkpt lat="53.110407" lon="-1.692297"><ele>341</ele><time>2020-10-28T11:59:04Z</time><name>PT4824</name></trkpt>
<trkpt lat="53.110400" lon="-1.692283"><ele>341</ele><time>2020-10-28T11:59:04Z</time><name>PT4825</name></trkpt>
<trkpt lat="53.110392" lon="-1.692267"><ele>340</ele><time>2020-10-28T11:59:06Z</time><name>PT4826</name></trkpt>
<trkpt lat="53.110383" lon="-1.692249"><ele>340</ele><time>2020-10-28T11:59:07Z</time><name>PT4827</name></trkpt>
<trkpt lat="53.110376" lon="-1.692232"><ele>340</ele><time>2020-10-28T11:59:07Z</time><name>PT4828</name></trkpt>
<trkpt lat="53.110368" lon="-1.692216"><ele>340</ele><time>2020-10-28T11:59:09Z</time><name>PT4829</name></trkpt>
<trkpt lat="53.110358" lon="-1.692202"><ele>340</ele><time>2020-10-28T11:59:10Z</time><name>PT4830</name></trkpt>
<trkpt lat="53.110350" lon="-1.692185"><ele>340</ele><time>2020-10-28T11:59:10Z</time><name>PT4831</name></trkpt>
<trkpt lat="53.110340" lon="-1.692171"><ele>340</ele><time>2020-10-28T11:59:12Z</time><name>PT4832</name></trkpt>
<trkpt lat="53.110332" lon="-1.692157"><ele>340</ele><time>2020-10-28T11:59:13Z</time><name>PT4833</name></trkpt>
<trkpt lat="53.110327" lon="-1.692147"><ele>340</ele><time>2020-10-28T11:59:14Z</time><name>PT4834</name></trkpt>
<trkpt lat="53.110319" lon="-1.692127"><ele>340</ele><time>2020-10-28T11:59:15Z</time><name>PT4835</name></trkpt>
<trkpt lat="53.110312" lon="-1.692111"><ele>340</ele><time>2020-10-28T11:59:16Z</time><name>PT4836</name></trkpt>
<trkpt lat="53.110305" lon="-1.692101"><ele>340</ele><time>2020-10-28T11:59:16Z</time><name>PT4837</name></trkpt>
<trkpt lat="53.110296" lon="-1.692085"><ele>340</ele><time>2020-10-28T11:59:18Z</time><name>PT4838</name></trkpt>
<trkpt lat="53.110290" lon="-1.692071"><ele>339</ele><time>2020-10-28T11:59:19Z</time><name>PT4839</name></trkpt>
<trkpt lat="53.110284" lon="-1.692052"><ele>340</ele><time>2020-10-28T11:59:19Z</time><name>PT4840</name></trkpt>
<trkpt lat="53.110276" lon="-1.692036"><ele>339</ele><time>2020-10-28T11:59:21Z</time><name>PT4841</name></trkpt>
<trkpt lat="53.110267" lon="-1.692018"><ele>339</ele><time>2020-10-28T11:59:22Z</time><name>PT4842</name></trkpt>
<trkpt lat="53.110256" lon="-1.692001"><ele>339</ele><time>2020-10-28T11:59:22Z</time><name>PT4843</name></trkpt>
<trkpt lat="53.110246" lon="-1.691983"><ele>339</ele><time>2020-10-28T11:59:24Z</time><name>PT4844</name></trkpt>
<trkpt lat="53.110239" lon="-1.691969"><ele>339</ele><time>2020-10-28T11:59:25Z</time><name>PT4845</name></trkpt>
<trkpt lat="53.110232" lon="-1.691952"><ele>339</ele><time>2020-10-28T11:59:25Z</time><name>PT4846</name></trkpt>
<trkpt lat="53.110224" lon="-1.691937"><ele>338</ele><time>2020-10-28T11:59:27Z</time><name>PT4847</name></trkpt>
<trkpt lat="53.110216" lon="-1.691921"><ele>338</ele><time>2020-10-28T11:59:28Z</time><name>PT4848</name></trkpt>
<trkpt lat="53.110205" lon="-1.691902"><ele>339</ele><time>2020-10-28T11:59:28Z</time><name>PT4849</name></trkpt>
<trkpt lat="53.110195" lon="-1.691883"><ele>339</ele><time>2020-10-28T11:59:30Z</time><name>PT4850</name></trkpt>
<trkpt lat="53.110187" lon="-1.691864"><ele>339</ele><time>2020-10-28T11:59:31Z</time><name>PT4851</name></trkpt>
<trkpt lat="53.110178" lon="-1.691844"><ele>339</ele><time>2020-10-28T11:59:31Z</time><name>PT4852</name></trkpt>
<trkpt lat="53.110169" lon="-1.691826"><ele>338</ele><time>2020-10-28T11:59:33Z</time><name>PT4853</name></trkpt>
<trkpt lat="53.110161" lon="-1.691810"><ele>338</ele><time>2020-10-28T11:59:34Z</time><name>PT4854</name></trkpt>
<trkpt lat="53.110152" lon="-1.691791"><ele>338</ele><time>2020-10-28T11:59:34Z</time><name>PT4855</name></trkpt>
<trkpt lat="53.110141" lon="-1.691770"><ele>338</ele><time>2020-10-28T11:59:36Z</time><name>PT4856</name></trkpt>
<trkpt lat="53.110133" lon="-1.691757"><ele>338</ele><time>2020-10-28T11:59:37Z</time><name>PT4857</name></trkpt>
<trkpt lat="53.110128" lon="-1.691744"><ele>338</ele><time>2020-10-28T11:59:38Z</time><name>PT4858</name></trkpt>
<trkpt lat="53.110120" lon="-1.691727"><ele>338</ele><time>2020-10-28T11:59:39Z</time><name>PT4859</name></trkpt>
<trkpt lat="53.110113" lon="-1.691715"><ele>338</ele><time>2020-10-28T11:59:40Z</time><name>PT4860</name></trkpt>
<trkpt lat="53.110104" lon="-1.691699"><ele>338</ele><time>2020-10-28T11:59:41Z</time><name>PT4861</name></trkpt>
<trkpt lat="53.110091" lon="-1.691677"><ele>338</ele><time>2020-10-28T11:59:42Z</time><name>PT4862</name></trkpt>
<trkpt lat="53.110083" lon="-1.691664"><ele>338</ele><time>2020-10-28T11:59:43Z</time><name>PT4863</name></trkpt>
<trkpt lat="53.110075" lon="-1.691644"><ele>338</ele><time>2020-10-28T11:59:44Z</time><name>PT4864</name></trkpt>
<trkpt lat="53.110067" lon="-1.691625"><ele>338</ele><time>2020-10-28T11:59:45Z</time><name>PT4865</name></trkpt>
<trkpt lat="53.110059" lon="-1.691608"><ele>338</ele><time>2020-10-28T11:59:46Z</time><name>PT4866</name></trkpt>
<trkpt lat="53.110052" lon="-1.691591"><ele>338</ele><time>2020-10-28T11:59:47Z</time><name>PT4867</name></trkpt>
<trkpt lat="53.110045" lon="-1.691574"><ele>338</ele><time>2020-10-28T11:59:48Z</time><name>PT4868</name></trkpt>
<trkpt lat="53.110039" lon="-1.691559"><ele>338</ele><time>2020-10-28T11:59:49Z</time><name>PT4869</name></trkpt>
<trkpt lat="53.110032" lon="-1.691540"><ele>338</ele><time>2020-10-28T11:59:50Z</time><name>PT4870</name></trkpt>
<trkpt lat="53.110024" lon="-1.691520"><ele>337</ele><time>2020-10-28T11:59:51Z</time><name>PT4871</name></trkpt>
<trkpt lat="53.110017" lon="-1.691503"><ele>337</ele><time>2020-10-28T11:59:52Z</time><name>PT4872</name></trkpt>
<trkpt lat="53.110009" lon="-1.691490"><ele>337</ele><time>2020-10-28T11:59:52Z</time><name>PT4873</name></trkpt>
<trkpt lat="53.110002" lon="-1.691476"><ele>338</ele><time>2020-10-28T11:59:54Z</time><name>PT4874</name></trkpt>
<trkpt lat="53.109994" lon="-1.691461"><ele>338</ele><time>2020-10-28T11:59:55Z</time><name>PT4875</name></trkpt>
<trkpt lat="53.109987" lon="-1.691444"><ele>338</ele><time>2020-10-28T11:59:55Z</time><name>PT4876</name></trkpt>
<trkpt lat="53.109979" lon="-1.691425"><ele>338</ele><time>2020-10-28T11:59:57Z</time><name>PT4877</name></trkpt>
<trkpt lat="53.109972" lon="-1.691410"><ele>338</ele><time>2020-10-28T11:59:58Z</time><name>PT4878</name></trkpt>
<trkpt lat="53.109962" lon="-1.691391"><ele>338</ele><time>2020-10-28T11:59:58Z</time><name>PT4879</name></trkpt>
<trkpt lat="53.109954" lon="-1.691377"><ele>338</ele><time>2020-10-28T12:00:00Z</time><name>PT4880</name></trkpt>
<trkpt lat="53.109945" lon="-1.691362"><ele>339</ele><time>2020-10-28T12:00:01Z</time><name>PT4881</name></trkpt>
<trkpt lat="53.109936" lon="-1.691346"><ele>339</ele><time>2020-10-28T12:00:01Z</time><name>PT4882</name></trkpt>
<trkpt lat="53.109928" lon="-1.691331"><ele>339</ele><time>2020-10-28T12:00:03Z</time><name>PT4883</name></trkpt>
<trkpt lat="53.109920" lon="-1.691316"><ele>339</ele><time>2020-10-28T12:00:04Z</time><name>PT4884</name></trkpt>
<trkpt lat="53.109911" lon="-1.691301"><ele>339</ele><time>2020-10-28T12:00:04Z</time><name>PT4885</name></trkpt>
<trkpt lat="53.109904" lon="-1.691286"><ele>338</ele><time>2020-10-28T12:00:06Z</time><name>PT4886</name></trkpt>
<trkpt lat="53.109896" lon="-1.691269"><ele>338</ele><time>2020-10-28T12:00:07Z</time><name>PT4887</name></trkpt>
<trkpt lat="53.109888" lon="-1.691248"><ele>338</ele><time>2020-10-28T12:00:07Z</time><name>PT4888</name></trkpt>
<trkpt lat="53.109879" lon="-1.691229"><ele>338</ele><time>2020-10-28T12:00:09Z</time><name>PT4889</name></trkpt>
<trkpt lat="53.109872" lon="-1.691215"><ele>338</ele><time>2020-10-28T12:00:10Z</time><name>PT4890</name></trkpt>
<trkpt lat="53.109864" lon="-1.691196"><ele>337</ele><time>2020-10-28T12:00:10Z</time><name>PT4891</name></trkpt>
<trkpt lat="53.109854" lon="-1.691180"><ele>338</ele><time>2020-10-28T12:00:12Z</time><name>PT4892</name></trkpt>
<trkpt lat="53.109847" lon="-1.691165"><ele>337</ele><time>2020-10-28T12:00:13Z</time><name>PT4893</name></trkpt>
<trkpt lat="53.109839" lon="-1.691146"><ele>337</ele><time>2020-10-28T12:00:13Z</time><name>PT4894</name></trkpt>
<trkpt lat="53.109831" lon="-1.691128"><ele>338</ele><time>2020-10-28T12:00:15Z</time><name>PT4895</name></trkpt>
<trkpt lat="53.109823" lon="-1.691115"><ele>338</ele><time>2020-10-28T12:00:16Z</time><name>PT4896</name></trkpt>
<trkpt lat="53.109815" lon="-1.691095"><ele>338</ele><time>2020-10-28T12:00:16Z</time><name>PT4897</name></trkpt>
<trkpt lat="53.109809" lon="-1.691083"><ele>338</ele><time>2020-10-28T12:00:18Z</time><name>PT4898</name></trkpt>
<trkpt lat="53.109805" lon="-1.691071"><ele>338</ele><time>2020-10-28T12:00:19Z</time><name>PT4899</name></trkpt>
<trkpt lat="53.109802" lon="-1.691060"><ele>338</ele><time>2020-10-28T12:00:19Z</time><name>PT4900</name></trkpt>
<trkpt lat="53.109797" lon="-1.691051"><ele>338</ele><time>2020-10-28T12:00:21Z</time><name>PT4901</name></trkpt>
<trkpt lat="53.109790" lon="-1.691043"><ele>338</ele><time>2020-10-28T12:00:22Z</time><name>PT4902</name></trkpt>
<trkpt lat="53.109783" lon="-1.691030"><ele>338</ele><time>2020-10-28T12:00:22Z</time><name>PT4903</name></trkpt>
<trkpt lat="53.109778" lon="-1.691018"><ele>338</ele><time>2020-10-28T12:00:24Z</time><name>PT4904</name></trkpt>
<trkpt lat="53.109770" lon="-1.691003"><ele>338</ele><time>2020-10-28T12:00:25Z</time><name>PT4905</name></trkpt>
<trkpt lat="53.109761" lon="-1.690987"><ele>338</ele><time>2020-10-28T12:00:25Z</time><name>PT4906</name></trkpt>
<trkpt lat="53.109751" lon="-1.690972"><ele>338</ele><time>2020-10-28T12:00:27Z</time><name>PT4907</name></trkpt>
<trkpt lat="53.109743" lon="-1.690959"><ele>338</ele><time>2020-10-28T12:00:28Z</time><name>PT4908</name></trkpt>
<trkpt lat="53.109736" lon="-1.690942"><ele>338</ele><time>2020-10-28T12:00:28Z</time><name>PT4909</name></trkpt>
<trkpt lat="53.109730" lon="-1.690925"><ele>338</ele><time>2020-10-28T12:00:30Z</time><name>PT4910</name></trkpt>
<trkpt lat="53.109723" lon="-1.690911"><ele>338</ele><time>2020-10-28T12:00:31Z</time><name>PT4911</name></trkpt>
<trkpt lat="53.109715" lon="-1.690893"><ele>339</ele><time>2020-10-28T12:00:31Z</time><name>PT4912</name></trkpt>
<trkpt lat="53.109707" lon="-1.690879"><ele>340</ele><time>2020-10-28T12:00:33Z</time><name>PT4913</name></trkpt>
<trkpt lat="53.109699" lon="-1.690863"><ele>340</ele><time>2020-10-28T12:00:34Z</time><name>PT4914</name></trkpt>
<trkpt lat="53.109689" lon="-1.690843"><ele>340</ele><time>2020-10-28T12:00:34Z</time><name>PT4915</name></trkpt>
<trkpt lat="53.109681" lon="-1.690825"><ele>339</ele><time>2020-10-28T12:00:36Z</time><name>PT4916</name></trkpt>
<trkpt lat="53.109674" lon="-1.690809"><ele>339</ele><time>2020-10-28T12:00:37Z</time><name>PT4917</name></trkpt>
<trkpt lat="53.109666" lon="-1.690789"><ele>339</ele><time>2020-10-28T12:00:37Z</time><name>PT4918</name></trkpt>
<trkpt lat="53.109658" lon="-1.690773"><ele>340</ele><time>2020-10-28T12:00:39Z</time><name>PT4919</name></trkpt>
<trkpt lat="53.109650" lon="-1.690759"><ele>340</ele><time>2020-10-28T12:00:40Z</time><name>PT4920</name></trkpt>
<trkpt lat="53.109643" lon="-1.690744"><ele>339</ele><time>2020-10-28T12:00:40Z</time><name>PT4921</name></trkpt>
<trkpt lat="53.109636" lon="-1.690729"><ele>340</ele><time>2020-10-28T12:00:42Z</time><name>PT4922</name></trkpt>
<trkpt lat="53.109627" lon="-1.690714"><ele>339</ele><time>2020-10-28T12:00:43Z</time><name>PT4923</name></trkpt>
<trkpt lat="53.109617" lon="-1.690700"><ele>339</ele><time>2020-10-28T12:00:44Z</time><name>PT4924</name></trkpt>
<trkpt lat="53.109608" lon="-1.690688"><ele>340</ele><time>2020-10-28T12:00:45Z</time><name>PT4925</name></trkpt>
<trkpt lat="53.109599" lon="-1.690674"><ele>340</ele><time>2020-10-28T12:00:46Z</time><name>PT4926</name></trkpt>
<trkpt lat="53.109591" lon="-1.690661"><ele>340</ele><time>2020-10-28T12:00:47Z</time><name>PT4927</name></trkpt>
<trkpt lat="53.109583" lon="-1.690647"><ele>341</ele><time>2020-10-28T12:00:48Z</time><name>PT4928</name></trkpt>
<trkpt lat="53.109574" lon="-1.690631"><ele>340</ele><time>2020-10-28T12:00:49Z</time><name>PT4929</name></trkpt>
<trkpt lat="53.109562" lon="-1.690614"><ele>340</ele><time>2020-10-28T12:00:49Z</time><name>PT4930</name></trkpt>
<trkpt lat="53.109554" lon="-1.690605"><ele>340</ele><time>2020-10-28T12:00:51Z</time><name>PT4931</name></trkpt>
<trkpt lat="53.109542" lon="-1.690593"><ele>339</ele><time>2020-10-28T12:00:52Z</time><name>PT4932</name></trkpt>
<trkpt lat="53.109535" lon="-1.690590"><ele>339</ele><time>2020-10-28T12:00:53Z</time><name>PT4933</name></trkpt>
<trkpt lat="53.109524" lon="-1.690589"><ele>339</ele><time>2020-10-28T12:00:54Z</time><name>PT4934</name></trkpt>
<trkpt lat="53.109516" lon="-1.690575"><ele>340</ele><time>2020-10-28T12:00:55Z</time><name>PT4935</name></trkpt>
<trkpt lat="53.109511" lon="-1.690566"><ele>340</ele><time>2020-10-28T12:00:55Z</time><name>PT4936</name></trkpt>
<trkpt lat="53.109507" lon="-1.690565"><ele>341</ele><time>2020-10-28T12:00:57Z</time><name>PT4937</name></trkpt>
<trkpt lat="53.109506" lon="-1.690565"><ele>340</ele><time>2020-10-28T12:00:58Z</time><name>PT4938</name></trkpt>
<trkpt lat="53.109505" lon="-1.690562"><ele>340</ele><time>2020-10-28T12:00:58Z</time><name>PT4939</name></trkpt>
<trkpt lat="53.109504" lon="-1.690559"><ele>340</ele><time>2020-10-28T12:01:00Z</time><name>PT4940</name></trkpt>
<trkpt lat="53.109502" lon="-1.690554"><ele>340</ele><time>2020-10-28T12:01:01Z</time><name>PT4941</name></trkpt>
<trkpt lat="53.109496" lon="-1.690547"><ele>340</ele><time>2020-10-28T12:01:01Z</time><name>PT4942</name></trkpt>
<trkpt lat="53.109492" lon="-1.690556"><ele>340</ele><time>2020-10-28T12:01:03Z</time><name>PT4943</name></trkpt>
<trkpt lat="53.109488" lon="-1.690565"><ele>340</ele><time>2020-10-28T12:01:04Z</time><name>PT4944</name></trkpt>
<trkpt lat="53.109485" lon="-1.690577"><ele>339</ele><time>2020-10-28T12:01:04Z</time><name>PT4945</name></trkpt>
<trkpt lat="53.109480" lon="-1.690591"><ele>339</ele><time>2020-10-28T12:01:06Z</time><name>PT4946</name></trkpt>
<trkpt lat="53.109474" lon="-1.690604"><ele>338</ele><time>2020-10-28T12:01:07Z</time><name>PT4947</name></trkpt>
<trkpt lat="53.109466" lon="-1.690614"><ele>339</ele><time>2020-10-28T12:01:07Z</time><name>PT4948</name></trkpt>
<trkpt lat="53.109461" lon="-1.690618"><ele>339</ele><time>2020-10-28T12:01:09Z</time><name>PT4949</name></trkpt>
<trkpt lat="53.109456" lon="-1.690626"><ele>339</ele><time>2020-10-28T12:01:10Z</time><name>PT4950</name></trkpt>
<trkpt lat="53.109451" lon="-1.690631"><ele>339</ele><time>2020-10-28T12:01:10Z</time><name>PT4951</name></trkpt>
<trkpt lat="53.109446" lon="-1.690638"><ele>339</ele><time>2020-10-28T12:01:12Z</time><name>PT4952</name></trkpt>
<trkpt lat="53.109442" lon="-1.690647"><ele>338</ele><time>2020-10-28T12:01:13Z</time><name>PT4953</name></trkpt>
<trkpt lat="53.109438" lon="-1.690659"><ele>338</ele><time>2020-10-28T12:01:14Z</time><name>PT4954</name></trkpt>
<trkpt lat="53.109436" lon="-1.690662"><ele>338</ele><time>2020-10-28T12:01:15Z</time><name>PT4955</name></trkpt>
<trkpt lat="53.109436" lon="-1.690661"><ele>338</ele><time>2020-10-28T12:01:16Z</time><name>PT4956</name></trkpt>
<trkpt lat="53.109436" lon="-1.690658"><ele>338</ele><time>2020-10-28T12:01:17Z</time><name>PT4957</name></trkpt>
<trkpt lat="53.109435" lon="-1.690657"><ele>338</ele><time>2020-10-28T12:01:18Z</time><name>PT4958</name></trkpt>
<trkpt lat="53.109432" lon="-1.690659"><ele>338</ele><time>2020-10-28T12:01:19Z</time><name>PT4959</name></trkpt>
<trkpt lat="53.109431" lon="-1.690657"><ele>338</ele><time>2020-10-28T12:01:19Z</time><name>PT4960</name></trkpt>
<trkpt lat="53.109429" lon="-1.690657"><ele>338</ele><time>2020-10-28T12:01:21Z</time><name>PT4961</name></trkpt>
<trkpt lat="53.109430" lon="-1.690654"><ele>338</ele><time>2020-10-28T12:01:22Z</time><name>PT4962</name></trkpt>
<trkpt lat="53.109431" lon="-1.690649"><ele>338</ele><time>2020-10-28T12:01:22Z</time><name>PT4963</name></trkpt>
<trkpt lat="53.109431" lon="-1.690647"><ele>338</ele><time>2020-10-28T12:01:24Z</time><name>PT4964</name></trkpt>
<trkpt lat="53.109432" lon="-1.690644"><ele>338</ele><time>2020-10-28T12:01:25Z</time><name>PT4965</name></trkpt>
<trkpt lat="53.109421" lon="-1.690667"><ele>337</ele><time>2020-10-28T12:01:30Z</time><name>PT4966</name></trkpt>
<trkpt lat="53.109399" lon="-1.690704"><ele>337</ele><time>2020-10-28T12:01:33Z</time><name>PT4967</name></trkpt>
<trkpt lat="53.109384" lon="-1.690740"><ele>336</ele><time>2020-10-28T12:01:36Z</time><name>PT4968</name></trkpt>
<trkpt lat="53.109367" lon="-1.690786"><ele>337</ele><time>2020-10-28T12:01:39Z</time><name>PT4969</name></trkpt>
<trkpt lat="53.109359" lon="-1.690840"><ele>335</ele><time>2020-10-28T12:01:42Z</time><name>PT4970</name></trkpt>
<trkpt lat="53.109334" lon="-1.690894"><ele>334</ele><time>2020-10-28T12:01:46Z</time><name>PT4971</name></trkpt>
<trkpt lat="53.109314" lon="-1.690939"><ele>333</ele><time>2020-10-28T12:01:49Z</time><name>PT4972</name></trkpt>
<trkpt lat="53.109289" lon="-1.690995"><ele>332</ele><time>2020-10-28T12:01:52Z</time><name>PT4973</name></trkpt>
<trkpt lat="53.109264" lon="-1.691038"><ele>332</ele><time>2020-10-28T12:01:55Z</time><name>PT4974</name></trkpt>
<trkpt lat="53.109239" lon="-1.691094"><ele>332</ele><time>2020-10-28T12:01:58Z</time><name>PT4975</name></trkpt>
<trkpt lat="53.109209" lon="-1.691166"><ele>332</ele><time>2020-10-28T12:02:03Z</time><name>PT4976</name></trkpt>
<trkpt lat="53.109181" lon="-1.691241"><ele>332</ele><time>2020-10-28T12:02:07Z</time><name>PT4977</name></trkpt>
<trkpt lat="53.109144" lon="-1.691308"><ele>333</ele><time>2020-10-28T12:02:10Z</time><name>PT4978</name></trkpt>
<trkpt lat="53.109116" lon="-1.691358"><ele>333</ele><time>2020-10-28T12:02:13Z</time><name>PT4979</name></trkpt>
<trkpt lat="53.109085" lon="-1.691422"><ele>332</ele><time>2020-10-28T12:02:18Z</time><name>PT4980</name></trkpt>
<trkpt lat="53.109052" lon="-1.691486"><ele>332</ele><time>2020-10-28T12:02:22Z</time><name>PT4981</name></trkpt>
<trkpt lat="53.109029" lon="-1.691536"><ele>332</ele><time>2020-10-28T12:02:25Z</time><name>PT4982</name></trkpt>
<trkpt lat="53.108984" lon="-1.691603"><ele>332</ele><time>2020-10-28T12:02:28Z</time><name>PT4983</name></trkpt>
<trkpt lat="53.108946" lon="-1.691670"><ele>332</ele><time>2020-10-28T12:02:33Z</time><name>PT4984</name></trkpt>
<trkpt lat="53.108914" lon="-1.691751"><ele>332</ele><time>2020-10-28T12:02:37Z</time><name>PT4985</name></trkpt>
<trkpt lat="53.108891" lon="-1.691801"><ele>331</ele><time>2020-10-28T12:02:40Z</time><name>PT4986</name></trkpt>
<trkpt lat="53.108857" lon="-1.691877"><ele>330</ele><time>2020-10-28T12:02:43Z</time><name>PT4987</name></trkpt>
<trkpt lat="53.108822" lon="-1.691945"><ele>331</ele><time>2020-10-28T12:02:48Z</time><name>PT4988</name></trkpt>
<trkpt lat="53.108799" lon="-1.692000"><ele>331</ele><time>2020-10-28T12:02:51Z</time><name>PT4989</name></trkpt>
<trkpt lat="53.108767" lon="-1.692058"><ele>331</ele><time>2020-10-28T12:02:55Z</time><name>PT4990</name></trkpt>
<trkpt lat="53.108749" lon="-1.692086"><ele>331</ele><time>2020-10-28T12:02:58Z</time><name>PT4991</name></trkpt>
<trkpt lat="53.108735" lon="-1.692133"><ele>330</ele><time>2020-10-28T12:03:01Z</time><name>PT4992</name></trkpt>
<trkpt lat="53.108714" lon="-1.692179"><ele>329</ele><time>2020-10-28T12:03:04Z</time><name>PT4993</name></trkpt>
<trkpt lat="53.108696" lon="-1.692230"><ele>329</ele><time>2020-10-28T12:03:07Z</time><name>PT4994</name></trkpt>
<trkpt lat="53.108676" lon="-1.692286"><ele>328</ele><time>2020-10-28T12:03:12Z</time><name>PT4995</name></trkpt>
<trkpt lat="53.108660" lon="-1.692318"><ele>328</ele><time>2020-10-28T12:03:15Z</time><name>PT4996</name></trkpt>
<trkpt lat="53.108645" lon="-1.692368"><ele>328</ele><time>2020-10-28T12:03:18Z</time><name>PT4997</name></trkpt>
<trkpt lat="53.108629" lon="-1.692430"><ele>328</ele><time>2020-10-28T12:03:21Z</time><name>PT4998</name></trkpt>
<trkpt lat="53.108614" lon="-1.692519"><ele>328</ele><time>2020-10-28T12:03:25Z</time><name>PT4999</name></trkpt>
<trkpt lat="53.108603" lon="-1.692578"><ele>327</ele><time>2020-10-28T12:03:28Z</time><name>PT5000</name></trkpt>
<trkpt lat="53.108576" lon="-1.692666"><ele>327</ele><time>2020-10-28T12:03:31Z</time><name>PT5001</name></trkpt>
<trkpt lat="53.108555" lon="-1.692745"><ele>328</ele><time>2020-10-28T12:03:36Z</time><name>PT5002</name></trkpt>
<trkpt lat="53.108534" lon="-1.692822"><ele>328</ele><time>2020-10-28T12:03:40Z</time><name>PT5003</name></trkpt>
<trkpt lat="53.108529" lon="-1.692866"><ele>327</ele><time>2020-10-28T12:03:43Z</time><name>PT5004</name></trkpt>
<trkpt lat="53.108525" lon="-1.692915"><ele>324</ele><time>2020-10-28T12:03:46Z</time><name>PT5005</name></trkpt>
<trkpt lat="53.108519" lon="-1.692962"><ele>323</ele><time>2020-10-28T12:03:51Z</time><name>PT5006</name></trkpt>
<trkpt lat="53.108510" lon="-1.692991"><ele>324</ele><time>2020-10-28T12:03:54Z</time><name>PT5007</name></trkpt>
<trkpt lat="53.108490" lon="-1.693040"><ele>324</ele><time>2020-10-28T12:03:58Z</time><name>PT5008</name></trkpt>
<trkpt lat="53.108495" lon="-1.693101"><ele>319</ele><time>2020-10-28T12:04:01Z</time><name>PT5009</name></trkpt>
<trkpt lat="53.108522" lon="-1.693213"><ele>315</ele><time>2020-10-28T12:04:06Z</time><name>PT5010</name></trkpt>
<trkpt lat="53.108509" lon="-1.693235"><ele>312</ele><time>2020-10-28T12:04:10Z</time><name>PT5011</name></trkpt>
<trkpt lat="53.108455" lon="-1.693268"><ele>311</ele><time>2020-10-28T12:04:13Z</time><name>PT5012</name></trkpt>
<trkpt lat="53.108414" lon="-1.693302"><ele>311</ele><time>2020-10-28T12:04:16Z</time><name>PT5013</name></trkpt>
<trkpt lat="53.108354" lon="-1.693364"><ele>315</ele><time>2020-10-28T12:04:21Z</time><name>PT5014</name></trkpt>
<trkpt lat="53.108343" lon="-1.693370"><ele>315</ele><time>2020-10-28T12:04:22Z</time><name>PT5015</name></trkpt>
<trkpt lat="53.108331" lon="-1.693401"><ele>316</ele><time>2020-10-28T12:04:22Z</time><name>PT5016</name></trkpt>
<trkpt lat="53.108325" lon="-1.693417"><ele>316</ele><time>2020-10-28T12:04:24Z</time><name>PT5017</name></trkpt>
<trkpt lat="53.108327" lon="-1.693461"><ele>316</ele><time>2020-10-28T12:04:25Z</time><name>PT5018</name></trkpt>
<trkpt lat="53.108310" lon="-1.693489"><ele>317</ele><time>2020-10-28T12:04:25Z</time><name>PT5019</name></trkpt>
<trkpt lat="53.108303" lon="-1.693515"><ele>318</ele><time>2020-10-28T12:04:27Z</time><name>PT5020</name></trkpt>
<trkpt lat="53.108297" lon="-1.693543"><ele>319</ele><time>2020-10-28T12:04:28Z</time><name>PT5021</name></trkpt>
<trkpt lat="53.108279" lon="-1.693600"><ele>321</ele><time>2020-10-28T12:04:28Z</time><name>PT5022</name></trkpt>
<trkpt lat="53.108266" lon="-1.693630"><ele>323</ele><time>2020-10-28T12:04:30Z</time><name>PT5023</name></trkpt>
<trkpt lat="53.108257" lon="-1.693656"><ele>323</ele><time>2020-10-28T12:04:31Z</time><name>PT5024</name></trkpt>
<trkpt lat="53.108251" lon="-1.693672"><ele>323</ele><time>2020-10-28T12:04:31Z</time><name>PT5025</name></trkpt>
<trkpt lat="53.108244" lon="-1.693691"><ele>323</ele><time>2020-10-28T12:04:33Z</time><name>PT5026</name></trkpt>
<trkpt lat="53.108239" lon="-1.693709"><ele>322</ele><time>2020-10-28T12:04:34Z</time><name>PT5027</name></trkpt>
<trkpt lat="53.108234" lon="-1.693728"><ele>323</ele><time>2020-10-28T12:04:34Z</time><name>PT5028</name></trkpt>
<trkpt lat="53.108229" lon="-1.693743"><ele>322</ele><time>2020-10-28T12:04:36Z</time><name>PT5029</name></trkpt>
<trkpt lat="53.108225" lon="-1.693761"><ele>322</ele><time>2020-10-28T12:04:37Z</time><name>PT5030</name></trkpt>
<trkpt lat="53.108221" lon="-1.693778"><ele>322</ele><time>2020-10-28T12:04:37Z</time><name>PT5031</name></trkpt>
<trkpt lat="53.108215" lon="-1.693796"><ele>322</ele><time>2020-10-28T12:04:39Z</time><name>PT5032</name></trkpt>
<trkpt lat="53.108209" lon="-1.693810"><ele>321</ele><time>2020-10-28T12:04:40Z</time><name>PT5033</name></trkpt>
<trkpt lat="53.108208" lon="-1.693823"><ele>321</ele><time>2020-10-28T12:04:40Z</time><name>PT5034</name></trkpt>
<trkpt lat="53.108208" lon="-1.693835"><ele>321</ele><time>2020-10-28T12:04:42Z</time><name>PT5035</name></trkpt>
<trkpt lat="53.108208" lon="-1.693846"><ele>321</ele><time>2020-10-28T12:04:43Z</time><name>PT5036</name></trkpt>
<trkpt lat="53.108204" lon="-1.693858"><ele>320</ele><time>2020-10-28T12:04:43Z</time><name>PT5037</name></trkpt>
<trkpt lat="53.108201" lon="-1.693879"><ele>320</ele><time>2020-10-28T12:04:45Z</time><name>PT5038</name></trkpt>
<trkpt lat="53.108197" lon="-1.693903"><ele>319</ele><time>2020-10-28T12:04:46Z</time><name>PT5039</name></trkpt>
<trkpt lat="53.108192" lon="-1.693926"><ele>319</ele><time>2020-10-28T12:04:46Z</time><name>PT5040</name></trkpt>
<trkpt lat="53.108185" lon="-1.693943"><ele>318</ele><time>2020-10-28T12:04:48Z</time><name>PT5041</name></trkpt>
<trkpt lat="53.108178" lon="-1.693958"><ele>318</ele><time>2020-10-28T12:04:49Z</time><name>PT5042</name></trkpt>
<trkpt lat="53.108173" lon="-1.693977"><ele>318</ele><time>2020-10-28T12:04:49Z</time><name>PT5043</name></trkpt>
<trkpt lat="53.108167" lon="-1.693995"><ele>318</ele><time>2020-10-28T12:04:51Z</time><name>PT5044</name></trkpt>
<trkpt lat="53.108158" lon="-1.694012"><ele>318</ele><time>2020-10-28T12:04:52Z</time><name>PT5045</name></trkpt>
<trkpt lat="53.108150" lon="-1.694027"><ele>318</ele><time>2020-10-28T12:04:52Z</time><name>PT5046</name></trkpt>
<trkpt lat="53.108143" lon="-1.694043"><ele>318</ele><time>2020-10-28T12:04:54Z</time><name>PT5047</name></trkpt>
<trkpt lat="53.108137" lon="-1.694062"><ele>318</ele><time>2020-10-28T12:04:55Z</time><name>PT5048</name></trkpt>
<trkpt lat="53.108131" lon="-1.694082"><ele>318</ele><time>2020-10-28T12:04:55Z</time><name>PT5049</name></trkpt>
<trkpt lat="53.108124" lon="-1.694100"><ele>318</ele><time>2020-10-28T12:04:57Z</time><name>PT5050</name></trkpt>
<trkpt lat="53.108115" lon="-1.694117"><ele>318</ele><time>2020-10-28T12:04:58Z</time><name>PT5051</name></trkpt>
<trkpt lat="53.108107" lon="-1.694132"><ele>318</ele><time>2020-10-28T12:04:58Z</time><name>PT5052</name></trkpt>
<trkpt lat="53.108099" lon="-1.694150"><ele>318</ele><time>2020-10-28T12:05:00Z</time><name>PT5053</name></trkpt>
<trkpt lat="53.108092" lon="-1.694169"><ele>318</ele><time>2020-10-28T12:05:01Z</time><name>PT5054</name></trkpt>
<trkpt lat="53.108087" lon="-1.694188"><ele>318</ele><time>2020-10-28T12:05:01Z</time><name>PT5055</name></trkpt>
<trkpt lat="53.108082" lon="-1.694207"><ele>319</ele><time>2020-10-28T12:05:03Z</time><name>PT5056</name></trkpt>
<trkpt lat="53.108078" lon="-1.694225"><ele>319</ele><time>2020-10-28T12:05:04Z</time><name>PT5057</name></trkpt>
<trkpt lat="53.108074" lon="-1.694241"><ele>318</ele><time>2020-10-28T12:05:04Z</time><name>PT5058</name></trkpt>
<trkpt lat="53.108066" lon="-1.694258"><ele>318</ele><time>2020-10-28T12:05:06Z</time><name>PT5059</name></trkpt>
<trkpt lat="53.108058" lon="-1.694275"><ele>318</ele><time>2020-10-28T12:05:07Z</time><name>PT5060</name></trkpt>
<trkpt lat="53.108051" lon="-1.694294"><ele>318</ele><time>2020-10-28T12:05:07Z</time><name>PT5061</name></trkpt>
<trkpt lat="53.108045" lon="-1.694312"><ele>318</ele><time>2020-10-28T12:05:09Z</time><name>PT5062</name></trkpt>
<trkpt lat="53.108039" lon="-1.694329"><ele>318</ele><time>2020-10-28T12:05:10Z</time><name>PT5063</name></trkpt>
<trkpt lat="53.108035" lon="-1.694344"><ele>318</ele><time>2020-10-28T12:05:10Z</time><name>PT5064</name></trkpt>
<trkpt lat="53.108028" lon="-1.694363"><ele>318</ele><time>2020-10-28T12:05:12Z</time><name>PT5065</name></trkpt>
<trkpt lat="53.108023" lon="-1.694380"><ele>318</ele><time>2020-10-28T12:05:13Z</time><name>PT5066</name></trkpt>
<trkpt lat="53.108016" lon="-1.694399"><ele>318</ele><time>2020-10-28T12:05:13Z</time><name>PT5067</name></trkpt>
<trkpt lat="53.108008" lon="-1.694418"><ele>318</ele><time>2020-10-28T12:05:15Z</time><name>PT5068</name></trkpt>
<trkpt lat="53.108000" lon="-1.694435"><ele>318</ele><time>2020-10-28T12:05:16Z</time><name>PT5069</name></trkpt>
<trkpt lat="53.107996" lon="-1.694455"><ele>318</ele><time>2020-10-28T12:05:16Z</time><name>PT5070</name></trkpt>
<trkpt lat="53.107991" lon="-1.694473"><ele>318</ele><time>2020-10-28T12:05:18Z</time><name>PT5071</name></trkpt>
<trkpt lat="53.107985" lon="-1.694489"><ele>318</ele><time>2020-10-28T12:05:19Z</time><name>PT5072</name></trkpt>
<trkpt lat="53.107977" lon="-1.694505"><ele>318</ele><time>2020-10-28T12:05:19Z</time><name>PT5073</name></trkpt>
<trkpt lat="53.107968" lon="-1.694523"><ele>318</ele><time>2020-10-28T12:05:21Z</time><name>PT5074</name></trkpt>
<trkpt lat="53.107962" lon="-1.694540"><ele>318</ele><time>2020-10-28T12:05:22Z</time><name>PT5075</name></trkpt>
<trkpt lat="53.107956" lon="-1.694560"><ele>318</ele><time>2020-10-28T12:05:22Z</time><name>PT5076</name></trkpt>
<trkpt lat="53.107948" lon="-1.694578"><ele>317</ele><time>2020-10-28T12:05:24Z</time><name>PT5077</name></trkpt>
<trkpt lat="53.107939" lon="-1.694594"><ele>317</ele><time>2020-10-28T12:05:25Z</time><name>PT5078</name></trkpt>
<trkpt lat="53.107929" lon="-1.694610"><ele>317</ele><time>2020-10-28T12:05:25Z</time><name>PT5079</name></trkpt>
<trkpt lat="53.107925" lon="-1.694624"><ele>317</ele><time>2020-10-28T12:05:27Z</time><name>PT5080</name></trkpt>
<trkpt lat="53.107918" lon="-1.694641"><ele>317</ele><time>2020-10-28T12:05:28Z</time><name>PT5081</name></trkpt>
<trkpt lat="53.107909" lon="-1.694660"><ele>317</ele><time>2020-10-28T12:05:28Z</time><name>PT5082</name></trkpt>
<trkpt lat="53.107901" lon="-1.694675"><ele>317</ele><time>2020-10-28T12:05:30Z</time><name>PT5083</name></trkpt>
<trkpt lat="53.107893" lon="-1.694691"><ele>316</ele><time>2020-10-28T12:05:31Z</time><name>PT5084</name></trkpt>
<trkpt lat="53.107884" lon="-1.694708"><ele>316</ele><time>2020-10-28T12:05:32Z</time><name>PT5085</name></trkpt>
<trkpt lat="53.107875" lon="-1.694724"><ele>316</ele><time>2020-10-28T12:05:33Z</time><name>PT5086</name></trkpt>
<trkpt lat="53.107867" lon="-1.694742"><ele>316</ele><time>2020-10-28T12:05:34Z</time><name>PT5087</name></trkpt>
<trkpt lat="53.107862" lon="-1.694758"><ele>316</ele><time>2020-10-28T12:05:34Z</time><name>PT5088</name></trkpt>
<trkpt lat="53.107857" lon="-1.694777"><ele>316</ele><time>2020-10-28T12:05:36Z</time><name>PT5089</name></trkpt>
<trkpt lat="53.107849" lon="-1.694794"><ele>316</ele><time>2020-10-28T12:05:37Z</time><name>PT5090</name></trkpt>
<trkpt lat="53.107840" lon="-1.694810"><ele>315</ele><time>2020-10-28T12:05:37Z</time><name>PT5091</name></trkpt>
<trkpt lat="53.107832" lon="-1.694826"><ele>315</ele><time>2020-10-28T12:05:39Z</time><name>PT5092</name></trkpt>
<trkpt lat="53.107824" lon="-1.694844"><ele>315</ele><time>2020-10-28T12:05:40Z</time><name>PT5093</name></trkpt>
<trkpt lat="53.107818" lon="-1.694862"><ele>315</ele><time>2020-10-28T12:05:40Z</time><name>PT5094</name></trkpt>
<trkpt lat="53.107810" lon="-1.694880"><ele>315</ele><time>2020-10-28T12:05:42Z</time><name>PT5095</name></trkpt>
<trkpt lat="53.107801" lon="-1.694898"><ele>315</ele><time>2020-10-28T12:05:43Z</time><name>PT5096</name></trkpt>
<trkpt lat="53.107792" lon="-1.694915"><ele>315</ele><time>2020-10-28T12:05:43Z</time><name>PT5097</name></trkpt>
<trkpt lat="53.107783" lon="-1.694930"><ele>315</ele><time>2020-10-28T12:05:45Z</time><name>PT5098</name></trkpt>
<trkpt lat="53.107775" lon="-1.694946"><ele>314</ele><time>2020-10-28T12:05:46Z</time><name>PT5099</name></trkpt>
<trkpt lat="53.107767" lon="-1.694963"><ele>314</ele><time>2020-10-28T12:05:46Z</time><name>PT5100</name></trkpt>
<trkpt lat="53.107759" lon="-1.694980"><ele>314</ele><time>2020-10-28T12:05:48Z</time><name>PT5101</name></trkpt>
<trkpt lat="53.107750" lon="-1.694998"><ele>314</ele><time>2020-10-28T12:05:49Z</time><name>PT5102</name></trkpt>
<trkpt lat="53.107742" lon="-1.695015"><ele>314</ele><time>2020-10-28T12:05:49Z</time><name>PT5103</name></trkpt>
<trkpt lat="53.107737" lon="-1.695031"><ele>314</ele><time>2020-10-28T12:05:51Z</time><name>PT5104</name></trkpt>
<trkpt lat="53.107733" lon="-1.695049"><ele>314</ele><time>2020-10-28T12:05:52Z</time><name>PT5105</name></trkpt>
<trkpt lat="53.107729" lon="-1.695067"><ele>313</ele><time>2020-10-28T12:05:52Z</time><name>PT5106</name></trkpt>
<trkpt lat="53.107725" lon="-1.695084"><ele>313</ele><time>2020-10-28T12:05:54Z</time><name>PT5107</name></trkpt>
<trkpt lat="53.107718" lon="-1.695102"><ele>313</ele><time>2020-10-28T12:05:55Z</time><name>PT5108</name></trkpt>
<trkpt lat="53.107712" lon="-1.695117"><ele>313</ele><time>2020-10-28T12:05:55Z</time><name>PT5109</name></trkpt>
<trkpt lat="53.107705" lon="-1.695132"><ele>313</ele><time>2020-10-28T12:05:57Z</time><name>PT5110</name></trkpt>
<trkpt lat="53.107698" lon="-1.695150"><ele>313</ele><time>2020-10-28T12:05:58Z</time><name>PT5111</name></trkpt>
<trkpt lat="53.107690" lon="-1.695168"><ele>313</ele><time>2020-10-28T12:05:58Z</time><name>PT5112</name></trkpt>
<trkpt lat="53.107683" lon="-1.695184"><ele>313</ele><time>2020-10-28T12:06:00Z</time><name>PT5113</name></trkpt>
<trkpt lat="53.107673" lon="-1.695201"><ele>313</ele><time>2020-10-28T12:06:01Z</time><name>PT5114</name></trkpt>
<trkpt lat="53.107663" lon="-1.695217"><ele>312</ele><time>2020-10-28T12:06:01Z</time><name>PT5115</name></trkpt>
<trkpt lat="53.107656" lon="-1.695235"><ele>312</ele><time>2020-10-28T12:06:03Z</time><name>PT5116</name></trkpt>
<trkpt lat="53.107648" lon="-1.695253"><ele>312</ele><time>2020-10-28T12:06:04Z</time><name>PT5117</name></trkpt>
<trkpt lat="53.107641" lon="-1.695272"><ele>312</ele><time>2020-10-28T12:06:04Z</time><name>PT5118</name></trkpt>
<trkpt lat="53.107635" lon="-1.695290"><ele>312</ele><time>2020-10-28T12:06:06Z</time><name>PT5119</name></trkpt>
<trkpt lat="53.107628" lon="-1.695306"><ele>312</ele><time>2020-10-28T12:06:07Z</time><name>PT5120</name></trkpt>
<trkpt lat="53.107620" lon="-1.695321"><ele>312</ele><time>2020-10-28T12:06:07Z</time><name>PT5121</name></trkpt>
<trkpt lat="53.107615" lon="-1.695334"><ele>312</ele><time>2020-10-28T12:06:09Z</time><name>PT5122</name></trkpt>
<trkpt lat="53.107608" lon="-1.695351"><ele>312</ele><time>2020-10-28T12:06:10Z</time><name>PT5123</name></trkpt>
<trkpt lat="53.107602" lon="-1.695367"><ele>312</ele><time>2020-10-28T12:06:10Z</time><name>PT5124</name></trkpt>
<trkpt lat="53.107596" lon="-1.695382"><ele>312</ele><time>2020-10-28T12:06:12Z</time><name>PT5125</name></trkpt>
<trkpt lat="53.107590" lon="-1.695396"><ele>311</ele><time>2020-10-28T12:06:13Z</time><name>PT5126</name></trkpt>
<trkpt lat="53.107585" lon="-1.695412"><ele>311</ele><time>2020-10-28T12:06:13Z</time><name>PT5127</name></trkpt>
<trkpt lat="53.107579" lon="-1.695428"><ele>311</ele><time>2020-10-28T12:06:15Z</time><name>PT5128</name></trkpt>
<trkpt lat="53.107573" lon="-1.695445"><ele>311</ele><time>2020-10-28T12:06:16Z</time><name>PT5129</name></trkpt>
<trkpt lat="53.107565" lon="-1.695459"><ele>311</ele><time>2020-10-28T12:06:17Z</time><name>PT5130</name></trkpt>
<trkpt lat="53.107555" lon="-1.695470"><ele>310</ele><time>2020-10-28T12:06:18Z</time><name>PT5131</name></trkpt>
<trkpt lat="53.107544" lon="-1.695482"><ele>310</ele><time>2020-10-28T12:06:19Z</time><name>PT5132</name></trkpt>
<trkpt lat="53.107535" lon="-1.695495"><ele>310</ele><time>2020-10-28T12:06:20Z</time><name>PT5133</name></trkpt>
<trkpt lat="53.107528" lon="-1.695511"><ele>310</ele><time>2020-10-28T12:06:21Z</time><name>PT5134</name></trkpt>
<trkpt lat="53.107523" lon="-1.695527"><ele>310</ele><time>2020-10-28T12:06:22Z</time><name>PT5135</name></trkpt>
<trkpt lat="53.107516" lon="-1.695545"><ele>310</ele><time>2020-10-28T12:06:23Z</time><name>PT5136</name></trkpt>
<trkpt lat="53.107509" lon="-1.695563"><ele>309</ele><time>2020-10-28T12:06:24Z</time><name>PT5137</name></trkpt>
<trkpt lat="53.107505" lon="-1.695580"><ele>309</ele><time>2020-10-28T12:06:25Z</time><name>PT5138</name></trkpt>
<trkpt lat="53.107502" lon="-1.695599"><ele>309</ele><time>2020-10-28T12:06:26Z</time><name>PT5139</name></trkpt>
<trkpt lat="53.107498" lon="-1.695618"><ele>309</ele><time>2020-10-28T12:06:27Z</time><name>PT5140</name></trkpt>
<trkpt lat="53.107491" lon="-1.695633"><ele>309</ele><time>2020-10-28T12:06:28Z</time><name>PT5141</name></trkpt>
<trkpt lat="53.107483" lon="-1.695650"><ele>309</ele><time>2020-10-28T12:06:28Z</time><name>PT5142</name></trkpt>
<trkpt lat="53.107480" lon="-1.695663"><ele>309</ele><time>2020-10-28T12:06:30Z</time><name>PT5143</name></trkpt>
<trkpt lat="53.107475" lon="-1.695680"><ele>309</ele><time>2020-10-28T12:06:31Z</time><name>PT5144</name></trkpt>
<trkpt lat="53.107468" lon="-1.695701"><ele>308</ele><time>2020-10-28T12:06:31Z</time><name>PT5145</name></trkpt>
<trkpt lat="53.107465" lon="-1.695717"><ele>308</ele><time>2020-10-28T12:06:33Z</time><name>PT5146</name></trkpt>
<trkpt lat="53.107459" lon="-1.695733"><ele>308</ele><time>2020-10-28T12:06:34Z</time><name>PT5147</name></trkpt>
<trkpt lat="53.107451" lon="-1.695750"><ele>308</ele><time>2020-10-28T12:06:34Z</time><name>PT5148</name></trkpt>
<trkpt lat="53.107440" lon="-1.695761"><ele>308</ele><time>2020-10-28T12:06:36Z</time><name>PT5149</name></trkpt>
<trkpt lat="53.107432" lon="-1.695777"><ele>308</ele><time>2020-10-28T12:06:37Z</time><name>PT5150</name></trkpt>
<trkpt lat="53.107424" lon="-1.695794"><ele>307</ele><time>2020-10-28T12:06:37Z</time><name>PT5151</name></trkpt>
<trkpt lat="53.107419" lon="-1.695809"><ele>307</ele><time>2020-10-28T12:06:39Z</time><name>PT5152</name></trkpt>
<trkpt lat="53.107410" lon="-1.695823"><ele>307</ele><time>2020-10-28T12:06:40Z</time><name>PT5153</name></trkpt>
<trkpt lat="53.107402" lon="-1.695837"><ele>307</ele><time>2020-10-28T12:06:40Z</time><name>PT5154</name></trkpt>
<trkpt lat="53.107396" lon="-1.695850"><ele>307</ele><time>2020-10-28T12:06:42Z</time><name>PT5155</name></trkpt>
<trkpt lat="53.107390" lon="-1.695864"><ele>307</ele><time>2020-10-28T12:06:43Z</time><name>PT5156</name></trkpt>
<trkpt lat="53.107386" lon="-1.695877"><ele>306</ele><time>2020-10-28T12:06:43Z</time><name>PT5157</name></trkpt>
<trkpt lat="53.107382" lon="-1.695891"><ele>306</ele><time>2020-10-28T12:06:45Z</time><name>PT5158</name></trkpt>
<trkpt lat="53.107379" lon="-1.695906"><ele>306</ele><time>2020-10-28T12:06:46Z</time><name>PT5159</name></trkpt>
<trkpt lat="53.107375" lon="-1.695919"><ele>306</ele><time>2020-10-28T12:06:46Z</time><name>PT5160</name></trkpt>
<trkpt lat="53.107370" lon="-1.695931"><ele>306</ele><time>2020-10-28T12:06:48Z</time><name>PT5161</name></trkpt>
<trkpt lat="53.107361" lon="-1.695947"><ele>306</ele><time>2020-10-28T12:06:49Z</time><name>PT5162</name></trkpt>
<trkpt lat="53.107353" lon="-1.695966"><ele>306</ele><time>2020-10-28T12:06:49Z</time><name>PT5163</name></trkpt>
<trkpt lat="53.107346" lon="-1.695982"><ele>306</ele><time>2020-10-28T12:06:51Z</time><name>PT5164</name></trkpt>
<trkpt lat="53.107338" lon="-1.695999"><ele>305</ele><time>2020-10-28T12:06:52Z</time><name>PT5165</name></trkpt>
<trkpt lat="53.107333" lon="-1.696015"><ele>305</ele><time>2020-10-28T12:06:52Z</time><name>PT5166</name></trkpt>
<trkpt lat="53.107330" lon="-1.696025"><ele>305</ele><time>2020-10-28T12:06:54Z</time><name>PT5167</name></trkpt>
<trkpt lat="53.107327" lon="-1.696040"><ele>305</ele><time>2020-10-28T12:06:55Z</time><name>PT5168</name></trkpt>
<trkpt lat="53.107324" lon="-1.696054"><ele>304</ele><time>2020-10-28T12:06:55Z</time><name>PT5169</name></trkpt>
<trkpt lat="53.107321" lon="-1.696069"><ele>305</ele><time>2020-10-28T12:06:57Z</time><name>PT5170</name></trkpt>
<trkpt lat="53.107318" lon="-1.696088"><ele>304</ele><time>2020-10-28T12:06:58Z</time><name>PT5171</name></trkpt>
<trkpt lat="53.107315" lon="-1.696105"><ele>304</ele><time>2020-10-28T12:06:58Z</time><name>PT5172</name></trkpt>
<trkpt lat="53.107310" lon="-1.696123"><ele>304</ele><time>2020-10-28T12:07:00Z</time><name>PT5173</name></trkpt>
<trkpt lat="53.107305" lon="-1.696139"><ele>304</ele><time>2020-10-28T12:07:01Z</time><name>PT5174</name></trkpt>
<trkpt lat="53.107301" lon="-1.696155"><ele>304</ele><time>2020-10-28T12:07:01Z</time><name>PT5175</name></trkpt>
<trkpt lat="53.107297" lon="-1.696169"><ele>304</ele><time>2020-10-28T12:07:03Z</time><name>PT5176</name></trkpt>
<trkpt lat="53.107295" lon="-1.696183"><ele>304</ele><time>2020-10-28T12:07:04Z</time><name>PT5177</name></trkpt>
<trkpt lat="53.107292" lon="-1.696198"><ele>304</ele><time>2020-10-28T12:07:04Z</time><name>PT5178</name></trkpt>
<trkpt lat="53.107288" lon="-1.696216"><ele>304</ele><time>2020-10-28T12:07:06Z</time><name>PT5179</name></trkpt>
<trkpt lat="53.107282" lon="-1.696232"><ele>304</ele><time>2020-10-28T12:07:07Z</time><name>PT5180</name></trkpt>
<trkpt lat="53.107277" lon="-1.696250"><ele>304</ele><time>2020-10-28T12:07:08Z</time><name>PT5181</name></trkpt>
<trkpt lat="53.107269" lon="-1.696260"><ele>303</ele><time>2020-10-28T12:07:09Z</time><name>PT5182</name></trkpt>
<trkpt lat="53.107260" lon="-1.696271"><ele>303</ele><time>2020-10-28T12:07:10Z</time><name>PT5183</name></trkpt>
<trkpt lat="53.107258" lon="-1.696288"><ele>303</ele><time>2020-10-28T12:07:10Z</time><name>PT5184</name></trkpt>
<trkpt lat="53.107251" lon="-1.696299"><ele>304</ele><time>2020-10-28T12:07:12Z</time><name>PT5185</name></trkpt>
<trkpt lat="53.107245" lon="-1.696315"><ele>304</ele><time>2020-10-28T12:07:13Z</time><name>PT5186</name></trkpt>
<trkpt lat="53.107241" lon="-1.696330"><ele>304</ele><time>2020-10-28T12:07:13Z</time><name>PT5187</name></trkpt>
<trkpt lat="53.107238" lon="-1.696342"><ele>304</ele><time>2020-10-28T12:07:15Z</time><name>PT5188</name></trkpt>
<trkpt lat="53.107235" lon="-1.696352"><ele>304</ele><time>2020-10-28T12:07:16Z</time><name>PT5189</name></trkpt>
<trkpt lat="53.107233" lon="-1.696369"><ele>303</ele><time>2020-10-28T12:07:17Z</time><name>PT5190</name></trkpt>
<trkpt lat="53.107230" lon="-1.696386"><ele>304</ele><time>2020-10-28T12:07:18Z</time><name>PT5191</name></trkpt>
<trkpt lat="53.107227" lon="-1.696401"><ele>303</ele><time>2020-10-28T12:07:19Z</time><name>PT5192</name></trkpt>
<trkpt lat="53.107223" lon="-1.696419"><ele>303</ele><time>2020-10-28T12:07:20Z</time><name>PT5193</name></trkpt>
<trkpt lat="53.107216" lon="-1.696437"><ele>303</ele><time>2020-10-28T12:07:21Z</time><name>PT5194</name></trkpt>
<trkpt lat="53.107210" lon="-1.696456"><ele>303</ele><time>2020-10-28T12:07:22Z</time><name>PT5195</name></trkpt>
<trkpt lat="53.107189" lon="-1.696531"><ele>302</ele><time>2020-10-28T12:07:25Z</time><name>PT5196</name></trkpt>
<trkpt lat="53.107170" lon="-1.696598"><ele>302</ele><time>2020-10-28T12:07:30Z</time><name>PT5197</name></trkpt>
<trkpt lat="53.107163" lon="-1.696666"><ele>302</ele><time>2020-10-28T12:07:34Z</time><name>PT5198</name></trkpt>
<trkpt lat="53.107143" lon="-1.696723"><ele>303</ele><time>2020-10-28T12:07:37Z</time><name>PT5199</name></trkpt>
<trkpt lat="53.107128" lon="-1.696783"><ele>303</ele><time>2020-10-28T12:07:40Z</time><name>PT5200</name></trkpt>
<trkpt lat="53.107103" lon="-1.696859"><ele>301</ele><time>2020-10-28T12:07:43Z</time><name>PT5201</name></trkpt>
<trkpt lat="53.107090" lon="-1.696937"><ele>300</ele><time>2020-10-28T12:07:48Z</time><name>PT5202</name></trkpt>
<trkpt lat="53.107074" lon="-1.696999"><ele>300</ele><time>2020-10-28T12:07:51Z</time><name>PT5203</name></trkpt>
<trkpt lat="53.107071" lon="-1.697052"><ele>299</ele><time>2020-10-28T12:07:54Z</time><name>PT5204</name></trkpt>
<trkpt lat="53.107067" lon="-1.697105"><ele>298</ele><time>2020-10-28T12:07:57Z</time><name>PT5205</name></trkpt>
<trkpt lat="53.107070" lon="-1.697183"><ele>297</ele><time>2020-10-28T12:08:01Z</time><name>PT5206</name></trkpt>
<trkpt lat="53.107072" lon="-1.697249"><ele>296</ele><time>2020-10-28T12:08:04Z</time><name>PT5207</name></trkpt>
<trkpt lat="53.107074" lon="-1.697310"><ele>295</ele><time>2020-10-28T12:08:07Z</time><name>PT5208</name></trkpt>
<trkpt lat="53.107084" lon="-1.697385"><ele>294</ele><time>2020-10-28T12:08:10Z</time><name>PT5209</name></trkpt>
<trkpt lat="53.107093" lon="-1.697457"><ele>294</ele><time>2020-10-28T12:08:15Z</time><name>PT5210</name></trkpt>
<trkpt lat="53.107095" lon="-1.697508"><ele>293</ele><time>2020-10-28T12:08:18Z</time><name>PT5211</name></trkpt>
<trkpt lat="53.107094" lon="-1.697523"><ele>293</ele><time>2020-10-28T12:08:19Z</time><name>PT5212</name></trkpt>
<trkpt lat="53.107093" lon="-1.697538"><ele>293</ele><time>2020-10-28T12:08:19Z</time><name>PT5213</name></trkpt>
<trkpt lat="53.107091" lon="-1.697553"><ele>293</ele><time>2020-10-28T12:08:21Z</time><name>PT5214</name></trkpt>
<trkpt lat="53.107089" lon="-1.697565"><ele>293</ele><time>2020-10-28T12:08:22Z</time><name>PT5215</name></trkpt>
<trkpt lat="53.107087" lon="-1.697578"><ele>293</ele><time>2020-10-28T12:08:22Z</time><name>PT5216</name></trkpt>
<trkpt lat="53.107084" lon="-1.697589"><ele>293</ele><time>2020-10-28T12:08:24Z</time><name>PT5217</name></trkpt>
<trkpt lat="53.107080" lon="-1.697607"><ele>292</ele><time>2020-10-28T12:08:25Z</time><name>PT5218</name></trkpt>
<trkpt lat="53.107080" lon="-1.697622"><ele>292</ele><time>2020-10-28T12:08:25Z</time><name>PT5219</name></trkpt>
<trkpt lat="53.107080" lon="-1.697625"><ele>292</ele><time>2020-10-28T12:08:27Z</time><name>PT5220</name></trkpt>
<trkpt lat="53.107081" lon="-1.697626"><ele>292</ele><time>2020-10-28T12:08:27Z</time><name>PT5221</name></trkpt>
<trkpt lat="53.107084" lon="-1.697630"><ele>293</ele><time>2020-10-28T12:08:29Z</time><name>PT5222</name></trkpt>
<trkpt lat="53.107076" lon="-1.697645"><ele>292</ele><time>2020-10-28T12:08:32Z</time><name>PT5223</name></trkpt>
<trkpt lat="53.107078" lon="-1.697641"><ele>292</ele><time>2020-10-28T12:08:33Z</time><name>PT5224</name></trkpt>
<trkpt lat="53.107078" lon="-1.697648"><ele>292</ele><time>2020-10-28T12:08:33Z</time><name>PT5225</name></trkpt>
<trkpt lat="53.107080" lon="-1.697635"><ele>292</ele><time>2020-10-28T12:08:35Z</time><name>PT5226</name></trkpt>
<trkpt lat="53.107076" lon="-1.697636"><ele>292</ele><time>2020-10-28T12:08:36Z</time><name>PT5227</name></trkpt>
<trkpt lat="53.107073" lon="-1.697648"><ele>292</ele><time>2020-10-28T12:08:38Z</time><name>PT5228</name></trkpt>
<trkpt lat="53.107068" lon="-1.697660"><ele>292</ele><time>2020-10-28T12:08:39Z</time><name>PT5229</name></trkpt>
<trkpt lat="53.107065" lon="-1.697670"><ele>292</ele><time>2020-10-28T12:08:39Z</time><name>PT5230</name></trkpt>
<trkpt lat="53.107067" lon="-1.697680"><ele>292</ele><time>2020-10-28T12:08:41Z</time><name>PT5231</name></trkpt>
<trkpt lat="53.107070" lon="-1.697691"><ele>292</ele><time>2020-10-28T12:08:42Z</time><name>PT5232</name></trkpt>
<trkpt lat="53.107071" lon="-1.697702"><ele>292</ele><time>2020-10-28T12:08:42Z</time><name>PT5233</name></trkpt>
<trkpt lat="53.107070" lon="-1.697709"><ele>292</ele><time>2020-10-28T12:08:44Z</time><name>PT5234</name></trkpt>
<trkpt lat="53.107070" lon="-1.697711"><ele>292</ele><time>2020-10-28T12:08:45Z</time><name>PT5235</name></trkpt>
<trkpt lat="53.107070" lon="-1.697710"><ele>292</ele><time>2020-10-28T12:08:45Z</time><name>PT5236</name></trkpt>
<trkpt lat="53.107070" lon="-1.697710"><ele>292</ele><time>2020-10-28T12:08:47Z</time><name>PT5237</name></trkpt>
<trkpt lat="53.107070" lon="-1.697706"><ele>292</ele><time>2020-10-28T12:08:48Z</time><name>PT5238</name></trkpt>
<trkpt lat="53.107070" lon="-1.697703"><ele>292</ele><time>2020-10-28T12:08:48Z</time><name>PT5239</name></trkpt>
<trkpt lat="53.107068" lon="-1.697702"><ele>292</ele><time>2020-10-28T12:08:50Z</time><name>PT5240</name></trkpt>
<trkpt lat="53.107066" lon="-1.697706"><ele>292</ele><time>2020-10-28T12:08:51Z</time><name>PT5241</name></trkpt>
<trkpt lat="53.107065" lon="-1.697715"><ele>291</ele><time>2020-10-28T12:08:51Z</time><name>PT5242</name></trkpt>
<trkpt lat="53.107063" lon="-1.697725"><ele>292</ele><time>2020-10-28T12:08:53Z</time><name>PT5243</name></trkpt>
<trkpt lat="53.107066" lon="-1.697736"><ele>292</ele><time>2020-10-28T12:08:54Z</time><name>PT5244</name></trkpt>
<trkpt lat="53.107068" lon="-1.697746"><ele>292</ele><time>2020-10-28T12:08:54Z</time><name>PT5245</name></trkpt>
<trkpt lat="53.107070" lon="-1.697754"><ele>291</ele><time>2020-10-28T12:08:56Z</time><name>PT5246</name></trkpt>
<trkpt lat="53.107070" lon="-1.697764"><ele>291</ele><time>2020-10-28T12:08:57Z</time><name>PT5247</name></trkpt>
<trkpt lat="53.107070" lon="-1.697776"><ele>290</ele><time>2020-10-28T12:08:57Z</time><name>PT5248</name></trkpt>
<trkpt lat="53.107074" lon="-1.697790"><ele>290</ele><time>2020-10-28T12:08:59Z</time><name>PT5249</name></trkpt>
<trkpt lat="53.107076" lon="-1.697806"><ele>290</ele><time>2020-10-28T12:09:00Z</time><name>PT5250</name></trkpt>
<trkpt lat="53.107079" lon="-1.697819"><ele>290</ele><time>2020-10-28T12:09:00Z</time><name>PT5251</name></trkpt>
<trkpt lat="53.107082" lon="-1.697838"><ele>290</ele><time>2020-10-28T12:09:02Z</time><name>PT5252</name></trkpt>
<trkpt lat="53.107083" lon="-1.697855"><ele>289</ele><time>2020-10-28T12:09:03Z</time><name>PT5253</name></trkpt>
<trkpt lat="53.107086" lon="-1.697873"><ele>289</ele><time>2020-10-28T12:09:03Z</time><name>PT5254</name></trkpt>
<trkpt lat="53.107091" lon="-1.697888"><ele>289</ele><time>2020-10-28T12:09:05Z</time><name>PT5255</name></trkpt>
<trkpt lat="53.107096" lon="-1.697903"><ele>289</ele><time>2020-10-28T12:09:06Z</time><name>PT5256</name></trkpt>
<trkpt lat="53.107101" lon="-1.697919"><ele>289</ele><time>2020-10-28T12:09:06Z</time><name>PT5257</name></trkpt>
<trkpt lat="53.107103" lon="-1.697935"><ele>288</ele><time>2020-10-28T12:09:08Z</time><name>PT5258</name></trkpt>
<trkpt lat="53.107107" lon="-1.697953"><ele>288</ele><time>2020-10-28T12:09:09Z</time><name>PT5259</name></trkpt>
<trkpt lat="53.107110" lon="-1.697967"><ele>288</ele><time>2020-10-28T12:09:10Z</time><name>PT5260</name></trkpt>
<trkpt lat="53.107117" lon="-1.697980"><ele>288</ele><time>2020-10-28T12:09:11Z</time><name>PT5261</name></trkpt>
<trkpt lat="53.107123" lon="-1.697993"><ele>288</ele><time>2020-10-28T12:09:12Z</time><name>PT5262</name></trkpt>
<trkpt lat="53.107129" lon="-1.698009"><ele>288</ele><time>2020-10-28T12:09:12Z</time><name>PT5263</name></trkpt>
<trkpt lat="53.107135" lon="-1.698026"><ele>288</ele><time>2020-10-28T12:09:14Z</time><name>PT5264</name></trkpt>
<trkpt lat="53.107139" lon="-1.698042"><ele>288</ele><time>2020-10-28T12:09:15Z</time><name>PT5265</name></trkpt>
<trkpt lat="53.107145" lon="-1.698053"><ele>287</ele><time>2020-10-28T12:09:16Z</time><name>PT5266</name></trkpt>
<trkpt lat="53.107150" lon="-1.698064"><ele>287</ele><time>2020-10-28T12:09:17Z</time><name>PT5267</name></trkpt>
<trkpt lat="53.107155" lon="-1.698074"><ele>287</ele><time>2020-10-28T12:09:18Z</time><name>PT5268</name></trkpt>
<trkpt lat="53.107159" lon="-1.698086"><ele>287</ele><time>2020-10-28T12:09:19Z</time><name>PT5269</name></trkpt>
<trkpt lat="53.107164" lon="-1.698098"><ele>287</ele><time>2020-10-28T12:09:20Z</time><name>PT5270</name></trkpt>
<trkpt lat="53.107170" lon="-1.698112"><ele>287</ele><time>2020-10-28T12:09:21Z</time><name>PT5271</name></trkpt>
<trkpt lat="53.107179" lon="-1.698125"><ele>286</ele><time>2020-10-28T12:09:22Z</time><name>PT5272</name></trkpt>
<trkpt lat="53.107187" lon="-1.698138"><ele>286</ele><time>2020-10-28T12:09:23Z</time><name>PT5273</name></trkpt>
<trkpt lat="53.107195" lon="-1.698147"><ele>286</ele><time>2020-10-28T12:09:24Z</time><name>PT5274</name></trkpt>
<trkpt lat="53.107203" lon="-1.698156"><ele>286</ele><time>2020-10-28T12:09:25Z</time><name>PT5275</name></trkpt>
<trkpt lat="53.107208" lon="-1.698169"><ele>285</ele><time>2020-10-28T12:09:26Z</time><name>PT5276</name></trkpt>
<trkpt lat="53.107215" lon="-1.698180"><ele>285</ele><time>2020-10-28T12:09:27Z</time><name>PT5277</name></trkpt>
<trkpt lat="53.107220" lon="-1.698196"><ele>286</ele><time>2020-10-28T12:09:28Z</time><name>PT5278</name></trkpt>
<trkpt lat="53.107224" lon="-1.698216"><ele>285</ele><time>2020-10-28T12:09:29Z</time><name>PT5279</name></trkpt>
<trkpt lat="53.107230" lon="-1.698231"><ele>285</ele><time>2020-10-28T12:09:30Z</time><name>PT5280</name></trkpt>
<trkpt lat="53.107234" lon="-1.698240"><ele>285</ele><time>2020-10-28T12:09:31Z</time><name>PT5281</name></trkpt>
<trkpt lat="53.107242" lon="-1.698252"><ele>285</ele><time>2020-10-28T12:09:32Z</time><name>PT5282</name></trkpt>
<trkpt lat="53.107250" lon="-1.698263"><ele>285</ele><time>2020-10-28T12:09:33Z</time><name>PT5283</name></trkpt>
<trkpt lat="53.107258" lon="-1.698280"><ele>285</ele><time>2020-10-28T12:09:34Z</time><name>PT5284</name></trkpt>
<trkpt lat="53.107261" lon="-1.698298"><ele>285</ele><time>2020-10-28T12:09:35Z</time><name>PT5285</name></trkpt>
<trkpt lat="53.107264" lon="-1.698316"><ele>284</ele><time>2020-10-28T12:09:36Z</time><name>PT5286</name></trkpt>
<trkpt lat="53.107267" lon="-1.698328"><ele>283</ele><time>2020-10-28T12:09:36Z</time><name>PT5287</name></trkpt>
<trkpt lat="53.107270" lon="-1.698345"><ele>283</ele><time>2020-10-28T12:09:38Z</time><name>PT5288</name></trkpt>
<trkpt lat="53.107277" lon="-1.698358"><ele>283</ele><time>2020-10-28T12:09:39Z</time><name>PT5289</name></trkpt>
<trkpt lat="53.107281" lon="-1.698370"><ele>282</ele><time>2020-10-28T12:09:39Z</time><name>PT5290</name></trkpt>
<trkpt lat="53.107285" lon="-1.698389"><ele>282</ele><time>2020-10-28T12:09:41Z</time><name>PT5291</name></trkpt>
<trkpt lat="53.107287" lon="-1.698407"><ele>282</ele><time>2020-10-28T12:09:42Z</time><name>PT5292</name></trkpt>
<trkpt lat="53.107290" lon="-1.698430"><ele>282</ele><time>2020-10-28T12:09:42Z</time><name>PT5293</name></trkpt>
<trkpt lat="53.107295" lon="-1.698451"><ele>282</ele><time>2020-10-28T12:09:44Z</time><name>PT5294</name></trkpt>
<trkpt lat="53.107302" lon="-1.698470"><ele>281</ele><time>2020-10-28T12:09:45Z</time><name>PT5295</name></trkpt>
<trkpt lat="53.107309" lon="-1.698487"><ele>281</ele><time>2020-10-28T12:09:45Z</time><name>PT5296</name></trkpt>
<trkpt lat="53.107316" lon="-1.698503"><ele>281</ele><time>2020-10-28T12:09:47Z</time><name>PT5297</name></trkpt>
<trkpt lat="53.107322" lon="-1.698522"><ele>281</ele><time>2020-10-28T12:09:48Z</time><name>PT5298</name></trkpt>
<trkpt lat="53.107329" lon="-1.698539"><ele>281</ele><time>2020-10-28T12:09:48Z</time><name>PT5299</name></trkpt>
<trkpt lat="53.107334" lon="-1.698555"><ele>281</ele><time>2020-10-28T12:09:50Z</time><name>PT5300</name></trkpt>
<trkpt lat="53.107339" lon="-1.698574"><ele>281</ele><time>2020-10-28T12:09:51Z</time><name>PT5301</name></trkpt>
<trkpt lat="53.107344" lon="-1.698592"><ele>281</ele><time>2020-10-28T12:09:51Z</time><name>PT5302</name></trkpt>
<trkpt lat="53.107349" lon="-1.698610"><ele>281</ele><time>2020-10-28T12:09:53Z</time><name>PT5303</name></trkpt>
<trkpt lat="53.107355" lon="-1.698627"><ele>280</ele><time>2020-10-28T12:09:54Z</time><name>PT5304</name></trkpt>
<trkpt lat="53.107361" lon="-1.698646"><ele>280</ele><time>2020-10-28T12:09:54Z</time><name>PT5305</name></trkpt>
<trkpt lat="53.107364" lon="-1.698666"><ele>280</ele><time>2020-10-28T12:09:56Z</time><name>PT5306</name></trkpt>
<trkpt lat="53.107371" lon="-1.698685"><ele>281</ele><time>2020-10-28T12:09:57Z</time><name>PT5307</name></trkpt>
<trkpt lat="53.107374" lon="-1.698710"><ele>281</ele><time>2020-10-28T12:09:57Z</time><name>PT5308</name></trkpt>
<trkpt lat="53.107377" lon="-1.698729"><ele>281</ele><time>2020-10-28T12:09:59Z</time><name>PT5309</name></trkpt>
<trkpt lat="53.107380" lon="-1.698747"><ele>281</ele><time>2020-10-28T12:10:00Z</time><name>PT5310</name></trkpt>
<trkpt lat="53.107384" lon="-1.698767"><ele>281</ele><time>2020-10-28T12:10:00Z</time><name>PT5311</name></trkpt>
<trkpt lat="53.107387" lon="-1.698787"><ele>280</ele><time>2020-10-28T12:10:02Z</time><name>PT5312</name></trkpt>
<trkpt lat="53.107391" lon="-1.698808"><ele>281</ele><time>2020-10-28T12:10:03Z</time><name>PT5313</name></trkpt>
<trkpt lat="53.107394" lon="-1.698829"><ele>280</ele><time>2020-10-28T12:10:03Z</time><name>PT5314</name></trkpt>
<trkpt lat="53.107398" lon="-1.698849"><ele>280</ele><time>2020-10-28T12:10:05Z</time><name>PT5315</name></trkpt>
<trkpt lat="53.107398" lon="-1.698867"><ele>281</ele><time>2020-10-28T12:10:06Z</time><name>PT5316</name></trkpt>
<trkpt lat="53.107394" lon="-1.698890"><ele>281</ele><time>2020-10-28T12:10:06Z</time><name>PT5317</name></trkpt>
<trkpt lat="53.107396" lon="-1.698908"><ele>281</ele><time>2020-10-28T12:10:08Z</time><name>PT5318</name></trkpt>
<trkpt lat="53.107396" lon="-1.698927"><ele>281</ele><time>2020-10-28T12:10:09Z</time><name>PT5319</name></trkpt>
<trkpt lat="53.107397" lon="-1.698952"><ele>281</ele><time>2020-10-28T12:10:09Z</time><name>PT5320</name></trkpt>
<trkpt lat="53.107395" lon="-1.698977"><ele>281</ele><time>2020-10-28T12:10:11Z</time><name>PT5321</name></trkpt>
<trkpt lat="53.107396" lon="-1.698995"><ele>281</ele><time>2020-10-28T12:10:12Z</time><name>PT5322</name></trkpt>
<trkpt lat="53.107397" lon="-1.699016"><ele>281</ele><time>2020-10-28T12:10:12Z</time><name>PT5323</name></trkpt>
<trkpt lat="53.107398" lon="-1.699037"><ele>281</ele><time>2020-10-28T12:10:14Z</time><name>PT5324</name></trkpt>
<trkpt lat="53.107398" lon="-1.699055"><ele>281</ele><time>2020-10-28T12:10:15Z</time><name>PT5325</name></trkpt>
<trkpt lat="53.107396" lon="-1.699073"><ele>281</ele><time>2020-10-28T12:10:15Z</time><name>PT5326</name></trkpt>
<trkpt lat="53.107396" lon="-1.699095"><ele>281</ele><time>2020-10-28T12:10:17Z</time><name>PT5327</name></trkpt>
<trkpt lat="53.107395" lon="-1.699116"><ele>281</ele><time>2020-10-28T12:10:18Z</time><name>PT5328</name></trkpt>
<trkpt lat="53.107392" lon="-1.699136"><ele>282</ele><time>2020-10-28T12:10:18Z</time><name>PT5329</name></trkpt>
<trkpt lat="53.107392" lon="-1.699157"><ele>282</ele><time>2020-10-28T12:10:20Z</time><name>PT5330</name></trkpt>
<trkpt lat="53.107397" lon="-1.699174"><ele>281</ele><time>2020-10-28T12:10:21Z</time><name>PT5331</name></trkpt>
<trkpt lat="53.107396" lon="-1.699193"><ele>281</ele><time>2020-10-28T12:10:21Z</time><name>PT5332</name></trkpt>
<trkpt lat="53.107391" lon="-1.699218"><ele>281</ele><time>2020-10-28T12:10:23Z</time><name>PT5333</name></trkpt>
<trkpt lat="53.107388" lon="-1.699237"><ele>281</ele><time>2020-10-28T12:10:24Z</time><name>PT5334</name></trkpt>
<trkpt lat="53.107386" lon="-1.699257"><ele>280</ele><time>2020-10-28T12:10:24Z</time><name>PT5335</name></trkpt>
<trkpt lat="53.107386" lon="-1.699273"><ele>280</ele><time>2020-10-28T12:10:26Z</time><name>PT5336</name></trkpt>
<trkpt lat="53.107382" lon="-1.699293"><ele>280</ele><time>2020-10-28T12:10:27Z</time><name>PT5337</name></trkpt>
<trkpt lat="53.107380" lon="-1.699314"><ele>280</ele><time>2020-10-28T12:10:27Z</time><name>PT5338</name></trkpt>
<trkpt lat="53.107372" lon="-1.699338"><ele>281</ele><time>2020-10-28T12:10:29Z</time><name>PT5339</name></trkpt>
<trkpt lat="53.107369" lon="-1.699357"><ele>281</ele><time>2020-10-28T12:10:30Z</time><name>PT5340</name></trkpt>
<trkpt lat="53.107367" lon="-1.699378"><ele>281</ele><time>2020-10-28T12:10:30Z</time><name>PT5341</name></trkpt>
<trkpt lat="53.107367" lon="-1.699399"><ele>281</ele><time>2020-10-28T12:10:32Z</time><name>PT5342</name></trkpt>
<trkpt lat="53.107368" lon="-1.699420"><ele>280</ele><time>2020-10-28T12:10:33Z</time><name>PT5343</name></trkpt>
<trkpt lat="53.107368" lon="-1.699440"><ele>280</ele><time>2020-10-28T12:10:33Z</time><name>PT5344</name></trkpt>
<trkpt lat="53.107367" lon="-1.699457"><ele>280</ele><time>2020-10-28T12:10:35Z</time><name>PT5345</name></trkpt>
<trkpt lat="53.107366" lon="-1.699472"><ele>279</ele><time>2020-10-28T12:10:36Z</time><name>PT5346</name></trkpt>
<trkpt lat="53.107365" lon="-1.699492"><ele>279</ele><time>2020-10-28T12:10:36Z</time><name>PT5347</name></trkpt>
<trkpt lat="53.107362" lon="-1.699509"><ele>279</ele><time>2020-10-28T12:10:38Z</time><name>PT5348</name></trkpt>
<trkpt lat="53.107359" lon="-1.699526"><ele>279</ele><time>2020-10-28T12:10:39Z</time><name>PT5349</name></trkpt>
<trkpt lat="53.107358" lon="-1.699541"><ele>279</ele><time>2020-10-28T12:10:39Z</time><name>PT5350</name></trkpt>
<trkpt lat="53.107355" lon="-1.699559"><ele>279</ele><time>2020-10-28T12:10:41Z</time><name>PT5351</name></trkpt>
<trkpt lat="53.107354" lon="-1.699575"><ele>279</ele><time>2020-10-28T12:10:42Z</time><name>PT5352</name></trkpt>
<trkpt lat="53.107353" lon="-1.699588"><ele>279</ele><time>2020-10-28T12:10:42Z</time><name>PT5353</name></trkpt>
<trkpt lat="53.107350" lon="-1.699604"><ele>279</ele><time>2020-10-28T12:10:44Z</time><name>PT5354</name></trkpt>
<trkpt lat="53.107349" lon="-1.699618"><ele>279</ele><time>2020-10-28T12:10:45Z</time><name>PT5355</name></trkpt>
<trkpt lat="53.107346" lon="-1.699630"><ele>278</ele><time>2020-10-28T12:10:45Z</time><name>PT5356</name></trkpt>
<trkpt lat="53.107345" lon="-1.699652"><ele>278</ele><time>2020-10-28T12:10:47Z</time><name>PT5357</name></trkpt>
<trkpt lat="53.107344" lon="-1.699674"><ele>278</ele><time>2020-10-28T12:10:48Z</time><name>PT5358</name></trkpt>
<trkpt lat="53.107345" lon="-1.699697"><ele>278</ele><time>2020-10-28T12:10:49Z</time><name>PT5359</name></trkpt>
<trkpt lat="53.107345" lon="-1.699715"><ele>278</ele><time>2020-10-28T12:10:50Z</time><name>PT5360</name></trkpt>
<trkpt lat="53.107337" lon="-1.699739"><ele>279</ele><time>2020-10-28T12:10:51Z</time><name>PT5361</name></trkpt>
<trkpt lat="53.107331" lon="-1.699757"><ele>279</ele><time>2020-10-28T12:10:51Z</time><name>PT5362</name></trkpt>
<trkpt lat="53.107327" lon="-1.699784"><ele>278</ele><time>2020-10-28T12:10:53Z</time><name>PT5363</name></trkpt>
<trkpt lat="53.107322" lon="-1.699803"><ele>278</ele><time>2020-10-28T12:10:54Z</time><name>PT5364</name></trkpt>
<trkpt lat="53.107317" lon="-1.699827"><ele>278</ele><time>2020-10-28T12:10:55Z</time><name>PT5365</name></trkpt>
<trkpt lat="53.107312" lon="-1.699843"><ele>278</ele><time>2020-10-28T12:10:56Z</time><name>PT5366</name></trkpt>
<trkpt lat="53.107307" lon="-1.699861"><ele>278</ele><time>2020-10-28T12:10:57Z</time><name>PT5367</name></trkpt>
<trkpt lat="53.107301" lon="-1.699877"><ele>277</ele><time>2020-10-28T12:10:57Z</time><name>PT5368</name></trkpt>
<trkpt lat="53.107294" lon="-1.699895"><ele>277</ele><time>2020-10-28T12:10:59Z</time><name>PT5369</name></trkpt>
<trkpt lat="53.107289" lon="-1.699914"><ele>277</ele><time>2020-10-28T12:11:00Z</time><name>PT5370</name></trkpt>
<trkpt lat="53.107283" lon="-1.699932"><ele>277</ele><time>2020-10-28T12:11:01Z</time><name>PT5371</name></trkpt>
<trkpt lat="53.107275" lon="-1.699953"><ele>277</ele><time>2020-10-28T12:11:02Z</time><name>PT5372</name></trkpt>
<trkpt lat="53.107270" lon="-1.699970"><ele>277</ele><time>2020-10-28T12:11:03Z</time><name>PT5373</name></trkpt>
<trkpt lat="53.107265" lon="-1.699988"><ele>277</ele><time>2020-10-28T12:11:03Z</time><name>PT5374</name></trkpt>
<trkpt lat="53.107258" lon="-1.700004"><ele>277</ele><time>2020-10-28T12:11:05Z</time><name>PT5375</name></trkpt>
<trkpt lat="53.107250" lon="-1.700020"><ele>277</ele><time>2020-10-28T12:11:06Z</time><name>PT5376</name></trkpt>
<trkpt lat="53.107244" lon="-1.700034"><ele>277</ele><time>2020-10-28T12:11:06Z</time><name>PT5377</name></trkpt>
<trkpt lat="53.107237" lon="-1.700050"><ele>277</ele><time>2020-10-28T12:11:08Z</time><name>PT5378</name></trkpt>
<trkpt lat="53.107231" lon="-1.700067"><ele>277</ele><time>2020-10-28T12:11:09Z</time><name>PT5379</name></trkpt>
<trkpt lat="53.107224" lon="-1.700087"><ele>277</ele><time>2020-10-28T12:11:09Z</time><name>PT5380</name></trkpt>
<trkpt lat="53.107218" lon="-1.700104"><ele>277</ele><time>2020-10-28T12:11:11Z</time><name>PT5381</name></trkpt>
<trkpt lat="53.107211" lon="-1.700120"><ele>277</ele><time>2020-10-28T12:11:12Z</time><name>PT5382</name></trkpt>
<trkpt lat="53.107205" lon="-1.700137"><ele>276</ele><time>2020-10-28T12:11:12Z</time><name>PT5383</name></trkpt>
<trkpt lat="53.107199" lon="-1.700155"><ele>276</ele><time>2020-10-28T12:11:14Z</time><name>PT5384</name></trkpt>
<trkpt lat="53.107192" lon="-1.700174"><ele>276</ele><time>2020-10-28T12:11:15Z</time><name>PT5385</name></trkpt>
<trkpt lat="53.107186" lon="-1.700192"><ele>276</ele><time>2020-10-28T12:11:15Z</time><name>PT5386</name></trkpt>
<trkpt lat="53.107181" lon="-1.700210"><ele>275</ele><time>2020-10-28T12:11:17Z</time><name>PT5387</name></trkpt>
<trkpt lat="53.107176" lon="-1.700229"><ele>275</ele><time>2020-10-28T12:11:18Z</time><name>PT5388</name></trkpt>
<trkpt lat="53.107170" lon="-1.700248"><ele>275</ele><time>2020-10-28T12:11:18Z</time><name>PT5389</name></trkpt>
<trkpt lat="53.107166" lon="-1.700273"><ele>275</ele><time>2020-10-28T12:11:20Z</time><name>PT5390</name></trkpt>
<trkpt lat="53.107144" lon="-1.700345"><ele>275</ele><time>2020-10-28T12:11:24Z</time><name>PT5391</name></trkpt>
<trkpt lat="53.107128" lon="-1.700401"><ele>274</ele><time>2020-10-28T12:11:27Z</time><name>PT5392</name></trkpt>
<trkpt lat="53.107106" lon="-1.700469"><ele>274</ele><time>2020-10-28T12:11:30Z</time><name>PT5393</name></trkpt>
<trkpt lat="53.107092" lon="-1.700526"><ele>274</ele><time>2020-10-28T12:11:33Z</time><name>PT5394</name></trkpt>
<trkpt lat="53.107069" lon="-1.700601"><ele>273</ele><time>2020-10-28T12:11:38Z</time><name>PT5395</name></trkpt>
<trkpt lat="53.107045" lon="-1.700651"><ele>273</ele><time>2020-10-28T12:11:41Z</time><name>PT5396</name></trkpt>
<trkpt lat="53.107014" lon="-1.700719"><ele>273</ele><time>2020-10-28T12:11:45Z</time><name>PT5397</name></trkpt>
<trkpt lat="53.106989" lon="-1.700789"><ele>272</ele><time>2020-10-28T12:11:48Z</time><name>PT5398</name></trkpt>
<trkpt lat="53.106983" lon="-1.700804"><ele>273</ele><time>2020-10-28T12:11:50Z</time><name>PT5399</name></trkpt>
<trkpt lat="53.106978" lon="-1.700821"><ele>272</ele><time>2020-10-28T12:11:51Z</time><name>PT5400</name></trkpt>
<trkpt lat="53.106968" lon="-1.700850"><ele>273</ele><time>2020-10-28T12:11:53Z</time><name>PT5401</name></trkpt>
<trkpt lat="53.106963" lon="-1.700861"><ele>273</ele><time>2020-10-28T12:11:54Z</time><name>PT5402</name></trkpt>
<trkpt lat="53.106959" lon="-1.700873"><ele>273</ele><time>2020-10-28T12:11:54Z</time><name>PT5403</name></trkpt>
<trkpt lat="53.106956" lon="-1.700886"><ele>273</ele><time>2020-10-28T12:11:56Z</time><name>PT5404</name></trkpt>
<trkpt lat="53.106952" lon="-1.700897"><ele>273</ele><time>2020-10-28T12:11:57Z</time><name>PT5405</name></trkpt>
<trkpt lat="53.106952" lon="-1.700900"><ele>273</ele><time>2020-10-28T12:11:57Z</time><name>PT5406</name></trkpt>
<trkpt lat="53.106955" lon="-1.700899"><ele>273</ele><time>2020-10-28T12:11:59Z</time><name>PT5407</name></trkpt>
<trkpt lat="53.106956" lon="-1.700901"><ele>273</ele><time>2020-10-28T12:12:00Z</time><name>PT5408</name></trkpt>
<trkpt lat="53.106955" lon="-1.700900"><ele>274</ele><time>2020-10-28T12:12:01Z</time><name>PT5409</name></trkpt>
<trkpt lat="53.106955" lon="-1.700900"><ele>273</ele><time>2020-10-28T12:12:02Z</time><name>PT5410</name></trkpt>
<trkpt lat="53.106954" lon="-1.700899"><ele>274</ele><time>2020-10-28T12:12:09Z</time><name>PT5411</name></trkpt>
<trkpt lat="53.106953" lon="-1.700904"><ele>274</ele><time>2020-10-28T12:12:09Z</time><name>PT5412</name></trkpt>
<trkpt lat="53.106954" lon="-1.700902"><ele>274</ele><time>2020-10-28T12:12:12Z</time><name>PT5413</name></trkpt>
<trkpt lat="53.106960" lon="-1.700904"><ele>274</ele><time>2020-10-28T12:12:14Z</time><name>PT5414</name></trkpt>
<trkpt lat="53.106961" lon="-1.700920"><ele>273</ele><time>2020-10-28T12:12:15Z</time><name>PT5415</name></trkpt>
<trkpt lat="53.106975" lon="-1.700923"><ele>274</ele><time>2020-10-28T12:12:15Z</time><name>PT5416</name></trkpt>
<trkpt lat="53.106975" lon="-1.700922"><ele>274</ele><time>2020-10-28T12:12:17Z</time><name>PT5417</name></trkpt>
<trkpt lat="53.106975" lon="-1.700924"><ele>274</ele><time>2020-10-28T12:12:18Z</time><name>PT5418</name></trkpt>
<trkpt lat="53.106973" lon="-1.700924"><ele>274</ele><time>2020-10-28T12:13:14Z</time><name>PT5419</name></trkpt>
<trkpt lat="53.106970" lon="-1.700924"><ele>274</ele><time>2020-10-28T12:13:15Z</time><name>PT5420</name></trkpt>
<trkpt lat="53.106971" lon="-1.700920"><ele>274</ele><time>2020-10-28T12:13:15Z</time><name>PT5421</name></trkpt>
<trkpt lat="53.106977" lon="-1.700920"><ele>274</ele><time>2020-10-28T12:13:17Z</time><name>PT5422</name></trkpt>
<trkpt lat="53.106975" lon="-1.700921"><ele>274</ele><time>2020-10-28T12:13:18Z</time><name>PT5423</name></trkpt>
<trkpt lat="53.106973" lon="-1.700923"><ele>274</ele><time>2020-10-28T12:13:18Z</time><name>PT5424</name></trkpt>
<trkpt lat="53.106970" lon="-1.700922"><ele>275</ele><time>2020-10-28T12:13:20Z</time><name>PT5425</name></trkpt>
<trkpt lat="53.106968" lon="-1.700923"><ele>275</ele><time>2020-10-28T12:13:21Z</time><name>PT5426</name></trkpt>
<trkpt lat="53.106968" lon="-1.700926"><ele>274</ele><time>2020-10-28T12:13:21Z</time><name>PT5427</name></trkpt>
<trkpt lat="53.106967" lon="-1.700930"><ele>274</ele><time>2020-10-28T12:13:28Z</time><name>PT5428</name></trkpt>
<trkpt lat="53.106960" lon="-1.700943"><ele>274</ele><time>2020-10-28T12:13:29Z</time><name>PT5429</name></trkpt>
<trkpt lat="53.106951" lon="-1.700963"><ele>275</ele><time>2020-10-28T12:13:30Z</time><name>PT5430</name></trkpt>
<trkpt lat="53.106944" lon="-1.700980"><ele>275</ele><time>2020-10-28T12:13:31Z</time><name>PT5431</name></trkpt>
<trkpt lat="53.106936" lon="-1.701010"><ele>275</ele><time>2020-10-28T12:13:32Z</time><name>PT5432</name></trkpt>
<trkpt lat="53.106938" lon="-1.701035"><ele>273</ele><time>2020-10-28T12:13:33Z</time><name>PT5433</name></trkpt>
<trkpt lat="53.106936" lon="-1.701055"><ele>272</ele><time>2020-10-28T12:13:34Z</time><name>PT5434</name></trkpt>
<trkpt lat="53.106929" lon="-1.701071"><ele>271</ele><time>2020-10-28T12:13:35Z</time><name>PT5435</name></trkpt>
<trkpt lat="53.106922" lon="-1.701084"><ele>271</ele><time>2020-10-28T12:13:36Z</time><name>PT5436</name></trkpt>
<trkpt lat="53.106914" lon="-1.701092"><ele>272</ele><time>2020-10-28T12:13:37Z</time><name>PT5437</name></trkpt>
<trkpt lat="53.106908" lon="-1.701106"><ele>272</ele><time>2020-10-28T12:13:38Z</time><name>PT5438</name></trkpt>
<trkpt lat="53.106900" lon="-1.701119"><ele>272</ele><time>2020-10-28T12:13:39Z</time><name>PT5439</name></trkpt>
<trkpt lat="53.106895" lon="-1.701135"><ele>272</ele><time>2020-10-28T12:13:39Z</time><name>PT5440</name></trkpt>
<trkpt lat="53.106893" lon="-1.701149"><ele>272</ele><time>2020-10-28T12:13:41Z</time><name>PT5441</name></trkpt>
<trkpt lat="53.106894" lon="-1.701152"><ele>273</ele><time>2020-10-28T12:13:42Z</time><name>PT5442</name></trkpt>
<trkpt lat="53.106894" lon="-1.701153"><ele>273</ele><time>2020-10-28T12:13:42Z</time><name>PT5443</name></trkpt>
<trkpt lat="53.106890" lon="-1.701155"><ele>273</ele><time>2020-10-28T12:13:44Z</time><name>PT5444</name></trkpt>
<trkpt lat="53.106886" lon="-1.701155"><ele>273</ele><time>2020-10-28T12:13:45Z</time><name>PT5445</name></trkpt>
<trkpt lat="53.106888" lon="-1.701156"><ele>273</ele><time>2020-10-28T12:13:45Z</time><name>PT5446</name></trkpt>
<trkpt lat="53.106887" lon="-1.701157"><ele>273</ele><time>2020-10-28T12:13:47Z</time><name>PT5447</name></trkpt>
<trkpt lat="53.106884" lon="-1.701159"><ele>274</ele><time>2020-10-28T12:13:48Z</time><name>PT5448</name></trkpt>
<trkpt lat="53.106883" lon="-1.701158"><ele>274</ele><time>2020-10-28T12:13:48Z</time><name>PT5449</name></trkpt>
<trkpt lat="53.106879" lon="-1.701166"><ele>274</ele><time>2020-10-28T12:13:51Z</time><name>PT5450</name></trkpt>
<trkpt lat="53.106872" lon="-1.701179"><ele>274</ele><time>2020-10-28T12:13:53Z</time><name>PT5451</name></trkpt>
<trkpt lat="53.106868" lon="-1.701192"><ele>274</ele><time>2020-10-28T12:13:54Z</time><name>PT5452</name></trkpt>
<trkpt lat="53.106865" lon="-1.701205"><ele>274</ele><time>2020-10-28T12:13:54Z</time><name>PT5453</name></trkpt>
<trkpt lat="53.106860" lon="-1.701217"><ele>274</ele><time>2020-10-28T12:13:56Z</time><name>PT5454</name></trkpt>
<trkpt lat="53.106857" lon="-1.701230"><ele>274</ele><time>2020-10-28T12:13:57Z</time><name>PT5455</name></trkpt>
<trkpt lat="53.106852" lon="-1.701241"><ele>274</ele><time>2020-10-28T12:13:57Z</time><name>PT5456</name></trkpt>
<trkpt lat="53.106847" lon="-1.701251"><ele>273</ele><time>2020-10-28T12:13:59Z</time><name>PT5457</name></trkpt>
<trkpt lat="53.106841" lon="-1.701267"><ele>273</ele><time>2020-10-28T12:14:00Z</time><name>PT5458</name></trkpt>
<trkpt lat="53.106837" lon="-1.701281"><ele>274</ele><time>2020-10-28T12:14:00Z</time><name>PT5459</name></trkpt>
<trkpt lat="53.106834" lon="-1.701290"><ele>273</ele><time>2020-10-28T12:14:02Z</time><name>PT5460</name></trkpt>
<trkpt lat="53.106833" lon="-1.701296"><ele>274</ele><time>2020-10-28T12:14:03Z</time><name>PT5461</name></trkpt>
<trkpt lat="53.106831" lon="-1.701301"><ele>274</ele><time>2020-10-28T12:14:03Z</time><name>PT5462</name></trkpt>
<trkpt lat="53.106825" lon="-1.701310"><ele>273</ele><time>2020-10-28T12:14:05Z</time><name>PT5463</name></trkpt>
<trkpt lat="53.106812" lon="-1.701315"><ele>274</ele><time>2020-10-28T12:14:06Z</time><name>PT5464</name></trkpt>
<trkpt lat="53.106805" lon="-1.701333"><ele>274</ele><time>2020-10-28T12:14:06Z</time><name>PT5465</name></trkpt>
<trkpt lat="53.106798" lon="-1.701348"><ele>274</ele><time>2020-10-28T12:14:08Z</time><name>PT5466</name></trkpt>
<trkpt lat="53.106789" lon="-1.701360"><ele>274</ele><time>2020-10-28T12:14:09Z</time><name>PT5467</name></trkpt>
<trkpt lat="53.106781" lon="-1.701373"><ele>274</ele><time>2020-10-28T12:14:09Z</time><name>PT5468</name></trkpt>
<trkpt lat="53.106775" lon="-1.701383"><ele>274</ele><time>2020-10-28T12:14:11Z</time><name>PT5469</name></trkpt>
<trkpt lat="53.106766" lon="-1.701393"><ele>275</ele><time>2020-10-28T12:14:12Z</time><name>PT5470</name></trkpt>
<trkpt lat="53.106759" lon="-1.701404"><ele>275</ele><time>2020-10-28T12:14:12Z</time><name>PT5471</name></trkpt>
<trkpt lat="53.106752" lon="-1.701416"><ele>274</ele><time>2020-10-28T12:14:14Z</time><name>PT5472</name></trkpt>
<trkpt lat="53.106743" lon="-1.701428"><ele>275</ele><time>2020-10-28T12:14:15Z</time><name>PT5473</name></trkpt>
<trkpt lat="53.106738" lon="-1.701441"><ele>275</ele><time>2020-10-28T12:14:15Z</time><name>PT5474</name></trkpt>
<trkpt lat="53.106735" lon="-1.701456"><ele>275</ele><time>2020-10-28T12:14:17Z</time><name>PT5475</name></trkpt>
<trkpt lat="53.106729" lon="-1.701470"><ele>275</ele><time>2020-10-28T12:14:18Z</time><name>PT5476</name></trkpt>
<trkpt lat="53.106724" lon="-1.701482"><ele>275</ele><time>2020-10-28T12:14:18Z</time><name>PT5477</name></trkpt>
<trkpt lat="53.106718" lon="-1.701494"><ele>275</ele><time>2020-10-28T12:14:20Z</time><name>PT5478</name></trkpt>
<trkpt lat="53.106714" lon="-1.701509"><ele>275</ele><time>2020-10-28T12:14:21Z</time><name>PT5479</name></trkpt>
<trkpt lat="53.106712" lon="-1.701527"><ele>275</ele><time>2020-10-28T12:14:21Z</time><name>PT5480</name></trkpt>
<trkpt lat="53.106709" lon="-1.701542"><ele>275</ele><time>2020-10-28T12:14:23Z</time><name>PT5481</name></trkpt>
<trkpt lat="53.106700" lon="-1.701555"><ele>275</ele><time>2020-10-28T12:14:24Z</time><name>PT5482</name></trkpt>
<trkpt lat="53.106693" lon="-1.701570"><ele>275</ele><time>2020-10-28T12:14:24Z</time><name>PT5483</name></trkpt>
<trkpt lat="53.106687" lon="-1.701585"><ele>275</ele><time>2020-10-28T12:14:26Z</time><name>PT5484</name></trkpt>
<trkpt lat="53.106680" lon="-1.701601"><ele>276</ele><time>2020-10-28T12:14:27Z</time><name>PT5485</name></trkpt>
<trkpt lat="53.106674" lon="-1.701617"><ele>276</ele><time>2020-10-28T12:14:27Z</time><name>PT5486</name></trkpt>
<trkpt lat="53.106669" lon="-1.701632"><ele>276</ele><time>2020-10-28T12:14:29Z</time><name>PT5487</name></trkpt>
<trkpt lat="53.106663" lon="-1.701645"><ele>276</ele><time>2020-10-28T12:14:30Z</time><name>PT5488</name></trkpt>
<trkpt lat="53.106658" lon="-1.701658"><ele>276</ele><time>2020-10-28T12:14:30Z</time><name>PT5489</name></trkpt>
<trkpt lat="53.106653" lon="-1.701672"><ele>276</ele><time>2020-10-28T12:14:32Z</time><name>PT5490</name></trkpt>
<trkpt lat="53.106646" lon="-1.701685"><ele>276</ele><time>2020-10-28T12:14:33Z</time><name>PT5491</name></trkpt>
<trkpt lat="53.106640" lon="-1.701698"><ele>276</ele><time>2020-10-28T12:14:33Z</time><name>PT5492</name></trkpt>
<trkpt lat="53.106633" lon="-1.701708"><ele>276</ele><time>2020-10-28T12:14:35Z</time><name>PT5493</name></trkpt>
<trkpt lat="53.106625" lon="-1.701716"><ele>276</ele><time>2020-10-28T12:14:36Z</time><name>PT5494</name></trkpt>
<trkpt lat="53.106618" lon="-1.701725"><ele>276</ele><time>2020-10-28T12:14:36Z</time><name>PT5495</name></trkpt>
<trkpt lat="53.106610" lon="-1.701735"><ele>276</ele><time>2020-10-28T12:14:38Z</time><name>PT5496</name></trkpt>
<trkpt lat="53.106605" lon="-1.701749"><ele>276</ele><time>2020-10-28T12:14:39Z</time><name>PT5497</name></trkpt>
<trkpt lat="53.106601" lon="-1.701764"><ele>276</ele><time>2020-10-28T12:14:40Z</time><name>PT5498</name></trkpt>
<trkpt lat="53.106593" lon="-1.701776"><ele>276</ele><time>2020-10-28T12:14:41Z</time><name>PT5499</name></trkpt>
<trkpt lat="53.106585" lon="-1.701789"><ele>276</ele><time>2020-10-28T12:14:42Z</time><name>PT5500</name></trkpt>
<trkpt lat="53.106580" lon="-1.701802"><ele>276</ele><time>2020-10-28T12:14:42Z</time><name>PT5501</name></trkpt>
<trkpt lat="53.106575" lon="-1.701817"><ele>276</ele><time>2020-10-28T12:14:44Z</time><name>PT5502</name></trkpt>
<trkpt lat="53.106570" lon="-1.701832"><ele>276</ele><time>2020-10-28T12:14:45Z</time><name>PT5503</name></trkpt>
<trkpt lat="53.106565" lon="-1.701845"><ele>276</ele><time>2020-10-28T12:14:46Z</time><name>PT5504</name></trkpt>
<trkpt lat="53.106558" lon="-1.701859"><ele>276</ele><time>2020-10-28T12:14:47Z</time><name>PT5505</name></trkpt>
<trkpt lat="53.106554" lon="-1.701872"><ele>276</ele><time>2020-10-28T12:14:48Z</time><name>PT5506</name></trkpt>
<trkpt lat="53.106550" lon="-1.701886"><ele>276</ele><time>2020-10-28T12:14:49Z</time><name>PT5507</name></trkpt>
<trkpt lat="53.106530" lon="-1.701932"><ele>276</ele><time>2020-10-28T12:14:53Z</time><name>PT5508</name></trkpt>
<trkpt lat="53.106516" lon="-1.701978"><ele>276</ele><time>2020-10-28T12:14:57Z</time><name>PT5509</name></trkpt>
<trkpt lat="53.106513" lon="-1.702008"><ele>276</ele><time>2020-10-28T12:15:00Z</time><name>PT5510</name></trkpt>
<trkpt lat="53.106507" lon="-1.702020"><ele>276</ele><time>2020-10-28T12:15:03Z</time><name>PT5511</name></trkpt>
<trkpt lat="53.106501" lon="-1.702033"><ele>276</ele><time>2020-10-28T12:15:06Z</time><name>PT5512</name></trkpt>
<trkpt lat="53.106483" lon="-1.702045"><ele>277</ele><time>2020-10-28T12:15:11Z</time><name>PT5513</name></trkpt>
<trkpt lat="53.106479" lon="-1.702068"><ele>277</ele><time>2020-10-28T12:15:14Z</time><name>PT5514</name></trkpt>
<trkpt lat="53.106463" lon="-1.702072"><ele>278</ele><time>2020-10-28T12:15:18Z</time><name>PT5515</name></trkpt>
<trkpt lat="53.106430" lon="-1.702043"><ele>277</ele><time>2020-10-28T12:15:21Z</time><name>PT5516</name></trkpt>
<trkpt lat="53.106401" lon="-1.702019"><ele>276</ele><time>2020-10-28T12:15:24Z</time><name>PT5517</name></trkpt>
<trkpt lat="53.106367" lon="-1.701972"><ele>276</ele><time>2020-10-28T12:15:29Z</time><name>PT5518</name></trkpt>
<trkpt lat="53.106336" lon="-1.701948"><ele>276</ele><time>2020-10-28T12:15:32Z</time><name>PT5519</name></trkpt>
<trkpt lat="53.106297" lon="-1.701899"><ele>275</ele><time>2020-10-28T12:15:36Z</time><name>PT5520</name></trkpt>
<trkpt lat="53.106274" lon="-1.701872"><ele>275</ele><time>2020-10-28T12:15:39Z</time><name>PT5521</name></trkpt>
<trkpt lat="53.106248" lon="-1.701846"><ele>275</ele><time>2020-10-28T12:15:42Z</time><name>PT5522</name></trkpt>
<trkpt lat="53.106207" lon="-1.701821"><ele>273</ele><time>2020-10-28T12:15:47Z</time><name>PT5523</name></trkpt>
<trkpt lat="53.106170" lon="-1.701803"><ele>273</ele><time>2020-10-28T12:15:50Z</time><name>PT5524</name></trkpt>
<trkpt lat="53.106159" lon="-1.701798"><ele>273</ele><time>2020-10-28T12:15:51Z</time><name>PT5525</name></trkpt>
<trkpt lat="53.106149" lon="-1.701792"><ele>273</ele><time>2020-10-28T12:15:52Z</time><name>PT5526</name></trkpt>
<trkpt lat="53.106139" lon="-1.701787"><ele>272</ele><time>2020-10-28T12:15:53Z</time><name>PT5527</name></trkpt>
<trkpt lat="53.106128" lon="-1.701777"><ele>272</ele><time>2020-10-28T12:15:54Z</time><name>PT5528</name></trkpt>
<trkpt lat="53.106117" lon="-1.701768"><ele>272</ele><time>2020-10-28T12:15:54Z</time><name>PT5529</name></trkpt>
<trkpt lat="53.106111" lon="-1.701759"><ele>272</ele><time>2020-10-28T12:15:56Z</time><name>PT5530</name></trkpt>
<trkpt lat="53.106106" lon="-1.701753"><ele>272</ele><time>2020-10-28T12:15:57Z</time><name>PT5531</name></trkpt>
<trkpt lat="53.106100" lon="-1.701746"><ele>272</ele><time>2020-10-28T12:15:58Z</time><name>PT5532</name></trkpt>
<trkpt lat="53.106092" lon="-1.701738"><ele>272</ele><time>2020-10-28T12:15:59Z</time><name>PT5533</name></trkpt>
<trkpt lat="53.106083" lon="-1.701730"><ele>272</ele><time>2020-10-28T12:16:00Z</time><name>PT5534</name></trkpt>
<trkpt lat="53.106073" lon="-1.701723"><ele>271</ele><time>2020-10-28T12:16:00Z</time><name>PT5535</name></trkpt>
<trkpt lat="53.106063" lon="-1.701715"><ele>271</ele><time>2020-10-28T12:16:02Z</time><name>PT5536</name></trkpt>
<trkpt lat="53.106051" lon="-1.701708"><ele>271</ele><time>2020-10-28T12:16:03Z</time><name>PT5537</name></trkpt>
<trkpt lat="53.106041" lon="-1.701702"><ele>271</ele><time>2020-10-28T12:16:03Z</time><name>PT5538</name></trkpt>
<trkpt lat="53.106031" lon="-1.701696"><ele>271</ele><time>2020-10-28T12:16:05Z</time><name>PT5539</name></trkpt>
<trkpt lat="53.106020" lon="-1.701692"><ele>271</ele><time>2020-10-28T12:16:06Z</time><name>PT5540</name></trkpt>
<trkpt lat="53.106008" lon="-1.701690"><ele>271</ele><time>2020-10-28T12:16:06Z</time><name>PT5541</name></trkpt>
<trkpt lat="53.105998" lon="-1.701691"><ele>271</ele><time>2020-10-28T12:16:08Z</time><name>PT5542</name></trkpt>
<trkpt lat="53.105986" lon="-1.701691"><ele>271</ele><time>2020-10-28T12:16:09Z</time><name>PT5543</name></trkpt>
<trkpt lat="53.105975" lon="-1.701692"><ele>271</ele><time>2020-10-28T12:16:09Z</time><name>PT5544</name></trkpt>
<trkpt lat="53.105965" lon="-1.701693"><ele>271</ele><time>2020-10-28T12:16:11Z</time><name>PT5545</name></trkpt>
<trkpt lat="53.105955" lon="-1.701699"><ele>271</ele><time>2020-10-28T12:16:12Z</time><name>PT5546</name></trkpt>
<trkpt lat="53.105945" lon="-1.701704"><ele>271</ele><time>2020-10-28T12:16:12Z</time><name>PT5547</name></trkpt>
<trkpt lat="53.105935" lon="-1.701710"><ele>271</ele><time>2020-10-28T12:16:14Z</time><name>PT5548</name></trkpt>
<trkpt lat="53.105925" lon="-1.701711"><ele>271</ele><time>2020-10-28T12:16:15Z</time><name>PT5549</name></trkpt>
<trkpt lat="53.105914" lon="-1.701713"><ele>270</ele><time>2020-10-28T12:16:15Z</time><name>PT5550</name></trkpt>
<trkpt lat="53.105904" lon="-1.701718"><ele>270</ele><time>2020-10-28T12:16:17Z</time><name>PT5551</name></trkpt>
<trkpt lat="53.105892" lon="-1.701722"><ele>270</ele><time>2020-10-28T12:16:18Z</time><name>PT5552</name></trkpt>
<trkpt lat="53.105881" lon="-1.701730"><ele>270</ele><time>2020-10-28T12:16:18Z</time><name>PT5553</name></trkpt>
<trkpt lat="53.105870" lon="-1.701733"><ele>270</ele><time>2020-10-28T12:16:20Z</time><name>PT5554</name></trkpt>
<trkpt lat="53.105858" lon="-1.701733"><ele>270</ele><time>2020-10-28T12:16:21Z</time><name>PT5555</name></trkpt>
<trkpt lat="53.105845" lon="-1.701738"><ele>269</ele><time>2020-10-28T12:16:21Z</time><name>PT5556</name></trkpt>
<trkpt lat="53.105834" lon="-1.701737"><ele>269</ele><time>2020-10-28T12:16:23Z</time><name>PT5557</name></trkpt>
<trkpt lat="53.105821" lon="-1.701736"><ele>269</ele><time>2020-10-28T12:16:24Z</time><name>PT5558</name></trkpt>
<trkpt lat="53.105812" lon="-1.701742"><ele>269</ele><time>2020-10-28T12:16:24Z</time><name>PT5559</name></trkpt>
<trkpt lat="53.105800" lon="-1.701745"><ele>269</ele><time>2020-10-28T12:16:26Z</time><name>PT5560</name></trkpt>
<trkpt lat="53.105788" lon="-1.701746"><ele>269</ele><time>2020-10-28T12:16:27Z</time><name>PT5561</name></trkpt>
<trkpt lat="53.105777" lon="-1.701751"><ele>268</ele><time>2020-10-28T12:16:27Z</time><name>PT5562</name></trkpt>
<trkpt lat="53.105769" lon="-1.701751"><ele>269</ele><time>2020-10-28T12:16:29Z</time><name>PT5563</name></trkpt>
<trkpt lat="53.105767" lon="-1.701755"><ele>269</ele><time>2020-10-28T12:16:30Z</time><name>PT5564</name></trkpt>
<trkpt lat="53.105770" lon="-1.701756"><ele>268</ele><time>2020-10-28T12:16:30Z</time><name>PT5565</name></trkpt>
<trkpt lat="53.105768" lon="-1.701755"><ele>268</ele><time>2020-10-28T12:16:32Z</time><name>PT5566</name></trkpt>
<trkpt lat="53.105766" lon="-1.701757"><ele>268</ele><time>2020-10-28T12:16:33Z</time><name>PT5567</name></trkpt>
<trkpt lat="53.105766" lon="-1.701757"><ele>268</ele><time>2020-10-28T12:16:33Z</time><name>PT5568</name></trkpt>
<trkpt lat="53.105766" lon="-1.701757"><ele>268</ele><time>2020-10-28T12:16:35Z</time><name>PT5569</name></trkpt>
<trkpt lat="53.105766" lon="-1.701756"><ele>268</ele><time>2020-10-28T12:16:36Z</time><name>PT5570</name></trkpt>
<trkpt lat="53.105765" lon="-1.701758"><ele>268</ele><time>2020-10-28T12:16:36Z</time><name>PT5571</name></trkpt>
<trkpt lat="53.105764" lon="-1.701759"><ele>269</ele><time>2020-10-28T12:16:38Z</time><name>PT5572</name></trkpt>
<trkpt lat="53.105762" lon="-1.701761"><ele>268</ele><time>2020-10-28T12:16:39Z</time><name>PT5573</name></trkpt>
<trkpt lat="53.105761" lon="-1.701763"><ele>268</ele><time>2020-10-28T12:16:50Z</time><name>PT5574</name></trkpt>
<trkpt lat="53.105753" lon="-1.701764"><ele>269</ele><time>2020-10-28T12:16:51Z</time><name>PT5575</name></trkpt>
<trkpt lat="53.105745" lon="-1.701767"><ele>269</ele><time>2020-10-28T12:16:51Z</time><name>PT5576</name></trkpt>
<trkpt lat="53.105738" lon="-1.701761"><ele>268</ele><time>2020-10-28T12:16:53Z</time><name>PT5577</name></trkpt>
<trkpt lat="53.105728" lon="-1.701747"><ele>269</ele><time>2020-10-28T12:16:54Z</time><name>PT5578</name></trkpt>
<trkpt lat="53.105717" lon="-1.701746"><ele>268</ele><time>2020-10-28T12:16:54Z</time><name>PT5579</name></trkpt>
<trkpt lat="53.105706" lon="-1.701743"><ele>268</ele><time>2020-10-28T12:16:56Z</time><name>PT5580</name></trkpt>
<trkpt lat="53.105695" lon="-1.701740"><ele>268</ele><time>2020-10-28T12:16:57Z</time><name>PT5581</name></trkpt>
<trkpt lat="53.105683" lon="-1.701738"><ele>268</ele><time>2020-10-28T12:16:57Z</time><name>PT5582</name></trkpt>
<trkpt lat="53.105677" lon="-1.701734"><ele>268</ele><time>2020-10-28T12:16:59Z</time><name>PT5583</name></trkpt>
<trkpt lat="53.105671" lon="-1.701741"><ele>268</ele><time>2020-10-28T12:17:00Z</time><name>PT5584</name></trkpt>
<trkpt lat="53.105665" lon="-1.701754"><ele>267</ele><time>2020-10-28T12:17:00Z</time><name>PT5585</name></trkpt>
<trkpt lat="53.105663" lon="-1.701760"><ele>268</ele><time>2020-10-28T12:17:02Z</time><name>PT5586</name></trkpt>
<trkpt lat="53.105663" lon="-1.701760"><ele>268</ele><time>2020-10-28T12:17:03Z</time><name>PT5587</name></trkpt>
<trkpt lat="53.105663" lon="-1.701759"><ele>268</ele><time>2020-10-28T12:17:04Z</time><name>PT5588</name></trkpt>
<trkpt lat="53.105662" lon="-1.701758"><ele>268</ele><time>2020-10-28T12:17:05Z</time><name>PT5589</name></trkpt>
<trkpt lat="53.105660" lon="-1.701760"><ele>268</ele><time>2020-10-28T12:17:21Z</time><name>PT5590</name></trkpt>
<trkpt lat="53.105660" lon="-1.701747"><ele>268</ele><time>2020-10-28T12:17:22Z</time><name>PT5591</name></trkpt>
<trkpt lat="53.105656" lon="-1.701736"><ele>267</ele><time>2020-10-28T12:17:23Z</time><name>PT5592</name></trkpt>
<trkpt lat="53.105650" lon="-1.701729"><ele>267</ele><time>2020-10-28T12:17:24Z</time><name>PT5593</name></trkpt>
<trkpt lat="53.105643" lon="-1.701724"><ele>267</ele><time>2020-10-28T12:17:24Z</time><name>PT5594</name></trkpt>
<trkpt lat="53.105636" lon="-1.701724"><ele>266</ele><time>2020-10-28T12:17:26Z</time><name>PT5595</name></trkpt>
<trkpt lat="53.105629" lon="-1.701718"><ele>266</ele><time>2020-10-28T12:17:27Z</time><name>PT5596</name></trkpt>
<trkpt lat="53.105616" lon="-1.701718"><ele>266</ele><time>2020-10-28T12:17:27Z</time><name>PT5597</name></trkpt>
<trkpt lat="53.105605" lon="-1.701717"><ele>266</ele><time>2020-10-28T12:17:29Z</time><name>PT5598</name></trkpt>
<trkpt lat="53.105595" lon="-1.701714"><ele>265</ele><time>2020-10-28T12:17:30Z</time><name>PT5599</name></trkpt>
<trkpt lat="53.105585" lon="-1.701708"><ele>265</ele><time>2020-10-28T12:17:30Z</time><name>PT5600</name></trkpt>
<trkpt lat="53.105577" lon="-1.701702"><ele>265</ele><time>2020-10-28T12:17:32Z</time><name>PT5601</name></trkpt>
<trkpt lat="53.105569" lon="-1.701699"><ele>265</ele><time>2020-10-28T12:17:33Z</time><name>PT5602</name></trkpt>
<trkpt lat="53.105561" lon="-1.701701"><ele>265</ele><time>2020-10-28T12:17:33Z</time><name>PT5603</name></trkpt>
<trkpt lat="53.105551" lon="-1.701697"><ele>265</ele><time>2020-10-28T12:17:35Z</time><name>PT5604</name></trkpt>
<trkpt lat="53.105543" lon="-1.701697"><ele>264</ele><time>2020-10-28T12:17:36Z</time><name>PT5605</name></trkpt>
<trkpt lat="53.105533" lon="-1.701689"><ele>264</ele><time>2020-10-28T12:17:36Z</time><name>PT5606</name></trkpt>
<trkpt lat="53.105524" lon="-1.701685"><ele>264</ele><time>2020-10-28T12:17:38Z</time><name>PT5607</name></trkpt>
<trkpt lat="53.105512" lon="-1.701686"><ele>264</ele><time>2020-10-28T12:17:39Z</time><name>PT5608</name></trkpt>
<trkpt lat="53.105498" lon="-1.701679"><ele>264</ele><time>2020-10-28T12:17:39Z</time><name>PT5609</name></trkpt>
<trkpt lat="53.105487" lon="-1.701674"><ele>264</ele><time>2020-10-28T12:17:41Z</time><name>PT5610</name></trkpt>
<trkpt lat="53.105476" lon="-1.701670"><ele>264</ele><time>2020-10-28T12:17:42Z</time><name>PT5611</name></trkpt>
<trkpt lat="53.105465" lon="-1.701666"><ele>263</ele><time>2020-10-28T12:17:42Z</time><name>PT5612</name></trkpt>
<trkpt lat="53.105454" lon="-1.701661"><ele>263</ele><time>2020-10-28T12:17:44Z</time><name>PT5613</name></trkpt>
<trkpt lat="53.105443" lon="-1.701660"><ele>263</ele><time>2020-10-28T12:17:45Z</time><name>PT5614</name></trkpt>
<trkpt lat="53.105432" lon="-1.701654"><ele>263</ele><time>2020-10-28T12:17:45Z</time><name>PT5615</name></trkpt>
<trkpt lat="53.105421" lon="-1.701646"><ele>263</ele><time>2020-10-28T12:17:47Z</time><name>PT5616</name></trkpt>
<trkpt lat="53.105409" lon="-1.701641"><ele>263</ele><time>2020-10-28T12:17:48Z</time><name>PT5617</name></trkpt>
<trkpt lat="53.105396" lon="-1.701634"><ele>263</ele><time>2020-10-28T12:17:48Z</time><name>PT5618</name></trkpt>
<trkpt lat="53.105383" lon="-1.701629"><ele>263</ele><time>2020-10-28T12:17:50Z</time><name>PT5619</name></trkpt>
<trkpt lat="53.105368" lon="-1.701625"><ele>263</ele><time>2020-10-28T12:17:51Z</time><name>PT5620</name></trkpt>
<trkpt lat="53.105354" lon="-1.701618"><ele>264</ele><time>2020-10-28T12:17:51Z</time><name>PT5621</name></trkpt>
<trkpt lat="53.105341" lon="-1.701611"><ele>264</ele><time>2020-10-28T12:17:53Z</time><name>PT5622</name></trkpt>
<trkpt lat="53.105326" lon="-1.701607"><ele>264</ele><time>2020-10-28T12:17:54Z</time><name>PT5623</name></trkpt>
<trkpt lat="53.105311" lon="-1.701606"><ele>264</ele><time>2020-10-28T12:17:54Z</time><name>PT5624</name></trkpt>
<trkpt lat="53.105298" lon="-1.701601"><ele>265</ele><time>2020-10-28T12:17:56Z</time><name>PT5625</name></trkpt>
<trkpt lat="53.105286" lon="-1.701596"><ele>265</ele><time>2020-10-28T12:17:57Z</time><name>PT5626</name></trkpt>
<trkpt lat="53.105272" lon="-1.701594"><ele>265</ele><time>2020-10-28T12:17:57Z</time><name>PT5627</name></trkpt>
<trkpt lat="53.105258" lon="-1.701594"><ele>265</ele><time>2020-10-28T12:17:59Z</time><name>PT5628</name></trkpt>
<trkpt lat="53.105245" lon="-1.701591"><ele>265</ele><time>2020-10-28T12:18:00Z</time><name>PT5629</name></trkpt>
<trkpt lat="53.105233" lon="-1.701586"><ele>265</ele><time>2020-10-28T12:18:01Z</time><name>PT5630</name></trkpt>
<trkpt lat="53.105220" lon="-1.701588"><ele>264</ele><time>2020-10-28T12:18:02Z</time><name>PT5631</name></trkpt>
<trkpt lat="53.105207" lon="-1.701587"><ele>264</ele><time>2020-10-28T12:18:03Z</time><name>PT5632</name></trkpt>
<trkpt lat="53.105196" lon="-1.701589"><ele>264</ele><time>2020-10-28T12:18:04Z</time><name>PT5633</name></trkpt>
<trkpt lat="53.105182" lon="-1.701591"><ele>265</ele><time>2020-10-28T12:18:05Z</time><name>PT5634</name></trkpt>
<trkpt lat="53.105170" lon="-1.701595"><ele>264</ele><time>2020-10-28T12:18:06Z</time><name>PT5635</name></trkpt>
<trkpt lat="53.105156" lon="-1.701595"><ele>264</ele><time>2020-10-28T12:18:07Z</time><name>PT5636</name></trkpt>
<trkpt lat="53.105141" lon="-1.701593"><ele>264</ele><time>2020-10-28T12:18:08Z</time><name>PT5637</name></trkpt>
<trkpt lat="53.105128" lon="-1.701589"><ele>264</ele><time>2020-10-28T12:18:09Z</time><name>PT5638</name></trkpt>
<trkpt lat="53.105115" lon="-1.701587"><ele>264</ele><time>2020-10-28T12:18:09Z</time><name>PT5639</name></trkpt>
<trkpt lat="53.105103" lon="-1.701586"><ele>264</ele><time>2020-10-28T12:18:11Z</time><name>PT5640</name></trkpt>
<trkpt lat="53.105090" lon="-1.701585"><ele>265</ele><time>2020-10-28T12:18:12Z</time><name>PT5641</name></trkpt>
<trkpt lat="53.105076" lon="-1.701583"><ele>265</ele><time>2020-10-28T12:18:13Z</time><name>PT5642</name></trkpt>
<trkpt lat="53.105065" lon="-1.701579"><ele>265</ele><time>2020-10-28T12:18:14Z</time><name>PT5643</name></trkpt>
<trkpt lat="53.105052" lon="-1.701574"><ele>264</ele><time>2020-10-28T12:18:15Z</time><name>PT5644</name></trkpt>
<trkpt lat="53.105041" lon="-1.701570"><ele>264</ele><time>2020-10-28T12:18:15Z</time><name>PT5645</name></trkpt>
<trkpt lat="53.105030" lon="-1.701565"><ele>264</ele><time>2020-10-28T12:18:17Z</time><name>PT5646</name></trkpt>
<trkpt lat="53.105017" lon="-1.701563"><ele>264</ele><time>2020-10-28T12:18:18Z</time><name>PT5647</name></trkpt>
<trkpt lat="53.105005" lon="-1.701565"><ele>264</ele><time>2020-10-28T12:18:18Z</time><name>PT5648</name></trkpt>
<trkpt lat="53.104992" lon="-1.701562"><ele>264</ele><time>2020-10-28T12:18:20Z</time><name>PT5649</name></trkpt>
<trkpt lat="53.104978" lon="-1.701562"><ele>264</ele><time>2020-10-28T12:18:21Z</time><name>PT5650</name></trkpt>
<trkpt lat="53.104967" lon="-1.701570"><ele>264</ele><time>2020-10-28T12:18:21Z</time><name>PT5651</name></trkpt>
<trkpt lat="53.104954" lon="-1.701573"><ele>263</ele><time>2020-10-28T12:18:23Z</time><name>PT5652</name></trkpt>
<trkpt lat="53.104941" lon="-1.701574"><ele>263</ele><time>2020-10-28T12:18:24Z</time><name>PT5653</name></trkpt>
<trkpt lat="53.104931" lon="-1.701576"><ele>263</ele><time>2020-10-28T12:18:24Z</time><name>PT5654</name></trkpt>
<trkpt lat="53.104919" lon="-1.701575"><ele>263</ele><time>2020-10-28T12:18:26Z</time><name>PT5655</name></trkpt>
<trkpt lat="53.104907" lon="-1.701572"><ele>263</ele><time>2020-10-28T12:18:27Z</time><name>PT5656</name></trkpt>
<trkpt lat="53.104891" lon="-1.701569"><ele>263</ele><time>2020-10-28T12:18:27Z</time><name>PT5657</name></trkpt>
<trkpt lat="53.104880" lon="-1.701570"><ele>262</ele><time>2020-10-28T12:18:29Z</time><name>PT5658</name></trkpt>
<trkpt lat="53.104869" lon="-1.701571"><ele>262</ele><time>2020-10-28T12:18:30Z</time><name>PT5659</name></trkpt>
<trkpt lat="53.104858" lon="-1.701570"><ele>262</ele><time>2020-10-28T12:18:30Z</time><name>PT5660</name></trkpt>
<trkpt lat="53.104845" lon="-1.701570"><ele>262</ele><time>2020-10-28T12:18:32Z</time><name>PT5661</name></trkpt>
<trkpt lat="53.104835" lon="-1.701570"><ele>261</ele><time>2020-10-28T12:18:33Z</time><name>PT5662</name></trkpt>
<trkpt lat="53.104823" lon="-1.701567"><ele>261</ele><time>2020-10-28T12:18:33Z</time><name>PT5663</name></trkpt>
<trkpt lat="53.104808" lon="-1.701563"><ele>261</ele><time>2020-10-28T12:18:35Z</time><name>PT5664</name></trkpt>
<trkpt lat="53.104796" lon="-1.701563"><ele>261</ele><time>2020-10-28T12:18:36Z</time><name>PT5665</name></trkpt>
<trkpt lat="53.104786" lon="-1.701565"><ele>261</ele><time>2020-10-28T12:18:36Z</time><name>PT5666</name></trkpt>
<trkpt lat="53.104776" lon="-1.701563"><ele>261</ele><time>2020-10-28T12:18:38Z</time><name>PT5667</name></trkpt>
<trkpt lat="53.104762" lon="-1.701562"><ele>261</ele><time>2020-10-28T12:18:39Z</time><name>PT5668</name></trkpt>
<trkpt lat="53.104754" lon="-1.701558"><ele>261</ele><time>2020-10-28T12:18:39Z</time><name>PT5669</name></trkpt>
<trkpt lat="53.104744" lon="-1.701547"><ele>262</ele><time>2020-10-28T12:18:41Z</time><name>PT5670</name></trkpt>
<trkpt lat="53.104733" lon="-1.701539"><ele>262</ele><time>2020-10-28T12:18:42Z</time><name>PT5671</name></trkpt>
<trkpt lat="53.104724" lon="-1.701537"><ele>263</ele><time>2020-10-28T12:18:42Z</time><name>PT5672</name></trkpt>
<trkpt lat="53.104713" lon="-1.701537"><ele>263</ele><time>2020-10-28T12:18:44Z</time><name>PT5673</name></trkpt>
<trkpt lat="53.104698" lon="-1.701533"><ele>264</ele><time>2020-10-28T12:18:45Z</time><name>PT5674</name></trkpt>
<trkpt lat="53.104681" lon="-1.701535"><ele>264</ele><time>2020-10-28T12:18:45Z</time><name>PT5675</name></trkpt>
<trkpt lat="53.104667" lon="-1.701536"><ele>264</ele><time>2020-10-28T12:18:47Z</time><name>PT5676</name></trkpt>
<trkpt lat="53.104652" lon="-1.701539"><ele>263</ele><time>2020-10-28T12:18:48Z</time><name>PT5677</name></trkpt>
<trkpt lat="53.104636" lon="-1.701539"><ele>263</ele><time>2020-10-28T12:18:48Z</time><name>PT5678</name></trkpt>
<trkpt lat="53.104620" lon="-1.701540"><ele>264</ele><time>2020-10-28T12:18:50Z</time><name>PT5679</name></trkpt>
<trkpt lat="53.104610" lon="-1.701539"><ele>264</ele><time>2020-10-28T12:18:51Z</time><name>PT5680</name></trkpt>
<trkpt lat="53.104570" lon="-1.701537"><ele>264</ele><time>2020-10-28T12:18:54Z</time><name>PT5681</name></trkpt>
<trkpt lat="53.104521" lon="-1.701538"><ele>263</ele><time>2020-10-28T12:18:57Z</time><name>PT5682</name></trkpt>
<trkpt lat="53.104484" lon="-1.701537"><ele>263</ele><time>2020-10-28T12:19:00Z</time><name>PT5683</name></trkpt>
<trkpt lat="53.104451" lon="-1.701528"><ele>262</ele><time>2020-10-28T12:19:03Z</time><name>PT5684</name></trkpt>
<trkpt lat="53.104418" lon="-1.701518"><ele>262</ele><time>2020-10-28T12:19:07Z</time><name>PT5685</name></trkpt>
<trkpt lat="53.104370" lon="-1.701506"><ele>262</ele><time>2020-10-28T12:19:11Z</time><name>PT5686</name></trkpt>
<trkpt lat="53.104332" lon="-1.701486"><ele>262</ele><time>2020-10-28T12:19:14Z</time><name>PT5687</name></trkpt>
<trkpt lat="53.104280" lon="-1.701460"><ele>262</ele><time>2020-10-28T12:19:18Z</time><name>PT5688</name></trkpt>
<trkpt lat="53.104239" lon="-1.701442"><ele>262</ele><time>2020-10-28T12:19:21Z</time><name>PT5689</name></trkpt>
<trkpt lat="53.104186" lon="-1.701413"><ele>262</ele><time>2020-10-28T12:19:24Z</time><name>PT5690</name></trkpt>
<trkpt lat="53.104151" lon="-1.701401"><ele>261</ele><time>2020-10-28T12:19:27Z</time><name>PT5691</name></trkpt>
<trkpt lat="53.104096" lon="-1.701368"><ele>262</ele><time>2020-10-28T12:19:32Z</time><name>PT5692</name></trkpt>
<trkpt lat="53.104060" lon="-1.701351"><ele>261</ele><time>2020-10-28T12:19:35Z</time><name>PT5693</name></trkpt>
<trkpt lat="53.104011" lon="-1.701321"><ele>261</ele><time>2020-10-28T12:19:39Z</time><name>PT5694</name></trkpt>
<trkpt lat="53.103968" lon="-1.701307"><ele>259</ele><time>2020-10-28T12:19:42Z</time><name>PT5695</name></trkpt>
<trkpt lat="53.103930" lon="-1.701280"><ele>259</ele><time>2020-10-28T12:19:45Z</time><name>PT5696</name></trkpt>
<trkpt lat="53.103882" lon="-1.701254"><ele>259</ele><time>2020-10-28T12:19:50Z</time><name>PT5697</name></trkpt>
<trkpt lat="53.103848" lon="-1.701239"><ele>258</ele><time>2020-10-28T12:19:53Z</time><name>PT5698</name></trkpt>
<trkpt lat="53.103820" lon="-1.701204"><ele>259</ele><time>2020-10-28T12:19:56Z</time><name>PT5699</name></trkpt>
<trkpt lat="53.103788" lon="-1.701168"><ele>260</ele><time>2020-10-28T12:19:59Z</time><name>PT5700</name></trkpt>
<trkpt lat="53.103749" lon="-1.701152"><ele>260</ele><time>2020-10-28T12:20:02Z</time><name>PT5701</name></trkpt>
<trkpt lat="53.103700" lon="-1.701125"><ele>259</ele><time>2020-10-28T12:20:06Z</time><name>PT5702</name></trkpt>
<trkpt lat="53.103667" lon="-1.701099"><ele>259</ele><time>2020-10-28T12:20:09Z</time><name>PT5703</name></trkpt>
<trkpt lat="53.103625" lon="-1.701074"><ele>258</ele><time>2020-10-28T12:20:12Z</time><name>PT5704</name></trkpt>
<trkpt lat="53.103594" lon="-1.701047"><ele>256</ele><time>2020-10-28T12:20:15Z</time><name>PT5705</name></trkpt>
<trkpt lat="53.103563" lon="-1.701015"><ele>255</ele><time>2020-10-28T12:20:18Z</time><name>PT5706</name></trkpt>
<trkpt lat="53.103528" lon="-1.700970"><ele>255</ele><time>2020-10-28T12:20:23Z</time><name>PT5707</name></trkpt>
<trkpt lat="53.103494" lon="-1.700925"><ele>254</ele><time>2020-10-28T12:20:27Z</time><name>PT5708</name></trkpt>
<trkpt lat="53.103461" lon="-1.700881"><ele>255</ele><time>2020-10-28T12:20:30Z</time><name>PT5709</name></trkpt>
<trkpt lat="53.103425" lon="-1.700829"><ele>254</ele><time>2020-10-28T12:20:33Z</time><name>PT5710</name></trkpt>
<trkpt lat="53.103390" lon="-1.700777"><ele>252</ele><time>2020-10-28T12:20:38Z</time><name>PT5711</name></trkpt>
<trkpt lat="53.103356" lon="-1.700738"><ele>252</ele><time>2020-10-28T12:20:41Z</time><name>PT5712</name></trkpt>
<trkpt lat="53.103317" lon="-1.700680"><ele>252</ele><time>2020-10-28T12:20:45Z</time><name>PT5713</name></trkpt>
<trkpt lat="53.103286" lon="-1.700637"><ele>252</ele><time>2020-10-28T12:20:48Z</time><name>PT5714</name></trkpt>
<trkpt lat="53.103257" lon="-1.700586"><ele>252</ele><time>2020-10-28T12:20:51Z</time><name>PT5715</name></trkpt>
<trkpt lat="53.103224" lon="-1.700546"><ele>253</ele><time>2020-10-28T12:20:54Z</time><name>PT5716</name></trkpt>
<trkpt lat="53.103185" lon="-1.700478"><ele>252</ele><time>2020-10-28T12:20:57Z</time><name>PT5717</name></trkpt>
<trkpt lat="53.103158" lon="-1.700439"><ele>253</ele><time>2020-10-28T12:21:00Z</time><name>PT5718</name></trkpt>
<trkpt lat="53.103115" lon="-1.700371"><ele>253</ele><time>2020-10-28T12:21:05Z</time><name>PT5719</name></trkpt>
<trkpt lat="53.103083" lon="-1.700315"><ele>253</ele><time>2020-10-28T12:21:09Z</time><name>PT5720</name></trkpt>
<trkpt lat="53.103059" lon="-1.700266"><ele>253</ele><time>2020-10-28T12:21:12Z</time><name>PT5721</name></trkpt>
<trkpt lat="53.103029" lon="-1.700224"><ele>253</ele><time>2020-10-28T12:21:15Z</time><name>PT5722</name></trkpt>
<trkpt lat="53.102995" lon="-1.700142"><ele>252</ele><time>2020-10-28T12:21:18Z</time><name>PT5723</name></trkpt>
<trkpt lat="53.102956" lon="-1.700076"><ele>251</ele><time>2020-10-28T12:21:23Z</time><name>PT5724</name></trkpt>
<trkpt lat="53.102916" lon="-1.700013"><ele>250</ele><time>2020-10-28T12:21:27Z</time><name>PT5725</name></trkpt>
<trkpt lat="53.102894" lon="-1.699949"><ele>251</ele><time>2020-10-28T12:21:30Z</time><name>PT5726</name></trkpt>
<trkpt lat="53.102875" lon="-1.699910"><ele>249</ele><time>2020-10-28T12:21:33Z</time><name>PT5727</name></trkpt>
<trkpt lat="53.102846" lon="-1.699862"><ele>248</ele><time>2020-10-28T12:21:36Z</time><name>PT5728</name></trkpt>
<trkpt lat="53.102826" lon="-1.699805"><ele>249</ele><time>2020-10-28T12:21:39Z</time><name>PT5729</name></trkpt>
<trkpt lat="53.102809" lon="-1.699754"><ele>248</ele><time>2020-10-28T12:21:44Z</time><name>PT5730</name></trkpt>
<trkpt lat="53.102793" lon="-1.699693"><ele>249</ele><time>2020-10-28T12:21:47Z</time><name>PT5731</name></trkpt>
<trkpt lat="53.102766" lon="-1.699611"><ele>249</ele><time>2020-10-28T12:21:51Z</time><name>PT5732</name></trkpt>
<trkpt lat="53.102742" lon="-1.699531"><ele>249</ele><time>2020-10-28T12:21:54Z</time><name>PT5733</name></trkpt>
<trkpt lat="53.102723" lon="-1.699486"><ele>249</ele><time>2020-10-28T12:21:57Z</time><name>PT5734</name></trkpt>
<trkpt lat="53.102699" lon="-1.699406"><ele>248</ele><time>2020-10-28T12:22:02Z</time><name>PT5735</name></trkpt>
<trkpt lat="53.102659" lon="-1.699331"><ele>249</ele><time>2020-10-28T12:22:06Z</time><name>PT5736</name></trkpt>
<trkpt lat="53.102631" lon="-1.699259"><ele>249</ele><time>2020-10-28T12:22:09Z</time><name>PT5737</name></trkpt>
<trkpt lat="53.102608" lon="-1.699211"><ele>249</ele><time>2020-10-28T12:22:12Z</time><name>PT5738</name></trkpt>
<trkpt lat="53.102586" lon="-1.699159"><ele>249</ele><time>2020-10-28T12:22:15Z</time><name>PT5739</name></trkpt>
<trkpt lat="53.102558" lon="-1.699104"><ele>249</ele><time>2020-10-28T12:22:18Z</time><name>PT5740</name></trkpt>
<trkpt lat="53.102526" lon="-1.699035"><ele>248</ele><time>2020-10-28T12:22:23Z</time><name>PT5741</name></trkpt>
<trkpt lat="53.102495" lon="-1.698964"><ele>249</ele><time>2020-10-28T12:22:27Z</time><name>PT5742</name></trkpt>
<trkpt lat="53.102462" lon="-1.698893"><ele>249</ele><time>2020-10-28T12:22:30Z</time><name>PT5743</name></trkpt>
<trkpt lat="53.102428" lon="-1.698822"><ele>249</ele><time>2020-10-28T12:22:35Z</time><name>PT5744</name></trkpt>
<trkpt lat="53.102394" lon="-1.698750"><ele>251</ele><time>2020-10-28T12:22:39Z</time><name>PT5745</name></trkpt>
<trkpt lat="53.102361" lon="-1.698691"><ele>250</ele><time>2020-10-28T12:22:42Z</time><name>PT5746</name></trkpt>
<trkpt lat="53.102334" lon="-1.698640"><ele>250</ele><time>2020-10-28T12:22:45Z</time><name>PT5747</name></trkpt>
<trkpt lat="53.102306" lon="-1.698594"><ele>249</ele><time>2020-10-28T12:22:48Z</time><name>PT5748</name></trkpt>
<trkpt lat="53.102270" lon="-1.698526"><ele>249</ele><time>2020-10-28T12:22:53Z</time><name>PT5749</name></trkpt>
<trkpt lat="53.102238" lon="-1.698461"><ele>249</ele><time>2020-10-28T12:22:57Z</time><name>PT5750</name></trkpt>
<trkpt lat="53.102210" lon="-1.698400"><ele>249</ele><time>2020-10-28T12:23:00Z</time><name>PT5751</name></trkpt>
<trkpt lat="53.102178" lon="-1.698337"><ele>248</ele><time>2020-10-28T12:23:03Z</time><name>PT5752</name></trkpt>
<trkpt lat="53.102172" lon="-1.698320"><ele>247</ele><time>2020-10-28T12:23:03Z</time><name>PT5753</name></trkpt>
<trkpt lat="53.102165" lon="-1.698303"><ele>247</ele><time>2020-10-28T12:23:05Z</time><name>PT5754</name></trkpt>
<trkpt lat="53.102156" lon="-1.698289"><ele>247</ele><time>2020-10-28T12:23:06Z</time><name>PT5755</name></trkpt>
<trkpt lat="53.102145" lon="-1.698269"><ele>247</ele><time>2020-10-28T12:23:06Z</time><name>PT5756</name></trkpt>
<trkpt lat="53.102135" lon="-1.698251"><ele>247</ele><time>2020-10-28T12:23:08Z</time><name>PT5757</name></trkpt>
<trkpt lat="53.102127" lon="-1.698232"><ele>246</ele><time>2020-10-28T12:23:09Z</time><name>PT5758</name></trkpt>
<trkpt lat="53.102121" lon="-1.698213"><ele>247</ele><time>2020-10-28T12:23:09Z</time><name>PT5759</name></trkpt>
<trkpt lat="53.102113" lon="-1.698195"><ele>247</ele><time>2020-10-28T12:23:11Z</time><name>PT5760</name></trkpt>
<trkpt lat="53.102105" lon="-1.698178"><ele>247</ele><time>2020-10-28T12:23:12Z</time><name>PT5761</name></trkpt>
<trkpt lat="53.102098" lon="-1.698162"><ele>247</ele><time>2020-10-28T12:23:12Z</time><name>PT5762</name></trkpt>
<trkpt lat="53.102091" lon="-1.698145"><ele>247</ele><time>2020-10-28T12:23:14Z</time><name>PT5763</name></trkpt>
<trkpt lat="53.102083" lon="-1.698122"><ele>247</ele><time>2020-10-28T12:23:15Z</time><name>PT5764</name></trkpt>
<trkpt lat="53.102074" lon="-1.698104"><ele>247</ele><time>2020-10-28T12:23:15Z</time><name>PT5765</name></trkpt>
<trkpt lat="53.102064" lon="-1.698085"><ele>246</ele><time>2020-10-28T12:23:17Z</time><name>PT5766</name></trkpt>
<trkpt lat="53.102059" lon="-1.698066"><ele>247</ele><time>2020-10-28T12:23:18Z</time><name>PT5767</name></trkpt>
<trkpt lat="53.102050" lon="-1.698048"><ele>247</ele><time>2020-10-28T12:23:18Z</time><name>PT5768</name></trkpt>
<trkpt lat="53.102041" lon="-1.698030"><ele>247</ele><time>2020-10-28T12:23:20Z</time><name>PT5769</name></trkpt>
<trkpt lat="53.102031" lon="-1.698014"><ele>247</ele><time>2020-10-28T12:23:21Z</time><name>PT5770</name></trkpt>
<trkpt lat="53.102023" lon="-1.697998"><ele>246</ele><time>2020-10-28T12:23:21Z</time><name>PT5771</name></trkpt>
<trkpt lat="53.102016" lon="-1.697982"><ele>246</ele><time>2020-10-28T12:23:23Z</time><name>PT5772</name></trkpt>
<trkpt lat="53.102010" lon="-1.697967"><ele>246</ele><time>2020-10-28T12:23:24Z</time><name>PT5773</name></trkpt>
<trkpt lat="53.102002" lon="-1.697948"><ele>246</ele><time>2020-10-28T12:23:24Z</time><name>PT5774</name></trkpt>
<trkpt lat="53.101998" lon="-1.697934"><ele>246</ele><time>2020-10-28T12:23:26Z</time><name>PT5775</name></trkpt>
<trkpt lat="53.101993" lon="-1.697918"><ele>246</ele><time>2020-10-28T12:23:27Z</time><name>PT5776</name></trkpt>
<trkpt lat="53.101986" lon="-1.697901"><ele>246</ele><time>2020-10-28T12:23:27Z</time><name>PT5777</name></trkpt>
<trkpt lat="53.101980" lon="-1.697884"><ele>245</ele><time>2020-10-28T12:23:29Z</time><name>PT5778</name></trkpt>
<trkpt lat="53.101974" lon="-1.697866"><ele>245</ele><time>2020-10-28T12:23:30Z</time><name>PT5779</name></trkpt>
<trkpt lat="53.101969" lon="-1.697849"><ele>245</ele><time>2020-10-28T12:23:30Z</time><name>PT5780</name></trkpt>
<trkpt lat="53.101962" lon="-1.697832"><ele>245</ele><time>2020-10-28T12:23:32Z</time><name>PT5781</name></trkpt>
<trkpt lat="53.101953" lon="-1.697814"><ele>245</ele><time>2020-10-28T12:23:33Z</time><name>PT5782</name></trkpt>
<trkpt lat="53.101943" lon="-1.697799"><ele>245</ele><time>2020-10-28T12:23:33Z</time><name>PT5783</name></trkpt>
<trkpt lat="53.101934" lon="-1.697783"><ele>245</ele><time>2020-10-28T12:23:35Z</time><name>PT5784</name></trkpt>
<trkpt lat="53.101927" lon="-1.697766"><ele>244</ele><time>2020-10-28T12:23:36Z</time><name>PT5785</name></trkpt>
<trkpt lat="53.101919" lon="-1.697752"><ele>244</ele><time>2020-10-28T12:23:36Z</time><name>PT5786</name></trkpt>
<trkpt lat="53.101911" lon="-1.697740"><ele>243</ele><time>2020-10-28T12:23:38Z</time><name>PT5787</name></trkpt>
<trkpt lat="53.101906" lon="-1.697724"><ele>243</ele><time>2020-10-28T12:23:39Z</time><name>PT5788</name></trkpt>
<trkpt lat="53.101898" lon="-1.697712"><ele>243</ele><time>2020-10-28T12:23:39Z</time><name>PT5789</name></trkpt>
<trkpt lat="53.101888" lon="-1.697697"><ele>243</ele><time>2020-10-28T12:23:41Z</time><name>PT5790</name></trkpt>
<trkpt lat="53.101881" lon="-1.697684"><ele>242</ele><time>2020-10-28T12:23:42Z</time><name>PT5791</name></trkpt>
<trkpt lat="53.101871" lon="-1.697669"><ele>242</ele><time>2020-10-28T12:23:42Z</time><name>PT5792</name></trkpt>
<trkpt lat="53.101864" lon="-1.697654"><ele>242</ele><time>2020-10-28T12:23:44Z</time><name>PT5793</name></trkpt>
<trkpt lat="53.101857" lon="-1.697638"><ele>242</ele><time>2020-10-28T12:23:45Z</time><name>PT5794</name></trkpt>
<trkpt lat="53.101850" lon="-1.697624"><ele>241</ele><time>2020-10-28T12:23:45Z</time><name>PT5795</name></trkpt>
<trkpt lat="53.101842" lon="-1.697612"><ele>241</ele><time>2020-10-28T12:23:47Z</time><name>PT5796</name></trkpt>
<trkpt lat="53.101834" lon="-1.697599"><ele>241</ele><time>2020-10-28T12:23:48Z</time><name>PT5797</name></trkpt>
<trkpt lat="53.101825" lon="-1.697587"><ele>240</ele><time>2020-10-28T12:23:48Z</time><name>PT5798</name></trkpt>
<trkpt lat="53.101819" lon="-1.697570"><ele>241</ele><time>2020-10-28T12:23:50Z</time><name>PT5799</name></trkpt>
<trkpt lat="53.101810" lon="-1.697557"><ele>240</ele><time>2020-10-28T12:23:51Z</time><name>PT5800</name></trkpt>
<trkpt lat="53.101801" lon="-1.697545"><ele>240</ele><time>2020-10-28T12:23:51Z</time><name>PT5801</name></trkpt>
<trkpt lat="53.101793" lon="-1.697530"><ele>240</ele><time>2020-10-28T12:23:53Z</time><name>PT5802</name></trkpt>
<trkpt lat="53.101785" lon="-1.697516"><ele>240</ele><time>2020-10-28T12:23:54Z</time><name>PT5803</name></trkpt>
<trkpt lat="53.101774" lon="-1.697503"><ele>240</ele><time>2020-10-28T12:23:54Z</time><name>PT5804</name></trkpt>
<trkpt lat="53.101763" lon="-1.697490"><ele>239</ele><time>2020-10-28T12:23:56Z</time><name>PT5805</name></trkpt>
<trkpt lat="53.101755" lon="-1.697473"><ele>240</ele><time>2020-10-28T12:23:57Z</time><name>PT5806</name></trkpt>
<trkpt lat="53.101746" lon="-1.697454"><ele>240</ele><time>2020-10-28T12:23:57Z</time><name>PT5807</name></trkpt>
<trkpt lat="53.101737" lon="-1.697441"><ele>239</ele><time>2020-10-28T12:23:59Z</time><name>PT5808</name></trkpt>
<trkpt lat="53.101727" lon="-1.697426"><ele>239</ele><time>2020-10-28T12:24:00Z</time><name>PT5809</name></trkpt>
<trkpt lat="53.101718" lon="-1.697411"><ele>239</ele><time>2020-10-28T12:24:00Z</time><name>PT5810</name></trkpt>
<trkpt lat="53.101712" lon="-1.697397"><ele>239</ele><time>2020-10-28T12:24:02Z</time><name>PT5811</name></trkpt>
<trkpt lat="53.101704" lon="-1.697385"><ele>238</ele><time>2020-10-28T12:24:03Z</time><name>PT5812</name></trkpt>
<trkpt lat="53.101692" lon="-1.697369"><ele>239</ele><time>2020-10-28T12:24:03Z</time><name>PT5813</name></trkpt>
<trkpt lat="53.101683" lon="-1.697346"><ele>239</ele><time>2020-10-28T12:24:05Z</time><name>PT5814</name></trkpt>
<trkpt lat="53.101675" lon="-1.697325"><ele>239</ele><time>2020-10-28T12:24:06Z</time><name>PT5815</name></trkpt>
<trkpt lat="53.101665" lon="-1.697309"><ele>239</ele><time>2020-10-28T12:24:06Z</time><name>PT5816</name></trkpt>
<trkpt lat="53.101658" lon="-1.697292"><ele>239</ele><time>2020-10-28T12:24:08Z</time><name>PT5817</name></trkpt>
<trkpt lat="53.101649" lon="-1.697276"><ele>239</ele><time>2020-10-28T12:24:09Z</time><name>PT5818</name></trkpt>
<trkpt lat="53.101650" lon="-1.697274"><ele>241</ele><time>2020-10-28T12:24:10Z</time><name>PT5819</name></trkpt>
<trkpt lat="53.101644" lon="-1.697261"><ele>241</ele><time>2020-10-28T12:24:11Z</time><name>PT5820</name></trkpt>
<trkpt lat="53.101635" lon="-1.697248"><ele>241</ele><time>2020-10-28T12:24:12Z</time><name>PT5821</name></trkpt>
<trkpt lat="53.101626" lon="-1.697230"><ele>241</ele><time>2020-10-28T12:24:12Z</time><name>PT5822</name></trkpt>
<trkpt lat="53.101615" lon="-1.697212"><ele>241</ele><time>2020-10-28T12:24:14Z</time><name>PT5823</name></trkpt>
<trkpt lat="53.101605" lon="-1.697200"><ele>240</ele><time>2020-10-28T12:24:15Z</time><name>PT5824</name></trkpt>
<trkpt lat="53.101596" lon="-1.697186"><ele>240</ele><time>2020-10-28T12:24:16Z</time><name>PT5825</name></trkpt>
<trkpt lat="53.101584" lon="-1.697171"><ele>240</ele><time>2020-10-28T12:24:17Z</time><name>PT5826</name></trkpt>
<trkpt lat="53.101573" lon="-1.697155"><ele>240</ele><time>2020-10-28T12:24:18Z</time><name>PT5827</name></trkpt>
<trkpt lat="53.101565" lon="-1.697139"><ele>240</ele><time>2020-10-28T12:24:19Z</time><name>PT5828</name></trkpt>
<trkpt lat="53.101556" lon="-1.697121"><ele>239</ele><time>2020-10-28T12:24:20Z</time><name>PT5829</name></trkpt>
<trkpt lat="53.101545" lon="-1.697102"><ele>239</ele><time>2020-10-28T12:24:21Z</time><name>PT5830</name></trkpt>
<trkpt lat="53.101537" lon="-1.697087"><ele>239</ele><time>2020-10-28T12:24:22Z</time><name>PT5831</name></trkpt>
<trkpt lat="53.101529" lon="-1.697071"><ele>239</ele><time>2020-10-28T12:24:23Z</time><name>PT5832</name></trkpt>
<trkpt lat="53.101517" lon="-1.697057"><ele>239</ele><time>2020-10-28T12:24:24Z</time><name>PT5833</name></trkpt>
<trkpt lat="53.101506" lon="-1.697048"><ele>238</ele><time>2020-10-28T12:24:24Z</time><name>PT5834</name></trkpt>
<trkpt lat="53.101500" lon="-1.697033"><ele>239</ele><time>2020-10-28T12:24:26Z</time><name>PT5835</name></trkpt>
<trkpt lat="53.101491" lon="-1.697021"><ele>238</ele><time>2020-10-28T12:24:27Z</time><name>PT5836</name></trkpt>
<trkpt lat="53.101482" lon="-1.697007"><ele>238</ele><time>2020-10-28T12:24:27Z</time><name>PT5837</name></trkpt>
<trkpt lat="53.101472" lon="-1.696994"><ele>238</ele><time>2020-10-28T12:24:29Z</time><name>PT5838</name></trkpt>
<trkpt lat="53.101462" lon="-1.696979"><ele>237</ele><time>2020-10-28T12:24:30Z</time><name>PT5839</name></trkpt>
<trkpt lat="53.101452" lon="-1.696962"><ele>237</ele><time>2020-10-28T12:24:30Z</time><name>PT5840</name></trkpt>
<trkpt lat="53.101442" lon="-1.696949"><ele>236</ele><time>2020-10-28T12:24:32Z</time><name>PT5841</name></trkpt>
<trkpt lat="53.101438" lon="-1.696938"><ele>235</ele><time>2020-10-28T12:24:33Z</time><name>PT5842</name></trkpt>
<trkpt lat="53.101428" lon="-1.696915"><ele>236</ele><time>2020-10-28T12:24:33Z</time><name>PT5843</name></trkpt>
<trkpt lat="53.101417" lon="-1.696897"><ele>235</ele><time>2020-10-28T12:24:35Z</time><name>PT5844</name></trkpt>
<trkpt lat="53.101406" lon="-1.696880"><ele>235</ele><time>2020-10-28T12:24:36Z</time><name>PT5845</name></trkpt>
<trkpt lat="53.101392" lon="-1.696854"><ele>235</ele><time>2020-10-28T12:24:36Z</time><name>PT5846</name></trkpt>
<trkpt lat="53.101381" lon="-1.696838"><ele>236</ele><time>2020-10-28T12:24:38Z</time><name>PT5847</name></trkpt>
<trkpt lat="53.101369" lon="-1.696824"><ele>235</ele><time>2020-10-28T12:24:39Z</time><name>PT5848</name></trkpt>
<trkpt lat="53.101358" lon="-1.696807"><ele>236</ele><time>2020-10-28T12:24:39Z</time><name>PT5849</name></trkpt>
<trkpt lat="53.101346" lon="-1.696789"><ele>235</ele><time>2020-10-28T12:24:41Z</time><name>PT5850</name></trkpt>
<trkpt lat="53.101336" lon="-1.696770"><ele>235</ele><time>2020-10-28T12:24:42Z</time><name>PT5851</name></trkpt>
<trkpt lat="53.101325" lon="-1.696756"><ele>235</ele><time>2020-10-28T12:24:42Z</time><name>PT5852</name></trkpt>
<trkpt lat="53.101314" lon="-1.696743"><ele>235</ele><time>2020-10-28T12:24:44Z</time><name>PT5853</name></trkpt>
<trkpt lat="53.101304" lon="-1.696730"><ele>235</ele><time>2020-10-28T12:24:45Z</time><name>PT5854</name></trkpt>
<trkpt lat="53.101295" lon="-1.696714"><ele>236</ele><time>2020-10-28T12:24:45Z</time><name>PT5855</name></trkpt>
<trkpt lat="53.101287" lon="-1.696693"><ele>236</ele><time>2020-10-28T12:24:47Z</time><name>PT5856</name></trkpt>
<trkpt lat="53.101278" lon="-1.696674"><ele>236</ele><time>2020-10-28T12:24:48Z</time><name>PT5857</name></trkpt>
<trkpt lat="53.101270" lon="-1.696658"><ele>236</ele><time>2020-10-28T12:24:48Z</time><name>PT5858</name></trkpt>
<trkpt lat="53.101261" lon="-1.696643"><ele>236</ele><time>2020-10-28T12:24:50Z</time><name>PT5859</name></trkpt>
<trkpt lat="53.101251" lon="-1.696627"><ele>236</ele><time>2020-10-28T12:24:51Z</time><name>PT5860</name></trkpt>
<trkpt lat="53.101239" lon="-1.696613"><ele>236</ele><time>2020-10-28T12:24:51Z</time><name>PT5861</name></trkpt>
<trkpt lat="53.101229" lon="-1.696597"><ele>236</ele><time>2020-10-28T12:24:53Z</time><name>PT5862</name></trkpt>
<trkpt lat="53.101220" lon="-1.696578"><ele>236</ele><time>2020-10-28T12:24:54Z</time><name>PT5863</name></trkpt>
<trkpt lat="53.101211" lon="-1.696561"><ele>235</ele><time>2020-10-28T12:24:54Z</time><name>PT5864</name></trkpt>
<trkpt lat="53.101201" lon="-1.696544"><ele>235</ele><time>2020-10-28T12:24:56Z</time><name>PT5865</name></trkpt>
<trkpt lat="53.101192" lon="-1.696531"><ele>235</ele><time>2020-10-28T12:24:57Z</time><name>PT5866</name></trkpt>
<trkpt lat="53.101182" lon="-1.696513"><ele>235</ele><time>2020-10-28T12:24:58Z</time><name>PT5867</name></trkpt>
<trkpt lat="53.101173" lon="-1.696497"><ele>235</ele><time>2020-10-28T12:24:59Z</time><name>PT5868</name></trkpt>
<trkpt lat="53.101165" lon="-1.696479"><ele>235</ele><time>2020-10-28T12:25:00Z</time><name>PT5869</name></trkpt>
<trkpt lat="53.101158" lon="-1.696461"><ele>235</ele><time>2020-10-28T12:25:01Z</time><name>PT5870</name></trkpt>
<trkpt lat="53.101149" lon="-1.696449"><ele>235</ele><time>2020-10-28T12:25:02Z</time><name>PT5871</name></trkpt>
<trkpt lat="53.101140" lon="-1.696431"><ele>235</ele><time>2020-10-28T12:25:03Z</time><name>PT5872</name></trkpt>
<trkpt lat="53.101132" lon="-1.696417"><ele>234</ele><time>2020-10-28T12:25:03Z</time><name>PT5873</name></trkpt>
<trkpt lat="53.101124" lon="-1.696400"><ele>234</ele><time>2020-10-28T12:25:05Z</time><name>PT5874</name></trkpt>
<trkpt lat="53.101116" lon="-1.696384"><ele>234</ele><time>2020-10-28T12:25:06Z</time><name>PT5875</name></trkpt>
<trkpt lat="53.101108" lon="-1.696359"><ele>234</ele><time>2020-10-28T12:25:06Z</time><name>PT5876</name></trkpt>
<trkpt lat="53.101099" lon="-1.696342"><ele>234</ele><time>2020-10-28T12:25:08Z</time><name>PT5877</name></trkpt>
<trkpt lat="53.101091" lon="-1.696326"><ele>233</ele><time>2020-10-28T12:25:09Z</time><name>PT5878</name></trkpt>
<trkpt lat="53.101082" lon="-1.696310"><ele>233</ele><time>2020-10-28T12:25:09Z</time><name>PT5879</name></trkpt>
<trkpt lat="53.101072" lon="-1.696293"><ele>233</ele><time>2020-10-28T12:25:11Z</time><name>PT5880</name></trkpt>
<trkpt lat="53.101063" lon="-1.696281"><ele>233</ele><time>2020-10-28T12:25:12Z</time><name>PT5881</name></trkpt>
<trkpt lat="53.101055" lon="-1.696267"><ele>232</ele><time>2020-10-28T12:25:12Z</time><name>PT5882</name></trkpt>
<trkpt lat="53.101049" lon="-1.696252"><ele>232</ele><time>2020-10-28T12:25:14Z</time><name>PT5883</name></trkpt>
<trkpt lat="53.101043" lon="-1.696236"><ele>232</ele><time>2020-10-28T12:25:15Z</time><name>PT5884</name></trkpt>
<trkpt lat="53.101035" lon="-1.696218"><ele>232</ele><time>2020-10-28T12:25:15Z</time><name>PT5885</name></trkpt>
<trkpt lat="53.101026" lon="-1.696200"><ele>232</ele><time>2020-10-28T12:25:17Z</time><name>PT5886</name></trkpt>
<trkpt lat="53.101017" lon="-1.696183"><ele>232</ele><time>2020-10-28T12:25:18Z</time><name>PT5887</name></trkpt>
<trkpt lat="53.101009" lon="-1.696166"><ele>232</ele><time>2020-10-28T12:25:18Z</time><name>PT5888</name></trkpt>
<trkpt lat="53.101000" lon="-1.696147"><ele>232</ele><time>2020-10-28T12:25:20Z</time><name>PT5889</name></trkpt>
<trkpt lat="53.100990" lon="-1.696133"><ele>232</ele><time>2020-10-28T12:25:21Z</time><name>PT5890</name></trkpt>
<trkpt lat="53.100981" lon="-1.696121"><ele>232</ele><time>2020-10-28T12:25:21Z</time><name>PT5891</name></trkpt>
<trkpt lat="53.100973" lon="-1.696107"><ele>232</ele><time>2020-10-28T12:25:23Z</time><name>PT5892</name></trkpt>
<trkpt lat="53.100966" lon="-1.696091"><ele>233</ele><time>2020-10-28T12:25:24Z</time><name>PT5893</name></trkpt>
<trkpt lat="53.100962" lon="-1.696080"><ele>232</ele><time>2020-10-28T12:25:24Z</time><name>PT5894</name></trkpt>
<trkpt lat="53.100955" lon="-1.696065"><ele>232</ele><time>2020-10-28T12:25:26Z</time><name>PT5895</name></trkpt>
<trkpt lat="53.100948" lon="-1.696052"><ele>232</ele><time>2020-10-28T12:25:27Z</time><name>PT5896</name></trkpt>
<trkpt lat="53.100941" lon="-1.696035"><ele>232</ele><time>2020-10-28T12:25:27Z</time><name>PT5897</name></trkpt>
<trkpt lat="53.100933" lon="-1.696022"><ele>232</ele><time>2020-10-28T12:25:29Z</time><name>PT5898</name></trkpt>
<trkpt lat="53.100921" lon="-1.696006"><ele>232</ele><time>2020-10-28T12:25:30Z</time><name>PT5899</name></trkpt>
<trkpt lat="53.100914" lon="-1.695989"><ele>232</ele><time>2020-10-28T12:25:30Z</time><name>PT5900</name></trkpt>
<trkpt lat="53.100908" lon="-1.695974"><ele>232</ele><time>2020-10-28T12:25:32Z</time><name>PT5901</name></trkpt>
<trkpt lat="53.100900" lon="-1.695957"><ele>232</ele><time>2020-10-28T12:25:33Z</time><name>PT5902</name></trkpt>
<trkpt lat="53.100891" lon="-1.695939"><ele>232</ele><time>2020-10-28T12:25:33Z</time><name>PT5903</name></trkpt>
<trkpt lat="53.100881" lon="-1.695922"><ele>232</ele><time>2020-10-28T12:25:35Z</time><name>PT5904</name></trkpt>
<trkpt lat="53.100872" lon="-1.695910"><ele>231</ele><time>2020-10-28T12:25:36Z</time><name>PT5905</name></trkpt>
<trkpt lat="53.100862" lon="-1.695891"><ele>231</ele><time>2020-10-28T12:25:36Z</time><name>PT5906</name></trkpt>
<trkpt lat="53.100852" lon="-1.695874"><ele>231</ele><time>2020-10-28T12:25:38Z</time><name>PT5907</name></trkpt>
<trkpt lat="53.100844" lon="-1.695861"><ele>230</ele><time>2020-10-28T12:25:39Z</time><name>PT5908</name></trkpt>
<trkpt lat="53.100834" lon="-1.695847"><ele>230</ele><time>2020-10-28T12:25:39Z</time><name>PT5909</name></trkpt>
<trkpt lat="53.100822" lon="-1.695830"><ele>230</ele><time>2020-10-28T12:25:41Z</time><name>PT5910</name></trkpt>
<trkpt lat="53.100814" lon="-1.695820"><ele>230</ele><time>2020-10-28T12:25:42Z</time><name>PT5911</name></trkpt>
<trkpt lat="53.100803" lon="-1.695800"><ele>230</ele><time>2020-10-28T12:25:42Z</time><name>PT5912</name></trkpt>
<trkpt lat="53.100796" lon="-1.695786"><ele>230</ele><time>2020-10-28T12:25:44Z</time><name>PT5913</name></trkpt>
<trkpt lat="53.100788" lon="-1.695769"><ele>230</ele><time>2020-10-28T12:25:45Z</time><name>PT5914</name></trkpt>
<trkpt lat="53.100781" lon="-1.695748"><ele>230</ele><time>2020-10-28T12:25:45Z</time><name>PT5915</name></trkpt>
<trkpt lat="53.100774" lon="-1.695734"><ele>230</ele><time>2020-10-28T12:25:47Z</time><name>PT5916</name></trkpt>
<trkpt lat="53.100766" lon="-1.695715"><ele>230</ele><time>2020-10-28T12:25:48Z</time><name>PT5917</name></trkpt>
<trkpt lat="53.100759" lon="-1.695694"><ele>230</ele><time>2020-10-28T12:25:48Z</time><name>PT5918</name></trkpt>
<trkpt lat="53.100748" lon="-1.695678"><ele>230</ele><time>2020-10-28T12:25:50Z</time><name>PT5919</name></trkpt>
<trkpt lat="53.100740" lon="-1.695662"><ele>230</ele><time>2020-10-28T12:25:51Z</time><name>PT5920</name></trkpt>
<trkpt lat="53.100732" lon="-1.695645"><ele>231</ele><time>2020-10-28T12:25:51Z</time><name>PT5921</name></trkpt>
<trkpt lat="53.100723" lon="-1.695633"><ele>231</ele><time>2020-10-28T12:25:53Z</time><name>PT5922</name></trkpt>
<trkpt lat="53.100713" lon="-1.695620"><ele>231</ele><time>2020-10-28T12:25:54Z</time><name>PT5923</name></trkpt>
<trkpt lat="53.100703" lon="-1.695602"><ele>231</ele><time>2020-10-28T12:25:54Z</time><name>PT5924</name></trkpt>
<trkpt lat="53.100693" lon="-1.695584"><ele>231</ele><time>2020-10-28T12:25:56Z</time><name>PT5925</name></trkpt>
<trkpt lat="53.100683" lon="-1.695571"><ele>231</ele><time>2020-10-28T12:25:57Z</time><name>PT5926</name></trkpt>
<trkpt lat="53.100672" lon="-1.695557"><ele>231</ele><time>2020-10-28T12:25:58Z</time><name>PT5927</name></trkpt>
<trkpt lat="53.100661" lon="-1.695545"><ele>231</ele><time>2020-10-28T12:25:59Z</time><name>PT5928</name></trkpt>
<trkpt lat="53.100653" lon="-1.695533"><ele>231</ele><time>2020-10-28T12:26:00Z</time><name>PT5929</name></trkpt>
<trkpt lat="53.100645" lon="-1.695514"><ele>231</ele><time>2020-10-28T12:26:00Z</time><name>PT5930</name></trkpt>
<trkpt lat="53.100636" lon="-1.695494"><ele>231</ele><time>2020-10-28T12:26:02Z</time><name>PT5931</name></trkpt>
<trkpt lat="53.100628" lon="-1.695483"><ele>231</ele><time>2020-10-28T12:26:03Z</time><name>PT5932</name></trkpt>
<trkpt lat="53.100600" lon="-1.695442"><ele>231</ele><time>2020-10-28T12:26:06Z</time><name>PT5933</name></trkpt>
<trkpt lat="53.100568" lon="-1.695387"><ele>230</ele><time>2020-10-28T12:26:09Z</time><name>PT5934</name></trkpt>
<trkpt lat="53.100527" lon="-1.695341"><ele>230</ele><time>2020-10-28T12:26:12Z</time><name>PT5935</name></trkpt>
<trkpt lat="53.100486" lon="-1.695292"><ele>230</ele><time>2020-10-28T12:26:17Z</time><name>PT5936</name></trkpt>
<trkpt lat="53.100450" lon="-1.695249"><ele>230</ele><time>2020-10-28T12:26:20Z</time><name>PT5937</name></trkpt>
<trkpt lat="53.100415" lon="-1.695226"><ele>230</ele><time>2020-10-28T12:26:23Z</time><name>PT5938</name></trkpt>
<trkpt lat="53.100368" lon="-1.695189"><ele>229</ele><time>2020-10-28T12:26:27Z</time><name>PT5939</name></trkpt>
<trkpt lat="53.100321" lon="-1.695158"><ele>229</ele><time>2020-10-28T12:26:30Z</time><name>PT5940</name></trkpt>
<trkpt lat="53.100284" lon="-1.695133"><ele>229</ele><time>2020-10-28T12:26:33Z</time><name>PT5941</name></trkpt>
<trkpt lat="53.100237" lon="-1.695112"><ele>228</ele><time>2020-10-28T12:26:38Z</time><name>PT5942</name></trkpt>
<trkpt lat="53.100202" lon="-1.695098"><ele>227</ele><time>2020-10-28T12:26:41Z</time><name>PT5943</name></trkpt>
<trkpt lat="53.100162" lon="-1.695085"><ele>227</ele><time>2020-10-28T12:26:44Z</time><name>PT5944</name></trkpt>
<trkpt lat="53.100121" lon="-1.695071"><ele>228</ele><time>2020-10-28T12:26:47Z</time><name>PT5945</name></trkpt>
<trkpt lat="53.100067" lon="-1.695063"><ele>229</ele><time>2020-10-28T12:26:51Z</time><name>PT5946</name></trkpt>
<trkpt lat="53.100014" lon="-1.695048"><ele>229</ele><time>2020-10-28T12:26:54Z</time><name>PT5947</name></trkpt>
<trkpt lat="53.099966" lon="-1.695047"><ele>229</ele><time>2020-10-28T12:26:59Z</time><name>PT5948</name></trkpt>
<trkpt lat="53.099927" lon="-1.695034"><ele>229</ele><time>2020-10-28T12:27:02Z</time><name>PT5949</name></trkpt>
<trkpt lat="53.099885" lon="-1.695025"><ele>227</ele><time>2020-10-28T12:27:05Z</time><name>PT5950</name></trkpt>
<trkpt lat="53.099843" lon="-1.695017"><ele>228</ele><time>2020-10-28T12:27:08Z</time><name>PT5951</name></trkpt>
<trkpt lat="53.099788" lon="-1.695006"><ele>228</ele><time>2020-10-28T12:27:12Z</time><name>PT5952</name></trkpt>
<trkpt lat="53.099729" lon="-1.695010"><ele>227</ele><time>2020-10-28T12:27:15Z</time><name>PT5953</name></trkpt>
<trkpt lat="53.099681" lon="-1.695018"><ele>227</ele><time>2020-10-28T12:27:20Z</time><name>PT5954</name></trkpt>
<trkpt lat="53.099644" lon="-1.695022"><ele>227</ele><time>2020-10-28T12:27:23Z</time><name>PT5955</name></trkpt>
<trkpt lat="53.099605" lon="-1.695026"><ele>227</ele><time>2020-10-28T12:27:26Z</time><name>PT5956</name></trkpt>
<trkpt lat="53.099558" lon="-1.695036"><ele>225</ele><time>2020-10-28T12:27:30Z</time><name>PT5957</name></trkpt>
<trkpt lat="53.099507" lon="-1.695049"><ele>225</ele><time>2020-10-28T12:27:33Z</time><name>PT5958</name></trkpt>
<trkpt lat="53.099454" lon="-1.695048"><ele>225</ele><time>2020-10-28T12:27:38Z</time><name>PT5959</name></trkpt>
<trkpt lat="53.099397" lon="-1.695041"><ele>226</ele><time>2020-10-28T12:27:42Z</time><name>PT5960</name></trkpt>
<trkpt lat="53.099353" lon="-1.695039"><ele>224</ele><time>2020-10-28T12:27:45Z</time><name>PT5961</name></trkpt>
<trkpt lat="53.099301" lon="-1.695031"><ele>225</ele><time>2020-10-28T12:27:48Z</time><name>PT5962</name></trkpt>
<trkpt lat="53.099282" lon="-1.695022"><ele>226</ele><time>2020-10-28T12:27:48Z</time><name>PT5963</name></trkpt>
<trkpt lat="53.099269" lon="-1.695016"><ele>226</ele><time>2020-10-28T12:27:50Z</time><name>PT5964</name></trkpt>
<trkpt lat="53.099257" lon="-1.695010"><ele>226</ele><time>2020-10-28T12:27:51Z</time><name>PT5965</name></trkpt>
<trkpt lat="53.099244" lon="-1.695005"><ele>226</ele><time>2020-10-28T12:27:51Z</time><name>PT5966</name></trkpt>
<trkpt lat="53.099233" lon="-1.694999"><ele>226</ele><time>2020-10-28T12:27:53Z</time><name>PT5967</name></trkpt>
<trkpt lat="53.099221" lon="-1.694990"><ele>226</ele><time>2020-10-28T12:27:54Z</time><name>PT5968</name></trkpt>
<trkpt lat="53.099205" lon="-1.694979"><ele>226</ele><time>2020-10-28T12:27:54Z</time><name>PT5969</name></trkpt>
<trkpt lat="53.099195" lon="-1.694968"><ele>226</ele><time>2020-10-28T12:27:56Z</time><name>PT5970</name></trkpt>
<trkpt lat="53.099184" lon="-1.694960"><ele>226</ele><time>2020-10-28T12:27:57Z</time><name>PT5971</name></trkpt>
<trkpt lat="53.099171" lon="-1.694954"><ele>226</ele><time>2020-10-28T12:27:57Z</time><name>PT5972</name></trkpt>
<trkpt lat="53.099161" lon="-1.694946"><ele>226</ele><time>2020-10-28T12:27:59Z</time><name>PT5973</name></trkpt>
<trkpt lat="53.099153" lon="-1.694939"><ele>226</ele><time>2020-10-28T12:28:00Z</time><name>PT5974</name></trkpt>
<trkpt lat="53.099144" lon="-1.694927"><ele>225</ele><time>2020-10-28T12:28:01Z</time><name>PT5975</name></trkpt>
<trkpt lat="53.099134" lon="-1.694915"><ele>225</ele><time>2020-10-28T12:28:02Z</time><name>PT5976</name></trkpt>
<trkpt lat="53.099124" lon="-1.694907"><ele>225</ele><time>2020-10-28T12:28:03Z</time><name>PT5977</name></trkpt>
<trkpt lat="53.099111" lon="-1.694897"><ele>225</ele><time>2020-10-28T12:28:04Z</time><name>PT5978</name></trkpt>
<trkpt lat="53.099100" lon="-1.694888"><ele>225</ele><time>2020-10-28T12:28:05Z</time><name>PT5979</name></trkpt>
<trkpt lat="53.099089" lon="-1.694876"><ele>224</ele><time>2020-10-28T12:28:06Z</time><name>PT5980</name></trkpt>
<trkpt lat="53.099078" lon="-1.694860"><ele>225</ele><time>2020-10-28T12:28:06Z</time><name>PT5981</name></trkpt>
<trkpt lat="53.099067" lon="-1.694850"><ele>224</ele><time>2020-10-28T12:28:08Z</time><name>PT5982</name></trkpt>
<trkpt lat="53.099058" lon="-1.694839"><ele>224</ele><time>2020-10-28T12:28:09Z</time><name>PT5983</name></trkpt>
<trkpt lat="53.099046" lon="-1.694830"><ele>224</ele><time>2020-10-28T12:28:09Z</time><name>PT5984</name></trkpt>
<trkpt lat="53.099034" lon="-1.694821"><ele>224</ele><time>2020-10-28T12:28:11Z</time><name>PT5985</name></trkpt>
<trkpt lat="53.099023" lon="-1.694810"><ele>224</ele><time>2020-10-28T12:28:12Z</time><name>PT5986</name></trkpt>
<trkpt lat="53.099012" lon="-1.694796"><ele>224</ele><time>2020-10-28T12:28:12Z</time><name>PT5987</name></trkpt>
<trkpt lat="53.099004" lon="-1.694784"><ele>224</ele><time>2020-10-28T12:28:14Z</time><name>PT5988</name></trkpt>
<trkpt lat="53.098996" lon="-1.694776"><ele>224</ele><time>2020-10-28T12:28:15Z</time><name>PT5989</name></trkpt>
<trkpt lat="53.098985" lon="-1.694765"><ele>224</ele><time>2020-10-28T12:28:15Z</time><name>PT5990</name></trkpt>
<trkpt lat="53.098973" lon="-1.694752"><ele>224</ele><time>2020-10-28T12:28:17Z</time><name>PT5991</name></trkpt>
<trkpt lat="53.098962" lon="-1.694735"><ele>224</ele><time>2020-10-28T12:28:18Z</time><name>PT5992</name></trkpt>
<trkpt lat="53.098952" lon="-1.694720"><ele>224</ele><time>2020-10-28T12:28:18Z</time><name>PT5993</name></trkpt>
<trkpt lat="53.098942" lon="-1.694708"><ele>223</ele><time>2020-10-28T12:28:20Z</time><name>PT5994</name></trkpt>
<trkpt lat="53.098932" lon="-1.694697"><ele>223</ele><time>2020-10-28T12:28:21Z</time><name>PT5995</name></trkpt>
<trkpt lat="53.098921" lon="-1.694685"><ele>223</ele><time>2020-10-28T12:28:21Z</time><name>PT5996</name></trkpt>
<trkpt lat="53.098910" lon="-1.694672"><ele>223</ele><time>2020-10-28T12:28:23Z</time><name>PT5997</name></trkpt>
<trkpt lat="53.098901" lon="-1.694662"><ele>223</ele><time>2020-10-28T12:28:24Z</time><name>PT5998</name></trkpt>
<trkpt lat="53.098894" lon="-1.694648"><ele>222</ele><time>2020-10-28T12:28:24Z</time><name>PT5999</name></trkpt>
<trkpt lat="53.098885" lon="-1.694637"><ele>222</ele><time>2020-10-28T12:28:26Z</time><name>PT6000</name></trkpt>
<trkpt lat="53.098874" lon="-1.694626"><ele>222</ele><time>2020-10-28T12:28:27Z</time><name>PT6001</name></trkpt>
<trkpt lat="53.098863" lon="-1.694614"><ele>222</ele><time>2020-10-28T12:28:27Z</time><name>PT6002</name></trkpt>
<trkpt lat="53.098853" lon="-1.694603"><ele>222</ele><time>2020-10-28T12:28:29Z</time><name>PT6003</name></trkpt>
<trkpt lat="53.098843" lon="-1.694588"><ele>222</ele><time>2020-10-28T12:28:30Z</time><name>PT6004</name></trkpt>
<trkpt lat="53.098833" lon="-1.694570"><ele>222</ele><time>2020-10-28T12:28:30Z</time><name>PT6005</name></trkpt>
<trkpt lat="53.098824" lon="-1.694553"><ele>223</ele><time>2020-10-28T12:28:32Z</time><name>PT6006</name></trkpt>
<trkpt lat="53.098815" lon="-1.694540"><ele>223</ele><time>2020-10-28T12:28:33Z</time><name>PT6007</name></trkpt>
<trkpt lat="53.098806" lon="-1.694528"><ele>222</ele><time>2020-10-28T12:28:33Z</time><name>PT6008</name></trkpt>
<trkpt lat="53.098795" lon="-1.694511"><ele>222</ele><time>2020-10-28T12:28:35Z</time><name>PT6009</name></trkpt>
<trkpt lat="53.098784" lon="-1.694491"><ele>222</ele><time>2020-10-28T12:28:36Z</time><name>PT6010</name></trkpt>
<trkpt lat="53.098776" lon="-1.694476"><ele>222</ele><time>2020-10-28T12:28:36Z</time><name>PT6011</name></trkpt>
<trkpt lat="53.098766" lon="-1.694462"><ele>222</ele><time>2020-10-28T12:28:38Z</time><name>PT6012</name></trkpt>
<trkpt lat="53.098758" lon="-1.694449"><ele>222</ele><time>2020-10-28T12:28:39Z</time><name>PT6013</name></trkpt>
<trkpt lat="53.098747" lon="-1.694434"><ele>222</ele><time>2020-10-28T12:28:39Z</time><name>PT6014</name></trkpt>
<trkpt lat="53.098736" lon="-1.694420"><ele>222</ele><time>2020-10-28T12:28:41Z</time><name>PT6015</name></trkpt>
<trkpt lat="53.098726" lon="-1.694404"><ele>222</ele><time>2020-10-28T12:28:42Z</time><name>PT6016</name></trkpt>
<trkpt lat="53.098718" lon="-1.694386"><ele>222</ele><time>2020-10-28T12:28:42Z</time><name>PT6017</name></trkpt>
<trkpt lat="53.098709" lon="-1.694369"><ele>222</ele><time>2020-10-28T12:28:44Z</time><name>PT6018</name></trkpt>
<trkpt lat="53.098700" lon="-1.694353"><ele>222</ele><time>2020-10-28T12:28:45Z</time><name>PT6019</name></trkpt>
<trkpt lat="53.098691" lon="-1.694341"><ele>222</ele><time>2020-10-28T12:28:45Z</time><name>PT6020</name></trkpt>
<trkpt lat="53.098684" lon="-1.694330"><ele>222</ele><time>2020-10-28T12:28:47Z</time><name>PT6021</name></trkpt>
<trkpt lat="53.098674" lon="-1.694314"><ele>222</ele><time>2020-10-28T12:28:48Z</time><name>PT6022</name></trkpt>
<trkpt lat="53.098667" lon="-1.694302"><ele>222</ele><time>2020-10-28T12:28:48Z</time><name>PT6023</name></trkpt>
<trkpt lat="53.098658" lon="-1.694291"><ele>221</ele><time>2020-10-28T12:28:50Z</time><name>PT6024</name></trkpt>
<trkpt lat="53.098647" lon="-1.694277"><ele>222</ele><time>2020-10-28T12:28:51Z</time><name>PT6025</name></trkpt>
<trkpt lat="53.098635" lon="-1.694262"><ele>222</ele><time>2020-10-28T12:28:51Z</time><name>PT6026</name></trkpt>
<trkpt lat="53.098624" lon="-1.694250"><ele>221</ele><time>2020-10-28T12:28:53Z</time><name>PT6027</name></trkpt>
<trkpt lat="53.098612" lon="-1.694233"><ele>222</ele><time>2020-10-28T12:28:54Z</time><name>PT6028</name></trkpt>
<trkpt lat="53.098601" lon="-1.694218"><ele>222</ele><time>2020-10-28T12:28:54Z</time><name>PT6029</name></trkpt>
<trkpt lat="53.098592" lon="-1.694207"><ele>222</ele><time>2020-10-28T12:28:56Z</time><name>PT6030</name></trkpt>
<trkpt lat="53.098584" lon="-1.694199"><ele>222</ele><time>2020-10-28T12:28:57Z</time><name>PT6031</name></trkpt>
<trkpt lat="53.098573" lon="-1.694192"><ele>223</ele><time>2020-10-28T12:28:57Z</time><name>PT6032</name></trkpt>
<trkpt lat="53.098560" lon="-1.694186"><ele>223</ele><time>2020-10-28T12:28:59Z</time><name>PT6033</name></trkpt>
<trkpt lat="53.098549" lon="-1.694183"><ele>223</ele><time>2020-10-28T12:29:00Z</time><name>PT6034</name></trkpt>
<trkpt lat="53.098536" lon="-1.694175"><ele>223</ele><time>2020-10-28T12:29:00Z</time><name>PT6035</name></trkpt>
<trkpt lat="53.098521" lon="-1.694171"><ele>223</ele><time>2020-10-28T12:29:02Z</time><name>PT6036</name></trkpt>
<trkpt lat="53.098509" lon="-1.694168"><ele>223</ele><time>2020-10-28T12:29:03Z</time><name>PT6037</name></trkpt>
<trkpt lat="53.098497" lon="-1.694163"><ele>223</ele><time>2020-10-28T12:29:03Z</time><name>PT6038</name></trkpt>
<trkpt lat="53.098490" lon="-1.694168"><ele>223</ele><time>2020-10-28T12:29:05Z</time><name>PT6039</name></trkpt>
<trkpt lat="53.098481" lon="-1.694164"><ele>223</ele><time>2020-10-28T12:29:06Z</time><name>PT6040</name></trkpt>
<trkpt lat="53.098470" lon="-1.694161"><ele>223</ele><time>2020-10-28T12:29:06Z</time><name>PT6041</name></trkpt>
<trkpt lat="53.098458" lon="-1.694161"><ele>223</ele><time>2020-10-28T12:29:08Z</time><name>PT6042</name></trkpt>
<trkpt lat="53.098446" lon="-1.694161"><ele>223</ele><time>2020-10-28T12:29:09Z</time><name>PT6043</name></trkpt>
<trkpt lat="53.098430" lon="-1.694164"><ele>223</ele><time>2020-10-28T12:29:10Z</time><name>PT6044</name></trkpt>
<trkpt lat="53.098412" lon="-1.694154"><ele>223</ele><time>2020-10-28T12:29:11Z</time><name>PT6045</name></trkpt>
<trkpt lat="53.098395" lon="-1.694138"><ele>223</ele><time>2020-10-28T12:29:12Z</time><name>PT6046</name></trkpt>
<trkpt lat="53.098383" lon="-1.694144"><ele>223</ele><time>2020-10-28T12:29:12Z</time><name>PT6047</name></trkpt>
<trkpt lat="53.098368" lon="-1.694142"><ele>223</ele><time>2020-10-28T12:29:14Z</time><name>PT6048</name></trkpt>
<trkpt lat="53.098355" lon="-1.694145"><ele>223</ele><time>2020-10-28T12:29:15Z</time><name>PT6049</name></trkpt>
<trkpt lat="53.098344" lon="-1.694151"><ele>223</ele><time>2020-10-28T12:29:15Z</time><name>PT6050</name></trkpt>
<trkpt lat="53.098333" lon="-1.694156"><ele>222</ele><time>2020-10-28T12:29:17Z</time><name>PT6051</name></trkpt>
<trkpt lat="53.098320" lon="-1.694161"><ele>222</ele><time>2020-10-28T12:29:18Z</time><name>PT6052</name></trkpt>
<trkpt lat="53.098308" lon="-1.694166"><ele>222</ele><time>2020-10-28T12:29:18Z</time><name>PT6053</name></trkpt>
<trkpt lat="53.098297" lon="-1.694170"><ele>222</ele><time>2020-10-28T12:29:20Z</time><name>PT6054</name></trkpt>
<trkpt lat="53.098284" lon="-1.694177"><ele>222</ele><time>2020-10-28T12:29:21Z</time><name>PT6055</name></trkpt>
<trkpt lat="53.098272" lon="-1.694185"><ele>222</ele><time>2020-10-28T12:29:21Z</time><name>PT6056</name></trkpt>
<trkpt lat="53.098261" lon="-1.694191"><ele>222</ele><time>2020-10-28T12:29:23Z</time><name>PT6057</name></trkpt>
<trkpt lat="53.098249" lon="-1.694197"><ele>222</ele><time>2020-10-28T12:29:24Z</time><name>PT6058</name></trkpt>
<trkpt lat="53.098238" lon="-1.694203"><ele>222</ele><time>2020-10-28T12:29:24Z</time><name>PT6059</name></trkpt>
<trkpt lat="53.098226" lon="-1.694208"><ele>222</ele><time>2020-10-28T12:29:26Z</time><name>PT6060</name></trkpt>
<trkpt lat="53.098214" lon="-1.694214"><ele>222</ele><time>2020-10-28T12:29:27Z</time><name>PT6061</name></trkpt>
<trkpt lat="53.098203" lon="-1.694221"><ele>222</ele><time>2020-10-28T12:29:27Z</time><name>PT6062</name></trkpt>
<trkpt lat="53.098191" lon="-1.694227"><ele>222</ele><time>2020-10-28T12:29:29Z</time><name>PT6063</name></trkpt>
<trkpt lat="53.098179" lon="-1.694235"><ele>221</ele><time>2020-10-28T12:29:30Z</time><name>PT6064</name></trkpt>
<trkpt lat="53.098165" lon="-1.694240"><ele>222</ele><time>2020-10-28T12:29:30Z</time><name>PT6065</name></trkpt>
<trkpt lat="53.098153" lon="-1.694245"><ele>222</ele><time>2020-10-28T12:29:32Z</time><name>PT6066</name></trkpt>
<trkpt lat="53.098140" lon="-1.694249"><ele>222</ele><time>2020-10-28T12:29:33Z</time><name>PT6067</name></trkpt>
<trkpt lat="53.098127" lon="-1.694256"><ele>222</ele><time>2020-10-28T12:29:33Z</time><name>PT6068</name></trkpt>
<trkpt lat="53.098117" lon="-1.694264"><ele>221</ele><time>2020-10-28T12:29:35Z</time><name>PT6069</name></trkpt>
<trkpt lat="53.098104" lon="-1.694271"><ele>221</ele><time>2020-10-28T12:29:36Z</time><name>PT6070</name></trkpt>
<trkpt lat="53.098091" lon="-1.694278"><ele>221</ele><time>2020-10-28T12:29:36Z</time><name>PT6071</name></trkpt>
<trkpt lat="53.098078" lon="-1.694283"><ele>221</ele><time>2020-10-28T12:29:38Z</time><name>PT6072</name></trkpt>
<trkpt lat="53.098065" lon="-1.694288"><ele>221</ele><time>2020-10-28T12:29:39Z</time><name>PT6073</name></trkpt>
<trkpt lat="53.098052" lon="-1.694293"><ele>221</ele><time>2020-10-28T12:29:39Z</time><name>PT6074</name></trkpt>
<trkpt lat="53.098040" lon="-1.694300"><ele>221</ele><time>2020-10-28T12:29:41Z</time><name>PT6075</name></trkpt>
<trkpt lat="53.098029" lon="-1.694308"><ele>221</ele><time>2020-10-28T12:29:42Z</time><name>PT6076</name></trkpt>
<trkpt lat="53.098018" lon="-1.694309"><ele>221</ele><time>2020-10-28T12:29:42Z</time><name>PT6077</name></trkpt>
<trkpt lat="53.098006" lon="-1.694311"><ele>221</ele><time>2020-10-28T12:29:44Z</time><name>PT6078</name></trkpt>
<trkpt lat="53.097993" lon="-1.694313"><ele>220</ele><time>2020-10-28T12:29:45Z</time><name>PT6079</name></trkpt>
<trkpt lat="53.097977" lon="-1.694316"><ele>220</ele><time>2020-10-28T12:29:45Z</time><name>PT6080</name></trkpt>
<trkpt lat="53.097967" lon="-1.694319"><ele>220</ele><time>2020-10-28T12:29:47Z</time><name>PT6081</name></trkpt>
<trkpt lat="53.097955" lon="-1.694326"><ele>220</ele><time>2020-10-28T12:29:48Z</time><name>PT6082</name></trkpt>
<trkpt lat="53.097942" lon="-1.694332"><ele>220</ele><time>2020-10-28T12:29:48Z</time><name>PT6083</name></trkpt>
<trkpt lat="53.097932" lon="-1.694340"><ele>220</ele><time>2020-10-28T12:29:50Z</time><name>PT6084</name></trkpt>
<trkpt lat="53.097920" lon="-1.694345"><ele>219</ele><time>2020-10-28T12:29:51Z</time><name>PT6085</name></trkpt>
<trkpt lat="53.097911" lon="-1.694343"><ele>218</ele><time>2020-10-28T12:29:51Z</time><name>PT6086</name></trkpt>
<trkpt lat="53.097899" lon="-1.694346"><ele>218</ele><time>2020-10-28T12:29:53Z</time><name>PT6087</name></trkpt>
<trkpt lat="53.097887" lon="-1.694349"><ele>218</ele><time>2020-10-28T12:29:54Z</time><name>PT6088</name></trkpt>
<trkpt lat="53.097874" lon="-1.694355"><ele>218</ele><time>2020-10-28T12:29:55Z</time><name>PT6089</name></trkpt>
<trkpt lat="53.097862" lon="-1.694358"><ele>218</ele><time>2020-10-28T12:29:56Z</time><name>PT6090</name></trkpt>
<trkpt lat="53.097851" lon="-1.694353"><ele>218</ele><time>2020-10-28T12:29:57Z</time><name>PT6091</name></trkpt>
<trkpt lat="53.097839" lon="-1.694356"><ele>218</ele><time>2020-10-28T12:29:57Z</time><name>PT6092</name></trkpt>
<trkpt lat="53.097831" lon="-1.694359"><ele>217</ele><time>2020-10-28T12:29:59Z</time><name>PT6093</name></trkpt>
<trkpt lat="53.097822" lon="-1.694365"><ele>217</ele><time>2020-10-28T12:30:00Z</time><name>PT6094</name></trkpt>
<trkpt lat="53.097810" lon="-1.694370"><ele>217</ele><time>2020-10-28T12:30:00Z</time><name>PT6095</name></trkpt>
<trkpt lat="53.097799" lon="-1.694375"><ele>216</ele><time>2020-10-28T12:30:02Z</time><name>PT6096</name></trkpt>
<trkpt lat="53.097786" lon="-1.694379"><ele>216</ele><time>2020-10-28T12:30:03Z</time><name>PT6097</name></trkpt>
<trkpt lat="53.097773" lon="-1.694381"><ele>216</ele><time>2020-10-28T12:30:03Z</time><name>PT6098</name></trkpt>
<trkpt lat="53.097757" lon="-1.694379"><ele>217</ele><time>2020-10-28T12:30:05Z</time><name>PT6099</name></trkpt>
<trkpt lat="53.097746" lon="-1.694383"><ele>216</ele><time>2020-10-28T12:30:06Z</time><name>PT6100</name></trkpt>
<trkpt lat="53.097737" lon="-1.694385"><ele>216</ele><time>2020-10-28T12:30:06Z</time><name>PT6101</name></trkpt>
<trkpt lat="53.097725" lon="-1.694387"><ele>216</ele><time>2020-10-28T12:30:08Z</time><name>PT6102</name></trkpt>
<trkpt lat="53.097714" lon="-1.694389"><ele>216</ele><time>2020-10-28T12:30:09Z</time><name>PT6103</name></trkpt>
<trkpt lat="53.097703" lon="-1.694391"><ele>216</ele><time>2020-10-28T12:30:09Z</time><name>PT6104</name></trkpt>
<trkpt lat="53.097689" lon="-1.694389"><ele>216</ele><time>2020-10-28T12:30:11Z</time><name>PT6105</name></trkpt>
<trkpt lat="53.097676" lon="-1.694391"><ele>216</ele><time>2020-10-28T12:30:12Z</time><name>PT6106</name></trkpt>
<trkpt lat="53.097665" lon="-1.694395"><ele>215</ele><time>2020-10-28T12:30:12Z</time><name>PT6107</name></trkpt>
<trkpt lat="53.097654" lon="-1.694398"><ele>215</ele><time>2020-10-28T12:30:14Z</time><name>PT6108</name></trkpt>
<trkpt lat="53.097641" lon="-1.694401"><ele>215</ele><time>2020-10-28T12:30:15Z</time><name>PT6109</name></trkpt>
<trkpt lat="53.097623" lon="-1.694400"><ele>216</ele><time>2020-10-28T12:30:16Z</time><name>PT6110</name></trkpt>
<trkpt lat="53.097607" lon="-1.694401"><ele>216</ele><time>2020-10-28T12:30:17Z</time><name>PT6111</name></trkpt>
<trkpt lat="53.097592" lon="-1.694398"><ele>216</ele><time>2020-10-28T12:30:18Z</time><name>PT6112</name></trkpt>
<trkpt lat="53.097578" lon="-1.694396"><ele>216</ele><time>2020-10-28T12:30:19Z</time><name>PT6113</name></trkpt>
<trkpt lat="53.097565" lon="-1.694397"><ele>216</ele><time>2020-10-28T12:30:20Z</time><name>PT6114</name></trkpt>
<trkpt lat="53.097552" lon="-1.694399"><ele>216</ele><time>2020-10-28T12:30:21Z</time><name>PT6115</name></trkpt>
<trkpt lat="53.097538" lon="-1.694403"><ele>216</ele><time>2020-10-28T12:30:21Z</time><name>PT6116</name></trkpt>
<trkpt lat="53.097526" lon="-1.694406"><ele>216</ele><time>2020-10-28T12:30:23Z</time><name>PT6117</name></trkpt>
<trkpt lat="53.097510" lon="-1.694401"><ele>217</ele><time>2020-10-28T12:30:24Z</time><name>PT6118</name></trkpt>
<trkpt lat="53.097497" lon="-1.694398"><ele>217</ele><time>2020-10-28T12:30:25Z</time><name>PT6119</name></trkpt>
<trkpt lat="53.097488" lon="-1.694397"><ele>217</ele><time>2020-10-28T12:30:26Z</time><name>PT6120</name></trkpt>
<trkpt lat="53.097474" lon="-1.694395"><ele>218</ele><time>2020-10-28T12:30:27Z</time><name>PT6121</name></trkpt>
<trkpt lat="53.097460" lon="-1.694393"><ele>218</ele><time>2020-10-28T12:30:28Z</time><name>PT6122</name></trkpt>
<trkpt lat="53.097447" lon="-1.694393"><ele>218</ele><time>2020-10-28T12:30:29Z</time><name>PT6123</name></trkpt>
<trkpt lat="53.097435" lon="-1.694393"><ele>218</ele><time>2020-10-28T12:30:30Z</time><name>PT6124</name></trkpt>
<trkpt lat="53.097425" lon="-1.694394"><ele>218</ele><time>2020-10-28T12:30:30Z</time><name>PT6125</name></trkpt>
<trkpt lat="53.097414" lon="-1.694396"><ele>218</ele><time>2020-10-28T12:30:32Z</time><name>PT6126</name></trkpt>
<trkpt lat="53.097402" lon="-1.694396"><ele>218</ele><time>2020-10-28T12:30:33Z</time><name>PT6127</name></trkpt>
<trkpt lat="53.097388" lon="-1.694396"><ele>218</ele><time>2020-10-28T12:30:33Z</time><name>PT6128</name></trkpt>
<trkpt lat="53.097376" lon="-1.694399"><ele>218</ele><time>2020-10-28T12:30:35Z</time><name>PT6129</name></trkpt>
<trkpt lat="53.097364" lon="-1.694399"><ele>218</ele><time>2020-10-28T12:30:36Z</time><name>PT6130</name></trkpt>
<trkpt lat="53.097352" lon="-1.694399"><ele>218</ele><time>2020-10-28T12:30:36Z</time><name>PT6131</name></trkpt>
<trkpt lat="53.097340" lon="-1.694390"><ele>217</ele><time>2020-10-28T12:30:38Z</time><name>PT6132</name></trkpt>
<trkpt lat="53.097327" lon="-1.694390"><ele>218</ele><time>2020-10-28T12:30:39Z</time><name>PT6133</name></trkpt>
<trkpt lat="53.097316" lon="-1.694390"><ele>218</ele><time>2020-10-28T12:30:39Z</time><name>PT6134</name></trkpt>
<trkpt lat="53.097303" lon="-1.694390"><ele>217</ele><time>2020-10-28T12:30:41Z</time><name>PT6135</name></trkpt>
<trkpt lat="53.097289" lon="-1.694387"><ele>217</ele><time>2020-10-28T12:30:42Z</time><name>PT6136</name></trkpt>
<trkpt lat="53.097280" lon="-1.694387"><ele>216</ele><time>2020-10-28T12:30:42Z</time><name>PT6137</name></trkpt>
<trkpt lat="53.097264" lon="-1.694382"><ele>216</ele><time>2020-10-28T12:30:44Z</time><name>PT6138</name></trkpt>
<trkpt lat="53.097253" lon="-1.694382"><ele>215</ele><time>2020-10-28T12:30:45Z</time><name>PT6139</name></trkpt>
<trkpt lat="53.097241" lon="-1.694381"><ele>215</ele><time>2020-10-28T12:30:45Z</time><name>PT6140</name></trkpt>
<trkpt lat="53.097229" lon="-1.694382"><ele>215</ele><time>2020-10-28T12:30:47Z</time><name>PT6141</name></trkpt>
<trkpt lat="53.097214" lon="-1.694381"><ele>215</ele><time>2020-10-28T12:30:48Z</time><name>PT6142</name></trkpt>
<trkpt lat="53.097156" lon="-1.694378"><ele>215</ele><time>2020-10-28T12:30:51Z</time><name>PT6143</name></trkpt>
<trkpt lat="53.097120" lon="-1.694381"><ele>215</ele><time>2020-10-28T12:30:54Z</time><name>PT6144</name></trkpt>
<trkpt lat="53.097073" lon="-1.694376"><ele>215</ele><time>2020-10-28T12:30:59Z</time><name>PT6145</name></trkpt>
<trkpt lat="53.097035" lon="-1.694366"><ele>216</ele><time>2020-10-28T12:31:03Z</time><name>PT6146</name></trkpt>
<trkpt lat="53.096997" lon="-1.694365"><ele>216</ele><time>2020-10-28T12:31:06Z</time><name>PT6147</name></trkpt>
<trkpt lat="53.096962" lon="-1.694359"><ele>216</ele><time>2020-10-28T12:31:09Z</time><name>PT6148</name></trkpt>
<trkpt lat="53.096935" lon="-1.694372"><ele>215</ele><time>2020-10-28T12:31:12Z</time><name>PT6149</name></trkpt>
<trkpt lat="53.096897" lon="-1.694398"><ele>215</ele><time>2020-10-28T12:31:15Z</time><name>PT6150</name></trkpt>
<trkpt lat="53.096848" lon="-1.694403"><ele>215</ele><time>2020-10-28T12:31:20Z</time><name>PT6151</name></trkpt>
<trkpt lat="53.096815" lon="-1.694398"><ele>216</ele><time>2020-10-28T12:31:23Z</time><name>PT6152</name></trkpt>
<trkpt lat="53.096762" lon="-1.694403"><ele>217</ele><time>2020-10-28T12:31:27Z</time><name>PT6153</name></trkpt>
<trkpt lat="53.096709" lon="-1.694404"><ele>218</ele><time>2020-10-28T12:31:30Z</time><name>PT6154</name></trkpt>
<trkpt lat="53.096668" lon="-1.694418"><ele>218</ele><time>2020-10-28T12:31:33Z</time><name>PT6155</name></trkpt>
<trkpt lat="53.096618" lon="-1.694430"><ele>219</ele><time>2020-10-28T12:31:38Z</time><name>PT6156</name></trkpt>
<trkpt lat="53.096579" lon="-1.694442"><ele>218</ele><time>2020-10-28T12:31:41Z</time><name>PT6157</name></trkpt>
<trkpt lat="53.096517" lon="-1.694440"><ele>219</ele><time>2020-10-28T12:31:45Z</time><name>PT6158</name></trkpt>
<trkpt lat="53.096476" lon="-1.694441"><ele>218</ele><time>2020-10-28T12:31:48Z</time><name>PT6159</name></trkpt>
<trkpt lat="53.096441" lon="-1.694437"><ele>219</ele><time>2020-10-28T12:31:51Z</time><name>PT6160</name></trkpt>
<trkpt lat="53.096390" lon="-1.694440"><ele>218</ele><time>2020-10-28T12:31:54Z</time><name>PT6161</name></trkpt>
<trkpt lat="53.096349" lon="-1.694445"><ele>217</ele><time>2020-10-28T12:31:57Z</time><name>PT6162</name></trkpt>
<trkpt lat="53.096314" lon="-1.694447"><ele>216</ele><time>2020-10-28T12:32:00Z</time><name>PT6163</name></trkpt>
<trkpt lat="53.096271" lon="-1.694448"><ele>216</ele><time>2020-10-28T12:32:03Z</time><name>PT6164</name></trkpt>
<trkpt lat="53.096237" lon="-1.694443"><ele>215</ele><time>2020-10-28T12:32:06Z</time><name>PT6165</name></trkpt>
<trkpt lat="53.096203" lon="-1.694442"><ele>214</ele><time>2020-10-28T12:32:09Z</time><name>PT6166</name></trkpt>
<trkpt lat="53.096150" lon="-1.694439"><ele>213</ele><time>2020-10-28T12:32:14Z</time><name>PT6167</name></trkpt>
<trkpt lat="53.096108" lon="-1.694440"><ele>211</ele><time>2020-10-28T12:32:17Z</time><name>PT6168</name></trkpt>
<trkpt lat="53.096059" lon="-1.694442"><ele>210</ele><time>2020-10-28T12:32:21Z</time><name>PT6169</name></trkpt>
<trkpt lat="53.096017" lon="-1.694460"><ele>209</ele><time>2020-10-28T12:32:24Z</time><name>PT6170</name></trkpt>
<trkpt lat="53.095978" lon="-1.694479"><ele>207</ele><time>2020-10-28T12:32:27Z</time><name>PT6171</name></trkpt>
<trkpt lat="53.095934" lon="-1.694521"><ele>208</ele><time>2020-10-28T12:32:32Z</time><name>PT6172</name></trkpt>
<trkpt lat="53.095895" lon="-1.694565"><ele>208</ele><time>2020-10-28T12:32:36Z</time><name>PT6173</name></trkpt>
<trkpt lat="53.095867" lon="-1.694603"><ele>209</ele><time>2020-10-28T12:32:39Z</time><name>PT6174</name></trkpt>
<trkpt lat="53.095828" lon="-1.694639"><ele>209</ele><time>2020-10-28T12:32:42Z</time><name>PT6175</name></trkpt>
<trkpt lat="53.095805" lon="-1.694677"><ele>211</ele><time>2020-10-28T12:32:45Z</time><name>PT6176</name></trkpt>
<trkpt lat="53.095775" lon="-1.694749"><ele>211</ele><time>2020-10-28T12:32:48Z</time><name>PT6177</name></trkpt>
<trkpt lat="53.095749" lon="-1.694823"><ele>212</ele><time>2020-10-28T12:32:53Z</time><name>PT6178</name></trkpt>
<trkpt lat="53.095740" lon="-1.694893"><ele>212</ele><time>2020-10-28T12:32:57Z</time><name>PT6179</name></trkpt>
<trkpt lat="53.095732" lon="-1.694982"><ele>212</ele><time>2020-10-28T12:33:00Z</time><name>PT6180</name></trkpt>
<trkpt lat="53.095724" lon="-1.695047"><ele>213</ele><time>2020-10-28T12:33:03Z</time><name>PT6181</name></trkpt>
<trkpt lat="53.095699" lon="-1.695131"><ele>213</ele><time>2020-10-28T12:33:08Z</time><name>PT6182</name></trkpt>
<trkpt lat="53.095669" lon="-1.695217"><ele>214</ele><time>2020-10-28T12:33:12Z</time><name>PT6183</name></trkpt>
<trkpt lat="53.095653" lon="-1.695271"><ele>213</ele><time>2020-10-28T12:33:15Z</time><name>PT6184</name></trkpt>
<trkpt lat="53.095637" lon="-1.695336"><ele>211</ele><time>2020-10-28T12:33:18Z</time><name>PT6185</name></trkpt>
<trkpt lat="53.095628" lon="-1.695418"><ele>212</ele><time>2020-10-28T12:33:21Z</time><name>PT6186</name></trkpt>
<trkpt lat="53.095615" lon="-1.695500"><ele>212</ele><time>2020-10-28T12:33:26Z</time><name>PT6187</name></trkpt>
<trkpt lat="53.095592" lon="-1.695558"><ele>215</ele><time>2020-10-28T12:33:29Z</time><name>PT6188</name></trkpt>
<trkpt lat="53.095583" lon="-1.695625"><ele>215</ele><time>2020-10-28T12:33:32Z</time><name>PT6189</name></trkpt>
<trkpt lat="53.095575" lon="-1.695702"><ele>216</ele><time>2020-10-28T12:33:36Z</time><name>PT6190</name></trkpt>
<trkpt lat="53.095561" lon="-1.695767"><ele>215</ele><time>2020-10-28T12:33:39Z</time><name>PT6191</name></trkpt>
<trkpt lat="53.095546" lon="-1.695820"><ele>217</ele><time>2020-10-28T12:33:42Z</time><name>PT6192</name></trkpt>
<trkpt lat="53.095530" lon="-1.695904"><ele>218</ele><time>2020-10-28T12:33:45Z</time><name>PT6193</name></trkpt>
<trkpt lat="53.095516" lon="-1.695989"><ele>219</ele><time>2020-10-28T12:33:50Z</time><name>PT6194</name></trkpt>
<trkpt lat="53.095493" lon="-1.696070"><ele>220</ele><time>2020-10-28T12:33:54Z</time><name>PT6195</name></trkpt>
<trkpt lat="53.095474" lon="-1.696139"><ele>219</ele><time>2020-10-28T12:33:57Z</time><name>PT6196</name></trkpt>
<trkpt lat="53.095455" lon="-1.696228"><ele>219</ele><time>2020-10-28T12:34:00Z</time><name>PT6197</name></trkpt>
<trkpt lat="53.095429" lon="-1.696316"><ele>218</ele><time>2020-10-28T12:34:05Z</time><name>PT6198</name></trkpt>
<trkpt lat="53.095412" lon="-1.696376"><ele>219</ele><time>2020-10-28T12:34:08Z</time><name>PT6199</name></trkpt>
<trkpt lat="53.095389" lon="-1.696456"><ele>215</ele><time>2020-10-28T12:34:12Z</time><name>PT6200</name></trkpt>
<trkpt lat="53.095376" lon="-1.696497"><ele>218</ele><time>2020-10-28T12:34:15Z</time><name>PT6201</name></trkpt>
<trkpt lat="53.095349" lon="-1.696555"><ele>218</ele><time>2020-10-28T12:34:18Z</time><name>PT6202</name></trkpt>
<trkpt lat="53.095326" lon="-1.696625"><ele>217</ele><time>2020-10-28T12:34:23Z</time><name>PT6203</name></trkpt>
<trkpt lat="53.095311" lon="-1.696686"><ele>216</ele><time>2020-10-28T12:34:26Z</time><name>PT6204</name></trkpt>
<trkpt lat="53.095290" lon="-1.696769"><ele>216</ele><time>2020-10-28T12:34:30Z</time><name>PT6205</name></trkpt>
<trkpt lat="53.095275" lon="-1.696827"><ele>215</ele><time>2020-10-28T12:34:33Z</time><name>PT6206</name></trkpt>
<trkpt lat="53.095239" lon="-1.696892"><ele>215</ele><time>2020-10-28T12:34:36Z</time><name>PT6207</name></trkpt>
<trkpt lat="53.095217" lon="-1.696974"><ele>214</ele><time>2020-10-28T12:34:41Z</time><name>PT6208</name></trkpt>
<trkpt lat="53.095186" lon="-1.697032"><ele>211</ele><time>2020-10-28T12:34:45Z</time><name>PT6209</name></trkpt>
<trkpt lat="53.095167" lon="-1.697091"><ele>208</ele><time>2020-10-28T12:34:48Z</time><name>PT6210</name></trkpt>
<trkpt lat="53.095140" lon="-1.697133"><ele>206</ele><time>2020-10-28T12:34:51Z</time><name>PT6211</name></trkpt>
<trkpt lat="53.095119" lon="-1.697184"><ele>207</ele><time>2020-10-28T12:34:54Z</time><name>PT6212</name></trkpt>
<trkpt lat="53.095092" lon="-1.697254"><ele>206</ele><time>2020-10-28T12:34:59Z</time><name>PT6213</name></trkpt>
<trkpt lat="53.095060" lon="-1.697315"><ele>204</ele><time>2020-10-28T12:35:03Z</time><name>PT6214</name></trkpt>
<trkpt lat="53.095040" lon="-1.697364"><ele>202</ele><time>2020-10-28T12:35:06Z</time><name>PT6215</name></trkpt>
<trkpt lat="53.094998" lon="-1.697423"><ele>200</ele><time>2020-10-28T12:35:09Z</time><name>PT6216</name></trkpt>
<trkpt lat="53.094965" lon="-1.697483"><ele>199</ele><time>2020-10-28T12:35:14Z</time><name>PT6217</name></trkpt>
<trkpt lat="53.094941" lon="-1.697536"><ele>199</ele><time>2020-10-28T12:35:17Z</time><name>PT6218</name></trkpt>
<trkpt lat="53.094919" lon="-1.697613"><ele>199</ele><time>2020-10-28T12:35:21Z</time><name>PT6219</name></trkpt>
<trkpt lat="53.094898" lon="-1.697665"><ele>198</ele><time>2020-10-28T12:35:24Z</time><name>PT6220</name></trkpt>
<trkpt lat="53.094876" lon="-1.697726"><ele>195</ele><time>2020-10-28T12:35:27Z</time><name>PT6221</name></trkpt>
<trkpt lat="53.094850" lon="-1.697796"><ele>196</ele><time>2020-10-28T12:35:32Z</time><name>PT6222</name></trkpt>
<trkpt lat="53.094825" lon="-1.697852"><ele>198</ele><time>2020-10-28T12:35:36Z</time><name>PT6223</name></trkpt>
<trkpt lat="53.094799" lon="-1.697892"><ele>197</ele><time>2020-10-28T12:35:39Z</time><name>PT6224</name></trkpt>
<trkpt lat="53.094768" lon="-1.697920"><ele>197</ele><time>2020-10-28T12:35:42Z</time><name>PT6225</name></trkpt>
<trkpt lat="53.094733" lon="-1.697948"><ele>197</ele><time>2020-10-28T12:35:45Z</time><name>PT6226</name></trkpt>
<trkpt lat="53.094695" lon="-1.697981"><ele>198</ele><time>2020-10-28T12:35:50Z</time><name>PT6227</name></trkpt>
<trkpt lat="53.094652" lon="-1.698007"><ele>197</ele><time>2020-10-28T12:35:54Z</time><name>PT6228</name></trkpt>
<trkpt lat="53.094602" lon="-1.698033"><ele>199</ele><time>2020-10-28T12:35:57Z</time><name>PT6229</name></trkpt>
<trkpt lat="53.094562" lon="-1.698055"><ele>198</ele><time>2020-10-28T12:36:00Z</time><name>PT6230</name></trkpt>
<trkpt lat="53.094515" lon="-1.698104"><ele>199</ele><time>2020-10-28T12:36:05Z</time><name>PT6231</name></trkpt>
<trkpt lat="53.094484" lon="-1.698140"><ele>198</ele><time>2020-10-28T12:36:08Z</time><name>PT6232</name></trkpt>
<trkpt lat="53.094433" lon="-1.698172"><ele>196</ele><time>2020-10-28T12:36:12Z</time><name>PT6233</name></trkpt>
<trkpt lat="53.094390" lon="-1.698179"><ele>194</ele><time>2020-10-28T12:36:15Z</time><name>PT6234</name></trkpt>
<trkpt lat="53.094344" lon="-1.698215"><ele>194</ele><time>2020-10-28T12:36:18Z</time><name>PT6235</name></trkpt>
<trkpt lat="53.094297" lon="-1.698238"><ele>195</ele><time>2020-10-28T12:36:23Z</time><name>PT6236</name></trkpt>
<trkpt lat="53.094246" lon="-1.698250"><ele>196</ele><time>2020-10-28T12:36:27Z</time><name>PT6237</name></trkpt>
<trkpt lat="53.094209" lon="-1.698268"><ele>195</ele><time>2020-10-28T12:36:30Z</time><name>PT6238</name></trkpt>
<trkpt lat="53.094173" lon="-1.698279"><ele>191</ele><time>2020-10-28T12:36:35Z</time><name>PT6239</name></trkpt>
<trkpt lat="53.094106" lon="-1.698301"><ele>192</ele><time>2020-10-28T12:36:39Z</time><name>PT6240</name></trkpt>
<trkpt lat="53.094046" lon="-1.698318"><ele>193</ele><time>2020-10-28T12:36:42Z</time><name>PT6241</name></trkpt>
<trkpt lat="53.093982" lon="-1.698333"><ele>193</ele><time>2020-10-28T12:36:47Z</time><name>PT6242</name></trkpt>
<trkpt lat="53.093935" lon="-1.698367"><ele>196</ele><time>2020-10-28T12:36:50Z</time><name>PT6243</name></trkpt>
<trkpt lat="53.093873" lon="-1.698427"><ele>189</ele><time>2020-10-28T12:36:54Z</time><name>PT6244</name></trkpt>
<trkpt lat="53.093807" lon="-1.698473"><ele>191</ele><time>2020-10-28T12:36:57Z</time><name>PT6245</name></trkpt>
<trkpt lat="53.093760" lon="-1.698511"><ele>194</ele><time>2020-10-28T12:37:00Z</time><name>PT6246</name></trkpt>
<trkpt lat="53.093700" lon="-1.698551"><ele>198</ele><time>2020-10-28T12:37:03Z</time><name>PT6247</name></trkpt>
<trkpt lat="53.093648" lon="-1.698604"><ele>199</ele><time>2020-10-28T12:37:08Z</time><name>PT6248</name></trkpt>
<trkpt lat="53.093598" lon="-1.698662"><ele>198</ele><time>2020-10-28T12:37:12Z</time><name>PT6249</name></trkpt>
<trkpt lat="53.093556" lon="-1.698716"><ele>199</ele><time>2020-10-28T12:37:15Z</time><name>PT6250</name></trkpt>
<trkpt lat="53.093516" lon="-1.698755"><ele>198</ele><time>2020-10-28T12:37:18Z</time><name>PT6251</name></trkpt>
<trkpt lat="53.093482" lon="-1.698800"><ele>199</ele><time>2020-10-28T12:37:21Z</time><name>PT6252</name></trkpt>
<trkpt lat="53.093444" lon="-1.698837"><ele>199</ele><time>2020-10-28T12:37:24Z</time><name>PT6253</name></trkpt>
<trkpt lat="53.093394" lon="-1.698879"><ele>199</ele><time>2020-10-28T12:37:29Z</time><name>PT6254</name></trkpt>
<trkpt lat="53.093358" lon="-1.698919"><ele>198</ele><time>2020-10-28T12:37:32Z</time><name>PT6255</name></trkpt>
<trkpt lat="53.093323" lon="-1.698979"><ele>197</ele><time>2020-10-28T12:37:36Z</time><name>PT6256</name></trkpt>
<trkpt lat="53.093278" lon="-1.699029"><ele>196</ele><time>2020-10-28T12:37:39Z</time><name>PT6257</name></trkpt>
<trkpt lat="53.093247" lon="-1.699064"><ele>195</ele><time>2020-10-28T12:37:42Z</time><name>PT6258</name></trkpt>
<trkpt lat="53.093209" lon="-1.699127"><ele>194</ele><time>2020-10-28T12:37:47Z</time><name>PT6259</name></trkpt>
<trkpt lat="53.093171" lon="-1.699178"><ele>194</ele><time>2020-10-28T12:37:51Z</time><name>PT6260</name></trkpt>
<trkpt lat="53.093132" lon="-1.699207"><ele>193</ele><time>2020-10-28T12:37:54Z</time><name>PT6261</name></trkpt>
<trkpt lat="53.093104" lon="-1.699239"><ele>192</ele><time>2020-10-28T12:37:57Z</time><name>PT6262</name></trkpt>
<trkpt lat="53.093052" lon="-1.699274"><ele>192</ele><time>2020-10-28T12:38:00Z</time><name>PT6263</name></trkpt>
<trkpt lat="53.093004" lon="-1.699316"><ele>192</ele><time>2020-10-28T12:38:05Z</time><name>PT6264</name></trkpt>
<trkpt lat="53.092974" lon="-1.699358"><ele>192</ele><time>2020-10-28T12:38:08Z</time><name>PT6265</name></trkpt>
<trkpt lat="53.092943" lon="-1.699406"><ele>192</ele><time>2020-10-28T12:38:11Z</time><name>PT6266</name></trkpt>
<trkpt lat="53.092892" lon="-1.699448"><ele>192</ele><time>2020-10-28T12:38:15Z</time><name>PT6267</name></trkpt>
<trkpt lat="53.092841" lon="-1.699483"><ele>193</ele><time>2020-10-28T12:38:18Z</time><name>PT6268</name></trkpt>
<trkpt lat="53.092801" lon="-1.699491"><ele>193</ele><time>2020-10-28T12:38:21Z</time><name>PT6269</name></trkpt>
<trkpt lat="53.092748" lon="-1.699506"><ele>197</ele><time>2020-10-28T12:38:24Z</time><name>PT6270</name></trkpt>
<trkpt lat="53.092713" lon="-1.699501"><ele>198</ele><time>2020-10-28T12:38:27Z</time><name>PT6271</name></trkpt>
<trkpt lat="53.092695" lon="-1.699500"><ele>198</ele><time>2020-10-28T12:38:27Z</time><name>PT6272</name></trkpt>
<trkpt lat="53.092681" lon="-1.699498"><ele>198</ele><time>2020-10-28T12:38:29Z</time><name>PT6273</name></trkpt>
<trkpt lat="53.092669" lon="-1.699498"><ele>197</ele><time>2020-10-28T12:38:30Z</time><name>PT6274</name></trkpt>
<trkpt lat="53.092654" lon="-1.699498"><ele>198</ele><time>2020-10-28T12:38:30Z</time><name>PT6275</name></trkpt>
<trkpt lat="53.092639" lon="-1.699496"><ele>198</ele><time>2020-10-28T12:38:32Z</time><name>PT6276</name></trkpt>
<trkpt lat="53.092625" lon="-1.699495"><ele>198</ele><time>2020-10-28T12:38:33Z</time><name>PT6277</name></trkpt>
<trkpt lat="53.092611" lon="-1.699494"><ele>198</ele><time>2020-10-28T12:38:33Z</time><name>PT6278</name></trkpt>
<trkpt lat="53.092595" lon="-1.699493"><ele>198</ele><time>2020-10-28T12:38:35Z</time><name>PT6279</name></trkpt>
<trkpt lat="53.092581" lon="-1.699493"><ele>198</ele><time>2020-10-28T12:38:36Z</time><name>PT6280</name></trkpt>
<trkpt lat="53.092567" lon="-1.699492"><ele>198</ele><time>2020-10-28T12:38:36Z</time><name>PT6281</name></trkpt>
<trkpt lat="53.092554" lon="-1.699493"><ele>198</ele><time>2020-10-28T12:38:38Z</time><name>PT6282</name></trkpt>
<trkpt lat="53.092540" lon="-1.699496"><ele>198</ele><time>2020-10-28T12:38:39Z</time><name>PT6283</name></trkpt>
<trkpt lat="53.092527" lon="-1.699501"><ele>198</ele><time>2020-10-28T12:38:39Z</time><name>PT6284</name></trkpt>
<trkpt lat="53.092513" lon="-1.699504"><ele>198</ele><time>2020-10-28T12:38:41Z</time><name>PT6285</name></trkpt>
<trkpt lat="53.092499" lon="-1.699508"><ele>198</ele><time>2020-10-28T12:38:42Z</time><name>PT6286</name></trkpt>
<trkpt lat="53.092484" lon="-1.699512"><ele>198</ele><time>2020-10-28T12:38:42Z</time><name>PT6287</name></trkpt>
<trkpt lat="53.092470" lon="-1.699515"><ele>198</ele><time>2020-10-28T12:38:44Z</time><name>PT6288</name></trkpt>
<trkpt lat="53.092457" lon="-1.699517"><ele>198</ele><time>2020-10-28T12:38:45Z</time><name>PT6289</name></trkpt>
<trkpt lat="53.092445" lon="-1.699519"><ele>198</ele><time>2020-10-28T12:38:45Z</time><name>PT6290</name></trkpt>
<trkpt lat="53.092431" lon="-1.699519"><ele>198</ele><time>2020-10-28T12:38:47Z</time><name>PT6291</name></trkpt>
<trkpt lat="53.092418" lon="-1.699522"><ele>198</ele><time>2020-10-28T12:38:48Z</time><name>PT6292</name></trkpt>
<trkpt lat="53.092405" lon="-1.699525"><ele>198</ele><time>2020-10-28T12:38:48Z</time><name>PT6293</name></trkpt>
<trkpt lat="53.092391" lon="-1.699526"><ele>198</ele><time>2020-10-28T12:38:50Z</time><name>PT6294</name></trkpt>
<trkpt lat="53.092378" lon="-1.699524"><ele>198</ele><time>2020-10-28T12:38:51Z</time><name>PT6295</name></trkpt>
<trkpt lat="53.092366" lon="-1.699523"><ele>198</ele><time>2020-10-28T12:38:51Z</time><name>PT6296</name></trkpt>
<trkpt lat="53.092353" lon="-1.699522"><ele>198</ele><time>2020-10-28T12:38:53Z</time><name>PT6297</name></trkpt>
<trkpt lat="53.092339" lon="-1.699522"><ele>198</ele><time>2020-10-28T12:38:54Z</time><name>PT6298</name></trkpt>
<trkpt lat="53.092326" lon="-1.699524"><ele>198</ele><time>2020-10-28T12:38:54Z</time><name>PT6299</name></trkpt>
<trkpt lat="53.092314" lon="-1.699526"><ele>198</ele><time>2020-10-28T12:38:56Z</time><name>PT6300</name></trkpt>
<trkpt lat="53.092302" lon="-1.699526"><ele>198</ele><time>2020-10-28T12:38:57Z</time><name>PT6301</name></trkpt>
<trkpt lat="53.092289" lon="-1.699525"><ele>198</ele><time>2020-10-28T12:38:57Z</time><name>PT6302</name></trkpt>
<trkpt lat="53.092276" lon="-1.699525"><ele>198</ele><time>2020-10-28T12:38:59Z</time><name>PT6303</name></trkpt>
<trkpt lat="53.092266" lon="-1.699527"><ele>198</ele><time>2020-10-28T12:39:00Z</time><name>PT6304</name></trkpt>
<trkpt lat="53.092255" lon="-1.699528"><ele>197</ele><time>2020-10-28T12:39:00Z</time><name>PT6305</name></trkpt>
<trkpt lat="53.092240" lon="-1.699527"><ele>197</ele><time>2020-10-28T12:39:02Z</time><name>PT6306</name></trkpt>
<trkpt lat="53.092228" lon="-1.699528"><ele>197</ele><time>2020-10-28T12:39:03Z</time><name>PT6307</name></trkpt>
<trkpt lat="53.092215" lon="-1.699527"><ele>197</ele><time>2020-10-28T12:39:03Z</time><name>PT6308</name></trkpt>
<trkpt lat="53.092205" lon="-1.699529"><ele>197</ele><time>2020-10-28T12:39:05Z</time><name>PT6309</name></trkpt>
<trkpt lat="53.092194" lon="-1.699530"><ele>197</ele><time>2020-10-28T12:39:06Z</time><name>PT6310</name></trkpt>
<trkpt lat="53.092184" lon="-1.699530"><ele>197</ele><time>2020-10-28T12:39:06Z</time><name>PT6311</name></trkpt>
<trkpt lat="53.092174" lon="-1.699532"><ele>197</ele><time>2020-10-28T12:39:08Z</time><name>PT6312</name></trkpt>
<trkpt lat="53.092161" lon="-1.699533"><ele>196</ele><time>2020-10-28T12:39:09Z</time><name>PT6313</name></trkpt>
<trkpt lat="53.092150" lon="-1.699532"><ele>196</ele><time>2020-10-28T12:39:09Z</time><name>PT6314</name></trkpt>
<trkpt lat="53.092138" lon="-1.699532"><ele>196</ele><time>2020-10-28T12:39:11Z</time><name>PT6315</name></trkpt>
<trkpt lat="53.092126" lon="-1.699534"><ele>197</ele><time>2020-10-28T12:39:12Z</time><name>PT6316</name></trkpt>
<trkpt lat="53.092117" lon="-1.699539"><ele>196</ele><time>2020-10-28T12:39:12Z</time><name>PT6317</name></trkpt>
<trkpt lat="53.092107" lon="-1.699540"><ele>196</ele><time>2020-10-28T12:39:14Z</time><name>PT6318</name></trkpt>
<trkpt lat="53.092092" lon="-1.699540"><ele>196</ele><time>2020-10-28T12:39:15Z</time><name>PT6319</name></trkpt>
<trkpt lat="53.092077" lon="-1.699537"><ele>197</ele><time>2020-10-28T12:39:15Z</time><name>PT6320</name></trkpt>
<trkpt lat="53.092064" lon="-1.699534"><ele>197</ele><time>2020-10-28T12:39:17Z</time><name>PT6321</name></trkpt>
<trkpt lat="53.092051" lon="-1.699529"><ele>196</ele><time>2020-10-28T12:39:18Z</time><name>PT6322</name></trkpt>
<trkpt lat="53.092038" lon="-1.699525"><ele>197</ele><time>2020-10-28T12:39:18Z</time><name>PT6323</name></trkpt>
<trkpt lat="53.092028" lon="-1.699524"><ele>196</ele><time>2020-10-28T12:39:20Z</time><name>PT6324</name></trkpt>
<trkpt lat="53.092020" lon="-1.699524"><ele>196</ele><time>2020-10-28T12:39:21Z</time><name>PT6325</name></trkpt>
<trkpt lat="53.092011" lon="-1.699522"><ele>195</ele><time>2020-10-28T12:39:21Z</time><name>PT6326</name></trkpt>
<trkpt lat="53.091998" lon="-1.699517"><ele>195</ele><time>2020-10-28T12:39:23Z</time><name>PT6327</name></trkpt>
<trkpt lat="53.091992" lon="-1.699509"><ele>193</ele><time>2020-10-28T12:39:24Z</time><name>PT6328</name></trkpt>
<trkpt lat="53.091979" lon="-1.699501"><ele>193</ele><time>2020-10-28T12:39:24Z</time><name>PT6329</name></trkpt>
<trkpt lat="53.091968" lon="-1.699494"><ele>193</ele><time>2020-10-28T12:39:26Z</time><name>PT6330</name></trkpt>
<trkpt lat="53.091958" lon="-1.699489"><ele>193</ele><time>2020-10-28T12:39:27Z</time><name>PT6331</name></trkpt>
<trkpt lat="53.091948" lon="-1.699486"><ele>193</ele><time>2020-10-28T12:39:27Z</time><name>PT6332</name></trkpt>
<trkpt lat="53.091936" lon="-1.699478"><ele>193</ele><time>2020-10-28T12:39:29Z</time><name>PT6333</name></trkpt>
<trkpt lat="53.091927" lon="-1.699471"><ele>193</ele><time>2020-10-28T12:39:30Z</time><name>PT6334</name></trkpt>
<trkpt lat="53.091916" lon="-1.699461"><ele>193</ele><time>2020-10-28T12:39:30Z</time><name>PT6335</name></trkpt>
<trkpt lat="53.091902" lon="-1.699454"><ele>193</ele><time>2020-10-28T12:39:32Z</time><name>PT6336</name></trkpt>
<trkpt lat="53.091890" lon="-1.699449"><ele>193</ele><time>2020-10-28T12:39:33Z</time><name>PT6337</name></trkpt>
<trkpt lat="53.091880" lon="-1.699446"><ele>194</ele><time>2020-10-28T12:39:33Z</time><name>PT6338</name></trkpt>
<trkpt lat="53.091868" lon="-1.699440"><ele>194</ele><time>2020-10-28T12:39:35Z</time><name>PT6339</name></trkpt>
<trkpt lat="53.091855" lon="-1.699436"><ele>194</ele><time>2020-10-28T12:39:36Z</time><name>PT6340</name></trkpt>
<trkpt lat="53.091842" lon="-1.699428"><ele>194</ele><time>2020-10-28T12:39:36Z</time><name>PT6341</name></trkpt>
<trkpt lat="53.091830" lon="-1.699421"><ele>194</ele><time>2020-10-28T12:39:38Z</time><name>PT6342</name></trkpt>
<trkpt lat="53.091816" lon="-1.699414"><ele>194</ele><time>2020-10-28T12:39:39Z</time><name>PT6343</name></trkpt>
<trkpt lat="53.091803" lon="-1.699412"><ele>194</ele><time>2020-10-28T12:39:39Z</time><name>PT6344</name></trkpt>
<trkpt lat="53.091789" lon="-1.699406"><ele>194</ele><time>2020-10-28T12:39:41Z</time><name>PT6345</name></trkpt>
<trkpt lat="53.091777" lon="-1.699400"><ele>194</ele><time>2020-10-28T12:39:42Z</time><name>PT6346</name></trkpt>
<trkpt lat="53.091766" lon="-1.699395"><ele>193</ele><time>2020-10-28T12:39:42Z</time><name>PT6347</name></trkpt>
<trkpt lat="53.091758" lon="-1.699385"><ele>193</ele><time>2020-10-28T12:39:44Z</time><name>PT6348</name></trkpt>
<trkpt lat="53.091751" lon="-1.699377"><ele>193</ele><time>2020-10-28T12:39:45Z</time><name>PT6349</name></trkpt>
<trkpt lat="53.091741" lon="-1.699369"><ele>192</ele><time>2020-10-28T12:39:45Z</time><name>PT6350</name></trkpt>
<trkpt lat="53.091729" lon="-1.699366"><ele>192</ele><time>2020-10-28T12:39:47Z</time><name>PT6351</name></trkpt>
<trkpt lat="53.091717" lon="-1.699361"><ele>192</ele><time>2020-10-28T12:39:48Z</time><name>PT6352</name></trkpt>
<trkpt lat="53.091715" lon="-1.699361"><ele>190</ele><time>2020-10-28T12:39:48Z</time><name>PT6353</name></trkpt>
<trkpt lat="53.091706" lon="-1.699358"><ele>191</ele><time>2020-10-28T12:39:50Z</time><name>PT6354</name></trkpt>
<trkpt lat="53.091695" lon="-1.699352"><ele>191</ele><time>2020-10-28T12:39:51Z</time><name>PT6355</name></trkpt>
<trkpt lat="53.091682" lon="-1.699352"><ele>190</ele><time>2020-10-28T12:39:51Z</time><name>PT6356</name></trkpt>
<trkpt lat="53.091671" lon="-1.699351"><ele>189</ele><time>2020-10-28T12:39:53Z</time><name>PT6357</name></trkpt>
<trkpt lat="53.091660" lon="-1.699346"><ele>190</ele><time>2020-10-28T12:39:54Z</time><name>PT6358</name></trkpt>
<trkpt lat="53.091651" lon="-1.699342"><ele>189</ele><time>2020-10-28T12:39:54Z</time><name>PT6359</name></trkpt>
<trkpt lat="53.091644" lon="-1.699341"><ele>189</ele><time>2020-10-28T12:39:56Z</time><name>PT6360</name></trkpt>
<trkpt lat="53.091636" lon="-1.699343"><ele>189</ele><time>2020-10-28T12:39:57Z</time><name>PT6361</name></trkpt>
<trkpt lat="53.091625" lon="-1.699342"><ele>189</ele><time>2020-10-28T12:39:57Z</time><name>PT6362</name></trkpt>
<trkpt lat="53.091610" lon="-1.699336"><ele>189</ele><time>2020-10-28T12:39:59Z</time><name>PT6363</name></trkpt>
<trkpt lat="53.091600" lon="-1.699334"><ele>189</ele><time>2020-10-28T12:40:00Z</time><name>PT6364</name></trkpt>
<trkpt lat="53.091590" lon="-1.699333"><ele>188</ele><time>2020-10-28T12:40:01Z</time><name>PT6365</name></trkpt>
<trkpt lat="53.091579" lon="-1.699331"><ele>189</ele><time>2020-10-28T12:40:02Z</time><name>PT6366</name></trkpt>
<trkpt lat="53.091572" lon="-1.699330"><ele>188</ele><time>2020-10-28T12:40:03Z</time><name>PT6367</name></trkpt>
<trkpt lat="53.091561" lon="-1.699318"><ele>187</ele><time>2020-10-28T12:40:04Z</time><name>PT6368</name></trkpt>
<trkpt lat="53.091546" lon="-1.699302"><ele>187</ele><time>2020-10-28T12:40:05Z</time><name>PT6369</name></trkpt>
<trkpt lat="53.091541" lon="-1.699296"><ele>186</ele><time>2020-10-28T12:40:06Z</time><name>PT6370</name></trkpt>
<trkpt lat="53.091531" lon="-1.699296"><ele>186</ele><time>2020-10-28T12:40:07Z</time><name>PT6371</name></trkpt>
<trkpt lat="53.091518" lon="-1.699296"><ele>185</ele><time>2020-10-28T12:40:08Z</time><name>PT6372</name></trkpt>
<trkpt lat="53.091511" lon="-1.699296"><ele>184</ele><time>2020-10-28T12:40:09Z</time><name>PT6373</name></trkpt>
<trkpt lat="53.091501" lon="-1.699291"><ele>184</ele><time>2020-10-28T12:40:10Z</time><name>PT6374</name></trkpt>
<trkpt lat="53.091498" lon="-1.699285"><ele>182</ele><time>2020-10-28T12:40:11Z</time><name>PT6375</name></trkpt>
<trkpt lat="53.091487" lon="-1.699280"><ele>180</ele><time>2020-10-28T12:40:12Z</time><name>PT6376</name></trkpt>
<trkpt lat="53.091482" lon="-1.699282"><ele>180</ele><time>2020-10-28T12:40:12Z</time><name>PT6377</name></trkpt>
<trkpt lat="53.091473" lon="-1.699285"><ele>180</ele><time>2020-10-28T12:40:14Z</time><name>PT6378</name></trkpt>
<trkpt lat="53.091469" lon="-1.699286"><ele>180</ele><time>2020-10-28T12:40:15Z</time><name>PT6379</name></trkpt>
<trkpt lat="53.091461" lon="-1.699279"><ele>180</ele><time>2020-10-28T12:40:15Z</time><name>PT6380</name></trkpt>
<trkpt lat="53.091455" lon="-1.699278"><ele>179</ele><time>2020-10-28T12:40:17Z</time><name>PT6381</name></trkpt>
<trkpt lat="53.091449" lon="-1.699285"><ele>178</ele><time>2020-10-28T12:40:18Z</time><name>PT6382</name></trkpt>
<trkpt lat="53.091438" lon="-1.699280"><ele>178</ele><time>2020-10-28T12:40:18Z</time><name>PT6383</name></trkpt>
<trkpt lat="53.091425" lon="-1.699265"><ele>179</ele><time>2020-10-28T12:40:20Z</time><name>PT6384</name></trkpt>
<trkpt lat="53.091413" lon="-1.699255"><ele>179</ele><time>2020-10-28T12:40:21Z</time><name>PT6385</name></trkpt>
<trkpt lat="53.091415" lon="-1.699256"><ele>178</ele><time>2020-10-28T12:40:21Z</time><name>PT6386</name></trkpt>
<trkpt lat="53.091410" lon="-1.699254"><ele>176</ele><time>2020-10-28T12:40:23Z</time><name>PT6387</name></trkpt>
<trkpt lat="53.091400" lon="-1.699245"><ele>174</ele><time>2020-10-28T12:40:24Z</time><name>PT6388</name></trkpt>
<trkpt lat="53.091388" lon="-1.699242"><ele>174</ele><time>2020-10-28T12:40:24Z</time><name>PT6389</name></trkpt>
<trkpt lat="53.091376" lon="-1.699244"><ele>172</ele><time>2020-10-28T12:40:26Z</time><name>PT6390</name></trkpt>
<trkpt lat="53.091358" lon="-1.699239"><ele>172</ele><time>2020-10-28T12:40:27Z</time><name>PT6391</name></trkpt>
<trkpt lat="53.091341" lon="-1.699234"><ele>173</ele><time>2020-10-28T12:40:27Z</time><name>PT6392</name></trkpt>
<trkpt lat="53.091322" lon="-1.699227"><ele>173</ele><time>2020-10-28T12:40:29Z</time><name>PT6393</name></trkpt>
<trkpt lat="53.091303" lon="-1.699216"><ele>174</ele><time>2020-10-28T12:40:30Z</time><name>PT6394</name></trkpt>
<trkpt lat="53.091292" lon="-1.699212"><ele>174</ele><time>2020-10-28T12:40:30Z</time><name>PT6395</name></trkpt>
<trkpt lat="53.091280" lon="-1.699214"><ele>171</ele><time>2020-10-28T12:40:32Z</time><name>PT6396</name></trkpt>
<trkpt lat="53.091264" lon="-1.699213"><ele>172</ele><time>2020-10-28T12:40:33Z</time><name>PT6397</name></trkpt>
<trkpt lat="53.091249" lon="-1.699214"><ele>172</ele><time>2020-10-28T12:40:33Z</time><name>PT6398</name></trkpt>
<trkpt lat="53.091230" lon="-1.699216"><ele>173</ele><time>2020-10-28T12:40:35Z</time><name>PT6399</name></trkpt>
<trkpt lat="53.091214" lon="-1.699214"><ele>174</ele><time>2020-10-28T12:40:36Z</time><name>PT6400</name></trkpt>
<trkpt lat="53.091191" lon="-1.699208"><ele>176</ele><time>2020-10-28T12:40:36Z</time><name>PT6401</name></trkpt>
<trkpt lat="53.091176" lon="-1.699207"><ele>176</ele><time>2020-10-28T12:40:38Z</time><name>PT6402</name></trkpt>
<trkpt lat="53.091161" lon="-1.699201"><ele>177</ele><time>2020-10-28T12:40:39Z</time><name>PT6403</name></trkpt>
<trkpt lat="53.091149" lon="-1.699196"><ele>178</ele><time>2020-10-28T12:40:39Z</time><name>PT6404</name></trkpt>
<trkpt lat="53.091137" lon="-1.699192"><ele>178</ele><time>2020-10-28T12:40:41Z</time><name>PT6405</name></trkpt>
<trkpt lat="53.091126" lon="-1.699184"><ele>178</ele><time>2020-10-28T12:40:42Z</time><name>PT6406</name></trkpt>
<trkpt lat="53.091113" lon="-1.699185"><ele>178</ele><time>2020-10-28T12:40:42Z</time><name>PT6407</name></trkpt>
<trkpt lat="53.091095" lon="-1.699183"><ele>179</ele><time>2020-10-28T12:40:44Z</time><name>PT6408</name></trkpt>
<trkpt lat="53.091076" lon="-1.699174"><ele>180</ele><time>2020-10-28T12:40:45Z</time><name>PT6409</name></trkpt>
<trkpt lat="53.091066" lon="-1.699172"><ele>179</ele><time>2020-10-28T12:40:45Z</time><name>PT6410</name></trkpt>
<trkpt lat="53.091055" lon="-1.699176"><ele>178</ele><time>2020-10-28T12:40:47Z</time><name>PT6411</name></trkpt>
<trkpt lat="53.091037" lon="-1.699177"><ele>179</ele><time>2020-10-28T12:40:48Z</time><name>PT6412</name></trkpt>
<trkpt lat="53.091018" lon="-1.699167"><ele>178</ele><time>2020-10-28T12:40:48Z</time><name>PT6413</name></trkpt>
<trkpt lat="53.090995" lon="-1.699156"><ele>179</ele><time>2020-10-28T12:40:50Z</time><name>PT6414</name></trkpt>
<trkpt lat="53.090979" lon="-1.699151"><ele>178</ele><time>2020-10-28T12:40:51Z</time><name>PT6415</name></trkpt>
<trkpt lat="53.090961" lon="-1.699142"><ele>179</ele><time>2020-10-28T12:40:51Z</time><name>PT6416</name></trkpt>
<trkpt lat="53.090940" lon="-1.699135"><ele>180</ele><time>2020-10-28T12:40:53Z</time><name>PT6417</name></trkpt>
<trkpt lat="53.090920" lon="-1.699126"><ele>180</ele><time>2020-10-28T12:40:54Z</time><name>PT6418</name></trkpt>
<trkpt lat="53.090903" lon="-1.699116"><ele>181</ele><time>2020-10-28T12:40:54Z</time><name>PT6419</name></trkpt>
<trkpt lat="53.090890" lon="-1.699110"><ele>182</ele><time>2020-10-28T12:40:56Z</time><name>PT6420</name></trkpt>
<trkpt lat="53.090875" lon="-1.699106"><ele>183</ele><time>2020-10-28T12:40:57Z</time><name>PT6421</name></trkpt>
<trkpt lat="53.090860" lon="-1.699103"><ele>183</ele><time>2020-10-28T12:40:57Z</time><name>PT6422</name></trkpt>
<trkpt lat="53.090842" lon="-1.699093"><ele>183</ele><time>2020-10-28T12:40:59Z</time><name>PT6423</name></trkpt>
<trkpt lat="53.090823" lon="-1.699084"><ele>184</ele><time>2020-10-28T12:41:00Z</time><name>PT6424</name></trkpt>
<trkpt lat="53.090807" lon="-1.699075"><ele>184</ele><time>2020-10-28T12:41:00Z</time><name>PT6425</name></trkpt>
<trkpt lat="53.090790" lon="-1.699069"><ele>184</ele><time>2020-10-28T12:41:02Z</time><name>PT6426</name></trkpt>
<trkpt lat="53.090776" lon="-1.699067"><ele>185</ele><time>2020-10-28T12:41:03Z</time><name>PT6427</name></trkpt>
<trkpt lat="53.090762" lon="-1.699066"><ele>185</ele><time>2020-10-28T12:41:03Z</time><name>PT6428</name></trkpt>
<trkpt lat="53.090750" lon="-1.699063"><ele>185</ele><time>2020-10-28T12:41:05Z</time><name>PT6429</name></trkpt>
<trkpt lat="53.090735" lon="-1.699061"><ele>184</ele><time>2020-10-28T12:41:06Z</time><name>PT6430</name></trkpt>
<trkpt lat="53.090723" lon="-1.699058"><ele>184</ele><time>2020-10-28T12:41:07Z</time><name>PT6431</name></trkpt>
<trkpt lat="53.090707" lon="-1.699048"><ele>186</ele><time>2020-10-28T12:41:08Z</time><name>PT6432</name></trkpt>
<trkpt lat="53.090692" lon="-1.699042"><ele>186</ele><time>2020-10-28T12:41:09Z</time><name>PT6433</name></trkpt>
<trkpt lat="53.090683" lon="-1.699044"><ele>187</ele><time>2020-10-28T12:41:10Z</time><name>PT6434</name></trkpt>
<trkpt lat="53.090671" lon="-1.699043"><ele>187</ele><time>2020-10-28T12:41:11Z</time><name>PT6435</name></trkpt>
<trkpt lat="53.090662" lon="-1.699042"><ele>187</ele><time>2020-10-28T12:41:12Z</time><name>PT6436</name></trkpt>
<trkpt lat="53.090653" lon="-1.699040"><ele>187</ele><time>2020-10-28T12:41:13Z</time><name>PT6437</name></trkpt>
<trkpt lat="53.090641" lon="-1.699041"><ele>187</ele><time>2020-10-28T12:41:14Z</time><name>PT6438</name></trkpt>
<trkpt lat="53.090628" lon="-1.699040"><ele>187</ele><time>2020-10-28T12:41:15Z</time><name>PT6439</name></trkpt>
<trkpt lat="53.090612" lon="-1.699036"><ele>188</ele><time>2020-10-28T12:41:15Z</time><name>PT6440</name></trkpt>
<trkpt lat="53.090605" lon="-1.699034"><ele>187</ele><time>2020-10-28T12:41:17Z</time><name>PT6441</name></trkpt>
<trkpt lat="53.090593" lon="-1.699029"><ele>187</ele><time>2020-10-28T12:41:18Z</time><name>PT6442</name></trkpt>
<trkpt lat="53.090583" lon="-1.699030"><ele>186</ele><time>2020-10-28T12:41:18Z</time><name>PT6443</name></trkpt>
<trkpt lat="53.090571" lon="-1.699029"><ele>186</ele><time>2020-10-28T12:41:20Z</time><name>PT6444</name></trkpt>
<trkpt lat="53.090557" lon="-1.699029"><ele>186</ele><time>2020-10-28T12:41:21Z</time><name>PT6445</name></trkpt>
<trkpt lat="53.090549" lon="-1.699026"><ele>185</ele><time>2020-10-28T12:41:21Z</time><name>PT6446</name></trkpt>
<trkpt lat="53.090539" lon="-1.699024"><ele>184</ele><time>2020-10-28T12:41:23Z</time><name>PT6447</name></trkpt>
<trkpt lat="53.090532" lon="-1.699017"><ele>184</ele><time>2020-10-28T12:41:24Z</time><name>PT6448</name></trkpt>
<trkpt lat="53.090516" lon="-1.699009"><ele>185</ele><time>2020-10-28T12:41:24Z</time><name>PT6449</name></trkpt>
<trkpt lat="53.090502" lon="-1.699005"><ele>185</ele><time>2020-10-28T12:41:26Z</time><name>PT6450</name></trkpt>
<trkpt lat="53.090488" lon="-1.698999"><ele>185</ele><time>2020-10-28T12:41:27Z</time><name>PT6451</name></trkpt>
<trkpt lat="53.090474" lon="-1.698995"><ele>185</ele><time>2020-10-28T12:41:27Z</time><name>PT6452</name></trkpt>
<trkpt lat="53.090414" lon="-1.698989"><ele>184</ele><time>2020-10-28T12:41:32Z</time><name>PT6453</name></trkpt>
<trkpt lat="53.090370" lon="-1.698975"><ele>183</ele><time>2020-10-28T12:41:35Z</time><name>PT6454</name></trkpt>
<trkpt lat="53.090337" lon="-1.698959"><ele>185</ele><time>2020-10-28T12:41:38Z</time><name>PT6455</name></trkpt>
<trkpt lat="53.090304" lon="-1.698932"><ele>188</ele><time>2020-10-28T12:41:42Z</time><name>PT6456</name></trkpt>
<trkpt lat="53.090290" lon="-1.698910"><ele>190</ele><time>2020-10-28T12:41:45Z</time><name>PT6457</name></trkpt>
<trkpt lat="53.090267" lon="-1.698899"><ele>192</ele><time>2020-10-28T12:41:48Z</time><name>PT6458</name></trkpt>
<trkpt lat="53.090259" lon="-1.698887"><ele>193</ele><time>2020-10-28T12:41:53Z</time><name>PT6459</name></trkpt>
<trkpt lat="53.090219" lon="-1.698864"><ele>193</ele><time>2020-10-28T12:41:56Z</time><name>PT6460</name></trkpt>
<trkpt lat="53.090175" lon="-1.698864"><ele>191</ele><time>2020-10-28T12:42:00Z</time><name>PT6461</name></trkpt>
<trkpt lat="53.090123" lon="-1.698835"><ele>190</ele><time>2020-10-28T12:42:03Z</time><name>PT6462</name></trkpt>
<trkpt lat="53.090085" lon="-1.698816"><ele>189</ele><time>2020-10-28T12:42:06Z</time><name>PT6463</name></trkpt>
<trkpt lat="53.090047" lon="-1.698792"><ele>187</ele><time>2020-10-28T12:42:09Z</time><name>PT6464</name></trkpt>
<trkpt lat="53.090015" lon="-1.698790"><ele>186</ele><time>2020-10-28T12:42:12Z</time><name>PT6465</name></trkpt>
<trkpt lat="53.089972" lon="-1.698771"><ele>186</ele><time>2020-10-28T12:42:17Z</time><name>PT6466</name></trkpt>
<trkpt lat="53.089930" lon="-1.698751"><ele>188</ele><time>2020-10-28T12:42:20Z</time><name>PT6467</name></trkpt>
<trkpt lat="53.089879" lon="-1.698719"><ele>188</ele><time>2020-10-28T12:42:24Z</time><name>PT6468</name></trkpt>
<trkpt lat="53.089838" lon="-1.698688"><ele>186</ele><time>2020-10-28T12:42:27Z</time><name>PT6469</name></trkpt>
<trkpt lat="53.089788" lon="-1.698649"><ele>187</ele><time>2020-10-28T12:42:32Z</time><name>PT6470</name></trkpt>
<trkpt lat="53.089750" lon="-1.698606"><ele>188</ele><time>2020-10-28T12:42:36Z</time><name>PT6471</name></trkpt>
<trkpt lat="53.089708" lon="-1.698561"><ele>188</ele><time>2020-10-28T12:42:39Z</time><name>PT6472</name></trkpt>
<trkpt lat="53.089678" lon="-1.698523"><ele>189</ele><time>2020-10-28T12:42:42Z</time><name>PT6473</name></trkpt>
<trkpt lat="53.089636" lon="-1.698467"><ele>190</ele><time>2020-10-28T12:42:47Z</time><name>PT6474</name></trkpt>
<trkpt lat="53.089619" lon="-1.698435"><ele>190</ele><time>2020-10-28T12:42:50Z</time><name>PT6475</name></trkpt>
<trkpt lat="53.089588" lon="-1.698379"><ele>191</ele><time>2020-10-28T12:42:54Z</time><name>PT6476</name></trkpt>
<trkpt lat="53.089566" lon="-1.698346"><ele>190</ele><time>2020-10-28T12:42:57Z</time><name>PT6477</name></trkpt>
<trkpt lat="53.089521" lon="-1.698299"><ele>191</ele><time>2020-10-28T12:43:00Z</time><name>PT6478</name></trkpt>
<trkpt lat="53.089484" lon="-1.698256"><ele>190</ele><time>2020-10-28T12:43:05Z</time><name>PT6479</name></trkpt>
<trkpt lat="53.089452" lon="-1.698223"><ele>189</ele><time>2020-10-28T12:43:08Z</time><name>PT6480</name></trkpt>
<trkpt lat="53.089413" lon="-1.698174"><ele>188</ele><time>2020-10-28T12:43:12Z</time><name>PT6481</name></trkpt>
<trkpt lat="53.089384" lon="-1.698124"><ele>188</ele><time>2020-10-28T12:43:15Z</time><name>PT6482</name></trkpt>
<trkpt lat="53.089353" lon="-1.698075"><ele>188</ele><time>2020-10-28T12:43:18Z</time><name>PT6483</name></trkpt>
<trkpt lat="53.089317" lon="-1.698021"><ele>188</ele><time>2020-10-28T12:43:21Z</time><name>PT6484</name></trkpt>
<trkpt lat="53.089281" lon="-1.697965"><ele>189</ele><time>2020-10-28T12:43:26Z</time><name>PT6485</name></trkpt>
<trkpt lat="53.089241" lon="-1.697905"><ele>190</ele><time>2020-10-28T12:43:30Z</time><name>PT6486</name></trkpt>
<trkpt lat="53.089221" lon="-1.697861"><ele>189</ele><time>2020-10-28T12:43:33Z</time><name>PT6487</name></trkpt>
<trkpt lat="53.089190" lon="-1.697819"><ele>190</ele><time>2020-10-28T12:43:36Z</time><name>PT6488</name></trkpt>
<trkpt lat="53.089153" lon="-1.697766"><ele>189</ele><time>2020-10-28T12:43:40Z</time><name>PT6489</name></trkpt>
<trkpt lat="53.089119" lon="-1.697715"><ele>188</ele><time>2020-10-28T12:43:44Z</time><name>PT6490</name></trkpt>
<trkpt lat="53.089095" lon="-1.697681"><ele>188</ele><time>2020-10-28T12:43:47Z</time><name>PT6491</name></trkpt>
<trkpt lat="53.089049" lon="-1.697621"><ele>188</ele><time>2020-10-28T12:43:51Z</time><name>PT6492</name></trkpt>
<trkpt lat="53.089021" lon="-1.697580"><ele>188</ele><time>2020-10-28T12:43:54Z</time><name>PT6493</name></trkpt>
<trkpt lat="53.088986" lon="-1.697528"><ele>188</ele><time>2020-10-28T12:43:57Z</time><name>PT6494</name></trkpt>
<trkpt lat="53.088970" lon="-1.697513"><ele>186</ele><time>2020-10-28T12:44:01Z</time><name>PT6495</name></trkpt>
<trkpt lat="53.088942" lon="-1.697456"><ele>187</ele><time>2020-10-28T12:44:05Z</time><name>PT6496</name></trkpt>
<trkpt lat="53.088928" lon="-1.697424"><ele>186</ele><time>2020-10-28T12:44:08Z</time><name>PT6497</name></trkpt>
<trkpt lat="53.088917" lon="-1.697376"><ele>189</ele><time>2020-10-28T12:44:12Z</time><name>PT6498</name></trkpt>
<trkpt lat="53.088908" lon="-1.697326"><ele>190</ele><time>2020-10-28T12:44:15Z</time><name>PT6499</name></trkpt>
<trkpt lat="53.088898" lon="-1.697313"><ele>191</ele><time>2020-10-28T12:44:18Z</time><name>PT6500</name></trkpt>
<trkpt lat="53.088876" lon="-1.697313"><ele>190</ele><time>2020-10-28T12:44:21Z</time><name>PT6501</name></trkpt>
<trkpt lat="53.088848" lon="-1.697276"><ele>189</ele><time>2020-10-28T12:44:26Z</time><name>PT6502</name></trkpt>
<trkpt lat="53.088832" lon="-1.697232"><ele>190</ele><time>2020-10-28T12:44:30Z</time><name>PT6503</name></trkpt>
<trkpt lat="53.088820" lon="-1.697203"><ele>193</ele><time>2020-10-28T12:44:33Z</time><name>PT6504</name></trkpt>
<trkpt lat="53.088818" lon="-1.697187"><ele>193</ele><time>2020-10-28T12:44:57Z</time><name>PT6505</name></trkpt>
<trkpt lat="53.088806" lon="-1.697166"><ele>193</ele><time>2020-10-28T12:45:00Z</time><name>PT6506</name></trkpt>
<trkpt lat="53.088798" lon="-1.697148"><ele>193</ele><time>2020-10-28T12:45:05Z</time><name>PT6507</name></trkpt>
<trkpt lat="53.088794" lon="-1.697154"><ele>193</ele><time>2020-10-28T12:45:09Z</time><name>PT6508</name></trkpt>
<trkpt lat="53.088795" lon="-1.697147"><ele>193</ele><time>2020-10-28T12:45:12Z</time><name>PT6509</name></trkpt>
<trkpt lat="53.088791" lon="-1.697136"><ele>194</ele><time>2020-10-28T12:45:15Z</time><name>PT6510</name></trkpt>
<trkpt lat="53.088792" lon="-1.697131"><ele>195</ele><time>2020-10-28T12:45:20Z</time><name>PT6511</name></trkpt>
<trkpt lat="53.088791" lon="-1.697131"><ele>195</ele><time>2020-10-28T12:45:24Z</time><name>PT6512</name></trkpt>
<trkpt lat="53.088792" lon="-1.697135"><ele>195</ele><time>2020-10-28T12:45:27Z</time><name>PT6513</name></trkpt>
<trkpt lat="53.088794" lon="-1.697130"><ele>195</ele><time>2020-10-28T12:45:30Z</time><name>PT6514</name></trkpt>
<trkpt lat="53.088791" lon="-1.697128"><ele>195</ele><time>2020-10-28T12:45:33Z</time><name>PT6515</name></trkpt>
<trkpt lat="53.088764" lon="-1.697046"><ele>194</ele><time>2020-10-28T12:45:38Z</time><name>PT6516</name></trkpt>
<trkpt lat="53.088746" lon="-1.696984"><ele>194</ele><time>2020-10-28T12:45:41Z</time><name>PT6517</name></trkpt>
<trkpt lat="53.088720" lon="-1.696907"><ele>193</ele><time>2020-10-28T12:45:45Z</time><name>PT6518</name></trkpt>
<trkpt lat="53.088700" lon="-1.696860"><ele>193</ele><time>2020-10-28T12:45:48Z</time><name>PT6519</name></trkpt>
<trkpt lat="53.088681" lon="-1.696805"><ele>193</ele><time>2020-10-28T12:45:51Z</time><name>PT6520</name></trkpt>
<trkpt lat="53.088670" lon="-1.696748"><ele>193</ele><time>2020-10-28T12:45:54Z</time><name>PT6521</name></trkpt>
<trkpt lat="53.088655" lon="-1.696682"><ele>194</ele><time>2020-10-28T12:45:57Z</time><name>PT6522</name></trkpt>
<trkpt lat="53.088646" lon="-1.696604"><ele>194</ele><time>2020-10-28T12:46:02Z</time><name>PT6523</name></trkpt>
<trkpt lat="53.088648" lon="-1.696525"><ele>195</ele><time>2020-10-28T12:46:06Z</time><name>PT6524</name></trkpt>
<trkpt lat="53.088653" lon="-1.696452"><ele>195</ele><time>2020-10-28T12:46:09Z</time><name>PT6525</name></trkpt>
<trkpt lat="53.088662" lon="-1.696413"><ele>196</ele><time>2020-10-28T12:46:14Z</time><name>PT6526</name></trkpt>
<trkpt lat="53.088671" lon="-1.696363"><ele>196</ele><time>2020-10-28T12:46:17Z</time><name>PT6527</name></trkpt>
<trkpt lat="53.088679" lon="-1.696311"><ele>196</ele><time>2020-10-28T12:46:20Z</time><name>PT6528</name></trkpt>
<trkpt lat="53.088689" lon="-1.696261"><ele>196</ele><time>2020-10-28T12:46:23Z</time><name>PT6529</name></trkpt>
<trkpt lat="53.088702" lon="-1.696194"><ele>196</ele><time>2020-10-28T12:46:27Z</time><name>PT6530</name></trkpt>
<trkpt lat="53.088702" lon="-1.696148"><ele>196</ele><time>2020-10-28T12:46:30Z</time><name>PT6531</name></trkpt>
<trkpt lat="53.088706" lon="-1.696100"><ele>197</ele><time>2020-10-28T12:46:33Z</time><name>PT6532</name></trkpt>
<trkpt lat="53.088725" lon="-1.696031"><ele>198</ele><time>2020-10-28T12:46:36Z</time><name>PT6533</name></trkpt>
<trkpt lat="53.088737" lon="-1.695971"><ele>199</ele><time>2020-10-28T12:46:39Z</time><name>PT6534</name></trkpt>
<trkpt lat="53.088746" lon="-1.695912"><ele>200</ele><time>2020-10-28T12:46:42Z</time><name>PT6535</name></trkpt>
<trkpt lat="53.088764" lon="-1.695837"><ele>200</ele><time>2020-10-28T12:46:47Z</time><name>PT6536</name></trkpt>
<trkpt lat="53.088783" lon="-1.695780"><ele>200</ele><time>2020-10-28T12:46:50Z</time><name>PT6537</name></trkpt>
<trkpt lat="53.088799" lon="-1.695703"><ele>198</ele><time>2020-10-28T12:46:54Z</time><name>PT6538</name></trkpt>
<trkpt lat="53.088810" lon="-1.695653"><ele>198</ele><time>2020-10-28T12:46:57Z</time><name>PT6539</name></trkpt>
<trkpt lat="53.088827" lon="-1.695580"><ele>198</ele><time>2020-10-28T12:47:00Z</time><name>PT6540</name></trkpt>
<trkpt lat="53.088843" lon="-1.695503"><ele>199</ele><time>2020-10-28T12:47:05Z</time><name>PT6541</name></trkpt>
<trkpt lat="53.088865" lon="-1.695435"><ele>200</ele><time>2020-10-28T12:47:09Z</time><name>PT6542</name></trkpt>
<trkpt lat="53.088891" lon="-1.695348"><ele>205</ele><time>2020-10-28T12:47:12Z</time><name>PT6543</name></trkpt>
<trkpt lat="53.088897" lon="-1.695314"><ele>204</ele><time>2020-10-28T12:47:15Z</time><name>PT6544</name></trkpt>
<trkpt lat="53.088900" lon="-1.695297"><ele>204</ele><time>2020-10-28T12:47:15Z</time><name>PT6545</name></trkpt>
<trkpt lat="53.088905" lon="-1.695281"><ele>204</ele><time>2020-10-28T12:47:17Z</time><name>PT6546</name></trkpt>
<trkpt lat="53.088911" lon="-1.695264"><ele>204</ele><time>2020-10-28T12:47:18Z</time><name>PT6547</name></trkpt>
<trkpt lat="53.088914" lon="-1.695248"><ele>205</ele><time>2020-10-28T12:47:18Z</time><name>PT6548</name></trkpt>
<trkpt lat="53.088917" lon="-1.695231"><ele>205</ele><time>2020-10-28T12:47:20Z</time><name>PT6549</name></trkpt>
<trkpt lat="53.088920" lon="-1.695212"><ele>205</ele><time>2020-10-28T12:47:21Z</time><name>PT6550</name></trkpt>
<trkpt lat="53.088924" lon="-1.695197"><ele>206</ele><time>2020-10-28T12:47:21Z</time><name>PT6551</name></trkpt>
<trkpt lat="53.088928" lon="-1.695180"><ele>206</ele><time>2020-10-28T12:47:23Z</time><name>PT6552</name></trkpt>
<trkpt lat="53.088930" lon="-1.695161"><ele>206</ele><time>2020-10-28T12:47:24Z</time><name>PT6553</name></trkpt>
<trkpt lat="53.088931" lon="-1.695144"><ele>206</ele><time>2020-10-28T12:47:24Z</time><name>PT6554</name></trkpt>
<trkpt lat="53.088934" lon="-1.695126"><ele>206</ele><time>2020-10-28T12:47:26Z</time><name>PT6555</name></trkpt>
<trkpt lat="53.088937" lon="-1.695107"><ele>206</ele><time>2020-10-28T12:47:27Z</time><name>PT6556</name></trkpt>
<trkpt lat="53.088940" lon="-1.695091"><ele>207</ele><time>2020-10-28T12:47:27Z</time><name>PT6557</name></trkpt>
<trkpt lat="53.088941" lon="-1.695073"><ele>207</ele><time>2020-10-28T12:47:29Z</time><name>PT6558</name></trkpt>
<trkpt lat="53.088942" lon="-1.695056"><ele>207</ele><time>2020-10-28T12:47:30Z</time><name>PT6559</name></trkpt>
<trkpt lat="53.088946" lon="-1.695040"><ele>207</ele><time>2020-10-28T12:47:30Z</time><name>PT6560</name></trkpt>
<trkpt lat="53.088951" lon="-1.695026"><ele>207</ele><time>2020-10-28T12:47:32Z</time><name>PT6561</name></trkpt>
<trkpt lat="53.088953" lon="-1.695008"><ele>207</ele><time>2020-10-28T12:47:33Z</time><name>PT6562</name></trkpt>
<trkpt lat="53.088955" lon="-1.694990"><ele>207</ele><time>2020-10-28T12:47:33Z</time><name>PT6563</name></trkpt>
<trkpt lat="53.088957" lon="-1.694973"><ele>207</ele><time>2020-10-28T12:47:35Z</time><name>PT6564</name></trkpt>
<trkpt lat="53.088958" lon="-1.694955"><ele>207</ele><time>2020-10-28T12:47:36Z</time><name>PT6565</name></trkpt>
<trkpt lat="53.088959" lon="-1.694937"><ele>206</ele><time>2020-10-28T12:47:36Z</time><name>PT6566</name></trkpt>
<trkpt lat="53.088958" lon="-1.694917"><ele>206</ele><time>2020-10-28T12:47:38Z</time><name>PT6567</name></trkpt>
<trkpt lat="53.088958" lon="-1.694899"><ele>206</ele><time>2020-10-28T12:47:39Z</time><name>PT6568</name></trkpt>
<trkpt lat="53.088959" lon="-1.694882"><ele>207</ele><time>2020-10-28T12:47:39Z</time><name>PT6569</name></trkpt>
<trkpt lat="53.088958" lon="-1.694864"><ele>207</ele><time>2020-10-28T12:47:41Z</time><name>PT6570</name></trkpt>
<trkpt lat="53.088958" lon="-1.694847"><ele>207</ele><time>2020-10-28T12:47:42Z</time><name>PT6571</name></trkpt>
<trkpt lat="53.088959" lon="-1.694836"><ele>208</ele><time>2020-10-28T12:47:42Z</time><name>PT6572</name></trkpt>
<trkpt lat="53.088960" lon="-1.694823"><ele>207</ele><time>2020-10-28T12:47:44Z</time><name>PT6573</name></trkpt>
<trkpt lat="53.088959" lon="-1.694811"><ele>208</ele><time>2020-10-28T12:47:45Z</time><name>PT6574</name></trkpt>
<trkpt lat="53.088960" lon="-1.694795"><ele>208</ele><time>2020-10-28T12:47:45Z</time><name>PT6575</name></trkpt>
<trkpt lat="53.088962" lon="-1.694777"><ele>208</ele><time>2020-10-28T12:47:47Z</time><name>PT6576</name></trkpt>
<trkpt lat="53.088963" lon="-1.694761"><ele>208</ele><time>2020-10-28T12:47:48Z</time><name>PT6577</name></trkpt>
<trkpt lat="53.088966" lon="-1.694750"><ele>208</ele><time>2020-10-28T12:47:48Z</time><name>PT6578</name></trkpt>
<trkpt lat="53.088967" lon="-1.694737"><ele>208</ele><time>2020-10-28T12:47:50Z</time><name>PT6579</name></trkpt>
<trkpt lat="53.088968" lon="-1.694721"><ele>208</ele><time>2020-10-28T12:47:51Z</time><name>PT6580</name></trkpt>
<trkpt lat="53.088968" lon="-1.694705"><ele>208</ele><time>2020-10-28T12:47:51Z</time><name>PT6581</name></trkpt>
<trkpt lat="53.088969" lon="-1.694686"><ele>209</ele><time>2020-10-28T12:47:53Z</time><name>PT6582</name></trkpt>
<trkpt lat="53.088968" lon="-1.694663"><ele>209</ele><time>2020-10-28T12:47:54Z</time><name>PT6583</name></trkpt>
<trkpt lat="53.088967" lon="-1.694646"><ele>209</ele><time>2020-10-28T12:47:54Z</time><name>PT6584</name></trkpt>
<trkpt lat="53.088968" lon="-1.694641"><ele>209</ele><time>2020-10-28T12:47:56Z</time><name>PT6585</name></trkpt>
<trkpt lat="53.088969" lon="-1.694627"><ele>210</ele><time>2020-10-28T12:47:57Z</time><name>PT6586</name></trkpt>
<trkpt lat="53.088968" lon="-1.694608"><ele>210</ele><time>2020-10-28T12:47:57Z</time><name>PT6587</name></trkpt>
<trkpt lat="53.088968" lon="-1.694590"><ele>210</ele><time>2020-10-28T12:47:59Z</time><name>PT6588</name></trkpt>
<trkpt lat="53.088968" lon="-1.694574"><ele>210</ele><time>2020-10-28T12:48:00Z</time><name>PT6589</name></trkpt>
<trkpt lat="53.088968" lon="-1.694554"><ele>210</ele><time>2020-10-28T12:48:00Z</time><name>PT6590</name></trkpt>
<trkpt lat="53.088968" lon="-1.694533"><ele>210</ele><time>2020-10-28T12:48:02Z</time><name>PT6591</name></trkpt>
<trkpt lat="53.088966" lon="-1.694509"><ele>210</ele><time>2020-10-28T12:48:03Z</time><name>PT6592</name></trkpt>
<trkpt lat="53.088964" lon="-1.694484"><ele>211</ele><time>2020-10-28T12:48:03Z</time><name>PT6593</name></trkpt>
<trkpt lat="53.088965" lon="-1.694464"><ele>211</ele><time>2020-10-28T12:48:05Z</time><name>PT6594</name></trkpt>
<trkpt lat="53.088964" lon="-1.694443"><ele>211</ele><time>2020-10-28T12:48:06Z</time><name>PT6595</name></trkpt>
<trkpt lat="53.088964" lon="-1.694423"><ele>210</ele><time>2020-10-28T12:48:06Z</time><name>PT6596</name></trkpt>
<trkpt lat="53.088962" lon="-1.694407"><ele>210</ele><time>2020-10-28T12:48:08Z</time><name>PT6597</name></trkpt>
<trkpt lat="53.088958" lon="-1.694391"><ele>210</ele><time>2020-10-28T12:48:09Z</time><name>PT6598</name></trkpt>
<trkpt lat="53.088954" lon="-1.694381"><ele>209</ele><time>2020-10-28T12:48:09Z</time><name>PT6599</name></trkpt>
<trkpt lat="53.088952" lon="-1.694366"><ele>208</ele><time>2020-10-28T12:48:11Z</time><name>PT6600</name></trkpt>
<trkpt lat="53.088948" lon="-1.694338"><ele>208</ele><time>2020-10-28T12:48:12Z</time><name>PT6601</name></trkpt>
<trkpt lat="53.088944" lon="-1.694318"><ele>208</ele><time>2020-10-28T12:48:12Z</time><name>PT6602</name></trkpt>
<trkpt lat="53.088940" lon="-1.694310"><ele>208</ele><time>2020-10-28T12:48:14Z</time><name>PT6603</name></trkpt>
<trkpt lat="53.088939" lon="-1.694298"><ele>209</ele><time>2020-10-28T12:48:15Z</time><name>PT6604</name></trkpt>
<trkpt lat="53.088935" lon="-1.694278"><ele>208</ele><time>2020-10-28T12:48:16Z</time><name>PT6605</name></trkpt>
<trkpt lat="53.088933" lon="-1.694253"><ele>208</ele><time>2020-10-28T12:48:17Z</time><name>PT6606</name></trkpt>
<trkpt lat="53.088932" lon="-1.694254"><ele>208</ele><time>2020-10-28T12:48:18Z</time><name>PT6607</name></trkpt>
<trkpt lat="53.088931" lon="-1.694251"><ele>209</ele><time>2020-10-28T12:48:18Z</time><name>PT6608</name></trkpt>
<trkpt lat="53.088934" lon="-1.694231"><ele>208</ele><time>2020-10-28T12:48:20Z</time><name>PT6609</name></trkpt>
<trkpt lat="53.088930" lon="-1.694208"><ele>209</ele><time>2020-10-28T12:48:21Z</time><name>PT6610</name></trkpt>
<trkpt lat="53.088925" lon="-1.694197"><ele>210</ele><time>2020-10-28T12:48:22Z</time><name>PT6611</name></trkpt>
<trkpt lat="53.088925" lon="-1.694186"><ele>210</ele><time>2020-10-28T12:48:23Z</time><name>PT6612</name></trkpt>
<trkpt lat="53.088920" lon="-1.694154"><ele>211</ele><time>2020-10-28T12:48:24Z</time><name>PT6613</name></trkpt>
<trkpt lat="53.088912" lon="-1.694133"><ele>212</ele><time>2020-10-28T12:48:25Z</time><name>PT6614</name></trkpt>
<trkpt lat="53.088908" lon="-1.694130"><ele>212</ele><time>2020-10-28T12:48:26Z</time><name>PT6615</name></trkpt>
<trkpt lat="53.088907" lon="-1.694123"><ele>212</ele><time>2020-10-28T12:48:27Z</time><name>PT6616</name></trkpt>
<trkpt lat="53.088903" lon="-1.694104"><ele>212</ele><time>2020-10-28T12:48:27Z</time><name>PT6617</name></trkpt>
<trkpt lat="53.088898" lon="-1.694082"><ele>212</ele><time>2020-10-28T12:48:29Z</time><name>PT6618</name></trkpt>
<trkpt lat="53.088892" lon="-1.694065"><ele>213</ele><time>2020-10-28T12:48:30Z</time><name>PT6619</name></trkpt>
<trkpt lat="53.088887" lon="-1.694049"><ele>213</ele><time>2020-10-28T12:48:30Z</time><name>PT6620</name></trkpt>
<trkpt lat="53.088885" lon="-1.694034"><ele>212</ele><time>2020-10-28T12:48:32Z</time><name>PT6621</name></trkpt>
<trkpt lat="53.088879" lon="-1.694017"><ele>212</ele><time>2020-10-28T12:48:33Z</time><name>PT6622</name></trkpt>
<trkpt lat="53.088876" lon="-1.694005"><ele>212</ele><time>2020-10-28T12:48:33Z</time><name>PT6623</name></trkpt>
<trkpt lat="53.088875" lon="-1.694004"><ele>212</ele><time>2020-10-28T12:48:35Z</time><name>PT6624</name></trkpt>
<trkpt lat="53.088874" lon="-1.693997"><ele>212</ele><time>2020-10-28T12:48:36Z</time><name>PT6625</name></trkpt>
<trkpt lat="53.088864" lon="-1.693975"><ele>212</ele><time>2020-10-28T12:48:36Z</time><name>PT6626</name></trkpt>
<trkpt lat="53.088852" lon="-1.693948"><ele>214</ele><time>2020-10-28T12:48:38Z</time><name>PT6627</name></trkpt>
<trkpt lat="53.088845" lon="-1.693933"><ele>214</ele><time>2020-10-28T12:48:39Z</time><name>PT6628</name></trkpt>
<trkpt lat="53.088839" lon="-1.693929"><ele>213</ele><time>2020-10-28T12:48:39Z</time><name>PT6629</name></trkpt>
<trkpt lat="53.088830" lon="-1.693908"><ele>214</ele><time>2020-10-28T12:48:41Z</time><name>PT6630</name></trkpt>
<trkpt lat="53.088820" lon="-1.693888"><ele>215</ele><time>2020-10-28T12:48:42Z</time><name>PT6631</name></trkpt>
<trkpt lat="53.088814" lon="-1.693878"><ele>215</ele><time>2020-10-28T12:48:42Z</time><name>PT6632</name></trkpt>
<trkpt lat="53.088812" lon="-1.693877"><ele>214</ele><time>2020-10-28T12:48:44Z</time><name>PT6633</name></trkpt>
<trkpt lat="53.088808" lon="-1.693871"><ele>215</ele><time>2020-10-28T12:48:45Z</time><name>PT6634</name></trkpt>
<trkpt lat="53.088795" lon="-1.693853"><ele>215</ele><time>2020-10-28T12:48:45Z</time><name>PT6635</name></trkpt>
<trkpt lat="53.088783" lon="-1.693835"><ele>215</ele><time>2020-10-28T12:48:47Z</time><name>PT6636</name></trkpt>
<trkpt lat="53.088776" lon="-1.693831"><ele>215</ele><time>2020-10-28T12:48:48Z</time><name>PT6637</name></trkpt>
<trkpt lat="53.088771" lon="-1.693829"><ele>215</ele><time>2020-10-28T12:48:48Z</time><name>PT6638</name></trkpt>
<trkpt lat="53.088761" lon="-1.693816"><ele>216</ele><time>2020-10-28T12:48:50Z</time><name>PT6639</name></trkpt>
<trkpt lat="53.088755" lon="-1.693806"><ele>215</ele><time>2020-10-28T12:48:51Z</time><name>PT6640</name></trkpt>
<trkpt lat="53.088742" lon="-1.693797"><ele>215</ele><time>2020-10-28T12:48:51Z</time><name>PT6641</name></trkpt>
<trkpt lat="53.088732" lon="-1.693784"><ele>214</ele><time>2020-10-28T12:48:53Z</time><name>PT6642</name></trkpt>
<trkpt lat="53.088728" lon="-1.693782"><ele>214</ele><time>2020-10-28T12:48:54Z</time><name>PT6643</name></trkpt>
<trkpt lat="53.088723" lon="-1.693776"><ele>215</ele><time>2020-10-28T12:48:54Z</time><name>PT6644</name></trkpt>
<trkpt lat="53.088707" lon="-1.693762"><ele>214</ele><time>2020-10-28T12:48:56Z</time><name>PT6645</name></trkpt>
<trkpt lat="53.088691" lon="-1.693745"><ele>215</ele><time>2020-10-28T12:48:57Z</time><name>PT6646</name></trkpt>
<trkpt lat="53.088680" lon="-1.693732"><ele>215</ele><time>2020-10-28T12:48:57Z</time><name>PT6647</name></trkpt>
<trkpt lat="53.088675" lon="-1.693727"><ele>215</ele><time>2020-10-28T12:48:59Z</time><name>PT6648</name></trkpt>
<trkpt lat="53.088671" lon="-1.693724"><ele>215</ele><time>2020-10-28T12:49:00Z</time><name>PT6649</name></trkpt>
<trkpt lat="53.088660" lon="-1.693709"><ele>215</ele><time>2020-10-28T12:49:00Z</time><name>PT6650</name></trkpt>
<trkpt lat="53.088643" lon="-1.693692"><ele>215</ele><time>2020-10-28T12:49:02Z</time><name>PT6651</name></trkpt>
<trkpt lat="53.088632" lon="-1.693682"><ele>216</ele><time>2020-10-28T12:49:03Z</time><name>PT6652</name></trkpt>
<trkpt lat="53.088626" lon="-1.693677"><ele>216</ele><time>2020-10-28T12:49:03Z</time><name>PT6653</name></trkpt>
<trkpt lat="53.088621" lon="-1.693670"><ele>216</ele><time>2020-10-28T12:49:05Z</time><name>PT6654</name></trkpt>
<trkpt lat="53.088608" lon="-1.693655"><ele>217</ele><time>2020-10-28T12:49:06Z</time><name>PT6655</name></trkpt>
<trkpt lat="53.088592" lon="-1.693636"><ele>217</ele><time>2020-10-28T12:49:06Z</time><name>PT6656</name></trkpt>
<trkpt lat="53.088584" lon="-1.693629"><ele>216</ele><time>2020-10-28T12:49:08Z</time><name>PT6657</name></trkpt>
<trkpt lat="53.088581" lon="-1.693627"><ele>217</ele><time>2020-10-28T12:49:09Z</time><name>PT6658</name></trkpt>
<trkpt lat="53.088576" lon="-1.693618"><ele>217</ele><time>2020-10-28T12:49:09Z</time><name>PT6659</name></trkpt>
<trkpt lat="53.088562" lon="-1.693600"><ele>217</ele><time>2020-10-28T12:49:11Z</time><name>PT6660</name></trkpt>
<trkpt lat="53.088551" lon="-1.693585"><ele>218</ele><time>2020-10-28T12:49:12Z</time><name>PT6661</name></trkpt>
<trkpt lat="53.088542" lon="-1.693575"><ele>218</ele><time>2020-10-28T12:49:13Z</time><name>PT6662</name></trkpt>
<trkpt lat="53.088534" lon="-1.693569"><ele>218</ele><time>2020-10-28T12:49:14Z</time><name>PT6663</name></trkpt>
<trkpt lat="53.088524" lon="-1.693556"><ele>218</ele><time>2020-10-28T12:49:15Z</time><name>PT6664</name></trkpt>
<trkpt lat="53.088518" lon="-1.693547"><ele>218</ele><time>2020-10-28T12:49:15Z</time><name>PT6665</name></trkpt>
<trkpt lat="53.088510" lon="-1.693538"><ele>218</ele><time>2020-10-28T12:49:17Z</time><name>PT6666</name></trkpt>
<trkpt lat="53.088500" lon="-1.693530"><ele>218</ele><time>2020-10-28T12:49:18Z</time><name>PT6667</name></trkpt>
<trkpt lat="53.088493" lon="-1.693524"><ele>218</ele><time>2020-10-28T12:49:18Z</time><name>PT6668</name></trkpt>
<trkpt lat="53.088487" lon="-1.693513"><ele>218</ele><time>2020-10-28T12:49:20Z</time><name>PT6669</name></trkpt>
<trkpt lat="53.088480" lon="-1.693505"><ele>218</ele><time>2020-10-28T12:49:21Z</time><name>PT6670</name></trkpt>
<trkpt lat="53.088473" lon="-1.693495"><ele>218</ele><time>2020-10-28T12:49:21Z</time><name>PT6671</name></trkpt>
<trkpt lat="53.088464" lon="-1.693487"><ele>218</ele><time>2020-10-28T12:49:23Z</time><name>PT6672</name></trkpt>
<trkpt lat="53.088457" lon="-1.693484"><ele>218</ele><time>2020-10-28T12:49:24Z</time><name>PT6673</name></trkpt>
<trkpt lat="53.088449" lon="-1.693474"><ele>218</ele><time>2020-10-28T12:49:24Z</time><name>PT6674</name></trkpt>
<trkpt lat="53.088444" lon="-1.693461"><ele>218</ele><time>2020-10-28T12:49:26Z</time><name>PT6675</name></trkpt>
<trkpt lat="53.088437" lon="-1.693443"><ele>218</ele><time>2020-10-28T12:49:27Z</time><name>PT6676</name></trkpt>
<trkpt lat="53.088429" lon="-1.693430"><ele>218</ele><time>2020-10-28T12:49:28Z</time><name>PT6677</name></trkpt>
<trkpt lat="53.088422" lon="-1.693419"><ele>218</ele><time>2020-10-28T12:49:29Z</time><name>PT6678</name></trkpt>
<trkpt lat="53.088417" lon="-1.693410"><ele>218</ele><time>2020-10-28T12:49:30Z</time><name>PT6679</name></trkpt>
<trkpt lat="53.088411" lon="-1.693398"><ele>218</ele><time>2020-10-28T12:49:30Z</time><name>PT6680</name></trkpt>
<trkpt lat="53.088405" lon="-1.693386"><ele>218</ele><time>2020-10-28T12:49:32Z</time><name>PT6681</name></trkpt>
<trkpt lat="53.088397" lon="-1.693370"><ele>219</ele><time>2020-10-28T12:49:33Z</time><name>PT6682</name></trkpt>
<trkpt lat="53.088389" lon="-1.693354"><ele>219</ele><time>2020-10-28T12:49:34Z</time><name>PT6683</name></trkpt>
<trkpt lat="53.088382" lon="-1.693342"><ele>219</ele><time>2020-10-28T12:49:35Z</time><name>PT6684</name></trkpt>
<trkpt lat="53.088376" lon="-1.693332"><ele>220</ele><time>2020-10-28T12:49:36Z</time><name>PT6685</name></trkpt>
<trkpt lat="53.088369" lon="-1.693317"><ele>220</ele><time>2020-10-28T12:49:37Z</time><name>PT6686</name></trkpt>
<trkpt lat="53.088363" lon="-1.693305"><ele>220</ele><time>2020-10-28T12:49:38Z</time><name>PT6687</name></trkpt>
<trkpt lat="53.088357" lon="-1.693293"><ele>220</ele><time>2020-10-28T12:49:39Z</time><name>PT6688</name></trkpt>
<trkpt lat="53.088351" lon="-1.693282"><ele>221</ele><time>2020-10-28T12:49:40Z</time><name>PT6689</name></trkpt>
<trkpt lat="53.088345" lon="-1.693268"><ele>221</ele><time>2020-10-28T12:49:41Z</time><name>PT6690</name></trkpt>
<trkpt lat="53.088339" lon="-1.693253"><ele>221</ele><time>2020-10-28T12:49:42Z</time><name>PT6691</name></trkpt>
<trkpt lat="53.088333" lon="-1.693239"><ele>221</ele><time>2020-10-28T12:49:43Z</time><name>PT6692</name></trkpt>
<trkpt lat="53.088326" lon="-1.693225"><ele>221</ele><time>2020-10-28T12:49:44Z</time><name>PT6693</name></trkpt>
<trkpt lat="53.088320" lon="-1.693212"><ele>222</ele><time>2020-10-28T12:49:45Z</time><name>PT6694</name></trkpt>
<trkpt lat="53.088314" lon="-1.693199"><ele>222</ele><time>2020-10-28T12:49:45Z</time><name>PT6695</name></trkpt>
<trkpt lat="53.088309" lon="-1.693185"><ele>222</ele><time>2020-10-28T12:49:47Z</time><name>PT6696</name></trkpt>
<trkpt lat="53.088304" lon="-1.693171"><ele>222</ele><time>2020-10-28T12:49:48Z</time><name>PT6697</name></trkpt>
<trkpt lat="53.088298" lon="-1.693160"><ele>221</ele><time>2020-10-28T12:49:48Z</time><name>PT6698</name></trkpt>
<trkpt lat="53.088291" lon="-1.693147"><ele>221</ele><time>2020-10-28T12:49:50Z</time><name>PT6699</name></trkpt>
<trkpt lat="53.088287" lon="-1.693136"><ele>221</ele><time>2020-10-28T12:49:51Z</time><name>PT6700</name></trkpt>
<trkpt lat="53.088281" lon="-1.693121"><ele>222</ele><time>2020-10-28T12:49:51Z</time><name>PT6701</name></trkpt>
<trkpt lat="53.088276" lon="-1.693113"><ele>222</ele><time>2020-10-28T12:49:53Z</time><name>PT6702</name></trkpt>
<trkpt lat="53.088271" lon="-1.693100"><ele>222</ele><time>2020-10-28T12:49:54Z</time><name>PT6703</name></trkpt>
<trkpt lat="53.088265" lon="-1.693088"><ele>222</ele><time>2020-10-28T12:49:54Z</time><name>PT6704</name></trkpt>
<trkpt lat="53.088262" lon="-1.693076"><ele>222</ele><time>2020-10-28T12:49:56Z</time><name>PT6705</name></trkpt>
<trkpt lat="53.088259" lon="-1.693067"><ele>222</ele><time>2020-10-28T12:49:57Z</time><name>PT6706</name></trkpt>
<trkpt lat="53.088254" lon="-1.693054"><ele>222</ele><time>2020-10-28T12:49:57Z</time><name>PT6707</name></trkpt>
<trkpt lat="53.088248" lon="-1.693042"><ele>223</ele><time>2020-10-28T12:49:59Z</time><name>PT6708</name></trkpt>
<trkpt lat="53.088241" lon="-1.693032"><ele>223</ele><time>2020-10-28T12:50:00Z</time><name>PT6709</name></trkpt>
<trkpt lat="53.088238" lon="-1.693016"><ele>223</ele><time>2020-10-28T12:50:00Z</time><name>PT6710</name></trkpt>
<trkpt lat="53.088233" lon="-1.693000"><ele>223</ele><time>2020-10-28T12:50:02Z</time><name>PT6711</name></trkpt>
<trkpt lat="53.088229" lon="-1.692985"><ele>223</ele><time>2020-10-28T12:50:03Z</time><name>PT6712</name></trkpt>
<trkpt lat="53.088224" lon="-1.692973"><ele>224</ele><time>2020-10-28T12:50:03Z</time><name>PT6713</name></trkpt>
<trkpt lat="53.088218" lon="-1.692960"><ele>224</ele><time>2020-10-28T12:50:05Z</time><name>PT6714</name></trkpt>
<trkpt lat="53.088210" lon="-1.692946"><ele>224</ele><time>2020-10-28T12:50:06Z</time><name>PT6715</name></trkpt>
<trkpt lat="53.088205" lon="-1.692934"><ele>224</ele><time>2020-10-28T12:50:06Z</time><name>PT6716</name></trkpt>
<trkpt lat="53.088198" lon="-1.692921"><ele>225</ele><time>2020-10-28T12:50:08Z</time><name>PT6717</name></trkpt>
<trkpt lat="53.088192" lon="-1.692907"><ele>225</ele><time>2020-10-28T12:50:09Z</time><name>PT6718</name></trkpt>
<trkpt lat="53.088186" lon="-1.692894"><ele>225</ele><time>2020-10-28T12:50:09Z</time><name>PT6719</name></trkpt>
<trkpt lat="53.088180" lon="-1.692877"><ele>225</ele><time>2020-10-28T12:50:11Z</time><name>PT6720</name></trkpt>
<trkpt lat="53.088173" lon="-1.692866"><ele>225</ele><time>2020-10-28T12:50:12Z</time><name>PT6721</name></trkpt>
<trkpt lat="53.088167" lon="-1.692853"><ele>225</ele><time>2020-10-28T12:50:12Z</time><name>PT6722</name></trkpt>
<trkpt lat="53.088160" lon="-1.692839"><ele>225</ele><time>2020-10-28T12:50:14Z</time><name>PT6723</name></trkpt>
<trkpt lat="53.088131" lon="-1.692793"><ele>226</ele><time>2020-10-28T12:50:18Z</time><name>PT6724</name></trkpt>
<trkpt lat="53.088105" lon="-1.692735"><ele>227</ele><time>2020-10-28T12:50:21Z</time><name>PT6725</name></trkpt>
<trkpt lat="53.088083" lon="-1.692702"><ele>227</ele><time>2020-10-28T12:50:24Z</time><name>PT6726</name></trkpt>
<trkpt lat="53.088051" lon="-1.692645"><ele>228</ele><time>2020-10-28T12:50:29Z</time><name>PT6727</name></trkpt>
<trkpt lat="53.088028" lon="-1.692609"><ele>228</ele><time>2020-10-28T12:50:32Z</time><name>PT6728</name></trkpt>
<trkpt lat="53.088000" lon="-1.692566"><ele>228</ele><time>2020-10-28T12:50:36Z</time><name>PT6729</name></trkpt>
<trkpt lat="53.087974" lon="-1.692520"><ele>229</ele><time>2020-10-28T12:50:40Z</time><name>PT6730</name></trkpt>
<trkpt lat="53.087954" lon="-1.692487"><ele>228</ele><time>2020-10-28T12:50:43Z</time><name>PT6731</name></trkpt>
<trkpt lat="53.087937" lon="-1.692450"><ele>228</ele><time>2020-10-28T12:50:46Z</time><name>PT6732</name></trkpt>
<trkpt lat="53.087911" lon="-1.692402"><ele>229</ele><time>2020-10-28T12:50:50Z</time><name>PT6733</name></trkpt>
<trkpt lat="53.087893" lon="-1.692362"><ele>229</ele><time>2020-10-28T12:50:53Z</time><name>PT6734</name></trkpt>
<trkpt lat="53.087870" lon="-1.692325"><ele>230</ele><time>2020-10-28T12:50:56Z</time><name>PT6735</name></trkpt>
<trkpt lat="53.087848" lon="-1.692259"><ele>231</ele><time>2020-10-28T12:51:00Z</time><name>PT6736</name></trkpt>
<trkpt lat="53.087827" lon="-1.692215"><ele>232</ele><time>2020-10-28T12:51:03Z</time><name>PT6737</name></trkpt>
<trkpt lat="53.087809" lon="-1.692179"><ele>233</ele><time>2020-10-28T12:51:06Z</time><name>PT6738</name></trkpt>
<trkpt lat="53.087783" lon="-1.692124"><ele>234</ele><time>2020-10-28T12:51:09Z</time><name>PT6739</name></trkpt>
<trkpt lat="53.087761" lon="-1.692087"><ele>234</ele><time>2020-10-28T12:51:12Z</time><name>PT6740</name></trkpt>
<trkpt lat="53.087724" lon="-1.692037"><ele>234</ele><time>2020-10-28T12:51:17Z</time><name>PT6741</name></trkpt>
<trkpt lat="53.087700" lon="-1.691995"><ele>236</ele><time>2020-10-28T12:51:20Z</time><name>PT6742</name></trkpt>
<trkpt lat="53.087673" lon="-1.691962"><ele>236</ele><time>2020-10-28T12:51:23Z</time><name>PT6743</name></trkpt>
<trkpt lat="53.087662" lon="-1.691952"><ele>236</ele><time>2020-10-28T12:51:24Z</time><name>PT6744</name></trkpt>
<trkpt lat="53.087655" lon="-1.691942"><ele>236</ele><time>2020-10-28T12:51:24Z</time><name>PT6745</name></trkpt>
<trkpt lat="53.087647" lon="-1.691932"><ele>237</ele><time>2020-10-28T12:51:26Z</time><name>PT6746</name></trkpt>
<trkpt lat="53.087637" lon="-1.691922"><ele>237</ele><time>2020-10-28T12:51:27Z</time><name>PT6747</name></trkpt>
<trkpt lat="53.087630" lon="-1.691913"><ele>238</ele><time>2020-10-28T12:51:27Z</time><name>PT6748</name></trkpt>
<trkpt lat="53.087620" lon="-1.691904"><ele>238</ele><time>2020-10-28T12:51:29Z</time><name>PT6749</name></trkpt>
<trkpt lat="53.087611" lon="-1.691893"><ele>238</ele><time>2020-10-28T12:51:30Z</time><name>PT6750</name></trkpt>
<trkpt lat="53.087599" lon="-1.691878"><ele>238</ele><time>2020-10-28T12:51:30Z</time><name>PT6751</name></trkpt>
<trkpt lat="53.087590" lon="-1.691866"><ele>238</ele><time>2020-10-28T12:51:32Z</time><name>PT6752</name></trkpt>
<trkpt lat="53.087582" lon="-1.691855"><ele>238</ele><time>2020-10-28T12:51:32Z</time><name>PT6753</name></trkpt>
<trkpt lat="53.087573" lon="-1.691842"><ele>238</ele><time>2020-10-28T12:51:34Z</time><name>PT6754</name></trkpt>
<trkpt lat="53.087566" lon="-1.691830"><ele>239</ele><time>2020-10-28T12:51:35Z</time><name>PT6755</name></trkpt>
<trkpt lat="53.087559" lon="-1.691817"><ele>239</ele><time>2020-10-28T12:51:35Z</time><name>PT6756</name></trkpt>
<trkpt lat="53.087553" lon="-1.691805"><ele>239</ele><time>2020-10-28T12:51:37Z</time><name>PT6757</name></trkpt>
<trkpt lat="53.087548" lon="-1.691790"><ele>239</ele><time>2020-10-28T12:51:38Z</time><name>PT6758</name></trkpt>
<trkpt lat="53.087545" lon="-1.691776"><ele>239</ele><time>2020-10-28T12:51:38Z</time><name>PT6759</name></trkpt>
<trkpt lat="53.087542" lon="-1.691760"><ele>239</ele><time>2020-10-28T12:51:40Z</time><name>PT6760</name></trkpt>
<trkpt lat="53.087539" lon="-1.691741"><ele>239</ele><time>2020-10-28T12:51:41Z</time><name>PT6761</name></trkpt>
<trkpt lat="53.087538" lon="-1.691725"><ele>240</ele><time>2020-10-28T12:51:41Z</time><name>PT6762</name></trkpt>
<trkpt lat="53.087539" lon="-1.691709"><ele>240</ele><time>2020-10-28T12:51:43Z</time><name>PT6763</name></trkpt>
<trkpt lat="53.087542" lon="-1.691696"><ele>240</ele><time>2020-10-28T12:51:44Z</time><name>PT6764</name></trkpt>
<trkpt lat="53.087543" lon="-1.691687"><ele>240</ele><time>2020-10-28T12:51:44Z</time><name>PT6765</name></trkpt>
<trkpt lat="53.087543" lon="-1.691682"><ele>240</ele><time>2020-10-28T12:51:46Z</time><name>PT6766</name></trkpt>
<trkpt lat="53.087542" lon="-1.691681"><ele>240</ele><time>2020-10-28T12:51:47Z</time><name>PT6767</name></trkpt>
<trkpt lat="53.087537" lon="-1.691681"><ele>240</ele><time>2020-10-28T12:51:47Z</time><name>PT6768</name></trkpt>
<trkpt lat="53.087529" lon="-1.691684"><ele>240</ele><time>2020-10-28T12:51:49Z</time><name>PT6769</name></trkpt>
<trkpt lat="53.087521" lon="-1.691684"><ele>240</ele><time>2020-10-28T12:51:50Z</time><name>PT6770</name></trkpt>
<trkpt lat="53.087510" lon="-1.691683"><ele>240</ele><time>2020-10-28T12:51:50Z</time><name>PT6771</name></trkpt>
<trkpt lat="53.087499" lon="-1.691681"><ele>240</ele><time>2020-10-28T12:51:52Z</time><name>PT6772</name></trkpt>
<trkpt lat="53.087490" lon="-1.691679"><ele>240</ele><time>2020-10-28T12:51:53Z</time><name>PT6773</name></trkpt>
<trkpt lat="53.087484" lon="-1.691670"><ele>240</ele><time>2020-10-28T12:51:53Z</time><name>PT6774</name></trkpt>
<trkpt lat="53.087479" lon="-1.691666"><ele>240</ele><time>2020-10-28T12:51:55Z</time><name>PT6775</name></trkpt>
<trkpt lat="53.087470" lon="-1.691655"><ele>240</ele><time>2020-10-28T12:51:56Z</time><name>PT6776</name></trkpt>
<trkpt lat="53.087466" lon="-1.691646"><ele>240</ele><time>2020-10-28T12:51:56Z</time><name>PT6777</name></trkpt>
<trkpt lat="53.087462" lon="-1.691638"><ele>240</ele><time>2020-10-28T12:51:58Z</time><name>PT6778</name></trkpt>
<trkpt lat="53.087448" lon="-1.691619"><ele>240</ele><time>2020-10-28T12:51:59Z</time><name>PT6779</name></trkpt>
<trkpt lat="53.087436" lon="-1.691602"><ele>240</ele><time>2020-10-28T12:51:59Z</time><name>PT6780</name></trkpt>
<trkpt lat="53.087433" lon="-1.691591"><ele>240</ele><time>2020-10-28T12:52:01Z</time><name>PT6781</name></trkpt>
<trkpt lat="53.087429" lon="-1.691584"><ele>240</ele><time>2020-10-28T12:52:02Z</time><name>PT6782</name></trkpt>
<trkpt lat="53.087426" lon="-1.691582"><ele>240</ele><time>2020-10-28T12:52:02Z</time><name>PT6783</name></trkpt>
<trkpt lat="53.087426" lon="-1.691575"><ele>240</ele><time>2020-10-28T12:52:04Z</time><name>PT6784</name></trkpt>
<trkpt lat="53.087424" lon="-1.691560"><ele>240</ele><time>2020-10-28T12:52:05Z</time><name>PT6785</name></trkpt>
<trkpt lat="53.087417" lon="-1.691541"><ele>241</ele><time>2020-10-28T12:52:05Z</time><name>PT6786</name></trkpt>
<trkpt lat="53.087408" lon="-1.691526"><ele>241</ele><time>2020-10-28T12:52:07Z</time><name>PT6787</name></trkpt>
<trkpt lat="53.087404" lon="-1.691520"><ele>240</ele><time>2020-10-28T12:52:08Z</time><name>PT6788</name></trkpt>
<trkpt lat="53.087398" lon="-1.691511"><ele>240</ele><time>2020-10-28T12:52:08Z</time><name>PT6789</name></trkpt>
<trkpt lat="53.087388" lon="-1.691495"><ele>241</ele><time>2020-10-28T12:52:10Z</time><name>PT6790</name></trkpt>
<trkpt lat="53.087365" lon="-1.691472"><ele>242</ele><time>2020-10-28T12:52:11Z</time><name>PT6791</name></trkpt>
<trkpt lat="53.087348" lon="-1.691454"><ele>242</ele><time>2020-10-28T12:52:11Z</time><name>PT6792</name></trkpt>
<trkpt lat="53.087340" lon="-1.691443"><ele>243</ele><time>2020-10-28T12:52:13Z</time><name>PT6793</name></trkpt>
<trkpt lat="53.087334" lon="-1.691428"><ele>243</ele><time>2020-10-28T12:52:14Z</time><name>PT6794</name></trkpt>
<trkpt lat="53.087332" lon="-1.691418"><ele>243</ele><time>2020-10-28T12:52:14Z</time><name>PT6795</name></trkpt>
<trkpt lat="53.087326" lon="-1.691407"><ele>243</ele><time>2020-10-28T12:52:16Z</time><name>PT6796</name></trkpt>
<trkpt lat="53.087321" lon="-1.691397"><ele>243</ele><time>2020-10-28T12:52:17Z</time><name>PT6797</name></trkpt>
<trkpt lat="53.087318" lon="-1.691388"><ele>243</ele><time>2020-10-28T12:52:17Z</time><name>PT6798</name></trkpt>
<trkpt lat="53.087318" lon="-1.691398"><ele>243</ele><time>2020-10-28T12:52:19Z</time><name>PT6799</name></trkpt>
<trkpt lat="53.087313" lon="-1.691407"><ele>242</ele><time>2020-10-28T12:52:20Z</time><name>PT6800</name></trkpt>
<trkpt lat="53.087311" lon="-1.691413"><ele>242</ele><time>2020-10-28T12:52:20Z</time><name>PT6801</name></trkpt>
<trkpt lat="53.087312" lon="-1.691412"><ele>242</ele><time>2020-10-28T12:52:22Z</time><name>PT6802</name></trkpt>
<trkpt lat="53.087315" lon="-1.691393"><ele>242</ele><time>2020-10-28T12:52:23Z</time><name>PT6803</name></trkpt>
<trkpt lat="53.087317" lon="-1.691374"><ele>242</ele><time>2020-10-28T12:52:24Z</time><name>PT6804</name></trkpt>
<trkpt lat="53.087315" lon="-1.691359"><ele>242</ele><time>2020-10-28T12:52:25Z</time><name>PT6805</name></trkpt>
<trkpt lat="53.087305" lon="-1.691348"><ele>243</ele><time>2020-10-28T12:52:26Z</time><name>PT6806</name></trkpt>
<trkpt lat="53.087296" lon="-1.691338"><ele>243</ele><time>2020-10-28T12:52:27Z</time><name>PT6807</name></trkpt>
<trkpt lat="53.087291" lon="-1.691327"><ele>243</ele><time>2020-10-28T12:52:28Z</time><name>PT6808</name></trkpt>
<trkpt lat="53.087287" lon="-1.691315"><ele>243</ele><time>2020-10-28T12:52:29Z</time><name>PT6809</name></trkpt>
<trkpt lat="53.087283" lon="-1.691305"><ele>243</ele><time>2020-10-28T12:52:29Z</time><name>PT6810</name></trkpt>
<trkpt lat="53.087276" lon="-1.691295"><ele>243</ele><time>2020-10-28T12:52:31Z</time><name>PT6811</name></trkpt>
<trkpt lat="53.087269" lon="-1.691284"><ele>243</ele><time>2020-10-28T12:52:32Z</time><name>PT6812</name></trkpt>
<trkpt lat="53.087261" lon="-1.691271"><ele>243</ele><time>2020-10-28T12:52:32Z</time><name>PT6813</name></trkpt>
<trkpt lat="53.087255" lon="-1.691258"><ele>243</ele><time>2020-10-28T12:52:34Z</time><name>PT6814</name></trkpt>
<trkpt lat="53.087251" lon="-1.691245"><ele>243</ele><time>2020-10-28T12:52:35Z</time><name>PT6815</name></trkpt>
<trkpt lat="53.087244" lon="-1.691233"><ele>243</ele><time>2020-10-28T12:52:35Z</time><name>PT6816</name></trkpt>
<trkpt lat="53.087236" lon="-1.691223"><ele>243</ele><time>2020-10-28T12:52:37Z</time><name>PT6817</name></trkpt>
<trkpt lat="53.087229" lon="-1.691213"><ele>243</ele><time>2020-10-28T12:52:38Z</time><name>PT6818</name></trkpt>
<trkpt lat="53.087227" lon="-1.691205"><ele>243</ele><time>2020-10-28T12:52:38Z</time><name>PT6819</name></trkpt>
<trkpt lat="53.087221" lon="-1.691199"><ele>243</ele><time>2020-10-28T12:52:40Z</time><name>PT6820</name></trkpt>
<trkpt lat="53.087214" lon="-1.691190"><ele>243</ele><time>2020-10-28T12:52:41Z</time><name>PT6821</name></trkpt>
<trkpt lat="53.087206" lon="-1.691178"><ele>243</ele><time>2020-10-28T12:52:41Z</time><name>PT6822</name></trkpt>
<trkpt lat="53.087197" lon="-1.691164"><ele>243</ele><time>2020-10-28T12:52:43Z</time><name>PT6823</name></trkpt>
<trkpt lat="53.087189" lon="-1.691150"><ele>243</ele><time>2020-10-28T12:52:44Z</time><name>PT6824</name></trkpt>
<trkpt lat="53.087182" lon="-1.691137"><ele>244</ele><time>2020-10-28T12:52:44Z</time><name>PT6825</name></trkpt>
<trkpt lat="53.087176" lon="-1.691128"><ele>244</ele><time>2020-10-28T12:52:46Z</time><name>PT6826</name></trkpt>
<trkpt lat="53.087169" lon="-1.691119"><ele>244</ele><time>2020-10-28T12:52:47Z</time><name>PT6827</name></trkpt>
<trkpt lat="53.087161" lon="-1.691106"><ele>244</ele><time>2020-10-28T12:52:47Z</time><name>PT6828</name></trkpt>
<trkpt lat="53.087154" lon="-1.691089"><ele>244</ele><time>2020-10-28T12:52:49Z</time><name>PT6829</name></trkpt>
<trkpt lat="53.087147" lon="-1.691074"><ele>244</ele><time>2020-10-28T12:52:50Z</time><name>PT6830</name></trkpt>
<trkpt lat="53.087139" lon="-1.691060"><ele>244</ele><time>2020-10-28T12:52:50Z</time><name>PT6831</name></trkpt>
<trkpt lat="53.087131" lon="-1.691048"><ele>244</ele><time>2020-10-28T12:52:52Z</time><name>PT6832</name></trkpt>
<trkpt lat="53.087123" lon="-1.691036"><ele>244</ele><time>2020-10-28T12:52:53Z</time><name>PT6833</name></trkpt>
<trkpt lat="53.087115" lon="-1.691025"><ele>244</ele><time>2020-10-28T12:52:53Z</time><name>PT6834</name></trkpt>
<trkpt lat="53.087107" lon="-1.691012"><ele>244</ele><time>2020-10-28T12:52:55Z</time><name>PT6835</name></trkpt>
<trkpt lat="53.087098" lon="-1.690997"><ele>244</ele><time>2020-10-28T12:52:56Z</time><name>PT6836</name></trkpt>
<trkpt lat="53.087089" lon="-1.690983"><ele>244</ele><time>2020-10-28T12:52:56Z</time><name>PT6837</name></trkpt>
<trkpt lat="53.087080" lon="-1.690971"><ele>244</ele><time>2020-10-28T12:52:58Z</time><name>PT6838</name></trkpt>
<trkpt lat="53.087072" lon="-1.690958"><ele>245</ele><time>2020-10-28T12:52:59Z</time><name>PT6839</name></trkpt>
<trkpt lat="53.087063" lon="-1.690944"><ele>245</ele><time>2020-10-28T12:52:59Z</time><name>PT6840</name></trkpt>
<trkpt lat="53.087055" lon="-1.690930"><ele>245</ele><time>2020-10-28T12:53:01Z</time><name>PT6841</name></trkpt>
<trkpt lat="53.087048" lon="-1.690914"><ele>245</ele><time>2020-10-28T12:53:02Z</time><name>PT6842</name></trkpt>
<trkpt lat="53.087039" lon="-1.690899"><ele>244</ele><time>2020-10-28T12:53:02Z</time><name>PT6843</name></trkpt>
<trkpt lat="53.087031" lon="-1.690886"><ele>245</ele><time>2020-10-28T12:53:04Z</time><name>PT6844</name></trkpt>
<trkpt lat="53.087023" lon="-1.690869"><ele>245</ele><time>2020-10-28T12:53:05Z</time><name>PT6845</name></trkpt>
<trkpt lat="53.087015" lon="-1.690854"><ele>245</ele><time>2020-10-28T12:53:05Z</time><name>PT6846</name></trkpt>
<trkpt lat="53.087007" lon="-1.690836"><ele>245</ele><time>2020-10-28T12:53:07Z</time><name>PT6847</name></trkpt>
<trkpt lat="53.087000" lon="-1.690818"><ele>245</ele><time>2020-10-28T12:53:08Z</time><name>PT6848</name></trkpt>
<trkpt lat="53.086994" lon="-1.690804"><ele>245</ele><time>2020-10-28T12:53:08Z</time><name>PT6849</name></trkpt>
<trkpt lat="53.086987" lon="-1.690789"><ele>245</ele><time>2020-10-28T12:53:10Z</time><name>PT6850</name></trkpt>
<trkpt lat="53.086981" lon="-1.690773"><ele>245</ele><time>2020-10-28T12:53:11Z</time><name>PT6851</name></trkpt>
<trkpt lat="53.086974" lon="-1.690758"><ele>245</ele><time>2020-10-28T12:53:11Z</time><name>PT6852</name></trkpt>
<trkpt lat="53.086967" lon="-1.690743"><ele>245</ele><time>2020-10-28T12:53:13Z</time><name>PT6853</name></trkpt>
<trkpt lat="53.086961" lon="-1.690728"><ele>245</ele><time>2020-10-28T12:53:14Z</time><name>PT6854</name></trkpt>
<trkpt lat="53.086956" lon="-1.690714"><ele>245</ele><time>2020-10-28T12:53:14Z</time><name>PT6855</name></trkpt>
<trkpt lat="53.086949" lon="-1.690699"><ele>246</ele><time>2020-10-28T12:53:16Z</time><name>PT6856</name></trkpt>
<trkpt lat="53.086942" lon="-1.690683"><ele>246</ele><time>2020-10-28T12:53:17Z</time><name>PT6857</name></trkpt>
<trkpt lat="53.086935" lon="-1.690667"><ele>246</ele><time>2020-10-28T12:53:17Z</time><name>PT6858</name></trkpt>
<trkpt lat="53.086929" lon="-1.690651"><ele>246</ele><time>2020-10-28T12:53:19Z</time><name>PT6859</name></trkpt>
<trkpt lat="53.086924" lon="-1.690632"><ele>246</ele><time>2020-10-28T12:53:20Z</time><name>PT6860</name></trkpt>
<trkpt lat="53.086920" lon="-1.690615"><ele>246</ele><time>2020-10-28T12:53:20Z</time><name>PT6861</name></trkpt>
<trkpt lat="53.086914" lon="-1.690601"><ele>246</ele><time>2020-10-28T12:53:22Z</time><name>PT6862</name></trkpt>
<trkpt lat="53.086908" lon="-1.690585"><ele>246</ele><time>2020-10-28T12:53:23Z</time><name>PT6863</name></trkpt>
<trkpt lat="53.086902" lon="-1.690568"><ele>246</ele><time>2020-10-28T12:53:23Z</time><name>PT6864</name></trkpt>
<trkpt lat="53.086896" lon="-1.690551"><ele>247</ele><time>2020-10-28T12:53:25Z</time><name>PT6865</name></trkpt>
<trkpt lat="53.086891" lon="-1.690532"><ele>247</ele><time>2020-10-28T12:53:26Z</time><name>PT6866</name></trkpt>
<trkpt lat="53.086887" lon="-1.690515"><ele>247</ele><time>2020-10-28T12:53:26Z</time><name>PT6867</name></trkpt>
<trkpt lat="53.086882" lon="-1.690500"><ele>247</ele><time>2020-10-28T12:53:28Z</time><name>PT6868</name></trkpt>
<trkpt lat="53.086876" lon="-1.690484"><ele>247</ele><time>2020-10-28T12:53:29Z</time><name>PT6869</name></trkpt>
<trkpt lat="53.086870" lon="-1.690466"><ele>247</ele><time>2020-10-28T12:53:29Z</time><name>PT6870</name></trkpt>
<trkpt lat="53.086864" lon="-1.690449"><ele>247</ele><time>2020-10-28T12:53:31Z</time><name>PT6871</name></trkpt>
<trkpt lat="53.086858" lon="-1.690432"><ele>247</ele><time>2020-10-28T12:53:32Z</time><name>PT6872</name></trkpt>
<trkpt lat="53.086852" lon="-1.690413"><ele>247</ele><time>2020-10-28T12:53:32Z</time><name>PT6873</name></trkpt>
<trkpt lat="53.086847" lon="-1.690394"><ele>247</ele><time>2020-10-28T12:53:34Z</time><name>PT6874</name></trkpt>
<trkpt lat="53.086842" lon="-1.690380"><ele>248</ele><time>2020-10-28T12:53:35Z</time><name>PT6875</name></trkpt>
<trkpt lat="53.086836" lon="-1.690363"><ele>248</ele><time>2020-10-28T12:53:35Z</time><name>PT6876</name></trkpt>
<trkpt lat="53.086830" lon="-1.690348"><ele>248</ele><time>2020-10-28T12:53:37Z</time><name>PT6877</name></trkpt>
<trkpt lat="53.086826" lon="-1.690333"><ele>248</ele><time>2020-10-28T12:53:38Z</time><name>PT6878</name></trkpt>
<trkpt lat="53.086821" lon="-1.690316"><ele>248</ele><time>2020-10-28T12:53:38Z</time><name>PT6879</name></trkpt>
<trkpt lat="53.086816" lon="-1.690301"><ele>248</ele><time>2020-10-28T12:53:40Z</time><name>PT6880</name></trkpt>
<trkpt lat="53.086810" lon="-1.690286"><ele>248</ele><time>2020-10-28T12:53:41Z</time><name>PT6881</name></trkpt>
<trkpt lat="53.086805" lon="-1.690270"><ele>248</ele><time>2020-10-28T12:53:41Z</time><name>PT6882</name></trkpt>
<trkpt lat="53.086800" lon="-1.690254"><ele>248</ele><time>2020-10-28T12:53:43Z</time><name>PT6883</name></trkpt>
<trkpt lat="53.086794" lon="-1.690234"><ele>248</ele><time>2020-10-28T12:53:44Z</time><name>PT6884</name></trkpt>
<trkpt lat="53.086788" lon="-1.690216"><ele>248</ele><time>2020-10-28T12:53:44Z</time><name>PT6885</name></trkpt>
<trkpt lat="53.086783" lon="-1.690199"><ele>248</ele><time>2020-10-28T12:53:46Z</time><name>PT6886</name></trkpt>
<trkpt lat="53.086776" lon="-1.690181"><ele>248</ele><time>2020-10-28T12:53:47Z</time><name>PT6887</name></trkpt>
<trkpt lat="53.086771" lon="-1.690163"><ele>248</ele><time>2020-10-28T12:53:47Z</time><name>PT6888</name></trkpt>
<trkpt lat="53.086765" lon="-1.690144"><ele>248</ele><time>2020-10-28T12:53:49Z</time><name>PT6889</name></trkpt>
<trkpt lat="53.086760" lon="-1.690123"><ele>248</ele><time>2020-10-28T12:53:50Z</time><name>PT6890</name></trkpt>
<trkpt lat="53.086755" lon="-1.690105"><ele>248</ele><time>2020-10-28T12:53:50Z</time><name>PT6891</name></trkpt>
<trkpt lat="53.086750" lon="-1.690088"><ele>248</ele><time>2020-10-28T12:53:52Z</time><name>PT6892</name></trkpt>
<trkpt lat="53.086744" lon="-1.690070"><ele>248</ele><time>2020-10-28T12:53:53Z</time><name>PT6893</name></trkpt>
<trkpt lat="53.086739" lon="-1.690053"><ele>248</ele><time>2020-10-28T12:53:53Z</time><name>PT6894</name></trkpt>
<trkpt lat="53.086736" lon="-1.690035"><ele>248</ele><time>2020-10-28T12:53:55Z</time><name>PT6895</name></trkpt>
<trkpt lat="53.086731" lon="-1.690014"><ele>248</ele><time>2020-10-28T12:53:56Z</time><name>PT6896</name></trkpt>
<trkpt lat="53.086727" lon="-1.689995"><ele>248</ele><time>2020-10-28T12:53:56Z</time><name>PT6897</name></trkpt>
<trkpt lat="53.086723" lon="-1.689976"><ele>248</ele><time>2020-10-28T12:53:58Z</time><name>PT6898</name></trkpt>
<trkpt lat="53.086718" lon="-1.689956"><ele>248</ele><time>2020-10-28T12:53:59Z</time><name>PT6899</name></trkpt>
<trkpt lat="53.086715" lon="-1.689938"><ele>248</ele><time>2020-10-28T12:53:59Z</time><name>PT6900</name></trkpt>
<trkpt lat="53.086709" lon="-1.689920"><ele>248</ele><time>2020-10-28T12:54:01Z</time><name>PT6901</name></trkpt>
<trkpt lat="53.086705" lon="-1.689901"><ele>248</ele><time>2020-10-28T12:54:02Z</time><name>PT6902</name></trkpt>
<trkpt lat="53.086697" lon="-1.689865"><ele>248</ele><time>2020-10-28T12:54:04Z</time><name>PT6903</name></trkpt>
<trkpt lat="53.086693" lon="-1.689846"><ele>248</ele><time>2020-10-28T12:54:05Z</time><name>PT6904</name></trkpt>
<trkpt lat="53.086689" lon="-1.689827"><ele>248</ele><time>2020-10-28T12:54:06Z</time><name>PT6905</name></trkpt>
<trkpt lat="53.086687" lon="-1.689808"><ele>248</ele><time>2020-10-28T12:54:07Z</time><name>PT6906</name></trkpt>
<trkpt lat="53.086684" lon="-1.689788"><ele>248</ele><time>2020-10-28T12:54:08Z</time><name>PT6907</name></trkpt>
<trkpt lat="53.086681" lon="-1.689771"><ele>248</ele><time>2020-10-28T12:54:09Z</time><name>PT6908</name></trkpt>
<trkpt lat="53.086678" lon="-1.689748"><ele>248</ele><time>2020-10-28T12:54:10Z</time><name>PT6909</name></trkpt>
<trkpt lat="53.086677" lon="-1.689730"><ele>248</ele><time>2020-10-28T12:54:11Z</time><name>PT6910</name></trkpt>
<trkpt lat="53.086675" lon="-1.689709"><ele>248</ele><time>2020-10-28T12:54:11Z</time><name>PT6911</name></trkpt>
<trkpt lat="53.086674" lon="-1.689688"><ele>247</ele><time>2020-10-28T12:54:13Z</time><name>PT6912</name></trkpt>
<trkpt lat="53.086673" lon="-1.689670"><ele>247</ele><time>2020-10-28T12:54:14Z</time><name>PT6913</name></trkpt>
<trkpt lat="53.086671" lon="-1.689648"><ele>247</ele><time>2020-10-28T12:54:14Z</time><name>PT6914</name></trkpt>
<trkpt lat="53.086669" lon="-1.689626"><ele>247</ele><time>2020-10-28T12:54:16Z</time><name>PT6915</name></trkpt>
<trkpt lat="53.086669" lon="-1.689605"><ele>247</ele><time>2020-10-28T12:54:17Z</time><name>PT6916</name></trkpt>
<trkpt lat="53.086670" lon="-1.689584"><ele>247</ele><time>2020-10-28T12:54:17Z</time><name>PT6917</name></trkpt>
<trkpt lat="53.086668" lon="-1.689567"><ele>246</ele><time>2020-10-28T12:54:19Z</time><name>PT6918</name></trkpt>
<trkpt lat="53.086666" lon="-1.689548"><ele>246</ele><time>2020-10-28T12:54:20Z</time><name>PT6919</name></trkpt>
<trkpt lat="53.086664" lon="-1.689527"><ele>247</ele><time>2020-10-28T12:54:20Z</time><name>PT6920</name></trkpt>
<trkpt lat="53.086663" lon="-1.689506"><ele>247</ele><time>2020-10-28T12:54:22Z</time><name>PT6921</name></trkpt>
<trkpt lat="53.086662" lon="-1.689425"><ele>248</ele><time>2020-10-28T12:54:26Z</time><name>PT6922</name></trkpt>
<trkpt lat="53.086663" lon="-1.689347"><ele>249</ele><time>2020-10-28T12:54:29Z</time><name>PT6923</name></trkpt>
<trkpt lat="53.086673" lon="-1.689282"><ele>249</ele><time>2020-10-28T12:54:32Z</time><name>PT6924</name></trkpt>
<trkpt lat="53.086680" lon="-1.689199"><ele>250</ele><time>2020-10-28T12:54:37Z</time><name>PT6925</name></trkpt>
<trkpt lat="53.086684" lon="-1.689142"><ele>249</ele><time>2020-10-28T12:54:40Z</time><name>PT6926</name></trkpt>
<trkpt lat="53.086692" lon="-1.689080"><ele>249</ele><time>2020-10-28T12:54:43Z</time><name>PT6927</name></trkpt>
<trkpt lat="53.086702" lon="-1.689001"><ele>250</ele><time>2020-10-28T12:54:47Z</time><name>PT6928</name></trkpt>
<trkpt lat="53.086717" lon="-1.688921"><ele>249</ele><time>2020-10-28T12:54:50Z</time><name>PT6929</name></trkpt>
<trkpt lat="53.086728" lon="-1.688863"><ele>249</ele><time>2020-10-28T12:54:53Z</time><name>PT6930</name></trkpt>
<trkpt lat="53.086740" lon="-1.688807"><ele>249</ele><time>2020-10-28T12:54:56Z</time><name>PT6931</name></trkpt>
<trkpt lat="53.086756" lon="-1.688750"><ele>249</ele><time>2020-10-28T12:54:59Z</time><name>PT6932</name></trkpt>
<trkpt lat="53.086779" lon="-1.688671"><ele>249</ele><time>2020-10-28T12:55:04Z</time><name>PT6933</name></trkpt>
<trkpt lat="53.086793" lon="-1.688586"><ele>248</ele><time>2020-10-28T12:55:08Z</time><name>PT6934</name></trkpt>
<trkpt lat="53.086804" lon="-1.688508"><ele>247</ele><time>2020-10-28T12:55:11Z</time><name>PT6935</name></trkpt>
<trkpt lat="53.086818" lon="-1.688448"><ele>247</ele><time>2020-10-28T12:55:14Z</time><name>PT6936</name></trkpt>
<trkpt lat="53.086833" lon="-1.688370"><ele>246</ele><time>2020-10-28T12:55:19Z</time><name>PT6937</name></trkpt>
<trkpt lat="53.086842" lon="-1.688308"><ele>246</ele><time>2020-10-28T12:55:22Z</time><name>PT6938</name></trkpt>
<trkpt lat="53.086853" lon="-1.688223"><ele>245</ele><time>2020-10-28T12:55:26Z</time><name>PT6939</name></trkpt>
<trkpt lat="53.086866" lon="-1.688136"><ele>244</ele><time>2020-10-28T12:55:29Z</time><name>PT6940</name></trkpt>
<trkpt lat="53.086876" lon="-1.688075"><ele>244</ele><time>2020-10-28T12:55:32Z</time><name>PT6941</name></trkpt>
<trkpt lat="53.086889" lon="-1.687994"><ele>243</ele><time>2020-10-28T12:55:37Z</time><name>PT6942</name></trkpt>
<trkpt lat="53.086907" lon="-1.687935"><ele>242</ele><time>2020-10-28T12:55:40Z</time><name>PT6943</name></trkpt>
<trkpt lat="53.086924" lon="-1.687858"><ele>242</ele><time>2020-10-28T12:55:44Z</time><name>PT6944</name></trkpt>
<trkpt lat="53.086949" lon="-1.687796"><ele>242</ele><time>2020-10-28T12:55:47Z</time><name>PT6945</name></trkpt>
<trkpt lat="53.086975" lon="-1.687723"><ele>240</ele><time>2020-10-28T12:55:50Z</time><name>PT6946</name></trkpt>
<trkpt lat="53.087006" lon="-1.687653"><ele>240</ele><time>2020-10-28T12:55:55Z</time><name>PT6947</name></trkpt>
<trkpt lat="53.087054" lon="-1.687569"><ele>241</ele><time>2020-10-28T12:55:59Z</time><name>PT6948</name></trkpt>
<trkpt lat="53.087075" lon="-1.687532"><ele>242</ele><time>2020-10-28T12:56:01Z</time><name>PT6949</name></trkpt>
<trkpt lat="53.087082" lon="-1.687517"><ele>242</ele><time>2020-10-28T12:56:02Z</time><name>PT6950</name></trkpt>
<trkpt lat="53.087091" lon="-1.687503"><ele>242</ele><time>2020-10-28T12:56:02Z</time><name>PT6951</name></trkpt>
<trkpt lat="53.087101" lon="-1.687491"><ele>242</ele><time>2020-10-28T12:56:04Z</time><name>PT6952</name></trkpt>
<trkpt lat="53.087110" lon="-1.687474"><ele>241</ele><time>2020-10-28T12:56:05Z</time><name>PT6953</name></trkpt>
<trkpt lat="53.087118" lon="-1.687459"><ele>241</ele><time>2020-10-28T12:56:05Z</time><name>PT6954</name></trkpt>
<trkpt lat="53.087125" lon="-1.687442"><ele>241</ele><time>2020-10-28T12:56:07Z</time><name>PT6955</name></trkpt>
<trkpt lat="53.087131" lon="-1.687426"><ele>241</ele><time>2020-10-28T12:56:08Z</time><name>PT6956</name></trkpt>
<trkpt lat="53.087140" lon="-1.687411"><ele>241</ele><time>2020-10-28T12:56:08Z</time><name>PT6957</name></trkpt>
<trkpt lat="53.087148" lon="-1.687397"><ele>240</ele><time>2020-10-28T12:56:10Z</time><name>PT6958</name></trkpt>
<trkpt lat="53.087153" lon="-1.687383"><ele>240</ele><time>2020-10-28T12:56:11Z</time><name>PT6959</name></trkpt>
<trkpt lat="53.087160" lon="-1.687368"><ele>240</ele><time>2020-10-28T12:56:11Z</time><name>PT6960</name></trkpt>
<trkpt lat="53.087166" lon="-1.687351"><ele>240</ele><time>2020-10-28T12:56:13Z</time><name>PT6961</name></trkpt>
<trkpt lat="53.087173" lon="-1.687334"><ele>240</ele><time>2020-10-28T12:56:14Z</time><name>PT6962</name></trkpt>
<trkpt lat="53.087181" lon="-1.687319"><ele>240</ele><time>2020-10-28T12:56:14Z</time><name>PT6963</name></trkpt>
<trkpt lat="53.087190" lon="-1.687302"><ele>240</ele><time>2020-10-28T12:56:16Z</time><name>PT6964</name></trkpt>
<trkpt lat="53.087199" lon="-1.687285"><ele>239</ele><time>2020-10-28T12:56:17Z</time><name>PT6965</name></trkpt>
<trkpt lat="53.087208" lon="-1.687269"><ele>239</ele><time>2020-10-28T12:56:17Z</time><name>PT6966</name></trkpt>
<trkpt lat="53.087216" lon="-1.687255"><ele>239</ele><time>2020-10-28T12:56:19Z</time><name>PT6967</name></trkpt>
<trkpt lat="53.087224" lon="-1.687241"><ele>239</ele><time>2020-10-28T12:56:20Z</time><name>PT6968</name></trkpt>
<trkpt lat="53.087232" lon="-1.687225"><ele>238</ele><time>2020-10-28T12:56:20Z</time><name>PT6969</name></trkpt>
<trkpt lat="53.087239" lon="-1.687209"><ele>238</ele><time>2020-10-28T12:56:22Z</time><name>PT6970</name></trkpt>
<trkpt lat="53.087246" lon="-1.687193"><ele>238</ele><time>2020-10-28T12:56:23Z</time><name>PT6971</name></trkpt>
<trkpt lat="53.087254" lon="-1.687178"><ele>238</ele><time>2020-10-28T12:56:23Z</time><name>PT6972</name></trkpt>
<trkpt lat="53.087261" lon="-1.687162"><ele>238</ele><time>2020-10-28T12:56:25Z</time><name>PT6973</name></trkpt>
<trkpt lat="53.087271" lon="-1.687147"><ele>237</ele><time>2020-10-28T12:56:26Z</time><name>PT6974</name></trkpt>
<trkpt lat="53.087280" lon="-1.687136"><ele>237</ele><time>2020-10-28T12:56:26Z</time><name>PT6975</name></trkpt>
<trkpt lat="53.087289" lon="-1.687121"><ele>237</ele><time>2020-10-28T12:56:28Z</time><name>PT6976</name></trkpt>
<trkpt lat="53.087296" lon="-1.687107"><ele>237</ele><time>2020-10-28T12:56:29Z</time><name>PT6977</name></trkpt>
<trkpt lat="53.087304" lon="-1.687093"><ele>236</ele><time>2020-10-28T12:56:29Z</time><name>PT6978</name></trkpt>
<trkpt lat="53.087312" lon="-1.687075"><ele>236</ele><time>2020-10-28T12:56:31Z</time><name>PT6979</name></trkpt>
<trkpt lat="53.087318" lon="-1.687058"><ele>236</ele><time>2020-10-28T12:56:32Z</time><name>PT6980</name></trkpt>
<trkpt lat="53.087326" lon="-1.687041"><ele>236</ele><time>2020-10-28T12:56:32Z</time><name>PT6981</name></trkpt>
<trkpt lat="53.087336" lon="-1.687022"><ele>235</ele><time>2020-10-28T12:56:34Z</time><name>PT6982</name></trkpt>
<trkpt lat="53.087345" lon="-1.687007"><ele>235</ele><time>2020-10-28T12:56:35Z</time><name>PT6983</name></trkpt>
<trkpt lat="53.087355" lon="-1.686993"><ele>235</ele><time>2020-10-28T12:56:35Z</time><name>PT6984</name></trkpt>
<trkpt lat="53.087363" lon="-1.686980"><ele>235</ele><time>2020-10-28T12:56:37Z</time><name>PT6985</name></trkpt>
<trkpt lat="53.087370" lon="-1.686964"><ele>235</ele><time>2020-10-28T12:56:38Z</time><name>PT6986</name></trkpt>
<trkpt lat="53.087376" lon="-1.686947"><ele>234</ele><time>2020-10-28T12:56:38Z</time><name>PT6987</name></trkpt>
<trkpt lat="53.087385" lon="-1.686937"><ele>235</ele><time>2020-10-28T12:56:40Z</time><name>PT6988</name></trkpt>
<trkpt lat="53.087396" lon="-1.686930"><ele>236</ele><time>2020-10-28T12:56:41Z</time><name>PT6989</name></trkpt>
<trkpt lat="53.087403" lon="-1.686922"><ele>236</ele><time>2020-10-28T12:56:41Z</time><name>PT6990</name></trkpt>
<trkpt lat="53.087408" lon="-1.686915"><ele>235</ele><time>2020-10-28T12:56:43Z</time><name>PT6991</name></trkpt>
<trkpt lat="53.087411" lon="-1.686912"><ele>235</ele><time>2020-10-28T12:56:44Z</time><name>PT6992</name></trkpt>
<trkpt lat="53.087415" lon="-1.686915"><ele>236</ele><time>2020-10-28T12:56:44Z</time><name>PT6993</name></trkpt>
<trkpt lat="53.087416" lon="-1.686916"><ele>236</ele><time>2020-10-28T12:56:46Z</time><name>PT6994</name></trkpt>
<trkpt lat="53.087419" lon="-1.686914"><ele>237</ele><time>2020-10-28T12:56:47Z</time><name>PT6995</name></trkpt>
<trkpt lat="53.087419" lon="-1.686912"><ele>237</ele><time>2020-10-28T12:56:47Z</time><name>PT6996</name></trkpt>
<trkpt lat="53.087419" lon="-1.686909"><ele>237</ele><time>2020-10-28T12:56:49Z</time><name>PT6997</name></trkpt>
<trkpt lat="53.087421" lon="-1.686907"><ele>237</ele><time>2020-10-28T12:56:50Z</time><name>PT6998</name></trkpt>
<trkpt lat="53.087422" lon="-1.686906"><ele>237</ele><time>2020-10-28T12:56:50Z</time><name>PT6999</name></trkpt>
<trkpt lat="53.087424" lon="-1.686906"><ele>237</ele><time>2020-10-28T12:56:52Z</time><name>PT7000</name></trkpt>
<trkpt lat="53.087422" lon="-1.686907"><ele>237</ele><time>2020-10-28T12:56:55Z</time><name>PT7001</name></trkpt>
<trkpt lat="53.087425" lon="-1.686906"><ele>237</ele><time>2020-10-28T12:56:56Z</time><name>PT7002</name></trkpt>
<trkpt lat="53.087425" lon="-1.686908"><ele>237</ele><time>2020-10-28T12:56:56Z</time><name>PT7003</name></trkpt>
<trkpt lat="53.087427" lon="-1.686904"><ele>237</ele><time>2020-10-28T12:56:58Z</time><name>PT7004</name></trkpt>
<trkpt lat="53.087431" lon="-1.686901"><ele>237</ele><time>2020-10-28T12:56:59Z</time><name>PT7005</name></trkpt>
<trkpt lat="53.087431" lon="-1.686898"><ele>237</ele><time>2020-10-28T12:56:59Z</time><name>PT7006</name></trkpt>
<trkpt lat="53.087428" lon="-1.686892"><ele>237</ele><time>2020-10-28T12:57:01Z</time><name>PT7007</name></trkpt>
<trkpt lat="53.087430" lon="-1.686898"><ele>237</ele><time>2020-10-28T12:57:02Z</time><name>PT7008</name></trkpt>
<trkpt lat="53.087428" lon="-1.686906"><ele>238</ele><time>2020-10-28T12:57:02Z</time><name>PT7009</name></trkpt>
<trkpt lat="53.087427" lon="-1.686920"><ele>237</ele><time>2020-10-28T12:57:04Z</time><name>PT7010</name></trkpt>
<trkpt lat="53.087421" lon="-1.686932"><ele>238</ele><time>2020-10-28T12:57:05Z</time><name>PT7011</name></trkpt>
<trkpt lat="53.087418" lon="-1.686944"><ele>237</ele><time>2020-10-28T12:57:05Z</time><name>PT7012</name></trkpt>
<trkpt lat="53.087414" lon="-1.686955"><ele>237</ele><time>2020-10-28T12:57:07Z</time><name>PT7013</name></trkpt>
<trkpt lat="53.087411" lon="-1.686962"><ele>237</ele><time>2020-10-28T12:57:08Z</time><name>PT7014</name></trkpt>
<trkpt lat="53.087407" lon="-1.686968"><ele>238</ele><time>2020-10-28T12:57:08Z</time><name>PT7015</name></trkpt>
<trkpt lat="53.087404" lon="-1.686976"><ele>238</ele><time>2020-10-28T12:57:10Z</time><name>PT7016</name></trkpt>
<trkpt lat="53.087409" lon="-1.686932"><ele>239</ele><time>2020-10-28T12:58:14Z</time><name>PT7017</name></trkpt>
<trkpt lat="53.087412" lon="-1.686920"><ele>238</ele><time>2020-10-28T12:58:14Z</time><name>PT7018</name></trkpt>
<trkpt lat="53.087418" lon="-1.686917"><ele>238</ele><time>2020-10-28T12:58:16Z</time><name>PT7019</name></trkpt>
<trkpt lat="53.087418" lon="-1.686911"><ele>238</ele><time>2020-10-28T12:58:17Z</time><name>PT7020</name></trkpt>
<trkpt lat="53.087418" lon="-1.686911"><ele>237</ele><time>2020-10-28T12:58:17Z</time><name>PT7021</name></trkpt>
<trkpt lat="53.087421" lon="-1.686904"><ele>237</ele><time>2020-10-28T12:58:19Z</time><name>PT7022</name></trkpt>
<trkpt lat="53.087425" lon="-1.686896"><ele>237</ele><time>2020-10-28T12:58:20Z</time><name>PT7023</name></trkpt>
<trkpt lat="53.087424" lon="-1.686884"><ele>237</ele><time>2020-10-28T12:58:20Z</time><name>PT7024</name></trkpt>
<trkpt lat="53.087425" lon="-1.686886"><ele>237</ele><time>2020-10-28T12:58:22Z</time><name>PT7025</name></trkpt>
<trkpt lat="53.087427" lon="-1.686888"><ele>237</ele><time>2020-10-28T12:58:23Z</time><name>PT7026</name></trkpt>
<trkpt lat="53.087427" lon="-1.686884"><ele>237</ele><time>2020-10-28T12:58:23Z</time><name>PT7027</name></trkpt>
<trkpt lat="53.087423" lon="-1.686892"><ele>237</ele><time>2020-10-28T12:58:25Z</time><name>PT7028</name></trkpt>
<trkpt lat="53.087422" lon="-1.686894"><ele>237</ele><time>2020-10-28T12:58:26Z</time><name>PT7029</name></trkpt>
<trkpt lat="53.087423" lon="-1.686900"><ele>237</ele><time>2020-10-28T12:58:26Z</time><name>PT7030</name></trkpt>
<trkpt lat="53.087424" lon="-1.686905"><ele>237</ele><time>2020-10-28T12:58:28Z</time><name>PT7031</name></trkpt>
<trkpt lat="53.087426" lon="-1.686910"><ele>236</ele><time>2020-10-28T12:58:29Z</time><name>PT7032</name></trkpt>
<trkpt lat="53.087428" lon="-1.686911"><ele>237</ele><time>2020-10-28T12:58:29Z</time><name>PT7033</name></trkpt>
<trkpt lat="53.087433" lon="-1.686916"><ele>237</ele><time>2020-10-28T12:58:31Z</time><name>PT7034</name></trkpt>
<trkpt lat="53.087439" lon="-1.686922"><ele>237</ele><time>2020-10-28T12:58:32Z</time><name>PT7035</name></trkpt>
<trkpt lat="53.087445" lon="-1.686930"><ele>236</ele><time>2020-10-28T12:58:32Z</time><name>PT7036</name></trkpt>
<trkpt lat="53.087449" lon="-1.686934"><ele>236</ele><time>2020-10-28T12:58:34Z</time><name>PT7037</name></trkpt>
<trkpt lat="53.087452" lon="-1.686930"><ele>237</ele><time>2020-10-28T12:58:35Z</time><name>PT7038</name></trkpt>
<trkpt lat="53.087452" lon="-1.686931"><ele>237</ele><time>2020-10-28T12:58:35Z</time><name>PT7039</name></trkpt>
<trkpt lat="53.087453" lon="-1.686933"><ele>238</ele><time>2020-10-28T12:58:37Z</time><name>PT7040</name></trkpt>
<trkpt lat="53.087456" lon="-1.686935"><ele>239</ele><time>2020-10-28T12:58:38Z</time><name>PT7041</name></trkpt>
<trkpt lat="53.087461" lon="-1.686937"><ele>238</ele><time>2020-10-28T12:58:38Z</time><name>PT7042</name></trkpt>
<trkpt lat="53.087464" lon="-1.686938"><ele>238</ele><time>2020-10-28T12:58:40Z</time><name>PT7043</name></trkpt>
<trkpt lat="53.087461" lon="-1.686932"><ele>239</ele><time>2020-10-28T12:58:52Z</time><name>PT7044</name></trkpt>
<trkpt lat="53.087462" lon="-1.686935"><ele>238</ele><time>2020-10-28T12:58:53Z</time><name>PT7045</name></trkpt>
<trkpt lat="53.087466" lon="-1.686939"><ele>238</ele><time>2020-10-28T12:58:53Z</time><name>PT7046</name></trkpt>
<trkpt lat="53.087467" lon="-1.686938"><ele>238</ele><time>2020-10-28T12:58:55Z</time><name>PT7047</name></trkpt>
<trkpt lat="53.087468" lon="-1.686945"><ele>238</ele><time>2020-10-28T12:58:56Z</time><name>PT7048</name></trkpt>
<trkpt lat="53.087470" lon="-1.686949"><ele>238</ele><time>2020-10-28T12:58:57Z</time><name>PT7049</name></trkpt>
<trkpt lat="53.087467" lon="-1.686950"><ele>238</ele><time>2020-10-28T12:58:58Z</time><name>PT7050</name></trkpt>
<trkpt lat="53.087464" lon="-1.686951"><ele>239</ele><time>2020-10-28T12:58:59Z</time><name>PT7051</name></trkpt>
<trkpt lat="53.087465" lon="-1.686946"><ele>237</ele><time>2020-10-28T12:59:05Z</time><name>PT7052</name></trkpt>
<trkpt lat="53.087454" lon="-1.686946"><ele>237</ele><time>2020-10-28T12:59:08Z</time><name>PT7053</name></trkpt>
<trkpt lat="53.087452" lon="-1.686909"><ele>237</ele><time>2020-10-28T12:59:19Z</time><name>PT7054</name></trkpt>
<trkpt lat="53.087453" lon="-1.686904"><ele>236</ele><time>2020-10-28T12:59:23Z</time><name>PT7055</name></trkpt>
<trkpt lat="53.087455" lon="-1.686906"><ele>236</ele><time>2020-10-28T13:00:05Z</time><name>PT7056</name></trkpt>
<trkpt lat="53.087460" lon="-1.686895"><ele>236</ele><time>2020-10-28T13:00:08Z</time><name>PT7057</name></trkpt>
<trkpt lat="53.087464" lon="-1.686904"><ele>236</ele><time>2020-10-28T13:00:47Z</time><name>PT7058</name></trkpt>
<trkpt lat="53.087462" lon="-1.686934"><ele>236</ele><time>2020-10-28T13:00:52Z</time><name>PT7059</name></trkpt>
<trkpt lat="53.087456" lon="-1.686929"><ele>237</ele><time>2020-10-28T13:07:38Z</time><name>PT7060</name></trkpt>
<trkpt lat="53.087455" lon="-1.686931"><ele>237</ele><time>2020-10-28T13:07:40Z</time><name>PT7061</name></trkpt>
<trkpt lat="53.087456" lon="-1.686934"><ele>237</ele><time>2020-10-28T13:07:41Z</time><name>PT7062</name></trkpt>
<trkpt lat="53.087456" lon="-1.686937"><ele>237</ele><time>2020-10-28T13:07:41Z</time><name>PT7063</name></trkpt>
<trkpt lat="53.087463" lon="-1.686938"><ele>236</ele><time>2020-10-28T13:07:43Z</time><name>PT7064</name></trkpt>
<trkpt lat="53.087466" lon="-1.686939"><ele>236</ele><time>2020-10-28T13:07:44Z</time><name>PT7065</name></trkpt>
<trkpt lat="53.087468" lon="-1.686936"><ele>236</ele><time>2020-10-28T13:07:44Z</time><name>PT7066</name></trkpt>
<trkpt lat="53.087470" lon="-1.686938"><ele>236</ele><time>2020-10-28T13:07:46Z</time><name>PT7067</name></trkpt>
<trkpt lat="53.087471" lon="-1.686939"><ele>236</ele><time>2020-10-28T13:07:47Z</time><name>PT7068</name></trkpt>
<trkpt lat="53.087456" lon="-1.686940"><ele>235</ele><time>2020-10-28T13:08:40Z</time><name>PT7069</name></trkpt>
<trkpt lat="53.087458" lon="-1.686915"><ele>234</ele><time>2020-10-28T13:08:41Z</time><name>PT7070</name></trkpt>
<trkpt lat="53.087457" lon="-1.686917"><ele>234</ele><time>2020-10-28T13:08:41Z</time><name>PT7071</name></trkpt>
<trkpt lat="53.087457" lon="-1.686918"><ele>233</ele><time>2020-10-28T13:08:43Z</time><name>PT7072</name></trkpt>
<trkpt lat="53.087459" lon="-1.686920"><ele>233</ele><time>2020-10-28T13:08:44Z</time><name>PT7073</name></trkpt>
<trkpt lat="53.087456" lon="-1.686917"><ele>234</ele><time>2020-10-28T13:08:52Z</time><name>PT7074</name></trkpt>
<trkpt lat="53.087457" lon="-1.686919"><ele>234</ele><time>2020-10-28T13:08:53Z</time><name>PT7075</name></trkpt>
<trkpt lat="53.087458" lon="-1.686919"><ele>234</ele><time>2020-10-28T13:08:53Z</time><name>PT7076</name></trkpt>
<trkpt lat="53.087461" lon="-1.686925"><ele>234</ele><time>2020-10-28T13:08:59Z</time><name>PT7077</name></trkpt>
<trkpt lat="53.087468" lon="-1.686929"><ele>235</ele><time>2020-10-28T13:09:01Z</time><name>PT7078</name></trkpt>
<trkpt lat="53.087469" lon="-1.686931"><ele>235</ele><time>2020-10-28T13:09:02Z</time><name>PT7079</name></trkpt>
<trkpt lat="53.087468" lon="-1.686932"><ele>235</ele><time>2020-10-28T13:09:02Z</time><name>PT7080</name></trkpt>
<trkpt lat="53.087468" lon="-1.686928"><ele>235</ele><time>2020-10-28T13:09:04Z</time><name>PT7081</name></trkpt>
<trkpt lat="53.087470" lon="-1.686927"><ele>235</ele><time>2020-10-28T13:09:10Z</time><name>PT7082</name></trkpt>
<trkpt lat="53.087469" lon="-1.686924"><ele>235</ele><time>2020-10-28T13:09:11Z</time><name>PT7083</name></trkpt>
<trkpt lat="53.087469" lon="-1.686921"><ele>235</ele><time>2020-10-28T13:09:11Z</time><name>PT7084</name></trkpt>
<trkpt lat="53.087468" lon="-1.686921"><ele>235</ele><time>2020-10-28T13:09:13Z</time><name>PT7085</name></trkpt>
<trkpt lat="53.087454" lon="-1.686921"><ele>235</ele><time>2020-10-28T13:09:14Z</time><name>PT7086</name></trkpt>
<trkpt lat="53.087449" lon="-1.686927"><ele>235</ele><time>2020-10-28T13:09:14Z</time><name>PT7087</name></trkpt>
<trkpt lat="53.087457" lon="-1.686928"><ele>235</ele><time>2020-10-28T13:09:16Z</time><name>PT7088</name></trkpt>
<trkpt lat="53.087455" lon="-1.686930"><ele>234</ele><time>2020-10-28T13:13:46Z</time><name>PT7089</name></trkpt>
<trkpt lat="53.087447" lon="-1.686922"><ele>235</ele><time>2020-10-28T13:13:50Z</time><name>PT7090</name></trkpt>
<trkpt lat="53.087453" lon="-1.686913"><ele>236</ele><time>2020-10-28T13:13:53Z</time><name>PT7091</name></trkpt>
<trkpt lat="53.087455" lon="-1.686911"><ele>236</ele><time>2020-10-28T13:13:58Z</time><name>PT7092</name></trkpt>
<trkpt lat="53.087451" lon="-1.686906"><ele>236</ele><time>2020-10-28T13:14:11Z</time><name>PT7093</name></trkpt>
<trkpt lat="53.087467" lon="-1.686942"><ele>236</ele><time>2020-10-28T13:14:16Z</time><name>PT7094</name></trkpt>
<trkpt lat="53.087466" lon="-1.686922"><ele>236</ele><time>2020-10-28T13:14:19Z</time><name>PT7095</name></trkpt>
<trkpt lat="53.087461" lon="-1.686916"><ele>234</ele><time>2020-10-28T13:14:22Z</time><name>PT7096</name></trkpt>
<trkpt lat="53.087455" lon="-1.686910"><ele>235</ele><time>2020-10-28T13:14:25Z</time><name>PT7097</name></trkpt>
<trkpt lat="53.087454" lon="-1.686911"><ele>235</ele><time>2020-10-28T13:14:28Z</time><name>PT7098</name></trkpt>
<trkpt lat="53.087418" lon="-1.686928"><ele>234</ele><time>2020-10-28T13:14:32Z</time><name>PT7099</name></trkpt>
<trkpt lat="53.087419" lon="-1.686926"><ele>235</ele><time>2020-10-28T13:14:35Z</time><name>PT7100</name></trkpt>
<trkpt lat="53.087411" lon="-1.686915"><ele>235</ele><time>2020-10-28T13:14:38Z</time><name>PT7101</name></trkpt>
<trkpt lat="53.087403" lon="-1.686867"><ele>234</ele><time>2020-10-28T13:14:41Z</time><name>PT7102</name></trkpt>
<trkpt lat="53.087412" lon="-1.686834"><ele>233</ele><time>2020-10-28T13:14:44Z</time><name>PT7103</name></trkpt>
<trkpt lat="53.087419" lon="-1.686815"><ele>233</ele><time>2020-10-28T13:14:47Z</time><name>PT7104</name></trkpt>
<trkpt lat="53.087434" lon="-1.686796"><ele>232</ele><time>2020-10-28T13:14:50Z</time><name>PT7105</name></trkpt>
<trkpt lat="53.087444" lon="-1.686765"><ele>231</ele><time>2020-10-28T13:14:53Z</time><name>PT7106</name></trkpt>
<trkpt lat="53.087461" lon="-1.686704"><ele>231</ele><time>2020-10-28T13:14:58Z</time><name>PT7107</name></trkpt>
<trkpt lat="53.087472" lon="-1.686663"><ele>231</ele><time>2020-10-28T13:15:01Z</time><name>PT7108</name></trkpt>
<trkpt lat="53.087487" lon="-1.686616"><ele>231</ele><time>2020-10-28T13:15:04Z</time><name>PT7109</name></trkpt>
<trkpt lat="53.087516" lon="-1.686563"><ele>229</ele><time>2020-10-28T13:15:08Z</time><name>PT7110</name></trkpt>
<trkpt lat="53.087527" lon="-1.686525"><ele>229</ele><time>2020-10-28T13:15:11Z</time><name>PT7111</name></trkpt>
<trkpt lat="53.087541" lon="-1.686468"><ele>228</ele><time>2020-10-28T13:15:14Z</time><name>PT7112</name></trkpt>
<trkpt lat="53.087540" lon="-1.686414"><ele>227</ele><time>2020-10-28T13:15:17Z</time><name>PT7113</name></trkpt>
<trkpt lat="53.087521" lon="-1.686365"><ele>226</ele><time>2020-10-28T13:15:22Z</time><name>PT7114</name></trkpt>
<trkpt lat="53.087504" lon="-1.686354"><ele>226</ele><time>2020-10-28T13:15:25Z</time><name>PT7115</name></trkpt>
<trkpt lat="53.087482" lon="-1.686343"><ele>226</ele><time>2020-10-28T13:15:28Z</time><name>PT7116</name></trkpt>
<trkpt lat="53.087455" lon="-1.686350"><ele>225</ele><time>2020-10-28T13:15:31Z</time><name>PT7117</name></trkpt>
<trkpt lat="53.087414" lon="-1.686357"><ele>225</ele><time>2020-10-28T13:15:35Z</time><name>PT7118</name></trkpt>
<trkpt lat="53.087384" lon="-1.686358"><ele>226</ele><time>2020-10-28T13:15:38Z</time><name>PT7119</name></trkpt>
<trkpt lat="53.087342" lon="-1.686374"><ele>226</ele><time>2020-10-28T13:15:41Z</time><name>PT7120</name></trkpt>
<trkpt lat="53.087303" lon="-1.686376"><ele>226</ele><time>2020-10-28T13:15:46Z</time><name>PT7121</name></trkpt>
<trkpt lat="53.087266" lon="-1.686382"><ele>225</ele><time>2020-10-28T13:15:49Z</time><name>PT7122</name></trkpt>
<trkpt lat="53.087232" lon="-1.686380"><ele>225</ele><time>2020-10-28T13:15:52Z</time><name>PT7123</name></trkpt>
<trkpt lat="53.087193" lon="-1.686387"><ele>224</ele><time>2020-10-28T13:15:56Z</time><name>PT7124</name></trkpt>
<trkpt lat="53.087163" lon="-1.686352"><ele>224</ele><time>2020-10-28T13:15:59Z</time><name>PT7125</name></trkpt>
<trkpt lat="53.087158" lon="-1.686294"><ele>223</ele><time>2020-10-28T13:16:02Z</time><name>PT7126</name></trkpt>
<trkpt lat="53.087176" lon="-1.686248"><ele>223</ele><time>2020-10-28T13:16:05Z</time><name>PT7127</name></trkpt>
<trkpt lat="53.087198" lon="-1.686205"><ele>222</ele><time>2020-10-28T13:16:08Z</time><name>PT7128</name></trkpt>
<trkpt lat="53.087226" lon="-1.686160"><ele>221</ele><time>2020-10-28T13:16:11Z</time><name>PT7129</name></trkpt>
<trkpt lat="53.087261" lon="-1.686106"><ele>221</ele><time>2020-10-28T13:16:16Z</time><name>PT7130</name></trkpt>
<trkpt lat="53.087294" lon="-1.686049"><ele>221</ele><time>2020-10-28T13:16:20Z</time><name>PT7131</name></trkpt>
<trkpt lat="53.087333" lon="-1.685999"><ele>221</ele><time>2020-10-28T13:16:23Z</time><name>PT7132</name></trkpt>
<trkpt lat="53.087362" lon="-1.685971"><ele>220</ele><time>2020-10-28T13:16:27Z</time><name>PT7133</name></trkpt>
<trkpt lat="53.087401" lon="-1.685937"><ele>218</ele><time>2020-10-28T13:16:31Z</time><name>PT7134</name></trkpt>
<trkpt lat="53.087426" lon="-1.685902"><ele>218</ele><time>2020-10-28T13:16:34Z</time><name>PT7135</name></trkpt>
<trkpt lat="53.087459" lon="-1.685871"><ele>217</ele><time>2020-10-28T13:16:38Z</time><name>PT7136</name></trkpt>
<trkpt lat="53.087491" lon="-1.685853"><ele>217</ele><time>2020-10-28T13:16:41Z</time><name>PT7137</name></trkpt>
<trkpt lat="53.087522" lon="-1.685842"><ele>216</ele><time>2020-10-28T13:16:44Z</time><name>PT7138</name></trkpt>
<trkpt lat="53.087549" lon="-1.685819"><ele>214</ele><time>2020-10-28T13:16:47Z</time><name>PT7139</name></trkpt>
<trkpt lat="53.087581" lon="-1.685783"><ele>214</ele><time>2020-10-28T13:16:50Z</time><name>PT7140</name></trkpt>
<trkpt lat="53.087606" lon="-1.685761"><ele>213</ele><time>2020-10-28T13:16:53Z</time><name>PT7141</name></trkpt>
<trkpt lat="53.087647" lon="-1.685718"><ele>213</ele><time>2020-10-28T13:16:58Z</time><name>PT7142</name></trkpt>
<trkpt lat="53.087675" lon="-1.685676"><ele>212</ele><time>2020-10-28T13:17:01Z</time><name>PT7143</name></trkpt>
<trkpt lat="53.087698" lon="-1.685632"><ele>212</ele><time>2020-10-28T13:17:04Z</time><name>PT7144</name></trkpt>
<trkpt lat="53.087713" lon="-1.685605"><ele>212</ele><time>2020-10-28T13:17:08Z</time><name>PT7145</name></trkpt>
<trkpt lat="53.087724" lon="-1.685599"><ele>212</ele><time>2020-10-28T13:17:11Z</time><name>PT7146</name></trkpt>
<trkpt lat="53.087732" lon="-1.685593"><ele>213</ele><time>2020-10-28T13:17:14Z</time><name>PT7147</name></trkpt>
<trkpt lat="53.087752" lon="-1.685551"><ele>211</ele><time>2020-10-28T13:17:19Z</time><name>PT7148</name></trkpt>
<trkpt lat="53.087753" lon="-1.685544"><ele>212</ele><time>2020-10-28T13:17:23Z</time><name>PT7149</name></trkpt>
<trkpt lat="53.087758" lon="-1.685503"><ele>211</ele><time>2020-10-28T13:17:29Z</time><name>PT7150</name></trkpt>
<trkpt lat="53.087761" lon="-1.685432"><ele>211</ele><time>2020-10-28T13:17:32Z</time><name>PT7151</name></trkpt>
<trkpt lat="53.087761" lon="-1.685353"><ele>210</ele><time>2020-10-28T13:17:37Z</time><name>PT7152</name></trkpt>
<trkpt lat="53.087766" lon="-1.685281"><ele>210</ele><time>2020-10-28T13:17:41Z</time><name>PT7153</name></trkpt>
<trkpt lat="53.087758" lon="-1.685220"><ele>212</ele><time>2020-10-28T13:17:44Z</time><name>PT7154</name></trkpt>
<trkpt lat="53.087775" lon="-1.685163"><ele>212</ele><time>2020-10-28T13:17:47Z</time><name>PT7155</name></trkpt>
<trkpt lat="53.087778" lon="-1.685145"><ele>212</ele><time>2020-10-28T13:17:49Z</time><name>PT7156</name></trkpt>
<trkpt lat="53.087781" lon="-1.685130"><ele>212</ele><time>2020-10-28T13:17:50Z</time><name>PT7157</name></trkpt>
<trkpt lat="53.087790" lon="-1.685114"><ele>212</ele><time>2020-10-28T13:17:50Z</time><name>PT7158</name></trkpt>
<trkpt lat="53.087791" lon="-1.685098"><ele>212</ele><time>2020-10-28T13:17:52Z</time><name>PT7159</name></trkpt>
<trkpt lat="53.087797" lon="-1.685078"><ele>212</ele><time>2020-10-28T13:17:53Z</time><name>PT7160</name></trkpt>
<trkpt lat="53.087802" lon="-1.685060"><ele>211</ele><time>2020-10-28T13:17:53Z</time><name>PT7161</name></trkpt>
<trkpt lat="53.087807" lon="-1.685043"><ele>212</ele><time>2020-10-28T13:17:55Z</time><name>PT7162</name></trkpt>
<trkpt lat="53.087813" lon="-1.685024"><ele>212</ele><time>2020-10-28T13:17:56Z</time><name>PT7163</name></trkpt>
<trkpt lat="53.087817" lon="-1.685009"><ele>212</ele><time>2020-10-28T13:17:56Z</time><name>PT7164</name></trkpt>
<trkpt lat="53.087824" lon="-1.684993"><ele>213</ele><time>2020-10-28T13:17:58Z</time><name>PT7165</name></trkpt>
<trkpt lat="53.087831" lon="-1.684979"><ele>213</ele><time>2020-10-28T13:17:59Z</time><name>PT7166</name></trkpt>
<trkpt lat="53.087839" lon="-1.684965"><ele>213</ele><time>2020-10-28T13:17:59Z</time><name>PT7167</name></trkpt>
<trkpt lat="53.087848" lon="-1.684951"><ele>213</ele><time>2020-10-28T13:18:01Z</time><name>PT7168</name></trkpt>
<trkpt lat="53.087854" lon="-1.684940"><ele>212</ele><time>2020-10-28T13:18:02Z</time><name>PT7169</name></trkpt>
<trkpt lat="53.087859" lon="-1.684929"><ele>213</ele><time>2020-10-28T13:18:02Z</time><name>PT7170</name></trkpt>
<trkpt lat="53.087864" lon="-1.684916"><ele>212</ele><time>2020-10-28T13:18:04Z</time><name>PT7171</name></trkpt>
<trkpt lat="53.087869" lon="-1.684904"><ele>213</ele><time>2020-10-28T13:18:05Z</time><name>PT7172</name></trkpt>
<trkpt lat="53.087874" lon="-1.684891"><ele>213</ele><time>2020-10-28T13:18:05Z</time><name>PT7173</name></trkpt>
<trkpt lat="53.087880" lon="-1.684879"><ele>213</ele><time>2020-10-28T13:18:07Z</time><name>PT7174</name></trkpt>
<trkpt lat="53.087882" lon="-1.684860"><ele>214</ele><time>2020-10-28T13:18:08Z</time><name>PT7175</name></trkpt>
<trkpt lat="53.087886" lon="-1.684842"><ele>214</ele><time>2020-10-28T13:18:08Z</time><name>PT7176</name></trkpt>
<trkpt lat="53.087895" lon="-1.684829"><ele>214</ele><time>2020-10-28T13:18:10Z</time><name>PT7177</name></trkpt>
<trkpt lat="53.087906" lon="-1.684813"><ele>215</ele><time>2020-10-28T13:18:11Z</time><name>PT7178</name></trkpt>
<trkpt lat="53.087918" lon="-1.684802"><ele>215</ele><time>2020-10-28T13:18:11Z</time><name>PT7179</name></trkpt>
<trkpt lat="53.087929" lon="-1.684797"><ele>216</ele><time>2020-10-28T13:18:13Z</time><name>PT7180</name></trkpt>
<trkpt lat="53.087936" lon="-1.684784"><ele>216</ele><time>2020-10-28T13:18:14Z</time><name>PT7181</name></trkpt>
<trkpt lat="53.087942" lon="-1.684773"><ele>216</ele><time>2020-10-28T13:18:14Z</time><name>PT7182</name></trkpt>
<trkpt lat="53.087950" lon="-1.684760"><ele>217</ele><time>2020-10-28T13:18:16Z</time><name>PT7183</name></trkpt>
<trkpt lat="53.087951" lon="-1.684747"><ele>216</ele><time>2020-10-28T13:18:17Z</time><name>PT7184</name></trkpt>
<trkpt lat="53.087957" lon="-1.684733"><ele>216</ele><time>2020-10-28T13:18:17Z</time><name>PT7185</name></trkpt>
<trkpt lat="53.087957" lon="-1.684722"><ele>215</ele><time>2020-10-28T13:18:19Z</time><name>PT7186</name></trkpt>
<trkpt lat="53.087960" lon="-1.684705"><ele>215</ele><time>2020-10-28T13:18:20Z</time><name>PT7187</name></trkpt>
<trkpt lat="53.087972" lon="-1.684691"><ele>216</ele><time>2020-10-28T13:18:20Z</time><name>PT7188</name></trkpt>
<trkpt lat="53.087972" lon="-1.684673"><ele>216</ele><time>2020-10-28T13:18:22Z</time><name>PT7189</name></trkpt>
<trkpt lat="53.087975" lon="-1.684658"><ele>216</ele><time>2020-10-28T13:18:23Z</time><name>PT7190</name></trkpt>
<trkpt lat="53.087974" lon="-1.684644"><ele>215</ele><time>2020-10-28T13:18:23Z</time><name>PT7191</name></trkpt>
<trkpt lat="53.087977" lon="-1.684626"><ele>215</ele><time>2020-10-28T13:18:25Z</time><name>PT7192</name></trkpt>
<trkpt lat="53.087981" lon="-1.684604"><ele>216</ele><time>2020-10-28T13:18:26Z</time><name>PT7193</name></trkpt>
<trkpt lat="53.087984" lon="-1.684585"><ele>217</ele><time>2020-10-28T13:18:26Z</time><name>PT7194</name></trkpt>
<trkpt lat="53.087992" lon="-1.684569"><ele>217</ele><time>2020-10-28T13:18:28Z</time><name>PT7195</name></trkpt>
<trkpt lat="53.087997" lon="-1.684552"><ele>217</ele><time>2020-10-28T13:18:29Z</time><name>PT7196</name></trkpt>
<trkpt lat="53.088008" lon="-1.684537"><ele>217</ele><time>2020-10-28T13:18:29Z</time><name>PT7197</name></trkpt>
<trkpt lat="53.088016" lon="-1.684520"><ele>217</ele><time>2020-10-28T13:18:31Z</time><name>PT7198</name></trkpt>
<trkpt lat="53.088019" lon="-1.684502"><ele>217</ele><time>2020-10-28T13:18:32Z</time><name>PT7199</name></trkpt>
<trkpt lat="53.088023" lon="-1.684484"><ele>217</ele><time>2020-10-28T13:18:32Z</time><name>PT7200</name></trkpt>
<trkpt lat="53.088024" lon="-1.684470"><ele>217</ele><time>2020-10-28T13:18:34Z</time><name>PT7201</name></trkpt>
<trkpt lat="53.088023" lon="-1.684451"><ele>217</ele><time>2020-10-28T13:18:35Z</time><name>PT7202</name></trkpt>
<trkpt lat="53.088028" lon="-1.684437"><ele>218</ele><time>2020-10-28T13:18:35Z</time><name>PT7203</name></trkpt>
<trkpt lat="53.088027" lon="-1.684422"><ele>217</ele><time>2020-10-28T13:18:37Z</time><name>PT7204</name></trkpt>
<trkpt lat="53.088029" lon="-1.684406"><ele>218</ele><time>2020-10-28T13:18:38Z</time><name>PT7205</name></trkpt>
<trkpt lat="53.088029" lon="-1.684388"><ele>217</ele><time>2020-10-28T13:18:38Z</time><name>PT7206</name></trkpt>
<trkpt lat="53.088031" lon="-1.684374"><ele>217</ele><time>2020-10-28T13:18:40Z</time><name>PT7207</name></trkpt>
<trkpt lat="53.088028" lon="-1.684361"><ele>216</ele><time>2020-10-28T13:18:41Z</time><name>PT7208</name></trkpt>
<trkpt lat="53.088028" lon="-1.684344"><ele>216</ele><time>2020-10-28T13:18:41Z</time><name>PT7209</name></trkpt>
<trkpt lat="53.088027" lon="-1.684328"><ele>216</ele><time>2020-10-28T13:18:42Z</time><name>PT7210</name></trkpt>
<trkpt lat="53.088027" lon="-1.684310"><ele>216</ele><time>2020-10-28T13:18:44Z</time><name>PT7211</name></trkpt>
<trkpt lat="53.088029" lon="-1.684296"><ele>216</ele><time>2020-10-28T13:18:44Z</time><name>PT7212</name></trkpt>
<trkpt lat="53.088030" lon="-1.684281"><ele>216</ele><time>2020-10-28T13:18:46Z</time><name>PT7213</name></trkpt>
<trkpt lat="53.088033" lon="-1.684266"><ele>216</ele><time>2020-10-28T13:18:47Z</time><name>PT7214</name></trkpt>
<trkpt lat="53.088036" lon="-1.684247"><ele>217</ele><time>2020-10-28T13:18:47Z</time><name>PT7215</name></trkpt>
<trkpt lat="53.088039" lon="-1.684223"><ele>217</ele><time>2020-10-28T13:18:49Z</time><name>PT7216</name></trkpt>
<trkpt lat="53.088042" lon="-1.684200"><ele>219</ele><time>2020-10-28T13:18:50Z</time><name>PT7217</name></trkpt>
<trkpt lat="53.088043" lon="-1.684186"><ele>219</ele><time>2020-10-28T13:18:50Z</time><name>PT7218</name></trkpt>
<trkpt lat="53.088043" lon="-1.684171"><ele>220</ele><time>2020-10-28T13:18:52Z</time><name>PT7219</name></trkpt>
<trkpt lat="53.088044" lon="-1.684157"><ele>221</ele><time>2020-10-28T13:18:53Z</time><name>PT7220</name></trkpt>
<trkpt lat="53.088042" lon="-1.684144"><ele>221</ele><time>2020-10-28T13:18:53Z</time><name>PT7221</name></trkpt>
<trkpt lat="53.088038" lon="-1.684129"><ele>221</ele><time>2020-10-28T13:18:55Z</time><name>PT7222</name></trkpt>
<trkpt lat="53.088037" lon="-1.684113"><ele>221</ele><time>2020-10-28T13:18:56Z</time><name>PT7223</name></trkpt>
<trkpt lat="53.088033" lon="-1.684102"><ele>221</ele><time>2020-10-28T13:18:56Z</time><name>PT7224</name></trkpt>
<trkpt lat="53.088029" lon="-1.684084"><ele>221</ele><time>2020-10-28T13:18:58Z</time><name>PT7225</name></trkpt>
<trkpt lat="53.088026" lon="-1.684063"><ele>221</ele><time>2020-10-28T13:18:59Z</time><name>PT7226</name></trkpt>
<trkpt lat="53.088022" lon="-1.684048"><ele>221</ele><time>2020-10-28T13:18:59Z</time><name>PT7227</name></trkpt>
<trkpt lat="53.088018" lon="-1.684026"><ele>221</ele><time>2020-10-28T13:19:01Z</time><name>PT7228</name></trkpt>
<trkpt lat="53.088016" lon="-1.684001"><ele>221</ele><time>2020-10-28T13:19:02Z</time><name>PT7229</name></trkpt>
<trkpt lat="53.088010" lon="-1.683984"><ele>221</ele><time>2020-10-28T13:19:02Z</time><name>PT7230</name></trkpt>
<trkpt lat="53.088001" lon="-1.683956"><ele>221</ele><time>2020-10-28T13:19:04Z</time><name>PT7231</name></trkpt>
<trkpt lat="53.087995" lon="-1.683932"><ele>220</ele><time>2020-10-28T13:19:05Z</time><name>PT7232</name></trkpt>
<trkpt lat="53.087994" lon="-1.683915"><ele>221</ele><time>2020-10-28T13:19:05Z</time><name>PT7233</name></trkpt>
<trkpt lat="53.087992" lon="-1.683902"><ele>221</ele><time>2020-10-28T13:19:07Z</time><name>PT7234</name></trkpt>
<trkpt lat="53.087988" lon="-1.683886"><ele>220</ele><time>2020-10-28T13:19:08Z</time><name>PT7235</name></trkpt>
<trkpt lat="53.087985" lon="-1.683867"><ele>220</ele><time>2020-10-28T13:19:08Z</time><name>PT7236</name></trkpt>
<trkpt lat="53.087980" lon="-1.683853"><ele>220</ele><time>2020-10-28T13:19:10Z</time><name>PT7237</name></trkpt>
<trkpt lat="53.087974" lon="-1.683833"><ele>220</ele><time>2020-10-28T13:19:11Z</time><name>PT7238</name></trkpt>
<trkpt lat="53.087966" lon="-1.683817"><ele>219</ele><time>2020-10-28T13:19:11Z</time><name>PT7239</name></trkpt>
<trkpt lat="53.087961" lon="-1.683804"><ele>219</ele><time>2020-10-28T13:19:13Z</time><name>PT7240</name></trkpt>
<trkpt lat="53.087952" lon="-1.683788"><ele>218</ele><time>2020-10-28T13:19:14Z</time><name>PT7241</name></trkpt>
<trkpt lat="53.087946" lon="-1.683770"><ele>218</ele><time>2020-10-28T13:19:14Z</time><name>PT7242</name></trkpt>
<trkpt lat="53.087937" lon="-1.683754"><ele>218</ele><time>2020-10-28T13:19:16Z</time><name>PT7243</name></trkpt>
<trkpt lat="53.087931" lon="-1.683733"><ele>218</ele><time>2020-10-28T13:19:17Z</time><name>PT7244</name></trkpt>
<trkpt lat="53.087925" lon="-1.683712"><ele>218</ele><time>2020-10-28T13:19:17Z</time><name>PT7245</name></trkpt>
<trkpt lat="53.087921" lon="-1.683697"><ele>218</ele><time>2020-10-28T13:19:19Z</time><name>PT7246</name></trkpt>
<trkpt lat="53.087915" lon="-1.683679"><ele>218</ele><time>2020-10-28T13:19:20Z</time><name>PT7247</name></trkpt>
<trkpt lat="53.087913" lon="-1.683665"><ele>217</ele><time>2020-10-28T13:19:20Z</time><name>PT7248</name></trkpt>
<trkpt lat="53.087909" lon="-1.683647"><ele>218</ele><time>2020-10-28T13:19:21Z</time><name>PT7249</name></trkpt>
<trkpt lat="53.087910" lon="-1.683632"><ele>218</ele><time>2020-10-28T13:19:23Z</time><name>PT7250</name></trkpt>
<trkpt lat="53.087905" lon="-1.683613"><ele>218</ele><time>2020-10-28T13:19:24Z</time><name>PT7251</name></trkpt>
<trkpt lat="53.087896" lon="-1.683590"><ele>219</ele><time>2020-10-28T13:19:25Z</time><name>PT7252</name></trkpt>
<trkpt lat="53.087888" lon="-1.683570"><ele>219</ele><time>2020-10-28T13:19:26Z</time><name>PT7253</name></trkpt>
<trkpt lat="53.087884" lon="-1.683548"><ele>219</ele><time>2020-10-28T13:19:27Z</time><name>PT7254</name></trkpt>
<trkpt lat="53.087879" lon="-1.683530"><ele>219</ele><time>2020-10-28T13:19:28Z</time><name>PT7255</name></trkpt>
<trkpt lat="53.087872" lon="-1.683509"><ele>219</ele><time>2020-10-28T13:19:29Z</time><name>PT7256</name></trkpt>
<trkpt lat="53.087863" lon="-1.683485"><ele>219</ele><time>2020-10-28T13:19:29Z</time><name>PT7257</name></trkpt>
<trkpt lat="53.087856" lon="-1.683468"><ele>219</ele><time>2020-10-28T13:19:31Z</time><name>PT7258</name></trkpt>
<trkpt lat="53.087851" lon="-1.683449"><ele>219</ele><time>2020-10-28T13:19:32Z</time><name>PT7259</name></trkpt>
<trkpt lat="53.087845" lon="-1.683428"><ele>219</ele><time>2020-10-28T13:19:32Z</time><name>PT7260</name></trkpt>
<trkpt lat="53.087838" lon="-1.683408"><ele>220</ele><time>2020-10-28T13:19:34Z</time><name>PT7261</name></trkpt>
<trkpt lat="53.087829" lon="-1.683387"><ele>220</ele><time>2020-10-28T13:19:35Z</time><name>PT7262</name></trkpt>
<trkpt lat="53.087822" lon="-1.683366"><ele>219</ele><time>2020-10-28T13:19:35Z</time><name>PT7263</name></trkpt>
<trkpt lat="53.087813" lon="-1.683345"><ele>219</ele><time>2020-10-28T13:19:37Z</time><name>PT7264</name></trkpt>
<trkpt lat="53.087806" lon="-1.683324"><ele>219</ele><time>2020-10-28T13:19:38Z</time><name>PT7265</name></trkpt>
<trkpt lat="53.087799" lon="-1.683307"><ele>219</ele><time>2020-10-28T13:19:38Z</time><name>PT7266</name></trkpt>
<trkpt lat="53.087790" lon="-1.683289"><ele>220</ele><time>2020-10-28T13:19:40Z</time><name>PT7267</name></trkpt>
<trkpt lat="53.087785" lon="-1.683269"><ele>220</ele><time>2020-10-28T13:19:41Z</time><name>PT7268</name></trkpt>
<trkpt lat="53.087777" lon="-1.683250"><ele>219</ele><time>2020-10-28T13:19:41Z</time><name>PT7269</name></trkpt>
<trkpt lat="53.087772" lon="-1.683234"><ele>220</ele><time>2020-10-28T13:19:43Z</time><name>PT7270</name></trkpt>
<trkpt lat="53.087764" lon="-1.683222"><ele>219</ele><time>2020-10-28T13:19:44Z</time><name>PT7271</name></trkpt>
<trkpt lat="53.087757" lon="-1.683204"><ele>219</ele><time>2020-10-28T13:19:44Z</time><name>PT7272</name></trkpt>
<trkpt lat="53.087753" lon="-1.683187"><ele>219</ele><time>2020-10-28T13:19:46Z</time><name>PT7273</name></trkpt>
<trkpt lat="53.087749" lon="-1.683168"><ele>220</ele><time>2020-10-28T13:19:47Z</time><name>PT7274</name></trkpt>
<trkpt lat="53.087744" lon="-1.683146"><ele>220</ele><time>2020-10-28T13:19:47Z</time><name>PT7275</name></trkpt>
<trkpt lat="53.087739" lon="-1.683127"><ele>220</ele><time>2020-10-28T13:19:49Z</time><name>PT7276</name></trkpt>
<trkpt lat="53.087733" lon="-1.683109"><ele>220</ele><time>2020-10-28T13:19:50Z</time><name>PT7277</name></trkpt>
<trkpt lat="53.087727" lon="-1.683091"><ele>220</ele><time>2020-10-28T13:19:50Z</time><name>PT7278</name></trkpt>
<trkpt lat="53.087722" lon="-1.683070"><ele>221</ele><time>2020-10-28T13:19:52Z</time><name>PT7279</name></trkpt>
<trkpt lat="53.087718" lon="-1.683051"><ele>221</ele><time>2020-10-28T13:19:53Z</time><name>PT7280</name></trkpt>
<trkpt lat="53.087712" lon="-1.683031"><ele>221</ele><time>2020-10-28T13:19:53Z</time><name>PT7281</name></trkpt>
<trkpt lat="53.087707" lon="-1.683012"><ele>221</ele><time>2020-10-28T13:19:55Z</time><name>PT7282</name></trkpt>
<trkpt lat="53.087701" lon="-1.682992"><ele>221</ele><time>2020-10-28T13:19:56Z</time><name>PT7283</name></trkpt>
<trkpt lat="53.087693" lon="-1.682974"><ele>220</ele><time>2020-10-28T13:19:56Z</time><name>PT7284</name></trkpt>
<trkpt lat="53.087687" lon="-1.682957"><ele>221</ele><time>2020-10-28T13:19:58Z</time><name>PT7285</name></trkpt>
<trkpt lat="53.087684" lon="-1.682937"><ele>221</ele><time>2020-10-28T13:19:59Z</time><name>PT7286</name></trkpt>
<trkpt lat="53.087681" lon="-1.682918"><ele>221</ele><time>2020-10-28T13:19:59Z</time><name>PT7287</name></trkpt>
<trkpt lat="53.087679" lon="-1.682895"><ele>222</ele><time>2020-10-28T13:20:01Z</time><name>PT7288</name></trkpt>
<trkpt lat="53.087673" lon="-1.682880"><ele>222</ele><time>2020-10-28T13:20:02Z</time><name>PT7289</name></trkpt>
<trkpt lat="53.087669" lon="-1.682863"><ele>223</ele><time>2020-10-28T13:20:02Z</time><name>PT7290</name></trkpt>
<trkpt lat="53.087668" lon="-1.682838"><ele>225</ele><time>2020-10-28T13:20:04Z</time><name>PT7291</name></trkpt>
<trkpt lat="53.087665" lon="-1.682814"><ele>225</ele><time>2020-10-28T13:20:05Z</time><name>PT7292</name></trkpt>
<trkpt lat="53.087665" lon="-1.682792"><ele>227</ele><time>2020-10-28T13:20:05Z</time><name>PT7293</name></trkpt>
<trkpt lat="53.087662" lon="-1.682772"><ele>226</ele><time>2020-10-28T13:20:07Z</time><name>PT7294</name></trkpt>
<trkpt lat="53.087659" lon="-1.682752"><ele>227</ele><time>2020-10-28T13:20:08Z</time><name>PT7295</name></trkpt>
<trkpt lat="53.087652" lon="-1.682733"><ele>226</ele><time>2020-10-28T13:20:08Z</time><name>PT7296</name></trkpt>
<trkpt lat="53.087647" lon="-1.682712"><ele>226</ele><time>2020-10-28T13:20:10Z</time><name>PT7297</name></trkpt>
<trkpt lat="53.087643" lon="-1.682693"><ele>225</ele><time>2020-10-28T13:20:11Z</time><name>PT7298</name></trkpt>
<trkpt lat="53.087634" lon="-1.682676"><ele>224</ele><time>2020-10-28T13:20:11Z</time><name>PT7299</name></trkpt>
<trkpt lat="53.087629" lon="-1.682655"><ele>223</ele><time>2020-10-28T13:20:12Z</time><name>PT7300</name></trkpt>
<trkpt lat="53.087623" lon="-1.682634"><ele>223</ele><time>2020-10-28T13:20:14Z</time><name>PT7301</name></trkpt>
<trkpt lat="53.087619" lon="-1.682614"><ele>223</ele><time>2020-10-28T13:20:14Z</time><name>PT7302</name></trkpt>
<trkpt lat="53.087615" lon="-1.682595"><ele>223</ele><time>2020-10-28T13:20:16Z</time><name>PT7303</name></trkpt>
<trkpt lat="53.087612" lon="-1.682581"><ele>223</ele><time>2020-10-28T13:20:17Z</time><name>PT7304</name></trkpt>
<trkpt lat="53.087606" lon="-1.682562"><ele>223</ele><time>2020-10-28T13:20:18Z</time><name>PT7305</name></trkpt>
<trkpt lat="53.087599" lon="-1.682543"><ele>222</ele><time>2020-10-28T13:20:19Z</time><name>PT7306</name></trkpt>
<trkpt lat="53.087595" lon="-1.682524"><ele>222</ele><time>2020-10-28T13:20:20Z</time><name>PT7307</name></trkpt>
<trkpt lat="53.087592" lon="-1.682502"><ele>222</ele><time>2020-10-28T13:20:20Z</time><name>PT7308</name></trkpt>
<trkpt lat="53.087587" lon="-1.682481"><ele>222</ele><time>2020-10-28T13:20:22Z</time><name>PT7309</name></trkpt>
<trkpt lat="53.087583" lon="-1.682461"><ele>222</ele><time>2020-10-28T13:20:23Z</time><name>PT7310</name></trkpt>
<trkpt lat="53.087579" lon="-1.682440"><ele>222</ele><time>2020-10-28T13:20:23Z</time><name>PT7311</name></trkpt>
<trkpt lat="53.087576" lon="-1.682418"><ele>222</ele><time>2020-10-28T13:20:25Z</time><name>PT7312</name></trkpt>
<trkpt lat="53.087573" lon="-1.682395"><ele>223</ele><time>2020-10-28T13:20:26Z</time><name>PT7313</name></trkpt>
<trkpt lat="53.087570" lon="-1.682371"><ele>223</ele><time>2020-10-28T13:20:26Z</time><name>PT7314</name></trkpt>
<trkpt lat="53.087567" lon="-1.682349"><ele>223</ele><time>2020-10-28T13:20:28Z</time><name>PT7315</name></trkpt>
<trkpt lat="53.087562" lon="-1.682329"><ele>223</ele><time>2020-10-28T13:20:29Z</time><name>PT7316</name></trkpt>
<trkpt lat="53.087558" lon="-1.682306"><ele>223</ele><time>2020-10-28T13:20:29Z</time><name>PT7317</name></trkpt>
<trkpt lat="53.087554" lon="-1.682285"><ele>224</ele><time>2020-10-28T13:20:31Z</time><name>PT7318</name></trkpt>
<trkpt lat="53.087552" lon="-1.682263"><ele>224</ele><time>2020-10-28T13:20:32Z</time><name>PT7319</name></trkpt>
<trkpt lat="53.087549" lon="-1.682240"><ele>224</ele><time>2020-10-28T13:20:32Z</time><name>PT7320</name></trkpt>
<trkpt lat="53.087546" lon="-1.682224"><ele>224</ele><time>2020-10-28T13:20:34Z</time><name>PT7321</name></trkpt>
<trkpt lat="53.087543" lon="-1.682204"><ele>224</ele><time>2020-10-28T13:20:35Z</time><name>PT7322</name></trkpt>
<trkpt lat="53.087539" lon="-1.682182"><ele>224</ele><time>2020-10-28T13:20:35Z</time><name>PT7323</name></trkpt>
<trkpt lat="53.087537" lon="-1.682161"><ele>224</ele><time>2020-10-28T13:20:37Z</time><name>PT7324</name></trkpt>
<trkpt lat="53.087534" lon="-1.682139"><ele>224</ele><time>2020-10-28T13:20:38Z</time><name>PT7325</name></trkpt>
<trkpt lat="53.087531" lon="-1.682117"><ele>224</ele><time>2020-10-28T13:20:38Z</time><name>PT7326</name></trkpt>
<trkpt lat="53.087527" lon="-1.682098"><ele>224</ele><time>2020-10-28T13:20:40Z</time><name>PT7327</name></trkpt>
<trkpt lat="53.087524" lon="-1.682077"><ele>224</ele><time>2020-10-28T13:20:41Z</time><name>PT7328</name></trkpt>
<trkpt lat="53.087522" lon="-1.682055"><ele>224</ele><time>2020-10-28T13:20:41Z</time><name>PT7329</name></trkpt>
<trkpt lat="53.087520" lon="-1.682034"><ele>225</ele><time>2020-10-28T13:20:43Z</time><name>PT7330</name></trkpt>
<trkpt lat="53.087517" lon="-1.682014"><ele>225</ele><time>2020-10-28T13:20:44Z</time><name>PT7331</name></trkpt>
<trkpt lat="53.087514" lon="-1.681995"><ele>225</ele><time>2020-10-28T13:20:44Z</time><name>PT7332</name></trkpt>
<trkpt lat="53.087510" lon="-1.681978"><ele>225</ele><time>2020-10-28T13:20:46Z</time><name>PT7333</name></trkpt>
<trkpt lat="53.087506" lon="-1.681957"><ele>225</ele><time>2020-10-28T13:20:47Z</time><name>PT7334</name></trkpt>
<trkpt lat="53.087503" lon="-1.681934"><ele>225</ele><time>2020-10-28T13:20:47Z</time><name>PT7335</name></trkpt>
<trkpt lat="53.087499" lon="-1.681913"><ele>225</ele><time>2020-10-28T13:20:49Z</time><name>PT7336</name></trkpt>
<trkpt lat="53.087489" lon="-1.681829"><ele>225</ele><time>2020-10-28T13:20:53Z</time><name>PT7337</name></trkpt>
<trkpt lat="53.087477" lon="-1.681744"><ele>225</ele><time>2020-10-28T13:20:56Z</time><name>PT7338</name></trkpt>
<trkpt lat="53.087466" lon="-1.681665"><ele>225</ele><time>2020-10-28T13:21:00Z</time><name>PT7339</name></trkpt>
<trkpt lat="53.087460" lon="-1.681601"><ele>225</ele><time>2020-10-28T13:21:04Z</time><name>PT7340</name></trkpt>
<trkpt lat="53.087452" lon="-1.681535"><ele>225</ele><time>2020-10-28T13:21:07Z</time><name>PT7341</name></trkpt>
<trkpt lat="53.087441" lon="-1.681455"><ele>226</ele><time>2020-10-28T13:21:11Z</time><name>PT7342</name></trkpt>
<trkpt lat="53.087433" lon="-1.681394"><ele>226</ele><time>2020-10-28T13:21:14Z</time><name>PT7343</name></trkpt>
<trkpt lat="53.087422" lon="-1.681320"><ele>226</ele><time>2020-10-28T13:21:17Z</time><name>PT7344</name></trkpt>
<trkpt lat="53.087417" lon="-1.681255"><ele>227</ele><time>2020-10-28T13:21:20Z</time><name>PT7345</name></trkpt>
<trkpt lat="53.087408" lon="-1.681171"><ele>228</ele><time>2020-10-28T13:21:25Z</time><name>PT7346</name></trkpt>
<trkpt lat="53.087401" lon="-1.681118"><ele>228</ele><time>2020-10-28T13:21:28Z</time><name>PT7347</name></trkpt>
<trkpt lat="53.087391" lon="-1.681049"><ele>229</ele><time>2020-10-28T13:21:32Z</time><name>PT7348</name></trkpt>
<trkpt lat="53.087381" lon="-1.680969"><ele>229</ele><time>2020-10-28T13:21:35Z</time><name>PT7349</name></trkpt>
<trkpt lat="53.087373" lon="-1.680890"><ele>230</ele><time>2020-10-28T13:21:40Z</time><name>PT7350</name></trkpt>
<trkpt lat="53.087365" lon="-1.680829"><ele>230</ele><time>2020-10-28T13:21:43Z</time><name>PT7351</name></trkpt>
<trkpt lat="53.087356" lon="-1.680748"><ele>230</ele><time>2020-10-28T13:21:47Z</time><name>PT7352</name></trkpt>
<trkpt lat="53.087350" lon="-1.680694"><ele>231</ele><time>2020-10-28T13:21:50Z</time><name>PT7353</name></trkpt>
<trkpt lat="53.087337" lon="-1.680619"><ele>231</ele><time>2020-10-28T13:21:53Z</time><name>PT7354</name></trkpt>
<trkpt lat="53.087326" lon="-1.680560"><ele>230</ele><time>2020-10-28T13:21:56Z</time><name>PT7355</name></trkpt>
<trkpt lat="53.087317" lon="-1.680484"><ele>231</ele><time>2020-10-28T13:22:01Z</time><name>PT7356</name></trkpt>
<trkpt lat="53.087294" lon="-1.680401"><ele>231</ele><time>2020-10-28T13:22:05Z</time><name>PT7357</name></trkpt>
<trkpt lat="53.087287" lon="-1.680339"><ele>231</ele><time>2020-10-28T13:22:08Z</time><name>PT7358</name></trkpt>
<trkpt lat="53.087282" lon="-1.680290"><ele>232</ele><time>2020-10-28T13:22:11Z</time><name>PT7359</name></trkpt>
<trkpt lat="53.087276" lon="-1.680227"><ele>233</ele><time>2020-10-28T13:22:14Z</time><name>PT7360</name></trkpt>
<trkpt lat="53.087266" lon="-1.680157"><ele>234</ele><time>2020-10-28T13:22:17Z</time><name>PT7361</name></trkpt>
<trkpt lat="53.087255" lon="-1.680104"><ele>235</ele><time>2020-10-28T13:22:20Z</time><name>PT7362</name></trkpt>
<trkpt lat="53.087249" lon="-1.680047"><ele>236</ele><time>2020-10-28T13:22:23Z</time><name>PT7363</name></trkpt>
<trkpt lat="53.087239" lon="-1.679963"><ele>236</ele><time>2020-10-28T13:22:28Z</time><name>PT7364</name></trkpt>
<trkpt lat="53.087226" lon="-1.679892"><ele>236</ele><time>2020-10-28T13:22:32Z</time><name>PT7365</name></trkpt>
<trkpt lat="53.087221" lon="-1.679834"><ele>235</ele><time>2020-10-28T13:22:35Z</time><name>PT7366</name></trkpt>
<trkpt lat="53.087205" lon="-1.679759"><ele>235</ele><time>2020-10-28T13:22:38Z</time><name>PT7367</name></trkpt>
<trkpt lat="53.087193" lon="-1.679683"><ele>235</ele><time>2020-10-28T13:22:43Z</time><name>PT7368</name></trkpt>
<trkpt lat="53.087184" lon="-1.679628"><ele>234</ele><time>2020-10-28T13:22:46Z</time><name>PT7369</name></trkpt>
<trkpt lat="53.087177" lon="-1.679579"><ele>234</ele><time>2020-10-28T13:22:49Z</time><name>PT7370</name></trkpt>
<trkpt lat="53.087170" lon="-1.679517"><ele>234</ele><time>2020-10-28T13:22:52Z</time><name>PT7371</name></trkpt>
<trkpt lat="53.087160" lon="-1.679435"><ele>235</ele><time>2020-10-28T13:22:56Z</time><name>PT7372</name></trkpt>
<trkpt lat="53.087154" lon="-1.679369"><ele>235</ele><time>2020-10-28T13:22:59Z</time><name>PT7373</name></trkpt>
<trkpt lat="53.087146" lon="-1.679312"><ele>236</ele><time>2020-10-28T13:23:02Z</time><name>PT7374</name></trkpt>
<trkpt lat="53.087126" lon="-1.679240"><ele>234</ele><time>2020-10-28T13:23:05Z</time><name>PT7375</name></trkpt>
<trkpt lat="53.087115" lon="-1.679183"><ele>234</ele><time>2020-10-28T13:23:08Z</time><name>PT7376</name></trkpt>
<trkpt lat="53.087105" lon="-1.679135"><ele>234</ele><time>2020-10-28T13:23:11Z</time><name>PT7377</name></trkpt>
<trkpt lat="53.087099" lon="-1.679079"><ele>235</ele><time>2020-10-28T13:23:14Z</time><name>PT7378</name></trkpt>
<trkpt lat="53.087091" lon="-1.679028"><ele>236</ele><time>2020-10-28T13:23:19Z</time><name>PT7379</name></trkpt>
<trkpt lat="53.087087" lon="-1.678948"><ele>237</ele><time>2020-10-28T13:23:23Z</time><name>PT7380</name></trkpt>
<trkpt lat="53.087079" lon="-1.678898"><ele>237</ele><time>2020-10-28T13:23:26Z</time><name>PT7381</name></trkpt>
<trkpt lat="53.087071" lon="-1.678841"><ele>236</ele><time>2020-10-28T13:23:29Z</time><name>PT7382</name></trkpt>
<trkpt lat="53.087062" lon="-1.678763"><ele>237</ele><time>2020-10-28T13:23:32Z</time><name>PT7383</name></trkpt>
<trkpt lat="53.087051" lon="-1.678710"><ele>237</ele><time>2020-10-28T13:23:35Z</time><name>PT7384</name></trkpt>
<trkpt lat="53.087045" lon="-1.678651"><ele>237</ele><time>2020-10-28T13:23:38Z</time><name>PT7385</name></trkpt>
<trkpt lat="53.087034" lon="-1.678593"><ele>237</ele><time>2020-10-28T13:23:41Z</time><name>PT7386</name></trkpt>
<trkpt lat="53.087021" lon="-1.678507"><ele>237</ele><time>2020-10-28T13:23:46Z</time><name>PT7387</name></trkpt>
<trkpt lat="53.087015" lon="-1.678445"><ele>238</ele><time>2020-10-28T13:23:49Z</time><name>PT7388</name></trkpt>
<trkpt lat="53.087002" lon="-1.678374"><ele>238</ele><time>2020-10-28T13:23:53Z</time><name>PT7389</name></trkpt>
<trkpt lat="53.086988" lon="-1.678292"><ele>238</ele><time>2020-10-28T13:23:56Z</time><name>PT7390</name></trkpt>
<trkpt lat="53.086979" lon="-1.678228"><ele>239</ele><time>2020-10-28T13:23:59Z</time><name>PT7391</name></trkpt>
<trkpt lat="53.086967" lon="-1.678172"><ele>238</ele><time>2020-10-28T13:24:02Z</time><name>PT7392</name></trkpt>
<trkpt lat="53.086953" lon="-1.678087"><ele>238</ele><time>2020-10-28T13:24:07Z</time><name>PT7393</name></trkpt>
<trkpt lat="53.086938" lon="-1.678004"><ele>239</ele><time>2020-10-28T13:24:11Z</time><name>PT7394</name></trkpt>
<trkpt lat="53.086923" lon="-1.677946"><ele>239</ele><time>2020-10-28T13:24:14Z</time><name>PT7395</name></trkpt>
<trkpt lat="53.086909" lon="-1.677885"><ele>239</ele><time>2020-10-28T13:24:17Z</time><name>PT7396</name></trkpt>
<trkpt lat="53.086896" lon="-1.677831"><ele>239</ele><time>2020-10-28T13:24:20Z</time><name>PT7397</name></trkpt>
<trkpt lat="53.086878" lon="-1.677758"><ele>239</ele><time>2020-10-28T13:24:25Z</time><name>PT7398</name></trkpt>
<trkpt lat="53.086853" lon="-1.677679"><ele>239</ele><time>2020-10-28T13:24:29Z</time><name>PT7399</name></trkpt>
<trkpt lat="53.086837" lon="-1.677625"><ele>240</ele><time>2020-10-28T13:24:32Z</time><name>PT7400</name></trkpt>
<trkpt lat="53.086818" lon="-1.677556"><ele>239</ele><time>2020-10-28T13:24:35Z</time><name>PT7401</name></trkpt>
<trkpt lat="53.086798" lon="-1.677485"><ele>240</ele><time>2020-10-28T13:24:40Z</time><name>PT7402</name></trkpt>
<trkpt lat="53.086784" lon="-1.677437"><ele>240</ele><time>2020-10-28T13:24:43Z</time><name>PT7403</name></trkpt>
<trkpt lat="53.086771" lon="-1.677364"><ele>241</ele><time>2020-10-28T13:24:47Z</time><name>PT7404</name></trkpt>
<trkpt lat="53.086758" lon="-1.677325"><ele>242</ele><time>2020-10-28T13:24:50Z</time><name>PT7405</name></trkpt>
<trkpt lat="53.086730" lon="-1.677249"><ele>242</ele><time>2020-10-28T13:24:53Z</time><name>PT7406</name></trkpt>
<trkpt lat="53.086713" lon="-1.677191"><ele>242</ele><time>2020-10-28T13:24:56Z</time><name>PT7407</name></trkpt>
<trkpt lat="53.086694" lon="-1.677113"><ele>242</ele><time>2020-10-28T13:25:01Z</time><name>PT7408</name></trkpt>
<trkpt lat="53.086679" lon="-1.677057"><ele>242</ele><time>2020-10-28T13:25:04Z</time><name>PT7409</name></trkpt>
<trkpt lat="53.086671" lon="-1.676977"><ele>242</ele><time>2020-10-28T13:25:08Z</time><name>PT7410</name></trkpt>
<trkpt lat="53.086676" lon="-1.676951"><ele>243</ele><time>2020-10-28T13:25:11Z</time><name>PT7411</name></trkpt>
<trkpt lat="53.086675" lon="-1.676943"><ele>243</ele><time>2020-10-28T13:25:14Z</time><name>PT7412</name></trkpt>
<trkpt lat="53.086650" lon="-1.676902"><ele>243</ele><time>2020-10-28T13:25:18Z</time><name>PT7413</name></trkpt>
<trkpt lat="53.086623" lon="-1.676830"><ele>243</ele><time>2020-10-28T13:25:22Z</time><name>PT7414</name></trkpt>
<trkpt lat="53.086607" lon="-1.676767"><ele>243</ele><time>2020-10-28T13:25:25Z</time><name>PT7415</name></trkpt>
<trkpt lat="53.086590" lon="-1.676678"><ele>243</ele><time>2020-10-28T13:25:29Z</time><name>PT7416</name></trkpt>
<trkpt lat="53.086570" lon="-1.676587"><ele>244</ele><time>2020-10-28T13:25:32Z</time><name>PT7417</name></trkpt>
<trkpt lat="53.086557" lon="-1.676502"><ele>245</ele><time>2020-10-28T13:25:37Z</time><name>PT7418</name></trkpt>
<trkpt lat="53.086541" lon="-1.676441"><ele>245</ele><time>2020-10-28T13:25:40Z</time><name>PT7419</name></trkpt>
<trkpt lat="53.086534" lon="-1.676381"><ele>246</ele><time>2020-10-28T13:25:43Z</time><name>PT7420</name></trkpt>
<trkpt lat="53.086521" lon="-1.676301"><ele>246</ele><time>2020-10-28T13:25:47Z</time><name>PT7421</name></trkpt>
<trkpt lat="53.086512" lon="-1.676226"><ele>247</ele><time>2020-10-28T13:25:50Z</time><name>PT7422</name></trkpt>
<trkpt lat="53.086501" lon="-1.676146"><ele>248</ele><time>2020-10-28T13:25:54Z</time><name>PT7423</name></trkpt>
<trkpt lat="53.086495" lon="-1.676086"><ele>247</ele><time>2020-10-28T13:25:58Z</time><name>PT7424</name></trkpt>
<trkpt lat="53.086486" lon="-1.676028"><ele>248</ele><time>2020-10-28T13:26:01Z</time><name>PT7425</name></trkpt>
<trkpt lat="53.086483" lon="-1.675947"><ele>249</ele><time>2020-10-28T13:26:05Z</time><name>PT7426</name></trkpt>
<trkpt lat="53.086471" lon="-1.675897"><ele>248</ele><time>2020-10-28T13:26:08Z</time><name>PT7427</name></trkpt>
<trkpt lat="53.086459" lon="-1.675823"><ele>248</ele><time>2020-10-28T13:26:11Z</time><name>PT7428</name></trkpt>
<trkpt lat="53.086451" lon="-1.675747"><ele>250</ele><time>2020-10-28T13:26:16Z</time><name>PT7429</name></trkpt>
<trkpt lat="53.086442" lon="-1.675689"><ele>250</ele><time>2020-10-28T13:26:19Z</time><name>PT7430</name></trkpt>
<trkpt lat="53.086432" lon="-1.675620"><ele>249</ele><time>2020-10-28T13:26:23Z</time><name>PT7431</name></trkpt>
<trkpt lat="53.086426" lon="-1.675567"><ele>249</ele><time>2020-10-28T13:26:26Z</time><name>PT7432</name></trkpt>
<trkpt lat="53.086423" lon="-1.675483"><ele>250</ele><time>2020-10-28T13:26:29Z</time><name>PT7433</name></trkpt>
<trkpt lat="53.086412" lon="-1.675432"><ele>250</ele><time>2020-10-28T13:26:32Z</time><name>PT7434</name></trkpt>
<trkpt lat="53.086395" lon="-1.675404"><ele>251</ele><time>2020-10-28T13:26:35Z</time><name>PT7435</name></trkpt>
<trkpt lat="53.086392" lon="-1.675394"><ele>252</ele><time>2020-10-28T13:26:40Z</time><name>PT7436</name></trkpt>
<trkpt lat="53.086394" lon="-1.675388"><ele>251</ele><time>2020-10-28T13:26:44Z</time><name>PT7437</name></trkpt>
<trkpt lat="53.086401" lon="-1.675332"><ele>252</ele><time>2020-10-28T13:26:47Z</time><name>PT7438</name></trkpt>
<trkpt lat="53.086403" lon="-1.675259"><ele>251</ele><time>2020-10-28T13:26:50Z</time><name>PT7439</name></trkpt>
<trkpt lat="53.086415" lon="-1.675173"><ele>251</ele><time>2020-10-28T13:26:53Z</time><name>PT7440</name></trkpt>
<trkpt lat="53.086422" lon="-1.675116"><ele>251</ele><time>2020-10-28T13:26:57Z</time><name>PT7441</name></trkpt>
<trkpt lat="53.086430" lon="-1.675037"><ele>252</ele><time>2020-10-28T13:27:01Z</time><name>PT7442</name></trkpt>
<trkpt lat="53.086429" lon="-1.674975"><ele>252</ele><time>2020-10-28T13:27:04Z</time><name>PT7443</name></trkpt>
<trkpt lat="53.086439" lon="-1.674895"><ele>252</ele><time>2020-10-28T13:27:08Z</time><name>PT7444</name></trkpt>
<trkpt lat="53.086440" lon="-1.674840"><ele>252</ele><time>2020-10-28T13:27:11Z</time><name>PT7445</name></trkpt>
<trkpt lat="53.086447" lon="-1.674780"><ele>252</ele><time>2020-10-28T13:27:14Z</time><name>PT7446</name></trkpt>
<trkpt lat="53.086446" lon="-1.674720"><ele>253</ele><time>2020-10-28T13:27:17Z</time><name>PT7447</name></trkpt>
<trkpt lat="53.086451" lon="-1.674644"><ele>253</ele><time>2020-10-28T13:27:20Z</time><name>PT7448</name></trkpt>
<trkpt lat="53.086459" lon="-1.674569"><ele>254</ele><time>2020-10-28T13:27:25Z</time><name>PT7449</name></trkpt>
<trkpt lat="53.086464" lon="-1.674490"><ele>253</ele><time>2020-10-28T13:27:29Z</time><name>PT7450</name></trkpt>
<trkpt lat="53.086472" lon="-1.674416"><ele>253</ele><time>2020-10-28T13:27:32Z</time><name>PT7451</name></trkpt>
<trkpt lat="53.086481" lon="-1.674342"><ele>253</ele><time>2020-10-28T13:27:37Z</time><name>PT7452</name></trkpt>
<trkpt lat="53.086495" lon="-1.674272"><ele>252</ele><time>2020-10-28T13:27:41Z</time><name>PT7453</name></trkpt>
<trkpt lat="53.086498" lon="-1.674190"><ele>253</ele><time>2020-10-28T13:27:44Z</time><name>PT7454</name></trkpt>
<trkpt lat="53.086495" lon="-1.674115"><ele>254</ele><time>2020-10-28T13:27:49Z</time><name>PT7455</name></trkpt>
<trkpt lat="53.086500" lon="-1.674040"><ele>255</ele><time>2020-10-28T13:27:53Z</time><name>PT7456</name></trkpt>
<trkpt lat="53.086507" lon="-1.673959"><ele>255</ele><time>2020-10-28T13:27:56Z</time><name>PT7457</name></trkpt>
<trkpt lat="53.086514" lon="-1.673908"><ele>257</ele><time>2020-10-28T13:28:01Z</time><name>PT7458</name></trkpt>
<trkpt lat="53.086527" lon="-1.673877"><ele>257</ele><time>2020-10-28T13:28:04Z</time><name>PT7459</name></trkpt>
<trkpt lat="53.086537" lon="-1.673858"><ele>259</ele><time>2020-10-28T13:28:07Z</time><name>PT7460</name></trkpt>
<trkpt lat="53.086545" lon="-1.673854"><ele>259</ele><time>2020-10-28T13:28:11Z</time><name>PT7461</name></trkpt>
<trkpt lat="53.086549" lon="-1.673839"><ele>260</ele><time>2020-10-28T13:28:14Z</time><name>PT7462</name></trkpt>
<trkpt lat="53.086548" lon="-1.673833"><ele>260</ele><time>2020-10-28T13:28:17Z</time><name>PT7463</name></trkpt>
<trkpt lat="53.086547" lon="-1.673780"><ele>260</ele><time>2020-10-28T13:28:36Z</time><name>PT7464</name></trkpt>
<trkpt lat="53.086543" lon="-1.673678"><ele>261</ele><time>2020-10-28T13:28:40Z</time><name>PT7465</name></trkpt>
<trkpt lat="53.086548" lon="-1.673589"><ele>260</ele><time>2020-10-28T13:28:44Z</time><name>PT7466</name></trkpt>
<trkpt lat="53.086550" lon="-1.673507"><ele>259</ele><time>2020-10-28T13:28:47Z</time><name>PT7467</name></trkpt>
<trkpt lat="53.086553" lon="-1.673445"><ele>259</ele><time>2020-10-28T13:28:50Z</time><name>PT7468</name></trkpt>
<trkpt lat="53.086556" lon="-1.673356"><ele>258</ele><time>2020-10-28T13:28:55Z</time><name>PT7469</name></trkpt>
<trkpt lat="53.086570" lon="-1.673254"><ele>259</ele><time>2020-10-28T13:28:59Z</time><name>PT7470</name></trkpt>
<trkpt lat="53.086583" lon="-1.673159"><ele>260</ele><time>2020-10-28T13:29:02Z</time><name>PT7471</name></trkpt>
<trkpt lat="53.086592" lon="-1.673066"><ele>260</ele><time>2020-10-28T13:29:07Z</time><name>PT7472</name></trkpt>
<trkpt lat="53.086594" lon="-1.673045"><ele>261</ele><time>2020-10-28T13:29:08Z</time><name>PT7473</name></trkpt>
<trkpt lat="53.086595" lon="-1.673024"><ele>261</ele><time>2020-10-28T13:29:08Z</time><name>PT7474</name></trkpt>
<trkpt lat="53.086597" lon="-1.672999"><ele>261</ele><time>2020-10-28T13:29:10Z</time><name>PT7475</name></trkpt>
<trkpt lat="53.086600" lon="-1.672974"><ele>261</ele><time>2020-10-28T13:29:11Z</time><name>PT7476</name></trkpt>
<trkpt lat="53.086602" lon="-1.672950"><ele>261</ele><time>2020-10-28T13:29:11Z</time><name>PT7477</name></trkpt>
<trkpt lat="53.086605" lon="-1.672924"><ele>261</ele><time>2020-10-28T13:29:13Z</time><name>PT7478</name></trkpt>
<trkpt lat="53.086608" lon="-1.672898"><ele>261</ele><time>2020-10-28T13:29:14Z</time><name>PT7479</name></trkpt>
<trkpt lat="53.086611" lon="-1.672875"><ele>261</ele><time>2020-10-28T13:29:14Z</time><name>PT7480</name></trkpt>
<trkpt lat="53.086613" lon="-1.672852"><ele>261</ele><time>2020-10-28T13:29:16Z</time><name>PT7481</name></trkpt>
<trkpt lat="53.086614" lon="-1.672827"><ele>261</ele><time>2020-10-28T13:29:17Z</time><name>PT7482</name></trkpt>
<trkpt lat="53.086616" lon="-1.672804"><ele>261</ele><time>2020-10-28T13:29:17Z</time><name>PT7483</name></trkpt>
<trkpt lat="53.086618" lon="-1.672780"><ele>261</ele><time>2020-10-28T13:29:19Z</time><name>PT7484</name></trkpt>
<trkpt lat="53.086619" lon="-1.672755"><ele>261</ele><time>2020-10-28T13:29:20Z</time><name>PT7485</name></trkpt>
<trkpt lat="53.086622" lon="-1.672732"><ele>261</ele><time>2020-10-28T13:29:20Z</time><name>PT7486</name></trkpt>
<trkpt lat="53.086626" lon="-1.672709"><ele>261</ele><time>2020-10-28T13:29:22Z</time><name>PT7487</name></trkpt>
<trkpt lat="53.086626" lon="-1.672688"><ele>261</ele><time>2020-10-28T13:29:23Z</time><name>PT7488</name></trkpt>
<trkpt lat="53.086626" lon="-1.672664"><ele>261</ele><time>2020-10-28T13:29:23Z</time><name>PT7489</name></trkpt>
<trkpt lat="53.086626" lon="-1.672642"><ele>261</ele><time>2020-10-28T13:29:25Z</time><name>PT7490</name></trkpt>
<trkpt lat="53.086628" lon="-1.672621"><ele>261</ele><time>2020-10-28T13:29:26Z</time><name>PT7491</name></trkpt>
<trkpt lat="53.086631" lon="-1.672602"><ele>261</ele><time>2020-10-28T13:29:26Z</time><name>PT7492</name></trkpt>
<trkpt lat="53.086634" lon="-1.672580"><ele>261</ele><time>2020-10-28T13:29:28Z</time><name>PT7493</name></trkpt>
<trkpt lat="53.086637" lon="-1.672560"><ele>261</ele><time>2020-10-28T13:29:29Z</time><name>PT7494</name></trkpt>
<trkpt lat="53.086640" lon="-1.672540"><ele>261</ele><time>2020-10-28T13:29:29Z</time><name>PT7495</name></trkpt>
<trkpt lat="53.086640" lon="-1.672519"><ele>261</ele><time>2020-10-28T13:29:31Z</time><name>PT7496</name></trkpt>
<trkpt lat="53.086638" lon="-1.672496"><ele>261</ele><time>2020-10-28T13:29:32Z</time><name>PT7497</name></trkpt>
<trkpt lat="53.086638" lon="-1.672475"><ele>261</ele><time>2020-10-28T13:29:32Z</time><name>PT7498</name></trkpt>
<trkpt lat="53.086640" lon="-1.672455"><ele>261</ele><time>2020-10-28T13:29:34Z</time><name>PT7499</name></trkpt>
<trkpt lat="53.086641" lon="-1.672435"><ele>261</ele><time>2020-10-28T13:29:35Z</time><name>PT7500</name></trkpt>
<trkpt lat="53.086640" lon="-1.672414"><ele>261</ele><time>2020-10-28T13:29:35Z</time><name>PT7501</name></trkpt>
<trkpt lat="53.086641" lon="-1.672395"><ele>261</ele><time>2020-10-28T13:29:37Z</time><name>PT7502</name></trkpt>
<trkpt lat="53.086643" lon="-1.672374"><ele>261</ele><time>2020-10-28T13:29:38Z</time><name>PT7503</name></trkpt>
<trkpt lat="53.086647" lon="-1.672354"><ele>261</ele><time>2020-10-28T13:29:38Z</time><name>PT7504</name></trkpt>
<trkpt lat="53.086648" lon="-1.672335"><ele>261</ele><time>2020-10-28T13:29:40Z</time><name>PT7505</name></trkpt>
<trkpt lat="53.086650" lon="-1.672313"><ele>261</ele><time>2020-10-28T13:29:41Z</time><name>PT7506</name></trkpt>
<trkpt lat="53.086653" lon="-1.672291"><ele>261</ele><time>2020-10-28T13:29:41Z</time><name>PT7507</name></trkpt>
<trkpt lat="53.086655" lon="-1.672269"><ele>261</ele><time>2020-10-28T13:29:43Z</time><name>PT7508</name></trkpt>
<trkpt lat="53.086657" lon="-1.672246"><ele>261</ele><time>2020-10-28T13:29:44Z</time><name>PT7509</name></trkpt>
<trkpt lat="53.086658" lon="-1.672225"><ele>261</ele><time>2020-10-28T13:29:44Z</time><name>PT7510</name></trkpt>
<trkpt lat="53.086661" lon="-1.672202"><ele>261</ele><time>2020-10-28T13:29:46Z</time><name>PT7511</name></trkpt>
<trkpt lat="53.086664" lon="-1.672180"><ele>261</ele><time>2020-10-28T13:29:47Z</time><name>PT7512</name></trkpt>
<trkpt lat="53.086666" lon="-1.672160"><ele>261</ele><time>2020-10-28T13:29:47Z</time><name>PT7513</name></trkpt>
<trkpt lat="53.086666" lon="-1.672139"><ele>261</ele><time>2020-10-28T13:29:48Z</time><name>PT7514</name></trkpt>
<trkpt lat="53.086667" lon="-1.672118"><ele>261</ele><time>2020-10-28T13:29:50Z</time><name>PT7515</name></trkpt>
<trkpt lat="53.086670" lon="-1.672100"><ele>262</ele><time>2020-10-28T13:29:50Z</time><name>PT7516</name></trkpt>
<trkpt lat="53.086671" lon="-1.672077"><ele>262</ele><time>2020-10-28T13:29:51Z</time><name>PT7517</name></trkpt>
<trkpt lat="53.086676" lon="-1.672053"><ele>262</ele><time>2020-10-28T13:29:53Z</time><name>PT7518</name></trkpt>
<trkpt lat="53.086681" lon="-1.672034"><ele>263</ele><time>2020-10-28T13:29:53Z</time><name>PT7519</name></trkpt>
<trkpt lat="53.086685" lon="-1.672014"><ele>264</ele><time>2020-10-28T13:29:54Z</time><name>PT7520</name></trkpt>
<trkpt lat="53.086684" lon="-1.671992"><ele>264</ele><time>2020-10-28T13:29:56Z</time><name>PT7521</name></trkpt>
<trkpt lat="53.086684" lon="-1.671972"><ele>264</ele><time>2020-10-28T13:29:56Z</time><name>PT7522</name></trkpt>
<trkpt lat="53.086686" lon="-1.671950"><ele>264</ele><time>2020-10-28T13:29:58Z</time><name>PT7523</name></trkpt>
<trkpt lat="53.086688" lon="-1.671928"><ele>264</ele><time>2020-10-28T13:29:59Z</time><name>PT7524</name></trkpt>
<trkpt lat="53.086691" lon="-1.671908"><ele>264</ele><time>2020-10-28T13:29:59Z</time><name>PT7525</name></trkpt>
<trkpt lat="53.086696" lon="-1.671891"><ele>264</ele><time>2020-10-28T13:30:01Z</time><name>PT7526</name></trkpt>
<trkpt lat="53.086702" lon="-1.671874"><ele>264</ele><time>2020-10-28T13:30:02Z</time><name>PT7527</name></trkpt>
<trkpt lat="53.086708" lon="-1.671856"><ele>264</ele><time>2020-10-28T13:30:02Z</time><name>PT7528</name></trkpt>
<trkpt lat="53.086711" lon="-1.671835"><ele>264</ele><time>2020-10-28T13:30:04Z</time><name>PT7529</name></trkpt>
<trkpt lat="53.086713" lon="-1.671812"><ele>264</ele><time>2020-10-28T13:30:05Z</time><name>PT7530</name></trkpt>
<trkpt lat="53.086713" lon="-1.671792"><ele>264</ele><time>2020-10-28T13:30:05Z</time><name>PT7531</name></trkpt>
<trkpt lat="53.086713" lon="-1.671772"><ele>264</ele><time>2020-10-28T13:30:07Z</time><name>PT7532</name></trkpt>
<trkpt lat="53.086712" lon="-1.671752"><ele>264</ele><time>2020-10-28T13:30:08Z</time><name>PT7533</name></trkpt>
<trkpt lat="53.086712" lon="-1.671733"><ele>264</ele><time>2020-10-28T13:30:08Z</time><name>PT7534</name></trkpt>
<trkpt lat="53.086715" lon="-1.671715"><ele>264</ele><time>2020-10-28T13:30:09Z</time><name>PT7535</name></trkpt>
<trkpt lat="53.086717" lon="-1.671691"><ele>264</ele><time>2020-10-28T13:30:11Z</time><name>PT7536</name></trkpt>
<trkpt lat="53.086719" lon="-1.671665"><ele>265</ele><time>2020-10-28T13:30:11Z</time><name>PT7537</name></trkpt>
<trkpt lat="53.086719" lon="-1.671641"><ele>266</ele><time>2020-10-28T13:30:13Z</time><name>PT7538</name></trkpt>
<trkpt lat="53.086717" lon="-1.671619"><ele>266</ele><time>2020-10-28T13:30:14Z</time><name>PT7539</name></trkpt>
<trkpt lat="53.086720" lon="-1.671600"><ele>266</ele><time>2020-10-28T13:30:14Z</time><name>PT7540</name></trkpt>
<trkpt lat="53.086722" lon="-1.671578"><ele>266</ele><time>2020-10-28T13:30:16Z</time><name>PT7541</name></trkpt>
<trkpt lat="53.086721" lon="-1.671559"><ele>266</ele><time>2020-10-28T13:30:17Z</time><name>PT7542</name></trkpt>
<trkpt lat="53.086724" lon="-1.671541"><ele>266</ele><time>2020-10-28T13:30:17Z</time><name>PT7543</name></trkpt>
<trkpt lat="53.086724" lon="-1.671520"><ele>266</ele><time>2020-10-28T13:30:19Z</time><name>PT7544</name></trkpt>
<trkpt lat="53.086725" lon="-1.671500"><ele>266</ele><time>2020-10-28T13:30:20Z</time><name>PT7545</name></trkpt>
<trkpt lat="53.086727" lon="-1.671479"><ele>266</ele><time>2020-10-28T13:30:20Z</time><name>PT7546</name></trkpt>
<trkpt lat="53.086729" lon="-1.671459"><ele>266</ele><time>2020-10-28T13:30:22Z</time><name>PT7547</name></trkpt>
<trkpt lat="53.086730" lon="-1.671440"><ele>266</ele><time>2020-10-28T13:30:23Z</time><name>PT7548</name></trkpt>
<trkpt lat="53.086730" lon="-1.671419"><ele>266</ele><time>2020-10-28T13:30:23Z</time><name>PT7549</name></trkpt>
<trkpt lat="53.086731" lon="-1.671399"><ele>266</ele><time>2020-10-28T13:30:25Z</time><name>PT7550</name></trkpt>
<trkpt lat="53.086733" lon="-1.671378"><ele>267</ele><time>2020-10-28T13:30:26Z</time><name>PT7551</name></trkpt>
<trkpt lat="53.086735" lon="-1.671358"><ele>267</ele><time>2020-10-28T13:30:26Z</time><name>PT7552</name></trkpt>
<trkpt lat="53.086737" lon="-1.671339"><ele>267</ele><time>2020-10-28T13:30:27Z</time><name>PT7553</name></trkpt>
<trkpt lat="53.086739" lon="-1.671318"><ele>267</ele><time>2020-10-28T13:30:29Z</time><name>PT7554</name></trkpt>
<trkpt lat="53.086739" lon="-1.671297"><ele>267</ele><time>2020-10-28T13:30:29Z</time><name>PT7555</name></trkpt>
<trkpt lat="53.086739" lon="-1.671277"><ele>267</ele><time>2020-10-28T13:30:31Z</time><name>PT7556</name></trkpt>
<trkpt lat="53.086741" lon="-1.671256"><ele>267</ele><time>2020-10-28T13:30:32Z</time><name>PT7557</name></trkpt>
<trkpt lat="53.086744" lon="-1.671235"><ele>267</ele><time>2020-10-28T13:30:32Z</time><name>PT7558</name></trkpt>
<trkpt lat="53.086744" lon="-1.671217"><ele>267</ele><time>2020-10-28T13:30:34Z</time><name>PT7559</name></trkpt>
<trkpt lat="53.086745" lon="-1.671197"><ele>267</ele><time>2020-10-28T13:30:35Z</time><name>PT7560</name></trkpt>
<trkpt lat="53.086748" lon="-1.671177"><ele>267</ele><time>2020-10-28T13:30:35Z</time><name>PT7561</name></trkpt>
<trkpt lat="53.086750" lon="-1.671156"><ele>267</ele><time>2020-10-28T13:30:37Z</time><name>PT7562</name></trkpt>
<trkpt lat="53.086753" lon="-1.671135"><ele>267</ele><time>2020-10-28T13:30:38Z</time><name>PT7563</name></trkpt>
<trkpt lat="53.086755" lon="-1.671116"><ele>267</ele><time>2020-10-28T13:30:38Z</time><name>PT7564</name></trkpt>
<trkpt lat="53.086756" lon="-1.671097"><ele>267</ele><time>2020-10-28T13:30:40Z</time><name>PT7565</name></trkpt>
<trkpt lat="53.086757" lon="-1.671077"><ele>267</ele><time>2020-10-28T13:30:41Z</time><name>PT7566</name></trkpt>
<trkpt lat="53.086756" lon="-1.671057"><ele>268</ele><time>2020-10-28T13:30:41Z</time><name>PT7567</name></trkpt>
<trkpt lat="53.086757" lon="-1.671038"><ele>268</ele><time>2020-10-28T13:30:43Z</time><name>PT7568</name></trkpt>
<trkpt lat="53.086759" lon="-1.671023"><ele>268</ele><time>2020-10-28T13:30:44Z</time><name>PT7569</name></trkpt>
<trkpt lat="53.086759" lon="-1.671004"><ele>268</ele><time>2020-10-28T13:30:44Z</time><name>PT7570</name></trkpt>
<trkpt lat="53.086759" lon="-1.670984"><ele>269</ele><time>2020-10-28T13:30:46Z</time><name>PT7571</name></trkpt>
<trkpt lat="53.086761" lon="-1.670966"><ele>269</ele><time>2020-10-28T13:30:47Z</time><name>PT7572</name></trkpt>
<trkpt lat="53.086763" lon="-1.670949"><ele>269</ele><time>2020-10-28T13:30:47Z</time><name>PT7573</name></trkpt>
<trkpt lat="53.086764" lon="-1.670933"><ele>269</ele><time>2020-10-28T13:30:49Z</time><name>PT7574</name></trkpt>
<trkpt lat="53.086763" lon="-1.670919"><ele>269</ele><time>2020-10-28T13:30:50Z</time><name>PT7575</name></trkpt>
<trkpt lat="53.086763" lon="-1.670905"><ele>269</ele><time>2020-10-28T13:30:50Z</time><name>PT7576</name></trkpt>
<trkpt lat="53.086762" lon="-1.670890"><ele>269</ele><time>2020-10-28T13:30:52Z</time><name>PT7577</name></trkpt>
<trkpt lat="53.086763" lon="-1.670873"><ele>269</ele><time>2020-10-28T13:30:53Z</time><name>PT7578</name></trkpt>
<trkpt lat="53.086764" lon="-1.670853"><ele>269</ele><time>2020-10-28T13:30:53Z</time><name>PT7579</name></trkpt>
<trkpt lat="53.086765" lon="-1.670835"><ele>269</ele><time>2020-10-28T13:30:55Z</time><name>PT7580</name></trkpt>
<trkpt lat="53.086764" lon="-1.670819"><ele>269</ele><time>2020-10-28T13:30:56Z</time><name>PT7581</name></trkpt>
<trkpt lat="53.086764" lon="-1.670801"><ele>269</ele><time>2020-10-28T13:30:56Z</time><name>PT7582</name></trkpt>
<trkpt lat="53.086765" lon="-1.670782"><ele>269</ele><time>2020-10-28T13:30:58Z</time><name>PT7583</name></trkpt>
<trkpt lat="53.086768" lon="-1.670763"><ele>269</ele><time>2020-10-28T13:30:59Z</time><name>PT7584</name></trkpt>
<trkpt lat="53.086771" lon="-1.670743"><ele>269</ele><time>2020-10-28T13:30:59Z</time><name>PT7585</name></trkpt>
<trkpt lat="53.086775" lon="-1.670728"><ele>269</ele><time>2020-10-28T13:31:01Z</time><name>PT7586</name></trkpt>
<trkpt lat="53.086778" lon="-1.670712"><ele>269</ele><time>2020-10-28T13:31:02Z</time><name>PT7587</name></trkpt>
<trkpt lat="53.086779" lon="-1.670700"><ele>269</ele><time>2020-10-28T13:31:02Z</time><name>PT7588</name></trkpt>
<trkpt lat="53.086781" lon="-1.670686"><ele>269</ele><time>2020-10-28T13:31:04Z</time><name>PT7589</name></trkpt>
<trkpt lat="53.086785" lon="-1.670671"><ele>269</ele><time>2020-10-28T13:31:05Z</time><name>PT7590</name></trkpt>
<trkpt lat="53.086787" lon="-1.670653"><ele>269</ele><time>2020-10-28T13:31:05Z</time><name>PT7591</name></trkpt>
<trkpt lat="53.086789" lon="-1.670634"><ele>269</ele><time>2020-10-28T13:31:07Z</time><name>PT7592</name></trkpt>
<trkpt lat="53.086791" lon="-1.670615"><ele>270</ele><time>2020-10-28T13:31:08Z</time><name>PT7593</name></trkpt>
<trkpt lat="53.086794" lon="-1.670596"><ele>269</ele><time>2020-10-28T13:31:08Z</time><name>PT7594</name></trkpt>
<trkpt lat="53.086795" lon="-1.670579"><ele>270</ele><time>2020-10-28T13:31:10Z</time><name>PT7595</name></trkpt>
<trkpt lat="53.086796" lon="-1.670562"><ele>269</ele><time>2020-10-28T13:31:11Z</time><name>PT7596</name></trkpt>
<trkpt lat="53.086798" lon="-1.670542"><ele>269</ele><time>2020-10-28T13:31:11Z</time><name>PT7597</name></trkpt>
<trkpt lat="53.086801" lon="-1.670525"><ele>270</ele><time>2020-10-28T13:31:13Z</time><name>PT7598</name></trkpt>
<trkpt lat="53.086804" lon="-1.670510"><ele>270</ele><time>2020-10-28T13:31:14Z</time><name>PT7599</name></trkpt>
<trkpt lat="53.086808" lon="-1.670494"><ele>270</ele><time>2020-10-28T13:31:14Z</time><name>PT7600</name></trkpt>
<trkpt lat="53.086808" lon="-1.670480"><ele>270</ele><time>2020-10-28T13:31:16Z</time><name>PT7601</name></trkpt>
<trkpt lat="53.086807" lon="-1.670463"><ele>269</ele><time>2020-10-28T13:31:17Z</time><name>PT7602</name></trkpt>
<trkpt lat="53.086808" lon="-1.670447"><ele>269</ele><time>2020-10-28T13:31:17Z</time><name>PT7603</name></trkpt>
<trkpt lat="53.086809" lon="-1.670432"><ele>269</ele><time>2020-10-28T13:31:18Z</time><name>PT7604</name></trkpt>
<trkpt lat="53.086810" lon="-1.670415"><ele>269</ele><time>2020-10-28T13:31:20Z</time><name>PT7605</name></trkpt>
<trkpt lat="53.086809" lon="-1.670397"><ele>269</ele><time>2020-10-28T13:31:20Z</time><name>PT7606</name></trkpt>
<trkpt lat="53.086810" lon="-1.670379"><ele>269</ele><time>2020-10-28T13:31:22Z</time><name>PT7607</name></trkpt>
<trkpt lat="53.086811" lon="-1.670360"><ele>269</ele><time>2020-10-28T13:31:23Z</time><name>PT7608</name></trkpt>
<trkpt lat="53.086814" lon="-1.670343"><ele>269</ele><time>2020-10-28T13:31:23Z</time><name>PT7609</name></trkpt>
<trkpt lat="53.086815" lon="-1.670323"><ele>269</ele><time>2020-10-28T13:31:25Z</time><name>PT7610</name></trkpt>
<trkpt lat="53.086817" lon="-1.670304"><ele>269</ele><time>2020-10-28T13:31:26Z</time><name>PT7611</name></trkpt>
<trkpt lat="53.086819" lon="-1.670285"><ele>269</ele><time>2020-10-28T13:31:26Z</time><name>PT7612</name></trkpt>
<trkpt lat="53.086822" lon="-1.670266"><ele>269</ele><time>2020-10-28T13:31:28Z</time><name>PT7613</name></trkpt>
<trkpt lat="53.086824" lon="-1.670250"><ele>269</ele><time>2020-10-28T13:31:29Z</time><name>PT7614</name></trkpt>
<trkpt lat="53.086827" lon="-1.670236"><ele>269</ele><time>2020-10-28T13:31:29Z</time><name>PT7615</name></trkpt>
<trkpt lat="53.086828" lon="-1.670221"><ele>269</ele><time>2020-10-28T13:31:31Z</time><name>PT7616</name></trkpt>
<trkpt lat="53.086829" lon="-1.670202"><ele>269</ele><time>2020-10-28T13:31:32Z</time><name>PT7617</name></trkpt>
<trkpt lat="53.086830" lon="-1.670185"><ele>269</ele><time>2020-10-28T13:31:32Z</time><name>PT7618</name></trkpt>
<trkpt lat="53.086829" lon="-1.670164"><ele>269</ele><time>2020-10-28T13:31:33Z</time><name>PT7619</name></trkpt>
<trkpt lat="53.086828" lon="-1.670144"><ele>269</ele><time>2020-10-28T13:31:35Z</time><name>PT7620</name></trkpt>
<trkpt lat="53.086830" lon="-1.670124"><ele>269</ele><time>2020-10-28T13:31:35Z</time><name>PT7621</name></trkpt>
<trkpt lat="53.086831" lon="-1.670104"><ele>268</ele><time>2020-10-28T13:31:37Z</time><name>PT7622</name></trkpt>
<trkpt lat="53.086831" lon="-1.670085"><ele>268</ele><time>2020-10-28T13:31:38Z</time><name>PT7623</name></trkpt>
<trkpt lat="53.086832" lon="-1.670066"><ele>269</ele><time>2020-10-28T13:31:38Z</time><name>PT7624</name></trkpt>
<trkpt lat="53.086833" lon="-1.670046"><ele>269</ele><time>2020-10-28T13:31:39Z</time><name>PT7625</name></trkpt>
<trkpt lat="53.086836" lon="-1.670025"><ele>269</ele><time>2020-10-28T13:31:41Z</time><name>PT7626</name></trkpt>
<trkpt lat="53.086838" lon="-1.670009"><ele>268</ele><time>2020-10-28T13:31:41Z</time><name>PT7627</name></trkpt>
<trkpt lat="53.086838" lon="-1.669994"><ele>268</ele><time>2020-10-28T13:31:42Z</time><name>PT7628</name></trkpt>
<trkpt lat="53.086840" lon="-1.669978"><ele>268</ele><time>2020-10-28T13:31:44Z</time><name>PT7629</name></trkpt>
<trkpt lat="53.086842" lon="-1.669966"><ele>268</ele><time>2020-10-28T13:31:44Z</time><name>PT7630</name></trkpt>
<trkpt lat="53.086843" lon="-1.669959"><ele>268</ele><time>2020-10-28T13:31:46Z</time><name>PT7631</name></trkpt>
<trkpt lat="53.086843" lon="-1.669954"><ele>268</ele><time>2020-10-28T13:31:47Z</time><name>PT7632</name></trkpt>
<trkpt lat="53.086843" lon="-1.669950"><ele>268</ele><time>2020-10-28T13:31:47Z</time><name>PT7633</name></trkpt>
<trkpt lat="53.086845" lon="-1.669946"><ele>268</ele><time>2020-10-28T13:31:49Z</time><name>PT7634</name></trkpt>
<trkpt lat="53.086844" lon="-1.669939"><ele>268</ele><time>2020-10-28T13:31:50Z</time><name>PT7635</name></trkpt>
<trkpt lat="53.086845" lon="-1.669925"><ele>268</ele><time>2020-10-28T13:31:50Z</time><name>PT7636</name></trkpt>
<trkpt lat="53.086844" lon="-1.669907"><ele>269</ele><time>2020-10-28T13:31:52Z</time><name>PT7637</name></trkpt>
<trkpt lat="53.086845" lon="-1.669889"><ele>268</ele><time>2020-10-28T13:31:53Z</time><name>PT7638</name></trkpt>
<trkpt lat="53.086847" lon="-1.669870"><ele>268</ele><time>2020-10-28T13:31:53Z</time><name>PT7639</name></trkpt>
<trkpt lat="53.086849" lon="-1.669852"><ele>268</ele><time>2020-10-28T13:31:55Z</time><name>PT7640</name></trkpt>
<trkpt lat="53.086849" lon="-1.669834"><ele>268</ele><time>2020-10-28T13:31:56Z</time><name>PT7641</name></trkpt>
<trkpt lat="53.086847" lon="-1.669813"><ele>268</ele><time>2020-10-28T13:31:57Z</time><name>PT7642</name></trkpt>
<trkpt lat="53.086844" lon="-1.669792"><ele>268</ele><time>2020-10-28T13:31:58Z</time><name>PT7643</name></trkpt>
<trkpt lat="53.086843" lon="-1.669773"><ele>268</ele><time>2020-10-28T13:31:59Z</time><name>PT7644</name></trkpt>
<trkpt lat="53.086846" lon="-1.669755"><ele>269</ele><time>2020-10-28T13:31:59Z</time><name>PT7645</name></trkpt>
<trkpt lat="53.086851" lon="-1.669736"><ele>269</ele><time>2020-10-28T13:32:01Z</time><name>PT7646</name></trkpt>
<trkpt lat="53.086852" lon="-1.669717"><ele>269</ele><time>2020-10-28T13:32:02Z</time><name>PT7647</name></trkpt>
<trkpt lat="53.086853" lon="-1.669698"><ele>269</ele><time>2020-10-28T13:32:02Z</time><name>PT7648</name></trkpt>
<trkpt lat="53.086852" lon="-1.669678"><ele>269</ele><time>2020-10-28T13:32:04Z</time><name>PT7649</name></trkpt>
<trkpt lat="53.086852" lon="-1.669656"><ele>269</ele><time>2020-10-28T13:32:05Z</time><name>PT7650</name></trkpt>
<trkpt lat="53.086851" lon="-1.669635"><ele>269</ele><time>2020-10-28T13:32:05Z</time><name>PT7651</name></trkpt>
<trkpt lat="53.086853" lon="-1.669615"><ele>269</ele><time>2020-10-28T13:32:07Z</time><name>PT7652</name></trkpt>
<trkpt lat="53.086853" lon="-1.669541"><ele>269</ele><time>2020-10-28T13:32:11Z</time><name>PT7653</name></trkpt>
<trkpt lat="53.086856" lon="-1.669481"><ele>268</ele><time>2020-10-28T13:32:14Z</time><name>PT7654</name></trkpt>
<trkpt lat="53.086859" lon="-1.669406"><ele>269</ele><time>2020-10-28T13:32:17Z</time><name>PT7655</name></trkpt>
<trkpt lat="53.086870" lon="-1.669329"><ele>270</ele><time>2020-10-28T13:32:22Z</time><name>PT7656</name></trkpt>
<trkpt lat="53.086879" lon="-1.669245"><ele>269</ele><time>2020-10-28T13:32:26Z</time><name>PT7657</name></trkpt>
<trkpt lat="53.086883" lon="-1.669191"><ele>269</ele><time>2020-10-28T13:32:29Z</time><name>PT7658</name></trkpt>
<trkpt lat="53.086894" lon="-1.669118"><ele>270</ele><time>2020-10-28T13:32:32Z</time><name>PT7659</name></trkpt>
<trkpt lat="53.086902" lon="-1.669034"><ele>270</ele><time>2020-10-28T13:32:37Z</time><name>PT7660</name></trkpt>
<trkpt lat="53.086911" lon="-1.668959"><ele>271</ele><time>2020-10-28T13:32:41Z</time><name>PT7661</name></trkpt>
<trkpt lat="53.086917" lon="-1.668897"><ele>272</ele><time>2020-10-28T13:32:44Z</time><name>PT7662</name></trkpt>
<trkpt lat="53.086932" lon="-1.668823"><ele>271</ele><time>2020-10-28T13:32:47Z</time><name>PT7663</name></trkpt>
<trkpt lat="53.086937" lon="-1.668762"><ele>271</ele><time>2020-10-28T13:32:50Z</time><name>PT7664</name></trkpt>
<trkpt lat="53.086948" lon="-1.668692"><ele>271</ele><time>2020-10-28T13:32:55Z</time><name>PT7665</name></trkpt>
<trkpt lat="53.086959" lon="-1.668635"><ele>272</ele><time>2020-10-28T13:32:58Z</time><name>PT7666</name></trkpt>
<trkpt lat="53.086958" lon="-1.668576"><ele>271</ele><time>2020-10-28T13:33:01Z</time><name>PT7667</name></trkpt>
<trkpt lat="53.086969" lon="-1.668491"><ele>271</ele><time>2020-10-28T13:33:05Z</time><name>PT7668</name></trkpt>
<trkpt lat="53.086967" lon="-1.668412"><ele>272</ele><time>2020-10-28T13:33:08Z</time><name>PT7669</name></trkpt>
<trkpt lat="53.086964" lon="-1.668349"><ele>272</ele><time>2020-10-28T13:33:11Z</time><name>PT7670</name></trkpt>
<trkpt lat="53.086971" lon="-1.668264"><ele>273</ele><time>2020-10-28T13:33:16Z</time><name>PT7671</name></trkpt>
<trkpt lat="53.086973" lon="-1.668183"><ele>273</ele><time>2020-10-28T13:33:20Z</time><name>PT7672</name></trkpt>
<trkpt lat="53.086973" lon="-1.668136"><ele>273</ele><time>2020-10-28T13:33:23Z</time><name>PT7673</name></trkpt>
<trkpt lat="53.086983" lon="-1.668080"><ele>273</ele><time>2020-10-28T13:33:26Z</time><name>PT7674</name></trkpt>
<trkpt lat="53.086984" lon="-1.668029"><ele>273</ele><time>2020-10-28T13:33:29Z</time><name>PT7675</name></trkpt>
<trkpt lat="53.087000" lon="-1.667961"><ele>273</ele><time>2020-10-28T13:33:34Z</time><name>PT7676</name></trkpt>
<trkpt lat="53.087017" lon="-1.667888"><ele>273</ele><time>2020-10-28T13:33:38Z</time><name>PT7677</name></trkpt>
<trkpt lat="53.087028" lon="-1.667814"><ele>273</ele><time>2020-10-28T13:33:41Z</time><name>PT7678</name></trkpt>
<trkpt lat="53.087037" lon="-1.667759"><ele>274</ele><time>2020-10-28T13:33:44Z</time><name>PT7679</name></trkpt>
<trkpt lat="53.087048" lon="-1.667694"><ele>275</ele><time>2020-10-28T13:33:49Z</time><name>PT7680</name></trkpt>
<trkpt lat="53.087071" lon="-1.667632"><ele>274</ele><time>2020-10-28T13:33:53Z</time><name>PT7681</name></trkpt>
<trkpt lat="53.087090" lon="-1.667561"><ele>274</ele><time>2020-10-28T13:33:56Z</time><name>PT7682</name></trkpt>
<trkpt lat="53.087090" lon="-1.667494"><ele>274</ele><time>2020-10-28T13:34:00Z</time><name>PT7683</name></trkpt>
<trkpt lat="53.087101" lon="-1.667446"><ele>274</ele><time>2020-10-28T13:34:04Z</time><name>PT7684</name></trkpt>
<trkpt lat="53.087108" lon="-1.667402"><ele>273</ele><time>2020-10-28T13:34:07Z</time><name>PT7685</name></trkpt>
<trkpt lat="53.087120" lon="-1.667350"><ele>274</ele><time>2020-10-28T13:34:10Z</time><name>PT7686</name></trkpt>
<trkpt lat="53.087137" lon="-1.667283"><ele>275</ele><time>2020-10-28T13:34:14Z</time><name>PT7687</name></trkpt>
<trkpt lat="53.087151" lon="-1.667207"><ele>277</ele><time>2020-10-28T13:34:17Z</time><name>PT7688</name></trkpt>
<trkpt lat="53.087161" lon="-1.667142"><ele>277</ele><time>2020-10-28T13:34:22Z</time><name>PT7689</name></trkpt>
<trkpt lat="53.087179" lon="-1.667089"><ele>278</ele><time>2020-10-28T13:34:25Z</time><name>PT7690</name></trkpt>
<trkpt lat="53.087207" lon="-1.667017"><ele>279</ele><time>2020-10-28T13:34:29Z</time><name>PT7691</name></trkpt>
<trkpt lat="53.087226" lon="-1.666944"><ele>279</ele><time>2020-10-28T13:34:32Z</time><name>PT7692</name></trkpt>
<trkpt lat="53.087246" lon="-1.666880"><ele>280</ele><time>2020-10-28T13:34:37Z</time><name>PT7693</name></trkpt>
<trkpt lat="53.087256" lon="-1.666810"><ele>280</ele><time>2020-10-28T13:34:41Z</time><name>PT7694</name></trkpt>
<trkpt lat="53.087270" lon="-1.666753"><ele>281</ele><time>2020-10-28T13:34:44Z</time><name>PT7695</name></trkpt>
<trkpt lat="53.087288" lon="-1.666704"><ele>281</ele><time>2020-10-28T13:34:47Z</time><name>PT7696</name></trkpt>
<trkpt lat="53.087305" lon="-1.666642"><ele>283</ele><time>2020-10-28T13:34:50Z</time><name>PT7697</name></trkpt>
<trkpt lat="53.087327" lon="-1.666576"><ele>285</ele><time>2020-10-28T13:34:53Z</time><name>PT7698</name></trkpt>
<trkpt lat="53.087341" lon="-1.666522"><ele>285</ele><time>2020-10-28T13:34:56Z</time><name>PT7699</name></trkpt>
<trkpt lat="53.087359" lon="-1.666446"><ele>286</ele><time>2020-10-28T13:35:01Z</time><name>PT7700</name></trkpt>
<trkpt lat="53.087386" lon="-1.666382"><ele>288</ele><time>2020-10-28T13:35:05Z</time><name>PT7701</name></trkpt>
<trkpt lat="53.087399" lon="-1.666342"><ele>289</ele><time>2020-10-28T13:35:08Z</time><name>PT7702</name></trkpt>
<trkpt lat="53.087416" lon="-1.666278"><ele>289</ele><time>2020-10-28T13:35:11Z</time><name>PT7703</name></trkpt>
<trkpt lat="53.087427" lon="-1.666226"><ele>289</ele><time>2020-10-28T13:35:14Z</time><name>PT7704</name></trkpt>
<trkpt lat="53.087440" lon="-1.666171"><ele>289</ele><time>2020-10-28T13:35:19Z</time><name>PT7705</name></trkpt>
<trkpt lat="53.087448" lon="-1.666128"><ele>289</ele><time>2020-10-28T13:35:22Z</time><name>PT7706</name></trkpt>
<trkpt lat="53.087457" lon="-1.666065"><ele>288</ele><time>2020-10-28T13:35:26Z</time><name>PT7707</name></trkpt>
<trkpt lat="53.087468" lon="-1.666027"><ele>288</ele><time>2020-10-28T13:35:29Z</time><name>PT7708</name></trkpt>
<trkpt lat="53.087478" lon="-1.665980"><ele>289</ele><time>2020-10-28T13:35:32Z</time><name>PT7709</name></trkpt>
<trkpt lat="53.087489" lon="-1.665911"><ele>290</ele><time>2020-10-28T13:35:35Z</time><name>PT7710</name></trkpt>
<trkpt lat="53.087505" lon="-1.665859"><ele>291</ele><time>2020-10-28T13:35:38Z</time><name>PT7711</name></trkpt>
<trkpt lat="53.087515" lon="-1.665785"><ele>291</ele><time>2020-10-28T13:35:43Z</time><name>PT7712</name></trkpt>
<trkpt lat="53.087527" lon="-1.665714"><ele>292</ele><time>2020-10-28T13:35:47Z</time><name>PT7713</name></trkpt>
<trkpt lat="53.087539" lon="-1.665654"><ele>292</ele><time>2020-10-28T13:35:50Z</time><name>PT7714</name></trkpt>
<trkpt lat="53.087551" lon="-1.665595"><ele>292</ele><time>2020-10-28T13:35:55Z</time><name>PT7715</name></trkpt>
<trkpt lat="53.087562" lon="-1.665552"><ele>291</ele><time>2020-10-28T13:35:59Z</time><name>PT7716</name></trkpt>
<trkpt lat="53.087577" lon="-1.665513"><ele>291</ele><time>2020-10-28T13:36:02Z</time><name>PT7717</name></trkpt>
<trkpt lat="53.087584" lon="-1.665465"><ele>291</ele><time>2020-10-28T13:36:05Z</time><name>PT7718</name></trkpt>
<trkpt lat="53.087597" lon="-1.665394"><ele>292</ele><time>2020-10-28T13:36:08Z</time><name>PT7719</name></trkpt>
<trkpt lat="53.087617" lon="-1.665340"><ele>292</ele><time>2020-10-28T13:36:11Z</time><name>PT7720</name></trkpt>
<trkpt lat="53.087636" lon="-1.665266"><ele>293</ele><time>2020-10-28T13:36:16Z</time><name>PT7721</name></trkpt>
<trkpt lat="53.087659" lon="-1.665198"><ele>294</ele><time>2020-10-28T13:36:20Z</time><name>PT7722</name></trkpt>
<trkpt lat="53.087672" lon="-1.665123"><ele>295</ele><time>2020-10-28T13:36:23Z</time><name>PT7723</name></trkpt>
<trkpt lat="53.087679" lon="-1.665063"><ele>296</ele><time>2020-10-28T13:36:26Z</time><name>PT7724</name></trkpt>
<trkpt lat="53.087686" lon="-1.665004"><ele>296</ele><time>2020-10-28T13:36:29Z</time><name>PT7725</name></trkpt>
<trkpt lat="53.087695" lon="-1.664949"><ele>296</ele><time>2020-10-28T13:36:32Z</time><name>PT7726</name></trkpt>
<trkpt lat="53.087719" lon="-1.664878"><ele>299</ele><time>2020-10-28T13:36:35Z</time><name>PT7727</name></trkpt>
<trkpt lat="53.087727" lon="-1.664829"><ele>299</ele><time>2020-10-28T13:36:38Z</time><name>PT7728</name></trkpt>
<trkpt lat="53.087734" lon="-1.664809"><ele>299</ele><time>2020-10-28T13:36:38Z</time><name>PT7729</name></trkpt>
<trkpt lat="53.087739" lon="-1.664789"><ele>300</ele><time>2020-10-28T13:36:40Z</time><name>PT7730</name></trkpt>
<trkpt lat="53.087743" lon="-1.664770"><ele>300</ele><time>2020-10-28T13:36:41Z</time><name>PT7731</name></trkpt>
<trkpt lat="53.087746" lon="-1.664752"><ele>300</ele><time>2020-10-28T13:36:41Z</time><name>PT7732</name></trkpt>
<trkpt lat="53.087749" lon="-1.664734"><ele>300</ele><time>2020-10-28T13:36:43Z</time><name>PT7733</name></trkpt>
<trkpt lat="53.087753" lon="-1.664717"><ele>300</ele><time>2020-10-28T13:36:44Z</time><name>PT7734</name></trkpt>
<trkpt lat="53.087758" lon="-1.664699"><ele>300</ele><time>2020-10-28T13:36:44Z</time><name>PT7735</name></trkpt>
<trkpt lat="53.087762" lon="-1.664680"><ele>301</ele><time>2020-10-28T13:36:46Z</time><name>PT7736</name></trkpt>
<trkpt lat="53.087765" lon="-1.664663"><ele>301</ele><time>2020-10-28T13:36:47Z</time><name>PT7737</name></trkpt>
<trkpt lat="53.087766" lon="-1.664647"><ele>301</ele><time>2020-10-28T13:36:47Z</time><name>PT7738</name></trkpt>
<trkpt lat="53.087767" lon="-1.664630"><ele>301</ele><time>2020-10-28T13:36:49Z</time><name>PT7739</name></trkpt>
<trkpt lat="53.087770" lon="-1.664612"><ele>301</ele><time>2020-10-28T13:36:50Z</time><name>PT7740</name></trkpt>
<trkpt lat="53.087775" lon="-1.664595"><ele>301</ele><time>2020-10-28T13:36:50Z</time><name>PT7741</name></trkpt>
<trkpt lat="53.087778" lon="-1.664578"><ele>302</ele><time>2020-10-28T13:36:52Z</time><name>PT7742</name></trkpt>
<trkpt lat="53.087782" lon="-1.664560"><ele>302</ele><time>2020-10-28T13:36:53Z</time><name>PT7743</name></trkpt>
<trkpt lat="53.087786" lon="-1.664546"><ele>302</ele><time>2020-10-28T13:36:53Z</time><name>PT7744</name></trkpt>
<trkpt lat="53.087791" lon="-1.664532"><ele>302</ele><time>2020-10-28T13:36:55Z</time><name>PT7745</name></trkpt>
<trkpt lat="53.087794" lon="-1.664514"><ele>302</ele><time>2020-10-28T13:36:56Z</time><name>PT7746</name></trkpt>
<trkpt lat="53.087797" lon="-1.664496"><ele>302</ele><time>2020-10-28T13:36:56Z</time><name>PT7747</name></trkpt>
<trkpt lat="53.087800" lon="-1.664481"><ele>302</ele><time>2020-10-28T13:36:57Z</time><name>PT7748</name></trkpt>
<trkpt lat="53.087804" lon="-1.664463"><ele>302</ele><time>2020-10-28T13:36:59Z</time><name>PT7749</name></trkpt>
<trkpt lat="53.087810" lon="-1.664444"><ele>302</ele><time>2020-10-28T13:36:59Z</time><name>PT7750</name></trkpt>
<trkpt lat="53.087817" lon="-1.664428"><ele>302</ele><time>2020-10-28T13:37:00Z</time><name>PT7751</name></trkpt>
<trkpt lat="53.087820" lon="-1.664414"><ele>302</ele><time>2020-10-28T13:37:02Z</time><name>PT7752</name></trkpt>
<trkpt lat="53.087824" lon="-1.664399"><ele>302</ele><time>2020-10-28T13:37:02Z</time><name>PT7753</name></trkpt>
<trkpt lat="53.087827" lon="-1.664382"><ele>302</ele><time>2020-10-28T13:37:04Z</time><name>PT7754</name></trkpt>
<trkpt lat="53.087828" lon="-1.664367"><ele>303</ele><time>2020-10-28T13:37:05Z</time><name>PT7755</name></trkpt>
<trkpt lat="53.087831" lon="-1.664351"><ele>303</ele><time>2020-10-28T13:37:06Z</time><name>PT7756</name></trkpt>
<trkpt lat="53.087832" lon="-1.664335"><ele>303</ele><time>2020-10-28T13:37:07Z</time><name>PT7757</name></trkpt>
<trkpt lat="53.087834" lon="-1.664320"><ele>303</ele><time>2020-10-28T13:37:08Z</time><name>PT7758</name></trkpt>
<trkpt lat="53.087834" lon="-1.664309"><ele>303</ele><time>2020-10-28T13:37:08Z</time><name>PT7759</name></trkpt>
<trkpt lat="53.087835" lon="-1.664302"><ele>304</ele><time>2020-10-28T13:37:10Z</time><name>PT7760</name></trkpt>
<trkpt lat="53.087835" lon="-1.664297"><ele>304</ele><time>2020-10-28T13:37:11Z</time><name>PT7761</name></trkpt>
<trkpt lat="53.087836" lon="-1.664294"><ele>304</ele><time>2020-10-28T13:37:11Z</time><name>PT7762</name></trkpt>
<trkpt lat="53.087836" lon="-1.664288"><ele>304</ele><time>2020-10-28T13:37:13Z</time><name>PT7763</name></trkpt>
<trkpt lat="53.087835" lon="-1.664284"><ele>304</ele><time>2020-10-28T13:37:14Z</time><name>PT7764</name></trkpt>
<trkpt lat="53.087832" lon="-1.664282"><ele>305</ele><time>2020-10-28T13:37:14Z</time><name>PT7765</name></trkpt>
<trkpt lat="53.087832" lon="-1.664274"><ele>305</ele><time>2020-10-28T13:37:17Z</time><name>PT7766</name></trkpt>
<trkpt lat="53.087831" lon="-1.664272"><ele>304</ele><time>2020-10-28T13:37:17Z</time><name>PT7767</name></trkpt>
<trkpt lat="53.087830" lon="-1.664269"><ele>304</ele><time>2020-10-28T13:37:19Z</time><name>PT7768</name></trkpt>
<trkpt lat="53.087828" lon="-1.664270"><ele>304</ele><time>2020-10-28T13:37:20Z</time><name>PT7769</name></trkpt>
<trkpt lat="53.087827" lon="-1.664266"><ele>304</ele><time>2020-10-28T13:37:20Z</time><name>PT7770</name></trkpt>
<trkpt lat="53.087824" lon="-1.664264"><ele>304</ele><time>2020-10-28T13:37:22Z</time><name>PT7771</name></trkpt>
<trkpt lat="53.087821" lon="-1.664250"><ele>304</ele><time>2020-10-28T13:37:25Z</time><name>PT7772</name></trkpt>
<trkpt lat="53.087809" lon="-1.664233"><ele>304</ele><time>2020-10-28T13:37:26Z</time><name>PT7773</name></trkpt>
<trkpt lat="53.087802" lon="-1.664212"><ele>305</ele><time>2020-10-28T13:37:26Z</time><name>PT7774</name></trkpt>
<trkpt lat="53.087797" lon="-1.664199"><ele>304</ele><time>2020-10-28T13:37:28Z</time><name>PT7775</name></trkpt>
<trkpt lat="53.087786" lon="-1.664187"><ele>304</ele><time>2020-10-28T13:37:29Z</time><name>PT7776</name></trkpt>
<trkpt lat="53.087773" lon="-1.664172"><ele>304</ele><time>2020-10-28T13:37:29Z</time><name>PT7777</name></trkpt>
<trkpt lat="53.087762" lon="-1.664157"><ele>304</ele><time>2020-10-28T13:37:31Z</time><name>PT7778</name></trkpt>
<trkpt lat="53.087753" lon="-1.664141"><ele>304</ele><time>2020-10-28T13:37:32Z</time><name>PT7779</name></trkpt>
<trkpt lat="53.087742" lon="-1.664124"><ele>304</ele><time>2020-10-28T13:37:32Z</time><name>PT7780</name></trkpt>
<trkpt lat="53.087733" lon="-1.664109"><ele>304</ele><time>2020-10-28T13:37:34Z</time><name>PT7781</name></trkpt>
<trkpt lat="53.087724" lon="-1.664094"><ele>304</ele><time>2020-10-28T13:37:35Z</time><name>PT7782</name></trkpt>
<trkpt lat="53.087715" lon="-1.664078"><ele>304</ele><time>2020-10-28T13:37:35Z</time><name>PT7783</name></trkpt>
<trkpt lat="53.087706" lon="-1.664061"><ele>303</ele><time>2020-10-28T13:37:37Z</time><name>PT7784</name></trkpt>
<trkpt lat="53.087697" lon="-1.664042"><ele>304</ele><time>2020-10-28T13:37:38Z</time><name>PT7785</name></trkpt>
<trkpt lat="53.087687" lon="-1.664027"><ele>304</ele><time>2020-10-28T13:37:38Z</time><name>PT7786</name></trkpt>
<trkpt lat="53.087679" lon="-1.664013"><ele>304</ele><time>2020-10-28T13:37:40Z</time><name>PT7787</name></trkpt>
<trkpt lat="53.087671" lon="-1.664001"><ele>304</ele><time>2020-10-28T13:37:41Z</time><name>PT7788</name></trkpt>
<trkpt lat="53.087668" lon="-1.663985"><ele>305</ele><time>2020-10-28T13:37:41Z</time><name>PT7789</name></trkpt>
<trkpt lat="53.087659" lon="-1.663975"><ele>304</ele><time>2020-10-28T13:37:43Z</time><name>PT7790</name></trkpt>
<trkpt lat="53.087651" lon="-1.663964"><ele>304</ele><time>2020-10-28T13:37:44Z</time><name>PT7791</name></trkpt>
<trkpt lat="53.087641" lon="-1.663951"><ele>304</ele><time>2020-10-28T13:37:44Z</time><name>PT7792</name></trkpt>
<trkpt lat="53.087630" lon="-1.663941"><ele>304</ele><time>2020-10-28T13:37:46Z</time><name>PT7793</name></trkpt>
<trkpt lat="53.087623" lon="-1.663926"><ele>304</ele><time>2020-10-28T13:37:47Z</time><name>PT7794</name></trkpt>
<trkpt lat="53.087614" lon="-1.663915"><ele>304</ele><time>2020-10-28T13:37:47Z</time><name>PT7795</name></trkpt>
<trkpt lat="53.087602" lon="-1.663902"><ele>303</ele><time>2020-10-28T13:37:49Z</time><name>PT7796</name></trkpt>
<trkpt lat="53.087590" lon="-1.663885"><ele>304</ele><time>2020-10-28T13:37:50Z</time><name>PT7797</name></trkpt>
<trkpt lat="53.087582" lon="-1.663867"><ele>303</ele><time>2020-10-28T13:37:50Z</time><name>PT7798</name></trkpt>
<trkpt lat="53.087573" lon="-1.663853"><ele>303</ele><time>2020-10-28T13:37:51Z</time><name>PT7799</name></trkpt>
<trkpt lat="53.087566" lon="-1.663839"><ele>303</ele><time>2020-10-28T13:37:53Z</time><name>PT7800</name></trkpt>
<trkpt lat="53.087557" lon="-1.663828"><ele>303</ele><time>2020-10-28T13:37:53Z</time><name>PT7801</name></trkpt>
<trkpt lat="53.087547" lon="-1.663816"><ele>303</ele><time>2020-10-28T13:37:55Z</time><name>PT7802</name></trkpt>
<trkpt lat="53.087536" lon="-1.663799"><ele>303</ele><time>2020-10-28T13:37:56Z</time><name>PT7803</name></trkpt>
<trkpt lat="53.087523" lon="-1.663786"><ele>304</ele><time>2020-10-28T13:37:56Z</time><name>PT7804</name></trkpt>
<trkpt lat="53.087513" lon="-1.663775"><ele>304</ele><time>2020-10-28T13:37:57Z</time><name>PT7805</name></trkpt>
<trkpt lat="53.087501" lon="-1.663763"><ele>304</ele><time>2020-10-28T13:37:59Z</time><name>PT7806</name></trkpt>
<trkpt lat="53.087490" lon="-1.663750"><ele>304</ele><time>2020-10-28T13:37:59Z</time><name>PT7807</name></trkpt>
<trkpt lat="53.087478" lon="-1.663731"><ele>304</ele><time>2020-10-28T13:38:00Z</time><name>PT7808</name></trkpt>
<trkpt lat="53.087466" lon="-1.663720"><ele>304</ele><time>2020-10-28T13:38:02Z</time><name>PT7809</name></trkpt>
<trkpt lat="53.087459" lon="-1.663709"><ele>304</ele><time>2020-10-28T13:38:02Z</time><name>PT7810</name></trkpt>
<trkpt lat="53.087449" lon="-1.663696"><ele>304</ele><time>2020-10-28T13:38:04Z</time><name>PT7811</name></trkpt>
<trkpt lat="53.087437" lon="-1.663687"><ele>305</ele><time>2020-10-28T13:38:05Z</time><name>PT7812</name></trkpt>
<trkpt lat="53.087424" lon="-1.663679"><ele>305</ele><time>2020-10-28T13:38:05Z</time><name>PT7813</name></trkpt>
<trkpt lat="53.087415" lon="-1.663670"><ele>305</ele><time>2020-10-28T13:38:07Z</time><name>PT7814</name></trkpt>
<trkpt lat="53.087408" lon="-1.663660"><ele>305</ele><time>2020-10-28T13:38:08Z</time><name>PT7815</name></trkpt>
<trkpt lat="53.087399" lon="-1.663650"><ele>305</ele><time>2020-10-28T13:38:08Z</time><name>PT7816</name></trkpt>
<trkpt lat="53.087390" lon="-1.663640"><ele>305</ele><time>2020-10-28T13:38:10Z</time><name>PT7817</name></trkpt>
<trkpt lat="53.087380" lon="-1.663631"><ele>305</ele><time>2020-10-28T13:38:11Z</time><name>PT7818</name></trkpt>
<trkpt lat="53.087369" lon="-1.663621"><ele>305</ele><time>2020-10-28T13:38:11Z</time><name>PT7819</name></trkpt>
<trkpt lat="53.087357" lon="-1.663611"><ele>305</ele><time>2020-10-28T13:38:13Z</time><name>PT7820</name></trkpt>
<trkpt lat="53.087347" lon="-1.663600"><ele>306</ele><time>2020-10-28T13:38:14Z</time><name>PT7821</name></trkpt>
<trkpt lat="53.087335" lon="-1.663591"><ele>307</ele><time>2020-10-28T13:38:14Z</time><name>PT7822</name></trkpt>
<trkpt lat="53.087325" lon="-1.663584"><ele>306</ele><time>2020-10-28T13:38:16Z</time><name>PT7823</name></trkpt>
<trkpt lat="53.087316" lon="-1.663573"><ele>306</ele><time>2020-10-28T13:38:17Z</time><name>PT7824</name></trkpt>
<trkpt lat="53.087306" lon="-1.663562"><ele>305</ele><time>2020-10-28T13:38:17Z</time><name>PT7825</name></trkpt>
<trkpt lat="53.087296" lon="-1.663553"><ele>305</ele><time>2020-10-28T13:38:19Z</time><name>PT7826</name></trkpt>
<trkpt lat="53.087285" lon="-1.663543"><ele>305</ele><time>2020-10-28T13:38:20Z</time><name>PT7827</name></trkpt>
<trkpt lat="53.087271" lon="-1.663532"><ele>305</ele><time>2020-10-28T13:38:20Z</time><name>PT7828</name></trkpt>
<trkpt lat="53.087260" lon="-1.663521"><ele>305</ele><time>2020-10-28T13:38:22Z</time><name>PT7829</name></trkpt>
<trkpt lat="53.087249" lon="-1.663508"><ele>304</ele><time>2020-10-28T13:38:23Z</time><name>PT7830</name></trkpt>
<trkpt lat="53.087239" lon="-1.663494"><ele>304</ele><time>2020-10-28T13:38:23Z</time><name>PT7831</name></trkpt>
<trkpt lat="53.087228" lon="-1.663481"><ele>304</ele><time>2020-10-28T13:38:25Z</time><name>PT7832</name></trkpt>
<trkpt lat="53.087216" lon="-1.663473"><ele>303</ele><time>2020-10-28T13:38:26Z</time><name>PT7833</name></trkpt>
<trkpt lat="53.087206" lon="-1.663460"><ele>303</ele><time>2020-10-28T13:38:26Z</time><name>PT7834</name></trkpt>
<trkpt lat="53.087194" lon="-1.663446"><ele>304</ele><time>2020-10-28T13:38:28Z</time><name>PT7835</name></trkpt>
<trkpt lat="53.087183" lon="-1.663435"><ele>304</ele><time>2020-10-28T13:38:29Z</time><name>PT7836</name></trkpt>
<trkpt lat="53.087174" lon="-1.663427"><ele>303</ele><time>2020-10-28T13:38:29Z</time><name>PT7837</name></trkpt>
<trkpt lat="53.087163" lon="-1.663419"><ele>304</ele><time>2020-10-28T13:38:30Z</time><name>PT7838</name></trkpt>
<trkpt lat="53.087151" lon="-1.663406"><ele>304</ele><time>2020-10-28T13:38:32Z</time><name>PT7839</name></trkpt>
<trkpt lat="53.087140" lon="-1.663398"><ele>303</ele><time>2020-10-28T13:38:32Z</time><name>PT7840</name></trkpt>
<trkpt lat="53.087130" lon="-1.663385"><ele>303</ele><time>2020-10-28T13:38:34Z</time><name>PT7841</name></trkpt>
<trkpt lat="53.087124" lon="-1.663375"><ele>302</ele><time>2020-10-28T13:38:35Z</time><name>PT7842</name></trkpt>
<trkpt lat="53.087116" lon="-1.663365"><ele>302</ele><time>2020-10-28T13:38:35Z</time><name>PT7843</name></trkpt>
<trkpt lat="53.087110" lon="-1.663354"><ele>302</ele><time>2020-10-28T13:38:37Z</time><name>PT7844</name></trkpt>
<trkpt lat="53.087110" lon="-1.663350"><ele>302</ele><time>2020-10-28T13:38:38Z</time><name>PT7845</name></trkpt>
<trkpt lat="53.087110" lon="-1.663347"><ele>302</ele><time>2020-10-28T13:38:38Z</time><name>PT7846</name></trkpt>
<trkpt lat="53.087109" lon="-1.663347"><ele>302</ele><time>2020-10-28T13:38:39Z</time><name>PT7847</name></trkpt>
<trkpt lat="53.087116" lon="-1.663337"><ele>302</ele><time>2020-10-28T13:38:43Z</time><name>PT7848</name></trkpt>
<trkpt lat="53.087112" lon="-1.663335"><ele>302</ele><time>2020-10-28T13:38:44Z</time><name>PT7849</name></trkpt>
<trkpt lat="53.087113" lon="-1.663329"><ele>302</ele><time>2020-10-28T13:38:44Z</time><name>PT7850</name></trkpt>
<trkpt lat="53.087105" lon="-1.663317"><ele>302</ele><time>2020-10-28T13:38:46Z</time><name>PT7851</name></trkpt>
<trkpt lat="53.087101" lon="-1.663307"><ele>302</ele><time>2020-10-28T13:38:47Z</time><name>PT7852</name></trkpt>
<trkpt lat="53.087094" lon="-1.663298"><ele>302</ele><time>2020-10-28T13:38:47Z</time><name>PT7853</name></trkpt>
<trkpt lat="53.087086" lon="-1.663291"><ele>302</ele><time>2020-10-28T13:38:49Z</time><name>PT7854</name></trkpt>
<trkpt lat="53.087081" lon="-1.663283"><ele>302</ele><time>2020-10-28T13:38:50Z</time><name>PT7855</name></trkpt>
<trkpt lat="53.087080" lon="-1.663280"><ele>302</ele><time>2020-10-28T13:38:50Z</time><name>PT7856</name></trkpt>
<trkpt lat="53.087079" lon="-1.663279"><ele>302</ele><time>2020-10-28T13:38:52Z</time><name>PT7857</name></trkpt>
<trkpt lat="53.087079" lon="-1.663278"><ele>302</ele><time>2020-10-28T13:38:53Z</time><name>PT7858</name></trkpt>
<trkpt lat="53.087079" lon="-1.663279"><ele>302</ele><time>2020-10-28T13:38:53Z</time><name>PT7859</name></trkpt>
<trkpt lat="53.087076" lon="-1.663273"><ele>302</ele><time>2020-10-28T13:39:02Z</time><name>PT7860</name></trkpt>
<trkpt lat="53.087064" lon="-1.663263"><ele>303</ele><time>2020-10-28T13:39:02Z</time><name>PT7861</name></trkpt>
<trkpt lat="53.087057" lon="-1.663256"><ele>303</ele><time>2020-10-28T13:39:04Z</time><name>PT7862</name></trkpt>
<trkpt lat="53.087044" lon="-1.663254"><ele>303</ele><time>2020-10-28T13:39:05Z</time><name>PT7863</name></trkpt>
<trkpt lat="53.087034" lon="-1.663250"><ele>303</ele><time>2020-10-28T13:39:05Z</time><name>PT7864</name></trkpt>
<trkpt lat="53.087018" lon="-1.663244"><ele>303</ele><time>2020-10-28T13:39:07Z</time><name>PT7865</name></trkpt>
<trkpt lat="53.087004" lon="-1.663235"><ele>303</ele><time>2020-10-28T13:39:08Z</time><name>PT7866</name></trkpt>
<trkpt lat="53.086994" lon="-1.663226"><ele>304</ele><time>2020-10-28T13:39:08Z</time><name>PT7867</name></trkpt>
<trkpt lat="53.086985" lon="-1.663220"><ele>304</ele><time>2020-10-28T13:39:10Z</time><name>PT7868</name></trkpt>
<trkpt lat="53.086976" lon="-1.663212"><ele>304</ele><time>2020-10-28T13:39:11Z</time><name>PT7869</name></trkpt>
<trkpt lat="53.086967" lon="-1.663200"><ele>305</ele><time>2020-10-28T13:39:11Z</time><name>PT7870</name></trkpt>
<trkpt lat="53.086954" lon="-1.663188"><ele>305</ele><time>2020-10-28T13:39:13Z</time><name>PT7871</name></trkpt>
<trkpt lat="53.086943" lon="-1.663176"><ele>305</ele><time>2020-10-28T13:39:14Z</time><name>PT7872</name></trkpt>
<trkpt lat="53.086932" lon="-1.663168"><ele>305</ele><time>2020-10-28T13:39:14Z</time><name>PT7873</name></trkpt>
<trkpt lat="53.086923" lon="-1.663157"><ele>304</ele><time>2020-10-28T13:39:16Z</time><name>PT7874</name></trkpt>
<trkpt lat="53.086910" lon="-1.663147"><ele>304</ele><time>2020-10-28T13:39:17Z</time><name>PT7875</name></trkpt>
<trkpt lat="53.086899" lon="-1.663135"><ele>304</ele><time>2020-10-28T13:39:17Z</time><name>PT7876</name></trkpt>
<trkpt lat="53.086887" lon="-1.663124"><ele>304</ele><time>2020-10-28T13:39:19Z</time><name>PT7877</name></trkpt>
<trkpt lat="53.086876" lon="-1.663117"><ele>304</ele><time>2020-10-28T13:39:20Z</time><name>PT7878</name></trkpt>
<trkpt lat="53.086866" lon="-1.663110"><ele>304</ele><time>2020-10-28T13:39:20Z</time><name>PT7879</name></trkpt>
<trkpt lat="53.086855" lon="-1.663099"><ele>304</ele><time>2020-10-28T13:39:22Z</time><name>PT7880</name></trkpt>
<trkpt lat="53.086844" lon="-1.663089"><ele>304</ele><time>2020-10-28T13:39:23Z</time><name>PT7881</name></trkpt>
<trkpt lat="53.086833" lon="-1.663075"><ele>304</ele><time>2020-10-28T13:39:23Z</time><name>PT7882</name></trkpt>
<trkpt lat="53.086820" lon="-1.663063"><ele>304</ele><time>2020-10-28T13:39:25Z</time><name>PT7883</name></trkpt>
<trkpt lat="53.086809" lon="-1.663057"><ele>304</ele><time>2020-10-28T13:39:26Z</time><name>PT7884</name></trkpt>
<trkpt lat="53.086796" lon="-1.663049"><ele>304</ele><time>2020-10-28T13:39:26Z</time><name>PT7885</name></trkpt>
<trkpt lat="53.086785" lon="-1.663037"><ele>304</ele><time>2020-10-28T13:39:28Z</time><name>PT7886</name></trkpt>
<trkpt lat="53.086775" lon="-1.663023"><ele>304</ele><time>2020-10-28T13:39:29Z</time><name>PT7887</name></trkpt>
<trkpt lat="53.086764" lon="-1.663008"><ele>304</ele><time>2020-10-28T13:39:29Z</time><name>PT7888</name></trkpt>
<trkpt lat="53.086756" lon="-1.662995"><ele>303</ele><time>2020-10-28T13:39:31Z</time><name>PT7889</name></trkpt>
<trkpt lat="53.086747" lon="-1.662987"><ele>303</ele><time>2020-10-28T13:39:32Z</time><name>PT7890</name></trkpt>
<trkpt lat="53.086737" lon="-1.662976"><ele>303</ele><time>2020-10-28T13:39:32Z</time><name>PT7891</name></trkpt>
<trkpt lat="53.086728" lon="-1.662961"><ele>303</ele><time>2020-10-28T13:39:34Z</time><name>PT7892</name></trkpt>
<trkpt lat="53.086716" lon="-1.662946"><ele>303</ele><time>2020-10-28T13:39:35Z</time><name>PT7893</name></trkpt>
<trkpt lat="53.086708" lon="-1.662934"><ele>302</ele><time>2020-10-28T13:39:35Z</time><name>PT7894</name></trkpt>
<trkpt lat="53.086699" lon="-1.662922"><ele>302</ele><time>2020-10-28T13:39:36Z</time><name>PT7895</name></trkpt>
<trkpt lat="53.086665" lon="-1.662882"><ele>303</ele><time>2020-10-28T13:39:40Z</time><name>PT7896</name></trkpt>
<trkpt lat="53.086621" lon="-1.662834"><ele>301</ele><time>2020-10-28T13:39:44Z</time><name>PT7897</name></trkpt>
<trkpt lat="53.086593" lon="-1.662794"><ele>301</ele><time>2020-10-28T13:39:47Z</time><name>PT7898</name></trkpt>
<trkpt lat="53.086558" lon="-1.662741"><ele>301</ele><time>2020-10-28T13:39:50Z</time><name>PT7899</name></trkpt>
<trkpt lat="53.086519" lon="-1.662682"><ele>301</ele><time>2020-10-28T13:39:55Z</time><name>PT7900</name></trkpt>
<trkpt lat="53.086491" lon="-1.662617"><ele>301</ele><time>2020-10-28T13:39:59Z</time><name>PT7901</name></trkpt>
<trkpt lat="53.086468" lon="-1.662575"><ele>300</ele><time>2020-10-28T13:40:02Z</time><name>PT7902</name></trkpt>
<trkpt lat="53.086442" lon="-1.662533"><ele>300</ele><time>2020-10-28T13:40:05Z</time><name>PT7903</name></trkpt>
<trkpt lat="53.086408" lon="-1.662477"><ele>300</ele><time>2020-10-28T13:40:08Z</time><name>PT7904</name></trkpt>
<trkpt lat="53.086379" lon="-1.662431"><ele>299</ele><time>2020-10-28T13:40:11Z</time><name>PT7905</name></trkpt>
<trkpt lat="53.086351" lon="-1.662371"><ele>298</ele><time>2020-10-28T13:40:16Z</time><name>PT7906</name></trkpt>
<trkpt lat="53.086321" lon="-1.662311"><ele>297</ele><time>2020-10-28T13:40:20Z</time><name>PT7907</name></trkpt>
<trkpt lat="53.086302" lon="-1.662262"><ele>297</ele><time>2020-10-28T13:40:23Z</time><name>PT7908</name></trkpt>
<trkpt lat="53.086279" lon="-1.662209"><ele>296</ele><time>2020-10-28T13:40:26Z</time><name>PT7909</name></trkpt>
<trkpt lat="53.086259" lon="-1.662143"><ele>295</ele><time>2020-10-28T13:40:31Z</time><name>PT7910</name></trkpt>
<trkpt lat="53.086239" lon="-1.662090"><ele>295</ele><time>2020-10-28T13:40:34Z</time><name>PT7911</name></trkpt>
<trkpt lat="53.086209" lon="-1.662018"><ele>295</ele><time>2020-10-28T13:40:38Z</time><name>PT7912</name></trkpt>
<trkpt lat="53.086195" lon="-1.661963"><ele>295</ele><time>2020-10-28T13:40:41Z</time><name>PT7913</name></trkpt>
<trkpt lat="53.086171" lon="-1.661923"><ele>294</ele><time>2020-10-28T13:40:44Z</time><name>PT7914</name></trkpt>
<trkpt lat="53.086145" lon="-1.661848"><ele>294</ele><time>2020-10-28T13:40:47Z</time><name>PT7915</name></trkpt>
<trkpt lat="53.086122" lon="-1.661804"><ele>293</ele><time>2020-10-28T13:40:50Z</time><name>PT7916</name></trkpt>
<trkpt lat="53.086091" lon="-1.661741"><ele>293</ele><time>2020-10-28T13:40:55Z</time><name>PT7917</name></trkpt>
<trkpt lat="53.086072" lon="-1.661681"><ele>292</ele><time>2020-10-28T13:40:59Z</time><name>PT7918</name></trkpt>
<trkpt lat="53.086055" lon="-1.661625"><ele>292</ele><time>2020-10-28T13:41:02Z</time><name>PT7919</name></trkpt>
<trkpt lat="53.086041" lon="-1.661581"><ele>291</ele><time>2020-10-28T13:41:05Z</time><name>PT7920</name></trkpt>
<trkpt lat="53.086017" lon="-1.661563"><ele>291</ele><time>2020-10-28T13:41:08Z</time><name>PT7921</name></trkpt>
<trkpt lat="53.085977" lon="-1.661525"><ele>291</ele><time>2020-10-28T13:41:11Z</time><name>PT7922</name></trkpt>
<trkpt lat="53.085944" lon="-1.661468"><ele>290</ele><time>2020-10-28T13:41:16Z</time><name>PT7923</name></trkpt>
<trkpt lat="53.085926" lon="-1.661421"><ele>290</ele><time>2020-10-28T13:41:19Z</time><name>PT7924</name></trkpt>
<trkpt lat="53.085883" lon="-1.661383"><ele>289</ele><time>2020-10-28T13:41:23Z</time><name>PT7925</name></trkpt>
<trkpt lat="53.085849" lon="-1.661336"><ele>288</ele><time>2020-10-28T13:41:26Z</time><name>PT7926</name></trkpt>
<trkpt lat="53.085833" lon="-1.661278"><ele>288</ele><time>2020-10-28T13:41:31Z</time><name>PT7927</name></trkpt>
<trkpt lat="53.085812" lon="-1.661220"><ele>288</ele><time>2020-10-28T13:41:35Z</time><name>PT7928</name></trkpt>
<trkpt lat="53.085797" lon="-1.661151"><ele>287</ele><time>2020-10-28T13:41:38Z</time><name>PT7929</name></trkpt>
<trkpt lat="53.085785" lon="-1.661102"><ele>286</ele><time>2020-10-28T13:41:41Z</time><name>PT7930</name></trkpt>
<trkpt lat="53.085759" lon="-1.661037"><ele>285</ele><time>2020-10-28T13:41:46Z</time><name>PT7931</name></trkpt>
<trkpt lat="53.085744" lon="-1.660966"><ele>284</ele><time>2020-10-28T13:41:50Z</time><name>PT7932</name></trkpt>
<trkpt lat="53.085739" lon="-1.660906"><ele>284</ele><time>2020-10-28T13:41:53Z</time><name>PT7933</name></trkpt>
<trkpt lat="53.085725" lon="-1.660824"><ele>284</ele><time>2020-10-28T13:41:56Z</time><name>PT7934</name></trkpt>
<trkpt lat="53.085716" lon="-1.660749"><ele>284</ele><time>2020-10-28T13:42:01Z</time><name>PT7935</name></trkpt>
<trkpt lat="53.085715" lon="-1.660694"><ele>284</ele><time>2020-10-28T13:42:04Z</time><name>PT7936</name></trkpt>
<trkpt lat="53.085711" lon="-1.660642"><ele>284</ele><time>2020-10-28T13:42:07Z</time><name>PT7937</name></trkpt>
<trkpt lat="53.085710" lon="-1.660628"><ele>283</ele><time>2020-10-28T13:42:08Z</time><name>PT7938</name></trkpt>
<trkpt lat="53.085708" lon="-1.660610"><ele>283</ele><time>2020-10-28T13:42:08Z</time><name>PT7939</name></trkpt>
<trkpt lat="53.085708" lon="-1.660595"><ele>283</ele><time>2020-10-28T13:42:10Z</time><name>PT7940</name></trkpt>
<trkpt lat="53.085706" lon="-1.660581"><ele>284</ele><time>2020-10-28T13:42:11Z</time><name>PT7941</name></trkpt>
<trkpt lat="53.085703" lon="-1.660562"><ele>283</ele><time>2020-10-28T13:42:11Z</time><name>PT7942</name></trkpt>
<trkpt lat="53.085701" lon="-1.660539"><ele>284</ele><time>2020-10-28T13:42:13Z</time><name>PT7943</name></trkpt>
<trkpt lat="53.085698" lon="-1.660523"><ele>284</ele><time>2020-10-28T13:42:14Z</time><name>PT7944</name></trkpt>
<trkpt lat="53.085693" lon="-1.660504"><ele>285</ele><time>2020-10-28T13:42:14Z</time><name>PT7945</name></trkpt>
<trkpt lat="53.085689" lon="-1.660481"><ele>285</ele><time>2020-10-28T13:42:16Z</time><name>PT7946</name></trkpt>
<trkpt lat="53.085687" lon="-1.660458"><ele>286</ele><time>2020-10-28T13:42:17Z</time><name>PT7947</name></trkpt>
<trkpt lat="53.085686" lon="-1.660436"><ele>286</ele><time>2020-10-28T13:42:17Z</time><name>PT7948</name></trkpt>
<trkpt lat="53.085686" lon="-1.660418"><ele>286</ele><time>2020-10-28T13:42:19Z</time><name>PT7949</name></trkpt>
<trkpt lat="53.085682" lon="-1.660401"><ele>285</ele><time>2020-10-28T13:42:20Z</time><name>PT7950</name></trkpt>
<trkpt lat="53.085678" lon="-1.660386"><ele>285</ele><time>2020-10-28T13:42:20Z</time><name>PT7951</name></trkpt>
<trkpt lat="53.085675" lon="-1.660368"><ele>285</ele><time>2020-10-28T13:42:22Z</time><name>PT7952</name></trkpt>
<trkpt lat="53.085671" lon="-1.660352"><ele>285</ele><time>2020-10-28T13:42:23Z</time><name>PT7953</name></trkpt>
<trkpt lat="53.085661" lon="-1.660333"><ele>284</ele><time>2020-10-28T13:42:23Z</time><name>PT7954</name></trkpt>
<trkpt lat="53.085654" lon="-1.660313"><ele>285</ele><time>2020-10-28T13:42:25Z</time><name>PT7955</name></trkpt>
<trkpt lat="53.085650" lon="-1.660291"><ele>285</ele><time>2020-10-28T13:42:26Z</time><name>PT7956</name></trkpt>
<trkpt lat="53.085647" lon="-1.660271"><ele>285</ele><time>2020-10-28T13:42:26Z</time><name>PT7957</name></trkpt>
<trkpt lat="53.085643" lon="-1.660256"><ele>284</ele><time>2020-10-28T13:42:28Z</time><name>PT7958</name></trkpt>
<trkpt lat="53.085641" lon="-1.660241"><ele>284</ele><time>2020-10-28T13:42:29Z</time><name>PT7959</name></trkpt>
<trkpt lat="53.085638" lon="-1.660225"><ele>284</ele><time>2020-10-28T13:42:29Z</time><name>PT7960</name></trkpt>
<trkpt lat="53.085637" lon="-1.660206"><ele>284</ele><time>2020-10-28T13:42:31Z</time><name>PT7961</name></trkpt>
<trkpt lat="53.085636" lon="-1.660190"><ele>284</ele><time>2020-10-28T13:42:32Z</time><name>PT7962</name></trkpt>
<trkpt lat="53.085628" lon="-1.660171"><ele>284</ele><time>2020-10-28T13:42:32Z</time><name>PT7963</name></trkpt>
<trkpt lat="53.085625" lon="-1.660151"><ele>284</ele><time>2020-10-28T13:42:34Z</time><name>PT7964</name></trkpt>
<trkpt lat="53.085624" lon="-1.660132"><ele>284</ele><time>2020-10-28T13:42:35Z</time><name>PT7965</name></trkpt>
<trkpt lat="53.085623" lon="-1.660111"><ele>284</ele><time>2020-10-28T13:42:35Z</time><name>PT7966</name></trkpt>
<trkpt lat="53.085621" lon="-1.660091"><ele>285</ele><time>2020-10-28T13:42:37Z</time><name>PT7967</name></trkpt>
<trkpt lat="53.085619" lon="-1.660072"><ele>285</ele><time>2020-10-28T13:42:38Z</time><name>PT7968</name></trkpt>
<trkpt lat="53.085618" lon="-1.660054"><ele>284</ele><time>2020-10-28T13:42:38Z</time><name>PT7969</name></trkpt>
<trkpt lat="53.085615" lon="-1.660038"><ele>284</ele><time>2020-10-28T13:42:39Z</time><name>PT7970</name></trkpt>
<trkpt lat="53.085613" lon="-1.660022"><ele>283</ele><time>2020-10-28T13:42:41Z</time><name>PT7971</name></trkpt>
<trkpt lat="53.085607" lon="-1.660004"><ele>283</ele><time>2020-10-28T13:42:41Z</time><name>PT7972</name></trkpt>
<trkpt lat="53.085602" lon="-1.659987"><ele>282</ele><time>2020-10-28T13:42:43Z</time><name>PT7973</name></trkpt>
<trkpt lat="53.085599" lon="-1.659970"><ele>282</ele><time>2020-10-28T13:42:44Z</time><name>PT7974</name></trkpt>
<trkpt lat="53.085597" lon="-1.659953"><ele>282</ele><time>2020-10-28T13:42:44Z</time><name>PT7975</name></trkpt>
<trkpt lat="53.085596" lon="-1.659931"><ele>282</ele><time>2020-10-28T13:42:46Z</time><name>PT7976</name></trkpt>
<trkpt lat="53.085598" lon="-1.659910"><ele>282</ele><time>2020-10-28T13:42:47Z</time><name>PT7977</name></trkpt>
<trkpt lat="53.085600" lon="-1.659891"><ele>282</ele><time>2020-10-28T13:42:47Z</time><name>PT7978</name></trkpt>
<trkpt lat="53.085603" lon="-1.659875"><ele>281</ele><time>2020-10-28T13:42:49Z</time><name>PT7979</name></trkpt>
<trkpt lat="53.085604" lon="-1.659852"><ele>281</ele><time>2020-10-28T13:42:50Z</time><name>PT7980</name></trkpt>
<trkpt lat="53.085603" lon="-1.659832"><ele>281</ele><time>2020-10-28T13:42:50Z</time><name>PT7981</name></trkpt>
<trkpt lat="53.085603" lon="-1.659813"><ele>281</ele><time>2020-10-28T13:42:52Z</time><name>PT7982</name></trkpt>
<trkpt lat="53.085603" lon="-1.659793"><ele>280</ele><time>2020-10-28T13:42:53Z</time><name>PT7983</name></trkpt>
<trkpt lat="53.085600" lon="-1.659771"><ele>280</ele><time>2020-10-28T13:42:53Z</time><name>PT7984</name></trkpt>
<trkpt lat="53.085597" lon="-1.659752"><ele>279</ele><time>2020-10-28T13:42:55Z</time><name>PT7985</name></trkpt>
<trkpt lat="53.085598" lon="-1.659732"><ele>280</ele><time>2020-10-28T13:42:56Z</time><name>PT7986</name></trkpt>
<trkpt lat="53.085592" lon="-1.659709"><ele>281</ele><time>2020-10-28T13:42:56Z</time><name>PT7987</name></trkpt>
<trkpt lat="53.085588" lon="-1.659686"><ele>281</ele><time>2020-10-28T13:42:58Z</time><name>PT7988</name></trkpt>
<trkpt lat="53.085584" lon="-1.659663"><ele>281</ele><time>2020-10-28T13:42:59Z</time><name>PT7989</name></trkpt>
<trkpt lat="53.085581" lon="-1.659641"><ele>280</ele><time>2020-10-28T13:42:59Z</time><name>PT7990</name></trkpt>
<trkpt lat="53.085580" lon="-1.659622"><ele>280</ele><time>2020-10-28T13:43:01Z</time><name>PT7991</name></trkpt>
<trkpt lat="53.085583" lon="-1.659602"><ele>280</ele><time>2020-10-28T13:43:02Z</time><name>PT7992</name></trkpt>
<trkpt lat="53.085588" lon="-1.659581"><ele>280</ele><time>2020-10-28T13:43:02Z</time><name>PT7993</name></trkpt>
<trkpt lat="53.085596" lon="-1.659562"><ele>279</ele><time>2020-10-28T13:43:04Z</time><name>PT7994</name></trkpt>
<trkpt lat="53.085599" lon="-1.659544"><ele>279</ele><time>2020-10-28T13:43:05Z</time><name>PT7995</name></trkpt>
<trkpt lat="53.085598" lon="-1.659526"><ele>279</ele><time>2020-10-28T13:43:05Z</time><name>PT7996</name></trkpt>
<trkpt lat="53.085596" lon="-1.659507"><ele>279</ele><time>2020-10-28T13:43:07Z</time><name>PT7997</name></trkpt>
<trkpt lat="53.085595" lon="-1.659492"><ele>279</ele><time>2020-10-28T13:43:08Z</time><name>PT7998</name></trkpt>
<trkpt lat="53.085593" lon="-1.659479"><ele>278</ele><time>2020-10-28T13:43:08Z</time><name>PT7999</name></trkpt>
<trkpt lat="53.085594" lon="-1.659460"><ele>277</ele><time>2020-10-28T13:43:10Z</time><name>PT8000</name></trkpt>
<trkpt lat="53.085598" lon="-1.659438"><ele>277</ele><time>2020-10-28T13:43:11Z</time><name>PT8001</name></trkpt>
<trkpt lat="53.085598" lon="-1.659419"><ele>277</ele><time>2020-10-28T13:43:11Z</time><name>PT8002</name></trkpt>
<trkpt lat="53.085598" lon="-1.659402"><ele>277</ele><time>2020-10-28T13:43:13Z</time><name>PT8003</name></trkpt>
<trkpt lat="53.085600" lon="-1.659382"><ele>276</ele><time>2020-10-28T13:43:14Z</time><name>PT8004</name></trkpt>
<trkpt lat="53.085598" lon="-1.659362"><ele>276</ele><time>2020-10-28T13:43:14Z</time><name>PT8005</name></trkpt>
<trkpt lat="53.085593" lon="-1.659342"><ele>276</ele><time>2020-10-28T13:43:16Z</time><name>PT8006</name></trkpt>
<trkpt lat="53.085589" lon="-1.659326"><ele>276</ele><time>2020-10-28T13:43:17Z</time><name>PT8007</name></trkpt>
<trkpt lat="53.085586" lon="-1.659308"><ele>275</ele><time>2020-10-28T13:43:17Z</time><name>PT8008</name></trkpt>
<trkpt lat="53.085583" lon="-1.659287"><ele>276</ele><time>2020-10-28T13:43:19Z</time><name>PT8009</name></trkpt>
<trkpt lat="53.085580" lon="-1.659271"><ele>274</ele><time>2020-10-28T13:43:20Z</time><name>PT8010</name></trkpt>
<trkpt lat="53.085577" lon="-1.659253"><ele>275</ele><time>2020-10-28T13:43:20Z</time><name>PT8011</name></trkpt>
<trkpt lat="53.085573" lon="-1.659235"><ele>274</ele><time>2020-10-28T13:43:22Z</time><name>PT8012</name></trkpt>
<trkpt lat="53.085569" lon="-1.659220"><ele>273</ele><time>2020-10-28T13:43:23Z</time><name>PT8013</name></trkpt>
<trkpt lat="53.085564" lon="-1.659201"><ele>274</ele><time>2020-10-28T13:43:23Z</time><name>PT8014</name></trkpt>
<trkpt lat="53.085559" lon="-1.659179"><ele>274</ele><time>2020-10-28T13:43:25Z</time><name>PT8015</name></trkpt>
<trkpt lat="53.085554" lon="-1.659163"><ele>273</ele><time>2020-10-28T13:43:26Z</time><name>PT8016</name></trkpt>
<trkpt lat="53.085549" lon="-1.659148"><ele>273</ele><time>2020-10-28T13:43:26Z</time><name>PT8017</name></trkpt>
<trkpt lat="53.085545" lon="-1.659135"><ele>273</ele><time>2020-10-28T13:43:27Z</time><name>PT8018</name></trkpt>
<trkpt lat="53.085539" lon="-1.659127"><ele>273</ele><time>2020-10-28T13:43:29Z</time><name>PT8019</name></trkpt>
<trkpt lat="53.085533" lon="-1.659118"><ele>273</ele><time>2020-10-28T13:43:29Z</time><name>PT8020</name></trkpt>
<trkpt lat="53.085527" lon="-1.659121"><ele>273</ele><time>2020-10-28T13:43:31Z</time><name>PT8021</name></trkpt>
<trkpt lat="53.085520" lon="-1.659127"><ele>273</ele><time>2020-10-28T13:43:32Z</time><name>PT8022</name></trkpt>
<trkpt lat="53.085509" lon="-1.659129"><ele>273</ele><time>2020-10-28T13:43:32Z</time><name>PT8023</name></trkpt>
<trkpt lat="53.085501" lon="-1.659129"><ele>274</ele><time>2020-10-28T13:43:34Z</time><name>PT8024</name></trkpt>
<trkpt lat="53.085498" lon="-1.659124"><ele>274</ele><time>2020-10-28T13:43:35Z</time><name>PT8025</name></trkpt>
<trkpt lat="53.085497" lon="-1.659123"><ele>273</ele><time>2020-10-28T13:43:35Z</time><name>PT8026</name></trkpt>
<trkpt lat="53.085499" lon="-1.659125"><ele>273</ele><time>2020-10-28T13:43:37Z</time><name>PT8027</name></trkpt>
<trkpt lat="53.085498" lon="-1.659118"><ele>273</ele><time>2020-10-28T13:43:38Z</time><name>PT8028</name></trkpt>
<trkpt lat="53.085492" lon="-1.659110"><ele>273</ele><time>2020-10-28T13:43:38Z</time><name>PT8029</name></trkpt>
<trkpt lat="53.085486" lon="-1.659097"><ele>272</ele><time>2020-10-28T13:43:39Z</time><name>PT8030</name></trkpt>
<trkpt lat="53.085484" lon="-1.659081"><ele>272</ele><time>2020-10-28T13:43:41Z</time><name>PT8031</name></trkpt>
<trkpt lat="53.085485" lon="-1.659064"><ele>272</ele><time>2020-10-28T13:43:41Z</time><name>PT8032</name></trkpt>
<trkpt lat="53.085485" lon="-1.659046"><ele>272</ele><time>2020-10-28T13:43:43Z</time><name>PT8033</name></trkpt>
<trkpt lat="53.085486" lon="-1.659028"><ele>271</ele><time>2020-10-28T13:43:44Z</time><name>PT8034</name></trkpt>
<trkpt lat="53.085487" lon="-1.659013"><ele>271</ele><time>2020-10-28T13:43:44Z</time><name>PT8035</name></trkpt>
<trkpt lat="53.085490" lon="-1.658999"><ele>271</ele><time>2020-10-28T13:43:46Z</time><name>PT8036</name></trkpt>
<trkpt lat="53.085494" lon="-1.658983"><ele>272</ele><time>2020-10-28T13:43:47Z</time><name>PT8037</name></trkpt>
<trkpt lat="53.085498" lon="-1.658968"><ele>272</ele><time>2020-10-28T13:43:47Z</time><name>PT8038</name></trkpt>
<trkpt lat="53.085500" lon="-1.658952"><ele>272</ele><time>2020-10-28T13:43:49Z</time><name>PT8039</name></trkpt>
<trkpt lat="53.085504" lon="-1.658941"><ele>272</ele><time>2020-10-28T13:43:50Z</time><name>PT8040</name></trkpt>
<trkpt lat="53.085508" lon="-1.658929"><ele>272</ele><time>2020-10-28T13:43:50Z</time><name>PT8041</name></trkpt>
<trkpt lat="53.085513" lon="-1.658916"><ele>272</ele><time>2020-10-28T13:43:52Z</time><name>PT8042</name></trkpt>
<trkpt lat="53.085517" lon="-1.658902"><ele>273</ele><time>2020-10-28T13:43:53Z</time><name>PT8043</name></trkpt>
<trkpt lat="53.085525" lon="-1.658884"><ele>272</ele><time>2020-10-28T13:43:53Z</time><name>PT8044</name></trkpt>
<trkpt lat="53.085525" lon="-1.658868"><ele>272</ele><time>2020-10-28T13:43:54Z</time><name>PT8045</name></trkpt>
<trkpt lat="53.085531" lon="-1.658851"><ele>272</ele><time>2020-10-28T13:43:56Z</time><name>PT8046</name></trkpt>
<trkpt lat="53.085535" lon="-1.658843"><ele>272</ele><time>2020-10-28T13:43:56Z</time><name>PT8047</name></trkpt>
<trkpt lat="53.085540" lon="-1.658827"><ele>273</ele><time>2020-10-28T13:43:58Z</time><name>PT8048</name></trkpt>
<trkpt lat="53.085546" lon="-1.658810"><ele>273</ele><time>2020-10-28T13:43:59Z</time><name>PT8049</name></trkpt>
<trkpt lat="53.085550" lon="-1.658789"><ele>273</ele><time>2020-10-28T13:43:59Z</time><name>PT8050</name></trkpt>
<trkpt lat="53.085555" lon="-1.658772"><ele>273</ele><time>2020-10-28T13:44:01Z</time><name>PT8051</name></trkpt>
<trkpt lat="53.085563" lon="-1.658760"><ele>273</ele><time>2020-10-28T13:44:02Z</time><name>PT8052</name></trkpt>
<trkpt lat="53.085567" lon="-1.658744"><ele>273</ele><time>2020-10-28T13:44:02Z</time><name>PT8053</name></trkpt>
<trkpt lat="53.085572" lon="-1.658727"><ele>273</ele><time>2020-10-28T13:44:04Z</time><name>PT8054</name></trkpt>
<trkpt lat="53.085575" lon="-1.658711"><ele>273</ele><time>2020-10-28T13:44:05Z</time><name>PT8055</name></trkpt>
<trkpt lat="53.085583" lon="-1.658696"><ele>273</ele><time>2020-10-28T13:44:05Z</time><name>PT8056</name></trkpt>
<trkpt lat="53.085590" lon="-1.658686"><ele>273</ele><time>2020-10-28T13:44:07Z</time><name>PT8057</name></trkpt>
<trkpt lat="53.085594" lon="-1.658673"><ele>273</ele><time>2020-10-28T13:44:08Z</time><name>PT8058</name></trkpt>
<trkpt lat="53.085599" lon="-1.658659"><ele>273</ele><time>2020-10-28T13:44:08Z</time><name>PT8059</name></trkpt>
<trkpt lat="53.085605" lon="-1.658646"><ele>273</ele><time>2020-10-28T13:44:09Z</time><name>PT8060</name></trkpt>
<trkpt lat="53.085608" lon="-1.658635"><ele>273</ele><time>2020-10-28T13:44:11Z</time><name>PT8061</name></trkpt>
<trkpt lat="53.085611" lon="-1.658625"><ele>273</ele><time>2020-10-28T13:44:11Z</time><name>PT8062</name></trkpt>
<trkpt lat="53.085615" lon="-1.658610"><ele>273</ele><time>2020-10-28T13:44:12Z</time><name>PT8063</name></trkpt>
<trkpt lat="53.085618" lon="-1.658590"><ele>273</ele><time>2020-10-28T13:44:14Z</time><name>PT8064</name></trkpt>
<trkpt lat="53.085625" lon="-1.658571"><ele>273</ele><time>2020-10-28T13:44:14Z</time><name>PT8065</name></trkpt>
<trkpt lat="53.085632" lon="-1.658551"><ele>273</ele><time>2020-10-28T13:44:15Z</time><name>PT8066</name></trkpt>
<trkpt lat="53.085638" lon="-1.658533"><ele>273</ele><time>2020-10-28T13:44:17Z</time><name>PT8067</name></trkpt>
<trkpt lat="53.085641" lon="-1.658520"><ele>273</ele><time>2020-10-28T13:44:17Z</time><name>PT8068</name></trkpt>
<trkpt lat="53.085646" lon="-1.658505"><ele>272</ele><time>2020-10-28T13:44:19Z</time><name>PT8069</name></trkpt>
<trkpt lat="53.085653" lon="-1.658488"><ele>272</ele><time>2020-10-28T13:44:20Z</time><name>PT8070</name></trkpt>
<trkpt lat="53.085659" lon="-1.658472"><ele>272</ele><time>2020-10-28T13:44:20Z</time><name>PT8071</name></trkpt>
<trkpt lat="53.085666" lon="-1.658457"><ele>272</ele><time>2020-10-28T13:44:21Z</time><name>PT8072</name></trkpt>
<trkpt lat="53.085672" lon="-1.658444"><ele>271</ele><time>2020-10-28T13:44:23Z</time><name>PT8073</name></trkpt>
<trkpt lat="53.085674" lon="-1.658430"><ele>271</ele><time>2020-10-28T13:44:23Z</time><name>PT8074</name></trkpt>
<trkpt lat="53.085673" lon="-1.658416"><ele>271</ele><time>2020-10-28T13:44:25Z</time><name>PT8075</name></trkpt>
<trkpt lat="53.085677" lon="-1.658402"><ele>270</ele><time>2020-10-28T13:44:26Z</time><name>PT8076</name></trkpt>
<trkpt lat="53.085681" lon="-1.658392"><ele>269</ele><time>2020-10-28T13:44:26Z</time><name>PT8077</name></trkpt>
<trkpt lat="53.085685" lon="-1.658379"><ele>269</ele><time>2020-10-28T13:44:27Z</time><name>PT8078</name></trkpt>
<trkpt lat="53.085687" lon="-1.658365"><ele>269</ele><time>2020-10-28T13:44:29Z</time><name>PT8079</name></trkpt>
<trkpt lat="53.085693" lon="-1.658350"><ele>269</ele><time>2020-10-28T13:44:29Z</time><name>PT8080</name></trkpt>
<trkpt lat="53.085698" lon="-1.658339"><ele>268</ele><time>2020-10-28T13:44:31Z</time><name>PT8081</name></trkpt>
<trkpt lat="53.085698" lon="-1.658327"><ele>268</ele><time>2020-10-28T13:44:32Z</time><name>PT8082</name></trkpt>
<trkpt lat="53.085703" lon="-1.658317"><ele>267</ele><time>2020-10-28T13:44:32Z</time><name>PT8083</name></trkpt>
<trkpt lat="53.085714" lon="-1.658301"><ele>268</ele><time>2020-10-28T13:44:34Z</time><name>PT8084</name></trkpt>
<trkpt lat="53.085715" lon="-1.658289"><ele>267</ele><time>2020-10-28T13:44:35Z</time><name>PT8085</name></trkpt>
<trkpt lat="53.085723" lon="-1.658277"><ele>267</ele><time>2020-10-28T13:44:35Z</time><name>PT8086</name></trkpt>
<trkpt lat="53.085729" lon="-1.658266"><ele>267</ele><time>2020-10-28T13:44:37Z</time><name>PT8087</name></trkpt>
<trkpt lat="53.085732" lon="-1.658255"><ele>267</ele><time>2020-10-28T13:44:38Z</time><name>PT8088</name></trkpt>
<trkpt lat="53.085737" lon="-1.658242"><ele>266</ele><time>2020-10-28T13:44:38Z</time><name>PT8089</name></trkpt>
<trkpt lat="53.085748" lon="-1.658228"><ele>265</ele><time>2020-10-28T13:44:40Z</time><name>PT8090</name></trkpt>
<trkpt lat="53.085761" lon="-1.658216"><ele>265</ele><time>2020-10-28T13:44:41Z</time><name>PT8091</name></trkpt>
<trkpt lat="53.085772" lon="-1.658204"><ele>264</ele><time>2020-10-28T13:44:41Z</time><name>PT8092</name></trkpt>
<trkpt lat="53.085779" lon="-1.658190"><ele>264</ele><time>2020-10-28T13:44:43Z</time><name>PT8093</name></trkpt>
<trkpt lat="53.085785" lon="-1.658174"><ele>264</ele><time>2020-10-28T13:44:44Z</time><name>PT8094</name></trkpt>
<trkpt lat="53.085793" lon="-1.658159"><ele>263</ele><time>2020-10-28T13:44:44Z</time><name>PT8095</name></trkpt>
<trkpt lat="53.085800" lon="-1.658142"><ele>263</ele><time>2020-10-28T13:44:46Z</time><name>PT8096</name></trkpt>
<trkpt lat="53.085808" lon="-1.658131"><ele>263</ele><time>2020-10-28T13:44:47Z</time><name>PT8097</name></trkpt>
<trkpt lat="53.085815" lon="-1.658122"><ele>263</ele><time>2020-10-28T13:44:47Z</time><name>PT8098</name></trkpt>
<trkpt lat="53.085821" lon="-1.658113"><ele>262</ele><time>2020-10-28T13:44:49Z</time><name>PT8099</name></trkpt>
<trkpt lat="53.085830" lon="-1.658102"><ele>262</ele><time>2020-10-28T13:44:50Z</time><name>PT8100</name></trkpt>
<trkpt lat="53.085837" lon="-1.658090"><ele>261</ele><time>2020-10-28T13:44:50Z</time><name>PT8101</name></trkpt>
<trkpt lat="53.085845" lon="-1.658076"><ele>261</ele><time>2020-10-28T13:44:52Z</time><name>PT8102</name></trkpt>
<trkpt lat="53.085852" lon="-1.658065"><ele>261</ele><time>2020-10-28T13:44:53Z</time><name>PT8103</name></trkpt>
<trkpt lat="53.085890" lon="-1.658051"><ele>262</ele><time>2020-10-28T13:44:53Z</time><name>PT8104</name></trkpt>
<trkpt lat="53.085902" lon="-1.658028"><ele>267</ele><time>2020-10-28T13:44:55Z</time><name>PT8105</name></trkpt>
<trkpt lat="53.085909" lon="-1.658024"><ele>268</ele><time>2020-10-28T13:44:56Z</time><name>PT8106</name></trkpt>
<trkpt lat="53.085916" lon="-1.658014"><ele>270</ele><time>2020-10-28T13:44:56Z</time><name>PT8107</name></trkpt>
<trkpt lat="53.085924" lon="-1.658001"><ele>270</ele><time>2020-10-28T13:45:28Z</time><name>PT8108</name></trkpt>
<trkpt lat="53.085947" lon="-1.657947"><ele>269</ele><time>2020-10-28T13:45:32Z</time><name>PT8109</name></trkpt>
<trkpt lat="53.085977" lon="-1.657877"><ele>268</ele><time>2020-10-28T13:45:35Z</time><name>PT8110</name></trkpt>
<trkpt lat="53.085993" lon="-1.657837"><ele>267</ele><time>2020-10-28T13:45:38Z</time><name>PT8111</name></trkpt>
<trkpt lat="53.086019" lon="-1.657778"><ele>266</ele><time>2020-10-28T13:45:43Z</time><name>PT8112</name></trkpt>
<trkpt lat="53.086041" lon="-1.657721"><ele>265</ele><time>2020-10-28T13:45:47Z</time><name>PT8113</name></trkpt>
<trkpt lat="53.086070" lon="-1.657654"><ele>265</ele><time>2020-10-28T13:45:50Z</time><name>PT8114</name></trkpt>
<trkpt lat="53.086104" lon="-1.657591"><ele>265</ele><time>2020-10-28T13:45:55Z</time><name>PT8115</name></trkpt>
<trkpt lat="53.086129" lon="-1.657542"><ele>265</ele><time>2020-10-28T13:45:58Z</time><name>PT8116</name></trkpt>
<trkpt lat="53.086162" lon="-1.657483"><ele>264</ele><time>2020-10-28T13:46:02Z</time><name>PT8117</name></trkpt>
<trkpt lat="53.086197" lon="-1.657416"><ele>264</ele><time>2020-10-28T13:46:05Z</time><name>PT8118</name></trkpt>
<trkpt lat="53.086228" lon="-1.657347"><ele>263</ele><time>2020-10-28T13:46:10Z</time><name>PT8119</name></trkpt>
<trkpt lat="53.086262" lon="-1.657286"><ele>262</ele><time>2020-10-28T13:46:14Z</time><name>PT8120</name></trkpt>
<trkpt lat="53.086286" lon="-1.657245"><ele>261</ele><time>2020-10-28T13:46:17Z</time><name>PT8121</name></trkpt>
<trkpt lat="53.086317" lon="-1.657197"><ele>261</ele><time>2020-10-28T13:46:20Z</time><name>PT8122</name></trkpt>
<trkpt lat="53.086332" lon="-1.657148"><ele>261</ele><time>2020-10-28T13:46:23Z</time><name>PT8123</name></trkpt>
<trkpt lat="53.086356" lon="-1.657073"><ele>262</ele><time>2020-10-28T13:46:26Z</time><name>PT8124</name></trkpt>
<trkpt lat="53.086372" lon="-1.656997"><ele>262</ele><time>2020-10-28T13:46:31Z</time><name>PT8125</name></trkpt>
<trkpt lat="53.086404" lon="-1.656930"><ele>261</ele><time>2020-10-28T13:46:35Z</time><name>PT8126</name></trkpt>
<trkpt lat="53.086438" lon="-1.656864"><ele>260</ele><time>2020-10-28T13:46:38Z</time><name>PT8127</name></trkpt>
<trkpt lat="53.086462" lon="-1.656823"><ele>260</ele><time>2020-10-28T13:46:41Z</time><name>PT8128</name></trkpt>
<trkpt lat="53.086486" lon="-1.656779"><ele>259</ele><time>2020-10-28T13:46:44Z</time><name>PT8129</name></trkpt>
<trkpt lat="53.086512" lon="-1.656737"><ele>259</ele><time>2020-10-28T13:46:47Z</time><name>PT8130</name></trkpt>
<trkpt lat="53.086550" lon="-1.656689"><ele>259</ele><time>2020-10-28T13:46:52Z</time><name>PT8131</name></trkpt>
<trkpt lat="53.086572" lon="-1.656647"><ele>258</ele><time>2020-10-28T13:46:56Z</time><name>PT8132</name></trkpt>
<trkpt lat="53.086591" lon="-1.656612"><ele>258</ele><time>2020-10-28T13:46:59Z</time><name>PT8133</name></trkpt>
<trkpt lat="53.086617" lon="-1.656567"><ele>259</ele><time>2020-10-28T13:47:02Z</time><name>PT8134</name></trkpt>
<trkpt lat="53.086637" lon="-1.656540"><ele>258</ele><time>2020-10-28T13:47:05Z</time><name>PT8135</name></trkpt>
<trkpt lat="53.086665" lon="-1.656506"><ele>258</ele><time>2020-10-28T13:47:08Z</time><name>PT8136</name></trkpt>
<trkpt lat="53.086718" lon="-1.656442"><ele>259</ele><time>2020-10-28T13:47:11Z</time><name>PT8137</name></trkpt>
<trkpt lat="53.086768" lon="-1.656395"><ele>262</ele><time>2020-10-28T13:47:15Z</time><name>PT8138</name></trkpt>
<trkpt lat="53.086779" lon="-1.656389"><ele>262</ele><time>2020-10-28T13:47:17Z</time><name>PT8139</name></trkpt>
<trkpt lat="53.086789" lon="-1.656384"><ele>263</ele><time>2020-10-28T13:47:17Z</time><name>PT8140</name></trkpt>
<trkpt lat="53.086800" lon="-1.656377"><ele>263</ele><time>2020-10-28T13:47:19Z</time><name>PT8141</name></trkpt>
<trkpt lat="53.086811" lon="-1.656370"><ele>263</ele><time>2020-10-28T13:47:20Z</time><name>PT8142</name></trkpt>
<trkpt lat="53.086821" lon="-1.656364"><ele>263</ele><time>2020-10-28T13:47:20Z</time><name>PT8143</name></trkpt>
<trkpt lat="53.086832" lon="-1.656359"><ele>264</ele><time>2020-10-28T13:47:22Z</time><name>PT8144</name></trkpt>
<trkpt lat="53.086845" lon="-1.656355"><ele>264</ele><time>2020-10-28T13:47:23Z</time><name>PT8145</name></trkpt>
<trkpt lat="53.086855" lon="-1.656352"><ele>264</ele><time>2020-10-28T13:47:23Z</time><name>PT8146</name></trkpt>
<trkpt lat="53.086864" lon="-1.656348"><ele>264</ele><time>2020-10-28T13:47:25Z</time><name>PT8147</name></trkpt>
<trkpt lat="53.086875" lon="-1.656347"><ele>264</ele><time>2020-10-28T13:47:26Z</time><name>PT8148</name></trkpt>
<trkpt lat="53.086885" lon="-1.656347"><ele>264</ele><time>2020-10-28T13:47:26Z</time><name>PT8149</name></trkpt>
<trkpt lat="53.086895" lon="-1.656346"><ele>265</ele><time>2020-10-28T13:47:28Z</time><name>PT8150</name></trkpt>
<trkpt lat="53.086905" lon="-1.656343"><ele>265</ele><time>2020-10-28T13:47:29Z</time><name>PT8151</name></trkpt>
<trkpt lat="53.086915" lon="-1.656337"><ele>265</ele><time>2020-10-28T13:47:29Z</time><name>PT8152</name></trkpt>
<trkpt lat="53.086926" lon="-1.656330"><ele>265</ele><time>2020-10-28T13:47:31Z</time><name>PT8153</name></trkpt>
<trkpt lat="53.086934" lon="-1.656321"><ele>265</ele><time>2020-10-28T13:47:32Z</time><name>PT8154</name></trkpt>
<trkpt lat="53.086941" lon="-1.656313"><ele>266</ele><time>2020-10-28T13:47:32Z</time><name>PT8155</name></trkpt>
<trkpt lat="53.086943" lon="-1.656310"><ele>266</ele><time>2020-10-28T13:47:34Z</time><name>PT8156</name></trkpt>
<trkpt lat="53.086945" lon="-1.656316"><ele>266</ele><time>2020-10-28T13:47:35Z</time><name>PT8157</name></trkpt>
<trkpt lat="53.086952" lon="-1.656324"><ele>266</ele><time>2020-10-28T13:47:35Z</time><name>PT8158</name></trkpt>
<trkpt lat="53.086959" lon="-1.656333"><ele>266</ele><time>2020-10-28T13:47:37Z</time><name>PT8159</name></trkpt>
<trkpt lat="53.086969" lon="-1.656344"><ele>267</ele><time>2020-10-28T13:47:38Z</time><name>PT8160</name></trkpt>
<trkpt lat="53.086977" lon="-1.656351"><ele>267</ele><time>2020-10-28T13:47:38Z</time><name>PT8161</name></trkpt>
<trkpt lat="53.086986" lon="-1.656353"><ele>267</ele><time>2020-10-28T13:47:40Z</time><name>PT8162</name></trkpt>
<trkpt lat="53.086995" lon="-1.656354"><ele>267</ele><time>2020-10-28T13:47:41Z</time><name>PT8163</name></trkpt>
<trkpt lat="53.087005" lon="-1.656356"><ele>267</ele><time>2020-10-28T13:47:41Z</time><name>PT8164</name></trkpt>
<trkpt lat="53.087016" lon="-1.656361"><ele>267</ele><time>2020-10-28T13:47:43Z</time><name>PT8165</name></trkpt>
<trkpt lat="53.087026" lon="-1.656367"><ele>267</ele><time>2020-10-28T13:47:44Z</time><name>PT8166</name></trkpt>
<trkpt lat="53.087036" lon="-1.656370"><ele>267</ele><time>2020-10-28T13:47:44Z</time><name>PT8167</name></trkpt>
<trkpt lat="53.087046" lon="-1.656372"><ele>268</ele><time>2020-10-28T13:47:46Z</time><name>PT8168</name></trkpt>
<trkpt lat="53.087057" lon="-1.656374"><ele>268</ele><time>2020-10-28T13:47:47Z</time><name>PT8169</name></trkpt>
<trkpt lat="53.087066" lon="-1.656379"><ele>268</ele><time>2020-10-28T13:47:47Z</time><name>PT8170</name></trkpt>
<trkpt lat="53.087075" lon="-1.656386"><ele>268</ele><time>2020-10-28T13:47:49Z</time><name>PT8171</name></trkpt>
<trkpt lat="53.087082" lon="-1.656391"><ele>268</ele><time>2020-10-28T13:47:50Z</time><name>PT8172</name></trkpt>
<trkpt lat="53.087089" lon="-1.656394"><ele>268</ele><time>2020-10-28T13:47:50Z</time><name>PT8173</name></trkpt>
<trkpt lat="53.087093" lon="-1.656397"><ele>268</ele><time>2020-10-28T13:47:51Z</time><name>PT8174</name></trkpt>
<trkpt lat="53.087100" lon="-1.656402"><ele>268</ele><time>2020-10-28T13:47:53Z</time><name>PT8175</name></trkpt>
<trkpt lat="53.087110" lon="-1.656409"><ele>268</ele><time>2020-10-28T13:47:53Z</time><name>PT8176</name></trkpt>
<trkpt lat="53.087120" lon="-1.656413"><ele>269</ele><time>2020-10-28T13:47:55Z</time><name>PT8177</name></trkpt>
<trkpt lat="53.087126" lon="-1.656415"><ele>268</ele><time>2020-10-28T13:47:56Z</time><name>PT8178</name></trkpt>
<trkpt lat="53.087135" lon="-1.656419"><ele>267</ele><time>2020-10-28T13:47:56Z</time><name>PT8179</name></trkpt>
<trkpt lat="53.087144" lon="-1.656421"><ele>266</ele><time>2020-10-28T13:47:58Z</time><name>PT8180</name></trkpt>
<trkpt lat="53.087152" lon="-1.656418"><ele>267</ele><time>2020-10-28T13:47:59Z</time><name>PT8181</name></trkpt>
<trkpt lat="53.087162" lon="-1.656417"><ele>267</ele><time>2020-10-28T13:47:59Z</time><name>PT8182</name></trkpt>
<trkpt lat="53.087170" lon="-1.656419"><ele>267</ele><time>2020-10-28T13:48:01Z</time><name>PT8183</name></trkpt>
<trkpt lat="53.087179" lon="-1.656421"><ele>267</ele><time>2020-10-28T13:48:02Z</time><name>PT8184</name></trkpt>
<trkpt lat="53.087189" lon="-1.656420"><ele>267</ele><time>2020-10-28T13:48:02Z</time><name>PT8185</name></trkpt>
<trkpt lat="53.087198" lon="-1.656422"><ele>268</ele><time>2020-10-28T13:48:04Z</time><name>PT8186</name></trkpt>
<trkpt lat="53.087210" lon="-1.656425"><ele>267</ele><time>2020-10-28T13:48:05Z</time><name>PT8187</name></trkpt>
<trkpt lat="53.087221" lon="-1.656422"><ele>267</ele><time>2020-10-28T13:48:05Z</time><name>PT8188</name></trkpt>
<trkpt lat="53.087229" lon="-1.656424"><ele>267</ele><time>2020-10-28T13:48:06Z</time><name>PT8189</name></trkpt>
<trkpt lat="53.087240" lon="-1.656425"><ele>267</ele><time>2020-10-28T13:48:08Z</time><name>PT8190</name></trkpt>
<trkpt lat="53.087252" lon="-1.656428"><ele>268</ele><time>2020-10-28T13:48:08Z</time><name>PT8191</name></trkpt>
<trkpt lat="53.087262" lon="-1.656428"><ele>268</ele><time>2020-10-28T13:48:09Z</time><name>PT8192</name></trkpt>
<trkpt lat="53.087271" lon="-1.656430"><ele>268</ele><time>2020-10-28T13:48:11Z</time><name>PT8193</name></trkpt>
<trkpt lat="53.087280" lon="-1.656430"><ele>267</ele><time>2020-10-28T13:48:11Z</time><name>PT8194</name></trkpt>
<trkpt lat="53.087288" lon="-1.656430"><ele>268</ele><time>2020-10-28T13:48:13Z</time><name>PT8195</name></trkpt>
<trkpt lat="53.087296" lon="-1.656429"><ele>267</ele><time>2020-10-28T13:48:14Z</time><name>PT8196</name></trkpt>
<trkpt lat="53.087304" lon="-1.656429"><ele>267</ele><time>2020-10-28T13:48:14Z</time><name>PT8197</name></trkpt>
<trkpt lat="53.087313" lon="-1.656426"><ele>267</ele><time>2020-10-28T13:48:15Z</time><name>PT8198</name></trkpt>
<trkpt lat="53.087322" lon="-1.656429"><ele>266</ele><time>2020-10-28T13:48:17Z</time><name>PT8199</name></trkpt>
<trkpt lat="53.087329" lon="-1.656431"><ele>266</ele><time>2020-10-28T13:48:17Z</time><name>PT8200</name></trkpt>
<trkpt lat="53.087335" lon="-1.656432"><ele>265</ele><time>2020-10-28T13:48:19Z</time><name>PT8201</name></trkpt>
<trkpt lat="53.087346" lon="-1.656430"><ele>264</ele><time>2020-10-28T13:48:20Z</time><name>PT8202</name></trkpt>
<trkpt lat="53.087356" lon="-1.656428"><ele>264</ele><time>2020-10-28T13:48:21Z</time><name>PT8203</name></trkpt>
<trkpt lat="53.087365" lon="-1.656428"><ele>265</ele><time>2020-10-28T13:48:22Z</time><name>PT8204</name></trkpt>
<trkpt lat="53.087375" lon="-1.656431"><ele>265</ele><time>2020-10-28T13:48:23Z</time><name>PT8205</name></trkpt>
<trkpt lat="53.087387" lon="-1.656435"><ele>265</ele><time>2020-10-28T13:48:23Z</time><name>PT8206</name></trkpt>
<trkpt lat="53.087397" lon="-1.656438"><ele>265</ele><time>2020-10-28T13:48:24Z</time><name>PT8207</name></trkpt>
<trkpt lat="53.087405" lon="-1.656434"><ele>265</ele><time>2020-10-28T13:48:26Z</time><name>PT8208</name></trkpt>
<trkpt lat="53.087415" lon="-1.656429"><ele>265</ele><time>2020-10-28T13:48:26Z</time><name>PT8209</name></trkpt>
<trkpt lat="53.087427" lon="-1.656427"><ele>265</ele><time>2020-10-28T13:48:27Z</time><name>PT8210</name></trkpt>
<trkpt lat="53.087435" lon="-1.656426"><ele>265</ele><time>2020-10-28T13:48:29Z</time><name>PT8211</name></trkpt>
<trkpt lat="53.087447" lon="-1.656427"><ele>265</ele><time>2020-10-28T13:48:29Z</time><name>PT8212</name></trkpt>
<trkpt lat="53.087452" lon="-1.656430"><ele>264</ele><time>2020-10-28T13:48:31Z</time><name>PT8213</name></trkpt>
<trkpt lat="53.087457" lon="-1.656428"><ele>265</ele><time>2020-10-28T13:48:32Z</time><name>PT8214</name></trkpt>
<trkpt lat="53.087465" lon="-1.656427"><ele>265</ele><time>2020-10-28T13:48:32Z</time><name>PT8215</name></trkpt>
<trkpt lat="53.087476" lon="-1.656422"><ele>266</ele><time>2020-10-28T13:48:33Z</time><name>PT8216</name></trkpt>
<trkpt lat="53.087486" lon="-1.656416"><ele>266</ele><time>2020-10-28T13:48:35Z</time><name>PT8217</name></trkpt>
<trkpt lat="53.087492" lon="-1.656400"><ele>266</ele><time>2020-10-28T13:48:35Z</time><name>PT8218</name></trkpt>
<trkpt lat="53.087503" lon="-1.656390"><ele>267</ele><time>2020-10-28T13:48:37Z</time><name>PT8219</name></trkpt>
<trkpt lat="53.087513" lon="-1.656383"><ele>267</ele><time>2020-10-28T13:48:38Z</time><name>PT8220</name></trkpt>
<trkpt lat="53.087522" lon="-1.656375"><ele>268</ele><time>2020-10-28T13:48:38Z</time><name>PT8221</name></trkpt>
<trkpt lat="53.087534" lon="-1.656371"><ele>267</ele><time>2020-10-28T13:48:39Z</time><name>PT8222</name></trkpt>
<trkpt lat="53.087544" lon="-1.656363"><ele>267</ele><time>2020-10-28T13:48:41Z</time><name>PT8223</name></trkpt>
<trkpt lat="53.087557" lon="-1.656362"><ele>267</ele><time>2020-10-28T13:48:41Z</time><name>PT8224</name></trkpt>
<trkpt lat="53.087566" lon="-1.656354"><ele>267</ele><time>2020-10-28T13:48:43Z</time><name>PT8225</name></trkpt>
<trkpt lat="53.087573" lon="-1.656332"><ele>268</ele><time>2020-10-28T13:48:44Z</time><name>PT8226</name></trkpt>
<trkpt lat="53.087584" lon="-1.656325"><ele>269</ele><time>2020-10-28T13:48:44Z</time><name>PT8227</name></trkpt>
<trkpt lat="53.087600" lon="-1.656337"><ele>270</ele><time>2020-10-28T13:48:45Z</time><name>PT8228</name></trkpt>
<trkpt lat="53.087609" lon="-1.656344"><ele>270</ele><time>2020-10-28T13:48:47Z</time><name>PT8229</name></trkpt>
<trkpt lat="53.087615" lon="-1.656349"><ele>270</ele><time>2020-10-28T13:48:47Z</time><name>PT8230</name></trkpt>
<trkpt lat="53.087619" lon="-1.656348"><ele>271</ele><time>2020-10-28T13:48:49Z</time><name>PT8231</name></trkpt>
<trkpt lat="53.087625" lon="-1.656361"><ele>270</ele><time>2020-10-28T13:48:50Z</time><name>PT8232</name></trkpt>
<trkpt lat="53.087626" lon="-1.656364"><ele>270</ele><time>2020-10-28T13:48:50Z</time><name>PT8233</name></trkpt>
<trkpt lat="53.087626" lon="-1.656367"><ele>270</ele><time>2020-10-28T13:48:51Z</time><name>PT8234</name></trkpt>
<trkpt lat="53.087634" lon="-1.656357"><ele>270</ele><time>2020-10-28T13:48:55Z</time><name>PT8235</name></trkpt>
<trkpt lat="53.087652" lon="-1.656341"><ele>269</ele><time>2020-10-28T13:48:56Z</time><name>PT8236</name></trkpt>
<trkpt lat="53.087662" lon="-1.656322"><ele>269</ele><time>2020-10-28T13:48:56Z</time><name>PT8237</name></trkpt>
<trkpt lat="53.087671" lon="-1.656305"><ele>269</ele><time>2020-10-28T13:48:58Z</time><name>PT8238</name></trkpt>
<trkpt lat="53.087682" lon="-1.656296"><ele>268</ele><time>2020-10-28T13:48:59Z</time><name>PT8239</name></trkpt>
<trkpt lat="53.087692" lon="-1.656283"><ele>268</ele><time>2020-10-28T13:48:59Z</time><name>PT8240</name></trkpt>
<trkpt lat="53.087703" lon="-1.656275"><ele>268</ele><time>2020-10-28T13:49:00Z</time><name>PT8241</name></trkpt>
<trkpt lat="53.087712" lon="-1.656260"><ele>268</ele><time>2020-10-28T13:49:02Z</time><name>PT8242</name></trkpt>
<trkpt lat="53.087722" lon="-1.656250"><ele>267</ele><time>2020-10-28T13:49:02Z</time><name>PT8243</name></trkpt>
<trkpt lat="53.087733" lon="-1.656244"><ele>266</ele><time>2020-10-28T13:49:04Z</time><name>PT8244</name></trkpt>
<trkpt lat="53.087743" lon="-1.656242"><ele>265</ele><time>2020-10-28T13:49:05Z</time><name>PT8245</name></trkpt>
<trkpt lat="53.087752" lon="-1.656239"><ele>265</ele><time>2020-10-28T13:49:05Z</time><name>PT8246</name></trkpt>
<trkpt lat="53.087764" lon="-1.656236"><ele>264</ele><time>2020-10-28T13:49:07Z</time><name>PT8247</name></trkpt>
<trkpt lat="53.087777" lon="-1.656232"><ele>264</ele><time>2020-10-28T13:49:08Z</time><name>PT8248</name></trkpt>
<trkpt lat="53.087787" lon="-1.656229"><ele>264</ele><time>2020-10-28T13:49:08Z</time><name>PT8249</name></trkpt>
<trkpt lat="53.087797" lon="-1.656224"><ele>264</ele><time>2020-10-28T13:49:10Z</time><name>PT8250</name></trkpt>
<trkpt lat="53.087807" lon="-1.656218"><ele>264</ele><time>2020-10-28T13:49:11Z</time><name>PT8251</name></trkpt>
<trkpt lat="53.087818" lon="-1.656212"><ele>263</ele><time>2020-10-28T13:49:11Z</time><name>PT8252</name></trkpt>
<trkpt lat="53.087830" lon="-1.656209"><ele>263</ele><time>2020-10-28T13:49:13Z</time><name>PT8253</name></trkpt>
<trkpt lat="53.087849" lon="-1.656203"><ele>263</ele><time>2020-10-28T13:49:14Z</time><name>PT8254</name></trkpt>
<trkpt lat="53.087868" lon="-1.656198"><ele>263</ele><time>2020-10-28T13:49:14Z</time><name>PT8255</name></trkpt>
<trkpt lat="53.087887" lon="-1.656187"><ele>264</ele><time>2020-10-28T13:49:15Z</time><name>PT8256</name></trkpt>
<trkpt lat="53.087906" lon="-1.656181"><ele>264</ele><time>2020-10-28T13:49:17Z</time><name>PT8257</name></trkpt>
<trkpt lat="53.087921" lon="-1.656173"><ele>263</ele><time>2020-10-28T13:49:17Z</time><name>PT8258</name></trkpt>
<trkpt lat="53.087933" lon="-1.656158"><ele>263</ele><time>2020-10-28T13:49:19Z</time><name>PT8259</name></trkpt>
<trkpt lat="53.087946" lon="-1.656154"><ele>264</ele><time>2020-10-28T13:49:20Z</time><name>PT8260</name></trkpt>
<trkpt lat="53.087961" lon="-1.656149"><ele>265</ele><time>2020-10-28T13:49:20Z</time><name>PT8261</name></trkpt>
<trkpt lat="53.087976" lon="-1.656146"><ele>265</ele><time>2020-10-28T13:49:21Z</time><name>PT8262</name></trkpt>
<trkpt lat="53.087989" lon="-1.656140"><ele>265</ele><time>2020-10-28T13:49:23Z</time><name>PT8263</name></trkpt>
<trkpt lat="53.088001" lon="-1.656137"><ele>265</ele><time>2020-10-28T13:49:23Z</time><name>PT8264</name></trkpt>
<trkpt lat="53.088015" lon="-1.656137"><ele>266</ele><time>2020-10-28T13:49:25Z</time><name>PT8265</name></trkpt>
<trkpt lat="53.088021" lon="-1.656136"><ele>265</ele><time>2020-10-28T13:49:26Z</time><name>PT8266</name></trkpt>
<trkpt lat="53.088029" lon="-1.656133"><ele>265</ele><time>2020-10-28T13:49:26Z</time><name>PT8267</name></trkpt>
<trkpt lat="53.088041" lon="-1.656127"><ele>265</ele><time>2020-10-28T13:49:28Z</time><name>PT8268</name></trkpt>
<trkpt lat="53.088052" lon="-1.656121"><ele>265</ele><time>2020-10-28T13:49:29Z</time><name>PT8269</name></trkpt>
<trkpt lat="53.088067" lon="-1.656114"><ele>266</ele><time>2020-10-28T13:49:29Z</time><name>PT8270</name></trkpt>
<trkpt lat="53.088080" lon="-1.656114"><ele>267</ele><time>2020-10-28T13:49:31Z</time><name>PT8271</name></trkpt>
<trkpt lat="53.088093" lon="-1.656112"><ele>267</ele><time>2020-10-28T13:49:32Z</time><name>PT8272</name></trkpt>
<trkpt lat="53.088106" lon="-1.656108"><ele>268</ele><time>2020-10-28T13:49:32Z</time><name>PT8273</name></trkpt>
<trkpt lat="53.088117" lon="-1.656108"><ele>268</ele><time>2020-10-28T13:49:34Z</time><name>PT8274</name></trkpt>
<trkpt lat="53.088128" lon="-1.656107"><ele>268</ele><time>2020-10-28T13:49:35Z</time><name>PT8275</name></trkpt>
<trkpt lat="53.088141" lon="-1.656104"><ele>268</ele><time>2020-10-28T13:49:35Z</time><name>PT8276</name></trkpt>
<trkpt lat="53.088153" lon="-1.656099"><ele>268</ele><time>2020-10-28T13:49:37Z</time><name>PT8277</name></trkpt>
<trkpt lat="53.088164" lon="-1.656092"><ele>268</ele><time>2020-10-28T13:49:38Z</time><name>PT8278</name></trkpt>
<trkpt lat="53.088173" lon="-1.656084"><ele>268</ele><time>2020-10-28T13:49:38Z</time><name>PT8279</name></trkpt>
<trkpt lat="53.088183" lon="-1.656077"><ele>268</ele><time>2020-10-28T13:49:40Z</time><name>PT8280</name></trkpt>
<trkpt lat="53.088190" lon="-1.656076"><ele>268</ele><time>2020-10-28T13:49:41Z</time><name>PT8281</name></trkpt>
<trkpt lat="53.088200" lon="-1.656075"><ele>268</ele><time>2020-10-28T13:49:41Z</time><name>PT8282</name></trkpt>
<trkpt lat="53.088208" lon="-1.656072"><ele>269</ele><time>2020-10-28T13:49:42Z</time><name>PT8283</name></trkpt>
<trkpt lat="53.088217" lon="-1.656068"><ele>268</ele><time>2020-10-28T13:49:44Z</time><name>PT8284</name></trkpt>
<trkpt lat="53.088230" lon="-1.656064"><ele>269</ele><time>2020-10-28T13:49:44Z</time><name>PT8285</name></trkpt>
<trkpt lat="53.088239" lon="-1.656061"><ele>268</ele><time>2020-10-28T13:49:46Z</time><name>PT8286</name></trkpt>
<trkpt lat="53.088252" lon="-1.656052"><ele>269</ele><time>2020-10-28T13:49:47Z</time><name>PT8287</name></trkpt>
<trkpt lat="53.088260" lon="-1.656043"><ele>269</ele><time>2020-10-28T13:49:47Z</time><name>PT8288</name></trkpt>
<trkpt lat="53.088277" lon="-1.656030"><ele>271</ele><time>2020-10-28T13:49:48Z</time><name>PT8289</name></trkpt>
<trkpt lat="53.088295" lon="-1.656015"><ele>272</ele><time>2020-10-28T13:49:50Z</time><name>PT8290</name></trkpt>
<trkpt lat="53.088299" lon="-1.656002"><ele>271</ele><time>2020-10-28T13:49:50Z</time><name>PT8291</name></trkpt>
<trkpt lat="53.088303" lon="-1.655988"><ele>271</ele><time>2020-10-28T13:49:51Z</time><name>PT8292</name></trkpt>
<trkpt lat="53.088304" lon="-1.655972"><ele>271</ele><time>2020-10-28T13:49:53Z</time><name>PT8293</name></trkpt>
<trkpt lat="53.088302" lon="-1.655962"><ele>270</ele><time>2020-10-28T13:49:53Z</time><name>PT8294</name></trkpt>
<trkpt lat="53.088296" lon="-1.655958"><ele>270</ele><time>2020-10-28T13:49:54Z</time><name>PT8295</name></trkpt>
<trkpt lat="53.088291" lon="-1.655951"><ele>270</ele><time>2020-10-28T13:49:56Z</time><name>PT8296</name></trkpt>
<trkpt lat="53.088281" lon="-1.655948"><ele>269</ele><time>2020-10-28T13:49:56Z</time><name>PT8297</name></trkpt>
<trkpt lat="53.088269" lon="-1.655944"><ele>269</ele><time>2020-10-28T13:49:57Z</time><name>PT8298</name></trkpt>
<trkpt lat="53.088260" lon="-1.655940"><ele>269</ele><time>2020-10-28T13:49:59Z</time><name>PT8299</name></trkpt>
<trkpt lat="53.088254" lon="-1.655932"><ele>269</ele><time>2020-10-28T13:49:59Z</time><name>PT8300</name></trkpt>
<trkpt lat="53.088249" lon="-1.655922"><ele>269</ele><time>2020-10-28T13:50:00Z</time><name>PT8301</name></trkpt>
<trkpt lat="53.088242" lon="-1.655913"><ele>268</ele><time>2020-10-28T13:50:02Z</time><name>PT8302</name></trkpt>
<trkpt lat="53.088233" lon="-1.655905"><ele>269</ele><time>2020-10-28T13:50:02Z</time><name>PT8303</name></trkpt>
<trkpt lat="53.088230" lon="-1.655898"><ele>268</ele><time>2020-10-28T13:50:04Z</time><name>PT8304</name></trkpt>
<trkpt lat="53.088220" lon="-1.655903"><ele>267</ele><time>2020-10-28T13:50:05Z</time><name>PT8305</name></trkpt>
<trkpt lat="53.088210" lon="-1.655893"><ele>267</ele><time>2020-10-28T13:50:05Z</time><name>PT8306</name></trkpt>
<trkpt lat="53.088199" lon="-1.655880"><ele>267</ele><time>2020-10-28T13:50:06Z</time><name>PT8307</name></trkpt>
<trkpt lat="53.088189" lon="-1.655873"><ele>267</ele><time>2020-10-28T13:50:08Z</time><name>PT8308</name></trkpt>
<trkpt lat="53.088181" lon="-1.655855"><ele>268</ele><time>2020-10-28T13:50:08Z</time><name>PT8309</name></trkpt>
<trkpt lat="53.088172" lon="-1.655843"><ele>268</ele><time>2020-10-28T13:50:09Z</time><name>PT8310</name></trkpt>
<trkpt lat="53.088164" lon="-1.655833"><ele>268</ele><time>2020-10-28T13:50:11Z</time><name>PT8311</name></trkpt>
<trkpt lat="53.088154" lon="-1.655822"><ele>268</ele><time>2020-10-28T13:50:11Z</time><name>PT8312</name></trkpt>
<trkpt lat="53.088143" lon="-1.655813"><ele>268</ele><time>2020-10-28T13:50:13Z</time><name>PT8313</name></trkpt>
<trkpt lat="53.088131" lon="-1.655804"><ele>268</ele><time>2020-10-28T13:50:14Z</time><name>PT8314</name></trkpt>
<trkpt lat="53.088122" lon="-1.655796"><ele>268</ele><time>2020-10-28T13:50:14Z</time><name>PT8315</name></trkpt>
<trkpt lat="53.088112" lon="-1.655790"><ele>268</ele><time>2020-10-28T13:50:16Z</time><name>PT8316</name></trkpt>
<trkpt lat="53.088103" lon="-1.655779"><ele>268</ele><time>2020-10-28T13:50:17Z</time><name>PT8317</name></trkpt>
<trkpt lat="53.088092" lon="-1.655765"><ele>267</ele><time>2020-10-28T13:50:17Z</time><name>PT8318</name></trkpt>
<trkpt lat="53.088083" lon="-1.655755"><ele>267</ele><time>2020-10-28T13:50:18Z</time><name>PT8319</name></trkpt>
<trkpt lat="53.088074" lon="-1.655747"><ele>267</ele><time>2020-10-28T13:50:20Z</time><name>PT8320</name></trkpt>
<trkpt lat="53.088061" lon="-1.655732"><ele>267</ele><time>2020-10-28T13:50:20Z</time><name>PT8321</name></trkpt>
<trkpt lat="53.088050" lon="-1.655725"><ele>268</ele><time>2020-10-28T13:50:22Z</time><name>PT8322</name></trkpt>
<trkpt lat="53.088040" lon="-1.655716"><ele>268</ele><time>2020-10-28T13:50:23Z</time><name>PT8323</name></trkpt>
<trkpt lat="53.088031" lon="-1.655707"><ele>268</ele><time>2020-10-28T13:50:23Z</time><name>PT8324</name></trkpt>
<trkpt lat="53.088018" lon="-1.655696"><ele>268</ele><time>2020-10-28T13:50:25Z</time><name>PT8325</name></trkpt>
<trkpt lat="53.088009" lon="-1.655687"><ele>267</ele><time>2020-10-28T13:50:26Z</time><name>PT8326</name></trkpt>
<trkpt lat="53.088001" lon="-1.655677"><ele>267</ele><time>2020-10-28T13:50:26Z</time><name>PT8327</name></trkpt>
<trkpt lat="53.087994" lon="-1.655662"><ele>268</ele><time>2020-10-28T13:50:27Z</time><name>PT8328</name></trkpt>
<trkpt lat="53.087987" lon="-1.655647"><ele>268</ele><time>2020-10-28T13:50:29Z</time><name>PT8329</name></trkpt>
<trkpt lat="53.087983" lon="-1.655625"><ele>267</ele><time>2020-10-28T13:50:29Z</time><name>PT8330</name></trkpt>
<trkpt lat="53.087986" lon="-1.655604"><ele>268</ele><time>2020-10-28T13:50:30Z</time><name>PT8331</name></trkpt>
<trkpt lat="53.087991" lon="-1.655584"><ele>268</ele><time>2020-10-28T13:50:32Z</time><name>PT8332</name></trkpt>
<trkpt lat="53.087994" lon="-1.655567"><ele>267</ele><time>2020-10-28T13:50:32Z</time><name>PT8333</name></trkpt>
<trkpt lat="53.087998" lon="-1.655545"><ele>267</ele><time>2020-10-28T13:50:34Z</time><name>PT8334</name></trkpt>
<trkpt lat="53.088002" lon="-1.655524"><ele>267</ele><time>2020-10-28T13:50:35Z</time><name>PT8335</name></trkpt>
<trkpt lat="53.088007" lon="-1.655502"><ele>267</ele><time>2020-10-28T13:50:35Z</time><name>PT8336</name></trkpt>
<trkpt lat="53.088010" lon="-1.655484"><ele>266</ele><time>2020-10-28T13:50:36Z</time><name>PT8337</name></trkpt>
<trkpt lat="53.088013" lon="-1.655469"><ele>266</ele><time>2020-10-28T13:50:38Z</time><name>PT8338</name></trkpt>
<trkpt lat="53.088019" lon="-1.655453"><ele>266</ele><time>2020-10-28T13:50:38Z</time><name>PT8339</name></trkpt>
<trkpt lat="53.088027" lon="-1.655424"><ele>266</ele><time>2020-10-28T13:50:40Z</time><name>PT8340</name></trkpt>
<trkpt lat="53.088035" lon="-1.655401"><ele>266</ele><time>2020-10-28T13:50:41Z</time><name>PT8341</name></trkpt>
<trkpt lat="53.088043" lon="-1.655380"><ele>266</ele><time>2020-10-28T13:50:41Z</time><name>PT8342</name></trkpt>
<trkpt lat="53.088051" lon="-1.655360"><ele>266</ele><time>2020-10-28T13:50:42Z</time><name>PT8343</name></trkpt>
<trkpt lat="53.088055" lon="-1.655344"><ele>266</ele><time>2020-10-28T13:50:44Z</time><name>PT8344</name></trkpt>
<trkpt lat="53.088059" lon="-1.655327"><ele>266</ele><time>2020-10-28T13:50:44Z</time><name>PT8345</name></trkpt>
<trkpt lat="53.088061" lon="-1.655309"><ele>266</ele><time>2020-10-28T13:50:46Z</time><name>PT8346</name></trkpt>
<trkpt lat="53.088064" lon="-1.655290"><ele>267</ele><time>2020-10-28T13:50:47Z</time><name>PT8347</name></trkpt>
<trkpt lat="53.088067" lon="-1.655268"><ele>267</ele><time>2020-10-28T13:50:47Z</time><name>PT8348</name></trkpt>
<trkpt lat="53.088069" lon="-1.655252"><ele>267</ele><time>2020-10-28T13:50:49Z</time><name>PT8349</name></trkpt>
<trkpt lat="53.088070" lon="-1.655233"><ele>267</ele><time>2020-10-28T13:50:50Z</time><name>PT8350</name></trkpt>
<trkpt lat="53.088068" lon="-1.655221"><ele>267</ele><time>2020-10-28T13:50:50Z</time><name>PT8351</name></trkpt>
<trkpt lat="53.088067" lon="-1.655198"><ele>267</ele><time>2020-10-28T13:50:52Z</time><name>PT8352</name></trkpt>
<trkpt lat="53.088067" lon="-1.655175"><ele>267</ele><time>2020-10-28T13:50:53Z</time><name>PT8353</name></trkpt>
<trkpt lat="53.088065" lon="-1.655157"><ele>267</ele><time>2020-10-28T13:50:53Z</time><name>PT8354</name></trkpt>
<trkpt lat="53.088061" lon="-1.655140"><ele>267</ele><time>2020-10-28T13:50:54Z</time><name>PT8355</name></trkpt>
<trkpt lat="53.088057" lon="-1.655127"><ele>267</ele><time>2020-10-28T13:50:56Z</time><name>PT8356</name></trkpt>
<trkpt lat="53.088058" lon="-1.655113"><ele>267</ele><time>2020-10-28T13:50:56Z</time><name>PT8357</name></trkpt>
<trkpt lat="53.088057" lon="-1.655090"><ele>267</ele><time>2020-10-28T13:50:57Z</time><name>PT8358</name></trkpt>
<trkpt lat="53.088056" lon="-1.655072"><ele>268</ele><time>2020-10-28T13:50:59Z</time><name>PT8359</name></trkpt>
<trkpt lat="53.088055" lon="-1.655057"><ele>268</ele><time>2020-10-28T13:50:59Z</time><name>PT8360</name></trkpt>
<trkpt lat="53.088053" lon="-1.655042"><ele>268</ele><time>2020-10-28T13:51:01Z</time><name>PT8361</name></trkpt>
<trkpt lat="53.088052" lon="-1.655030"><ele>268</ele><time>2020-10-28T13:51:02Z</time><name>PT8362</name></trkpt>
<trkpt lat="53.088052" lon="-1.655013"><ele>269</ele><time>2020-10-28T13:51:02Z</time><name>PT8363</name></trkpt>
<trkpt lat="53.088050" lon="-1.655001"><ele>269</ele><time>2020-10-28T13:51:04Z</time><name>PT8364</name></trkpt>
<trkpt lat="53.088050" lon="-1.654984"><ele>269</ele><time>2020-10-28T13:51:05Z</time><name>PT8365</name></trkpt>
<trkpt lat="53.088048" lon="-1.654971"><ele>270</ele><time>2020-10-28T13:51:05Z</time><name>PT8366</name></trkpt>
<trkpt lat="53.088046" lon="-1.654958"><ele>270</ele><time>2020-10-28T13:51:06Z</time><name>PT8367</name></trkpt>
<trkpt lat="53.088043" lon="-1.654946"><ele>271</ele><time>2020-10-28T13:51:08Z</time><name>PT8368</name></trkpt>
<trkpt lat="53.088041" lon="-1.654932"><ele>270</ele><time>2020-10-28T13:51:08Z</time><name>PT8369</name></trkpt>
<trkpt lat="53.088040" lon="-1.654920"><ele>270</ele><time>2020-10-28T13:51:09Z</time><name>PT8370</name></trkpt>
<trkpt lat="53.088037" lon="-1.654909"><ele>270</ele><time>2020-10-28T13:51:11Z</time><name>PT8371</name></trkpt>
<trkpt lat="53.088034" lon="-1.654891"><ele>271</ele><time>2020-10-28T13:51:11Z</time><name>PT8372</name></trkpt>
<trkpt lat="53.088038" lon="-1.654873"><ele>270</ele><time>2020-10-28T13:51:13Z</time><name>PT8373</name></trkpt>
<trkpt lat="53.088040" lon="-1.654854"><ele>270</ele><time>2020-10-28T13:51:14Z</time><name>PT8374</name></trkpt>
<trkpt lat="53.088040" lon="-1.654839"><ele>269</ele><time>2020-10-28T13:51:14Z</time><name>PT8375</name></trkpt>
<trkpt lat="53.088037" lon="-1.654826"><ele>269</ele><time>2020-10-28T13:51:16Z</time><name>PT8376</name></trkpt>
<trkpt lat="53.088033" lon="-1.654809"><ele>269</ele><time>2020-10-28T13:51:17Z</time><name>PT8377</name></trkpt>
<trkpt lat="53.088034" lon="-1.654789"><ele>268</ele><time>2020-10-28T13:51:17Z</time><name>PT8378</name></trkpt>
<trkpt lat="53.088034" lon="-1.654770"><ele>268</ele><time>2020-10-28T13:51:18Z</time><name>PT8379</name></trkpt>
<trkpt lat="53.088033" lon="-1.654754"><ele>269</ele><time>2020-10-28T13:51:20Z</time><name>PT8380</name></trkpt>
<trkpt lat="53.088031" lon="-1.654741"><ele>269</ele><time>2020-10-28T13:51:20Z</time><name>PT8381</name></trkpt>
<trkpt lat="53.088033" lon="-1.654728"><ele>269</ele><time>2020-10-28T13:51:21Z</time><name>PT8382</name></trkpt>
<trkpt lat="53.088036" lon="-1.654716"><ele>269</ele><time>2020-10-28T13:51:23Z</time><name>PT8383</name></trkpt>
<trkpt lat="53.088041" lon="-1.654700"><ele>269</ele><time>2020-10-28T13:51:23Z</time><name>PT8384</name></trkpt>
<trkpt lat="53.088040" lon="-1.654680"><ele>268</ele><time>2020-10-28T13:51:25Z</time><name>PT8385</name></trkpt>
<trkpt lat="53.088037" lon="-1.654658"><ele>268</ele><time>2020-10-28T13:51:26Z</time><name>PT8386</name></trkpt>
<trkpt lat="53.088033" lon="-1.654635"><ele>268</ele><time>2020-10-28T13:51:26Z</time><name>PT8387</name></trkpt>
<trkpt lat="53.088032" lon="-1.654615"><ele>268</ele><time>2020-10-28T13:51:27Z</time><name>PT8388</name></trkpt>
<trkpt lat="53.088032" lon="-1.654597"><ele>268</ele><time>2020-10-28T13:51:29Z</time><name>PT8389</name></trkpt>
<trkpt lat="53.088032" lon="-1.654579"><ele>269</ele><time>2020-10-28T13:51:29Z</time><name>PT8390</name></trkpt>
<trkpt lat="53.088033" lon="-1.654563"><ele>269</ele><time>2020-10-28T13:51:31Z</time><name>PT8391</name></trkpt>
<trkpt lat="53.088035" lon="-1.654542"><ele>269</ele><time>2020-10-28T13:51:32Z</time><name>PT8392</name></trkpt>
<trkpt lat="53.088038" lon="-1.654515"><ele>269</ele><time>2020-10-28T13:51:32Z</time><name>PT8393</name></trkpt>
<trkpt lat="53.088042" lon="-1.654498"><ele>269</ele><time>2020-10-28T13:51:34Z</time><name>PT8394</name></trkpt>
<trkpt lat="53.088042" lon="-1.654478"><ele>269</ele><time>2020-10-28T13:51:35Z</time><name>PT8395</name></trkpt>
<trkpt lat="53.088045" lon="-1.654462"><ele>269</ele><time>2020-10-28T13:51:35Z</time><name>PT8396</name></trkpt>
<trkpt lat="53.088044" lon="-1.654446"><ele>269</ele><time>2020-10-28T13:51:37Z</time><name>PT8397</name></trkpt>
<trkpt lat="53.088042" lon="-1.654433"><ele>268</ele><time>2020-10-28T13:51:38Z</time><name>PT8398</name></trkpt>
<trkpt lat="53.088045" lon="-1.654415"><ele>268</ele><time>2020-10-28T13:51:38Z</time><name>PT8399</name></trkpt>
<trkpt lat="53.088045" lon="-1.654403"><ele>268</ele><time>2020-10-28T13:51:40Z</time><name>PT8400</name></trkpt>
<trkpt lat="53.088043" lon="-1.654386"><ele>267</ele><time>2020-10-28T13:51:41Z</time><name>PT8401</name></trkpt>
<trkpt lat="53.088045" lon="-1.654367"><ele>267</ele><time>2020-10-28T13:51:41Z</time><name>PT8402</name></trkpt>
<trkpt lat="53.088048" lon="-1.654345"><ele>267</ele><time>2020-10-28T13:51:43Z</time><name>PT8403</name></trkpt>
<trkpt lat="53.088050" lon="-1.654321"><ele>268</ele><time>2020-10-28T13:51:44Z</time><name>PT8404</name></trkpt>
<trkpt lat="53.088054" lon="-1.654303"><ele>267</ele><time>2020-10-28T13:51:44Z</time><name>PT8405</name></trkpt>
<trkpt lat="53.088057" lon="-1.654277"><ele>268</ele><time>2020-10-28T13:51:45Z</time><name>PT8406</name></trkpt>
<trkpt lat="53.088058" lon="-1.654257"><ele>268</ele><time>2020-10-28T13:51:47Z</time><name>PT8407</name></trkpt>
<trkpt lat="53.088063" lon="-1.654241"><ele>267</ele><time>2020-10-28T13:51:47Z</time><name>PT8408</name></trkpt>
<trkpt lat="53.088065" lon="-1.654228"><ele>267</ele><time>2020-10-28T13:51:48Z</time><name>PT8409</name></trkpt>
<trkpt lat="53.088069" lon="-1.654209"><ele>267</ele><time>2020-10-28T13:51:50Z</time><name>PT8410</name></trkpt>
<trkpt lat="53.088073" lon="-1.654189"><ele>266</ele><time>2020-10-28T13:51:50Z</time><name>PT8411</name></trkpt>
<trkpt lat="53.088079" lon="-1.654169"><ele>266</ele><time>2020-10-28T13:51:51Z</time><name>PT8412</name></trkpt>
<trkpt lat="53.088088" lon="-1.654155"><ele>265</ele><time>2020-10-28T13:51:53Z</time><name>PT8413</name></trkpt>
<trkpt lat="53.088097" lon="-1.654139"><ele>264</ele><time>2020-10-28T13:51:53Z</time><name>PT8414</name></trkpt>
<trkpt lat="53.088104" lon="-1.654121"><ele>264</ele><time>2020-10-28T13:51:54Z</time><name>PT8415</name></trkpt>
<trkpt lat="53.088103" lon="-1.654100"><ele>264</ele><time>2020-10-28T13:51:56Z</time><name>PT8416</name></trkpt>
<trkpt lat="53.088105" lon="-1.654084"><ele>264</ele><time>2020-10-28T13:51:56Z</time><name>PT8417</name></trkpt>
<trkpt lat="53.088113" lon="-1.654065"><ele>264</ele><time>2020-10-28T13:51:57Z</time><name>PT8418</name></trkpt>
<trkpt lat="53.088124" lon="-1.654045"><ele>264</ele><time>2020-10-28T13:51:59Z</time><name>PT8419</name></trkpt>
<trkpt lat="53.088135" lon="-1.654026"><ele>264</ele><time>2020-10-28T13:51:59Z</time><name>PT8420</name></trkpt>
<trkpt lat="53.088136" lon="-1.654003"><ele>265</ele><time>2020-10-28T13:52:01Z</time><name>PT8421</name></trkpt>
<trkpt lat="53.088139" lon="-1.653979"><ele>265</ele><time>2020-10-28T13:52:02Z</time><name>PT8422</name></trkpt>
<trkpt lat="53.088144" lon="-1.653950"><ele>266</ele><time>2020-10-28T13:52:02Z</time><name>PT8423</name></trkpt>
<trkpt lat="53.088149" lon="-1.653930"><ele>266</ele><time>2020-10-28T13:52:04Z</time><name>PT8424</name></trkpt>
<trkpt lat="53.088157" lon="-1.653912"><ele>266</ele><time>2020-10-28T13:52:05Z</time><name>PT8425</name></trkpt>
<trkpt lat="53.088160" lon="-1.653894"><ele>266</ele><time>2020-10-28T13:52:05Z</time><name>PT8426</name></trkpt>
<trkpt lat="53.088162" lon="-1.653877"><ele>266</ele><time>2020-10-28T13:52:07Z</time><name>PT8427</name></trkpt>
<trkpt lat="53.088169" lon="-1.653858"><ele>266</ele><time>2020-10-28T13:52:08Z</time><name>PT8428</name></trkpt>
<trkpt lat="53.088174" lon="-1.653837"><ele>266</ele><time>2020-10-28T13:52:08Z</time><name>PT8429</name></trkpt>
<trkpt lat="53.088178" lon="-1.653820"><ele>267</ele><time>2020-10-28T13:52:09Z</time><name>PT8430</name></trkpt>
<trkpt lat="53.088185" lon="-1.653801"><ele>267</ele><time>2020-10-28T13:52:11Z</time><name>PT8431</name></trkpt>
<trkpt lat="53.088191" lon="-1.653786"><ele>267</ele><time>2020-10-28T13:52:11Z</time><name>PT8432</name></trkpt>
<trkpt lat="53.088200" lon="-1.653778"><ele>267</ele><time>2020-10-28T13:52:12Z</time><name>PT8433</name></trkpt>
<trkpt lat="53.088205" lon="-1.653760"><ele>267</ele><time>2020-10-28T13:52:14Z</time><name>PT8434</name></trkpt>
<trkpt lat="53.088211" lon="-1.653751"><ele>268</ele><time>2020-10-28T13:52:14Z</time><name>PT8435</name></trkpt>
<trkpt lat="53.088214" lon="-1.653739"><ele>268</ele><time>2020-10-28T13:52:15Z</time><name>PT8436</name></trkpt>
<trkpt lat="53.088218" lon="-1.653722"><ele>268</ele><time>2020-10-28T13:52:17Z</time><name>PT8437</name></trkpt>
<trkpt lat="53.088220" lon="-1.653705"><ele>268</ele><time>2020-10-28T13:52:17Z</time><name>PT8438</name></trkpt>
<trkpt lat="53.088227" lon="-1.653690"><ele>269</ele><time>2020-10-28T13:52:18Z</time><name>PT8439</name></trkpt>
<trkpt lat="53.088231" lon="-1.653677"><ele>269</ele><time>2020-10-28T13:52:20Z</time><name>PT8440</name></trkpt>
<trkpt lat="53.088235" lon="-1.653661"><ele>269</ele><time>2020-10-28T13:52:20Z</time><name>PT8441</name></trkpt>
<trkpt lat="53.088245" lon="-1.653647"><ele>268</ele><time>2020-10-28T13:52:22Z</time><name>PT8442</name></trkpt>
<trkpt lat="53.088251" lon="-1.653633"><ele>268</ele><time>2020-10-28T13:52:23Z</time><name>PT8443</name></trkpt>
<trkpt lat="53.088259" lon="-1.653616"><ele>267</ele><time>2020-10-28T13:52:23Z</time><name>PT8444</name></trkpt>
<trkpt lat="53.088268" lon="-1.653565"><ele>268</ele><time>2020-10-28T13:52:26Z</time><name>PT8445</name></trkpt>
<trkpt lat="53.088288" lon="-1.653493"><ele>269</ele><time>2020-10-28T13:52:31Z</time><name>PT8446</name></trkpt>
<trkpt lat="53.088308" lon="-1.653420"><ele>270</ele><time>2020-10-28T13:52:35Z</time><name>PT8447</name></trkpt>
<trkpt lat="53.088322" lon="-1.653360"><ele>268</ele><time>2020-10-28T13:52:38Z</time><name>PT8448</name></trkpt>
<trkpt lat="53.088344" lon="-1.653308"><ele>269</ele><time>2020-10-28T13:52:41Z</time><name>PT8449</name></trkpt>
<trkpt lat="53.088379" lon="-1.653250"><ele>269</ele><time>2020-10-28T13:52:44Z</time><name>PT8450</name></trkpt>
<trkpt lat="53.088413" lon="-1.653190"><ele>270</ele><time>2020-10-28T13:52:49Z</time><name>PT8451</name></trkpt>
<trkpt lat="53.088447" lon="-1.653111"><ele>271</ele><time>2020-10-28T13:52:53Z</time><name>PT8452</name></trkpt>
<trkpt lat="53.088473" lon="-1.653066"><ele>271</ele><time>2020-10-28T13:52:56Z</time><name>PT8453</name></trkpt>
<trkpt lat="53.088500" lon="-1.653004"><ele>272</ele><time>2020-10-28T13:52:59Z</time><name>PT8454</name></trkpt>
<trkpt lat="53.088524" lon="-1.652964"><ele>274</ele><time>2020-10-28T13:53:02Z</time><name>PT8455</name></trkpt>
<trkpt lat="53.088547" lon="-1.652911"><ele>276</ele><time>2020-10-28T13:53:05Z</time><name>PT8456</name></trkpt>
<trkpt lat="53.088585" lon="-1.652860"><ele>276</ele><time>2020-10-28T13:53:09Z</time><name>PT8457</name></trkpt>
<trkpt lat="53.088616" lon="-1.652804"><ele>277</ele><time>2020-10-28T13:53:14Z</time><name>PT8458</name></trkpt>
<trkpt lat="53.088637" lon="-1.652763"><ele>278</ele><time>2020-10-28T13:53:17Z</time><name>PT8459</name></trkpt>
<trkpt lat="53.088662" lon="-1.652702"><ele>280</ele><time>2020-10-28T13:53:20Z</time><name>PT8460</name></trkpt>
<trkpt lat="53.088695" lon="-1.652653"><ele>280</ele><time>2020-10-28T13:53:25Z</time><name>PT8461</name></trkpt>
<trkpt lat="53.088726" lon="-1.652606"><ele>281</ele><time>2020-10-28T13:53:29Z</time><name>PT8462</name></trkpt>
<trkpt lat="53.088745" lon="-1.652554"><ele>280</ele><time>2020-10-28T13:53:32Z</time><name>PT8463</name></trkpt>
<trkpt lat="53.088769" lon="-1.652525"><ele>281</ele><time>2020-10-28T13:53:35Z</time><name>PT8464</name></trkpt>
<trkpt lat="53.088798" lon="-1.652484"><ele>283</ele><time>2020-10-28T13:53:38Z</time><name>PT8465</name></trkpt>
<trkpt lat="53.088809" lon="-1.652482"><ele>284</ele><time>2020-10-28T13:53:38Z</time><name>PT8466</name></trkpt>
<trkpt lat="53.088807" lon="-1.652479"><ele>285</ele><time>2020-10-28T13:53:39Z</time><name>PT8467</name></trkpt>
<trkpt lat="53.088808" lon="-1.652474"><ele>285</ele><time>2020-10-28T13:53:41Z</time><name>PT8468</name></trkpt>
<trkpt lat="53.088808" lon="-1.652473"><ele>285</ele><time>2020-10-28T13:53:41Z</time><name>PT8469</name></trkpt></trkseg></trk></gpx>